<?xml version="1.0" encoding="UTF-8" standalone="no" ?>
<gpx xmlns="http://www.topografix.com/GPX/1/1" xmlns:xsi="http://www.w3.org/2001/XMLSchema-instance" xsi:schemaLocation="http://www.topografix.com/GPX/1/1 http://www.topografix.com/GPX/1/1/gpx.xsd" version="1.1" creator="VisuGPX - https://www.visugpx.com">
  <metadata>
    <name>TOUR D'ANTRAUNE</name>
    <desc><![CDATA[Belle sortie d’été 31 km pour moins de D 1500m car suite à une erreur d'itinéraire avec une balise pas très visible nous sommes descendu trop bas et avons du remonter en poussage portage sur env D 150m
Beaucoup de marmottes et un renard.
descentes pas techniques mais agréables.]]></desc>
  </metadata>
  <trk>
    <name><![CDATA[20180707212531-DYk9d]]></name>
    <trkseg>
      <trkpt lat="44.18719" lon="6.74793">
        <ele>1258</ele>
        <time>2018-07-07T08:06:22.000Z</time>
      </trkpt>
      <trkpt lat="44.18719" lon="6.74793">
        <ele>1258</ele>
        <time>2018-07-07T08:06:26.000Z</time>
      </trkpt>
      <trkpt lat="44.18719" lon="6.74794">
        <ele>1258</ele>
        <time>2018-07-07T08:06:29.000Z</time>
      </trkpt>
      <trkpt lat="44.18719" lon="6.74795">
        <ele>1258</ele>
        <time>2018-07-07T08:06:35.000Z</time>
      </trkpt>
      <trkpt lat="44.18719" lon="6.74795">
        <ele>1258</ele>
        <time>2018-07-07T08:06:45.000Z</time>
      </trkpt>
      <trkpt lat="44.18719" lon="6.74797">
        <ele>1258</ele>
        <time>2018-07-07T08:06:48.000Z</time>
      </trkpt>
      <trkpt lat="44.18718" lon="6.74797">
        <ele>1258</ele>
        <time>2018-07-07T08:06:50.000Z</time>
      </trkpt>
      <trkpt lat="44.18718" lon="6.74797">
        <ele>1258</ele>
        <time>2018-07-07T08:06:55.000Z</time>
      </trkpt>
      <trkpt lat="44.1872" lon="6.74796">
        <ele>1258</ele>
        <time>2018-07-07T08:07:01.000Z</time>
      </trkpt>
      <trkpt lat="44.18721" lon="6.74797">
        <ele>1258</ele>
        <time>2018-07-07T08:07:05.000Z</time>
      </trkpt>
      <trkpt lat="44.1873" lon="6.74801">
        <ele>1257</ele>
        <time>2018-07-07T08:07:10.000Z</time>
      </trkpt>
      <trkpt lat="44.18741" lon="6.74815">
        <ele>1257</ele>
        <time>2018-07-07T08:07:16.000Z</time>
      </trkpt>
      <trkpt lat="44.18756" lon="6.74836">
        <ele>1256</ele>
        <time>2018-07-07T08:07:23.000Z</time>
      </trkpt>
      <trkpt lat="44.1876" lon="6.74841">
        <ele>1257</ele>
        <time>2018-07-07T08:07:25.000Z</time>
      </trkpt>
      <trkpt lat="44.18764" lon="6.74844">
        <ele>1257</ele>
        <time>2018-07-07T08:07:27.000Z</time>
      </trkpt>
      <trkpt lat="44.18767" lon="6.74846">
        <ele>1257</ele>
        <time>2018-07-07T08:07:29.000Z</time>
      </trkpt>
      <trkpt lat="44.18768" lon="6.74848">
        <ele>1258</ele>
        <time>2018-07-07T08:07:30.000Z</time>
      </trkpt>
      <trkpt lat="44.1877" lon="6.7485">
        <ele>1258</ele>
        <time>2018-07-07T08:07:32.000Z</time>
      </trkpt>
      <trkpt lat="44.18771" lon="6.7485">
        <ele>1258</ele>
        <time>2018-07-07T08:07:35.000Z</time>
      </trkpt>
      <trkpt lat="44.18771" lon="6.7485">
        <ele>1258</ele>
        <time>2018-07-07T08:07:37.000Z</time>
      </trkpt>
      <trkpt lat="44.18771" lon="6.74846">
        <ele>1258</ele>
        <time>2018-07-07T08:07:41.000Z</time>
      </trkpt>
      <trkpt lat="44.18772" lon="6.74845">
        <ele>1258</ele>
        <time>2018-07-07T08:07:43.000Z</time>
      </trkpt>
      <trkpt lat="44.18776" lon="6.74842">
        <ele>1258</ele>
        <time>2018-07-07T08:07:49.000Z</time>
      </trkpt>
      <trkpt lat="44.18777" lon="6.74841">
        <ele>1258</ele>
        <time>2018-07-07T08:07:50.000Z</time>
      </trkpt>
      <trkpt lat="44.18781" lon="6.74839">
        <ele>1258</ele>
        <time>2018-07-07T08:07:56.000Z</time>
      </trkpt>
      <trkpt lat="44.18782" lon="6.74837">
        <ele>1258</ele>
        <time>2018-07-07T08:07:58.000Z</time>
      </trkpt>
      <trkpt lat="44.18782" lon="6.7483">
        <ele>1257</ele>
        <time>2018-07-07T08:08:01.000Z</time>
      </trkpt>
      <trkpt lat="44.18783" lon="6.74826">
        <ele>1257</ele>
        <time>2018-07-07T08:08:03.000Z</time>
      </trkpt>
      <trkpt lat="44.18783" lon="6.74824">
        <ele>1258</ele>
        <time>2018-07-07T08:08:06.000Z</time>
      </trkpt>
      <trkpt lat="44.18784" lon="6.74822">
        <ele>1258</ele>
        <time>2018-07-07T08:08:11.000Z</time>
      </trkpt>
      <trkpt lat="44.18785" lon="6.74822">
        <ele>1258</ele>
        <time>2018-07-07T08:08:12.000Z</time>
      </trkpt>
      <trkpt lat="44.18788" lon="6.74823">
        <ele>1258</ele>
        <time>2018-07-07T08:08:15.000Z</time>
      </trkpt>
      <trkpt lat="44.18788" lon="6.74822">
        <ele>1258</ele>
        <time>2018-07-07T08:08:16.000Z</time>
      </trkpt>
      <trkpt lat="44.18788" lon="6.74823">
        <ele>1258</ele>
        <time>2018-07-07T08:08:26.000Z</time>
      </trkpt>
      <trkpt lat="44.18789" lon="6.74823">
        <ele>1258</ele>
        <time>2018-07-07T08:08:35.000Z</time>
      </trkpt>
      <trkpt lat="44.18789" lon="6.74823">
        <ele>1258</ele>
        <time>2018-07-07T08:08:43.000Z</time>
      </trkpt>
      <trkpt lat="44.18789" lon="6.74823">
        <ele>1258</ele>
        <time>2018-07-07T08:08:47.000Z</time>
      </trkpt>
      <trkpt lat="44.18787" lon="6.74823">
        <ele>1258</ele>
        <time>2018-07-07T08:08:52.000Z</time>
      </trkpt>
      <trkpt lat="44.18788" lon="6.74822">
        <ele>1258</ele>
        <time>2018-07-07T08:09:02.000Z</time>
      </trkpt>
      <trkpt lat="44.18788" lon="6.74823">
        <ele>1258</ele>
        <time>2018-07-07T08:09:10.000Z</time>
      </trkpt>
      <trkpt lat="44.1879" lon="6.74823">
        <ele>1258</ele>
        <time>2018-07-07T08:09:29.000Z</time>
      </trkpt>
      <trkpt lat="44.1879" lon="6.74822">
        <ele>1258</ele>
        <time>2018-07-07T08:10:01.000Z</time>
      </trkpt>
      <trkpt lat="44.18789" lon="6.74823">
        <ele>1258</ele>
        <time>2018-07-07T08:10:26.000Z</time>
      </trkpt>
      <trkpt lat="44.18788" lon="6.74823">
        <ele>1258</ele>
        <time>2018-07-07T08:10:38.000Z</time>
      </trkpt>
      <trkpt lat="44.18788" lon="6.74823">
        <ele>1258</ele>
        <time>2018-07-07T08:10:51.000Z</time>
      </trkpt>
      <trkpt lat="44.18788" lon="6.74823">
        <ele>1258</ele>
        <time>2018-07-07T08:11:05.000Z</time>
      </trkpt>
      <trkpt lat="44.18788" lon="6.74823">
        <ele>1258</ele>
        <time>2018-07-07T08:11:28.000Z</time>
      </trkpt>
      <trkpt lat="44.18787" lon="6.74823">
        <ele>1258</ele>
        <time>2018-07-07T08:11:47.000Z</time>
      </trkpt>
      <trkpt lat="44.18786" lon="6.74823">
        <ele>1258</ele>
        <time>2018-07-07T08:11:59.000Z</time>
      </trkpt>
      <trkpt lat="44.18786" lon="6.74824">
        <ele>1258</ele>
        <time>2018-07-07T08:12:07.000Z</time>
      </trkpt>
      <trkpt lat="44.18787" lon="6.74824">
        <ele>1258</ele>
        <time>2018-07-07T08:12:18.000Z</time>
      </trkpt>
      <trkpt lat="44.18787" lon="6.74824">
        <ele>1258</ele>
        <time>2018-07-07T08:12:26.000Z</time>
      </trkpt>
      <trkpt lat="44.18787" lon="6.74824">
        <ele>1258</ele>
        <time>2018-07-07T08:12:37.000Z</time>
      </trkpt>
      <trkpt lat="44.18787" lon="6.74825">
        <ele>1258</ele>
        <time>2018-07-07T08:12:46.000Z</time>
      </trkpt>
      <trkpt lat="44.18786" lon="6.74826">
        <ele>1258</ele>
        <time>2018-07-07T08:12:56.000Z</time>
      </trkpt>
      <trkpt lat="44.18786" lon="6.74828">
        <ele>1258</ele>
        <time>2018-07-07T08:13:09.000Z</time>
      </trkpt>
      <trkpt lat="44.18786" lon="6.74828">
        <ele>1258</ele>
        <time>2018-07-07T08:13:19.000Z</time>
      </trkpt>
      <trkpt lat="44.18787" lon="6.74829">
        <ele>1258</ele>
        <time>2018-07-07T08:13:28.000Z</time>
      </trkpt>
      <trkpt lat="44.18788" lon="6.7483">
        <ele>1258</ele>
        <time>2018-07-07T08:13:39.000Z</time>
      </trkpt>
      <trkpt lat="44.18788" lon="6.7483">
        <ele>1258</ele>
        <time>2018-07-07T08:13:49.000Z</time>
      </trkpt>
      <trkpt lat="44.18784" lon="6.74831">
        <ele>1258</ele>
        <time>2018-07-07T08:13:54.000Z</time>
      </trkpt>
      <trkpt lat="44.18783" lon="6.74831">
        <ele>1257</ele>
        <time>2018-07-07T08:13:55.000Z</time>
      </trkpt>
      <trkpt lat="44.18781" lon="6.74831">
        <ele>1257</ele>
        <time>2018-07-07T08:13:59.000Z</time>
      </trkpt>
      <trkpt lat="44.18781" lon="6.74831">
        <ele>1257</ele>
        <time>2018-07-07T08:14:07.000Z</time>
      </trkpt>
      <trkpt lat="44.18782" lon="6.74831">
        <ele>1257</ele>
        <time>2018-07-07T08:14:17.000Z</time>
      </trkpt>
      <trkpt lat="44.18781" lon="6.7483">
        <ele>1257</ele>
        <time>2018-07-07T08:14:29.000Z</time>
      </trkpt>
      <trkpt lat="44.18779" lon="6.74828">
        <ele>1257</ele>
        <time>2018-07-07T08:14:36.000Z</time>
      </trkpt>
      <trkpt lat="44.18779" lon="6.74829">
        <ele>1257</ele>
        <time>2018-07-07T08:14:37.000Z</time>
      </trkpt>
      <trkpt lat="44.18778" lon="6.74834">
        <ele>1258</ele>
        <time>2018-07-07T08:14:40.000Z</time>
      </trkpt>
      <trkpt lat="44.18784" lon="6.7484">
        <ele>1258</ele>
        <time>2018-07-07T08:14:44.000Z</time>
      </trkpt>
      <trkpt lat="44.18789" lon="6.74843">
        <ele>1258</ele>
        <time>2018-07-07T08:14:47.000Z</time>
      </trkpt>
      <trkpt lat="44.18793" lon="6.74844">
        <ele>1259</ele>
        <time>2018-07-07T08:14:49.000Z</time>
      </trkpt>
      <trkpt lat="44.18798" lon="6.74846">
        <ele>1259</ele>
        <time>2018-07-07T08:14:52.000Z</time>
      </trkpt>
      <trkpt lat="44.18804" lon="6.74848">
        <ele>1259</ele>
        <time>2018-07-07T08:14:55.000Z</time>
      </trkpt>
      <trkpt lat="44.18805" lon="6.74849">
        <ele>1259</ele>
        <time>2018-07-07T08:14:56.000Z</time>
      </trkpt>
      <trkpt lat="44.18812" lon="6.74851">
        <ele>1259</ele>
        <time>2018-07-07T08:15:00.000Z</time>
      </trkpt>
      <trkpt lat="44.18819" lon="6.74854">
        <ele>1259</ele>
        <time>2018-07-07T08:15:04.000Z</time>
      </trkpt>
      <trkpt lat="44.1882" lon="6.74855">
        <ele>1259</ele>
        <time>2018-07-07T08:15:05.000Z</time>
      </trkpt>
      <trkpt lat="44.18822" lon="6.74856">
        <ele>1259</ele>
        <time>2018-07-07T08:15:06.000Z</time>
      </trkpt>
      <trkpt lat="44.18828" lon="6.74856">
        <ele>1259</ele>
        <time>2018-07-07T08:15:09.000Z</time>
      </trkpt>
      <trkpt lat="44.18832" lon="6.74857">
        <ele>1259</ele>
        <time>2018-07-07T08:15:11.000Z</time>
      </trkpt>
      <trkpt lat="44.18834" lon="6.74857">
        <ele>1261</ele>
        <time>2018-07-07T08:15:12.000Z</time>
      </trkpt>
      <trkpt lat="44.18843" lon="6.74861">
        <ele>1261</ele>
        <time>2018-07-07T08:15:17.000Z</time>
      </trkpt>
      <trkpt lat="44.18846" lon="6.74862">
        <ele>1261</ele>
        <time>2018-07-07T08:15:19.000Z</time>
      </trkpt>
      <trkpt lat="44.18862" lon="6.74867">
        <ele>1262</ele>
        <time>2018-07-07T08:15:27.000Z</time>
      </trkpt>
      <trkpt lat="44.18868" lon="6.74868">
        <ele>1262</ele>
        <time>2018-07-07T08:15:30.000Z</time>
      </trkpt>
      <trkpt lat="44.18882" lon="6.74872">
        <ele>1262</ele>
        <time>2018-07-07T08:15:37.000Z</time>
      </trkpt>
      <trkpt lat="44.18896" lon="6.74881">
        <ele>1262</ele>
        <time>2018-07-07T08:15:44.000Z</time>
      </trkpt>
      <trkpt lat="44.189" lon="6.74884">
        <ele>1263</ele>
        <time>2018-07-07T08:15:46.000Z</time>
      </trkpt>
      <trkpt lat="44.18908" lon="6.74887">
        <ele>1263</ele>
        <time>2018-07-07T08:15:51.000Z</time>
      </trkpt>
      <trkpt lat="44.1891" lon="6.74888">
        <ele>1263</ele>
        <time>2018-07-07T08:15:52.000Z</time>
      </trkpt>
      <trkpt lat="44.18919" lon="6.74897">
        <ele>1268</ele>
        <time>2018-07-07T08:15:58.000Z</time>
      </trkpt>
      <trkpt lat="44.1892" lon="6.74899">
        <ele>1268</ele>
        <time>2018-07-07T08:15:59.000Z</time>
      </trkpt>
      <trkpt lat="44.18922" lon="6.74908">
        <ele>1268</ele>
        <time>2018-07-07T08:16:03.000Z</time>
      </trkpt>
      <trkpt lat="44.18922" lon="6.74911">
        <ele>1268</ele>
        <time>2018-07-07T08:16:04.000Z</time>
      </trkpt>
      <trkpt lat="44.18918" lon="6.7493">
        <ele>1271</ele>
        <time>2018-07-07T08:16:10.000Z</time>
      </trkpt>
      <trkpt lat="44.18918" lon="6.74934">
        <ele>1272</ele>
        <time>2018-07-07T08:16:11.000Z</time>
      </trkpt>
      <trkpt lat="44.18918" lon="6.74959">
        <ele>1274</ele>
        <time>2018-07-07T08:16:16.000Z</time>
      </trkpt>
      <trkpt lat="44.18926" lon="6.74989">
        <ele>1273</ele>
        <time>2018-07-07T08:16:21.000Z</time>
      </trkpt>
      <trkpt lat="44.18926" lon="6.74996">
        <ele>1272</ele>
        <time>2018-07-07T08:16:22.000Z</time>
      </trkpt>
      <trkpt lat="44.18922" lon="6.75009">
        <ele>1273</ele>
        <time>2018-07-07T08:16:24.000Z</time>
      </trkpt>
      <trkpt lat="44.18918" lon="6.75013">
        <ele>1274</ele>
        <time>2018-07-07T08:16:25.000Z</time>
      </trkpt>
      <trkpt lat="44.18896" lon="6.75022">
        <ele>1271</ele>
        <time>2018-07-07T08:16:30.000Z</time>
      </trkpt>
      <trkpt lat="44.18878" lon="6.7501">
        <ele>1271</ele>
        <time>2018-07-07T08:16:33.000Z</time>
      </trkpt>
      <trkpt lat="44.18871" lon="6.75007">
        <ele>1271</ele>
        <time>2018-07-07T08:16:34.000Z</time>
      </trkpt>
      <trkpt lat="44.18864" lon="6.75006">
        <ele>1270</ele>
        <time>2018-07-07T08:16:35.000Z</time>
      </trkpt>
      <trkpt lat="44.18853" lon="6.75007">
        <ele>1269</ele>
        <time>2018-07-07T08:16:37.000Z</time>
      </trkpt>
      <trkpt lat="44.18839" lon="6.75009">
        <ele>1268</ele>
        <time>2018-07-07T08:16:41.000Z</time>
      </trkpt>
      <trkpt lat="44.18837" lon="6.7501">
        <ele>1268</ele>
        <time>2018-07-07T08:16:42.000Z</time>
      </trkpt>
      <trkpt lat="44.18832" lon="6.75011">
        <ele>1268</ele>
        <time>2018-07-07T08:16:44.000Z</time>
      </trkpt>
      <trkpt lat="44.18826" lon="6.75013">
        <ele>1268</ele>
        <time>2018-07-07T08:16:47.000Z</time>
      </trkpt>
      <trkpt lat="44.18817" lon="6.75017">
        <ele>1269</ele>
        <time>2018-07-07T08:16:52.000Z</time>
      </trkpt>
      <trkpt lat="44.18815" lon="6.75017">
        <ele>1270</ele>
        <time>2018-07-07T08:16:53.000Z</time>
      </trkpt>
      <trkpt lat="44.18806" lon="6.7502">
        <ele>1270</ele>
        <time>2018-07-07T08:16:58.000Z</time>
      </trkpt>
      <trkpt lat="44.18804" lon="6.75021">
        <ele>1270</ele>
        <time>2018-07-07T08:16:59.000Z</time>
      </trkpt>
      <trkpt lat="44.18796" lon="6.75023">
        <ele>1270</ele>
        <time>2018-07-07T08:17:03.000Z</time>
      </trkpt>
      <trkpt lat="44.1879" lon="6.75025">
        <ele>1270</ele>
        <time>2018-07-07T08:17:06.000Z</time>
      </trkpt>
      <trkpt lat="44.18782" lon="6.75026">
        <ele>1270</ele>
        <time>2018-07-07T08:17:10.000Z</time>
      </trkpt>
      <trkpt lat="44.18775" lon="6.75028">
        <ele>1270</ele>
        <time>2018-07-07T08:17:13.000Z</time>
      </trkpt>
      <trkpt lat="44.18756" lon="6.75039">
        <ele>1271</ele>
        <time>2018-07-07T08:17:22.000Z</time>
      </trkpt>
      <trkpt lat="44.18745" lon="6.75047">
        <ele>1268</ele>
        <time>2018-07-07T08:17:29.000Z</time>
      </trkpt>
      <trkpt lat="44.18743" lon="6.75049">
        <ele>1268</ele>
        <time>2018-07-07T08:17:30.000Z</time>
      </trkpt>
      <trkpt lat="44.18736" lon="6.75055">
        <ele>1269</ele>
        <time>2018-07-07T08:17:35.000Z</time>
      </trkpt>
      <trkpt lat="44.18725" lon="6.75061">
        <ele>1268</ele>
        <time>2018-07-07T08:17:40.000Z</time>
      </trkpt>
      <trkpt lat="44.18718" lon="6.75065">
        <ele>1268</ele>
        <time>2018-07-07T08:17:43.000Z</time>
      </trkpt>
      <trkpt lat="44.1871" lon="6.75069">
        <ele>1268</ele>
        <time>2018-07-07T08:17:46.000Z</time>
      </trkpt>
      <trkpt lat="44.18695" lon="6.75072">
        <ele>1267</ele>
        <time>2018-07-07T08:17:52.000Z</time>
      </trkpt>
      <trkpt lat="44.18684" lon="6.75073">
        <ele>1267</ele>
        <time>2018-07-07T08:17:56.000Z</time>
      </trkpt>
      <trkpt lat="44.18679" lon="6.75073">
        <ele>1267</ele>
        <time>2018-07-07T08:17:58.000Z</time>
      </trkpt>
      <trkpt lat="44.18665" lon="6.75075">
        <ele>1265</ele>
        <time>2018-07-07T08:18:03.000Z</time>
      </trkpt>
      <trkpt lat="44.18648" lon="6.7508">
        <ele>1262</ele>
        <time>2018-07-07T08:18:09.000Z</time>
      </trkpt>
      <trkpt lat="44.1863" lon="6.75084">
        <ele>1275</ele>
        <time>2018-07-07T08:18:16.000Z</time>
      </trkpt>
      <trkpt lat="44.18608" lon="6.75095">
        <ele>1274</ele>
        <time>2018-07-07T08:18:25.000Z</time>
      </trkpt>
      <trkpt lat="44.18592" lon="6.75106">
        <ele>1274</ele>
        <time>2018-07-07T08:18:32.000Z</time>
      </trkpt>
      <trkpt lat="44.18573" lon="6.75118">
        <ele>1272</ele>
        <time>2018-07-07T08:18:40.000Z</time>
      </trkpt>
      <trkpt lat="44.18554" lon="6.75128">
        <ele>1273</ele>
        <time>2018-07-07T08:18:47.000Z</time>
      </trkpt>
      <trkpt lat="44.18536" lon="6.75136">
        <ele>1273</ele>
        <time>2018-07-07T08:18:54.000Z</time>
      </trkpt>
      <trkpt lat="44.18528" lon="6.75139">
        <ele>1273</ele>
        <time>2018-07-07T08:18:57.000Z</time>
      </trkpt>
      <trkpt lat="44.18517" lon="6.75142">
        <ele>1274</ele>
        <time>2018-07-07T08:19:01.000Z</time>
      </trkpt>
      <trkpt lat="44.18502" lon="6.75148">
        <ele>1275</ele>
        <time>2018-07-07T08:19:07.000Z</time>
      </trkpt>
      <trkpt lat="44.18496" lon="6.7515">
        <ele>1271</ele>
        <time>2018-07-07T08:19:09.000Z</time>
      </trkpt>
      <trkpt lat="44.18491" lon="6.75153">
        <ele>1271</ele>
        <time>2018-07-07T08:19:11.000Z</time>
      </trkpt>
      <trkpt lat="44.18477" lon="6.75161">
        <ele>1269</ele>
        <time>2018-07-07T08:19:17.000Z</time>
      </trkpt>
      <trkpt lat="44.18474" lon="6.75164">
        <ele>1268</ele>
        <time>2018-07-07T08:19:19.000Z</time>
      </trkpt>
      <trkpt lat="44.18464" lon="6.7517">
        <ele>1280</ele>
        <time>2018-07-07T08:19:24.000Z</time>
      </trkpt>
      <trkpt lat="44.18457" lon="6.75175">
        <ele>1279</ele>
        <time>2018-07-07T08:19:28.000Z</time>
      </trkpt>
      <trkpt lat="44.18455" lon="6.75177">
        <ele>1279</ele>
        <time>2018-07-07T08:19:29.000Z</time>
      </trkpt>
      <trkpt lat="44.18449" lon="6.75182">
        <ele>1279</ele>
        <time>2018-07-07T08:19:33.000Z</time>
      </trkpt>
      <trkpt lat="44.18448" lon="6.75188">
        <ele>1279</ele>
        <time>2018-07-07T08:19:35.000Z</time>
      </trkpt>
      <trkpt lat="44.18453" lon="6.75196">
        <ele>1281</ele>
        <time>2018-07-07T08:19:39.000Z</time>
      </trkpt>
      <trkpt lat="44.18457" lon="6.75197">
        <ele>1282</ele>
        <time>2018-07-07T08:19:41.000Z</time>
      </trkpt>
      <trkpt lat="44.18461" lon="6.75196">
        <ele>1282</ele>
        <time>2018-07-07T08:19:43.000Z</time>
      </trkpt>
      <trkpt lat="44.18463" lon="6.75196">
        <ele>1282</ele>
        <time>2018-07-07T08:19:44.000Z</time>
      </trkpt>
      <trkpt lat="44.18469" lon="6.75194">
        <ele>1283</ele>
        <time>2018-07-07T08:19:47.000Z</time>
      </trkpt>
      <trkpt lat="44.18479" lon="6.75192">
        <ele>1283</ele>
        <time>2018-07-07T08:19:52.000Z</time>
      </trkpt>
      <trkpt lat="44.18491" lon="6.75193">
        <ele>1284</ele>
        <time>2018-07-07T08:19:58.000Z</time>
      </trkpt>
      <trkpt lat="44.18494" lon="6.75194">
        <ele>1284</ele>
        <time>2018-07-07T08:20:00.000Z</time>
      </trkpt>
      <trkpt lat="44.185" lon="6.75194">
        <ele>1284</ele>
        <time>2018-07-07T08:20:03.000Z</time>
      </trkpt>
      <trkpt lat="44.18505" lon="6.75194">
        <ele>1293</ele>
        <time>2018-07-07T08:20:06.000Z</time>
      </trkpt>
      <trkpt lat="44.18514" lon="6.75195">
        <ele>1294</ele>
        <time>2018-07-07T08:20:11.000Z</time>
      </trkpt>
      <trkpt lat="44.18516" lon="6.75196">
        <ele>1294</ele>
        <time>2018-07-07T08:20:12.000Z</time>
      </trkpt>
      <trkpt lat="44.18527" lon="6.75195">
        <ele>1295</ele>
        <time>2018-07-07T08:20:18.000Z</time>
      </trkpt>
      <trkpt lat="44.18535" lon="6.75195">
        <ele>1296</ele>
        <time>2018-07-07T08:20:23.000Z</time>
      </trkpt>
      <trkpt lat="44.18537" lon="6.75195">
        <ele>1296</ele>
        <time>2018-07-07T08:20:24.000Z</time>
      </trkpt>
      <trkpt lat="44.18546" lon="6.75195">
        <ele>1297</ele>
        <time>2018-07-07T08:20:29.000Z</time>
      </trkpt>
      <trkpt lat="44.18548" lon="6.75195">
        <ele>1297</ele>
        <time>2018-07-07T08:20:30.000Z</time>
      </trkpt>
      <trkpt lat="44.18555" lon="6.75195">
        <ele>1297</ele>
        <time>2018-07-07T08:20:34.000Z</time>
      </trkpt>
      <trkpt lat="44.18561" lon="6.75194">
        <ele>1297</ele>
        <time>2018-07-07T08:20:38.000Z</time>
      </trkpt>
      <trkpt lat="44.18569" lon="6.75193">
        <ele>1297</ele>
        <time>2018-07-07T08:20:43.000Z</time>
      </trkpt>
      <trkpt lat="44.18577" lon="6.7519">
        <ele>1296</ele>
        <time>2018-07-07T08:20:48.000Z</time>
      </trkpt>
      <trkpt lat="44.18582" lon="6.7519">
        <ele>1296</ele>
        <time>2018-07-07T08:20:51.000Z</time>
      </trkpt>
      <trkpt lat="44.18588" lon="6.7519">
        <ele>1301</ele>
        <time>2018-07-07T08:20:54.000Z</time>
      </trkpt>
      <trkpt lat="44.18595" lon="6.75189">
        <ele>1301</ele>
        <time>2018-07-07T08:20:58.000Z</time>
      </trkpt>
      <trkpt lat="44.18601" lon="6.75186">
        <ele>1302</ele>
        <time>2018-07-07T08:21:01.000Z</time>
      </trkpt>
      <trkpt lat="44.18607" lon="6.75185">
        <ele>1302</ele>
        <time>2018-07-07T08:21:04.000Z</time>
      </trkpt>
      <trkpt lat="44.1861" lon="6.75185">
        <ele>1303</ele>
        <time>2018-07-07T08:21:06.000Z</time>
      </trkpt>
      <trkpt lat="44.18619" lon="6.75184">
        <ele>1304</ele>
        <time>2018-07-07T08:21:11.000Z</time>
      </trkpt>
      <trkpt lat="44.18628" lon="6.75184">
        <ele>1304</ele>
        <time>2018-07-07T08:21:16.000Z</time>
      </trkpt>
      <trkpt lat="44.1863" lon="6.75183">
        <ele>1304</ele>
        <time>2018-07-07T08:21:17.000Z</time>
      </trkpt>
      <trkpt lat="44.18638" lon="6.75182">
        <ele>1304</ele>
        <time>2018-07-07T08:21:22.000Z</time>
      </trkpt>
      <trkpt lat="44.18649" lon="6.75184">
        <ele>1304</ele>
        <time>2018-07-07T08:21:28.000Z</time>
      </trkpt>
      <trkpt lat="44.1866" lon="6.75188">
        <ele>1304</ele>
        <time>2018-07-07T08:21:34.000Z</time>
      </trkpt>
      <trkpt lat="44.18668" lon="6.75184">
        <ele>1308</ele>
        <time>2018-07-07T08:21:39.000Z</time>
      </trkpt>
      <trkpt lat="44.18669" lon="6.75184">
        <ele>1308</ele>
        <time>2018-07-07T08:21:40.000Z</time>
      </trkpt>
      <trkpt lat="44.18676" lon="6.75181">
        <ele>1308</ele>
        <time>2018-07-07T08:21:44.000Z</time>
      </trkpt>
      <trkpt lat="44.1868" lon="6.75182">
        <ele>1309</ele>
        <time>2018-07-07T08:21:46.000Z</time>
      </trkpt>
      <trkpt lat="44.18685" lon="6.75182">
        <ele>1310</ele>
        <time>2018-07-07T08:21:49.000Z</time>
      </trkpt>
      <trkpt lat="44.18693" lon="6.75184">
        <ele>1312</ele>
        <time>2018-07-07T08:21:54.000Z</time>
      </trkpt>
      <trkpt lat="44.18696" lon="6.75183">
        <ele>1313</ele>
        <time>2018-07-07T08:21:56.000Z</time>
      </trkpt>
      <trkpt lat="44.18702" lon="6.75184">
        <ele>1314</ele>
        <time>2018-07-07T08:22:00.000Z</time>
      </trkpt>
      <trkpt lat="44.18705" lon="6.75184">
        <ele>1314</ele>
        <time>2018-07-07T08:22:02.000Z</time>
      </trkpt>
      <trkpt lat="44.18711" lon="6.75183">
        <ele>1315</ele>
        <time>2018-07-07T08:22:06.000Z</time>
      </trkpt>
      <trkpt lat="44.18713" lon="6.75183">
        <ele>1315</ele>
        <time>2018-07-07T08:22:07.000Z</time>
      </trkpt>
      <trkpt lat="44.18721" lon="6.7518">
        <ele>1315</ele>
        <time>2018-07-07T08:22:12.000Z</time>
      </trkpt>
      <trkpt lat="44.18724" lon="6.7518">
        <ele>1315</ele>
        <time>2018-07-07T08:22:14.000Z</time>
      </trkpt>
      <trkpt lat="44.18729" lon="6.75177">
        <ele>1314</ele>
        <time>2018-07-07T08:22:18.000Z</time>
      </trkpt>
      <trkpt lat="44.18735" lon="6.75175">
        <ele>1314</ele>
        <time>2018-07-07T08:22:22.000Z</time>
      </trkpt>
      <trkpt lat="44.18737" lon="6.75175">
        <ele>1314</ele>
        <time>2018-07-07T08:22:23.000Z</time>
      </trkpt>
      <trkpt lat="44.18748" lon="6.75173">
        <ele>1312</ele>
        <time>2018-07-07T08:22:30.000Z</time>
      </trkpt>
      <trkpt lat="44.18757" lon="6.75173">
        <ele>1315</ele>
        <time>2018-07-07T08:22:36.000Z</time>
      </trkpt>
      <trkpt lat="44.18759" lon="6.75173">
        <ele>1315</ele>
        <time>2018-07-07T08:22:37.000Z</time>
      </trkpt>
      <trkpt lat="44.18765" lon="6.75171">
        <ele>1316</ele>
        <time>2018-07-07T08:22:41.000Z</time>
      </trkpt>
      <trkpt lat="44.18773" lon="6.75169">
        <ele>1318</ele>
        <time>2018-07-07T08:22:46.000Z</time>
      </trkpt>
      <trkpt lat="44.18775" lon="6.75169">
        <ele>1318</ele>
        <time>2018-07-07T08:22:47.000Z</time>
      </trkpt>
      <trkpt lat="44.18783" lon="6.75166">
        <ele>1303</ele>
        <time>2018-07-07T08:22:53.000Z</time>
      </trkpt>
      <trkpt lat="44.18785" lon="6.75165">
        <ele>1303</ele>
        <time>2018-07-07T08:22:54.000Z</time>
      </trkpt>
      <trkpt lat="44.18794" lon="6.7516">
        <ele>1302</ele>
        <time>2018-07-07T08:23:00.000Z</time>
      </trkpt>
      <trkpt lat="44.18795" lon="6.75159">
        <ele>1302</ele>
        <time>2018-07-07T08:23:01.000Z</time>
      </trkpt>
      <trkpt lat="44.18804" lon="6.75158">
        <ele>1303</ele>
        <time>2018-07-07T08:23:07.000Z</time>
      </trkpt>
      <trkpt lat="44.18805" lon="6.75159">
        <ele>1303</ele>
        <time>2018-07-07T08:23:08.000Z</time>
      </trkpt>
      <trkpt lat="44.18811" lon="6.7516">
        <ele>1304</ele>
        <time>2018-07-07T08:23:12.000Z</time>
      </trkpt>
      <trkpt lat="44.18813" lon="6.7516">
        <ele>1305</ele>
        <time>2018-07-07T08:23:14.000Z</time>
      </trkpt>
      <trkpt lat="44.18819" lon="6.75162">
        <ele>1306</ele>
        <time>2018-07-07T08:23:18.000Z</time>
      </trkpt>
      <trkpt lat="44.18826" lon="6.75166">
        <ele>1310</ele>
        <time>2018-07-07T08:23:24.000Z</time>
      </trkpt>
      <trkpt lat="44.18831" lon="6.75171">
        <ele>1315</ele>
        <time>2018-07-07T08:23:28.000Z</time>
      </trkpt>
      <trkpt lat="44.18832" lon="6.75172">
        <ele>1316</ele>
        <time>2018-07-07T08:23:29.000Z</time>
      </trkpt>
      <trkpt lat="44.18834" lon="6.75176">
        <ele>1315</ele>
        <time>2018-07-07T08:23:31.000Z</time>
      </trkpt>
      <trkpt lat="44.18837" lon="6.75193">
        <ele>1316</ele>
        <time>2018-07-07T08:23:39.000Z</time>
      </trkpt>
      <trkpt lat="44.18835" lon="6.75206">
        <ele>1318</ele>
        <time>2018-07-07T08:23:45.000Z</time>
      </trkpt>
      <trkpt lat="44.18834" lon="6.75208">
        <ele>1319</ele>
        <time>2018-07-07T08:23:46.000Z</time>
      </trkpt>
      <trkpt lat="44.18831" lon="6.75219">
        <ele>1325</ele>
        <time>2018-07-07T08:23:50.000Z</time>
      </trkpt>
      <trkpt lat="44.18827" lon="6.75233">
        <ele>1327</ele>
        <time>2018-07-07T08:23:55.000Z</time>
      </trkpt>
      <trkpt lat="44.18826" lon="6.75239">
        <ele>1329</ele>
        <time>2018-07-07T08:23:57.000Z</time>
      </trkpt>
      <trkpt lat="44.18827" lon="6.75248">
        <ele>1330</ele>
        <time>2018-07-07T08:24:00.000Z</time>
      </trkpt>
      <trkpt lat="44.1883" lon="6.75258">
        <ele>1336</ele>
        <time>2018-07-07T08:24:03.000Z</time>
      </trkpt>
      <trkpt lat="44.18833" lon="6.75263">
        <ele>1338</ele>
        <time>2018-07-07T08:24:05.000Z</time>
      </trkpt>
      <trkpt lat="44.18834" lon="6.75266">
        <ele>1334</ele>
        <time>2018-07-07T08:24:06.000Z</time>
      </trkpt>
      <trkpt lat="44.18844" lon="6.75281">
        <ele>1336</ele>
        <time>2018-07-07T08:24:12.000Z</time>
      </trkpt>
      <trkpt lat="44.18854" lon="6.75294">
        <ele>1337</ele>
        <time>2018-07-07T08:24:18.000Z</time>
      </trkpt>
      <trkpt lat="44.1886" lon="6.75299">
        <ele>1337</ele>
        <time>2018-07-07T08:24:21.000Z</time>
      </trkpt>
      <trkpt lat="44.18864" lon="6.75301">
        <ele>1337</ele>
        <time>2018-07-07T08:24:23.000Z</time>
      </trkpt>
      <trkpt lat="44.18867" lon="6.75305">
        <ele>1337</ele>
        <time>2018-07-07T08:24:25.000Z</time>
      </trkpt>
      <trkpt lat="44.18876" lon="6.75311">
        <ele>1337</ele>
        <time>2018-07-07T08:24:30.000Z</time>
      </trkpt>
      <trkpt lat="44.18878" lon="6.75313">
        <ele>1337</ele>
        <time>2018-07-07T08:24:31.000Z</time>
      </trkpt>
      <trkpt lat="44.1889" lon="6.75319">
        <ele>1337</ele>
        <time>2018-07-07T08:24:37.000Z</time>
      </trkpt>
      <trkpt lat="44.18894" lon="6.75322">
        <ele>1337</ele>
        <time>2018-07-07T08:24:39.000Z</time>
      </trkpt>
      <trkpt lat="44.18902" lon="6.75329">
        <ele>1338</ele>
        <time>2018-07-07T08:24:43.000Z</time>
      </trkpt>
      <trkpt lat="44.18908" lon="6.75335">
        <ele>1345</ele>
        <time>2018-07-07T08:24:46.000Z</time>
      </trkpt>
      <trkpt lat="44.18914" lon="6.7534">
        <ele>1344</ele>
        <time>2018-07-07T08:24:49.000Z</time>
      </trkpt>
      <trkpt lat="44.18925" lon="6.75349">
        <ele>1341</ele>
        <time>2018-07-07T08:24:54.000Z</time>
      </trkpt>
      <trkpt lat="44.18929" lon="6.75352">
        <ele>1341</ele>
        <time>2018-07-07T08:24:56.000Z</time>
      </trkpt>
      <trkpt lat="44.18948" lon="6.75359">
        <ele>1341</ele>
        <time>2018-07-07T08:25:04.000Z</time>
      </trkpt>
      <trkpt lat="44.18951" lon="6.75359">
        <ele>1341</ele>
        <time>2018-07-07T08:25:05.000Z</time>
      </trkpt>
      <trkpt lat="44.18964" lon="6.75362">
        <ele>1339</ele>
        <time>2018-07-07T08:25:11.000Z</time>
      </trkpt>
      <trkpt lat="44.18966" lon="6.75364">
        <ele>1340</ele>
        <time>2018-07-07T08:25:12.000Z</time>
      </trkpt>
      <trkpt lat="44.18968" lon="6.75372">
        <ele>1341</ele>
        <time>2018-07-07T08:25:15.000Z</time>
      </trkpt>
      <trkpt lat="44.18965" lon="6.75376">
        <ele>1342</ele>
        <time>2018-07-07T08:25:18.000Z</time>
      </trkpt>
      <trkpt lat="44.18963" lon="6.75377">
        <ele>1342</ele>
        <time>2018-07-07T08:25:19.000Z</time>
      </trkpt>
      <trkpt lat="44.18956" lon="6.75377">
        <ele>1343</ele>
        <time>2018-07-07T08:25:23.000Z</time>
      </trkpt>
      <trkpt lat="44.18954" lon="6.75377">
        <ele>1343</ele>
        <time>2018-07-07T08:25:24.000Z</time>
      </trkpt>
      <trkpt lat="44.18952" lon="6.75377">
        <ele>1343</ele>
        <time>2018-07-07T08:25:25.000Z</time>
      </trkpt>
      <trkpt lat="44.18943" lon="6.75375">
        <ele>1344</ele>
        <time>2018-07-07T08:25:30.000Z</time>
      </trkpt>
      <trkpt lat="44.18941" lon="6.75375">
        <ele>1344</ele>
        <time>2018-07-07T08:25:31.000Z</time>
      </trkpt>
      <trkpt lat="44.18927" lon="6.75373">
        <ele>1345</ele>
        <time>2018-07-07T08:25:39.000Z</time>
      </trkpt>
      <trkpt lat="44.18916" lon="6.75368">
        <ele>1354</ele>
        <time>2018-07-07T08:25:45.000Z</time>
      </trkpt>
      <trkpt lat="44.18914" lon="6.75367">
        <ele>1354</ele>
        <time>2018-07-07T08:25:46.000Z</time>
      </trkpt>
      <trkpt lat="44.18901" lon="6.75357">
        <ele>1352</ele>
        <time>2018-07-07T08:25:53.000Z</time>
      </trkpt>
      <trkpt lat="44.18897" lon="6.75356">
        <ele>1353</ele>
        <time>2018-07-07T08:25:55.000Z</time>
      </trkpt>
      <trkpt lat="44.18895" lon="6.75356">
        <ele>1353</ele>
        <time>2018-07-07T08:25:56.000Z</time>
      </trkpt>
      <trkpt lat="44.1889" lon="6.75354">
        <ele>1353</ele>
        <time>2018-07-07T08:25:59.000Z</time>
      </trkpt>
      <trkpt lat="44.18885" lon="6.75355">
        <ele>1354</ele>
        <time>2018-07-07T08:26:02.000Z</time>
      </trkpt>
      <trkpt lat="44.18877" lon="6.75356">
        <ele>1355</ele>
        <time>2018-07-07T08:26:06.000Z</time>
      </trkpt>
      <trkpt lat="44.18872" lon="6.75356">
        <ele>1355</ele>
        <time>2018-07-07T08:26:09.000Z</time>
      </trkpt>
      <trkpt lat="44.18868" lon="6.75356">
        <ele>1356</ele>
        <time>2018-07-07T08:26:11.000Z</time>
      </trkpt>
      <trkpt lat="44.18857" lon="6.75354">
        <ele>1356</ele>
        <time>2018-07-07T08:26:17.000Z</time>
      </trkpt>
      <trkpt lat="44.18856" lon="6.75353">
        <ele>1356</ele>
        <time>2018-07-07T08:26:18.000Z</time>
      </trkpt>
      <trkpt lat="44.18848" lon="6.75352">
        <ele>1355</ele>
        <time>2018-07-07T08:26:23.000Z</time>
      </trkpt>
      <trkpt lat="44.18844" lon="6.75351">
        <ele>1355</ele>
        <time>2018-07-07T08:26:25.000Z</time>
      </trkpt>
      <trkpt lat="44.18837" lon="6.75351">
        <ele>1355</ele>
        <time>2018-07-07T08:26:29.000Z</time>
      </trkpt>
      <trkpt lat="44.18834" lon="6.75349">
        <ele>1355</ele>
        <time>2018-07-07T08:26:31.000Z</time>
      </trkpt>
      <trkpt lat="44.18827" lon="6.75345">
        <ele>1359</ele>
        <time>2018-07-07T08:26:35.000Z</time>
      </trkpt>
      <trkpt lat="44.18822" lon="6.75341">
        <ele>1359</ele>
        <time>2018-07-07T08:26:38.000Z</time>
      </trkpt>
      <trkpt lat="44.18814" lon="6.75336">
        <ele>1362</ele>
        <time>2018-07-07T08:26:43.000Z</time>
      </trkpt>
      <trkpt lat="44.18812" lon="6.75334">
        <ele>1362</ele>
        <time>2018-07-07T08:26:44.000Z</time>
      </trkpt>
      <trkpt lat="44.18804" lon="6.75327">
        <ele>1350</ele>
        <time>2018-07-07T08:26:49.000Z</time>
      </trkpt>
      <trkpt lat="44.18799" lon="6.75323">
        <ele>1350</ele>
        <time>2018-07-07T08:26:52.000Z</time>
      </trkpt>
      <trkpt lat="44.18792" lon="6.75316">
        <ele>1350</ele>
        <time>2018-07-07T08:26:56.000Z</time>
      </trkpt>
      <trkpt lat="44.18786" lon="6.7531">
        <ele>1350</ele>
        <time>2018-07-07T08:27:00.000Z</time>
      </trkpt>
      <trkpt lat="44.18782" lon="6.75307">
        <ele>1350</ele>
        <time>2018-07-07T08:27:02.000Z</time>
      </trkpt>
      <trkpt lat="44.18773" lon="6.75306">
        <ele>1351</ele>
        <time>2018-07-07T08:27:07.000Z</time>
      </trkpt>
      <trkpt lat="44.18768" lon="6.75305">
        <ele>1351</ele>
        <time>2018-07-07T08:27:10.000Z</time>
      </trkpt>
      <trkpt lat="44.18762" lon="6.75305">
        <ele>1352</ele>
        <time>2018-07-07T08:27:13.000Z</time>
      </trkpt>
      <trkpt lat="44.18751" lon="6.75309">
        <ele>1354</ele>
        <time>2018-07-07T08:27:18.000Z</time>
      </trkpt>
      <trkpt lat="44.18746" lon="6.75312">
        <ele>1355</ele>
        <time>2018-07-07T08:27:20.000Z</time>
      </trkpt>
      <trkpt lat="44.18729" lon="6.7532">
        <ele>1355</ele>
        <time>2018-07-07T08:27:28.000Z</time>
      </trkpt>
      <trkpt lat="44.18713" lon="6.75327">
        <ele>1354</ele>
        <time>2018-07-07T08:27:36.000Z</time>
      </trkpt>
      <trkpt lat="44.18698" lon="6.75335">
        <ele>1372</ele>
        <time>2018-07-07T08:27:43.000Z</time>
      </trkpt>
      <trkpt lat="44.18696" lon="6.75336">
        <ele>1371</ele>
        <time>2018-07-07T08:27:44.000Z</time>
      </trkpt>
      <trkpt lat="44.18688" lon="6.75339">
        <ele>1370</ele>
        <time>2018-07-07T08:27:48.000Z</time>
      </trkpt>
      <trkpt lat="44.18684" lon="6.75341">
        <ele>1370</ele>
        <time>2018-07-07T08:27:50.000Z</time>
      </trkpt>
      <trkpt lat="44.18672" lon="6.75347">
        <ele>1369</ele>
        <time>2018-07-07T08:27:56.000Z</time>
      </trkpt>
      <trkpt lat="44.18668" lon="6.75349">
        <ele>1369</ele>
        <time>2018-07-07T08:27:58.000Z</time>
      </trkpt>
      <trkpt lat="44.1866" lon="6.75352">
        <ele>1368</ele>
        <time>2018-07-07T08:28:02.000Z</time>
      </trkpt>
      <trkpt lat="44.18656" lon="6.75354">
        <ele>1369</ele>
        <time>2018-07-07T08:28:04.000Z</time>
      </trkpt>
      <trkpt lat="44.18649" lon="6.75359">
        <ele>1370</ele>
        <time>2018-07-07T08:28:08.000Z</time>
      </trkpt>
      <trkpt lat="44.18644" lon="6.75362">
        <ele>1371</ele>
        <time>2018-07-07T08:28:11.000Z</time>
      </trkpt>
      <trkpt lat="44.1864" lon="6.75363">
        <ele>1371</ele>
        <time>2018-07-07T08:28:13.000Z</time>
      </trkpt>
      <trkpt lat="44.1863" lon="6.75366">
        <ele>1371</ele>
        <time>2018-07-07T08:28:18.000Z</time>
      </trkpt>
      <trkpt lat="44.18628" lon="6.75367">
        <ele>1371</ele>
        <time>2018-07-07T08:28:19.000Z</time>
      </trkpt>
      <trkpt lat="44.18622" lon="6.7537">
        <ele>1372</ele>
        <time>2018-07-07T08:28:23.000Z</time>
      </trkpt>
      <trkpt lat="44.18619" lon="6.75372">
        <ele>1372</ele>
        <time>2018-07-07T08:28:25.000Z</time>
      </trkpt>
      <trkpt lat="44.18611" lon="6.75376">
        <ele>1372</ele>
        <time>2018-07-07T08:28:29.000Z</time>
      </trkpt>
      <trkpt lat="44.18603" lon="6.7538">
        <ele>1373</ele>
        <time>2018-07-07T08:28:33.000Z</time>
      </trkpt>
      <trkpt lat="44.18597" lon="6.75382">
        <ele>1373</ele>
        <time>2018-07-07T08:28:36.000Z</time>
      </trkpt>
      <trkpt lat="44.18589" lon="6.75383">
        <ele>1374</ele>
        <time>2018-07-07T08:28:40.000Z</time>
      </trkpt>
      <trkpt lat="44.18578" lon="6.75388">
        <ele>1364</ele>
        <time>2018-07-07T08:28:46.000Z</time>
      </trkpt>
      <trkpt lat="44.18577" lon="6.7539">
        <ele>1365</ele>
        <time>2018-07-07T08:28:47.000Z</time>
      </trkpt>
      <trkpt lat="44.18576" lon="6.75393">
        <ele>1366</ele>
        <time>2018-07-07T08:28:48.000Z</time>
      </trkpt>
      <trkpt lat="44.18576" lon="6.75397">
        <ele>1368</ele>
        <time>2018-07-07T08:28:50.000Z</time>
      </trkpt>
      <trkpt lat="44.18576" lon="6.75398">
        <ele>1368</ele>
        <time>2018-07-07T08:28:51.000Z</time>
      </trkpt>
      <trkpt lat="44.18577" lon="6.75399">
        <ele>1369</ele>
        <time>2018-07-07T08:28:52.000Z</time>
      </trkpt>
      <trkpt lat="44.18583" lon="6.754">
        <ele>1370</ele>
        <time>2018-07-07T08:28:55.000Z</time>
      </trkpt>
      <trkpt lat="44.18584" lon="6.75399">
        <ele>1378</ele>
        <time>2018-07-07T08:28:56.000Z</time>
      </trkpt>
      <trkpt lat="44.18586" lon="6.75399">
        <ele>1378</ele>
        <time>2018-07-07T08:28:57.000Z</time>
      </trkpt>
      <trkpt lat="44.18594" lon="6.754">
        <ele>1378</ele>
        <time>2018-07-07T08:29:02.000Z</time>
      </trkpt>
      <trkpt lat="44.18598" lon="6.754">
        <ele>1378</ele>
        <time>2018-07-07T08:29:04.000Z</time>
      </trkpt>
      <trkpt lat="44.1861" lon="6.75403">
        <ele>1377</ele>
        <time>2018-07-07T08:29:10.000Z</time>
      </trkpt>
      <trkpt lat="44.18615" lon="6.75405">
        <ele>1377</ele>
        <time>2018-07-07T08:29:13.000Z</time>
      </trkpt>
      <trkpt lat="44.18621" lon="6.75407">
        <ele>1378</ele>
        <time>2018-07-07T08:29:16.000Z</time>
      </trkpt>
      <trkpt lat="44.18631" lon="6.75409">
        <ele>1379</ele>
        <time>2018-07-07T08:29:21.000Z</time>
      </trkpt>
      <trkpt lat="44.18633" lon="6.7541">
        <ele>1379</ele>
        <time>2018-07-07T08:29:22.000Z</time>
      </trkpt>
      <trkpt lat="44.18643" lon="6.75409">
        <ele>1381</ele>
        <time>2018-07-07T08:29:27.000Z</time>
      </trkpt>
      <trkpt lat="44.18645" lon="6.75409">
        <ele>1381</ele>
        <time>2018-07-07T08:29:28.000Z</time>
      </trkpt>
      <trkpt lat="44.18658" lon="6.75411">
        <ele>1386</ele>
        <time>2018-07-07T08:29:34.000Z</time>
      </trkpt>
      <trkpt lat="44.1866" lon="6.75412">
        <ele>1387</ele>
        <time>2018-07-07T08:29:35.000Z</time>
      </trkpt>
      <trkpt lat="44.18668" lon="6.75412">
        <ele>1389</ele>
        <time>2018-07-07T08:29:40.000Z</time>
      </trkpt>
      <trkpt lat="44.18677" lon="6.75412">
        <ele>1387</ele>
        <time>2018-07-07T08:29:45.000Z</time>
      </trkpt>
      <trkpt lat="44.18681" lon="6.75412">
        <ele>1386</ele>
        <time>2018-07-07T08:29:47.000Z</time>
      </trkpt>
      <trkpt lat="44.18694" lon="6.75412">
        <ele>1384</ele>
        <time>2018-07-07T08:29:53.000Z</time>
      </trkpt>
      <trkpt lat="44.18703" lon="6.75413">
        <ele>1383</ele>
        <time>2018-07-07T08:29:57.000Z</time>
      </trkpt>
      <trkpt lat="44.18709" lon="6.75415">
        <ele>1383</ele>
        <time>2018-07-07T08:30:00.000Z</time>
      </trkpt>
      <trkpt lat="44.18717" lon="6.75417">
        <ele>1400</ele>
        <time>2018-07-07T08:30:05.000Z</time>
      </trkpt>
      <trkpt lat="44.18722" lon="6.75418">
        <ele>1400</ele>
        <time>2018-07-07T08:30:08.000Z</time>
      </trkpt>
      <trkpt lat="44.18728" lon="6.75417">
        <ele>1385</ele>
        <time>2018-07-07T08:30:12.000Z</time>
      </trkpt>
      <trkpt lat="44.1873" lon="6.75416">
        <ele>1385</ele>
        <time>2018-07-07T08:30:14.000Z</time>
      </trkpt>
      <trkpt lat="44.18738" lon="6.75411">
        <ele>1386</ele>
        <time>2018-07-07T08:30:19.000Z</time>
      </trkpt>
      <trkpt lat="44.18743" lon="6.75409">
        <ele>1387</ele>
        <time>2018-07-07T08:30:22.000Z</time>
      </trkpt>
      <trkpt lat="44.18751" lon="6.7541">
        <ele>1387</ele>
        <time>2018-07-07T08:30:26.000Z</time>
      </trkpt>
      <trkpt lat="44.18754" lon="6.75413">
        <ele>1388</ele>
        <time>2018-07-07T08:30:28.000Z</time>
      </trkpt>
      <trkpt lat="44.18761" lon="6.75427">
        <ele>1394</ele>
        <time>2018-07-07T08:30:34.000Z</time>
      </trkpt>
      <trkpt lat="44.18762" lon="6.75433">
        <ele>1395</ele>
        <time>2018-07-07T08:30:36.000Z</time>
      </trkpt>
      <trkpt lat="44.18764" lon="6.75447">
        <ele>1397</ele>
        <time>2018-07-07T08:30:42.000Z</time>
      </trkpt>
      <trkpt lat="44.18764" lon="6.75449">
        <ele>1397</ele>
        <time>2018-07-07T08:30:43.000Z</time>
      </trkpt>
      <trkpt lat="44.18767" lon="6.75462">
        <ele>1400</ele>
        <time>2018-07-07T08:30:49.000Z</time>
      </trkpt>
      <trkpt lat="44.18767" lon="6.75464">
        <ele>1400</ele>
        <time>2018-07-07T08:30:50.000Z</time>
      </trkpt>
      <trkpt lat="44.18771" lon="6.75473">
        <ele>1402</ele>
        <time>2018-07-07T08:30:54.000Z</time>
      </trkpt>
      <trkpt lat="44.18773" lon="6.75474">
        <ele>1402</ele>
        <time>2018-07-07T08:30:55.000Z</time>
      </trkpt>
      <trkpt lat="44.18774" lon="6.75476">
        <ele>1402</ele>
        <time>2018-07-07T08:30:56.000Z</time>
      </trkpt>
      <trkpt lat="44.18784" lon="6.75483">
        <ele>1402</ele>
        <time>2018-07-07T08:31:02.000Z</time>
      </trkpt>
      <trkpt lat="44.18795" lon="6.75488">
        <ele>1401</ele>
        <time>2018-07-07T08:31:08.000Z</time>
      </trkpt>
      <trkpt lat="44.18807" lon="6.75495">
        <ele>1400</ele>
        <time>2018-07-07T08:31:15.000Z</time>
      </trkpt>
      <trkpt lat="44.18808" lon="6.75497">
        <ele>1400</ele>
        <time>2018-07-07T08:31:16.000Z</time>
      </trkpt>
      <trkpt lat="44.18814" lon="6.75502">
        <ele>1413</ele>
        <time>2018-07-07T08:31:20.000Z</time>
      </trkpt>
      <trkpt lat="44.18818" lon="6.75506">
        <ele>1412</ele>
        <time>2018-07-07T08:31:23.000Z</time>
      </trkpt>
      <trkpt lat="44.18825" lon="6.75513">
        <ele>1412</ele>
        <time>2018-07-07T08:31:28.000Z</time>
      </trkpt>
      <trkpt lat="44.18828" lon="6.75515">
        <ele>1412</ele>
        <time>2018-07-07T08:31:30.000Z</time>
      </trkpt>
      <trkpt lat="44.18834" lon="6.75516">
        <ele>1407</ele>
        <time>2018-07-07T08:31:34.000Z</time>
      </trkpt>
      <trkpt lat="44.18838" lon="6.75518">
        <ele>1407</ele>
        <time>2018-07-07T08:31:37.000Z</time>
      </trkpt>
      <trkpt lat="44.18843" lon="6.75522">
        <ele>1408</ele>
        <time>2018-07-07T08:31:40.000Z</time>
      </trkpt>
      <trkpt lat="44.18847" lon="6.75527">
        <ele>1409</ele>
        <time>2018-07-07T08:31:43.000Z</time>
      </trkpt>
      <trkpt lat="44.18853" lon="6.75533">
        <ele>1410</ele>
        <time>2018-07-07T08:31:47.000Z</time>
      </trkpt>
      <trkpt lat="44.18856" lon="6.75535">
        <ele>1411</ele>
        <time>2018-07-07T08:31:49.000Z</time>
      </trkpt>
      <trkpt lat="44.18863" lon="6.75541">
        <ele>1412</ele>
        <time>2018-07-07T08:31:53.000Z</time>
      </trkpt>
      <trkpt lat="44.18867" lon="6.75545">
        <ele>1412</ele>
        <time>2018-07-07T08:31:56.000Z</time>
      </trkpt>
      <trkpt lat="44.18878" lon="6.75552">
        <ele>1412</ele>
        <time>2018-07-07T08:32:02.000Z</time>
      </trkpt>
      <trkpt lat="44.1888" lon="6.75552">
        <ele>1413</ele>
        <time>2018-07-07T08:32:03.000Z</time>
      </trkpt>
      <trkpt lat="44.18891" lon="6.75556">
        <ele>1413</ele>
        <time>2018-07-07T08:32:09.000Z</time>
      </trkpt>
      <trkpt lat="44.18892" lon="6.75556">
        <ele>1413</ele>
        <time>2018-07-07T08:32:10.000Z</time>
      </trkpt>
      <trkpt lat="44.18905" lon="6.75558">
        <ele>1413</ele>
        <time>2018-07-07T08:32:16.000Z</time>
      </trkpt>
      <trkpt lat="44.18907" lon="6.75558">
        <ele>1413</ele>
        <time>2018-07-07T08:32:17.000Z</time>
      </trkpt>
      <trkpt lat="44.18918" lon="6.75562">
        <ele>1407</ele>
        <time>2018-07-07T08:32:23.000Z</time>
      </trkpt>
      <trkpt lat="44.18924" lon="6.75564">
        <ele>1408</ele>
        <time>2018-07-07T08:32:26.000Z</time>
      </trkpt>
      <trkpt lat="44.18929" lon="6.75569">
        <ele>1408</ele>
        <time>2018-07-07T08:32:29.000Z</time>
      </trkpt>
      <trkpt lat="44.18934" lon="6.75578">
        <ele>1409</ele>
        <time>2018-07-07T08:32:33.000Z</time>
      </trkpt>
      <trkpt lat="44.18934" lon="6.75583">
        <ele>1409</ele>
        <time>2018-07-07T08:32:35.000Z</time>
      </trkpt>
      <trkpt lat="44.18931" lon="6.75594">
        <ele>1421</ele>
        <time>2018-07-07T08:32:40.000Z</time>
      </trkpt>
      <trkpt lat="44.18928" lon="6.75596">
        <ele>1421</ele>
        <time>2018-07-07T08:32:42.000Z</time>
      </trkpt>
      <trkpt lat="44.18924" lon="6.75598">
        <ele>1421</ele>
        <time>2018-07-07T08:32:45.000Z</time>
      </trkpt>
      <trkpt lat="44.18923" lon="6.75599">
        <ele>1421</ele>
        <time>2018-07-07T08:32:46.000Z</time>
      </trkpt>
      <trkpt lat="44.1892" lon="6.756">
        <ele>1421</ele>
        <time>2018-07-07T08:32:48.000Z</time>
      </trkpt>
      <trkpt lat="44.18918" lon="6.756">
        <ele>1421</ele>
        <time>2018-07-07T08:32:49.000Z</time>
      </trkpt>
      <trkpt lat="44.18915" lon="6.756">
        <ele>1429</ele>
        <time>2018-07-07T08:32:51.000Z</time>
      </trkpt>
      <trkpt lat="44.18907" lon="6.75598">
        <ele>1429</ele>
        <time>2018-07-07T08:32:56.000Z</time>
      </trkpt>
      <trkpt lat="44.18903" lon="6.75596">
        <ele>1429</ele>
        <time>2018-07-07T08:32:59.000Z</time>
      </trkpt>
      <trkpt lat="44.18893" lon="6.7559">
        <ele>1431</ele>
        <time>2018-07-07T08:33:05.000Z</time>
      </trkpt>
      <trkpt lat="44.18892" lon="6.75589">
        <ele>1431</ele>
        <time>2018-07-07T08:33:06.000Z</time>
      </trkpt>
      <trkpt lat="44.18886" lon="6.75584">
        <ele>1431</ele>
        <time>2018-07-07T08:33:10.000Z</time>
      </trkpt>
      <trkpt lat="44.1888" lon="6.75579">
        <ele>1416</ele>
        <time>2018-07-07T08:33:14.000Z</time>
      </trkpt>
      <trkpt lat="44.18876" lon="6.75576">
        <ele>1416</ele>
        <time>2018-07-07T08:33:17.000Z</time>
      </trkpt>
      <trkpt lat="44.18873" lon="6.75576">
        <ele>1416</ele>
        <time>2018-07-07T08:33:19.000Z</time>
      </trkpt>
      <trkpt lat="44.18872" lon="6.75576">
        <ele>1416</ele>
        <time>2018-07-07T08:33:20.000Z</time>
      </trkpt>
      <trkpt lat="44.18864" lon="6.75578">
        <ele>1417</ele>
        <time>2018-07-07T08:33:25.000Z</time>
      </trkpt>
      <trkpt lat="44.18863" lon="6.75578">
        <ele>1417</ele>
        <time>2018-07-07T08:33:26.000Z</time>
      </trkpt>
      <trkpt lat="44.18861" lon="6.75578">
        <ele>1418</ele>
        <time>2018-07-07T08:33:27.000Z</time>
      </trkpt>
      <trkpt lat="44.18855" lon="6.75577">
        <ele>1419</ele>
        <time>2018-07-07T08:33:31.000Z</time>
      </trkpt>
      <trkpt lat="44.18853" lon="6.75578">
        <ele>1419</ele>
        <time>2018-07-07T08:33:32.000Z</time>
      </trkpt>
      <trkpt lat="44.18851" lon="6.75578">
        <ele>1420</ele>
        <time>2018-07-07T08:33:33.000Z</time>
      </trkpt>
      <trkpt lat="44.18846" lon="6.75581">
        <ele>1422</ele>
        <time>2018-07-07T08:33:36.000Z</time>
      </trkpt>
      <trkpt lat="44.18845" lon="6.75584">
        <ele>1432</ele>
        <time>2018-07-07T08:33:38.000Z</time>
      </trkpt>
      <trkpt lat="44.18843" lon="6.75586">
        <ele>1432</ele>
        <time>2018-07-07T08:33:39.000Z</time>
      </trkpt>
      <trkpt lat="44.18838" lon="6.75589">
        <ele>1431</ele>
        <time>2018-07-07T08:33:43.000Z</time>
      </trkpt>
      <trkpt lat="44.18836" lon="6.7559">
        <ele>1431</ele>
        <time>2018-07-07T08:33:44.000Z</time>
      </trkpt>
      <trkpt lat="44.18828" lon="6.75593">
        <ele>1436</ele>
        <time>2018-07-07T08:33:49.000Z</time>
      </trkpt>
      <trkpt lat="44.18819" lon="6.75595">
        <ele>1440</ele>
        <time>2018-07-07T08:33:55.000Z</time>
      </trkpt>
      <trkpt lat="44.18812" lon="6.75594">
        <ele>1441</ele>
        <time>2018-07-07T08:33:59.000Z</time>
      </trkpt>
      <trkpt lat="44.18807" lon="6.75594">
        <ele>1443</ele>
        <time>2018-07-07T08:34:02.000Z</time>
      </trkpt>
      <trkpt lat="44.18795" lon="6.75588">
        <ele>1444</ele>
        <time>2018-07-07T08:34:09.000Z</time>
      </trkpt>
      <trkpt lat="44.18783" lon="6.75577">
        <ele>1430</ele>
        <time>2018-07-07T08:34:17.000Z</time>
      </trkpt>
      <trkpt lat="44.1878" lon="6.75575">
        <ele>1431</ele>
        <time>2018-07-07T08:34:19.000Z</time>
      </trkpt>
      <trkpt lat="44.18774" lon="6.7557">
        <ele>1431</ele>
        <time>2018-07-07T08:34:23.000Z</time>
      </trkpt>
      <trkpt lat="44.18772" lon="6.75569">
        <ele>1432</ele>
        <time>2018-07-07T08:34:24.000Z</time>
      </trkpt>
      <trkpt lat="44.18763" lon="6.7556">
        <ele>1431</ele>
        <time>2018-07-07T08:34:31.000Z</time>
      </trkpt>
      <trkpt lat="44.18758" lon="6.75553">
        <ele>1430</ele>
        <time>2018-07-07T08:34:35.000Z</time>
      </trkpt>
      <trkpt lat="44.18754" lon="6.75547">
        <ele>1428</ele>
        <time>2018-07-07T08:34:38.000Z</time>
      </trkpt>
      <trkpt lat="44.18753" lon="6.75545">
        <ele>1428</ele>
        <time>2018-07-07T08:34:39.000Z</time>
      </trkpt>
      <trkpt lat="44.18752" lon="6.75543">
        <ele>1427</ele>
        <time>2018-07-07T08:34:40.000Z</time>
      </trkpt>
      <trkpt lat="44.18749" lon="6.75537">
        <ele>1431</ele>
        <time>2018-07-07T08:34:43.000Z</time>
      </trkpt>
      <trkpt lat="44.18744" lon="6.7553">
        <ele>1430</ele>
        <time>2018-07-07T08:34:47.000Z</time>
      </trkpt>
      <trkpt lat="44.18741" lon="6.75528">
        <ele>1429</ele>
        <time>2018-07-07T08:34:49.000Z</time>
      </trkpt>
      <trkpt lat="44.18734" lon="6.75522">
        <ele>1428</ele>
        <time>2018-07-07T08:34:54.000Z</time>
      </trkpt>
      <trkpt lat="44.18729" lon="6.75521">
        <ele>1428</ele>
        <time>2018-07-07T08:34:57.000Z</time>
      </trkpt>
      <trkpt lat="44.18723" lon="6.75521">
        <ele>1429</ele>
        <time>2018-07-07T08:35:01.000Z</time>
      </trkpt>
      <trkpt lat="44.18714" lon="6.75524">
        <ele>1430</ele>
        <time>2018-07-07T08:35:06.000Z</time>
      </trkpt>
      <trkpt lat="44.18708" lon="6.75527">
        <ele>1430</ele>
        <time>2018-07-07T08:35:10.000Z</time>
      </trkpt>
      <trkpt lat="44.18703" lon="6.75529">
        <ele>1431</ele>
        <time>2018-07-07T08:35:13.000Z</time>
      </trkpt>
      <trkpt lat="44.18698" lon="6.75531">
        <ele>1431</ele>
        <time>2018-07-07T08:35:16.000Z</time>
      </trkpt>
      <trkpt lat="44.18689" lon="6.75535">
        <ele>1432</ele>
        <time>2018-07-07T08:35:21.000Z</time>
      </trkpt>
      <trkpt lat="44.18682" lon="6.7554">
        <ele>1433</ele>
        <time>2018-07-07T08:35:25.000Z</time>
      </trkpt>
      <trkpt lat="44.18679" lon="6.75543">
        <ele>1433</ele>
        <time>2018-07-07T08:35:27.000Z</time>
      </trkpt>
      <trkpt lat="44.18674" lon="6.75548">
        <ele>1434</ele>
        <time>2018-07-07T08:35:30.000Z</time>
      </trkpt>
      <trkpt lat="44.18667" lon="6.75555">
        <ele>1433</ele>
        <time>2018-07-07T08:35:35.000Z</time>
      </trkpt>
      <trkpt lat="44.18664" lon="6.75557">
        <ele>1433</ele>
        <time>2018-07-07T08:35:37.000Z</time>
      </trkpt>
      <trkpt lat="44.18655" lon="6.75565">
        <ele>1435</ele>
        <time>2018-07-07T08:35:43.000Z</time>
      </trkpt>
      <trkpt lat="44.18653" lon="6.75566">
        <ele>1435</ele>
        <time>2018-07-07T08:35:44.000Z</time>
      </trkpt>
      <trkpt lat="44.18643" lon="6.75571">
        <ele>1433</ele>
        <time>2018-07-07T08:35:50.000Z</time>
      </trkpt>
      <trkpt lat="44.18633" lon="6.75572">
        <ele>1431</ele>
        <time>2018-07-07T08:35:56.000Z</time>
      </trkpt>
      <trkpt lat="44.18624" lon="6.75573">
        <ele>1430</ele>
        <time>2018-07-07T08:36:02.000Z</time>
      </trkpt>
      <trkpt lat="44.18622" lon="6.75573">
        <ele>1430</ele>
        <time>2018-07-07T08:36:03.000Z</time>
      </trkpt>
      <trkpt lat="44.18613" lon="6.75575">
        <ele>1429</ele>
        <time>2018-07-07T08:36:09.000Z</time>
      </trkpt>
      <trkpt lat="44.18599" lon="6.75577">
        <ele>1428</ele>
        <time>2018-07-07T08:36:17.000Z</time>
      </trkpt>
      <trkpt lat="44.18598" lon="6.75578">
        <ele>1428</ele>
        <time>2018-07-07T08:36:18.000Z</time>
      </trkpt>
      <trkpt lat="44.18596" lon="6.75582">
        <ele>1428</ele>
        <time>2018-07-07T08:36:20.000Z</time>
      </trkpt>
      <trkpt lat="44.18595" lon="6.75587">
        <ele>1436</ele>
        <time>2018-07-07T08:36:22.000Z</time>
      </trkpt>
      <trkpt lat="44.18596" lon="6.75589">
        <ele>1436</ele>
        <time>2018-07-07T08:36:23.000Z</time>
      </trkpt>
      <trkpt lat="44.186" lon="6.75594">
        <ele>1439</ele>
        <time>2018-07-07T08:36:26.000Z</time>
      </trkpt>
      <trkpt lat="44.18604" lon="6.75595">
        <ele>1440</ele>
        <time>2018-07-07T08:36:28.000Z</time>
      </trkpt>
      <trkpt lat="44.18611" lon="6.75596">
        <ele>1442</ele>
        <time>2018-07-07T08:36:32.000Z</time>
      </trkpt>
      <trkpt lat="44.18613" lon="6.75596">
        <ele>1442</ele>
        <time>2018-07-07T08:36:33.000Z</time>
      </trkpt>
      <trkpt lat="44.18619" lon="6.756">
        <ele>1444</ele>
        <time>2018-07-07T08:36:37.000Z</time>
      </trkpt>
      <trkpt lat="44.18624" lon="6.75604">
        <ele>1445</ele>
        <time>2018-07-07T08:36:40.000Z</time>
      </trkpt>
      <trkpt lat="44.18634" lon="6.75613">
        <ele>1447</ele>
        <time>2018-07-07T08:36:46.000Z</time>
      </trkpt>
      <trkpt lat="44.18638" lon="6.75614">
        <ele>1448</ele>
        <time>2018-07-07T08:36:48.000Z</time>
      </trkpt>
      <trkpt lat="44.18647" lon="6.75617">
        <ele>1449</ele>
        <time>2018-07-07T08:36:53.000Z</time>
      </trkpt>
      <trkpt lat="44.18652" lon="6.75618">
        <ele>1449</ele>
        <time>2018-07-07T08:36:56.000Z</time>
      </trkpt>
      <trkpt lat="44.18658" lon="6.7562">
        <ele>1450</ele>
        <time>2018-07-07T08:36:59.000Z</time>
      </trkpt>
      <trkpt lat="44.18668" lon="6.75623">
        <ele>1456</ele>
        <time>2018-07-07T08:37:05.000Z</time>
      </trkpt>
      <trkpt lat="44.1867" lon="6.75623">
        <ele>1456</ele>
        <time>2018-07-07T08:37:06.000Z</time>
      </trkpt>
      <trkpt lat="44.18678" lon="6.75625">
        <ele>1456</ele>
        <time>2018-07-07T08:37:11.000Z</time>
      </trkpt>
      <trkpt lat="44.18684" lon="6.75625">
        <ele>1456</ele>
        <time>2018-07-07T08:37:14.000Z</time>
      </trkpt>
      <trkpt lat="44.1869" lon="6.75624">
        <ele>1456</ele>
        <time>2018-07-07T08:37:18.000Z</time>
      </trkpt>
      <trkpt lat="44.18693" lon="6.75625">
        <ele>1456</ele>
        <time>2018-07-07T08:37:20.000Z</time>
      </trkpt>
      <trkpt lat="44.18701" lon="6.75629">
        <ele>1457</ele>
        <time>2018-07-07T08:37:25.000Z</time>
      </trkpt>
      <trkpt lat="44.18703" lon="6.7563">
        <ele>1457</ele>
        <time>2018-07-07T08:37:27.000Z</time>
      </trkpt>
      <trkpt lat="44.18709" lon="6.75629">
        <ele>1456</ele>
        <time>2018-07-07T08:37:31.000Z</time>
      </trkpt>
      <trkpt lat="44.18711" lon="6.75628">
        <ele>1456</ele>
        <time>2018-07-07T08:37:32.000Z</time>
      </trkpt>
      <trkpt lat="44.18717" lon="6.75624">
        <ele>1456</ele>
        <time>2018-07-07T08:37:37.000Z</time>
      </trkpt>
      <trkpt lat="44.18719" lon="6.75624">
        <ele>1456</ele>
        <time>2018-07-07T08:37:38.000Z</time>
      </trkpt>
      <trkpt lat="44.18728" lon="6.75625">
        <ele>1456</ele>
        <time>2018-07-07T08:37:44.000Z</time>
      </trkpt>
      <trkpt lat="44.18739" lon="6.7563">
        <ele>1457</ele>
        <time>2018-07-07T08:37:51.000Z</time>
      </trkpt>
      <trkpt lat="44.18746" lon="6.75636">
        <ele>1458</ele>
        <time>2018-07-07T08:37:56.000Z</time>
      </trkpt>
      <trkpt lat="44.18747" lon="6.75639">
        <ele>1459</ele>
        <time>2018-07-07T08:37:58.000Z</time>
      </trkpt>
      <trkpt lat="44.18746" lon="6.75653">
        <ele>1461</ele>
        <time>2018-07-07T08:38:04.000Z</time>
      </trkpt>
      <trkpt lat="44.18745" lon="6.75655">
        <ele>1462</ele>
        <time>2018-07-07T08:38:05.000Z</time>
      </trkpt>
      <trkpt lat="44.18736" lon="6.75661">
        <ele>1462</ele>
        <time>2018-07-07T08:38:10.000Z</time>
      </trkpt>
      <trkpt lat="44.18728" lon="6.75665">
        <ele>1461</ele>
        <time>2018-07-07T08:38:14.000Z</time>
      </trkpt>
      <trkpt lat="44.18723" lon="6.75668">
        <ele>1472</ele>
        <time>2018-07-07T08:38:17.000Z</time>
      </trkpt>
      <trkpt lat="44.18713" lon="6.75681">
        <ele>1474</ele>
        <time>2018-07-07T08:38:24.000Z</time>
      </trkpt>
      <trkpt lat="44.18712" lon="6.75683">
        <ele>1474</ele>
        <time>2018-07-07T08:38:25.000Z</time>
      </trkpt>
      <trkpt lat="44.18703" lon="6.75691">
        <ele>1475</ele>
        <time>2018-07-07T08:38:30.000Z</time>
      </trkpt>
      <trkpt lat="44.18698" lon="6.75695">
        <ele>1475</ele>
        <time>2018-07-07T08:38:33.000Z</time>
      </trkpt>
      <trkpt lat="44.1869" lon="6.75703">
        <ele>1476</ele>
        <time>2018-07-07T08:38:38.000Z</time>
      </trkpt>
      <trkpt lat="44.18682" lon="6.75707">
        <ele>1476</ele>
        <time>2018-07-07T08:38:42.000Z</time>
      </trkpt>
      <trkpt lat="44.1868" lon="6.75709">
        <ele>1476</ele>
        <time>2018-07-07T08:38:43.000Z</time>
      </trkpt>
      <trkpt lat="44.18674" lon="6.75714">
        <ele>1477</ele>
        <time>2018-07-07T08:38:47.000Z</time>
      </trkpt>
      <trkpt lat="44.18671" lon="6.75718">
        <ele>1478</ele>
        <time>2018-07-07T08:38:49.000Z</time>
      </trkpt>
      <trkpt lat="44.1866" lon="6.7573">
        <ele>1475</ele>
        <time>2018-07-07T08:38:56.000Z</time>
      </trkpt>
      <trkpt lat="44.18658" lon="6.75731">
        <ele>1475</ele>
        <time>2018-07-07T08:38:57.000Z</time>
      </trkpt>
      <trkpt lat="44.18654" lon="6.75733">
        <ele>1475</ele>
        <time>2018-07-07T08:38:59.000Z</time>
      </trkpt>
      <trkpt lat="44.18649" lon="6.75736">
        <ele>1474</ele>
        <time>2018-07-07T08:39:02.000Z</time>
      </trkpt>
      <trkpt lat="44.18641" lon="6.75741">
        <ele>1473</ele>
        <time>2018-07-07T08:39:06.000Z</time>
      </trkpt>
      <trkpt lat="44.18639" lon="6.75742">
        <ele>1473</ele>
        <time>2018-07-07T08:39:07.000Z</time>
      </trkpt>
      <trkpt lat="44.18626" lon="6.75748">
        <ele>1472</ele>
        <time>2018-07-07T08:39:13.000Z</time>
      </trkpt>
      <trkpt lat="44.18619" lon="6.75752">
        <ele>1485</ele>
        <time>2018-07-07T08:39:16.000Z</time>
      </trkpt>
      <trkpt lat="44.18615" lon="6.75755">
        <ele>1484</ele>
        <time>2018-07-07T08:39:18.000Z</time>
      </trkpt>
      <trkpt lat="44.18602" lon="6.7576">
        <ele>1482</ele>
        <time>2018-07-07T08:39:24.000Z</time>
      </trkpt>
      <trkpt lat="44.18596" lon="6.7576">
        <ele>1480</ele>
        <time>2018-07-07T08:39:27.000Z</time>
      </trkpt>
      <trkpt lat="44.18588" lon="6.75764">
        <ele>1480</ele>
        <time>2018-07-07T08:39:31.000Z</time>
      </trkpt>
      <trkpt lat="44.18586" lon="6.75771">
        <ele>1482</ele>
        <time>2018-07-07T08:39:34.000Z</time>
      </trkpt>
      <trkpt lat="44.18587" lon="6.75774">
        <ele>1483</ele>
        <time>2018-07-07T08:39:35.000Z</time>
      </trkpt>
      <trkpt lat="44.18591" lon="6.75777">
        <ele>1484</ele>
        <time>2018-07-07T08:39:38.000Z</time>
      </trkpt>
      <trkpt lat="44.18595" lon="6.75777">
        <ele>1485</ele>
        <time>2018-07-07T08:39:40.000Z</time>
      </trkpt>
      <trkpt lat="44.18603" lon="6.75776">
        <ele>1486</ele>
        <time>2018-07-07T08:39:44.000Z</time>
      </trkpt>
      <trkpt lat="44.18607" lon="6.75775">
        <ele>1486</ele>
        <time>2018-07-07T08:39:46.000Z</time>
      </trkpt>
      <trkpt lat="44.18619" lon="6.75773">
        <ele>1487</ele>
        <time>2018-07-07T08:39:52.000Z</time>
      </trkpt>
      <trkpt lat="44.18621" lon="6.75772">
        <ele>1487</ele>
        <time>2018-07-07T08:39:53.000Z</time>
      </trkpt>
      <trkpt lat="44.1863" lon="6.75768">
        <ele>1488</ele>
        <time>2018-07-07T08:39:58.000Z</time>
      </trkpt>
      <trkpt lat="44.18638" lon="6.75764">
        <ele>1488</ele>
        <time>2018-07-07T08:40:02.000Z</time>
      </trkpt>
      <trkpt lat="44.18642" lon="6.75763">
        <ele>1488</ele>
        <time>2018-07-07T08:40:04.000Z</time>
      </trkpt>
      <trkpt lat="44.18653" lon="6.7576">
        <ele>1487</ele>
        <time>2018-07-07T08:40:09.000Z</time>
      </trkpt>
      <trkpt lat="44.18668" lon="6.75755">
        <ele>1487</ele>
        <time>2018-07-07T08:40:16.000Z</time>
      </trkpt>
      <trkpt lat="44.18671" lon="6.75753">
        <ele>1487</ele>
        <time>2018-07-07T08:40:19.000Z</time>
      </trkpt>
      <trkpt lat="44.18675" lon="6.75751">
        <ele>1488</ele>
        <time>2018-07-07T08:40:21.000Z</time>
      </trkpt>
      <trkpt lat="44.18691" lon="6.75745">
        <ele>1481</ele>
        <time>2018-07-07T08:40:28.000Z</time>
      </trkpt>
      <trkpt lat="44.18695" lon="6.75744">
        <ele>1481</ele>
        <time>2018-07-07T08:40:30.000Z</time>
      </trkpt>
      <trkpt lat="44.18699" lon="6.75743">
        <ele>1480</ele>
        <time>2018-07-07T08:40:32.000Z</time>
      </trkpt>
      <trkpt lat="44.18718" lon="6.75735">
        <ele>1481</ele>
        <time>2018-07-07T08:40:41.000Z</time>
      </trkpt>
      <trkpt lat="44.18731" lon="6.75728">
        <ele>1481</ele>
        <time>2018-07-07T08:40:47.000Z</time>
      </trkpt>
      <trkpt lat="44.18735" lon="6.75727">
        <ele>1481</ele>
        <time>2018-07-07T08:40:49.000Z</time>
      </trkpt>
      <trkpt lat="44.18745" lon="6.75724">
        <ele>1482</ele>
        <time>2018-07-07T08:40:54.000Z</time>
      </trkpt>
      <trkpt lat="44.18747" lon="6.75726">
        <ele>1482</ele>
        <time>2018-07-07T08:40:55.000Z</time>
      </trkpt>
      <trkpt lat="44.18749" lon="6.75736">
        <ele>1485</ele>
        <time>2018-07-07T08:41:00.000Z</time>
      </trkpt>
      <trkpt lat="44.1874" lon="6.75743">
        <ele>1486</ele>
        <time>2018-07-07T08:41:06.000Z</time>
      </trkpt>
      <trkpt lat="44.18738" lon="6.75744">
        <ele>1486</ele>
        <time>2018-07-07T08:41:07.000Z</time>
      </trkpt>
      <trkpt lat="44.1873" lon="6.7575">
        <ele>1495</ele>
        <time>2018-07-07T08:41:13.000Z</time>
      </trkpt>
      <trkpt lat="44.18728" lon="6.75751">
        <ele>1495</ele>
        <time>2018-07-07T08:41:14.000Z</time>
      </trkpt>
      <trkpt lat="44.1872" lon="6.75756">
        <ele>1496</ele>
        <time>2018-07-07T08:41:20.000Z</time>
      </trkpt>
      <trkpt lat="44.18713" lon="6.7576">
        <ele>1496</ele>
        <time>2018-07-07T08:41:25.000Z</time>
      </trkpt>
      <trkpt lat="44.18712" lon="6.75761">
        <ele>1496</ele>
        <time>2018-07-07T08:41:26.000Z</time>
      </trkpt>
      <trkpt lat="44.18702" lon="6.75768">
        <ele>1496</ele>
        <time>2018-07-07T08:41:32.000Z</time>
      </trkpt>
      <trkpt lat="44.187" lon="6.75769">
        <ele>1496</ele>
        <time>2018-07-07T08:41:33.000Z</time>
      </trkpt>
      <trkpt lat="44.18695" lon="6.75772">
        <ele>1496</ele>
        <time>2018-07-07T08:41:37.000Z</time>
      </trkpt>
      <trkpt lat="44.18689" lon="6.75775">
        <ele>1496</ele>
        <time>2018-07-07T08:41:41.000Z</time>
      </trkpt>
      <trkpt lat="44.18686" lon="6.75777">
        <ele>1496</ele>
        <time>2018-07-07T08:41:43.000Z</time>
      </trkpt>
      <trkpt lat="44.18679" lon="6.75783">
        <ele>1497</ele>
        <time>2018-07-07T08:41:48.000Z</time>
      </trkpt>
      <trkpt lat="44.18676" lon="6.75786">
        <ele>1497</ele>
        <time>2018-07-07T08:41:50.000Z</time>
      </trkpt>
      <trkpt lat="44.1867" lon="6.75791">
        <ele>1498</ele>
        <time>2018-07-07T08:41:54.000Z</time>
      </trkpt>
      <trkpt lat="44.18667" lon="6.75793">
        <ele>1499</ele>
        <time>2018-07-07T08:41:56.000Z</time>
      </trkpt>
      <trkpt lat="44.1866" lon="6.75798">
        <ele>1494</ele>
        <time>2018-07-07T08:42:00.000Z</time>
      </trkpt>
      <trkpt lat="44.18654" lon="6.75804">
        <ele>1495</ele>
        <time>2018-07-07T08:42:04.000Z</time>
      </trkpt>
      <trkpt lat="44.18647" lon="6.75811">
        <ele>1496</ele>
        <time>2018-07-07T08:42:08.000Z</time>
      </trkpt>
      <trkpt lat="44.18633" lon="6.75825">
        <ele>1496</ele>
        <time>2018-07-07T08:42:16.000Z</time>
      </trkpt>
      <trkpt lat="44.18623" lon="6.75835">
        <ele>1507</ele>
        <time>2018-07-07T08:42:23.000Z</time>
      </trkpt>
      <trkpt lat="44.1862" lon="6.75837">
        <ele>1507</ele>
        <time>2018-07-07T08:42:25.000Z</time>
      </trkpt>
      <trkpt lat="44.18614" lon="6.75841">
        <ele>1506</ele>
        <time>2018-07-07T08:42:28.000Z</time>
      </trkpt>
      <trkpt lat="44.18612" lon="6.75843">
        <ele>1506</ele>
        <time>2018-07-07T08:42:29.000Z</time>
      </trkpt>
      <trkpt lat="44.18609" lon="6.75845">
        <ele>1506</ele>
        <time>2018-07-07T08:42:31.000Z</time>
      </trkpt>
      <trkpt lat="44.18599" lon="6.75851">
        <ele>1505</ele>
        <time>2018-07-07T08:42:36.000Z</time>
      </trkpt>
      <trkpt lat="44.18592" lon="6.75854">
        <ele>1505</ele>
        <time>2018-07-07T08:42:41.000Z</time>
      </trkpt>
      <trkpt lat="44.1859" lon="6.75854">
        <ele>1505</ele>
        <time>2018-07-07T08:42:42.000Z</time>
      </trkpt>
      <trkpt lat="44.18581" lon="6.75857">
        <ele>1498</ele>
        <time>2018-07-07T08:42:48.000Z</time>
      </trkpt>
      <trkpt lat="44.1858" lon="6.75857">
        <ele>1498</ele>
        <time>2018-07-07T08:42:49.000Z</time>
      </trkpt>
      <trkpt lat="44.18569" lon="6.75858">
        <ele>1498</ele>
        <time>2018-07-07T08:42:55.000Z</time>
      </trkpt>
      <trkpt lat="44.18564" lon="6.7586">
        <ele>1498</ele>
        <time>2018-07-07T08:42:58.000Z</time>
      </trkpt>
      <trkpt lat="44.18563" lon="6.75862">
        <ele>1498</ele>
        <time>2018-07-07T08:42:59.000Z</time>
      </trkpt>
      <trkpt lat="44.18563" lon="6.75868">
        <ele>1499</ele>
        <time>2018-07-07T08:43:03.000Z</time>
      </trkpt>
      <trkpt lat="44.18563" lon="6.75869">
        <ele>1499</ele>
        <time>2018-07-07T08:43:04.000Z</time>
      </trkpt>
      <trkpt lat="44.1857" lon="6.75872">
        <ele>1500</ele>
        <time>2018-07-07T08:43:09.000Z</time>
      </trkpt>
      <trkpt lat="44.18581" lon="6.75872">
        <ele>1501</ele>
        <time>2018-07-07T08:43:16.000Z</time>
      </trkpt>
      <trkpt lat="44.18594" lon="6.75872">
        <ele>1508</ele>
        <time>2018-07-07T08:43:24.000Z</time>
      </trkpt>
      <trkpt lat="44.18598" lon="6.75872">
        <ele>1509</ele>
        <time>2018-07-07T08:43:27.000Z</time>
      </trkpt>
      <trkpt lat="44.18605" lon="6.75873">
        <ele>1509</ele>
        <time>2018-07-07T08:43:31.000Z</time>
      </trkpt>
      <trkpt lat="44.1861" lon="6.75873">
        <ele>1509</ele>
        <time>2018-07-07T08:43:34.000Z</time>
      </trkpt>
      <trkpt lat="44.18616" lon="6.75872">
        <ele>1509</ele>
        <time>2018-07-07T08:43:38.000Z</time>
      </trkpt>
      <trkpt lat="44.18623" lon="6.75873">
        <ele>1509</ele>
        <time>2018-07-07T08:43:42.000Z</time>
      </trkpt>
      <trkpt lat="44.1863" lon="6.75871">
        <ele>1510</ele>
        <time>2018-07-07T08:43:47.000Z</time>
      </trkpt>
      <trkpt lat="44.18633" lon="6.7587">
        <ele>1510</ele>
        <time>2018-07-07T08:43:49.000Z</time>
      </trkpt>
      <trkpt lat="44.18639" lon="6.75867">
        <ele>1510</ele>
        <time>2018-07-07T08:43:53.000Z</time>
      </trkpt>
      <trkpt lat="44.18645" lon="6.75867">
        <ele>1510</ele>
        <time>2018-07-07T08:43:57.000Z</time>
      </trkpt>
      <trkpt lat="44.18648" lon="6.7587">
        <ele>1510</ele>
        <time>2018-07-07T08:44:00.000Z</time>
      </trkpt>
      <trkpt lat="44.18647" lon="6.75879">
        <ele>1511</ele>
        <time>2018-07-07T08:44:05.000Z</time>
      </trkpt>
      <trkpt lat="44.18646" lon="6.75881">
        <ele>1511</ele>
        <time>2018-07-07T08:44:06.000Z</time>
      </trkpt>
      <trkpt lat="44.18637" lon="6.75888">
        <ele>1511</ele>
        <time>2018-07-07T08:44:12.000Z</time>
      </trkpt>
      <trkpt lat="44.18636" lon="6.75889">
        <ele>1511</ele>
        <time>2018-07-07T08:44:13.000Z</time>
      </trkpt>
      <trkpt lat="44.18626" lon="6.75897">
        <ele>1511</ele>
        <time>2018-07-07T08:44:19.000Z</time>
      </trkpt>
      <trkpt lat="44.18624" lon="6.75899">
        <ele>1511</ele>
        <time>2018-07-07T08:44:20.000Z</time>
      </trkpt>
      <trkpt lat="44.18613" lon="6.75914">
        <ele>1512</ele>
        <time>2018-07-07T08:44:28.000Z</time>
      </trkpt>
      <trkpt lat="44.18597" lon="6.75934">
        <ele>1518</ele>
        <time>2018-07-07T08:44:37.000Z</time>
      </trkpt>
      <trkpt lat="44.18582" lon="6.75948">
        <ele>1519</ele>
        <time>2018-07-07T08:44:45.000Z</time>
      </trkpt>
      <trkpt lat="44.18581" lon="6.75949">
        <ele>1519</ele>
        <time>2018-07-07T08:44:46.000Z</time>
      </trkpt>
      <trkpt lat="44.18574" lon="6.75955">
        <ele>1519</ele>
        <time>2018-07-07T08:44:51.000Z</time>
      </trkpt>
      <trkpt lat="44.18572" lon="6.75957">
        <ele>1519</ele>
        <time>2018-07-07T08:44:52.000Z</time>
      </trkpt>
      <trkpt lat="44.18565" lon="6.75966">
        <ele>1520</ele>
        <time>2018-07-07T08:44:58.000Z</time>
      </trkpt>
      <trkpt lat="44.18564" lon="6.75967">
        <ele>1520</ele>
        <time>2018-07-07T08:44:59.000Z</time>
      </trkpt>
      <trkpt lat="44.18555" lon="6.75972">
        <ele>1520</ele>
        <time>2018-07-07T08:45:05.000Z</time>
      </trkpt>
      <trkpt lat="44.18546" lon="6.75983">
        <ele>1521</ele>
        <time>2018-07-07T08:45:12.000Z</time>
      </trkpt>
      <trkpt lat="44.18538" lon="6.75996">
        <ele>1522</ele>
        <time>2018-07-07T08:45:18.000Z</time>
      </trkpt>
      <trkpt lat="44.18531" lon="6.7601">
        <ele>1531</ele>
        <time>2018-07-07T08:45:24.000Z</time>
      </trkpt>
      <trkpt lat="44.18534" lon="6.76025">
        <ele>1532</ele>
        <time>2018-07-07T08:45:29.000Z</time>
      </trkpt>
      <trkpt lat="44.18544" lon="6.76042">
        <ele>1533</ele>
        <time>2018-07-07T08:45:36.000Z</time>
      </trkpt>
      <trkpt lat="44.18546" lon="6.76044">
        <ele>1533</ele>
        <time>2018-07-07T08:45:37.000Z</time>
      </trkpt>
      <trkpt lat="44.18557" lon="6.76056">
        <ele>1534</ele>
        <time>2018-07-07T08:45:43.000Z</time>
      </trkpt>
      <trkpt lat="44.18561" lon="6.76058">
        <ele>1534</ele>
        <time>2018-07-07T08:45:45.000Z</time>
      </trkpt>
      <trkpt lat="44.18564" lon="6.76061">
        <ele>1533</ele>
        <time>2018-07-07T08:45:47.000Z</time>
      </trkpt>
      <trkpt lat="44.18573" lon="6.76066">
        <ele>1533</ele>
        <time>2018-07-07T08:45:52.000Z</time>
      </trkpt>
      <trkpt lat="44.18577" lon="6.76069">
        <ele>1533</ele>
        <time>2018-07-07T08:45:54.000Z</time>
      </trkpt>
      <trkpt lat="44.18586" lon="6.76075">
        <ele>1530</ele>
        <time>2018-07-07T08:45:59.000Z</time>
      </trkpt>
      <trkpt lat="44.18588" lon="6.76077">
        <ele>1530</ele>
        <time>2018-07-07T08:46:00.000Z</time>
      </trkpt>
      <trkpt lat="44.18596" lon="6.7608">
        <ele>1529</ele>
        <time>2018-07-07T08:46:04.000Z</time>
      </trkpt>
      <trkpt lat="44.18601" lon="6.76082">
        <ele>1528</ele>
        <time>2018-07-07T08:46:06.000Z</time>
      </trkpt>
      <trkpt lat="44.18614" lon="6.76091">
        <ele>1535</ele>
        <time>2018-07-07T08:46:12.000Z</time>
      </trkpt>
      <trkpt lat="44.18631" lon="6.76106">
        <ele>1534</ele>
        <time>2018-07-07T08:46:19.000Z</time>
      </trkpt>
      <trkpt lat="44.18648" lon="6.76122">
        <ele>1535</ele>
        <time>2018-07-07T08:46:27.000Z</time>
      </trkpt>
      <trkpt lat="44.18653" lon="6.76139">
        <ele>1537</ele>
        <time>2018-07-07T08:46:32.000Z</time>
      </trkpt>
      <trkpt lat="44.18654" lon="6.76143">
        <ele>1537</ele>
        <time>2018-07-07T08:46:33.000Z</time>
      </trkpt>
      <trkpt lat="44.18661" lon="6.76161">
        <ele>1539</ele>
        <time>2018-07-07T08:46:39.000Z</time>
      </trkpt>
      <trkpt lat="44.18668" lon="6.7617">
        <ele>1539</ele>
        <time>2018-07-07T08:46:43.000Z</time>
      </trkpt>
      <trkpt lat="44.18672" lon="6.76176">
        <ele>1538</ele>
        <time>2018-07-07T08:46:46.000Z</time>
      </trkpt>
      <trkpt lat="44.18675" lon="6.7618">
        <ele>1538</ele>
        <time>2018-07-07T08:46:48.000Z</time>
      </trkpt>
      <trkpt lat="44.18678" lon="6.76193">
        <ele>1537</ele>
        <time>2018-07-07T08:46:53.000Z</time>
      </trkpt>
      <trkpt lat="44.18678" lon="6.76198">
        <ele>1537</ele>
        <time>2018-07-07T08:46:55.000Z</time>
      </trkpt>
      <trkpt lat="44.18678" lon="6.76212">
        <ele>1538</ele>
        <time>2018-07-07T08:47:00.000Z</time>
      </trkpt>
      <trkpt lat="44.18678" lon="6.76217">
        <ele>1539</ele>
        <time>2018-07-07T08:47:02.000Z</time>
      </trkpt>
      <trkpt lat="44.18679" lon="6.76227">
        <ele>1540</ele>
        <time>2018-07-07T08:47:07.000Z</time>
      </trkpt>
      <trkpt lat="44.18677" lon="6.76235">
        <ele>1542</ele>
        <time>2018-07-07T08:47:11.000Z</time>
      </trkpt>
      <trkpt lat="44.18677" lon="6.76237">
        <ele>1543</ele>
        <time>2018-07-07T08:47:12.000Z</time>
      </trkpt>
      <trkpt lat="44.18673" lon="6.76245">
        <ele>1546</ele>
        <time>2018-07-07T08:47:17.000Z</time>
      </trkpt>
      <trkpt lat="44.18673" lon="6.76246">
        <ele>1547</ele>
        <time>2018-07-07T08:47:18.000Z</time>
      </trkpt>
      <trkpt lat="44.18673" lon="6.76247">
        <ele>1547</ele>
        <time>2018-07-07T08:47:19.000Z</time>
      </trkpt>
      <trkpt lat="44.18671" lon="6.76253">
        <ele>1548</ele>
        <time>2018-07-07T08:47:22.000Z</time>
      </trkpt>
      <trkpt lat="44.18669" lon="6.7626">
        <ele>1547</ele>
        <time>2018-07-07T08:47:26.000Z</time>
      </trkpt>
      <trkpt lat="44.18668" lon="6.76262">
        <ele>1546</ele>
        <time>2018-07-07T08:47:27.000Z</time>
      </trkpt>
      <trkpt lat="44.18667" lon="6.76264">
        <ele>1546</ele>
        <time>2018-07-07T08:47:28.000Z</time>
      </trkpt>
      <trkpt lat="44.18661" lon="6.7628">
        <ele>1560</ele>
        <time>2018-07-07T08:47:36.000Z</time>
      </trkpt>
      <trkpt lat="44.1866" lon="6.76282">
        <ele>1561</ele>
        <time>2018-07-07T08:47:37.000Z</time>
      </trkpt>
      <trkpt lat="44.18659" lon="6.76285">
        <ele>1561</ele>
        <time>2018-07-07T08:47:38.000Z</time>
      </trkpt>
      <trkpt lat="44.18655" lon="6.76297">
        <ele>1562</ele>
        <time>2018-07-07T08:47:43.000Z</time>
      </trkpt>
      <trkpt lat="44.18654" lon="6.763">
        <ele>1562</ele>
        <time>2018-07-07T08:47:44.000Z</time>
      </trkpt>
      <trkpt lat="44.18649" lon="6.76316">
        <ele>1562</ele>
        <time>2018-07-07T08:47:51.000Z</time>
      </trkpt>
      <trkpt lat="44.18646" lon="6.76332">
        <ele>1562</ele>
        <time>2018-07-07T08:47:57.000Z</time>
      </trkpt>
      <trkpt lat="44.18647" lon="6.76344">
        <ele>1570</ele>
        <time>2018-07-07T08:48:03.000Z</time>
      </trkpt>
      <trkpt lat="44.18648" lon="6.7635">
        <ele>1571</ele>
        <time>2018-07-07T08:48:05.000Z</time>
      </trkpt>
      <trkpt lat="44.18649" lon="6.76362">
        <ele>1573</ele>
        <time>2018-07-07T08:48:10.000Z</time>
      </trkpt>
      <trkpt lat="44.1865" lon="6.76364">
        <ele>1573</ele>
        <time>2018-07-07T08:48:11.000Z</time>
      </trkpt>
      <trkpt lat="44.18655" lon="6.76371">
        <ele>1573</ele>
        <time>2018-07-07T08:48:15.000Z</time>
      </trkpt>
      <trkpt lat="44.18657" lon="6.76373">
        <ele>1573</ele>
        <time>2018-07-07T08:48:17.000Z</time>
      </trkpt>
      <trkpt lat="44.18662" lon="6.76378">
        <ele>1573</ele>
        <time>2018-07-07T08:48:21.000Z</time>
      </trkpt>
      <trkpt lat="44.18666" lon="6.76383">
        <ele>1573</ele>
        <time>2018-07-07T08:48:24.000Z</time>
      </trkpt>
      <trkpt lat="44.18672" lon="6.76394">
        <ele>1554</ele>
        <time>2018-07-07T08:48:30.000Z</time>
      </trkpt>
      <trkpt lat="44.18673" lon="6.76396">
        <ele>1554</ele>
        <time>2018-07-07T08:48:31.000Z</time>
      </trkpt>
      <trkpt lat="44.18676" lon="6.76403">
        <ele>1556</ele>
        <time>2018-07-07T08:48:35.000Z</time>
      </trkpt>
      <trkpt lat="44.1868" lon="6.76411">
        <ele>1557</ele>
        <time>2018-07-07T08:48:39.000Z</time>
      </trkpt>
      <trkpt lat="44.18682" lon="6.76418">
        <ele>1562</ele>
        <time>2018-07-07T08:48:42.000Z</time>
      </trkpt>
      <trkpt lat="44.18685" lon="6.76426">
        <ele>1561</ele>
        <time>2018-07-07T08:48:46.000Z</time>
      </trkpt>
      <trkpt lat="44.18687" lon="6.76434">
        <ele>1560</ele>
        <time>2018-07-07T08:48:49.000Z</time>
      </trkpt>
      <trkpt lat="44.18691" lon="6.76451">
        <ele>1560</ele>
        <time>2018-07-07T08:48:56.000Z</time>
      </trkpt>
      <trkpt lat="44.18692" lon="6.76459">
        <ele>1560</ele>
        <time>2018-07-07T08:48:59.000Z</time>
      </trkpt>
      <trkpt lat="44.18693" lon="6.76468">
        <ele>1561</ele>
        <time>2018-07-07T08:49:03.000Z</time>
      </trkpt>
      <trkpt lat="44.18692" lon="6.7647">
        <ele>1562</ele>
        <time>2018-07-07T08:49:04.000Z</time>
      </trkpt>
      <trkpt lat="44.18692" lon="6.76472">
        <ele>1562</ele>
        <time>2018-07-07T08:49:05.000Z</time>
      </trkpt>
      <trkpt lat="44.1869" lon="6.76479">
        <ele>1564</ele>
        <time>2018-07-07T08:49:08.000Z</time>
      </trkpt>
      <trkpt lat="44.1869" lon="6.76481">
        <ele>1564</ele>
        <time>2018-07-07T08:49:09.000Z</time>
      </trkpt>
      <trkpt lat="44.1869" lon="6.76487">
        <ele>1565</ele>
        <time>2018-07-07T08:49:12.000Z</time>
      </trkpt>
      <trkpt lat="44.18691" lon="6.76493">
        <ele>1566</ele>
        <time>2018-07-07T08:49:15.000Z</time>
      </trkpt>
      <trkpt lat="44.18693" lon="6.76501">
        <ele>1574</ele>
        <time>2018-07-07T08:49:19.000Z</time>
      </trkpt>
      <trkpt lat="44.18695" lon="6.76507">
        <ele>1574</ele>
        <time>2018-07-07T08:49:22.000Z</time>
      </trkpt>
      <trkpt lat="44.18698" lon="6.76515">
        <ele>1573</ele>
        <time>2018-07-07T08:49:26.000Z</time>
      </trkpt>
      <trkpt lat="44.187" lon="6.76518">
        <ele>1573</ele>
        <time>2018-07-07T08:49:28.000Z</time>
      </trkpt>
      <trkpt lat="44.18701" lon="6.76519">
        <ele>1573</ele>
        <time>2018-07-07T08:49:29.000Z</time>
      </trkpt>
      <trkpt lat="44.18704" lon="6.76523">
        <ele>1572</ele>
        <time>2018-07-07T08:49:32.000Z</time>
      </trkpt>
      <trkpt lat="44.18706" lon="6.76528">
        <ele>1572</ele>
        <time>2018-07-07T08:49:35.000Z</time>
      </trkpt>
      <trkpt lat="44.18707" lon="6.7653">
        <ele>1572</ele>
        <time>2018-07-07T08:49:36.000Z</time>
      </trkpt>
      <trkpt lat="44.18708" lon="6.76531">
        <ele>1572</ele>
        <time>2018-07-07T08:49:37.000Z</time>
      </trkpt>
      <trkpt lat="44.18713" lon="6.76539">
        <ele>1572</ele>
        <time>2018-07-07T08:49:42.000Z</time>
      </trkpt>
      <trkpt lat="44.18714" lon="6.7654">
        <ele>1572</ele>
        <time>2018-07-07T08:49:43.000Z</time>
      </trkpt>
      <trkpt lat="44.18716" lon="6.76543">
        <ele>1571</ele>
        <time>2018-07-07T08:49:46.000Z</time>
      </trkpt>
      <trkpt lat="44.18718" lon="6.76546">
        <ele>1571</ele>
        <time>2018-07-07T08:49:48.000Z</time>
      </trkpt>
      <trkpt lat="44.1872" lon="6.7655">
        <ele>1571</ele>
        <time>2018-07-07T08:49:51.000Z</time>
      </trkpt>
      <trkpt lat="44.18723" lon="6.76558">
        <ele>1571</ele>
        <time>2018-07-07T08:49:56.000Z</time>
      </trkpt>
      <trkpt lat="44.18724" lon="6.76561">
        <ele>1571</ele>
        <time>2018-07-07T08:49:58.000Z</time>
      </trkpt>
      <trkpt lat="44.18725" lon="6.76568">
        <ele>1571</ele>
        <time>2018-07-07T08:50:01.000Z</time>
      </trkpt>
      <trkpt lat="44.18723" lon="6.76576">
        <ele>1571</ele>
        <time>2018-07-07T08:50:05.000Z</time>
      </trkpt>
      <trkpt lat="44.18723" lon="6.76578">
        <ele>1571</ele>
        <time>2018-07-07T08:50:06.000Z</time>
      </trkpt>
      <trkpt lat="44.18722" lon="6.7658">
        <ele>1571</ele>
        <time>2018-07-07T08:50:07.000Z</time>
      </trkpt>
      <trkpt lat="44.18719" lon="6.76588">
        <ele>1579</ele>
        <time>2018-07-07T08:50:12.000Z</time>
      </trkpt>
      <trkpt lat="44.1872" lon="6.76589">
        <ele>1579</ele>
        <time>2018-07-07T08:50:13.000Z</time>
      </trkpt>
      <trkpt lat="44.18719" lon="6.7659">
        <ele>1580</ele>
        <time>2018-07-07T08:50:14.000Z</time>
      </trkpt>
      <trkpt lat="44.18719" lon="6.76593">
        <ele>1580</ele>
        <time>2018-07-07T08:50:16.000Z</time>
      </trkpt>
      <trkpt lat="44.18718" lon="6.76595">
        <ele>1580</ele>
        <time>2018-07-07T08:50:17.000Z</time>
      </trkpt>
      <trkpt lat="44.18717" lon="6.76597">
        <ele>1581</ele>
        <time>2018-07-07T08:50:18.000Z</time>
      </trkpt>
      <trkpt lat="44.18716" lon="6.76605">
        <ele>1582</ele>
        <time>2018-07-07T08:50:22.000Z</time>
      </trkpt>
      <trkpt lat="44.18716" lon="6.76607">
        <ele>1582</ele>
        <time>2018-07-07T08:50:23.000Z</time>
      </trkpt>
      <trkpt lat="44.18716" lon="6.76611">
        <ele>1582</ele>
        <time>2018-07-07T08:50:25.000Z</time>
      </trkpt>
      <trkpt lat="44.18716" lon="6.76622">
        <ele>1583</ele>
        <time>2018-07-07T08:50:30.000Z</time>
      </trkpt>
      <trkpt lat="44.18716" lon="6.76624">
        <ele>1583</ele>
        <time>2018-07-07T08:50:31.000Z</time>
      </trkpt>
      <trkpt lat="44.18717" lon="6.76626">
        <ele>1583</ele>
        <time>2018-07-07T08:50:32.000Z</time>
      </trkpt>
      <trkpt lat="44.18718" lon="6.76635">
        <ele>1583</ele>
        <time>2018-07-07T08:50:37.000Z</time>
      </trkpt>
      <trkpt lat="44.18718" lon="6.76638">
        <ele>1583</ele>
        <time>2018-07-07T08:50:39.000Z</time>
      </trkpt>
      <trkpt lat="44.18719" lon="6.76646">
        <ele>1583</ele>
        <time>2018-07-07T08:50:43.000Z</time>
      </trkpt>
      <trkpt lat="44.1872" lon="6.76647">
        <ele>1583</ele>
        <time>2018-07-07T08:50:44.000Z</time>
      </trkpt>
      <trkpt lat="44.1872" lon="6.76652">
        <ele>1583</ele>
        <time>2018-07-07T08:50:47.000Z</time>
      </trkpt>
      <trkpt lat="44.1872" lon="6.76654">
        <ele>1583</ele>
        <time>2018-07-07T08:50:48.000Z</time>
      </trkpt>
      <trkpt lat="44.1872" lon="6.76657">
        <ele>1583</ele>
        <time>2018-07-07T08:50:50.000Z</time>
      </trkpt>
      <trkpt lat="44.1872" lon="6.76659">
        <ele>1583</ele>
        <time>2018-07-07T08:50:51.000Z</time>
      </trkpt>
      <trkpt lat="44.18719" lon="6.76662">
        <ele>1583</ele>
        <time>2018-07-07T08:50:53.000Z</time>
      </trkpt>
      <trkpt lat="44.18719" lon="6.76665">
        <ele>1583</ele>
        <time>2018-07-07T08:50:55.000Z</time>
      </trkpt>
      <trkpt lat="44.18719" lon="6.76671">
        <ele>1591</ele>
        <time>2018-07-07T08:50:58.000Z</time>
      </trkpt>
      <trkpt lat="44.18717" lon="6.76677">
        <ele>1592</ele>
        <time>2018-07-07T08:51:01.000Z</time>
      </trkpt>
      <trkpt lat="44.18716" lon="6.76681">
        <ele>1593</ele>
        <time>2018-07-07T08:51:03.000Z</time>
      </trkpt>
      <trkpt lat="44.18714" lon="6.76696">
        <ele>1595</ele>
        <time>2018-07-07T08:51:09.000Z</time>
      </trkpt>
      <trkpt lat="44.18713" lon="6.767">
        <ele>1596</ele>
        <time>2018-07-07T08:51:11.000Z</time>
      </trkpt>
      <trkpt lat="44.18713" lon="6.76708">
        <ele>1597</ele>
        <time>2018-07-07T08:51:15.000Z</time>
      </trkpt>
      <trkpt lat="44.18713" lon="6.7671">
        <ele>1597</ele>
        <time>2018-07-07T08:51:16.000Z</time>
      </trkpt>
      <trkpt lat="44.18716" lon="6.76721">
        <ele>1597</ele>
        <time>2018-07-07T08:51:21.000Z</time>
      </trkpt>
      <trkpt lat="44.18719" lon="6.76727">
        <ele>1597</ele>
        <time>2018-07-07T08:51:24.000Z</time>
      </trkpt>
      <trkpt lat="44.18721" lon="6.76733">
        <ele>1596</ele>
        <time>2018-07-07T08:51:27.000Z</time>
      </trkpt>
      <trkpt lat="44.18723" lon="6.76738">
        <ele>1595</ele>
        <time>2018-07-07T08:51:30.000Z</time>
      </trkpt>
      <trkpt lat="44.18726" lon="6.76746">
        <ele>1594</ele>
        <time>2018-07-07T08:51:34.000Z</time>
      </trkpt>
      <trkpt lat="44.18727" lon="6.76748">
        <ele>1594</ele>
        <time>2018-07-07T08:51:35.000Z</time>
      </trkpt>
      <trkpt lat="44.18733" lon="6.76759">
        <ele>1602</ele>
        <time>2018-07-07T08:51:41.000Z</time>
      </trkpt>
      <trkpt lat="44.18734" lon="6.76762">
        <ele>1602</ele>
        <time>2018-07-07T08:51:43.000Z</time>
      </trkpt>
      <trkpt lat="44.18738" lon="6.76769">
        <ele>1604</ele>
        <time>2018-07-07T08:51:47.000Z</time>
      </trkpt>
      <trkpt lat="44.18741" lon="6.76776">
        <ele>1606</ele>
        <time>2018-07-07T08:51:51.000Z</time>
      </trkpt>
      <trkpt lat="44.18744" lon="6.76781">
        <ele>1607</ele>
        <time>2018-07-07T08:51:54.000Z</time>
      </trkpt>
      <trkpt lat="44.18748" lon="6.7679">
        <ele>1609</ele>
        <time>2018-07-07T08:52:00.000Z</time>
      </trkpt>
      <trkpt lat="44.18756" lon="6.76801">
        <ele>1587</ele>
        <time>2018-07-07T08:52:08.000Z</time>
      </trkpt>
      <trkpt lat="44.18763" lon="6.76813">
        <ele>1590</ele>
        <time>2018-07-07T08:52:16.000Z</time>
      </trkpt>
      <trkpt lat="44.18768" lon="6.76819">
        <ele>1590</ele>
        <time>2018-07-07T08:52:20.000Z</time>
      </trkpt>
      <trkpt lat="44.18771" lon="6.76824">
        <ele>1590</ele>
        <time>2018-07-07T08:52:23.000Z</time>
      </trkpt>
      <trkpt lat="44.18772" lon="6.76825">
        <ele>1589</ele>
        <time>2018-07-07T08:52:24.000Z</time>
      </trkpt>
      <trkpt lat="44.18777" lon="6.76835">
        <ele>1598</ele>
        <time>2018-07-07T08:52:30.000Z</time>
      </trkpt>
      <trkpt lat="44.18778" lon="6.76836">
        <ele>1598</ele>
        <time>2018-07-07T08:52:31.000Z</time>
      </trkpt>
      <trkpt lat="44.18781" lon="6.76845">
        <ele>1597</ele>
        <time>2018-07-07T08:52:36.000Z</time>
      </trkpt>
      <trkpt lat="44.18781" lon="6.76848">
        <ele>1597</ele>
        <time>2018-07-07T08:52:38.000Z</time>
      </trkpt>
      <trkpt lat="44.1878" lon="6.76856">
        <ele>1597</ele>
        <time>2018-07-07T08:52:42.000Z</time>
      </trkpt>
      <trkpt lat="44.1878" lon="6.76857">
        <ele>1597</ele>
        <time>2018-07-07T08:52:43.000Z</time>
      </trkpt>
      <trkpt lat="44.18781" lon="6.7686">
        <ele>1597</ele>
        <time>2018-07-07T08:52:44.000Z</time>
      </trkpt>
      <trkpt lat="44.1878" lon="6.76862">
        <ele>1597</ele>
        <time>2018-07-07T08:52:45.000Z</time>
      </trkpt>
      <trkpt lat="44.18779" lon="6.76867">
        <ele>1598</ele>
        <time>2018-07-07T08:52:48.000Z</time>
      </trkpt>
      <trkpt lat="44.18777" lon="6.76872">
        <ele>1598</ele>
        <time>2018-07-07T08:52:51.000Z</time>
      </trkpt>
      <trkpt lat="44.18777" lon="6.76876">
        <ele>1599</ele>
        <time>2018-07-07T08:52:53.000Z</time>
      </trkpt>
      <trkpt lat="44.18775" lon="6.76884">
        <ele>1600</ele>
        <time>2018-07-07T08:52:57.000Z</time>
      </trkpt>
      <trkpt lat="44.18774" lon="6.7689">
        <ele>1602</ele>
        <time>2018-07-07T08:53:00.000Z</time>
      </trkpt>
      <trkpt lat="44.18773" lon="6.76899">
        <ele>1603</ele>
        <time>2018-07-07T08:53:04.000Z</time>
      </trkpt>
      <trkpt lat="44.18773" lon="6.76901">
        <ele>1604</ele>
        <time>2018-07-07T08:53:05.000Z</time>
      </trkpt>
      <trkpt lat="44.18773" lon="6.76904">
        <ele>1604</ele>
        <time>2018-07-07T08:53:06.000Z</time>
      </trkpt>
      <trkpt lat="44.18772" lon="6.76912">
        <ele>1606</ele>
        <time>2018-07-07T08:53:10.000Z</time>
      </trkpt>
      <trkpt lat="44.18772" lon="6.76923">
        <ele>1614</ele>
        <time>2018-07-07T08:53:15.000Z</time>
      </trkpt>
      <trkpt lat="44.18773" lon="6.76926">
        <ele>1614</ele>
        <time>2018-07-07T08:53:16.000Z</time>
      </trkpt>
      <trkpt lat="44.18775" lon="6.76932">
        <ele>1613</ele>
        <time>2018-07-07T08:53:19.000Z</time>
      </trkpt>
      <trkpt lat="44.18776" lon="6.76934">
        <ele>1613</ele>
        <time>2018-07-07T08:53:20.000Z</time>
      </trkpt>
      <trkpt lat="44.1878" lon="6.76944">
        <ele>1612</ele>
        <time>2018-07-07T08:53:25.000Z</time>
      </trkpt>
      <trkpt lat="44.18782" lon="6.76947">
        <ele>1611</ele>
        <time>2018-07-07T08:53:27.000Z</time>
      </trkpt>
      <trkpt lat="44.18785" lon="6.76953">
        <ele>1611</ele>
        <time>2018-07-07T08:53:30.000Z</time>
      </trkpt>
      <trkpt lat="44.18787" lon="6.76957">
        <ele>1611</ele>
        <time>2018-07-07T08:53:33.000Z</time>
      </trkpt>
      <trkpt lat="44.1879" lon="6.76964">
        <ele>1611</ele>
        <time>2018-07-07T08:53:37.000Z</time>
      </trkpt>
      <trkpt lat="44.18791" lon="6.76968">
        <ele>1611</ele>
        <time>2018-07-07T08:53:39.000Z</time>
      </trkpt>
      <trkpt lat="44.18797" lon="6.76986">
        <ele>1611</ele>
        <time>2018-07-07T08:53:47.000Z</time>
      </trkpt>
      <trkpt lat="44.18801" lon="6.76996">
        <ele>1610</ele>
        <time>2018-07-07T08:53:52.000Z</time>
      </trkpt>
      <trkpt lat="44.18807" lon="6.77008">
        <ele>1617</ele>
        <time>2018-07-07T08:53:58.000Z</time>
      </trkpt>
      <trkpt lat="44.18812" lon="6.77019">
        <ele>1617</ele>
        <time>2018-07-07T08:54:04.000Z</time>
      </trkpt>
      <trkpt lat="44.18813" lon="6.77025">
        <ele>1617</ele>
        <time>2018-07-07T08:54:07.000Z</time>
      </trkpt>
      <trkpt lat="44.18816" lon="6.77036">
        <ele>1618</ele>
        <time>2018-07-07T08:54:12.000Z</time>
      </trkpt>
      <trkpt lat="44.18816" lon="6.77049">
        <ele>1620</ele>
        <time>2018-07-07T08:54:17.000Z</time>
      </trkpt>
      <trkpt lat="44.18815" lon="6.77051">
        <ele>1620</ele>
        <time>2018-07-07T08:54:18.000Z</time>
      </trkpt>
      <trkpt lat="44.18814" lon="6.77068">
        <ele>1620</ele>
        <time>2018-07-07T08:54:24.000Z</time>
      </trkpt>
      <trkpt lat="44.18817" lon="6.77077">
        <ele>1619</ele>
        <time>2018-07-07T08:54:28.000Z</time>
      </trkpt>
      <trkpt lat="44.18818" lon="6.77081">
        <ele>1619</ele>
        <time>2018-07-07T08:54:30.000Z</time>
      </trkpt>
      <trkpt lat="44.18822" lon="6.77089">
        <ele>1620</ele>
        <time>2018-07-07T08:54:34.000Z</time>
      </trkpt>
      <trkpt lat="44.18823" lon="6.77091">
        <ele>1620</ele>
        <time>2018-07-07T08:54:35.000Z</time>
      </trkpt>
      <trkpt lat="44.18824" lon="6.77101">
        <ele>1622</ele>
        <time>2018-07-07T08:54:40.000Z</time>
      </trkpt>
      <trkpt lat="44.18825" lon="6.77105">
        <ele>1623</ele>
        <time>2018-07-07T08:54:42.000Z</time>
      </trkpt>
      <trkpt lat="44.18825" lon="6.77109">
        <ele>1624</ele>
        <time>2018-07-07T08:54:44.000Z</time>
      </trkpt>
      <trkpt lat="44.18824" lon="6.77119">
        <ele>1625</ele>
        <time>2018-07-07T08:54:49.000Z</time>
      </trkpt>
      <trkpt lat="44.18823" lon="6.77121">
        <ele>1625</ele>
        <time>2018-07-07T08:54:50.000Z</time>
      </trkpt>
      <trkpt lat="44.18822" lon="6.77123">
        <ele>1625</ele>
        <time>2018-07-07T08:54:51.000Z</time>
      </trkpt>
      <trkpt lat="44.18822" lon="6.77125">
        <ele>1625</ele>
        <time>2018-07-07T08:54:52.000Z</time>
      </trkpt>
      <trkpt lat="44.18822" lon="6.77129">
        <ele>1625</ele>
        <time>2018-07-07T08:54:54.000Z</time>
      </trkpt>
      <trkpt lat="44.18822" lon="6.77138">
        <ele>1625</ele>
        <time>2018-07-07T08:54:58.000Z</time>
      </trkpt>
      <trkpt lat="44.18822" lon="6.7714">
        <ele>1625</ele>
        <time>2018-07-07T08:54:59.000Z</time>
      </trkpt>
      <trkpt lat="44.1882" lon="6.77151">
        <ele>1624</ele>
        <time>2018-07-07T08:55:03.000Z</time>
      </trkpt>
      <trkpt lat="44.18819" lon="6.77154">
        <ele>1624</ele>
        <time>2018-07-07T08:55:04.000Z</time>
      </trkpt>
      <trkpt lat="44.18819" lon="6.77158">
        <ele>1623</ele>
        <time>2018-07-07T08:55:05.000Z</time>
      </trkpt>
      <trkpt lat="44.18818" lon="6.77168">
        <ele>1625</ele>
        <time>2018-07-07T08:55:08.000Z</time>
      </trkpt>
      <trkpt lat="44.18819" lon="6.77192">
        <ele>1628</ele>
        <time>2018-07-07T08:55:14.000Z</time>
      </trkpt>
      <trkpt lat="44.18821" lon="6.77215">
        <ele>1629</ele>
        <time>2018-07-07T08:55:20.000Z</time>
      </trkpt>
      <trkpt lat="44.18819" lon="6.77241">
        <ele>1626</ele>
        <time>2018-07-07T08:55:26.000Z</time>
      </trkpt>
      <trkpt lat="44.18818" lon="6.77269">
        <ele>1632</ele>
        <time>2018-07-07T08:55:32.000Z</time>
      </trkpt>
      <trkpt lat="44.18817" lon="6.77286">
        <ele>1635</ele>
        <time>2018-07-07T08:55:36.000Z</time>
      </trkpt>
      <trkpt lat="44.18816" lon="6.7729">
        <ele>1635</ele>
        <time>2018-07-07T08:55:37.000Z</time>
      </trkpt>
      <trkpt lat="44.18815" lon="6.77308">
        <ele>1636</ele>
        <time>2018-07-07T08:55:41.000Z</time>
      </trkpt>
      <trkpt lat="44.18815" lon="6.77334">
        <ele>1636</ele>
        <time>2018-07-07T08:55:47.000Z</time>
      </trkpt>
      <trkpt lat="44.18816" lon="6.77342">
        <ele>1636</ele>
        <time>2018-07-07T08:55:49.000Z</time>
      </trkpt>
      <trkpt lat="44.18816" lon="6.7735">
        <ele>1637</ele>
        <time>2018-07-07T08:55:51.000Z</time>
      </trkpt>
      <trkpt lat="44.18816" lon="6.77358">
        <ele>1638</ele>
        <time>2018-07-07T08:55:53.000Z</time>
      </trkpt>
      <trkpt lat="44.18816" lon="6.77369">
        <ele>1638</ele>
        <time>2018-07-07T08:55:56.000Z</time>
      </trkpt>
      <trkpt lat="44.18816" lon="6.77375">
        <ele>1638</ele>
        <time>2018-07-07T08:55:58.000Z</time>
      </trkpt>
      <trkpt lat="44.18815" lon="6.7738">
        <ele>1638</ele>
        <time>2018-07-07T08:56:00.000Z</time>
      </trkpt>
      <trkpt lat="44.18815" lon="6.77387">
        <ele>1638</ele>
        <time>2018-07-07T08:56:04.000Z</time>
      </trkpt>
      <trkpt lat="44.18816" lon="6.7739">
        <ele>1637</ele>
        <time>2018-07-07T08:56:05.000Z</time>
      </trkpt>
      <trkpt lat="44.18815" lon="6.77393">
        <ele>1637</ele>
        <time>2018-07-07T08:56:06.000Z</time>
      </trkpt>
      <trkpt lat="44.18815" lon="6.774">
        <ele>1636</ele>
        <time>2018-07-07T08:56:08.000Z</time>
      </trkpt>
      <trkpt lat="44.18816" lon="6.77406">
        <ele>1634</ele>
        <time>2018-07-07T08:56:10.000Z</time>
      </trkpt>
      <trkpt lat="44.18818" lon="6.77421">
        <ele>1632</ele>
        <time>2018-07-07T08:56:14.000Z</time>
      </trkpt>
      <trkpt lat="44.18821" lon="6.7744">
        <ele>1634</ele>
        <time>2018-07-07T08:56:19.000Z</time>
      </trkpt>
      <trkpt lat="44.1882" lon="6.77461">
        <ele>1635</ele>
        <time>2018-07-07T08:56:24.000Z</time>
      </trkpt>
      <trkpt lat="44.1882" lon="6.77466">
        <ele>1635</ele>
        <time>2018-07-07T08:56:25.000Z</time>
      </trkpt>
      <trkpt lat="44.18822" lon="6.77479">
        <ele>1632</ele>
        <time>2018-07-07T08:56:28.000Z</time>
      </trkpt>
      <trkpt lat="44.18823" lon="6.77501">
        <ele>1625</ele>
        <time>2018-07-07T08:56:33.000Z</time>
      </trkpt>
      <trkpt lat="44.18823" lon="6.77527">
        <ele>1629</ele>
        <time>2018-07-07T08:56:39.000Z</time>
      </trkpt>
      <trkpt lat="44.18821" lon="6.77562">
        <ele>1626</ele>
        <time>2018-07-07T08:56:46.000Z</time>
      </trkpt>
      <trkpt lat="44.18816" lon="6.77587">
        <ele>1619</ele>
        <time>2018-07-07T08:56:52.000Z</time>
      </trkpt>
      <trkpt lat="44.18807" lon="6.77598">
        <ele>1622</ele>
        <time>2018-07-07T08:56:56.000Z</time>
      </trkpt>
      <trkpt lat="44.18795" lon="6.77609">
        <ele>1624</ele>
        <time>2018-07-07T08:57:02.000Z</time>
      </trkpt>
      <trkpt lat="44.18793" lon="6.77611">
        <ele>1625</ele>
        <time>2018-07-07T08:57:04.000Z</time>
      </trkpt>
      <trkpt lat="44.18784" lon="6.77619">
        <ele>1626</ele>
        <time>2018-07-07T08:57:09.000Z</time>
      </trkpt>
      <trkpt lat="44.18781" lon="6.77623">
        <ele>1627</ele>
        <time>2018-07-07T08:57:11.000Z</time>
      </trkpt>
      <trkpt lat="44.18775" lon="6.77628">
        <ele>1628</ele>
        <time>2018-07-07T08:57:15.000Z</time>
      </trkpt>
      <trkpt lat="44.18773" lon="6.77631">
        <ele>1628</ele>
        <time>2018-07-07T08:57:17.000Z</time>
      </trkpt>
      <trkpt lat="44.1877" lon="6.77636">
        <ele>1628</ele>
        <time>2018-07-07T08:57:21.000Z</time>
      </trkpt>
      <trkpt lat="44.18768" lon="6.77638">
        <ele>1628</ele>
        <time>2018-07-07T08:57:24.000Z</time>
      </trkpt>
      <trkpt lat="44.18766" lon="6.77641">
        <ele>1628</ele>
        <time>2018-07-07T08:57:26.000Z</time>
      </trkpt>
      <trkpt lat="44.18763" lon="6.77646">
        <ele>1629</ele>
        <time>2018-07-07T08:57:30.000Z</time>
      </trkpt>
      <trkpt lat="44.18762" lon="6.77647">
        <ele>1629</ele>
        <time>2018-07-07T08:57:31.000Z</time>
      </trkpt>
      <trkpt lat="44.18758" lon="6.77655">
        <ele>1630</ele>
        <time>2018-07-07T08:57:36.000Z</time>
      </trkpt>
      <trkpt lat="44.18758" lon="6.77657">
        <ele>1631</ele>
        <time>2018-07-07T08:57:37.000Z</time>
      </trkpt>
      <trkpt lat="44.18754" lon="6.77664">
        <ele>1633</ele>
        <time>2018-07-07T08:57:42.000Z</time>
      </trkpt>
      <trkpt lat="44.18752" lon="6.77669">
        <ele>1631</ele>
        <time>2018-07-07T08:57:45.000Z</time>
      </trkpt>
      <trkpt lat="44.18748" lon="6.77677">
        <ele>1636</ele>
        <time>2018-07-07T08:57:50.000Z</time>
      </trkpt>
      <trkpt lat="44.18746" lon="6.77679">
        <ele>1636</ele>
        <time>2018-07-07T08:57:52.000Z</time>
      </trkpt>
      <trkpt lat="44.1874" lon="6.77686">
        <ele>1636</ele>
        <time>2018-07-07T08:57:57.000Z</time>
      </trkpt>
      <trkpt lat="44.18739" lon="6.77688">
        <ele>1636</ele>
        <time>2018-07-07T08:57:59.000Z</time>
      </trkpt>
      <trkpt lat="44.18734" lon="6.77693">
        <ele>1636</ele>
        <time>2018-07-07T08:58:04.000Z</time>
      </trkpt>
      <trkpt lat="44.18733" lon="6.77694">
        <ele>1636</ele>
        <time>2018-07-07T08:58:05.000Z</time>
      </trkpt>
      <trkpt lat="44.18729" lon="6.77696">
        <ele>1636</ele>
        <time>2018-07-07T08:58:09.000Z</time>
      </trkpt>
      <trkpt lat="44.18725" lon="6.77696">
        <ele>1637</ele>
        <time>2018-07-07T08:58:12.000Z</time>
      </trkpt>
      <trkpt lat="44.18721" lon="6.77697">
        <ele>1637</ele>
        <time>2018-07-07T08:58:15.000Z</time>
      </trkpt>
      <trkpt lat="44.18711" lon="6.777">
        <ele>1639</ele>
        <time>2018-07-07T08:58:22.000Z</time>
      </trkpt>
      <trkpt lat="44.18702" lon="6.77701">
        <ele>1640</ele>
        <time>2018-07-07T08:58:29.000Z</time>
      </trkpt>
      <trkpt lat="44.18693" lon="6.77702">
        <ele>1642</ele>
        <time>2018-07-07T08:58:36.000Z</time>
      </trkpt>
      <trkpt lat="44.18686" lon="6.77704">
        <ele>1642</ele>
        <time>2018-07-07T08:58:41.000Z</time>
      </trkpt>
      <trkpt lat="44.18683" lon="6.77706">
        <ele>1642</ele>
        <time>2018-07-07T08:58:43.000Z</time>
      </trkpt>
      <trkpt lat="44.18677" lon="6.77718">
        <ele>1641</ele>
        <time>2018-07-07T08:58:49.000Z</time>
      </trkpt>
      <trkpt lat="44.18671" lon="6.77733">
        <ele>1641</ele>
        <time>2018-07-07T08:58:54.000Z</time>
      </trkpt>
      <trkpt lat="44.1866" lon="6.77758">
        <ele>1647</ele>
        <time>2018-07-07T08:59:02.000Z</time>
      </trkpt>
      <trkpt lat="44.18653" lon="6.77778">
        <ele>1652</ele>
        <time>2018-07-07T08:59:07.000Z</time>
      </trkpt>
      <trkpt lat="44.18652" lon="6.77786">
        <ele>1652</ele>
        <time>2018-07-07T08:59:09.000Z</time>
      </trkpt>
      <trkpt lat="44.1865" lon="6.77798">
        <ele>1651</ele>
        <time>2018-07-07T08:59:12.000Z</time>
      </trkpt>
      <trkpt lat="44.18649" lon="6.778">
        <ele>1651</ele>
        <time>2018-07-07T08:59:13.000Z</time>
      </trkpt>
      <trkpt lat="44.18647" lon="6.778">
        <ele>1651</ele>
        <time>2018-07-07T08:59:14.000Z</time>
      </trkpt>
      <trkpt lat="44.18644" lon="6.77801">
        <ele>1652</ele>
        <time>2018-07-07T08:59:16.000Z</time>
      </trkpt>
      <trkpt lat="44.18643" lon="6.77802">
        <ele>1652</ele>
        <time>2018-07-07T08:59:17.000Z</time>
      </trkpt>
      <trkpt lat="44.1864" lon="6.77809">
        <ele>1652</ele>
        <time>2018-07-07T08:59:20.000Z</time>
      </trkpt>
      <trkpt lat="44.18639" lon="6.77812">
        <ele>1652</ele>
        <time>2018-07-07T08:59:21.000Z</time>
      </trkpt>
      <trkpt lat="44.18633" lon="6.77825">
        <ele>1652</ele>
        <time>2018-07-07T08:59:25.000Z</time>
      </trkpt>
      <trkpt lat="44.1863" lon="6.77835">
        <ele>1652</ele>
        <time>2018-07-07T08:59:30.000Z</time>
      </trkpt>
      <trkpt lat="44.18631" lon="6.77841">
        <ele>1652</ele>
        <time>2018-07-07T08:59:32.000Z</time>
      </trkpt>
      <trkpt lat="44.18635" lon="6.77845">
        <ele>1651</ele>
        <time>2018-07-07T08:59:35.000Z</time>
      </trkpt>
      <trkpt lat="44.18642" lon="6.77849">
        <ele>1648</ele>
        <time>2018-07-07T08:59:39.000Z</time>
      </trkpt>
      <trkpt lat="44.18643" lon="6.7785">
        <ele>1648</ele>
        <time>2018-07-07T08:59:40.000Z</time>
      </trkpt>
      <trkpt lat="44.18651" lon="6.77859">
        <ele>1648</ele>
        <time>2018-07-07T08:59:46.000Z</time>
      </trkpt>
      <trkpt lat="44.18653" lon="6.77863">
        <ele>1648</ele>
        <time>2018-07-07T08:59:48.000Z</time>
      </trkpt>
      <trkpt lat="44.18658" lon="6.77869">
        <ele>1648</ele>
        <time>2018-07-07T08:59:52.000Z</time>
      </trkpt>
      <trkpt lat="44.18665" lon="6.77876">
        <ele>1648</ele>
        <time>2018-07-07T08:59:57.000Z</time>
      </trkpt>
      <trkpt lat="44.18667" lon="6.77877">
        <ele>1627</ele>
        <time>2018-07-07T08:59:58.000Z</time>
      </trkpt>
      <trkpt lat="44.18676" lon="6.77885">
        <ele>1627</ele>
        <time>2018-07-07T09:00:04.000Z</time>
      </trkpt>
      <trkpt lat="44.18677" lon="6.77887">
        <ele>1627</ele>
        <time>2018-07-07T09:00:05.000Z</time>
      </trkpt>
      <trkpt lat="44.1868" lon="6.77901">
        <ele>1630</ele>
        <time>2018-07-07T09:00:11.000Z</time>
      </trkpt>
      <trkpt lat="44.18678" lon="6.77918">
        <ele>1641</ele>
        <time>2018-07-07T09:00:16.000Z</time>
      </trkpt>
      <trkpt lat="44.18679" lon="6.77937">
        <ele>1640</ele>
        <time>2018-07-07T09:00:21.000Z</time>
      </trkpt>
      <trkpt lat="44.18682" lon="6.77953">
        <ele>1641</ele>
        <time>2018-07-07T09:00:26.000Z</time>
      </trkpt>
      <trkpt lat="44.18683" lon="6.77956">
        <ele>1641</ele>
        <time>2018-07-07T09:00:27.000Z</time>
      </trkpt>
      <trkpt lat="44.18689" lon="6.77971">
        <ele>1643</ele>
        <time>2018-07-07T09:00:32.000Z</time>
      </trkpt>
      <trkpt lat="44.18692" lon="6.77975">
        <ele>1643</ele>
        <time>2018-07-07T09:00:34.000Z</time>
      </trkpt>
      <trkpt lat="44.18694" lon="6.77978">
        <ele>1643</ele>
        <time>2018-07-07T09:00:35.000Z</time>
      </trkpt>
      <trkpt lat="44.18702" lon="6.77988">
        <ele>1642</ele>
        <time>2018-07-07T09:00:39.000Z</time>
      </trkpt>
      <trkpt lat="44.18715" lon="6.78">
        <ele>1639</ele>
        <time>2018-07-07T09:00:45.000Z</time>
      </trkpt>
      <trkpt lat="44.18722" lon="6.78006">
        <ele>1651</ele>
        <time>2018-07-07T09:00:49.000Z</time>
      </trkpt>
      <trkpt lat="44.18723" lon="6.78008">
        <ele>1651</ele>
        <time>2018-07-07T09:00:50.000Z</time>
      </trkpt>
      <trkpt lat="44.18728" lon="6.78015">
        <ele>1650</ele>
        <time>2018-07-07T09:00:54.000Z</time>
      </trkpt>
      <trkpt lat="44.1873" lon="6.78018">
        <ele>1650</ele>
        <time>2018-07-07T09:00:56.000Z</time>
      </trkpt>
      <trkpt lat="44.18732" lon="6.78027">
        <ele>1652</ele>
        <time>2018-07-07T09:01:00.000Z</time>
      </trkpt>
      <trkpt lat="44.18735" lon="6.78035">
        <ele>1654</ele>
        <time>2018-07-07T09:01:04.000Z</time>
      </trkpt>
      <trkpt lat="44.18738" lon="6.78042">
        <ele>1656</ele>
        <time>2018-07-07T09:01:07.000Z</time>
      </trkpt>
      <trkpt lat="44.18743" lon="6.78051">
        <ele>1657</ele>
        <time>2018-07-07T09:01:12.000Z</time>
      </trkpt>
      <trkpt lat="44.18746" lon="6.78052">
        <ele>1657</ele>
        <time>2018-07-07T09:01:14.000Z</time>
      </trkpt>
      <trkpt lat="44.18752" lon="6.78053">
        <ele>1647</ele>
        <time>2018-07-07T09:01:18.000Z</time>
      </trkpt>
      <trkpt lat="44.18754" lon="6.78053">
        <ele>1647</ele>
        <time>2018-07-07T09:01:19.000Z</time>
      </trkpt>
      <trkpt lat="44.18759" lon="6.78053">
        <ele>1646</ele>
        <time>2018-07-07T09:01:22.000Z</time>
      </trkpt>
      <trkpt lat="44.18764" lon="6.78051">
        <ele>1645</ele>
        <time>2018-07-07T09:01:26.000Z</time>
      </trkpt>
      <trkpt lat="44.18768" lon="6.7805">
        <ele>1645</ele>
        <time>2018-07-07T09:01:28.000Z</time>
      </trkpt>
      <trkpt lat="44.18774" lon="6.78051">
        <ele>1645</ele>
        <time>2018-07-07T09:01:33.000Z</time>
      </trkpt>
      <trkpt lat="44.18776" lon="6.78051">
        <ele>1644</ele>
        <time>2018-07-07T09:01:34.000Z</time>
      </trkpt>
      <trkpt lat="44.18784" lon="6.78053">
        <ele>1644</ele>
        <time>2018-07-07T09:01:39.000Z</time>
      </trkpt>
      <trkpt lat="44.18797" lon="6.78049">
        <ele>1642</ele>
        <time>2018-07-07T09:01:45.000Z</time>
      </trkpt>
      <trkpt lat="44.18815" lon="6.78036">
        <ele>1638</ele>
        <time>2018-07-07T09:01:55.000Z</time>
      </trkpt>
      <trkpt lat="44.1882" lon="6.78037">
        <ele>1638</ele>
        <time>2018-07-07T09:01:57.000Z</time>
      </trkpt>
      <trkpt lat="44.18826" lon="6.78041">
        <ele>1639</ele>
        <time>2018-07-07T09:02:00.000Z</time>
      </trkpt>
      <trkpt lat="44.18839" lon="6.78048">
        <ele>1631</ele>
        <time>2018-07-07T09:02:06.000Z</time>
      </trkpt>
      <trkpt lat="44.18852" lon="6.78063">
        <ele>1634</ele>
        <time>2018-07-07T09:02:14.000Z</time>
      </trkpt>
      <trkpt lat="44.18863" lon="6.78078">
        <ele>1634</ele>
        <time>2018-07-07T09:02:20.000Z</time>
      </trkpt>
      <trkpt lat="44.18871" lon="6.78105">
        <ele>1650</ele>
        <time>2018-07-07T09:02:27.000Z</time>
      </trkpt>
      <trkpt lat="44.18878" lon="6.78141">
        <ele>1652</ele>
        <time>2018-07-07T09:02:35.000Z</time>
      </trkpt>
      <trkpt lat="44.18886" lon="6.78163">
        <ele>1651</ele>
        <time>2018-07-07T09:02:40.000Z</time>
      </trkpt>
      <trkpt lat="44.18894" lon="6.78182">
        <ele>1661</ele>
        <time>2018-07-07T09:02:46.000Z</time>
      </trkpt>
      <trkpt lat="44.18896" lon="6.78188">
        <ele>1662</ele>
        <time>2018-07-07T09:02:48.000Z</time>
      </trkpt>
      <trkpt lat="44.18902" lon="6.78208">
        <ele>1665</ele>
        <time>2018-07-07T09:02:54.000Z</time>
      </trkpt>
      <trkpt lat="44.18903" lon="6.78211">
        <ele>1665</ele>
        <time>2018-07-07T09:02:55.000Z</time>
      </trkpt>
      <trkpt lat="44.18909" lon="6.78224">
        <ele>1665</ele>
        <time>2018-07-07T09:03:00.000Z</time>
      </trkpt>
      <trkpt lat="44.1891" lon="6.78226">
        <ele>1665</ele>
        <time>2018-07-07T09:03:01.000Z</time>
      </trkpt>
      <trkpt lat="44.18921" lon="6.78244">
        <ele>1651</ele>
        <time>2018-07-07T09:03:08.000Z</time>
      </trkpt>
      <trkpt lat="44.18926" lon="6.78259">
        <ele>1655</ele>
        <time>2018-07-07T09:03:14.000Z</time>
      </trkpt>
      <trkpt lat="44.18929" lon="6.78265">
        <ele>1654</ele>
        <time>2018-07-07T09:03:18.000Z</time>
      </trkpt>
      <trkpt lat="44.18931" lon="6.78272">
        <ele>1654</ele>
        <time>2018-07-07T09:03:21.000Z</time>
      </trkpt>
      <trkpt lat="44.18938" lon="6.78288">
        <ele>1655</ele>
        <time>2018-07-07T09:03:29.000Z</time>
      </trkpt>
      <trkpt lat="44.1894" lon="6.7829">
        <ele>1654</ele>
        <time>2018-07-07T09:03:30.000Z</time>
      </trkpt>
      <trkpt lat="44.18947" lon="6.78298">
        <ele>1654</ele>
        <time>2018-07-07T09:03:35.000Z</time>
      </trkpt>
      <trkpt lat="44.18956" lon="6.78312">
        <ele>1654</ele>
        <time>2018-07-07T09:03:41.000Z</time>
      </trkpt>
      <trkpt lat="44.18957" lon="6.78315">
        <ele>1654</ele>
        <time>2018-07-07T09:03:42.000Z</time>
      </trkpt>
      <trkpt lat="44.18964" lon="6.78338">
        <ele>1662</ele>
        <time>2018-07-07T09:03:49.000Z</time>
      </trkpt>
      <trkpt lat="44.18969" lon="6.78361">
        <ele>1662</ele>
        <time>2018-07-07T09:03:54.000Z</time>
      </trkpt>
      <trkpt lat="44.18973" lon="6.78376">
        <ele>1662</ele>
        <time>2018-07-07T09:03:57.000Z</time>
      </trkpt>
      <trkpt lat="44.18975" lon="6.78393">
        <ele>1661</ele>
        <time>2018-07-07T09:04:00.000Z</time>
      </trkpt>
      <trkpt lat="44.18975" lon="6.78399">
        <ele>1660</ele>
        <time>2018-07-07T09:04:01.000Z</time>
      </trkpt>
      <trkpt lat="44.18974" lon="6.7842">
        <ele>1659</ele>
        <time>2018-07-07T09:04:04.000Z</time>
      </trkpt>
      <trkpt lat="44.18973" lon="6.78438">
        <ele>1660</ele>
        <time>2018-07-07T09:04:06.000Z</time>
      </trkpt>
      <trkpt lat="44.18973" lon="6.78447">
        <ele>1660</ele>
        <time>2018-07-07T09:04:07.000Z</time>
      </trkpt>
      <trkpt lat="44.18971" lon="6.78455">
        <ele>1661</ele>
        <time>2018-07-07T09:04:08.000Z</time>
      </trkpt>
      <trkpt lat="44.18968" lon="6.78471">
        <ele>1660</ele>
        <time>2018-07-07T09:04:10.000Z</time>
      </trkpt>
      <trkpt lat="44.18966" lon="6.7848">
        <ele>1660</ele>
        <time>2018-07-07T09:04:11.000Z</time>
      </trkpt>
      <trkpt lat="44.18959" lon="6.78508">
        <ele>1656</ele>
        <time>2018-07-07T09:04:15.000Z</time>
      </trkpt>
      <trkpt lat="44.18952" lon="6.7853">
        <ele>1657</ele>
        <time>2018-07-07T09:04:18.000Z</time>
      </trkpt>
      <trkpt lat="44.18949" lon="6.78538">
        <ele>1657</ele>
        <time>2018-07-07T09:04:19.000Z</time>
      </trkpt>
      <trkpt lat="44.18947" lon="6.78548">
        <ele>1657</ele>
        <time>2018-07-07T09:04:20.000Z</time>
      </trkpt>
      <trkpt lat="44.18947" lon="6.78557">
        <ele>1657</ele>
        <time>2018-07-07T09:04:21.000Z</time>
      </trkpt>
      <trkpt lat="44.18947" lon="6.78573">
        <ele>1657</ele>
        <time>2018-07-07T09:04:23.000Z</time>
      </trkpt>
      <trkpt lat="44.18953" lon="6.78588">
        <ele>1651</ele>
        <time>2018-07-07T09:04:25.000Z</time>
      </trkpt>
      <trkpt lat="44.18956" lon="6.78596">
        <ele>1649</ele>
        <time>2018-07-07T09:04:26.000Z</time>
      </trkpt>
      <trkpt lat="44.18962" lon="6.78624">
        <ele>1647</ele>
        <time>2018-07-07T09:04:29.000Z</time>
      </trkpt>
      <trkpt lat="44.18963" lon="6.78633">
        <ele>1647</ele>
        <time>2018-07-07T09:04:30.000Z</time>
      </trkpt>
      <trkpt lat="44.18962" lon="6.7864">
        <ele>1647</ele>
        <time>2018-07-07T09:04:31.000Z</time>
      </trkpt>
      <trkpt lat="44.1896" lon="6.7865">
        <ele>1648</ele>
        <time>2018-07-07T09:04:33.000Z</time>
      </trkpt>
      <trkpt lat="44.18958" lon="6.78652">
        <ele>1648</ele>
        <time>2018-07-07T09:04:34.000Z</time>
      </trkpt>
      <trkpt lat="44.18958" lon="6.78654">
        <ele>1648</ele>
        <time>2018-07-07T09:04:35.000Z</time>
      </trkpt>
      <trkpt lat="44.18958" lon="6.78657">
        <ele>1648</ele>
        <time>2018-07-07T09:04:36.000Z</time>
      </trkpt>
      <trkpt lat="44.18959" lon="6.7866">
        <ele>1648</ele>
        <time>2018-07-07T09:04:37.000Z</time>
      </trkpt>
      <trkpt lat="44.18959" lon="6.78668">
        <ele>1648</ele>
        <time>2018-07-07T09:04:40.000Z</time>
      </trkpt>
      <trkpt lat="44.18959" lon="6.78678">
        <ele>1648</ele>
        <time>2018-07-07T09:04:44.000Z</time>
      </trkpt>
      <trkpt lat="44.18959" lon="6.78681">
        <ele>1648</ele>
        <time>2018-07-07T09:04:45.000Z</time>
      </trkpt>
      <trkpt lat="44.1896" lon="6.78688">
        <ele>1648</ele>
        <time>2018-07-07T09:04:48.000Z</time>
      </trkpt>
      <trkpt lat="44.1896" lon="6.78691">
        <ele>1647</ele>
        <time>2018-07-07T09:04:49.000Z</time>
      </trkpt>
      <trkpt lat="44.18961" lon="6.78697">
        <ele>1647</ele>
        <time>2018-07-07T09:04:51.000Z</time>
      </trkpt>
      <trkpt lat="44.18961" lon="6.78699">
        <ele>1647</ele>
        <time>2018-07-07T09:04:52.000Z</time>
      </trkpt>
      <trkpt lat="44.1896" lon="6.78704">
        <ele>1647</ele>
        <time>2018-07-07T09:04:54.000Z</time>
      </trkpt>
      <trkpt lat="44.18962" lon="6.78719">
        <ele>1647</ele>
        <time>2018-07-07T09:05:00.000Z</time>
      </trkpt>
      <trkpt lat="44.18962" lon="6.78723">
        <ele>1647</ele>
        <time>2018-07-07T09:05:02.000Z</time>
      </trkpt>
      <trkpt lat="44.18962" lon="6.78728">
        <ele>1647</ele>
        <time>2018-07-07T09:05:05.000Z</time>
      </trkpt>
      <trkpt lat="44.18962" lon="6.7873">
        <ele>1647</ele>
        <time>2018-07-07T09:05:06.000Z</time>
      </trkpt>
      <trkpt lat="44.18956" lon="6.78743">
        <ele>1649</ele>
        <time>2018-07-07T09:05:13.000Z</time>
      </trkpt>
      <trkpt lat="44.18956" lon="6.78744">
        <ele>1649</ele>
        <time>2018-07-07T09:05:14.000Z</time>
      </trkpt>
      <trkpt lat="44.18956" lon="6.78748">
        <ele>1649</ele>
        <time>2018-07-07T09:05:16.000Z</time>
      </trkpt>
      <trkpt lat="44.18956" lon="6.7875">
        <ele>1649</ele>
        <time>2018-07-07T09:05:17.000Z</time>
      </trkpt>
      <trkpt lat="44.18959" lon="6.78758">
        <ele>1650</ele>
        <time>2018-07-07T09:05:22.000Z</time>
      </trkpt>
      <trkpt lat="44.1896" lon="6.7876">
        <ele>1649</ele>
        <time>2018-07-07T09:05:23.000Z</time>
      </trkpt>
      <trkpt lat="44.18965" lon="6.78769">
        <ele>1648</ele>
        <time>2018-07-07T09:05:27.000Z</time>
      </trkpt>
      <trkpt lat="44.18969" lon="6.78781">
        <ele>1647</ele>
        <time>2018-07-07T09:05:32.000Z</time>
      </trkpt>
      <trkpt lat="44.1897" lon="6.78783">
        <ele>1647</ele>
        <time>2018-07-07T09:05:33.000Z</time>
      </trkpt>
      <trkpt lat="44.18967" lon="6.78799">
        <ele>1649</ele>
        <time>2018-07-07T09:05:37.000Z</time>
      </trkpt>
      <trkpt lat="44.18966" lon="6.78803">
        <ele>1649</ele>
        <time>2018-07-07T09:05:38.000Z</time>
      </trkpt>
      <trkpt lat="44.18964" lon="6.78812">
        <ele>1649</ele>
        <time>2018-07-07T09:05:40.000Z</time>
      </trkpt>
      <trkpt lat="44.18963" lon="6.78818">
        <ele>1650</ele>
        <time>2018-07-07T09:05:41.000Z</time>
      </trkpt>
      <trkpt lat="44.18961" lon="6.78822">
        <ele>1650</ele>
        <time>2018-07-07T09:05:42.000Z</time>
      </trkpt>
      <trkpt lat="44.1896" lon="6.78829">
        <ele>1651</ele>
        <time>2018-07-07T09:05:44.000Z</time>
      </trkpt>
      <trkpt lat="44.18962" lon="6.78835">
        <ele>1653</ele>
        <time>2018-07-07T09:05:46.000Z</time>
      </trkpt>
      <trkpt lat="44.18965" lon="6.7884">
        <ele>1652</ele>
        <time>2018-07-07T09:05:48.000Z</time>
      </trkpt>
      <trkpt lat="44.18974" lon="6.78855">
        <ele>1651</ele>
        <time>2018-07-07T09:05:52.000Z</time>
      </trkpt>
      <trkpt lat="44.18981" lon="6.78869">
        <ele>1651</ele>
        <time>2018-07-07T09:05:55.000Z</time>
      </trkpt>
      <trkpt lat="44.18983" lon="6.78875">
        <ele>1651</ele>
        <time>2018-07-07T09:05:56.000Z</time>
      </trkpt>
      <trkpt lat="44.18982" lon="6.78879">
        <ele>1651</ele>
        <time>2018-07-07T09:05:57.000Z</time>
      </trkpt>
      <trkpt lat="44.18982" lon="6.78881">
        <ele>1652</ele>
        <time>2018-07-07T09:05:58.000Z</time>
      </trkpt>
      <trkpt lat="44.18981" lon="6.78882">
        <ele>1652</ele>
        <time>2018-07-07T09:06:00.000Z</time>
      </trkpt>
      <trkpt lat="44.1898" lon="6.78887">
        <ele>1652</ele>
        <time>2018-07-07T09:06:06.000Z</time>
      </trkpt>
      <trkpt lat="44.18979" lon="6.78887">
        <ele>1652</ele>
        <time>2018-07-07T09:06:08.000Z</time>
      </trkpt>
      <trkpt lat="44.18978" lon="6.78888">
        <ele>1652</ele>
        <time>2018-07-07T09:06:09.000Z</time>
      </trkpt>
      <trkpt lat="44.18978" lon="6.78888">
        <ele>1652</ele>
        <time>2018-07-07T09:06:10.000Z</time>
      </trkpt>
      <trkpt lat="44.18976" lon="6.7889">
        <ele>1653</ele>
        <time>2018-07-07T09:06:13.000Z</time>
      </trkpt>
      <trkpt lat="44.18975" lon="6.78892">
        <ele>1653</ele>
        <time>2018-07-07T09:06:17.000Z</time>
      </trkpt>
      <trkpt lat="44.18974" lon="6.78893">
        <ele>1653</ele>
        <time>2018-07-07T09:06:20.000Z</time>
      </trkpt>
      <trkpt lat="44.18973" lon="6.78895">
        <ele>1653</ele>
        <time>2018-07-07T09:06:23.000Z</time>
      </trkpt>
      <trkpt lat="44.18971" lon="6.78897">
        <ele>1653</ele>
        <time>2018-07-07T09:06:27.000Z</time>
      </trkpt>
      <trkpt lat="44.18971" lon="6.78898">
        <ele>1654</ele>
        <time>2018-07-07T09:06:29.000Z</time>
      </trkpt>
      <trkpt lat="44.18969" lon="6.78902">
        <ele>1654</ele>
        <time>2018-07-07T09:06:35.000Z</time>
      </trkpt>
      <trkpt lat="44.18968" lon="6.78905">
        <ele>1654</ele>
        <time>2018-07-07T09:06:40.000Z</time>
      </trkpt>
      <trkpt lat="44.18968" lon="6.78906">
        <ele>1654</ele>
        <time>2018-07-07T09:06:42.000Z</time>
      </trkpt>
      <trkpt lat="44.18968" lon="6.78907">
        <ele>1654</ele>
        <time>2018-07-07T09:06:49.000Z</time>
      </trkpt>
      <trkpt lat="44.18968" lon="6.78908">
        <ele>1654</ele>
        <time>2018-07-07T09:06:54.000Z</time>
      </trkpt>
      <trkpt lat="44.18967" lon="6.78912">
        <ele>1654</ele>
        <time>2018-07-07T09:07:01.000Z</time>
      </trkpt>
      <trkpt lat="44.18967" lon="6.78913">
        <ele>1655</ele>
        <time>2018-07-07T09:07:02.000Z</time>
      </trkpt>
      <trkpt lat="44.18965" lon="6.78916">
        <ele>1655</ele>
        <time>2018-07-07T09:07:07.000Z</time>
      </trkpt>
      <trkpt lat="44.18965" lon="6.78918">
        <ele>1660</ele>
        <time>2018-07-07T09:07:10.000Z</time>
      </trkpt>
      <trkpt lat="44.18963" lon="6.78921">
        <ele>1661</ele>
        <time>2018-07-07T09:07:14.000Z</time>
      </trkpt>
      <trkpt lat="44.18962" lon="6.78924">
        <ele>1661</ele>
        <time>2018-07-07T09:07:18.000Z</time>
      </trkpt>
      <trkpt lat="44.18961" lon="6.78926">
        <ele>1661</ele>
        <time>2018-07-07T09:07:20.000Z</time>
      </trkpt>
      <trkpt lat="44.1896" lon="6.78932">
        <ele>1662</ele>
        <time>2018-07-07T09:07:26.000Z</time>
      </trkpt>
      <trkpt lat="44.18962" lon="6.78937">
        <ele>1662</ele>
        <time>2018-07-07T09:07:32.000Z</time>
      </trkpt>
      <trkpt lat="44.18962" lon="6.78938">
        <ele>1662</ele>
        <time>2018-07-07T09:07:33.000Z</time>
      </trkpt>
      <trkpt lat="44.18963" lon="6.78942">
        <ele>1662</ele>
        <time>2018-07-07T09:07:39.000Z</time>
      </trkpt>
      <trkpt lat="44.18963" lon="6.78944">
        <ele>1662</ele>
        <time>2018-07-07T09:07:41.000Z</time>
      </trkpt>
      <trkpt lat="44.18962" lon="6.78947">
        <ele>1662</ele>
        <time>2018-07-07T09:07:45.000Z</time>
      </trkpt>
      <trkpt lat="44.18961" lon="6.78951">
        <ele>1663</ele>
        <time>2018-07-07T09:07:49.000Z</time>
      </trkpt>
      <trkpt lat="44.18961" lon="6.78953">
        <ele>1663</ele>
        <time>2018-07-07T09:07:52.000Z</time>
      </trkpt>
      <trkpt lat="44.18961" lon="6.78956">
        <ele>1663</ele>
        <time>2018-07-07T09:07:56.000Z</time>
      </trkpt>
      <trkpt lat="44.18961" lon="6.78957">
        <ele>1663</ele>
        <time>2018-07-07T09:07:57.000Z</time>
      </trkpt>
      <trkpt lat="44.18961" lon="6.78961">
        <ele>1663</ele>
        <time>2018-07-07T09:08:02.000Z</time>
      </trkpt>
      <trkpt lat="44.18961" lon="6.78963">
        <ele>1663</ele>
        <time>2018-07-07T09:08:04.000Z</time>
      </trkpt>
      <trkpt lat="44.18963" lon="6.78968">
        <ele>1663</ele>
        <time>2018-07-07T09:08:08.000Z</time>
      </trkpt>
      <trkpt lat="44.18964" lon="6.78973">
        <ele>1663</ele>
        <time>2018-07-07T09:08:12.000Z</time>
      </trkpt>
      <trkpt lat="44.18966" lon="6.7898">
        <ele>1663</ele>
        <time>2018-07-07T09:08:19.000Z</time>
      </trkpt>
      <trkpt lat="44.18964" lon="6.78985">
        <ele>1664</ele>
        <time>2018-07-07T09:08:23.000Z</time>
      </trkpt>
      <trkpt lat="44.18962" lon="6.78992">
        <ele>1664</ele>
        <time>2018-07-07T09:08:28.000Z</time>
      </trkpt>
      <trkpt lat="44.18961" lon="6.78994">
        <ele>1665</ele>
        <time>2018-07-07T09:08:29.000Z</time>
      </trkpt>
      <trkpt lat="44.18961" lon="6.79003">
        <ele>1669</ele>
        <time>2018-07-07T09:08:37.000Z</time>
      </trkpt>
      <trkpt lat="44.18962" lon="6.79004">
        <ele>1669</ele>
        <time>2018-07-07T09:08:42.000Z</time>
      </trkpt>
      <trkpt lat="44.18963" lon="6.79005">
        <ele>1669</ele>
        <time>2018-07-07T09:08:47.000Z</time>
      </trkpt>
      <trkpt lat="44.18963" lon="6.79007">
        <ele>1669</ele>
        <time>2018-07-07T09:08:48.000Z</time>
      </trkpt>
      <trkpt lat="44.18965" lon="6.79017">
        <ele>1669</ele>
        <time>2018-07-07T09:08:53.000Z</time>
      </trkpt>
      <trkpt lat="44.18965" lon="6.79025">
        <ele>1669</ele>
        <time>2018-07-07T09:08:55.000Z</time>
      </trkpt>
      <trkpt lat="44.18966" lon="6.79047">
        <ele>1669</ele>
        <time>2018-07-07T09:09:00.000Z</time>
      </trkpt>
      <trkpt lat="44.18966" lon="6.7905">
        <ele>1670</ele>
        <time>2018-07-07T09:09:01.000Z</time>
      </trkpt>
      <trkpt lat="44.18966" lon="6.79057">
        <ele>1670</ele>
        <time>2018-07-07T09:09:04.000Z</time>
      </trkpt>
      <trkpt lat="44.18967" lon="6.79062">
        <ele>1669</ele>
        <time>2018-07-07T09:09:06.000Z</time>
      </trkpt>
      <trkpt lat="44.18967" lon="6.79065">
        <ele>1669</ele>
        <time>2018-07-07T09:09:08.000Z</time>
      </trkpt>
      <trkpt lat="44.18967" lon="6.79069">
        <ele>1669</ele>
        <time>2018-07-07T09:09:10.000Z</time>
      </trkpt>
      <trkpt lat="44.18966" lon="6.79071">
        <ele>1669</ele>
        <time>2018-07-07T09:09:11.000Z</time>
      </trkpt>
      <trkpt lat="44.18966" lon="6.79073">
        <ele>1669</ele>
        <time>2018-07-07T09:09:12.000Z</time>
      </trkpt>
      <trkpt lat="44.18962" lon="6.79084">
        <ele>1670</ele>
        <time>2018-07-07T09:09:17.000Z</time>
      </trkpt>
      <trkpt lat="44.18956" lon="6.791">
        <ele>1671</ele>
        <time>2018-07-07T09:09:22.000Z</time>
      </trkpt>
      <trkpt lat="44.18952" lon="6.79119">
        <ele>1672</ele>
        <time>2018-07-07T09:09:26.000Z</time>
      </trkpt>
      <trkpt lat="44.18951" lon="6.79122">
        <ele>1672</ele>
        <time>2018-07-07T09:09:27.000Z</time>
      </trkpt>
      <trkpt lat="44.1895" lon="6.79126">
        <ele>1672</ele>
        <time>2018-07-07T09:09:29.000Z</time>
      </trkpt>
      <trkpt lat="44.1895" lon="6.79131">
        <ele>1672</ele>
        <time>2018-07-07T09:09:31.000Z</time>
      </trkpt>
      <trkpt lat="44.18949" lon="6.79137">
        <ele>1672</ele>
        <time>2018-07-07T09:09:33.000Z</time>
      </trkpt>
      <trkpt lat="44.18949" lon="6.79142">
        <ele>1672</ele>
        <time>2018-07-07T09:09:35.000Z</time>
      </trkpt>
      <trkpt lat="44.18949" lon="6.79144">
        <ele>1672</ele>
        <time>2018-07-07T09:09:36.000Z</time>
      </trkpt>
      <trkpt lat="44.1895" lon="6.79146">
        <ele>1671</ele>
        <time>2018-07-07T09:09:37.000Z</time>
      </trkpt>
      <trkpt lat="44.18951" lon="6.79148">
        <ele>1671</ele>
        <time>2018-07-07T09:09:38.000Z</time>
      </trkpt>
      <trkpt lat="44.18952" lon="6.79153">
        <ele>1671</ele>
        <time>2018-07-07T09:09:40.000Z</time>
      </trkpt>
      <trkpt lat="44.18952" lon="6.79155">
        <ele>1671</ele>
        <time>2018-07-07T09:09:41.000Z</time>
      </trkpt>
      <trkpt lat="44.1895" lon="6.79162">
        <ele>1671</ele>
        <time>2018-07-07T09:09:44.000Z</time>
      </trkpt>
      <trkpt lat="44.18948" lon="6.79167">
        <ele>1671</ele>
        <time>2018-07-07T09:09:46.000Z</time>
      </trkpt>
      <trkpt lat="44.18948" lon="6.79169">
        <ele>1671</ele>
        <time>2018-07-07T09:09:47.000Z</time>
      </trkpt>
      <trkpt lat="44.18946" lon="6.79173">
        <ele>1672</ele>
        <time>2018-07-07T09:09:49.000Z</time>
      </trkpt>
      <trkpt lat="44.18942" lon="6.79179">
        <ele>1672</ele>
        <time>2018-07-07T09:09:53.000Z</time>
      </trkpt>
      <trkpt lat="44.18939" lon="6.79182">
        <ele>1673</ele>
        <time>2018-07-07T09:09:55.000Z</time>
      </trkpt>
      <trkpt lat="44.18937" lon="6.79185">
        <ele>1673</ele>
        <time>2018-07-07T09:09:57.000Z</time>
      </trkpt>
      <trkpt lat="44.18937" lon="6.79186">
        <ele>1673</ele>
        <time>2018-07-07T09:09:59.000Z</time>
      </trkpt>
      <trkpt lat="44.18937" lon="6.79187">
        <ele>1673</ele>
        <time>2018-07-07T09:10:02.000Z</time>
      </trkpt>
      <trkpt lat="44.18937" lon="6.79189">
        <ele>1672</ele>
        <time>2018-07-07T09:10:05.000Z</time>
      </trkpt>
      <trkpt lat="44.18938" lon="6.79197">
        <ele>1672</ele>
        <time>2018-07-07T09:10:11.000Z</time>
      </trkpt>
      <trkpt lat="44.18938" lon="6.792">
        <ele>1671</ele>
        <time>2018-07-07T09:10:14.000Z</time>
      </trkpt>
      <trkpt lat="44.1894" lon="6.79207">
        <ele>1671</ele>
        <time>2018-07-07T09:10:21.000Z</time>
      </trkpt>
      <trkpt lat="44.18939" lon="6.79213">
        <ele>1671</ele>
        <time>2018-07-07T09:10:28.000Z</time>
      </trkpt>
      <trkpt lat="44.18939" lon="6.79214">
        <ele>1671</ele>
        <time>2018-07-07T09:10:29.000Z</time>
      </trkpt>
      <trkpt lat="44.18939" lon="6.7922">
        <ele>1671</ele>
        <time>2018-07-07T09:10:35.000Z</time>
      </trkpt>
      <trkpt lat="44.18939" lon="6.79219">
        <ele>1671</ele>
        <time>2018-07-07T09:10:36.000Z</time>
      </trkpt>
      <trkpt lat="44.18939" lon="6.79226">
        <ele>1671</ele>
        <time>2018-07-07T09:10:43.000Z</time>
      </trkpt>
      <trkpt lat="44.18941" lon="6.79232">
        <ele>1671</ele>
        <time>2018-07-07T09:10:47.000Z</time>
      </trkpt>
      <trkpt lat="44.18941" lon="6.79234">
        <ele>1671</ele>
        <time>2018-07-07T09:10:48.000Z</time>
      </trkpt>
      <trkpt lat="44.1894" lon="6.79236">
        <ele>1671</ele>
        <time>2018-07-07T09:10:49.000Z</time>
      </trkpt>
      <trkpt lat="44.18938" lon="6.79243">
        <ele>1672</ele>
        <time>2018-07-07T09:10:55.000Z</time>
      </trkpt>
      <trkpt lat="44.18937" lon="6.79253">
        <ele>1684</ele>
        <time>2018-07-07T09:11:02.000Z</time>
      </trkpt>
      <trkpt lat="44.18938" lon="6.79258">
        <ele>1685</ele>
        <time>2018-07-07T09:11:06.000Z</time>
      </trkpt>
      <trkpt lat="44.18939" lon="6.7926">
        <ele>1686</ele>
        <time>2018-07-07T09:11:07.000Z</time>
      </trkpt>
      <trkpt lat="44.18939" lon="6.79263">
        <ele>1686</ele>
        <time>2018-07-07T09:11:09.000Z</time>
      </trkpt>
      <trkpt lat="44.18937" lon="6.79266">
        <ele>1687</ele>
        <time>2018-07-07T09:11:12.000Z</time>
      </trkpt>
      <trkpt lat="44.18937" lon="6.79268">
        <ele>1688</ele>
        <time>2018-07-07T09:11:15.000Z</time>
      </trkpt>
      <trkpt lat="44.18937" lon="6.79269">
        <ele>1688</ele>
        <time>2018-07-07T09:11:21.000Z</time>
      </trkpt>
      <trkpt lat="44.18938" lon="6.7927">
        <ele>1688</ele>
        <time>2018-07-07T09:11:22.000Z</time>
      </trkpt>
      <trkpt lat="44.18938" lon="6.79271">
        <ele>1689</ele>
        <time>2018-07-07T09:11:23.000Z</time>
      </trkpt>
      <trkpt lat="44.18939" lon="6.79276">
        <ele>1690</ele>
        <time>2018-07-07T09:11:27.000Z</time>
      </trkpt>
      <trkpt lat="44.18939" lon="6.79277">
        <ele>1690</ele>
        <time>2018-07-07T09:11:32.000Z</time>
      </trkpt>
      <trkpt lat="44.1894" lon="6.79278">
        <ele>1691</ele>
        <time>2018-07-07T09:11:34.000Z</time>
      </trkpt>
      <trkpt lat="44.18941" lon="6.79279">
        <ele>1691</ele>
        <time>2018-07-07T09:11:38.000Z</time>
      </trkpt>
      <trkpt lat="44.18944" lon="6.79279">
        <ele>1691</ele>
        <time>2018-07-07T09:11:44.000Z</time>
      </trkpt>
      <trkpt lat="44.18945" lon="6.7928">
        <ele>1691</ele>
        <time>2018-07-07T09:11:45.000Z</time>
      </trkpt>
      <trkpt lat="44.18948" lon="6.7928">
        <ele>1691</ele>
        <time>2018-07-07T09:11:49.000Z</time>
      </trkpt>
      <trkpt lat="44.18949" lon="6.79281">
        <ele>1691</ele>
        <time>2018-07-07T09:11:53.000Z</time>
      </trkpt>
      <trkpt lat="44.18949" lon="6.79281">
        <ele>1691</ele>
        <time>2018-07-07T09:11:54.000Z</time>
      </trkpt>
      <trkpt lat="44.1895" lon="6.79282">
        <ele>1691</ele>
        <time>2018-07-07T09:11:58.000Z</time>
      </trkpt>
      <trkpt lat="44.18955" lon="6.79285">
        <ele>1691</ele>
        <time>2018-07-07T09:12:02.000Z</time>
      </trkpt>
      <trkpt lat="44.18958" lon="6.79288">
        <ele>1691</ele>
        <time>2018-07-07T09:12:04.000Z</time>
      </trkpt>
      <trkpt lat="44.18957" lon="6.79289">
        <ele>1692</ele>
        <time>2018-07-07T09:12:06.000Z</time>
      </trkpt>
      <trkpt lat="44.18958" lon="6.7929">
        <ele>1692</ele>
        <time>2018-07-07T09:12:08.000Z</time>
      </trkpt>
      <trkpt lat="44.18958" lon="6.79292">
        <ele>1692</ele>
        <time>2018-07-07T09:12:10.000Z</time>
      </trkpt>
      <trkpt lat="44.18961" lon="6.79297">
        <ele>1693</ele>
        <time>2018-07-07T09:12:19.000Z</time>
      </trkpt>
      <trkpt lat="44.18962" lon="6.79298">
        <ele>1693</ele>
        <time>2018-07-07T09:12:24.000Z</time>
      </trkpt>
      <trkpt lat="44.18963" lon="6.79298">
        <ele>1693</ele>
        <time>2018-07-07T09:12:26.000Z</time>
      </trkpt>
      <trkpt lat="44.18964" lon="6.79299">
        <ele>1693</ele>
        <time>2018-07-07T09:12:29.000Z</time>
      </trkpt>
      <trkpt lat="44.18967" lon="6.79299">
        <ele>1692</ele>
        <time>2018-07-07T09:12:34.000Z</time>
      </trkpt>
      <trkpt lat="44.18968" lon="6.79299">
        <ele>1692</ele>
        <time>2018-07-07T09:12:35.000Z</time>
      </trkpt>
      <trkpt lat="44.18972" lon="6.79301">
        <ele>1692</ele>
        <time>2018-07-07T09:12:40.000Z</time>
      </trkpt>
      <trkpt lat="44.18974" lon="6.79303">
        <ele>1692</ele>
        <time>2018-07-07T09:12:43.000Z</time>
      </trkpt>
      <trkpt lat="44.18977" lon="6.79305">
        <ele>1691</ele>
        <time>2018-07-07T09:12:47.000Z</time>
      </trkpt>
      <trkpt lat="44.1898" lon="6.79306">
        <ele>1691</ele>
        <time>2018-07-07T09:12:50.000Z</time>
      </trkpt>
      <trkpt lat="44.18984" lon="6.79307">
        <ele>1691</ele>
        <time>2018-07-07T09:12:56.000Z</time>
      </trkpt>
      <trkpt lat="44.18985" lon="6.79308">
        <ele>1691</ele>
        <time>2018-07-07T09:12:58.000Z</time>
      </trkpt>
      <trkpt lat="44.18989" lon="6.79309">
        <ele>1690</ele>
        <time>2018-07-07T09:13:03.000Z</time>
      </trkpt>
      <trkpt lat="44.18991" lon="6.7931">
        <ele>1690</ele>
        <time>2018-07-07T09:13:06.000Z</time>
      </trkpt>
      <trkpt lat="44.18993" lon="6.79311">
        <ele>1690</ele>
        <time>2018-07-07T09:13:10.000Z</time>
      </trkpt>
      <trkpt lat="44.18997" lon="6.79313">
        <ele>1690</ele>
        <time>2018-07-07T09:13:15.000Z</time>
      </trkpt>
      <trkpt lat="44.19001" lon="6.79314">
        <ele>1677</ele>
        <time>2018-07-07T09:13:19.000Z</time>
      </trkpt>
      <trkpt lat="44.19003" lon="6.79313">
        <ele>1677</ele>
        <time>2018-07-07T09:13:24.000Z</time>
      </trkpt>
      <trkpt lat="44.19003" lon="6.79313">
        <ele>1677</ele>
        <time>2018-07-07T09:13:27.000Z</time>
      </trkpt>
      <trkpt lat="44.19003" lon="6.79313">
        <ele>1677</ele>
        <time>2018-07-07T09:13:30.000Z</time>
      </trkpt>
      <trkpt lat="44.19004" lon="6.79312">
        <ele>1677</ele>
        <time>2018-07-07T09:13:33.000Z</time>
      </trkpt>
      <trkpt lat="44.19008" lon="6.79313">
        <ele>1676</ele>
        <time>2018-07-07T09:13:36.000Z</time>
      </trkpt>
      <trkpt lat="44.19016" lon="6.79313">
        <ele>1675</ele>
        <time>2018-07-07T09:13:42.000Z</time>
      </trkpt>
      <trkpt lat="44.19018" lon="6.79314">
        <ele>1675</ele>
        <time>2018-07-07T09:13:43.000Z</time>
      </trkpt>
      <trkpt lat="44.1902" lon="6.79317">
        <ele>1675</ele>
        <time>2018-07-07T09:13:45.000Z</time>
      </trkpt>
      <trkpt lat="44.19021" lon="6.79319">
        <ele>1676</ele>
        <time>2018-07-07T09:13:46.000Z</time>
      </trkpt>
      <trkpt lat="44.19022" lon="6.79323">
        <ele>1676</ele>
        <time>2018-07-07T09:13:49.000Z</time>
      </trkpt>
      <trkpt lat="44.19022" lon="6.79324">
        <ele>1676</ele>
        <time>2018-07-07T09:13:50.000Z</time>
      </trkpt>
      <trkpt lat="44.19023" lon="6.79328">
        <ele>1677</ele>
        <time>2018-07-07T09:13:52.000Z</time>
      </trkpt>
      <trkpt lat="44.19024" lon="6.79331">
        <ele>1677</ele>
        <time>2018-07-07T09:13:54.000Z</time>
      </trkpt>
      <trkpt lat="44.19025" lon="6.79331">
        <ele>1677</ele>
        <time>2018-07-07T09:13:55.000Z</time>
      </trkpt>
      <trkpt lat="44.19026" lon="6.79332">
        <ele>1676</ele>
        <time>2018-07-07T09:13:56.000Z</time>
      </trkpt>
      <trkpt lat="44.19028" lon="6.79338">
        <ele>1698</ele>
        <time>2018-07-07T09:14:00.000Z</time>
      </trkpt>
      <trkpt lat="44.19029" lon="6.79339">
        <ele>1698</ele>
        <time>2018-07-07T09:14:01.000Z</time>
      </trkpt>
      <trkpt lat="44.1903" lon="6.7934">
        <ele>1698</ele>
        <time>2018-07-07T09:14:02.000Z</time>
      </trkpt>
      <trkpt lat="44.19033" lon="6.79346">
        <ele>1699</ele>
        <time>2018-07-07T09:14:05.000Z</time>
      </trkpt>
      <trkpt lat="44.19034" lon="6.79349">
        <ele>1700</ele>
        <time>2018-07-07T09:14:07.000Z</time>
      </trkpt>
      <trkpt lat="44.19034" lon="6.7935">
        <ele>1700</ele>
        <time>2018-07-07T09:14:10.000Z</time>
      </trkpt>
      <trkpt lat="44.19034" lon="6.79352">
        <ele>1700</ele>
        <time>2018-07-07T09:14:11.000Z</time>
      </trkpt>
      <trkpt lat="44.19035" lon="6.79353">
        <ele>1701</ele>
        <time>2018-07-07T09:14:12.000Z</time>
      </trkpt>
      <trkpt lat="44.19039" lon="6.79357">
        <ele>1701</ele>
        <time>2018-07-07T09:14:17.000Z</time>
      </trkpt>
      <trkpt lat="44.19044" lon="6.79359">
        <ele>1701</ele>
        <time>2018-07-07T09:14:21.000Z</time>
      </trkpt>
      <trkpt lat="44.19046" lon="6.79358">
        <ele>1700</ele>
        <time>2018-07-07T09:14:22.000Z</time>
      </trkpt>
      <trkpt lat="44.19057" lon="6.79359">
        <ele>1699</ele>
        <time>2018-07-07T09:14:25.000Z</time>
      </trkpt>
      <trkpt lat="44.1906" lon="6.7936">
        <ele>1698</ele>
        <time>2018-07-07T09:14:26.000Z</time>
      </trkpt>
      <trkpt lat="44.19063" lon="6.79361">
        <ele>1698</ele>
        <time>2018-07-07T09:14:28.000Z</time>
      </trkpt>
      <trkpt lat="44.19063" lon="6.79361">
        <ele>1698</ele>
        <time>2018-07-07T09:14:29.000Z</time>
      </trkpt>
      <trkpt lat="44.19065" lon="6.79362">
        <ele>1698</ele>
        <time>2018-07-07T09:14:36.000Z</time>
      </trkpt>
      <trkpt lat="44.1907" lon="6.79366">
        <ele>1699</ele>
        <time>2018-07-07T09:14:44.000Z</time>
      </trkpt>
      <trkpt lat="44.19071" lon="6.79367">
        <ele>1699</ele>
        <time>2018-07-07T09:14:45.000Z</time>
      </trkpt>
      <trkpt lat="44.19071" lon="6.79369">
        <ele>1700</ele>
        <time>2018-07-07T09:14:50.000Z</time>
      </trkpt>
      <trkpt lat="44.19071" lon="6.79369">
        <ele>1700</ele>
        <time>2018-07-07T09:14:51.000Z</time>
      </trkpt>
      <trkpt lat="44.19072" lon="6.79373">
        <ele>1701</ele>
        <time>2018-07-07T09:14:57.000Z</time>
      </trkpt>
      <trkpt lat="44.19072" lon="6.79373">
        <ele>1701</ele>
        <time>2018-07-07T09:14:59.000Z</time>
      </trkpt>
      <trkpt lat="44.19074" lon="6.79376">
        <ele>1702</ele>
        <time>2018-07-07T09:15:03.000Z</time>
      </trkpt>
      <trkpt lat="44.19074" lon="6.79379">
        <ele>1703</ele>
        <time>2018-07-07T09:15:08.000Z</time>
      </trkpt>
      <trkpt lat="44.19075" lon="6.7938">
        <ele>1703</ele>
        <time>2018-07-07T09:15:10.000Z</time>
      </trkpt>
      <trkpt lat="44.19075" lon="6.79383">
        <ele>1704</ele>
        <time>2018-07-07T09:15:16.000Z</time>
      </trkpt>
      <trkpt lat="44.19075" lon="6.79384">
        <ele>1704</ele>
        <time>2018-07-07T09:15:17.000Z</time>
      </trkpt>
      <trkpt lat="44.19075" lon="6.79387">
        <ele>1705</ele>
        <time>2018-07-07T09:15:22.000Z</time>
      </trkpt>
      <trkpt lat="44.19076" lon="6.79389">
        <ele>1705</ele>
        <time>2018-07-07T09:15:25.000Z</time>
      </trkpt>
      <trkpt lat="44.19077" lon="6.79391">
        <ele>1705</ele>
        <time>2018-07-07T09:15:28.000Z</time>
      </trkpt>
      <trkpt lat="44.19077" lon="6.79395">
        <ele>1706</ele>
        <time>2018-07-07T09:15:33.000Z</time>
      </trkpt>
      <trkpt lat="44.19078" lon="6.79399">
        <ele>1707</ele>
        <time>2018-07-07T09:15:36.000Z</time>
      </trkpt>
      <trkpt lat="44.19079" lon="6.79402">
        <ele>1708</ele>
        <time>2018-07-07T09:15:39.000Z</time>
      </trkpt>
      <trkpt lat="44.19079" lon="6.79405">
        <ele>1708</ele>
        <time>2018-07-07T09:15:42.000Z</time>
      </trkpt>
      <trkpt lat="44.19079" lon="6.79407">
        <ele>1709</ele>
        <time>2018-07-07T09:15:44.000Z</time>
      </trkpt>
      <trkpt lat="44.19081" lon="6.79414">
        <ele>1710</ele>
        <time>2018-07-07T09:15:50.000Z</time>
      </trkpt>
      <trkpt lat="44.19087" lon="6.79419">
        <ele>1713</ele>
        <time>2018-07-07T09:15:56.000Z</time>
      </trkpt>
      <trkpt lat="44.19097" lon="6.79423">
        <ele>1717</ele>
        <time>2018-07-07T09:16:05.000Z</time>
      </trkpt>
      <trkpt lat="44.19102" lon="6.79426">
        <ele>1719</ele>
        <time>2018-07-07T09:16:12.000Z</time>
      </trkpt>
      <trkpt lat="44.19103" lon="6.79426">
        <ele>1719</ele>
        <time>2018-07-07T09:16:13.000Z</time>
      </trkpt>
      <trkpt lat="44.19105" lon="6.79429">
        <ele>1720</ele>
        <time>2018-07-07T09:16:17.000Z</time>
      </trkpt>
      <trkpt lat="44.19106" lon="6.79431">
        <ele>1721</ele>
        <time>2018-07-07T09:16:19.000Z</time>
      </trkpt>
      <trkpt lat="44.19107" lon="6.79432">
        <ele>1721</ele>
        <time>2018-07-07T09:16:20.000Z</time>
      </trkpt>
      <trkpt lat="44.1911" lon="6.79435">
        <ele>1722</ele>
        <time>2018-07-07T09:16:26.000Z</time>
      </trkpt>
      <trkpt lat="44.19111" lon="6.79436">
        <ele>1722</ele>
        <time>2018-07-07T09:16:27.000Z</time>
      </trkpt>
      <trkpt lat="44.19115" lon="6.7944">
        <ele>1723</ele>
        <time>2018-07-07T09:16:34.000Z</time>
      </trkpt>
      <trkpt lat="44.19117" lon="6.79443">
        <ele>1724</ele>
        <time>2018-07-07T09:16:39.000Z</time>
      </trkpt>
      <trkpt lat="44.19119" lon="6.7945">
        <ele>1726</ele>
        <time>2018-07-07T09:16:46.000Z</time>
      </trkpt>
      <trkpt lat="44.19123" lon="6.79456">
        <ele>1728</ele>
        <time>2018-07-07T09:16:54.000Z</time>
      </trkpt>
      <trkpt lat="44.19124" lon="6.79457">
        <ele>1728</ele>
        <time>2018-07-07T09:16:55.000Z</time>
      </trkpt>
      <trkpt lat="44.19127" lon="6.7946">
        <ele>1729</ele>
        <time>2018-07-07T09:17:00.000Z</time>
      </trkpt>
      <trkpt lat="44.19131" lon="6.79462">
        <ele>1728</ele>
        <time>2018-07-07T09:17:05.000Z</time>
      </trkpt>
      <trkpt lat="44.19133" lon="6.79463">
        <ele>1728</ele>
        <time>2018-07-07T09:17:08.000Z</time>
      </trkpt>
      <trkpt lat="44.19136" lon="6.79465">
        <ele>1729</ele>
        <time>2018-07-07T09:17:13.000Z</time>
      </trkpt>
      <trkpt lat="44.19139" lon="6.79467">
        <ele>1729</ele>
        <time>2018-07-07T09:17:17.000Z</time>
      </trkpt>
      <trkpt lat="44.1914" lon="6.79468">
        <ele>1729</ele>
        <time>2018-07-07T09:17:18.000Z</time>
      </trkpt>
      <trkpt lat="44.19141" lon="6.79475">
        <ele>1732</ele>
        <time>2018-07-07T09:17:24.000Z</time>
      </trkpt>
      <trkpt lat="44.19141" lon="6.79477">
        <ele>1733</ele>
        <time>2018-07-07T09:17:27.000Z</time>
      </trkpt>
      <trkpt lat="44.1914" lon="6.79478">
        <ele>1733</ele>
        <time>2018-07-07T09:17:31.000Z</time>
      </trkpt>
      <trkpt lat="44.1914" lon="6.79477">
        <ele>1733</ele>
        <time>2018-07-07T09:17:37.000Z</time>
      </trkpt>
      <trkpt lat="44.1914" lon="6.79475">
        <ele>1732</ele>
        <time>2018-07-07T09:17:45.000Z</time>
      </trkpt>
      <trkpt lat="44.19142" lon="6.79476">
        <ele>1733</ele>
        <time>2018-07-07T09:17:58.000Z</time>
      </trkpt>
      <trkpt lat="44.19142" lon="6.79477">
        <ele>1733</ele>
        <time>2018-07-07T09:18:08.000Z</time>
      </trkpt>
      <trkpt lat="44.19144" lon="6.79479">
        <ele>1733</ele>
        <time>2018-07-07T09:18:12.000Z</time>
      </trkpt>
      <trkpt lat="44.19145" lon="6.79482">
        <ele>1734</ele>
        <time>2018-07-07T09:18:18.000Z</time>
      </trkpt>
      <trkpt lat="44.19146" lon="6.79484">
        <ele>1735</ele>
        <time>2018-07-07T09:18:22.000Z</time>
      </trkpt>
      <trkpt lat="44.19147" lon="6.7949">
        <ele>1737</ele>
        <time>2018-07-07T09:18:27.000Z</time>
      </trkpt>
      <trkpt lat="44.19147" lon="6.7949">
        <ele>1737</ele>
        <time>2018-07-07T09:18:28.000Z</time>
      </trkpt>
      <trkpt lat="44.19147" lon="6.79492">
        <ele>1737</ele>
        <time>2018-07-07T09:18:31.000Z</time>
      </trkpt>
      <trkpt lat="44.19147" lon="6.79492">
        <ele>1737</ele>
        <time>2018-07-07T09:18:32.000Z</time>
      </trkpt>
      <trkpt lat="44.19146" lon="6.79493">
        <ele>1737</ele>
        <time>2018-07-07T09:18:33.000Z</time>
      </trkpt>
      <trkpt lat="44.19147" lon="6.79493">
        <ele>1737</ele>
        <time>2018-07-07T09:18:35.000Z</time>
      </trkpt>
      <trkpt lat="44.19146" lon="6.79492">
        <ele>1737</ele>
        <time>2018-07-07T09:18:38.000Z</time>
      </trkpt>
      <trkpt lat="44.19145" lon="6.79492">
        <ele>1737</ele>
        <time>2018-07-07T09:18:41.000Z</time>
      </trkpt>
      <trkpt lat="44.19143" lon="6.79491">
        <ele>1737</ele>
        <time>2018-07-07T09:18:44.000Z</time>
      </trkpt>
      <trkpt lat="44.19142" lon="6.7949">
        <ele>1737</ele>
        <time>2018-07-07T09:18:47.000Z</time>
      </trkpt>
      <trkpt lat="44.19141" lon="6.7949">
        <ele>1737</ele>
        <time>2018-07-07T09:18:49.000Z</time>
      </trkpt>
      <trkpt lat="44.1914" lon="6.79493">
        <ele>1737</ele>
        <time>2018-07-07T09:18:53.000Z</time>
      </trkpt>
      <trkpt lat="44.19139" lon="6.79495">
        <ele>1738</ele>
        <time>2018-07-07T09:18:56.000Z</time>
      </trkpt>
      <trkpt lat="44.19138" lon="6.79496">
        <ele>1738</ele>
        <time>2018-07-07T09:18:58.000Z</time>
      </trkpt>
      <trkpt lat="44.19138" lon="6.79501">
        <ele>1772</ele>
        <time>2018-07-07T09:19:03.000Z</time>
      </trkpt>
      <trkpt lat="44.19138" lon="6.79502">
        <ele>1772</ele>
        <time>2018-07-07T09:19:05.000Z</time>
      </trkpt>
      <trkpt lat="44.1914" lon="6.79503">
        <ele>1771</ele>
        <time>2018-07-07T09:19:07.000Z</time>
      </trkpt>
      <trkpt lat="44.1914" lon="6.79503">
        <ele>1770</ele>
        <time>2018-07-07T09:19:08.000Z</time>
      </trkpt>
      <trkpt lat="44.19143" lon="6.79504">
        <ele>1769</ele>
        <time>2018-07-07T09:19:14.000Z</time>
      </trkpt>
      <trkpt lat="44.19145" lon="6.79505">
        <ele>1768</ele>
        <time>2018-07-07T09:19:17.000Z</time>
      </trkpt>
      <trkpt lat="44.19148" lon="6.79507">
        <ele>1767</ele>
        <time>2018-07-07T09:19:22.000Z</time>
      </trkpt>
      <trkpt lat="44.19148" lon="6.79507">
        <ele>1767</ele>
        <time>2018-07-07T09:19:24.000Z</time>
      </trkpt>
      <trkpt lat="44.19147" lon="6.79506">
        <ele>1767</ele>
        <time>2018-07-07T09:19:26.000Z</time>
      </trkpt>
      <trkpt lat="44.19148" lon="6.79505">
        <ele>1766</ele>
        <time>2018-07-07T09:19:33.000Z</time>
      </trkpt>
      <trkpt lat="44.19147" lon="6.79503">
        <ele>1766</ele>
        <time>2018-07-07T09:19:39.000Z</time>
      </trkpt>
      <trkpt lat="44.19147" lon="6.79499">
        <ele>1738</ele>
        <time>2018-07-07T09:19:47.000Z</time>
      </trkpt>
      <trkpt lat="44.19146" lon="6.79499">
        <ele>1738</ele>
        <time>2018-07-07T09:19:59.000Z</time>
      </trkpt>
      <trkpt lat="44.19146" lon="6.79501">
        <ele>1767</ele>
        <time>2018-07-07T09:20:05.000Z</time>
      </trkpt>
      <trkpt lat="44.19146" lon="6.79499">
        <ele>1738</ele>
        <time>2018-07-07T09:20:14.000Z</time>
      </trkpt>
      <trkpt lat="44.19145" lon="6.79499">
        <ele>1738</ele>
        <time>2018-07-07T09:20:19.000Z</time>
      </trkpt>
      <trkpt lat="44.19144" lon="6.79498">
        <ele>1738</ele>
        <time>2018-07-07T09:20:22.000Z</time>
      </trkpt>
      <trkpt lat="44.19149" lon="6.79499">
        <ele>1739</ele>
        <time>2018-07-07T09:20:28.000Z</time>
      </trkpt>
      <trkpt lat="44.19152" lon="6.795">
        <ele>1739</ele>
        <time>2018-07-07T09:20:30.000Z</time>
      </trkpt>
      <trkpt lat="44.19155" lon="6.79501">
        <ele>1759</ele>
        <time>2018-07-07T09:20:36.000Z</time>
      </trkpt>
      <trkpt lat="44.19162" lon="6.79502">
        <ele>1752</ele>
        <time>2018-07-07T09:20:41.000Z</time>
      </trkpt>
      <trkpt lat="44.19163" lon="6.79503">
        <ele>1751</ele>
        <time>2018-07-07T09:20:42.000Z</time>
      </trkpt>
      <trkpt lat="44.19173" lon="6.79503">
        <ele>1747</ele>
        <time>2018-07-07T09:20:48.000Z</time>
      </trkpt>
      <trkpt lat="44.1918" lon="6.79504">
        <ele>1748</ele>
        <time>2018-07-07T09:20:52.000Z</time>
      </trkpt>
      <trkpt lat="44.19182" lon="6.79503">
        <ele>1749</ele>
        <time>2018-07-07T09:20:54.000Z</time>
      </trkpt>
      <trkpt lat="44.19183" lon="6.795">
        <ele>1748</ele>
        <time>2018-07-07T09:20:55.000Z</time>
      </trkpt>
      <trkpt lat="44.19184" lon="6.7949">
        <ele>1720</ele>
        <time>2018-07-07T09:20:58.000Z</time>
      </trkpt>
      <trkpt lat="44.19185" lon="6.79487">
        <ele>1718</ele>
        <time>2018-07-07T09:20:59.000Z</time>
      </trkpt>
      <trkpt lat="44.19192" lon="6.7948">
        <ele>1711</ele>
        <time>2018-07-07T09:21:06.000Z</time>
      </trkpt>
      <trkpt lat="44.19193" lon="6.7948">
        <ele>1711</ele>
        <time>2018-07-07T09:21:07.000Z</time>
      </trkpt>
      <trkpt lat="44.19196" lon="6.79483">
        <ele>1712</ele>
        <time>2018-07-07T09:21:11.000Z</time>
      </trkpt>
      <trkpt lat="44.19196" lon="6.79483">
        <ele>1712</ele>
        <time>2018-07-07T09:21:12.000Z</time>
      </trkpt>
      <trkpt lat="44.19198" lon="6.79485">
        <ele>1712</ele>
        <time>2018-07-07T09:21:16.000Z</time>
      </trkpt>
      <trkpt lat="44.19198" lon="6.79487">
        <ele>1712</ele>
        <time>2018-07-07T09:21:17.000Z</time>
      </trkpt>
      <trkpt lat="44.19199" lon="6.79489">
        <ele>1712</ele>
        <time>2018-07-07T09:21:19.000Z</time>
      </trkpt>
      <trkpt lat="44.19204" lon="6.79496">
        <ele>1712</ele>
        <time>2018-07-07T09:21:26.000Z</time>
      </trkpt>
      <trkpt lat="44.19205" lon="6.79497">
        <ele>1712</ele>
        <time>2018-07-07T09:21:27.000Z</time>
      </trkpt>
      <trkpt lat="44.19212" lon="6.79499">
        <ele>1711</ele>
        <time>2018-07-07T09:21:35.000Z</time>
      </trkpt>
      <trkpt lat="44.19212" lon="6.795">
        <ele>1711</ele>
        <time>2018-07-07T09:21:36.000Z</time>
      </trkpt>
      <trkpt lat="44.19217" lon="6.79502">
        <ele>1744</ele>
        <time>2018-07-07T09:21:42.000Z</time>
      </trkpt>
      <trkpt lat="44.19218" lon="6.79502">
        <ele>1744</ele>
        <time>2018-07-07T09:21:43.000Z</time>
      </trkpt>
      <trkpt lat="44.19224" lon="6.79507">
        <ele>1742</ele>
        <time>2018-07-07T09:21:50.000Z</time>
      </trkpt>
      <trkpt lat="44.19224" lon="6.79507">
        <ele>1742</ele>
        <time>2018-07-07T09:21:51.000Z</time>
      </trkpt>
      <trkpt lat="44.19229" lon="6.79511">
        <ele>1741</ele>
        <time>2018-07-07T09:21:58.000Z</time>
      </trkpt>
      <trkpt lat="44.19231" lon="6.79511">
        <ele>1740</ele>
        <time>2018-07-07T09:22:00.000Z</time>
      </trkpt>
      <trkpt lat="44.19234" lon="6.79512">
        <ele>1739</ele>
        <time>2018-07-07T09:22:04.000Z</time>
      </trkpt>
      <trkpt lat="44.19237" lon="6.79512">
        <ele>1738</ele>
        <time>2018-07-07T09:22:08.000Z</time>
      </trkpt>
      <trkpt lat="44.19238" lon="6.79512">
        <ele>1737</ele>
        <time>2018-07-07T09:22:10.000Z</time>
      </trkpt>
      <trkpt lat="44.19244" lon="6.79509">
        <ele>1733</ele>
        <time>2018-07-07T09:22:17.000Z</time>
      </trkpt>
      <trkpt lat="44.19249" lon="6.79517">
        <ele>1737</ele>
        <time>2018-07-07T09:22:23.000Z</time>
      </trkpt>
      <trkpt lat="44.1925" lon="6.79518">
        <ele>1738</ele>
        <time>2018-07-07T09:22:24.000Z</time>
      </trkpt>
      <trkpt lat="44.19255" lon="6.79525">
        <ele>1738</ele>
        <time>2018-07-07T09:22:30.000Z</time>
      </trkpt>
      <trkpt lat="44.19257" lon="6.79529">
        <ele>1740</ele>
        <time>2018-07-07T09:22:34.000Z</time>
      </trkpt>
      <trkpt lat="44.19259" lon="6.79531">
        <ele>1740</ele>
        <time>2018-07-07T09:22:36.000Z</time>
      </trkpt>
      <trkpt lat="44.19263" lon="6.79534">
        <ele>1742</ele>
        <time>2018-07-07T09:22:41.000Z</time>
      </trkpt>
      <trkpt lat="44.19265" lon="6.79537">
        <ele>1743</ele>
        <time>2018-07-07T09:22:44.000Z</time>
      </trkpt>
      <trkpt lat="44.1927" lon="6.79543">
        <ele>1745</ele>
        <time>2018-07-07T09:22:51.000Z</time>
      </trkpt>
      <trkpt lat="44.1927" lon="6.79545">
        <ele>1746</ele>
        <time>2018-07-07T09:22:53.000Z</time>
      </trkpt>
      <trkpt lat="44.19274" lon="6.79548">
        <ele>1747</ele>
        <time>2018-07-07T09:22:58.000Z</time>
      </trkpt>
      <trkpt lat="44.19276" lon="6.7955">
        <ele>1748</ele>
        <time>2018-07-07T09:23:01.000Z</time>
      </trkpt>
      <trkpt lat="44.19279" lon="6.79554">
        <ele>1748</ele>
        <time>2018-07-07T09:23:07.000Z</time>
      </trkpt>
      <trkpt lat="44.1928" lon="6.79554">
        <ele>1749</ele>
        <time>2018-07-07T09:23:08.000Z</time>
      </trkpt>
      <trkpt lat="44.19284" lon="6.79558">
        <ele>1749</ele>
        <time>2018-07-07T09:23:14.000Z</time>
      </trkpt>
      <trkpt lat="44.19285" lon="6.79559">
        <ele>1749</ele>
        <time>2018-07-07T09:23:16.000Z</time>
      </trkpt>
      <trkpt lat="44.19288" lon="6.79562">
        <ele>1750</ele>
        <time>2018-07-07T09:23:20.000Z</time>
      </trkpt>
      <trkpt lat="44.19291" lon="6.79566">
        <ele>1751</ele>
        <time>2018-07-07T09:23:25.000Z</time>
      </trkpt>
      <trkpt lat="44.19292" lon="6.79568">
        <ele>1751</ele>
        <time>2018-07-07T09:23:26.000Z</time>
      </trkpt>
      <trkpt lat="44.19296" lon="6.79575">
        <ele>1752</ele>
        <time>2018-07-07T09:23:33.000Z</time>
      </trkpt>
      <trkpt lat="44.19297" lon="6.79576">
        <ele>1752</ele>
        <time>2018-07-07T09:23:34.000Z</time>
      </trkpt>
      <trkpt lat="44.19299" lon="6.79582">
        <ele>1753</ele>
        <time>2018-07-07T09:23:40.000Z</time>
      </trkpt>
      <trkpt lat="44.19299" lon="6.79584">
        <ele>1777</ele>
        <time>2018-07-07T09:23:41.000Z</time>
      </trkpt>
      <trkpt lat="44.19301" lon="6.7959">
        <ele>1777</ele>
        <time>2018-07-07T09:23:47.000Z</time>
      </trkpt>
      <trkpt lat="44.19303" lon="6.79593">
        <ele>1777</ele>
        <time>2018-07-07T09:23:50.000Z</time>
      </trkpt>
      <trkpt lat="44.19303" lon="6.79595">
        <ele>1778</ele>
        <time>2018-07-07T09:23:51.000Z</time>
      </trkpt>
      <trkpt lat="44.19304" lon="6.79599">
        <ele>1778</ele>
        <time>2018-07-07T09:23:55.000Z</time>
      </trkpt>
      <trkpt lat="44.19305" lon="6.79601">
        <ele>1778</ele>
        <time>2018-07-07T09:23:57.000Z</time>
      </trkpt>
      <trkpt lat="44.19306" lon="6.79605">
        <ele>1779</ele>
        <time>2018-07-07T09:24:01.000Z</time>
      </trkpt>
      <trkpt lat="44.19307" lon="6.79609">
        <ele>1780</ele>
        <time>2018-07-07T09:24:05.000Z</time>
      </trkpt>
      <trkpt lat="44.19308" lon="6.79611">
        <ele>1780</ele>
        <time>2018-07-07T09:24:07.000Z</time>
      </trkpt>
      <trkpt lat="44.19309" lon="6.79615">
        <ele>1781</ele>
        <time>2018-07-07T09:24:12.000Z</time>
      </trkpt>
      <trkpt lat="44.19309" lon="6.79616">
        <ele>1781</ele>
        <time>2018-07-07T09:24:13.000Z</time>
      </trkpt>
      <trkpt lat="44.19312" lon="6.79622">
        <ele>1783</ele>
        <time>2018-07-07T09:24:20.000Z</time>
      </trkpt>
      <trkpt lat="44.19312" lon="6.79625">
        <ele>1783</ele>
        <time>2018-07-07T09:24:23.000Z</time>
      </trkpt>
      <trkpt lat="44.19312" lon="6.79628">
        <ele>1784</ele>
        <time>2018-07-07T09:24:26.000Z</time>
      </trkpt>
      <trkpt lat="44.19313" lon="6.79631">
        <ele>1785</ele>
        <time>2018-07-07T09:24:31.000Z</time>
      </trkpt>
      <trkpt lat="44.19314" lon="6.79632">
        <ele>1785</ele>
        <time>2018-07-07T09:24:32.000Z</time>
      </trkpt>
      <trkpt lat="44.19317" lon="6.79638">
        <ele>1786</ele>
        <time>2018-07-07T09:24:39.000Z</time>
      </trkpt>
      <trkpt lat="44.19319" lon="6.79644">
        <ele>1787</ele>
        <time>2018-07-07T09:24:46.000Z</time>
      </trkpt>
      <trkpt lat="44.19322" lon="6.79649">
        <ele>1787</ele>
        <time>2018-07-07T09:24:51.000Z</time>
      </trkpt>
      <trkpt lat="44.19322" lon="6.79653">
        <ele>1788</ele>
        <time>2018-07-07T09:24:54.000Z</time>
      </trkpt>
      <trkpt lat="44.19323" lon="6.79656">
        <ele>1788</ele>
        <time>2018-07-07T09:24:57.000Z</time>
      </trkpt>
      <trkpt lat="44.19324" lon="6.79658">
        <ele>1789</ele>
        <time>2018-07-07T09:24:59.000Z</time>
      </trkpt>
      <trkpt lat="44.19325" lon="6.79664">
        <ele>1789</ele>
        <time>2018-07-07T09:25:05.000Z</time>
      </trkpt>
      <trkpt lat="44.19325" lon="6.79664">
        <ele>1789</ele>
        <time>2018-07-07T09:25:06.000Z</time>
      </trkpt>
      <trkpt lat="44.19325" lon="6.79668">
        <ele>1797</ele>
        <time>2018-07-07T09:25:11.000Z</time>
      </trkpt>
      <trkpt lat="44.19325" lon="6.79669">
        <ele>1797</ele>
        <time>2018-07-07T09:25:13.000Z</time>
      </trkpt>
      <trkpt lat="44.19325" lon="6.79673">
        <ele>1798</ele>
        <time>2018-07-07T09:25:17.000Z</time>
      </trkpt>
      <trkpt lat="44.19325" lon="6.79674">
        <ele>1799</ele>
        <time>2018-07-07T09:25:18.000Z</time>
      </trkpt>
      <trkpt lat="44.19325" lon="6.79674">
        <ele>1799</ele>
        <time>2018-07-07T09:25:19.000Z</time>
      </trkpt>
      <trkpt lat="44.19326" lon="6.79678">
        <ele>1800</ele>
        <time>2018-07-07T09:25:23.000Z</time>
      </trkpt>
      <trkpt lat="44.19327" lon="6.79681">
        <ele>1801</ele>
        <time>2018-07-07T09:25:26.000Z</time>
      </trkpt>
      <trkpt lat="44.19328" lon="6.79684">
        <ele>1802</ele>
        <time>2018-07-07T09:25:29.000Z</time>
      </trkpt>
      <trkpt lat="44.19329" lon="6.79688">
        <ele>1803</ele>
        <time>2018-07-07T09:25:33.000Z</time>
      </trkpt>
      <trkpt lat="44.1933" lon="6.7969">
        <ele>1804</ele>
        <time>2018-07-07T09:25:35.000Z</time>
      </trkpt>
      <trkpt lat="44.19331" lon="6.79692">
        <ele>1804</ele>
        <time>2018-07-07T09:25:39.000Z</time>
      </trkpt>
      <trkpt lat="44.19333" lon="6.79698">
        <ele>1806</ele>
        <time>2018-07-07T09:25:47.000Z</time>
      </trkpt>
      <trkpt lat="44.19333" lon="6.79699">
        <ele>1806</ele>
        <time>2018-07-07T09:25:48.000Z</time>
      </trkpt>
      <trkpt lat="44.19333" lon="6.79706">
        <ele>1807</ele>
        <time>2018-07-07T09:25:52.000Z</time>
      </trkpt>
      <trkpt lat="44.19334" lon="6.79707">
        <ele>1791</ele>
        <time>2018-07-07T09:25:53.000Z</time>
      </trkpt>
      <trkpt lat="44.19335" lon="6.79713">
        <ele>1792</ele>
        <time>2018-07-07T09:25:57.000Z</time>
      </trkpt>
      <trkpt lat="44.19336" lon="6.79715">
        <ele>1792</ele>
        <time>2018-07-07T09:25:59.000Z</time>
      </trkpt>
      <trkpt lat="44.19337" lon="6.79718">
        <ele>1792</ele>
        <time>2018-07-07T09:26:01.000Z</time>
      </trkpt>
      <trkpt lat="44.19337" lon="6.79719">
        <ele>1793</ele>
        <time>2018-07-07T09:26:02.000Z</time>
      </trkpt>
      <trkpt lat="44.19337" lon="6.79721">
        <ele>1793</ele>
        <time>2018-07-07T09:26:04.000Z</time>
      </trkpt>
      <trkpt lat="44.19337" lon="6.79723">
        <ele>1793</ele>
        <time>2018-07-07T09:26:05.000Z</time>
      </trkpt>
      <trkpt lat="44.19337" lon="6.79728">
        <ele>1794</ele>
        <time>2018-07-07T09:26:09.000Z</time>
      </trkpt>
      <trkpt lat="44.19338" lon="6.79729">
        <ele>1794</ele>
        <time>2018-07-07T09:26:10.000Z</time>
      </trkpt>
      <trkpt lat="44.19336" lon="6.79736">
        <ele>1796</ele>
        <time>2018-07-07T09:26:14.000Z</time>
      </trkpt>
      <trkpt lat="44.19335" lon="6.79739">
        <ele>1797</ele>
        <time>2018-07-07T09:26:16.000Z</time>
      </trkpt>
      <trkpt lat="44.19334" lon="6.79744">
        <ele>1799</ele>
        <time>2018-07-07T09:26:20.000Z</time>
      </trkpt>
      <trkpt lat="44.19333" lon="6.79747">
        <ele>1803</ele>
        <time>2018-07-07T09:26:23.000Z</time>
      </trkpt>
      <trkpt lat="44.19332" lon="6.79749">
        <ele>1803</ele>
        <time>2018-07-07T09:26:24.000Z</time>
      </trkpt>
      <trkpt lat="44.19332" lon="6.7975">
        <ele>1803</ele>
        <time>2018-07-07T09:26:25.000Z</time>
      </trkpt>
      <trkpt lat="44.19331" lon="6.79754">
        <ele>1806</ele>
        <time>2018-07-07T09:26:28.000Z</time>
      </trkpt>
      <trkpt lat="44.1933" lon="6.79758">
        <ele>1810</ele>
        <time>2018-07-07T09:26:31.000Z</time>
      </trkpt>
      <trkpt lat="44.19329" lon="6.79762">
        <ele>1812</ele>
        <time>2018-07-07T09:26:34.000Z</time>
      </trkpt>
      <trkpt lat="44.19329" lon="6.79766">
        <ele>1814</ele>
        <time>2018-07-07T09:26:37.000Z</time>
      </trkpt>
      <trkpt lat="44.19329" lon="6.79769">
        <ele>1816</ele>
        <time>2018-07-07T09:26:39.000Z</time>
      </trkpt>
      <trkpt lat="44.19328" lon="6.79774">
        <ele>1817</ele>
        <time>2018-07-07T09:26:42.000Z</time>
      </trkpt>
      <trkpt lat="44.19326" lon="6.79779">
        <ele>1819</ele>
        <time>2018-07-07T09:26:46.000Z</time>
      </trkpt>
      <trkpt lat="44.19325" lon="6.79782">
        <ele>1820</ele>
        <time>2018-07-07T09:26:48.000Z</time>
      </trkpt>
      <trkpt lat="44.19324" lon="6.79785">
        <ele>1821</ele>
        <time>2018-07-07T09:26:50.000Z</time>
      </trkpt>
      <trkpt lat="44.19321" lon="6.7979">
        <ele>1822</ele>
        <time>2018-07-07T09:26:54.000Z</time>
      </trkpt>
      <trkpt lat="44.19321" lon="6.79791">
        <ele>1822</ele>
        <time>2018-07-07T09:26:55.000Z</time>
      </trkpt>
      <trkpt lat="44.19321" lon="6.79793">
        <ele>1822</ele>
        <time>2018-07-07T09:26:56.000Z</time>
      </trkpt>
      <trkpt lat="44.19321" lon="6.79796">
        <ele>1822</ele>
        <time>2018-07-07T09:26:59.000Z</time>
      </trkpt>
      <trkpt lat="44.1932" lon="6.798">
        <ele>1822</ele>
        <time>2018-07-07T09:27:01.000Z</time>
      </trkpt>
      <trkpt lat="44.19323" lon="6.79805">
        <ele>1822</ele>
        <time>2018-07-07T09:27:03.000Z</time>
      </trkpt>
      <trkpt lat="44.19325" lon="6.79806">
        <ele>1821</ele>
        <time>2018-07-07T09:27:06.000Z</time>
      </trkpt>
      <trkpt lat="44.19326" lon="6.79807">
        <ele>1821</ele>
        <time>2018-07-07T09:27:07.000Z</time>
      </trkpt>
      <trkpt lat="44.19326" lon="6.79809">
        <ele>1821</ele>
        <time>2018-07-07T09:27:09.000Z</time>
      </trkpt>
      <trkpt lat="44.19325" lon="6.79811">
        <ele>1821</ele>
        <time>2018-07-07T09:27:11.000Z</time>
      </trkpt>
      <trkpt lat="44.19325" lon="6.79817">
        <ele>1820</ele>
        <time>2018-07-07T09:27:16.000Z</time>
      </trkpt>
      <trkpt lat="44.19322" lon="6.79821">
        <ele>1820</ele>
        <time>2018-07-07T09:27:22.000Z</time>
      </trkpt>
      <trkpt lat="44.19322" lon="6.79822">
        <ele>1820</ele>
        <time>2018-07-07T09:27:23.000Z</time>
      </trkpt>
      <trkpt lat="44.19321" lon="6.79825">
        <ele>1820</ele>
        <time>2018-07-07T09:27:28.000Z</time>
      </trkpt>
      <trkpt lat="44.19319" lon="6.79828">
        <ele>1820</ele>
        <time>2018-07-07T09:27:30.000Z</time>
      </trkpt>
      <trkpt lat="44.19316" lon="6.79833">
        <ele>1821</ele>
        <time>2018-07-07T09:27:34.000Z</time>
      </trkpt>
      <trkpt lat="44.19316" lon="6.79834">
        <ele>1824</ele>
        <time>2018-07-07T09:27:35.000Z</time>
      </trkpt>
      <trkpt lat="44.19316" lon="6.79844">
        <ele>1825</ele>
        <time>2018-07-07T09:27:42.000Z</time>
      </trkpt>
      <trkpt lat="44.19316" lon="6.79847">
        <ele>1826</ele>
        <time>2018-07-07T09:27:45.000Z</time>
      </trkpt>
      <trkpt lat="44.19316" lon="6.79846">
        <ele>1826</ele>
        <time>2018-07-07T09:27:46.000Z</time>
      </trkpt>
      <trkpt lat="44.19317" lon="6.7985">
        <ele>1826</ele>
        <time>2018-07-07T09:27:48.000Z</time>
      </trkpt>
      <trkpt lat="44.19318" lon="6.79856">
        <ele>1827</ele>
        <time>2018-07-07T09:27:52.000Z</time>
      </trkpt>
      <trkpt lat="44.19319" lon="6.79858">
        <ele>1827</ele>
        <time>2018-07-07T09:27:53.000Z</time>
      </trkpt>
      <trkpt lat="44.19319" lon="6.79859">
        <ele>1827</ele>
        <time>2018-07-07T09:27:55.000Z</time>
      </trkpt>
      <trkpt lat="44.19318" lon="6.79862">
        <ele>1828</ele>
        <time>2018-07-07T09:27:59.000Z</time>
      </trkpt>
      <trkpt lat="44.19317" lon="6.79864">
        <ele>1829</ele>
        <time>2018-07-07T09:28:00.000Z</time>
      </trkpt>
      <trkpt lat="44.19313" lon="6.7987">
        <ele>1830</ele>
        <time>2018-07-07T09:28:07.000Z</time>
      </trkpt>
      <trkpt lat="44.19314" lon="6.79871">
        <ele>1830</ele>
        <time>2018-07-07T09:28:10.000Z</time>
      </trkpt>
      <trkpt lat="44.19315" lon="6.79871">
        <ele>1830</ele>
        <time>2018-07-07T09:28:12.000Z</time>
      </trkpt>
      <trkpt lat="44.19316" lon="6.79875">
        <ele>1830</ele>
        <time>2018-07-07T09:28:21.000Z</time>
      </trkpt>
      <trkpt lat="44.19316" lon="6.79876">
        <ele>1830</ele>
        <time>2018-07-07T09:28:26.000Z</time>
      </trkpt>
      <trkpt lat="44.19318" lon="6.79877">
        <ele>1830</ele>
        <time>2018-07-07T09:28:32.000Z</time>
      </trkpt>
      <trkpt lat="44.19321" lon="6.79878">
        <ele>1829</ele>
        <time>2018-07-07T09:28:37.000Z</time>
      </trkpt>
      <trkpt lat="44.19324" lon="6.79879">
        <ele>1829</ele>
        <time>2018-07-07T09:28:44.000Z</time>
      </trkpt>
      <trkpt lat="44.19323" lon="6.7988">
        <ele>1829</ele>
        <time>2018-07-07T09:28:52.000Z</time>
      </trkpt>
      <trkpt lat="44.19326" lon="6.79881">
        <ele>1829</ele>
        <time>2018-07-07T09:28:59.000Z</time>
      </trkpt>
      <trkpt lat="44.19328" lon="6.7988">
        <ele>1828</ele>
        <time>2018-07-07T09:29:06.000Z</time>
      </trkpt>
      <trkpt lat="44.19327" lon="6.7988">
        <ele>1829</ele>
        <time>2018-07-07T09:29:13.000Z</time>
      </trkpt>
      <trkpt lat="44.19329" lon="6.79881">
        <ele>1828</ele>
        <time>2018-07-07T09:29:18.000Z</time>
      </trkpt>
      <trkpt lat="44.1933" lon="6.79882">
        <ele>1828</ele>
        <time>2018-07-07T09:29:24.000Z</time>
      </trkpt>
      <trkpt lat="44.19331" lon="6.79882">
        <ele>1828</ele>
        <time>2018-07-07T09:29:30.000Z</time>
      </trkpt>
      <trkpt lat="44.1933" lon="6.79882">
        <ele>1828</ele>
        <time>2018-07-07T09:29:33.000Z</time>
      </trkpt>
      <trkpt lat="44.19331" lon="6.79883">
        <ele>1828</ele>
        <time>2018-07-07T09:29:34.000Z</time>
      </trkpt>
      <trkpt lat="44.19327" lon="6.79882">
        <ele>1829</ele>
        <time>2018-07-07T09:29:39.000Z</time>
      </trkpt>
      <trkpt lat="44.19328" lon="6.79882">
        <ele>1829</ele>
        <time>2018-07-07T09:29:42.000Z</time>
      </trkpt>
      <trkpt lat="44.19329" lon="6.79881">
        <ele>1828</ele>
        <time>2018-07-07T09:29:44.000Z</time>
      </trkpt>
      <trkpt lat="44.19327" lon="6.79877">
        <ele>1828</ele>
        <time>2018-07-07T09:29:49.000Z</time>
      </trkpt>
      <trkpt lat="44.19326" lon="6.79874">
        <ele>1828</ele>
        <time>2018-07-07T09:29:52.000Z</time>
      </trkpt>
      <trkpt lat="44.19326" lon="6.79872">
        <ele>1828</ele>
        <time>2018-07-07T09:29:56.000Z</time>
      </trkpt>
      <trkpt lat="44.19323" lon="6.79863">
        <ele>1827</ele>
        <time>2018-07-07T09:30:00.000Z</time>
      </trkpt>
      <trkpt lat="44.19324" lon="6.79861">
        <ele>1827</ele>
        <time>2018-07-07T09:30:01.000Z</time>
      </trkpt>
      <trkpt lat="44.19326" lon="6.79855">
        <ele>1825</ele>
        <time>2018-07-07T09:30:04.000Z</time>
      </trkpt>
      <trkpt lat="44.19325" lon="6.79853">
        <ele>1825</ele>
        <time>2018-07-07T09:30:05.000Z</time>
      </trkpt>
      <trkpt lat="44.19323" lon="6.79852">
        <ele>1825</ele>
        <time>2018-07-07T09:30:08.000Z</time>
      </trkpt>
      <trkpt lat="44.19323" lon="6.79847">
        <ele>1823</ele>
        <time>2018-07-07T09:30:11.000Z</time>
      </trkpt>
      <trkpt lat="44.19324" lon="6.79845">
        <ele>1822</ele>
        <time>2018-07-07T09:30:12.000Z</time>
      </trkpt>
      <trkpt lat="44.19318" lon="6.79839">
        <ele>1823</ele>
        <time>2018-07-07T09:30:17.000Z</time>
      </trkpt>
      <trkpt lat="44.19314" lon="6.79837">
        <ele>1825</ele>
        <time>2018-07-07T09:30:21.000Z</time>
      </trkpt>
      <trkpt lat="44.19313" lon="6.79835">
        <ele>1825</ele>
        <time>2018-07-07T09:30:24.000Z</time>
      </trkpt>
      <trkpt lat="44.19313" lon="6.79835">
        <ele>1826</ele>
        <time>2018-07-07T09:30:26.000Z</time>
      </trkpt>
      <trkpt lat="44.19311" lon="6.79835">
        <ele>1826</ele>
        <time>2018-07-07T09:30:29.000Z</time>
      </trkpt>
      <trkpt lat="44.1931" lon="6.79836">
        <ele>1827</ele>
        <time>2018-07-07T09:30:30.000Z</time>
      </trkpt>
      <trkpt lat="44.19309" lon="6.79838">
        <ele>1827</ele>
        <time>2018-07-07T09:30:32.000Z</time>
      </trkpt>
      <trkpt lat="44.19307" lon="6.7984">
        <ele>1828</ele>
        <time>2018-07-07T09:30:35.000Z</time>
      </trkpt>
      <trkpt lat="44.19305" lon="6.79844">
        <ele>1829</ele>
        <time>2018-07-07T09:30:39.000Z</time>
      </trkpt>
      <trkpt lat="44.19299" lon="6.79846">
        <ele>1832</ele>
        <time>2018-07-07T09:30:45.000Z</time>
      </trkpt>
      <trkpt lat="44.19299" lon="6.7985">
        <ele>1832</ele>
        <time>2018-07-07T09:30:50.000Z</time>
      </trkpt>
      <trkpt lat="44.19298" lon="6.7985">
        <ele>1832</ele>
        <time>2018-07-07T09:30:52.000Z</time>
      </trkpt>
      <trkpt lat="44.19295" lon="6.79851">
        <ele>1833</ele>
        <time>2018-07-07T09:30:54.000Z</time>
      </trkpt>
      <trkpt lat="44.19289" lon="6.79852">
        <ele>1835</ele>
        <time>2018-07-07T09:30:59.000Z</time>
      </trkpt>
      <trkpt lat="44.19288" lon="6.79853">
        <ele>1835</ele>
        <time>2018-07-07T09:31:00.000Z</time>
      </trkpt>
      <trkpt lat="44.19285" lon="6.79856">
        <ele>1836</ele>
        <time>2018-07-07T09:31:05.000Z</time>
      </trkpt>
      <trkpt lat="44.19285" lon="6.79856">
        <ele>1836</ele>
        <time>2018-07-07T09:31:06.000Z</time>
      </trkpt>
      <trkpt lat="44.19282" lon="6.79859">
        <ele>1837</ele>
        <time>2018-07-07T09:31:11.000Z</time>
      </trkpt>
      <trkpt lat="44.19281" lon="6.79859">
        <ele>1837</ele>
        <time>2018-07-07T09:31:12.000Z</time>
      </trkpt>
      <trkpt lat="44.19281" lon="6.7986">
        <ele>1837</ele>
        <time>2018-07-07T09:31:13.000Z</time>
      </trkpt>
      <trkpt lat="44.1928" lon="6.79863">
        <ele>1837</ele>
        <time>2018-07-07T09:31:17.000Z</time>
      </trkpt>
      <trkpt lat="44.19279" lon="6.79865">
        <ele>1838</ele>
        <time>2018-07-07T09:31:19.000Z</time>
      </trkpt>
      <trkpt lat="44.19277" lon="6.79867">
        <ele>1838</ele>
        <time>2018-07-07T09:31:23.000Z</time>
      </trkpt>
      <trkpt lat="44.19275" lon="6.79869">
        <ele>1838</ele>
        <time>2018-07-07T09:31:26.000Z</time>
      </trkpt>
      <trkpt lat="44.19274" lon="6.7987">
        <ele>1838</ele>
        <time>2018-07-07T09:31:31.000Z</time>
      </trkpt>
      <trkpt lat="44.19274" lon="6.7987">
        <ele>1839</ele>
        <time>2018-07-07T09:31:32.000Z</time>
      </trkpt>
      <trkpt lat="44.19274" lon="6.79873">
        <ele>1838</ele>
        <time>2018-07-07T09:31:36.000Z</time>
      </trkpt>
      <trkpt lat="44.19273" lon="6.79874">
        <ele>1839</ele>
        <time>2018-07-07T09:31:38.000Z</time>
      </trkpt>
      <trkpt lat="44.19272" lon="6.79876">
        <ele>1839</ele>
        <time>2018-07-07T09:31:42.000Z</time>
      </trkpt>
      <trkpt lat="44.19271" lon="6.79877">
        <ele>1839</ele>
        <time>2018-07-07T09:31:44.000Z</time>
      </trkpt>
      <trkpt lat="44.1927" lon="6.7988">
        <ele>1839</ele>
        <time>2018-07-07T09:31:49.000Z</time>
      </trkpt>
      <trkpt lat="44.1927" lon="6.7988">
        <ele>1839</ele>
        <time>2018-07-07T09:31:50.000Z</time>
      </trkpt>
      <trkpt lat="44.19265" lon="6.79883">
        <ele>1840</ele>
        <time>2018-07-07T09:31:56.000Z</time>
      </trkpt>
      <trkpt lat="44.19265" lon="6.79885">
        <ele>1840</ele>
        <time>2018-07-07T09:31:58.000Z</time>
      </trkpt>
      <trkpt lat="44.19265" lon="6.79885">
        <ele>1840</ele>
        <time>2018-07-07T09:32:00.000Z</time>
      </trkpt>
      <trkpt lat="44.19265" lon="6.79888">
        <ele>1841</ele>
        <time>2018-07-07T09:32:03.000Z</time>
      </trkpt>
      <trkpt lat="44.19261" lon="6.7989">
        <ele>1841</ele>
        <time>2018-07-07T09:32:07.000Z</time>
      </trkpt>
      <trkpt lat="44.1926" lon="6.7989">
        <ele>1842</ele>
        <time>2018-07-07T09:32:10.000Z</time>
      </trkpt>
      <trkpt lat="44.1926" lon="6.7989">
        <ele>1842</ele>
        <time>2018-07-07T09:32:12.000Z</time>
      </trkpt>
      <trkpt lat="44.1926" lon="6.79891">
        <ele>1842</ele>
        <time>2018-07-07T09:32:15.000Z</time>
      </trkpt>
      <trkpt lat="44.19258" lon="6.79892">
        <ele>1842</ele>
        <time>2018-07-07T09:32:19.000Z</time>
      </trkpt>
      <trkpt lat="44.19257" lon="6.79897">
        <ele>1843</ele>
        <time>2018-07-07T09:32:25.000Z</time>
      </trkpt>
      <trkpt lat="44.19258" lon="6.79899">
        <ele>1843</ele>
        <time>2018-07-07T09:32:26.000Z</time>
      </trkpt>
      <trkpt lat="44.19258" lon="6.79902">
        <ele>1844</ele>
        <time>2018-07-07T09:32:30.000Z</time>
      </trkpt>
      <trkpt lat="44.19259" lon="6.79903">
        <ele>1844</ele>
        <time>2018-07-07T09:32:32.000Z</time>
      </trkpt>
      <trkpt lat="44.19259" lon="6.79905">
        <ele>1845</ele>
        <time>2018-07-07T09:32:34.000Z</time>
      </trkpt>
      <trkpt lat="44.19258" lon="6.79906">
        <ele>1845</ele>
        <time>2018-07-07T09:32:35.000Z</time>
      </trkpt>
      <trkpt lat="44.19259" lon="6.79917">
        <ele>1847</ele>
        <time>2018-07-07T09:32:40.000Z</time>
      </trkpt>
      <trkpt lat="44.19256" lon="6.79925">
        <ele>1848</ele>
        <time>2018-07-07T09:32:45.000Z</time>
      </trkpt>
      <trkpt lat="44.19255" lon="6.79927">
        <ele>1848</ele>
        <time>2018-07-07T09:32:46.000Z</time>
      </trkpt>
      <trkpt lat="44.19256" lon="6.79929">
        <ele>1848</ele>
        <time>2018-07-07T09:32:47.000Z</time>
      </trkpt>
      <trkpt lat="44.19252" lon="6.79934">
        <ele>1847</ele>
        <time>2018-07-07T09:32:50.000Z</time>
      </trkpt>
      <trkpt lat="44.19249" lon="6.79938">
        <ele>1863</ele>
        <time>2018-07-07T09:32:53.000Z</time>
      </trkpt>
      <trkpt lat="44.19249" lon="6.79941">
        <ele>1863</ele>
        <time>2018-07-07T09:32:54.000Z</time>
      </trkpt>
      <trkpt lat="44.19249" lon="6.79942">
        <ele>1864</ele>
        <time>2018-07-07T09:32:55.000Z</time>
      </trkpt>
      <trkpt lat="44.19249" lon="6.79944">
        <ele>1864</ele>
        <time>2018-07-07T09:32:56.000Z</time>
      </trkpt>
      <trkpt lat="44.19247" lon="6.79946">
        <ele>1864</ele>
        <time>2018-07-07T09:32:58.000Z</time>
      </trkpt>
      <trkpt lat="44.19243" lon="6.79949">
        <ele>1865</ele>
        <time>2018-07-07T09:33:01.000Z</time>
      </trkpt>
      <trkpt lat="44.19242" lon="6.79951">
        <ele>1866</ele>
        <time>2018-07-07T09:33:02.000Z</time>
      </trkpt>
      <trkpt lat="44.19241" lon="6.79953">
        <ele>1866</ele>
        <time>2018-07-07T09:33:04.000Z</time>
      </trkpt>
      <trkpt lat="44.19241" lon="6.79956">
        <ele>1866</ele>
        <time>2018-07-07T09:33:06.000Z</time>
      </trkpt>
      <trkpt lat="44.19243" lon="6.79957">
        <ele>1866</ele>
        <time>2018-07-07T09:33:07.000Z</time>
      </trkpt>
      <trkpt lat="44.19243" lon="6.79959">
        <ele>1866</ele>
        <time>2018-07-07T09:33:08.000Z</time>
      </trkpt>
      <trkpt lat="44.19243" lon="6.79962">
        <ele>1866</ele>
        <time>2018-07-07T09:33:10.000Z</time>
      </trkpt>
      <trkpt lat="44.19242" lon="6.79968">
        <ele>1866</ele>
        <time>2018-07-07T09:33:14.000Z</time>
      </trkpt>
      <trkpt lat="44.19243" lon="6.79971">
        <ele>1865</ele>
        <time>2018-07-07T09:33:16.000Z</time>
      </trkpt>
      <trkpt lat="44.19244" lon="6.79975">
        <ele>1865</ele>
        <time>2018-07-07T09:33:19.000Z</time>
      </trkpt>
      <trkpt lat="44.19245" lon="6.79977">
        <ele>1864</ele>
        <time>2018-07-07T09:33:20.000Z</time>
      </trkpt>
      <trkpt lat="44.19246" lon="6.79979">
        <ele>1864</ele>
        <time>2018-07-07T09:33:22.000Z</time>
      </trkpt>
      <trkpt lat="44.19245" lon="6.79984">
        <ele>1863</ele>
        <time>2018-07-07T09:33:25.000Z</time>
      </trkpt>
      <trkpt lat="44.19246" lon="6.79985">
        <ele>1862</ele>
        <time>2018-07-07T09:33:26.000Z</time>
      </trkpt>
      <trkpt lat="44.19245" lon="6.79988">
        <ele>1862</ele>
        <time>2018-07-07T09:33:28.000Z</time>
      </trkpt>
      <trkpt lat="44.19245" lon="6.79991">
        <ele>1861</ele>
        <time>2018-07-07T09:33:30.000Z</time>
      </trkpt>
      <trkpt lat="44.19244" lon="6.79995">
        <ele>1860</ele>
        <time>2018-07-07T09:33:33.000Z</time>
      </trkpt>
      <trkpt lat="44.19246" lon="6.79998">
        <ele>1858</ele>
        <time>2018-07-07T09:33:35.000Z</time>
      </trkpt>
      <trkpt lat="44.19242" lon="6.8">
        <ele>1860</ele>
        <time>2018-07-07T09:33:40.000Z</time>
      </trkpt>
      <trkpt lat="44.19236" lon="6.80001">
        <ele>1863</ele>
        <time>2018-07-07T09:33:45.000Z</time>
      </trkpt>
      <trkpt lat="44.19234" lon="6.80001">
        <ele>1864</ele>
        <time>2018-07-07T09:33:48.000Z</time>
      </trkpt>
      <trkpt lat="44.1923" lon="6.8">
        <ele>1865</ele>
        <time>2018-07-07T09:33:50.000Z</time>
      </trkpt>
      <trkpt lat="44.19226" lon="6.79999">
        <ele>1867</ele>
        <time>2018-07-07T09:33:52.000Z</time>
      </trkpt>
      <trkpt lat="44.19226" lon="6.79998">
        <ele>1867</ele>
        <time>2018-07-07T09:33:53.000Z</time>
      </trkpt>
      <trkpt lat="44.19225" lon="6.79998">
        <ele>1867</ele>
        <time>2018-07-07T09:33:54.000Z</time>
      </trkpt>
      <trkpt lat="44.19226" lon="6.79998">
        <ele>1867</ele>
        <time>2018-07-07T09:33:57.000Z</time>
      </trkpt>
      <trkpt lat="44.19224" lon="6.79998">
        <ele>1867</ele>
        <time>2018-07-07T09:34:01.000Z</time>
      </trkpt>
      <trkpt lat="44.19224" lon="6.79998">
        <ele>1867</ele>
        <time>2018-07-07T09:34:02.000Z</time>
      </trkpt>
      <trkpt lat="44.19227" lon="6.8">
        <ele>1866</ele>
        <time>2018-07-07T09:34:08.000Z</time>
      </trkpt>
      <trkpt lat="44.19227" lon="6.80006">
        <ele>1866</ele>
        <time>2018-07-07T09:34:14.000Z</time>
      </trkpt>
      <trkpt lat="44.19225" lon="6.80008">
        <ele>1867</ele>
        <time>2018-07-07T09:34:16.000Z</time>
      </trkpt>
      <trkpt lat="44.19225" lon="6.8001">
        <ele>1867</ele>
        <time>2018-07-07T09:34:19.000Z</time>
      </trkpt>
      <trkpt lat="44.19224" lon="6.80011">
        <ele>1868</ele>
        <time>2018-07-07T09:34:22.000Z</time>
      </trkpt>
      <trkpt lat="44.19223" lon="6.80013">
        <ele>1868</ele>
        <time>2018-07-07T09:34:27.000Z</time>
      </trkpt>
      <trkpt lat="44.19222" lon="6.80019">
        <ele>1869</ele>
        <time>2018-07-07T09:34:32.000Z</time>
      </trkpt>
      <trkpt lat="44.19221" lon="6.80027">
        <ele>1870</ele>
        <time>2018-07-07T09:34:37.000Z</time>
      </trkpt>
      <trkpt lat="44.19221" lon="6.80028">
        <ele>1870</ele>
        <time>2018-07-07T09:34:38.000Z</time>
      </trkpt>
      <trkpt lat="44.1922" lon="6.80029">
        <ele>1870</ele>
        <time>2018-07-07T09:34:39.000Z</time>
      </trkpt>
      <trkpt lat="44.19218" lon="6.80032">
        <ele>1870</ele>
        <time>2018-07-07T09:34:41.000Z</time>
      </trkpt>
      <trkpt lat="44.19214" lon="6.80034">
        <ele>1871</ele>
        <time>2018-07-07T09:34:43.000Z</time>
      </trkpt>
      <trkpt lat="44.1921" lon="6.80041">
        <ele>1872</ele>
        <time>2018-07-07T09:34:47.000Z</time>
      </trkpt>
      <trkpt lat="44.19208" lon="6.80045">
        <ele>1872</ele>
        <time>2018-07-07T09:34:51.000Z</time>
      </trkpt>
      <trkpt lat="44.19208" lon="6.80046">
        <ele>1872</ele>
        <time>2018-07-07T09:34:52.000Z</time>
      </trkpt>
      <trkpt lat="44.19207" lon="6.8005">
        <ele>1872</ele>
        <time>2018-07-07T09:34:57.000Z</time>
      </trkpt>
      <trkpt lat="44.19206" lon="6.80051">
        <ele>1873</ele>
        <time>2018-07-07T09:34:59.000Z</time>
      </trkpt>
      <trkpt lat="44.19204" lon="6.80051">
        <ele>1873</ele>
        <time>2018-07-07T09:35:00.000Z</time>
      </trkpt>
      <trkpt lat="44.19204" lon="6.80052">
        <ele>1873</ele>
        <time>2018-07-07T09:35:02.000Z</time>
      </trkpt>
      <trkpt lat="44.192" lon="6.80054">
        <ele>1874</ele>
        <time>2018-07-07T09:35:06.000Z</time>
      </trkpt>
      <trkpt lat="44.19199" lon="6.80054">
        <ele>1874</ele>
        <time>2018-07-07T09:35:08.000Z</time>
      </trkpt>
      <trkpt lat="44.19199" lon="6.80057">
        <ele>1874</ele>
        <time>2018-07-07T09:35:14.000Z</time>
      </trkpt>
      <trkpt lat="44.19198" lon="6.80055">
        <ele>1874</ele>
        <time>2018-07-07T09:35:19.000Z</time>
      </trkpt>
      <trkpt lat="44.19198" lon="6.80055">
        <ele>1874</ele>
        <time>2018-07-07T09:35:20.000Z</time>
      </trkpt>
      <trkpt lat="44.19199" lon="6.80049">
        <ele>1874</ele>
        <time>2018-07-07T09:35:24.000Z</time>
      </trkpt>
      <trkpt lat="44.192" lon="6.80048">
        <ele>1874</ele>
        <time>2018-07-07T09:35:25.000Z</time>
      </trkpt>
      <trkpt lat="44.19206" lon="6.80036">
        <ele>1873</ele>
        <time>2018-07-07T09:35:31.000Z</time>
      </trkpt>
      <trkpt lat="44.19208" lon="6.80029">
        <ele>1872</ele>
        <time>2018-07-07T09:35:34.000Z</time>
      </trkpt>
      <trkpt lat="44.19207" lon="6.80027">
        <ele>1873</ele>
        <time>2018-07-07T09:35:35.000Z</time>
      </trkpt>
      <trkpt lat="44.19205" lon="6.80022">
        <ele>1873</ele>
        <time>2018-07-07T09:35:37.000Z</time>
      </trkpt>
      <trkpt lat="44.19207" lon="6.80017">
        <ele>1873</ele>
        <time>2018-07-07T09:35:41.000Z</time>
      </trkpt>
      <trkpt lat="44.1921" lon="6.80013">
        <ele>1872</ele>
        <time>2018-07-07T09:35:44.000Z</time>
      </trkpt>
      <trkpt lat="44.1921" lon="6.80011">
        <ele>1872</ele>
        <time>2018-07-07T09:35:45.000Z</time>
      </trkpt>
      <trkpt lat="44.19209" lon="6.8001">
        <ele>1872</ele>
        <time>2018-07-07T09:35:46.000Z</time>
      </trkpt>
      <trkpt lat="44.19203" lon="6.80003">
        <ele>1874</ele>
        <time>2018-07-07T09:35:50.000Z</time>
      </trkpt>
      <trkpt lat="44.19203" lon="6.80001">
        <ele>1874</ele>
        <time>2018-07-07T09:35:51.000Z</time>
      </trkpt>
      <trkpt lat="44.19203" lon="6.79999">
        <ele>1874</ele>
        <time>2018-07-07T09:35:54.000Z</time>
      </trkpt>
      <trkpt lat="44.19202" lon="6.79996">
        <ele>1875</ele>
        <time>2018-07-07T09:35:55.000Z</time>
      </trkpt>
      <trkpt lat="44.19202" lon="6.79991">
        <ele>1875</ele>
        <time>2018-07-07T09:35:57.000Z</time>
      </trkpt>
      <trkpt lat="44.19202" lon="6.7999">
        <ele>1874</ele>
        <time>2018-07-07T09:35:58.000Z</time>
      </trkpt>
      <trkpt lat="44.19201" lon="6.79988">
        <ele>1875</ele>
        <time>2018-07-07T09:36:00.000Z</time>
      </trkpt>
      <trkpt lat="44.19197" lon="6.79986">
        <ele>1876</ele>
        <time>2018-07-07T09:36:03.000Z</time>
      </trkpt>
      <trkpt lat="44.19196" lon="6.79986">
        <ele>1876</ele>
        <time>2018-07-07T09:36:04.000Z</time>
      </trkpt>
      <trkpt lat="44.19194" lon="6.79984">
        <ele>1876</ele>
        <time>2018-07-07T09:36:08.000Z</time>
      </trkpt>
      <trkpt lat="44.19195" lon="6.79983">
        <ele>1876</ele>
        <time>2018-07-07T09:36:12.000Z</time>
      </trkpt>
      <trkpt lat="44.19195" lon="6.79983">
        <ele>1876</ele>
        <time>2018-07-07T09:36:14.000Z</time>
      </trkpt>
      <trkpt lat="44.19191" lon="6.79978">
        <ele>1877</ele>
        <time>2018-07-07T09:36:20.000Z</time>
      </trkpt>
      <trkpt lat="44.19188" lon="6.79971">
        <ele>1877</ele>
        <time>2018-07-07T09:36:26.000Z</time>
      </trkpt>
      <trkpt lat="44.19187" lon="6.79963">
        <ele>1877</ele>
        <time>2018-07-07T09:36:31.000Z</time>
      </trkpt>
      <trkpt lat="44.19186" lon="6.79961">
        <ele>1877</ele>
        <time>2018-07-07T09:36:32.000Z</time>
      </trkpt>
      <trkpt lat="44.19185" lon="6.79956">
        <ele>1877</ele>
        <time>2018-07-07T09:36:34.000Z</time>
      </trkpt>
      <trkpt lat="44.19183" lon="6.79951">
        <ele>1878</ele>
        <time>2018-07-07T09:36:36.000Z</time>
      </trkpt>
      <trkpt lat="44.19183" lon="6.79949">
        <ele>1878</ele>
        <time>2018-07-07T09:36:37.000Z</time>
      </trkpt>
      <trkpt lat="44.19183" lon="6.79944">
        <ele>1879</ele>
        <time>2018-07-07T09:36:39.000Z</time>
      </trkpt>
      <trkpt lat="44.19185" lon="6.7994">
        <ele>1879</ele>
        <time>2018-07-07T09:36:41.000Z</time>
      </trkpt>
      <trkpt lat="44.19185" lon="6.79938">
        <ele>1879</ele>
        <time>2018-07-07T09:36:42.000Z</time>
      </trkpt>
      <trkpt lat="44.19187" lon="6.7993">
        <ele>1880</ele>
        <time>2018-07-07T09:36:46.000Z</time>
      </trkpt>
      <trkpt lat="44.19187" lon="6.79928">
        <ele>1880</ele>
        <time>2018-07-07T09:36:47.000Z</time>
      </trkpt>
      <trkpt lat="44.19189" lon="6.79921">
        <ele>1880</ele>
        <time>2018-07-07T09:36:51.000Z</time>
      </trkpt>
      <trkpt lat="44.19188" lon="6.79918">
        <ele>1880</ele>
        <time>2018-07-07T09:36:53.000Z</time>
      </trkpt>
      <trkpt lat="44.19189" lon="6.79916">
        <ele>1879</ele>
        <time>2018-07-07T09:36:54.000Z</time>
      </trkpt>
      <trkpt lat="44.1919" lon="6.79913">
        <ele>1879</ele>
        <time>2018-07-07T09:36:56.000Z</time>
      </trkpt>
      <trkpt lat="44.19189" lon="6.79909">
        <ele>1879</ele>
        <time>2018-07-07T09:36:58.000Z</time>
      </trkpt>
      <trkpt lat="44.19189" lon="6.79904">
        <ele>1878</ele>
        <time>2018-07-07T09:37:01.000Z</time>
      </trkpt>
      <trkpt lat="44.19187" lon="6.79901">
        <ele>1879</ele>
        <time>2018-07-07T09:37:03.000Z</time>
      </trkpt>
      <trkpt lat="44.19186" lon="6.79898">
        <ele>1878</ele>
        <time>2018-07-07T09:37:05.000Z</time>
      </trkpt>
      <trkpt lat="44.19185" lon="6.79898">
        <ele>1879</ele>
        <time>2018-07-07T09:37:06.000Z</time>
      </trkpt>
      <trkpt lat="44.19184" lon="6.79896">
        <ele>1879</ele>
        <time>2018-07-07T09:37:08.000Z</time>
      </trkpt>
      <trkpt lat="44.19184" lon="6.79894">
        <ele>1879</ele>
        <time>2018-07-07T09:37:09.000Z</time>
      </trkpt>
      <trkpt lat="44.19182" lon="6.79891">
        <ele>1878</ele>
        <time>2018-07-07T09:37:11.000Z</time>
      </trkpt>
      <trkpt lat="44.19179" lon="6.79885">
        <ele>1878</ele>
        <time>2018-07-07T09:37:15.000Z</time>
      </trkpt>
      <trkpt lat="44.1918" lon="6.79881">
        <ele>1877</ele>
        <time>2018-07-07T09:37:19.000Z</time>
      </trkpt>
      <trkpt lat="44.19181" lon="6.79877">
        <ele>1877</ele>
        <time>2018-07-07T09:37:22.000Z</time>
      </trkpt>
      <trkpt lat="44.19181" lon="6.79875">
        <ele>1877</ele>
        <time>2018-07-07T09:37:24.000Z</time>
      </trkpt>
      <trkpt lat="44.19181" lon="6.79868">
        <ele>1877</ele>
        <time>2018-07-07T09:37:30.000Z</time>
      </trkpt>
      <trkpt lat="44.19181" lon="6.79867">
        <ele>1877</ele>
        <time>2018-07-07T09:37:31.000Z</time>
      </trkpt>
      <trkpt lat="44.19179" lon="6.79863">
        <ele>1877</ele>
        <time>2018-07-07T09:37:34.000Z</time>
      </trkpt>
      <trkpt lat="44.19178" lon="6.79861">
        <ele>1878</ele>
        <time>2018-07-07T09:37:36.000Z</time>
      </trkpt>
      <trkpt lat="44.19177" lon="6.7986">
        <ele>1878</ele>
        <time>2018-07-07T09:37:37.000Z</time>
      </trkpt>
      <trkpt lat="44.19174" lon="6.79854">
        <ele>1879</ele>
        <time>2018-07-07T09:37:42.000Z</time>
      </trkpt>
      <trkpt lat="44.19173" lon="6.79851">
        <ele>1880</ele>
        <time>2018-07-07T09:37:44.000Z</time>
      </trkpt>
      <trkpt lat="44.19172" lon="6.79849">
        <ele>1880</ele>
        <time>2018-07-07T09:37:45.000Z</time>
      </trkpt>
      <trkpt lat="44.19171" lon="6.79845">
        <ele>1882</ele>
        <time>2018-07-07T09:37:48.000Z</time>
      </trkpt>
      <trkpt lat="44.19169" lon="6.79843">
        <ele>1882</ele>
        <time>2018-07-07T09:37:49.000Z</time>
      </trkpt>
      <trkpt lat="44.19168" lon="6.79841">
        <ele>1883</ele>
        <time>2018-07-07T09:37:51.000Z</time>
      </trkpt>
      <trkpt lat="44.19167" lon="6.79838">
        <ele>1890</ele>
        <time>2018-07-07T09:37:53.000Z</time>
      </trkpt>
      <trkpt lat="44.19164" lon="6.79835">
        <ele>1889</ele>
        <time>2018-07-07T09:37:56.000Z</time>
      </trkpt>
      <trkpt lat="44.19162" lon="6.79831">
        <ele>1888</ele>
        <time>2018-07-07T09:37:59.000Z</time>
      </trkpt>
      <trkpt lat="44.1916" lon="6.79824">
        <ele>1889</ele>
        <time>2018-07-07T09:38:04.000Z</time>
      </trkpt>
      <trkpt lat="44.19159" lon="6.79821">
        <ele>1890</ele>
        <time>2018-07-07T09:38:06.000Z</time>
      </trkpt>
      <trkpt lat="44.19156" lon="6.79816">
        <ele>1890</ele>
        <time>2018-07-07T09:38:11.000Z</time>
      </trkpt>
      <trkpt lat="44.19155" lon="6.79815">
        <ele>1891</ele>
        <time>2018-07-07T09:38:12.000Z</time>
      </trkpt>
      <trkpt lat="44.19152" lon="6.79814">
        <ele>1891</ele>
        <time>2018-07-07T09:38:18.000Z</time>
      </trkpt>
      <trkpt lat="44.19151" lon="6.79814">
        <ele>1891</ele>
        <time>2018-07-07T09:38:19.000Z</time>
      </trkpt>
      <trkpt lat="44.19148" lon="6.79812">
        <ele>1891</ele>
        <time>2018-07-07T09:38:24.000Z</time>
      </trkpt>
      <trkpt lat="44.19147" lon="6.79811">
        <ele>1892</ele>
        <time>2018-07-07T09:38:25.000Z</time>
      </trkpt>
      <trkpt lat="44.19146" lon="6.79811">
        <ele>1892</ele>
        <time>2018-07-07T09:38:26.000Z</time>
      </trkpt>
      <trkpt lat="44.19145" lon="6.79808">
        <ele>1892</ele>
        <time>2018-07-07T09:38:30.000Z</time>
      </trkpt>
      <trkpt lat="44.19144" lon="6.79804">
        <ele>1892</ele>
        <time>2018-07-07T09:38:34.000Z</time>
      </trkpt>
      <trkpt lat="44.19142" lon="6.798">
        <ele>1892</ele>
        <time>2018-07-07T09:38:37.000Z</time>
      </trkpt>
      <trkpt lat="44.19141" lon="6.79797">
        <ele>1892</ele>
        <time>2018-07-07T09:38:39.000Z</time>
      </trkpt>
      <trkpt lat="44.1914" lon="6.79795">
        <ele>1892</ele>
        <time>2018-07-07T09:38:41.000Z</time>
      </trkpt>
      <trkpt lat="44.1914" lon="6.79791">
        <ele>1891</ele>
        <time>2018-07-07T09:38:45.000Z</time>
      </trkpt>
      <trkpt lat="44.19139" lon="6.7979">
        <ele>1891</ele>
        <time>2018-07-07T09:38:46.000Z</time>
      </trkpt>
      <trkpt lat="44.19136" lon="6.7979">
        <ele>1892</ele>
        <time>2018-07-07T09:38:48.000Z</time>
      </trkpt>
      <trkpt lat="44.19136" lon="6.79792">
        <ele>1892</ele>
        <time>2018-07-07T09:38:50.000Z</time>
      </trkpt>
      <trkpt lat="44.19136" lon="6.79795">
        <ele>1892</ele>
        <time>2018-07-07T09:38:52.000Z</time>
      </trkpt>
      <trkpt lat="44.19136" lon="6.79799">
        <ele>1893</ele>
        <time>2018-07-07T09:38:55.000Z</time>
      </trkpt>
      <trkpt lat="44.19135" lon="6.79805">
        <ele>1893</ele>
        <time>2018-07-07T09:39:00.000Z</time>
      </trkpt>
      <trkpt lat="44.19134" lon="6.79808">
        <ele>1894</ele>
        <time>2018-07-07T09:39:03.000Z</time>
      </trkpt>
      <trkpt lat="44.19134" lon="6.79811">
        <ele>1894</ele>
        <time>2018-07-07T09:39:05.000Z</time>
      </trkpt>
      <trkpt lat="44.19134" lon="6.79813">
        <ele>1894</ele>
        <time>2018-07-07T09:39:07.000Z</time>
      </trkpt>
      <trkpt lat="44.19134" lon="6.79815">
        <ele>1894</ele>
        <time>2018-07-07T09:39:08.000Z</time>
      </trkpt>
      <trkpt lat="44.19136" lon="6.79821">
        <ele>1894</ele>
        <time>2018-07-07T09:39:12.000Z</time>
      </trkpt>
      <trkpt lat="44.19135" lon="6.79826">
        <ele>1894</ele>
        <time>2018-07-07T09:39:16.000Z</time>
      </trkpt>
      <trkpt lat="44.19135" lon="6.79828">
        <ele>1894</ele>
        <time>2018-07-07T09:39:17.000Z</time>
      </trkpt>
      <trkpt lat="44.19134" lon="6.79829">
        <ele>1894</ele>
        <time>2018-07-07T09:39:22.000Z</time>
      </trkpt>
      <trkpt lat="44.19133" lon="6.79831">
        <ele>1895</ele>
        <time>2018-07-07T09:39:23.000Z</time>
      </trkpt>
      <trkpt lat="44.19134" lon="6.79835">
        <ele>1901</ele>
        <time>2018-07-07T09:39:26.000Z</time>
      </trkpt>
      <trkpt lat="44.19134" lon="6.79839">
        <ele>1901</ele>
        <time>2018-07-07T09:39:29.000Z</time>
      </trkpt>
      <trkpt lat="44.19135" lon="6.79844">
        <ele>1901</ele>
        <time>2018-07-07T09:39:32.000Z</time>
      </trkpt>
      <trkpt lat="44.19136" lon="6.79848">
        <ele>1901</ele>
        <time>2018-07-07T09:39:35.000Z</time>
      </trkpt>
      <trkpt lat="44.19136" lon="6.7985">
        <ele>1901</ele>
        <time>2018-07-07T09:39:36.000Z</time>
      </trkpt>
      <trkpt lat="44.19136" lon="6.79855">
        <ele>1901</ele>
        <time>2018-07-07T09:39:39.000Z</time>
      </trkpt>
      <trkpt lat="44.19135" lon="6.79857">
        <ele>1901</ele>
        <time>2018-07-07T09:39:40.000Z</time>
      </trkpt>
      <trkpt lat="44.19133" lon="6.79859">
        <ele>1902</ele>
        <time>2018-07-07T09:39:42.000Z</time>
      </trkpt>
      <trkpt lat="44.19131" lon="6.7986">
        <ele>1902</ele>
        <time>2018-07-07T09:39:44.000Z</time>
      </trkpt>
      <trkpt lat="44.1913" lon="6.79862">
        <ele>1903</ele>
        <time>2018-07-07T09:39:46.000Z</time>
      </trkpt>
      <trkpt lat="44.19129" lon="6.79864">
        <ele>1903</ele>
        <time>2018-07-07T09:39:48.000Z</time>
      </trkpt>
      <trkpt lat="44.19128" lon="6.79867">
        <ele>1903</ele>
        <time>2018-07-07T09:39:50.000Z</time>
      </trkpt>
      <trkpt lat="44.19127" lon="6.79869">
        <ele>1903</ele>
        <time>2018-07-07T09:39:51.000Z</time>
      </trkpt>
      <trkpt lat="44.19126" lon="6.79873">
        <ele>1904</ele>
        <time>2018-07-07T09:39:54.000Z</time>
      </trkpt>
      <trkpt lat="44.19124" lon="6.79877">
        <ele>1904</ele>
        <time>2018-07-07T09:39:57.000Z</time>
      </trkpt>
      <trkpt lat="44.19124" lon="6.79878">
        <ele>1904</ele>
        <time>2018-07-07T09:39:58.000Z</time>
      </trkpt>
      <trkpt lat="44.19122" lon="6.79881">
        <ele>1905</ele>
        <time>2018-07-07T09:40:01.000Z</time>
      </trkpt>
      <trkpt lat="44.19121" lon="6.79884">
        <ele>1905</ele>
        <time>2018-07-07T09:40:03.000Z</time>
      </trkpt>
      <trkpt lat="44.19118" lon="6.79887">
        <ele>1906</ele>
        <time>2018-07-07T09:40:06.000Z</time>
      </trkpt>
      <trkpt lat="44.19118" lon="6.79888">
        <ele>1906</ele>
        <time>2018-07-07T09:40:07.000Z</time>
      </trkpt>
      <trkpt lat="44.19117" lon="6.7989">
        <ele>1906</ele>
        <time>2018-07-07T09:40:09.000Z</time>
      </trkpt>
      <trkpt lat="44.19116" lon="6.79893">
        <ele>1906</ele>
        <time>2018-07-07T09:40:12.000Z</time>
      </trkpt>
      <trkpt lat="44.19117" lon="6.79898">
        <ele>1906</ele>
        <time>2018-07-07T09:40:15.000Z</time>
      </trkpt>
      <trkpt lat="44.19116" lon="6.79907">
        <ele>1907</ele>
        <time>2018-07-07T09:40:19.000Z</time>
      </trkpt>
      <trkpt lat="44.19117" lon="6.79908">
        <ele>1907</ele>
        <time>2018-07-07T09:40:20.000Z</time>
      </trkpt>
      <trkpt lat="44.19117" lon="6.79916">
        <ele>1907</ele>
        <time>2018-07-07T09:40:24.000Z</time>
      </trkpt>
      <trkpt lat="44.19117" lon="6.79917">
        <ele>1907</ele>
        <time>2018-07-07T09:40:25.000Z</time>
      </trkpt>
      <trkpt lat="44.19116" lon="6.7992">
        <ele>1908</ele>
        <time>2018-07-07T09:40:29.000Z</time>
      </trkpt>
      <trkpt lat="44.19115" lon="6.79922">
        <ele>1908</ele>
        <time>2018-07-07T09:40:33.000Z</time>
      </trkpt>
      <trkpt lat="44.19115" lon="6.79923">
        <ele>1908</ele>
        <time>2018-07-07T09:40:34.000Z</time>
      </trkpt>
      <trkpt lat="44.19115" lon="6.79925">
        <ele>1908</ele>
        <time>2018-07-07T09:40:36.000Z</time>
      </trkpt>
      <trkpt lat="44.19114" lon="6.79933">
        <ele>1908</ele>
        <time>2018-07-07T09:40:40.000Z</time>
      </trkpt>
      <trkpt lat="44.19113" lon="6.79936">
        <ele>1908</ele>
        <time>2018-07-07T09:40:42.000Z</time>
      </trkpt>
      <trkpt lat="44.19112" lon="6.79937">
        <ele>1908</ele>
        <time>2018-07-07T09:40:43.000Z</time>
      </trkpt>
      <trkpt lat="44.19112" lon="6.79939">
        <ele>1908</ele>
        <time>2018-07-07T09:40:45.000Z</time>
      </trkpt>
      <trkpt lat="44.1911" lon="6.79944">
        <ele>1908</ele>
        <time>2018-07-07T09:40:50.000Z</time>
      </trkpt>
      <trkpt lat="44.19104" lon="6.79948">
        <ele>1908</ele>
        <time>2018-07-07T09:40:56.000Z</time>
      </trkpt>
      <trkpt lat="44.19103" lon="6.7995">
        <ele>1908</ele>
        <time>2018-07-07T09:40:58.000Z</time>
      </trkpt>
      <trkpt lat="44.19099" lon="6.79958">
        <ele>1908</ele>
        <time>2018-07-07T09:41:03.000Z</time>
      </trkpt>
      <trkpt lat="44.19098" lon="6.7996">
        <ele>1909</ele>
        <time>2018-07-07T09:41:05.000Z</time>
      </trkpt>
      <trkpt lat="44.19097" lon="6.79962">
        <ele>1909</ele>
        <time>2018-07-07T09:41:08.000Z</time>
      </trkpt>
      <trkpt lat="44.19096" lon="6.79964">
        <ele>1909</ele>
        <time>2018-07-07T09:41:10.000Z</time>
      </trkpt>
      <trkpt lat="44.19095" lon="6.79967">
        <ele>1909</ele>
        <time>2018-07-07T09:41:13.000Z</time>
      </trkpt>
      <trkpt lat="44.19093" lon="6.79966">
        <ele>1909</ele>
        <time>2018-07-07T09:41:15.000Z</time>
      </trkpt>
      <trkpt lat="44.19094" lon="6.79963">
        <ele>1909</ele>
        <time>2018-07-07T09:41:17.000Z</time>
      </trkpt>
      <trkpt lat="44.19093" lon="6.79957">
        <ele>1909</ele>
        <time>2018-07-07T09:41:22.000Z</time>
      </trkpt>
      <trkpt lat="44.19093" lon="6.79953">
        <ele>1909</ele>
        <time>2018-07-07T09:41:25.000Z</time>
      </trkpt>
      <trkpt lat="44.19093" lon="6.79951">
        <ele>1910</ele>
        <time>2018-07-07T09:41:27.000Z</time>
      </trkpt>
      <trkpt lat="44.19092" lon="6.7995">
        <ele>1910</ele>
        <time>2018-07-07T09:41:28.000Z</time>
      </trkpt>
      <trkpt lat="44.19092" lon="6.79948">
        <ele>1910</ele>
        <time>2018-07-07T09:41:29.000Z</time>
      </trkpt>
      <trkpt lat="44.1909" lon="6.79944">
        <ele>1911</ele>
        <time>2018-07-07T09:41:32.000Z</time>
      </trkpt>
      <trkpt lat="44.19087" lon="6.7994">
        <ele>1911</ele>
        <time>2018-07-07T09:41:35.000Z</time>
      </trkpt>
      <trkpt lat="44.19086" lon="6.79936">
        <ele>1912</ele>
        <time>2018-07-07T09:41:38.000Z</time>
      </trkpt>
      <trkpt lat="44.19085" lon="6.79934">
        <ele>1913</ele>
        <time>2018-07-07T09:41:40.000Z</time>
      </trkpt>
      <trkpt lat="44.19084" lon="6.79931">
        <ele>1914</ele>
        <time>2018-07-07T09:41:42.000Z</time>
      </trkpt>
      <trkpt lat="44.19081" lon="6.79929">
        <ele>1925</ele>
        <time>2018-07-07T09:41:44.000Z</time>
      </trkpt>
      <trkpt lat="44.1908" lon="6.79926">
        <ele>1924</ele>
        <time>2018-07-07T09:41:46.000Z</time>
      </trkpt>
      <trkpt lat="44.19078" lon="6.7992">
        <ele>1923</ele>
        <time>2018-07-07T09:41:50.000Z</time>
      </trkpt>
      <trkpt lat="44.19077" lon="6.79918">
        <ele>1923</ele>
        <time>2018-07-07T09:41:52.000Z</time>
      </trkpt>
      <trkpt lat="44.19076" lon="6.79914">
        <ele>1923</ele>
        <time>2018-07-07T09:41:55.000Z</time>
      </trkpt>
      <trkpt lat="44.19075" lon="6.79913">
        <ele>1924</ele>
        <time>2018-07-07T09:41:56.000Z</time>
      </trkpt>
      <trkpt lat="44.19074" lon="6.79909">
        <ele>1925</ele>
        <time>2018-07-07T09:41:59.000Z</time>
      </trkpt>
      <trkpt lat="44.19073" lon="6.79906">
        <ele>1925</ele>
        <time>2018-07-07T09:42:01.000Z</time>
      </trkpt>
      <trkpt lat="44.19073" lon="6.79904">
        <ele>1926</ele>
        <time>2018-07-07T09:42:03.000Z</time>
      </trkpt>
      <trkpt lat="44.19071" lon="6.79901">
        <ele>1926</ele>
        <time>2018-07-07T09:42:05.000Z</time>
      </trkpt>
      <trkpt lat="44.19068" lon="6.79895">
        <ele>1927</ele>
        <time>2018-07-07T09:42:10.000Z</time>
      </trkpt>
      <trkpt lat="44.19068" lon="6.79894">
        <ele>1927</ele>
        <time>2018-07-07T09:42:11.000Z</time>
      </trkpt>
      <trkpt lat="44.19065" lon="6.7989">
        <ele>1928</ele>
        <time>2018-07-07T09:42:15.000Z</time>
      </trkpt>
      <trkpt lat="44.19063" lon="6.79888">
        <ele>1928</ele>
        <time>2018-07-07T09:42:17.000Z</time>
      </trkpt>
      <trkpt lat="44.1906" lon="6.79885">
        <ele>1929</ele>
        <time>2018-07-07T09:42:20.000Z</time>
      </trkpt>
      <trkpt lat="44.19058" lon="6.79882">
        <ele>1929</ele>
        <time>2018-07-07T09:42:23.000Z</time>
      </trkpt>
      <trkpt lat="44.19052" lon="6.79872">
        <ele>1930</ele>
        <time>2018-07-07T09:42:31.000Z</time>
      </trkpt>
      <trkpt lat="44.19051" lon="6.7987">
        <ele>1930</ele>
        <time>2018-07-07T09:42:32.000Z</time>
      </trkpt>
      <trkpt lat="44.1905" lon="6.79868">
        <ele>1930</ele>
        <time>2018-07-07T09:42:34.000Z</time>
      </trkpt>
      <trkpt lat="44.1905" lon="6.79868">
        <ele>1930</ele>
        <time>2018-07-07T09:42:36.000Z</time>
      </trkpt>
      <trkpt lat="44.1905" lon="6.79868">
        <ele>1930</ele>
        <time>2018-07-07T09:42:37.000Z</time>
      </trkpt>
      <trkpt lat="44.1905" lon="6.79867">
        <ele>1930</ele>
        <time>2018-07-07T09:42:41.000Z</time>
      </trkpt>
      <trkpt lat="44.19046" lon="6.7986">
        <ele>1931</ele>
        <time>2018-07-07T09:42:47.000Z</time>
      </trkpt>
      <trkpt lat="44.19043" lon="6.79855">
        <ele>1931</ele>
        <time>2018-07-07T09:42:52.000Z</time>
      </trkpt>
      <trkpt lat="44.19043" lon="6.79853">
        <ele>1931</ele>
        <time>2018-07-07T09:42:53.000Z</time>
      </trkpt>
      <trkpt lat="44.19041" lon="6.79845">
        <ele>1931</ele>
        <time>2018-07-07T09:42:59.000Z</time>
      </trkpt>
      <trkpt lat="44.1904" lon="6.79844">
        <ele>1932</ele>
        <time>2018-07-07T09:43:00.000Z</time>
      </trkpt>
      <trkpt lat="44.19037" lon="6.79839">
        <ele>1932</ele>
        <time>2018-07-07T09:43:05.000Z</time>
      </trkpt>
      <trkpt lat="44.19036" lon="6.79837">
        <ele>1932</ele>
        <time>2018-07-07T09:43:06.000Z</time>
      </trkpt>
      <trkpt lat="44.19035" lon="6.79829">
        <ele>1928</ele>
        <time>2018-07-07T09:43:12.000Z</time>
      </trkpt>
      <trkpt lat="44.19035" lon="6.79828">
        <ele>1928</ele>
        <time>2018-07-07T09:43:13.000Z</time>
      </trkpt>
      <trkpt lat="44.19035" lon="6.79828">
        <ele>1928</ele>
        <time>2018-07-07T09:43:19.000Z</time>
      </trkpt>
      <trkpt lat="44.19035" lon="6.79825">
        <ele>1928</ele>
        <time>2018-07-07T09:43:24.000Z</time>
      </trkpt>
      <trkpt lat="44.19033" lon="6.79821">
        <ele>1928</ele>
        <time>2018-07-07T09:43:26.000Z</time>
      </trkpt>
      <trkpt lat="44.19031" lon="6.79817">
        <ele>1928</ele>
        <time>2018-07-07T09:43:29.000Z</time>
      </trkpt>
      <trkpt lat="44.19031" lon="6.79816">
        <ele>1928</ele>
        <time>2018-07-07T09:43:30.000Z</time>
      </trkpt>
      <trkpt lat="44.19028" lon="6.7981">
        <ele>1928</ele>
        <time>2018-07-07T09:43:34.000Z</time>
      </trkpt>
      <trkpt lat="44.19027" lon="6.7981">
        <ele>1928</ele>
        <time>2018-07-07T09:43:38.000Z</time>
      </trkpt>
      <trkpt lat="44.19024" lon="6.79806">
        <ele>1928</ele>
        <time>2018-07-07T09:43:43.000Z</time>
      </trkpt>
      <trkpt lat="44.19018" lon="6.79798">
        <ele>1928</ele>
        <time>2018-07-07T09:43:49.000Z</time>
      </trkpt>
      <trkpt lat="44.19012" lon="6.7979">
        <ele>1928</ele>
        <time>2018-07-07T09:43:54.000Z</time>
      </trkpt>
      <trkpt lat="44.19011" lon="6.79787">
        <ele>1928</ele>
        <time>2018-07-07T09:43:57.000Z</time>
      </trkpt>
      <trkpt lat="44.19009" lon="6.79785">
        <ele>1928</ele>
        <time>2018-07-07T09:43:59.000Z</time>
      </trkpt>
      <trkpt lat="44.19007" lon="6.79782">
        <ele>1928</ele>
        <time>2018-07-07T09:44:01.000Z</time>
      </trkpt>
      <trkpt lat="44.19" lon="6.79775">
        <ele>1948</ele>
        <time>2018-07-07T09:44:07.000Z</time>
      </trkpt>
      <trkpt lat="44.18997" lon="6.7977">
        <ele>1947</ele>
        <time>2018-07-07T09:44:12.000Z</time>
      </trkpt>
      <trkpt lat="44.18996" lon="6.79769">
        <ele>1947</ele>
        <time>2018-07-07T09:44:13.000Z</time>
      </trkpt>
      <trkpt lat="44.18996" lon="6.79768">
        <ele>1946</ele>
        <time>2018-07-07T09:44:17.000Z</time>
      </trkpt>
      <trkpt lat="44.18994" lon="6.79767">
        <ele>1946</ele>
        <time>2018-07-07T09:44:21.000Z</time>
      </trkpt>
      <trkpt lat="44.18992" lon="6.79765">
        <ele>1946</ele>
        <time>2018-07-07T09:44:25.000Z</time>
      </trkpt>
      <trkpt lat="44.18991" lon="6.79764">
        <ele>1946</ele>
        <time>2018-07-07T09:44:27.000Z</time>
      </trkpt>
      <trkpt lat="44.18988" lon="6.79759">
        <ele>1945</ele>
        <time>2018-07-07T09:44:33.000Z</time>
      </trkpt>
      <trkpt lat="44.18984" lon="6.79755">
        <ele>1946</ele>
        <time>2018-07-07T09:44:40.000Z</time>
      </trkpt>
      <trkpt lat="44.18983" lon="6.79753">
        <ele>1947</ele>
        <time>2018-07-07T09:44:42.000Z</time>
      </trkpt>
      <trkpt lat="44.18981" lon="6.7975">
        <ele>1947</ele>
        <time>2018-07-07T09:44:47.000Z</time>
      </trkpt>
      <trkpt lat="44.1898" lon="6.79749">
        <ele>1940</ele>
        <time>2018-07-07T09:44:49.000Z</time>
      </trkpt>
      <trkpt lat="44.18976" lon="6.79745">
        <ele>1941</ele>
        <time>2018-07-07T09:44:55.000Z</time>
      </trkpt>
      <trkpt lat="44.18976" lon="6.79744">
        <ele>1941</ele>
        <time>2018-07-07T09:44:56.000Z</time>
      </trkpt>
      <trkpt lat="44.18976" lon="6.79744">
        <ele>1941</ele>
        <time>2018-07-07T09:45:01.000Z</time>
      </trkpt>
      <trkpt lat="44.18973" lon="6.7974">
        <ele>1942</ele>
        <time>2018-07-07T09:45:06.000Z</time>
      </trkpt>
      <trkpt lat="44.18973" lon="6.79739">
        <ele>1942</ele>
        <time>2018-07-07T09:45:07.000Z</time>
      </trkpt>
      <trkpt lat="44.18972" lon="6.79737">
        <ele>1942</ele>
        <time>2018-07-07T09:45:09.000Z</time>
      </trkpt>
      <trkpt lat="44.1897" lon="6.79735">
        <ele>1943</ele>
        <time>2018-07-07T09:45:12.000Z</time>
      </trkpt>
      <trkpt lat="44.18968" lon="6.79733">
        <ele>1943</ele>
        <time>2018-07-07T09:45:14.000Z</time>
      </trkpt>
      <trkpt lat="44.18966" lon="6.79731">
        <ele>1944</ele>
        <time>2018-07-07T09:45:17.000Z</time>
      </trkpt>
      <trkpt lat="44.18964" lon="6.79728">
        <ele>1944</ele>
        <time>2018-07-07T09:45:21.000Z</time>
      </trkpt>
      <trkpt lat="44.18964" lon="6.79727">
        <ele>1944</ele>
        <time>2018-07-07T09:45:24.000Z</time>
      </trkpt>
      <trkpt lat="44.18962" lon="6.79726">
        <ele>1944</ele>
        <time>2018-07-07T09:45:28.000Z</time>
      </trkpt>
      <trkpt lat="44.18959" lon="6.79724">
        <ele>1945</ele>
        <time>2018-07-07T09:45:31.000Z</time>
      </trkpt>
      <trkpt lat="44.18957" lon="6.79722">
        <ele>1945</ele>
        <time>2018-07-07T09:45:35.000Z</time>
      </trkpt>
      <trkpt lat="44.18955" lon="6.79721">
        <ele>1945</ele>
        <time>2018-07-07T09:45:37.000Z</time>
      </trkpt>
      <trkpt lat="44.18952" lon="6.79718">
        <ele>1946</ele>
        <time>2018-07-07T09:45:41.000Z</time>
      </trkpt>
      <trkpt lat="44.18949" lon="6.79715">
        <ele>1946</ele>
        <time>2018-07-07T09:45:45.000Z</time>
      </trkpt>
      <trkpt lat="44.18949" lon="6.79715">
        <ele>1946</ele>
        <time>2018-07-07T09:45:46.000Z</time>
      </trkpt>
      <trkpt lat="44.18948" lon="6.79714">
        <ele>1946</ele>
        <time>2018-07-07T09:45:49.000Z</time>
      </trkpt>
      <trkpt lat="44.18947" lon="6.79715">
        <ele>1947</ele>
        <time>2018-07-07T09:45:50.000Z</time>
      </trkpt>
      <trkpt lat="44.18947" lon="6.79715">
        <ele>1947</ele>
        <time>2018-07-07T09:45:52.000Z</time>
      </trkpt>
      <trkpt lat="44.18946" lon="6.79717">
        <ele>1947</ele>
        <time>2018-07-07T09:45:55.000Z</time>
      </trkpt>
      <trkpt lat="44.18947" lon="6.79718">
        <ele>1947</ele>
        <time>2018-07-07T09:45:57.000Z</time>
      </trkpt>
      <trkpt lat="44.18948" lon="6.7972">
        <ele>1947</ele>
        <time>2018-07-07T09:45:58.000Z</time>
      </trkpt>
      <trkpt lat="44.18949" lon="6.79725">
        <ele>1948</ele>
        <time>2018-07-07T09:46:01.000Z</time>
      </trkpt>
      <trkpt lat="44.18949" lon="6.79731">
        <ele>1949</ele>
        <time>2018-07-07T09:46:05.000Z</time>
      </trkpt>
      <trkpt lat="44.18952" lon="6.79734">
        <ele>1948</ele>
        <time>2018-07-07T09:46:08.000Z</time>
      </trkpt>
      <trkpt lat="44.18954" lon="6.79739">
        <ele>1948</ele>
        <time>2018-07-07T09:46:11.000Z</time>
      </trkpt>
      <trkpt lat="44.18955" lon="6.7974">
        <ele>1948</ele>
        <time>2018-07-07T09:46:12.000Z</time>
      </trkpt>
      <trkpt lat="44.18956" lon="6.79746">
        <ele>1948</ele>
        <time>2018-07-07T09:46:15.000Z</time>
      </trkpt>
      <trkpt lat="44.18956" lon="6.79747">
        <ele>1948</ele>
        <time>2018-07-07T09:46:16.000Z</time>
      </trkpt>
      <trkpt lat="44.18956" lon="6.79749">
        <ele>1948</ele>
        <time>2018-07-07T09:46:17.000Z</time>
      </trkpt>
      <trkpt lat="44.18956" lon="6.79759">
        <ele>1958</ele>
        <time>2018-07-07T09:46:23.000Z</time>
      </trkpt>
      <trkpt lat="44.18955" lon="6.79763">
        <ele>1959</ele>
        <time>2018-07-07T09:46:25.000Z</time>
      </trkpt>
      <trkpt lat="44.18954" lon="6.7977">
        <ele>1959</ele>
        <time>2018-07-07T09:46:29.000Z</time>
      </trkpt>
      <trkpt lat="44.18953" lon="6.79772">
        <ele>1959</ele>
        <time>2018-07-07T09:46:31.000Z</time>
      </trkpt>
      <trkpt lat="44.18953" lon="6.79774">
        <ele>1959</ele>
        <time>2018-07-07T09:46:32.000Z</time>
      </trkpt>
      <trkpt lat="44.18955" lon="6.79779">
        <ele>1959</ele>
        <time>2018-07-07T09:46:35.000Z</time>
      </trkpt>
      <trkpt lat="44.18957" lon="6.79781">
        <ele>1959</ele>
        <time>2018-07-07T09:46:37.000Z</time>
      </trkpt>
      <trkpt lat="44.18959" lon="6.79787">
        <ele>1959</ele>
        <time>2018-07-07T09:46:41.000Z</time>
      </trkpt>
      <trkpt lat="44.1896" lon="6.79789">
        <ele>1959</ele>
        <time>2018-07-07T09:46:42.000Z</time>
      </trkpt>
      <trkpt lat="44.1896" lon="6.79793">
        <ele>1959</ele>
        <time>2018-07-07T09:46:45.000Z</time>
      </trkpt>
      <trkpt lat="44.18961" lon="6.79795">
        <ele>1959</ele>
        <time>2018-07-07T09:46:46.000Z</time>
      </trkpt>
      <trkpt lat="44.18962" lon="6.79797">
        <ele>1959</ele>
        <time>2018-07-07T09:46:48.000Z</time>
      </trkpt>
      <trkpt lat="44.18961" lon="6.79805">
        <ele>1959</ele>
        <time>2018-07-07T09:46:53.000Z</time>
      </trkpt>
      <trkpt lat="44.18961" lon="6.79806">
        <ele>1959</ele>
        <time>2018-07-07T09:46:54.000Z</time>
      </trkpt>
      <trkpt lat="44.1896" lon="6.79814">
        <ele>1960</ele>
        <time>2018-07-07T09:46:59.000Z</time>
      </trkpt>
      <trkpt lat="44.18959" lon="6.7982">
        <ele>1960</ele>
        <time>2018-07-07T09:47:03.000Z</time>
      </trkpt>
      <trkpt lat="44.18958" lon="6.79821">
        <ele>1961</ele>
        <time>2018-07-07T09:47:04.000Z</time>
      </trkpt>
      <trkpt lat="44.18957" lon="6.79828">
        <ele>1961</ele>
        <time>2018-07-07T09:47:09.000Z</time>
      </trkpt>
      <trkpt lat="44.18957" lon="6.79832">
        <ele>1961</ele>
        <time>2018-07-07T09:47:11.000Z</time>
      </trkpt>
      <trkpt lat="44.18956" lon="6.79839">
        <ele>1966</ele>
        <time>2018-07-07T09:47:15.000Z</time>
      </trkpt>
      <trkpt lat="44.18954" lon="6.79844">
        <ele>1967</ele>
        <time>2018-07-07T09:47:19.000Z</time>
      </trkpt>
      <trkpt lat="44.18954" lon="6.79846">
        <ele>1967</ele>
        <time>2018-07-07T09:47:20.000Z</time>
      </trkpt>
      <trkpt lat="44.18953" lon="6.7985">
        <ele>1967</ele>
        <time>2018-07-07T09:47:23.000Z</time>
      </trkpt>
      <trkpt lat="44.18952" lon="6.79852">
        <ele>1967</ele>
        <time>2018-07-07T09:47:25.000Z</time>
      </trkpt>
      <trkpt lat="44.18952" lon="6.79858">
        <ele>1967</ele>
        <time>2018-07-07T09:47:29.000Z</time>
      </trkpt>
      <trkpt lat="44.18953" lon="6.79862">
        <ele>1967</ele>
        <time>2018-07-07T09:47:31.000Z</time>
      </trkpt>
      <trkpt lat="44.18954" lon="6.7987">
        <ele>1967</ele>
        <time>2018-07-07T09:47:36.000Z</time>
      </trkpt>
      <trkpt lat="44.18954" lon="6.79873">
        <ele>1967</ele>
        <time>2018-07-07T09:47:38.000Z</time>
      </trkpt>
      <trkpt lat="44.18955" lon="6.79886">
        <ele>1967</ele>
        <time>2018-07-07T09:47:45.000Z</time>
      </trkpt>
      <trkpt lat="44.18955" lon="6.79895">
        <ele>1968</ele>
        <time>2018-07-07T09:47:50.000Z</time>
      </trkpt>
      <trkpt lat="44.18955" lon="6.79898">
        <ele>1968</ele>
        <time>2018-07-07T09:47:52.000Z</time>
      </trkpt>
      <trkpt lat="44.18955" lon="6.79902">
        <ele>1968</ele>
        <time>2018-07-07T09:47:54.000Z</time>
      </trkpt>
      <trkpt lat="44.18955" lon="6.79905">
        <ele>1968</ele>
        <time>2018-07-07T09:47:56.000Z</time>
      </trkpt>
      <trkpt lat="44.18954" lon="6.79908">
        <ele>1968</ele>
        <time>2018-07-07T09:47:58.000Z</time>
      </trkpt>
      <trkpt lat="44.18954" lon="6.79911">
        <ele>1968</ele>
        <time>2018-07-07T09:47:59.000Z</time>
      </trkpt>
      <trkpt lat="44.18954" lon="6.79918">
        <ele>1972</ele>
        <time>2018-07-07T09:48:03.000Z</time>
      </trkpt>
      <trkpt lat="44.18954" lon="6.7992">
        <ele>1972</ele>
        <time>2018-07-07T09:48:04.000Z</time>
      </trkpt>
      <trkpt lat="44.18952" lon="6.79928">
        <ele>1973</ele>
        <time>2018-07-07T09:48:10.000Z</time>
      </trkpt>
      <trkpt lat="44.18952" lon="6.79929">
        <ele>1973</ele>
        <time>2018-07-07T09:48:11.000Z</time>
      </trkpt>
      <trkpt lat="44.18953" lon="6.79937">
        <ele>1973</ele>
        <time>2018-07-07T09:48:16.000Z</time>
      </trkpt>
      <trkpt lat="44.18952" lon="6.79938">
        <ele>1973</ele>
        <time>2018-07-07T09:48:17.000Z</time>
      </trkpt>
      <trkpt lat="44.18952" lon="6.79939">
        <ele>1973</ele>
        <time>2018-07-07T09:48:18.000Z</time>
      </trkpt>
      <trkpt lat="44.18951" lon="6.79949">
        <ele>1973</ele>
        <time>2018-07-07T09:48:25.000Z</time>
      </trkpt>
      <trkpt lat="44.1895" lon="6.7995">
        <ele>1974</ele>
        <time>2018-07-07T09:48:26.000Z</time>
      </trkpt>
      <trkpt lat="44.18948" lon="6.7996">
        <ele>1974</ele>
        <time>2018-07-07T09:48:33.000Z</time>
      </trkpt>
      <trkpt lat="44.18948" lon="6.79961">
        <ele>1975</ele>
        <time>2018-07-07T09:48:34.000Z</time>
      </trkpt>
      <trkpt lat="44.18948" lon="6.79963">
        <ele>1975</ele>
        <time>2018-07-07T09:48:38.000Z</time>
      </trkpt>
      <trkpt lat="44.18946" lon="6.79969">
        <ele>1976</ele>
        <time>2018-07-07T09:48:43.000Z</time>
      </trkpt>
      <trkpt lat="44.18946" lon="6.79972">
        <ele>1976</ele>
        <time>2018-07-07T09:48:45.000Z</time>
      </trkpt>
      <trkpt lat="44.18945" lon="6.79973">
        <ele>1976</ele>
        <time>2018-07-07T09:48:46.000Z</time>
      </trkpt>
      <trkpt lat="44.18945" lon="6.79977">
        <ele>1977</ele>
        <time>2018-07-07T09:48:49.000Z</time>
      </trkpt>
      <trkpt lat="44.18945" lon="6.79979">
        <ele>1977</ele>
        <time>2018-07-07T09:48:50.000Z</time>
      </trkpt>
      <trkpt lat="44.18945" lon="6.79981">
        <ele>1977</ele>
        <time>2018-07-07T09:48:52.000Z</time>
      </trkpt>
      <trkpt lat="44.18945" lon="6.79986">
        <ele>1978</ele>
        <time>2018-07-07T09:48:55.000Z</time>
      </trkpt>
      <trkpt lat="44.18945" lon="6.79987">
        <ele>1978</ele>
        <time>2018-07-07T09:48:56.000Z</time>
      </trkpt>
      <trkpt lat="44.18944" lon="6.79995">
        <ele>1979</ele>
        <time>2018-07-07T09:49:02.000Z</time>
      </trkpt>
      <trkpt lat="44.18945" lon="6.80001">
        <ele>1985</ele>
        <time>2018-07-07T09:49:07.000Z</time>
      </trkpt>
      <trkpt lat="44.18945" lon="6.80002">
        <ele>1984</ele>
        <time>2018-07-07T09:49:08.000Z</time>
      </trkpt>
      <trkpt lat="44.18945" lon="6.80004">
        <ele>1985</ele>
        <time>2018-07-07T09:49:09.000Z</time>
      </trkpt>
      <trkpt lat="44.18945" lon="6.80005">
        <ele>1985</ele>
        <time>2018-07-07T09:49:10.000Z</time>
      </trkpt>
      <trkpt lat="44.18944" lon="6.80008">
        <ele>1985</ele>
        <time>2018-07-07T09:49:12.000Z</time>
      </trkpt>
      <trkpt lat="44.18945" lon="6.80017">
        <ele>1985</ele>
        <time>2018-07-07T09:49:18.000Z</time>
      </trkpt>
      <trkpt lat="44.18945" lon="6.80019">
        <ele>1984</ele>
        <time>2018-07-07T09:49:19.000Z</time>
      </trkpt>
      <trkpt lat="44.18946" lon="6.80031">
        <ele>1984</ele>
        <time>2018-07-07T09:49:26.000Z</time>
      </trkpt>
      <trkpt lat="44.18949" lon="6.8004">
        <ele>1984</ele>
        <time>2018-07-07T09:49:31.000Z</time>
      </trkpt>
      <trkpt lat="44.18949" lon="6.80041">
        <ele>1984</ele>
        <time>2018-07-07T09:49:32.000Z</time>
      </trkpt>
      <trkpt lat="44.18952" lon="6.80051">
        <ele>1984</ele>
        <time>2018-07-07T09:49:38.000Z</time>
      </trkpt>
      <trkpt lat="44.18951" lon="6.80053">
        <ele>1985</ele>
        <time>2018-07-07T09:49:39.000Z</time>
      </trkpt>
      <trkpt lat="44.18952" lon="6.80058">
        <ele>1985</ele>
        <time>2018-07-07T09:49:42.000Z</time>
      </trkpt>
      <trkpt lat="44.18951" lon="6.8006">
        <ele>1985</ele>
        <time>2018-07-07T09:49:43.000Z</time>
      </trkpt>
      <trkpt lat="44.18949" lon="6.80066">
        <ele>1987</ele>
        <time>2018-07-07T09:49:48.000Z</time>
      </trkpt>
      <trkpt lat="44.18949" lon="6.80068">
        <ele>1987</ele>
        <time>2018-07-07T09:49:50.000Z</time>
      </trkpt>
      <trkpt lat="44.18947" lon="6.80069">
        <ele>1988</ele>
        <time>2018-07-07T09:49:52.000Z</time>
      </trkpt>
      <trkpt lat="44.18946" lon="6.8007">
        <ele>1988</ele>
        <time>2018-07-07T09:49:53.000Z</time>
      </trkpt>
      <trkpt lat="44.18942" lon="6.80073">
        <ele>1991</ele>
        <time>2018-07-07T09:49:59.000Z</time>
      </trkpt>
      <trkpt lat="44.18942" lon="6.80073">
        <ele>1991</ele>
        <time>2018-07-07T09:50:00.000Z</time>
      </trkpt>
      <trkpt lat="44.18941" lon="6.80077">
        <ele>1992</ele>
        <time>2018-07-07T09:50:03.000Z</time>
      </trkpt>
      <trkpt lat="44.18942" lon="6.80081">
        <ele>1992</ele>
        <time>2018-07-07T09:50:05.000Z</time>
      </trkpt>
      <trkpt lat="44.18944" lon="6.80085">
        <ele>2000</ele>
        <time>2018-07-07T09:50:07.000Z</time>
      </trkpt>
      <trkpt lat="44.18947" lon="6.80087">
        <ele>1999</ele>
        <time>2018-07-07T09:50:09.000Z</time>
      </trkpt>
      <trkpt lat="44.18948" lon="6.80089">
        <ele>1998</ele>
        <time>2018-07-07T09:50:13.000Z</time>
      </trkpt>
      <trkpt lat="44.18953" lon="6.80092">
        <ele>1996</ele>
        <time>2018-07-07T09:50:19.000Z</time>
      </trkpt>
      <trkpt lat="44.18955" lon="6.80095">
        <ele>1995</ele>
        <time>2018-07-07T09:50:22.000Z</time>
      </trkpt>
      <trkpt lat="44.18955" lon="6.80096">
        <ele>1995</ele>
        <time>2018-07-07T09:50:23.000Z</time>
      </trkpt>
      <trkpt lat="44.18958" lon="6.801">
        <ele>1995</ele>
        <time>2018-07-07T09:50:26.000Z</time>
      </trkpt>
      <trkpt lat="44.18961" lon="6.80105">
        <ele>1994</ele>
        <time>2018-07-07T09:50:29.000Z</time>
      </trkpt>
      <trkpt lat="44.18966" lon="6.80115">
        <ele>1993</ele>
        <time>2018-07-07T09:50:35.000Z</time>
      </trkpt>
      <trkpt lat="44.18967" lon="6.80117">
        <ele>1993</ele>
        <time>2018-07-07T09:50:37.000Z</time>
      </trkpt>
      <trkpt lat="44.18971" lon="6.80121">
        <ele>1993</ele>
        <time>2018-07-07T09:50:41.000Z</time>
      </trkpt>
      <trkpt lat="44.18972" lon="6.80123">
        <ele>1993</ele>
        <time>2018-07-07T09:50:42.000Z</time>
      </trkpt>
      <trkpt lat="44.18975" lon="6.80128">
        <ele>1993</ele>
        <time>2018-07-07T09:50:46.000Z</time>
      </trkpt>
      <trkpt lat="44.18977" lon="6.80131">
        <ele>1993</ele>
        <time>2018-07-07T09:50:48.000Z</time>
      </trkpt>
      <trkpt lat="44.18978" lon="6.80137">
        <ele>1993</ele>
        <time>2018-07-07T09:50:51.000Z</time>
      </trkpt>
      <trkpt lat="44.18978" lon="6.80139">
        <ele>1993</ele>
        <time>2018-07-07T09:50:52.000Z</time>
      </trkpt>
      <trkpt lat="44.18979" lon="6.80146">
        <ele>1992</ele>
        <time>2018-07-07T09:50:56.000Z</time>
      </trkpt>
      <trkpt lat="44.18978" lon="6.80154">
        <ele>1992</ele>
        <time>2018-07-07T09:51:00.000Z</time>
      </trkpt>
      <trkpt lat="44.18979" lon="6.80156">
        <ele>1992</ele>
        <time>2018-07-07T09:51:01.000Z</time>
      </trkpt>
      <trkpt lat="44.18979" lon="6.80159">
        <ele>1992</ele>
        <time>2018-07-07T09:51:03.000Z</time>
      </trkpt>
      <trkpt lat="44.1898" lon="6.80163">
        <ele>1992</ele>
        <time>2018-07-07T09:51:05.000Z</time>
      </trkpt>
      <trkpt lat="44.1898" lon="6.80165">
        <ele>1992</ele>
        <time>2018-07-07T09:51:07.000Z</time>
      </trkpt>
      <trkpt lat="44.18981" lon="6.80167">
        <ele>1999</ele>
        <time>2018-07-07T09:51:08.000Z</time>
      </trkpt>
      <trkpt lat="44.18981" lon="6.80169">
        <ele>1999</ele>
        <time>2018-07-07T09:51:09.000Z</time>
      </trkpt>
      <trkpt lat="44.18984" lon="6.80183">
        <ele>2001</ele>
        <time>2018-07-07T09:51:16.000Z</time>
      </trkpt>
      <trkpt lat="44.18984" lon="6.8019">
        <ele>2003</ele>
        <time>2018-07-07T09:51:19.000Z</time>
      </trkpt>
      <trkpt lat="44.18983" lon="6.80196">
        <ele>2004</ele>
        <time>2018-07-07T09:51:22.000Z</time>
      </trkpt>
      <trkpt lat="44.18984" lon="6.80206">
        <ele>2006</ele>
        <time>2018-07-07T09:51:27.000Z</time>
      </trkpt>
      <trkpt lat="44.18984" lon="6.80207">
        <ele>2006</ele>
        <time>2018-07-07T09:51:28.000Z</time>
      </trkpt>
      <trkpt lat="44.18986" lon="6.80211">
        <ele>2006</ele>
        <time>2018-07-07T09:51:30.000Z</time>
      </trkpt>
      <trkpt lat="44.18988" lon="6.80219">
        <ele>2006</ele>
        <time>2018-07-07T09:51:34.000Z</time>
      </trkpt>
      <trkpt lat="44.18991" lon="6.80234">
        <ele>2004</ele>
        <time>2018-07-07T09:51:41.000Z</time>
      </trkpt>
      <trkpt lat="44.18991" lon="6.80235">
        <ele>2004</ele>
        <time>2018-07-07T09:51:42.000Z</time>
      </trkpt>
      <trkpt lat="44.18992" lon="6.80246">
        <ele>2001</ele>
        <time>2018-07-07T09:51:47.000Z</time>
      </trkpt>
      <trkpt lat="44.18996" lon="6.80255">
        <ele>2002</ele>
        <time>2018-07-07T09:51:51.000Z</time>
      </trkpt>
      <trkpt lat="44.18998" lon="6.80263">
        <ele>2006</ele>
        <time>2018-07-07T09:51:54.000Z</time>
      </trkpt>
      <trkpt lat="44.19003" lon="6.80278">
        <ele>1988</ele>
        <time>2018-07-07T09:52:01.000Z</time>
      </trkpt>
      <trkpt lat="44.19004" lon="6.80284">
        <ele>1987</ele>
        <time>2018-07-07T09:52:03.000Z</time>
      </trkpt>
      <trkpt lat="44.19008" lon="6.80309">
        <ele>1990</ele>
        <time>2018-07-07T09:52:11.000Z</time>
      </trkpt>
      <trkpt lat="44.19011" lon="6.80336">
        <ele>1999</ele>
        <time>2018-07-07T09:52:18.000Z</time>
      </trkpt>
      <trkpt lat="44.19012" lon="6.8034">
        <ele>1998</ele>
        <time>2018-07-07T09:52:19.000Z</time>
      </trkpt>
      <trkpt lat="44.19016" lon="6.80355">
        <ele>1995</ele>
        <time>2018-07-07T09:52:23.000Z</time>
      </trkpt>
      <trkpt lat="44.19017" lon="6.80369">
        <ele>1994</ele>
        <time>2018-07-07T09:52:27.000Z</time>
      </trkpt>
      <trkpt lat="44.19017" lon="6.80371">
        <ele>1994</ele>
        <time>2018-07-07T09:52:28.000Z</time>
      </trkpt>
      <trkpt lat="44.19019" lon="6.80388">
        <ele>1995</ele>
        <time>2018-07-07T09:52:33.000Z</time>
      </trkpt>
      <trkpt lat="44.19017" lon="6.80395">
        <ele>1996</ele>
        <time>2018-07-07T09:52:35.000Z</time>
      </trkpt>
      <trkpt lat="44.19018" lon="6.80399">
        <ele>1996</ele>
        <time>2018-07-07T09:52:36.000Z</time>
      </trkpt>
      <trkpt lat="44.19017" lon="6.80406">
        <ele>1998</ele>
        <time>2018-07-07T09:52:38.000Z</time>
      </trkpt>
      <trkpt lat="44.19015" lon="6.80417">
        <ele>1999</ele>
        <time>2018-07-07T09:52:41.000Z</time>
      </trkpt>
      <trkpt lat="44.19004" lon="6.80437">
        <ele>1998</ele>
        <time>2018-07-07T09:52:47.000Z</time>
      </trkpt>
      <trkpt lat="44.18997" lon="6.80445">
        <ele>2014</ele>
        <time>2018-07-07T09:52:50.000Z</time>
      </trkpt>
      <trkpt lat="44.18995" lon="6.80449">
        <ele>2014</ele>
        <time>2018-07-07T09:52:51.000Z</time>
      </trkpt>
      <trkpt lat="44.18986" lon="6.8046">
        <ele>2014</ele>
        <time>2018-07-07T09:52:55.000Z</time>
      </trkpt>
      <trkpt lat="44.18983" lon="6.80465">
        <ele>2014</ele>
        <time>2018-07-07T09:52:57.000Z</time>
      </trkpt>
      <trkpt lat="44.1898" lon="6.80471">
        <ele>2014</ele>
        <time>2018-07-07T09:52:59.000Z</time>
      </trkpt>
      <trkpt lat="44.18977" lon="6.80474">
        <ele>2014</ele>
        <time>2018-07-07T09:53:01.000Z</time>
      </trkpt>
      <trkpt lat="44.18976" lon="6.80477">
        <ele>2014</ele>
        <time>2018-07-07T09:53:04.000Z</time>
      </trkpt>
      <trkpt lat="44.18974" lon="6.8048">
        <ele>2014</ele>
        <time>2018-07-07T09:53:06.000Z</time>
      </trkpt>
      <trkpt lat="44.18969" lon="6.80485">
        <ele>2014</ele>
        <time>2018-07-07T09:53:10.000Z</time>
      </trkpt>
      <trkpt lat="44.18963" lon="6.80493">
        <ele>2016</ele>
        <time>2018-07-07T09:53:15.000Z</time>
      </trkpt>
      <trkpt lat="44.18962" lon="6.805">
        <ele>2009</ele>
        <time>2018-07-07T09:53:18.000Z</time>
      </trkpt>
      <trkpt lat="44.18964" lon="6.80504">
        <ele>2008</ele>
        <time>2018-07-07T09:53:20.000Z</time>
      </trkpt>
      <trkpt lat="44.18968" lon="6.80515">
        <ele>2008</ele>
        <time>2018-07-07T09:53:25.000Z</time>
      </trkpt>
      <trkpt lat="44.18967" lon="6.80516">
        <ele>2008</ele>
        <time>2018-07-07T09:53:26.000Z</time>
      </trkpt>
      <trkpt lat="44.18962" lon="6.80523">
        <ele>2008</ele>
        <time>2018-07-07T09:53:29.000Z</time>
      </trkpt>
      <trkpt lat="44.18959" lon="6.80527">
        <ele>2009</ele>
        <time>2018-07-07T09:53:30.000Z</time>
      </trkpt>
      <trkpt lat="44.18954" lon="6.80537">
        <ele>2009</ele>
        <time>2018-07-07T09:53:33.000Z</time>
      </trkpt>
      <trkpt lat="44.18948" lon="6.80544">
        <ele>2009</ele>
        <time>2018-07-07T09:53:36.000Z</time>
      </trkpt>
      <trkpt lat="44.18946" lon="6.80548">
        <ele>2010</ele>
        <time>2018-07-07T09:53:38.000Z</time>
      </trkpt>
      <trkpt lat="44.18945" lon="6.80552">
        <ele>2009</ele>
        <time>2018-07-07T09:53:39.000Z</time>
      </trkpt>
      <trkpt lat="44.18946" lon="6.80558">
        <ele>2009</ele>
        <time>2018-07-07T09:53:43.000Z</time>
      </trkpt>
      <trkpt lat="44.18947" lon="6.80559">
        <ele>2009</ele>
        <time>2018-07-07T09:53:44.000Z</time>
      </trkpt>
      <trkpt lat="44.18953" lon="6.80564">
        <ele>2008</ele>
        <time>2018-07-07T09:53:48.000Z</time>
      </trkpt>
      <trkpt lat="44.18953" lon="6.80566">
        <ele>2008</ele>
        <time>2018-07-07T09:53:50.000Z</time>
      </trkpt>
      <trkpt lat="44.18953" lon="6.80566">
        <ele>2008</ele>
        <time>2018-07-07T09:53:52.000Z</time>
      </trkpt>
      <trkpt lat="44.18952" lon="6.80567">
        <ele>2008</ele>
        <time>2018-07-07T09:53:54.000Z</time>
      </trkpt>
      <trkpt lat="44.18952" lon="6.80571">
        <ele>2008</ele>
        <time>2018-07-07T09:53:57.000Z</time>
      </trkpt>
      <trkpt lat="44.18953" lon="6.80575">
        <ele>2007</ele>
        <time>2018-07-07T09:54:01.000Z</time>
      </trkpt>
      <trkpt lat="44.18954" lon="6.80577">
        <ele>2007</ele>
        <time>2018-07-07T09:54:03.000Z</time>
      </trkpt>
      <trkpt lat="44.18956" lon="6.80581">
        <ele>2007</ele>
        <time>2018-07-07T09:54:06.000Z</time>
      </trkpt>
      <trkpt lat="44.18954" lon="6.80583">
        <ele>2007</ele>
        <time>2018-07-07T09:54:07.000Z</time>
      </trkpt>
      <trkpt lat="44.18954" lon="6.80583">
        <ele>2007</ele>
        <time>2018-07-07T09:54:09.000Z</time>
      </trkpt>
      <trkpt lat="44.18954" lon="6.80586">
        <ele>2007</ele>
        <time>2018-07-07T09:54:13.000Z</time>
      </trkpt>
      <trkpt lat="44.18953" lon="6.80588">
        <ele>2007</ele>
        <time>2018-07-07T09:54:15.000Z</time>
      </trkpt>
      <trkpt lat="44.18953" lon="6.80591">
        <ele>2007</ele>
        <time>2018-07-07T09:54:19.000Z</time>
      </trkpt>
      <trkpt lat="44.18953" lon="6.80592">
        <ele>2007</ele>
        <time>2018-07-07T09:54:20.000Z</time>
      </trkpt>
      <trkpt lat="44.18954" lon="6.80594">
        <ele>2007</ele>
        <time>2018-07-07T09:54:21.000Z</time>
      </trkpt>
      <trkpt lat="44.18952" lon="6.80599">
        <ele>2008</ele>
        <time>2018-07-07T09:54:24.000Z</time>
      </trkpt>
      <trkpt lat="44.18949" lon="6.80607">
        <ele>2008</ele>
        <time>2018-07-07T09:54:28.000Z</time>
      </trkpt>
      <trkpt lat="44.18947" lon="6.80613">
        <ele>2009</ele>
        <time>2018-07-07T09:54:30.000Z</time>
      </trkpt>
      <trkpt lat="44.18943" lon="6.80614">
        <ele>2009</ele>
        <time>2018-07-07T09:54:31.000Z</time>
      </trkpt>
      <trkpt lat="44.18942" lon="6.80616">
        <ele>2010</ele>
        <time>2018-07-07T09:54:32.000Z</time>
      </trkpt>
      <trkpt lat="44.18938" lon="6.80617">
        <ele>2010</ele>
        <time>2018-07-07T09:54:34.000Z</time>
      </trkpt>
      <trkpt lat="44.18937" lon="6.80618">
        <ele>2010</ele>
        <time>2018-07-07T09:54:35.000Z</time>
      </trkpt>
      <trkpt lat="44.18938" lon="6.80622">
        <ele>2011</ele>
        <time>2018-07-07T09:54:40.000Z</time>
      </trkpt>
      <trkpt lat="44.18937" lon="6.80627">
        <ele>2011</ele>
        <time>2018-07-07T09:54:45.000Z</time>
      </trkpt>
      <trkpt lat="44.18938" lon="6.80629">
        <ele>2011</ele>
        <time>2018-07-07T09:54:47.000Z</time>
      </trkpt>
      <trkpt lat="44.18939" lon="6.80631">
        <ele>2011</ele>
        <time>2018-07-07T09:54:49.000Z</time>
      </trkpt>
      <trkpt lat="44.18939" lon="6.80632">
        <ele>2011</ele>
        <time>2018-07-07T09:54:50.000Z</time>
      </trkpt>
      <trkpt lat="44.18939" lon="6.80634">
        <ele>2012</ele>
        <time>2018-07-07T09:54:54.000Z</time>
      </trkpt>
      <trkpt lat="44.18939" lon="6.80636">
        <ele>2012</ele>
        <time>2018-07-07T09:54:55.000Z</time>
      </trkpt>
      <trkpt lat="44.18939" lon="6.80638">
        <ele>2012</ele>
        <time>2018-07-07T09:54:56.000Z</time>
      </trkpt>
      <trkpt lat="44.1894" lon="6.8064">
        <ele>2012</ele>
        <time>2018-07-07T09:54:58.000Z</time>
      </trkpt>
      <trkpt lat="44.1894" lon="6.80642">
        <ele>2012</ele>
        <time>2018-07-07T09:55:00.000Z</time>
      </trkpt>
      <trkpt lat="44.1894" lon="6.80643">
        <ele>2012</ele>
        <time>2018-07-07T09:55:01.000Z</time>
      </trkpt>
      <trkpt lat="44.18942" lon="6.80648">
        <ele>2013</ele>
        <time>2018-07-07T09:55:06.000Z</time>
      </trkpt>
      <trkpt lat="44.18949" lon="6.80659">
        <ele>2012</ele>
        <time>2018-07-07T09:55:11.000Z</time>
      </trkpt>
      <trkpt lat="44.1895" lon="6.80662">
        <ele>2011</ele>
        <time>2018-07-07T09:55:12.000Z</time>
      </trkpt>
      <trkpt lat="44.18957" lon="6.80669">
        <ele>2015</ele>
        <time>2018-07-07T09:55:16.000Z</time>
      </trkpt>
      <trkpt lat="44.1896" lon="6.80677">
        <ele>2014</ele>
        <time>2018-07-07T09:55:20.000Z</time>
      </trkpt>
      <trkpt lat="44.18962" lon="6.80684">
        <ele>2014</ele>
        <time>2018-07-07T09:55:24.000Z</time>
      </trkpt>
      <trkpt lat="44.18965" lon="6.80688">
        <ele>2014</ele>
        <time>2018-07-07T09:55:26.000Z</time>
      </trkpt>
      <trkpt lat="44.18966" lon="6.8069">
        <ele>2014</ele>
        <time>2018-07-07T09:55:27.000Z</time>
      </trkpt>
      <trkpt lat="44.18969" lon="6.80695">
        <ele>2013</ele>
        <time>2018-07-07T09:55:29.000Z</time>
      </trkpt>
      <trkpt lat="44.18974" lon="6.80704">
        <ele>2013</ele>
        <time>2018-07-07T09:55:33.000Z</time>
      </trkpt>
      <trkpt lat="44.18977" lon="6.8071">
        <ele>2013</ele>
        <time>2018-07-07T09:55:35.000Z</time>
      </trkpt>
      <trkpt lat="44.18978" lon="6.80714">
        <ele>2013</ele>
        <time>2018-07-07T09:55:37.000Z</time>
      </trkpt>
      <trkpt lat="44.1898" lon="6.80719">
        <ele>2013</ele>
        <time>2018-07-07T09:55:39.000Z</time>
      </trkpt>
      <trkpt lat="44.18983" lon="6.80731">
        <ele>2012</ele>
        <time>2018-07-07T09:55:43.000Z</time>
      </trkpt>
      <trkpt lat="44.18986" lon="6.80735">
        <ele>2011</ele>
        <time>2018-07-07T09:55:45.000Z</time>
      </trkpt>
      <trkpt lat="44.18985" lon="6.80737">
        <ele>2011</ele>
        <time>2018-07-07T09:55:46.000Z</time>
      </trkpt>
      <trkpt lat="44.18986" lon="6.8074">
        <ele>2010</ele>
        <time>2018-07-07T09:55:48.000Z</time>
      </trkpt>
      <trkpt lat="44.18992" lon="6.80751">
        <ele>2009</ele>
        <time>2018-07-07T09:55:52.000Z</time>
      </trkpt>
      <trkpt lat="44.18992" lon="6.80755">
        <ele>2010</ele>
        <time>2018-07-07T09:55:53.000Z</time>
      </trkpt>
      <trkpt lat="44.18992" lon="6.80762">
        <ele>2012</ele>
        <time>2018-07-07T09:55:55.000Z</time>
      </trkpt>
      <trkpt lat="44.18988" lon="6.80771">
        <ele>2015</ele>
        <time>2018-07-07T09:55:58.000Z</time>
      </trkpt>
      <trkpt lat="44.18992" lon="6.80775">
        <ele>2015</ele>
        <time>2018-07-07T09:56:00.000Z</time>
      </trkpt>
      <trkpt lat="44.18995" lon="6.80778">
        <ele>2015</ele>
        <time>2018-07-07T09:56:01.000Z</time>
      </trkpt>
      <trkpt lat="44.18999" lon="6.80791">
        <ele>2016</ele>
        <time>2018-07-07T09:56:03.000Z</time>
      </trkpt>
      <trkpt lat="44.19001" lon="6.80798">
        <ele>2003</ele>
        <time>2018-07-07T09:56:04.000Z</time>
      </trkpt>
      <trkpt lat="44.19003" lon="6.80806">
        <ele>2004</ele>
        <time>2018-07-07T09:56:05.000Z</time>
      </trkpt>
      <trkpt lat="44.19003" lon="6.8082">
        <ele>2007</ele>
        <time>2018-07-07T09:56:07.000Z</time>
      </trkpt>
      <trkpt lat="44.19003" lon="6.80827">
        <ele>2009</ele>
        <time>2018-07-07T09:56:08.000Z</time>
      </trkpt>
      <trkpt lat="44.19004" lon="6.80835">
        <ele>2011</ele>
        <time>2018-07-07T09:56:09.000Z</time>
      </trkpt>
      <trkpt lat="44.19008" lon="6.80849">
        <ele>2010</ele>
        <time>2018-07-07T09:56:11.000Z</time>
      </trkpt>
      <trkpt lat="44.19013" lon="6.80855">
        <ele>2010</ele>
        <time>2018-07-07T09:56:12.000Z</time>
      </trkpt>
      <trkpt lat="44.19015" lon="6.8086">
        <ele>2010</ele>
        <time>2018-07-07T09:56:13.000Z</time>
      </trkpt>
      <trkpt lat="44.19015" lon="6.80865">
        <ele>2010</ele>
        <time>2018-07-07T09:56:14.000Z</time>
      </trkpt>
      <trkpt lat="44.19014" lon="6.80869">
        <ele>2010</ele>
        <time>2018-07-07T09:56:15.000Z</time>
      </trkpt>
      <trkpt lat="44.19014" lon="6.80874">
        <ele>2011</ele>
        <time>2018-07-07T09:56:18.000Z</time>
      </trkpt>
      <trkpt lat="44.19018" lon="6.80877">
        <ele>2011</ele>
        <time>2018-07-07T09:56:22.000Z</time>
      </trkpt>
      <trkpt lat="44.1902" lon="6.80878">
        <ele>2011</ele>
        <time>2018-07-07T09:56:25.000Z</time>
      </trkpt>
      <trkpt lat="44.19024" lon="6.80887">
        <ele>2011</ele>
        <time>2018-07-07T09:56:31.000Z</time>
      </trkpt>
      <trkpt lat="44.19027" lon="6.80896">
        <ele>2011</ele>
        <time>2018-07-07T09:56:38.000Z</time>
      </trkpt>
      <trkpt lat="44.1903" lon="6.809">
        <ele>2011</ele>
        <time>2018-07-07T09:56:44.000Z</time>
      </trkpt>
      <trkpt lat="44.19031" lon="6.80904">
        <ele>2011</ele>
        <time>2018-07-07T09:56:50.000Z</time>
      </trkpt>
      <trkpt lat="44.19031" lon="6.80905">
        <ele>2011</ele>
        <time>2018-07-07T09:56:56.000Z</time>
      </trkpt>
      <trkpt lat="44.19032" lon="6.80909">
        <ele>2011</ele>
        <time>2018-07-07T09:57:02.000Z</time>
      </trkpt>
      <trkpt lat="44.19032" lon="6.80911">
        <ele>2011</ele>
        <time>2018-07-07T09:57:04.000Z</time>
      </trkpt>
      <trkpt lat="44.19032" lon="6.80912">
        <ele>2011</ele>
        <time>2018-07-07T09:57:07.000Z</time>
      </trkpt>
      <trkpt lat="44.19035" lon="6.80914">
        <ele>2011</ele>
        <time>2018-07-07T09:57:13.000Z</time>
      </trkpt>
      <trkpt lat="44.19035" lon="6.80914">
        <ele>2011</ele>
        <time>2018-07-07T09:57:14.000Z</time>
      </trkpt>
      <trkpt lat="44.19038" lon="6.80914">
        <ele>2011</ele>
        <time>2018-07-07T09:57:20.000Z</time>
      </trkpt>
      <trkpt lat="44.19038" lon="6.80914">
        <ele>2011</ele>
        <time>2018-07-07T09:57:21.000Z</time>
      </trkpt>
      <trkpt lat="44.19039" lon="6.80917">
        <ele>2011</ele>
        <time>2018-07-07T09:57:26.000Z</time>
      </trkpt>
      <trkpt lat="44.19041" lon="6.80921">
        <ele>2013</ele>
        <time>2018-07-07T09:57:31.000Z</time>
      </trkpt>
      <trkpt lat="44.19042" lon="6.80922">
        <ele>2013</ele>
        <time>2018-07-07T09:57:32.000Z</time>
      </trkpt>
      <trkpt lat="44.19042" lon="6.80925">
        <ele>2013</ele>
        <time>2018-07-07T09:57:36.000Z</time>
      </trkpt>
      <trkpt lat="44.19041" lon="6.80926">
        <ele>2013</ele>
        <time>2018-07-07T09:57:37.000Z</time>
      </trkpt>
      <trkpt lat="44.19041" lon="6.80926">
        <ele>2013</ele>
        <time>2018-07-07T09:57:38.000Z</time>
      </trkpt>
      <trkpt lat="44.19042" lon="6.80929">
        <ele>2013</ele>
        <time>2018-07-07T09:57:40.000Z</time>
      </trkpt>
      <trkpt lat="44.19041" lon="6.80932">
        <ele>2013</ele>
        <time>2018-07-07T09:57:42.000Z</time>
      </trkpt>
      <trkpt lat="44.1904" lon="6.80935">
        <ele>2013</ele>
        <time>2018-07-07T09:57:44.000Z</time>
      </trkpt>
      <trkpt lat="44.1904" lon="6.80939">
        <ele>2013</ele>
        <time>2018-07-07T09:57:47.000Z</time>
      </trkpt>
      <trkpt lat="44.19039" lon="6.80945">
        <ele>2013</ele>
        <time>2018-07-07T09:57:53.000Z</time>
      </trkpt>
      <trkpt lat="44.19039" lon="6.80945">
        <ele>2013</ele>
        <time>2018-07-07T09:57:54.000Z</time>
      </trkpt>
      <trkpt lat="44.19038" lon="6.80946">
        <ele>2013</ele>
        <time>2018-07-07T09:58:01.000Z</time>
      </trkpt>
      <trkpt lat="44.19039" lon="6.80947">
        <ele>2013</ele>
        <time>2018-07-07T09:58:12.000Z</time>
      </trkpt>
      <trkpt lat="44.19039" lon="6.80947">
        <ele>2013</ele>
        <time>2018-07-07T09:58:27.000Z</time>
      </trkpt>
      <trkpt lat="44.19039" lon="6.80948">
        <ele>2013</ele>
        <time>2018-07-07T09:58:41.000Z</time>
      </trkpt>
      <trkpt lat="44.19045" lon="6.8095">
        <ele>2013</ele>
        <time>2018-07-07T09:58:54.000Z</time>
      </trkpt>
      <trkpt lat="44.19051" lon="6.80952">
        <ele>2013</ele>
        <time>2018-07-07T09:59:10.000Z</time>
      </trkpt>
      <trkpt lat="44.19046" lon="6.8095">
        <ele>2013</ele>
        <time>2018-07-07T09:59:32.000Z</time>
      </trkpt>
      <trkpt lat="44.19046" lon="6.8095">
        <ele>2013</ele>
        <time>2018-07-07T09:59:51.000Z</time>
      </trkpt>
      <trkpt lat="44.19045" lon="6.8095">
        <ele>2013</ele>
        <time>2018-07-07T10:00:04.000Z</time>
      </trkpt>
      <trkpt lat="44.19047" lon="6.8095">
        <ele>2013</ele>
        <time>2018-07-07T10:00:20.000Z</time>
      </trkpt>
      <trkpt lat="44.19049" lon="6.80951">
        <ele>2013</ele>
        <time>2018-07-07T10:00:35.000Z</time>
      </trkpt>
      <trkpt lat="44.19049" lon="6.80951">
        <ele>2013</ele>
        <time>2018-07-07T10:00:54.000Z</time>
      </trkpt>
      <trkpt lat="44.1905" lon="6.80951">
        <ele>2013</ele>
        <time>2018-07-07T10:01:13.000Z</time>
      </trkpt>
      <trkpt lat="44.19051" lon="6.80952">
        <ele>2013</ele>
        <time>2018-07-07T10:01:29.000Z</time>
      </trkpt>
      <trkpt lat="44.1905" lon="6.80951">
        <ele>2013</ele>
        <time>2018-07-07T10:01:51.000Z</time>
      </trkpt>
      <trkpt lat="44.19049" lon="6.80951">
        <ele>2013</ele>
        <time>2018-07-07T10:02:00.000Z</time>
      </trkpt>
      <trkpt lat="44.1905" lon="6.80952">
        <ele>2013</ele>
        <time>2018-07-07T10:02:18.000Z</time>
      </trkpt>
      <trkpt lat="44.19049" lon="6.80952">
        <ele>2013</ele>
        <time>2018-07-07T10:02:37.000Z</time>
      </trkpt>
      <trkpt lat="44.19048" lon="6.80952">
        <ele>2013</ele>
        <time>2018-07-07T10:03:04.000Z</time>
      </trkpt>
      <trkpt lat="44.19048" lon="6.80952">
        <ele>2013</ele>
        <time>2018-07-07T10:03:25.000Z</time>
      </trkpt>
      <trkpt lat="44.19047" lon="6.80951">
        <ele>2013</ele>
        <time>2018-07-07T10:03:41.000Z</time>
      </trkpt>
      <trkpt lat="44.19046" lon="6.80951">
        <ele>2013</ele>
        <time>2018-07-07T10:03:59.000Z</time>
      </trkpt>
      <trkpt lat="44.19046" lon="6.80951">
        <ele>2013</ele>
        <time>2018-07-07T10:04:07.000Z</time>
      </trkpt>
      <trkpt lat="44.19046" lon="6.80952">
        <ele>2013</ele>
        <time>2018-07-07T10:04:16.000Z</time>
      </trkpt>
      <trkpt lat="44.19044" lon="6.80952">
        <ele>2013</ele>
        <time>2018-07-07T10:04:27.000Z</time>
      </trkpt>
      <trkpt lat="44.19043" lon="6.80951">
        <ele>2013</ele>
        <time>2018-07-07T10:04:48.000Z</time>
      </trkpt>
      <trkpt lat="44.19042" lon="6.80954">
        <ele>2013</ele>
        <time>2018-07-07T10:04:51.000Z</time>
      </trkpt>
      <trkpt lat="44.19041" lon="6.80957">
        <ele>2013</ele>
        <time>2018-07-07T10:04:53.000Z</time>
      </trkpt>
      <trkpt lat="44.19041" lon="6.80963">
        <ele>2012</ele>
        <time>2018-07-07T10:04:56.000Z</time>
      </trkpt>
      <trkpt lat="44.19042" lon="6.80967">
        <ele>2012</ele>
        <time>2018-07-07T10:04:58.000Z</time>
      </trkpt>
      <trkpt lat="44.19051" lon="6.80983">
        <ele>2013</ele>
        <time>2018-07-07T10:05:05.000Z</time>
      </trkpt>
      <trkpt lat="44.19057" lon="6.80988">
        <ele>2013</ele>
        <time>2018-07-07T10:05:08.000Z</time>
      </trkpt>
      <trkpt lat="44.19061" lon="6.80991">
        <ele>2013</ele>
        <time>2018-07-07T10:05:11.000Z</time>
      </trkpt>
      <trkpt lat="44.19063" lon="6.80992">
        <ele>2013</ele>
        <time>2018-07-07T10:05:12.000Z</time>
      </trkpt>
      <trkpt lat="44.19068" lon="6.80993">
        <ele>2013</ele>
        <time>2018-07-07T10:05:15.000Z</time>
      </trkpt>
      <trkpt lat="44.19072" lon="6.80994">
        <ele>2013</ele>
        <time>2018-07-07T10:05:19.000Z</time>
      </trkpt>
      <trkpt lat="44.19073" lon="6.80994">
        <ele>2013</ele>
        <time>2018-07-07T10:05:20.000Z</time>
      </trkpt>
      <trkpt lat="44.19079" lon="6.80995">
        <ele>2014</ele>
        <time>2018-07-07T10:05:26.000Z</time>
      </trkpt>
      <trkpt lat="44.19083" lon="6.80997">
        <ele>2014</ele>
        <time>2018-07-07T10:05:31.000Z</time>
      </trkpt>
      <trkpt lat="44.19085" lon="6.80998">
        <ele>2015</ele>
        <time>2018-07-07T10:05:32.000Z</time>
      </trkpt>
      <trkpt lat="44.19088" lon="6.81007">
        <ele>2018</ele>
        <time>2018-07-07T10:05:37.000Z</time>
      </trkpt>
      <trkpt lat="44.19088" lon="6.8102">
        <ele>2022</ele>
        <time>2018-07-07T10:05:43.000Z</time>
      </trkpt>
      <trkpt lat="44.19091" lon="6.8103">
        <ele>2023</ele>
        <time>2018-07-07T10:05:48.000Z</time>
      </trkpt>
      <trkpt lat="44.19093" lon="6.81034">
        <ele>2024</ele>
        <time>2018-07-07T10:05:51.000Z</time>
      </trkpt>
      <trkpt lat="44.19095" lon="6.8104">
        <ele>2024</ele>
        <time>2018-07-07T10:05:55.000Z</time>
      </trkpt>
      <trkpt lat="44.19096" lon="6.81042">
        <ele>2025</ele>
        <time>2018-07-07T10:05:56.000Z</time>
      </trkpt>
      <trkpt lat="44.19099" lon="6.81056">
        <ele>2024</ele>
        <time>2018-07-07T10:06:03.000Z</time>
      </trkpt>
      <trkpt lat="44.191" lon="6.81063">
        <ele>2024</ele>
        <time>2018-07-07T10:06:07.000Z</time>
      </trkpt>
      <trkpt lat="44.191" lon="6.81068">
        <ele>2023</ele>
        <time>2018-07-07T10:06:10.000Z</time>
      </trkpt>
      <trkpt lat="44.19101" lon="6.81074">
        <ele>2023</ele>
        <time>2018-07-07T10:06:13.000Z</time>
      </trkpt>
      <trkpt lat="44.19099" lon="6.81082">
        <ele>2022</ele>
        <time>2018-07-07T10:06:17.000Z</time>
      </trkpt>
      <trkpt lat="44.19098" lon="6.81087">
        <ele>2021</ele>
        <time>2018-07-07T10:06:21.000Z</time>
      </trkpt>
      <trkpt lat="44.19097" lon="6.81091">
        <ele>2021</ele>
        <time>2018-07-07T10:06:23.000Z</time>
      </trkpt>
      <trkpt lat="44.19091" lon="6.81106">
        <ele>2023</ele>
        <time>2018-07-07T10:06:31.000Z</time>
      </trkpt>
      <trkpt lat="44.1909" lon="6.81108">
        <ele>2023</ele>
        <time>2018-07-07T10:06:32.000Z</time>
      </trkpt>
      <trkpt lat="44.19089" lon="6.81112">
        <ele>2023</ele>
        <time>2018-07-07T10:06:34.000Z</time>
      </trkpt>
      <trkpt lat="44.19091" lon="6.81118">
        <ele>2024</ele>
        <time>2018-07-07T10:06:37.000Z</time>
      </trkpt>
      <trkpt lat="44.19093" lon="6.81122">
        <ele>2024</ele>
        <time>2018-07-07T10:06:40.000Z</time>
      </trkpt>
      <trkpt lat="44.19093" lon="6.81123">
        <ele>2024</ele>
        <time>2018-07-07T10:06:41.000Z</time>
      </trkpt>
      <trkpt lat="44.19096" lon="6.81125">
        <ele>2025</ele>
        <time>2018-07-07T10:06:44.000Z</time>
      </trkpt>
      <trkpt lat="44.19098" lon="6.81126">
        <ele>2025</ele>
        <time>2018-07-07T10:06:46.000Z</time>
      </trkpt>
      <trkpt lat="44.19101" lon="6.81129">
        <ele>2025</ele>
        <time>2018-07-07T10:06:49.000Z</time>
      </trkpt>
      <trkpt lat="44.19102" lon="6.81131">
        <ele>2025</ele>
        <time>2018-07-07T10:06:50.000Z</time>
      </trkpt>
      <trkpt lat="44.19102" lon="6.8114">
        <ele>2025</ele>
        <time>2018-07-07T10:06:53.000Z</time>
      </trkpt>
      <trkpt lat="44.19102" lon="6.81144">
        <ele>2025</ele>
        <time>2018-07-07T10:06:55.000Z</time>
      </trkpt>
      <trkpt lat="44.19105" lon="6.81153">
        <ele>2025</ele>
        <time>2018-07-07T10:07:00.000Z</time>
      </trkpt>
      <trkpt lat="44.19105" lon="6.81153">
        <ele>2025</ele>
        <time>2018-07-07T10:07:01.000Z</time>
      </trkpt>
      <trkpt lat="44.19106" lon="6.81156">
        <ele>2025</ele>
        <time>2018-07-07T10:07:03.000Z</time>
      </trkpt>
      <trkpt lat="44.19109" lon="6.81162">
        <ele>2025</ele>
        <time>2018-07-07T10:07:07.000Z</time>
      </trkpt>
      <trkpt lat="44.1911" lon="6.81164">
        <ele>2025</ele>
        <time>2018-07-07T10:07:09.000Z</time>
      </trkpt>
      <trkpt lat="44.19113" lon="6.81175">
        <ele>2029</ele>
        <time>2018-07-07T10:07:15.000Z</time>
      </trkpt>
      <trkpt lat="44.19114" lon="6.81176">
        <ele>2029</ele>
        <time>2018-07-07T10:07:16.000Z</time>
      </trkpt>
      <trkpt lat="44.19119" lon="6.81187">
        <ele>2030</ele>
        <time>2018-07-07T10:07:23.000Z</time>
      </trkpt>
      <trkpt lat="44.19126" lon="6.81198">
        <ele>2032</ele>
        <time>2018-07-07T10:07:29.000Z</time>
      </trkpt>
      <trkpt lat="44.19127" lon="6.81202">
        <ele>2032</ele>
        <time>2018-07-07T10:07:31.000Z</time>
      </trkpt>
      <trkpt lat="44.19124" lon="6.81205">
        <ele>2032</ele>
        <time>2018-07-07T10:07:33.000Z</time>
      </trkpt>
      <trkpt lat="44.19123" lon="6.81205">
        <ele>2032</ele>
        <time>2018-07-07T10:07:34.000Z</time>
      </trkpt>
      <trkpt lat="44.19117" lon="6.8121">
        <ele>2032</ele>
        <time>2018-07-07T10:07:38.000Z</time>
      </trkpt>
      <trkpt lat="44.19108" lon="6.81218">
        <ele>2031</ele>
        <time>2018-07-07T10:07:44.000Z</time>
      </trkpt>
      <trkpt lat="44.19099" lon="6.8123">
        <ele>2030</ele>
        <time>2018-07-07T10:07:51.000Z</time>
      </trkpt>
      <trkpt lat="44.1909" lon="6.81231">
        <ele>2029</ele>
        <time>2018-07-07T10:07:57.000Z</time>
      </trkpt>
      <trkpt lat="44.19077" lon="6.81236">
        <ele>2023</ele>
        <time>2018-07-07T10:08:04.000Z</time>
      </trkpt>
      <trkpt lat="44.19068" lon="6.8125">
        <ele>2023</ele>
        <time>2018-07-07T10:08:09.000Z</time>
      </trkpt>
      <trkpt lat="44.19056" lon="6.81274">
        <ele>2025</ele>
        <time>2018-07-07T10:08:15.000Z</time>
      </trkpt>
      <trkpt lat="44.19053" lon="6.81278">
        <ele>2025</ele>
        <time>2018-07-07T10:08:16.000Z</time>
      </trkpt>
      <trkpt lat="44.19044" lon="6.81298">
        <ele>2025</ele>
        <time>2018-07-07T10:08:20.000Z</time>
      </trkpt>
      <trkpt lat="44.19038" lon="6.81305">
        <ele>2024</ele>
        <time>2018-07-07T10:08:22.000Z</time>
      </trkpt>
      <trkpt lat="44.19031" lon="6.81309">
        <ele>2024</ele>
        <time>2018-07-07T10:08:24.000Z</time>
      </trkpt>
      <trkpt lat="44.19022" lon="6.8131">
        <ele>2023</ele>
        <time>2018-07-07T10:08:26.000Z</time>
      </trkpt>
      <trkpt lat="44.18998" lon="6.81316">
        <ele>2021</ele>
        <time>2018-07-07T10:08:31.000Z</time>
      </trkpt>
      <trkpt lat="44.18989" lon="6.81317">
        <ele>2021</ele>
        <time>2018-07-07T10:08:33.000Z</time>
      </trkpt>
      <trkpt lat="44.18984" lon="6.81318">
        <ele>2021</ele>
        <time>2018-07-07T10:08:35.000Z</time>
      </trkpt>
      <trkpt lat="44.18978" lon="6.81323">
        <ele>2021</ele>
        <time>2018-07-07T10:08:37.000Z</time>
      </trkpt>
      <trkpt lat="44.18969" lon="6.81327">
        <ele>2022</ele>
        <time>2018-07-07T10:08:42.000Z</time>
      </trkpt>
      <trkpt lat="44.18968" lon="6.81327">
        <ele>2022</ele>
        <time>2018-07-07T10:08:43.000Z</time>
      </trkpt>
      <trkpt lat="44.18962" lon="6.81327">
        <ele>2022</ele>
        <time>2018-07-07T10:08:48.000Z</time>
      </trkpt>
      <trkpt lat="44.1896" lon="6.81329">
        <ele>2022</ele>
        <time>2018-07-07T10:08:49.000Z</time>
      </trkpt>
      <trkpt lat="44.18959" lon="6.8133">
        <ele>2022</ele>
        <time>2018-07-07T10:08:50.000Z</time>
      </trkpt>
      <trkpt lat="44.1895" lon="6.81334">
        <ele>2017</ele>
        <time>2018-07-07T10:08:57.000Z</time>
      </trkpt>
      <trkpt lat="44.18946" lon="6.81335">
        <ele>2018</ele>
        <time>2018-07-07T10:09:03.000Z</time>
      </trkpt>
      <trkpt lat="44.18947" lon="6.81334">
        <ele>2018</ele>
        <time>2018-07-07T10:09:09.000Z</time>
      </trkpt>
      <trkpt lat="44.18947" lon="6.81334">
        <ele>2017</ele>
        <time>2018-07-07T10:09:13.000Z</time>
      </trkpt>
      <trkpt lat="44.18947" lon="6.81334">
        <ele>2017</ele>
        <time>2018-07-07T10:09:15.000Z</time>
      </trkpt>
      <trkpt lat="44.18948" lon="6.81335">
        <ele>2017</ele>
        <time>2018-07-07T10:09:26.000Z</time>
      </trkpt>
      <trkpt lat="44.18948" lon="6.81335">
        <ele>2017</ele>
        <time>2018-07-07T10:09:36.000Z</time>
      </trkpt>
      <trkpt lat="44.18948" lon="6.81335">
        <ele>2017</ele>
        <time>2018-07-07T10:09:38.000Z</time>
      </trkpt>
      <trkpt lat="44.18948" lon="6.81336">
        <ele>2017</ele>
        <time>2018-07-07T10:09:48.000Z</time>
      </trkpt>
      <trkpt lat="44.18946" lon="6.81332">
        <ele>2023</ele>
        <time>2018-07-07T10:09:54.000Z</time>
      </trkpt>
      <trkpt lat="44.18944" lon="6.81331">
        <ele>2023</ele>
        <time>2018-07-07T10:09:57.000Z</time>
      </trkpt>
      <trkpt lat="44.18944" lon="6.8133">
        <ele>2023</ele>
        <time>2018-07-07T10:10:00.000Z</time>
      </trkpt>
      <trkpt lat="44.18944" lon="6.81329">
        <ele>2023</ele>
        <time>2018-07-07T10:10:03.000Z</time>
      </trkpt>
      <trkpt lat="44.18943" lon="6.81329">
        <ele>2023</ele>
        <time>2018-07-07T10:10:10.000Z</time>
      </trkpt>
      <trkpt lat="44.18944" lon="6.81328">
        <ele>2023</ele>
        <time>2018-07-07T10:10:25.000Z</time>
      </trkpt>
      <trkpt lat="44.18945" lon="6.8133">
        <ele>2023</ele>
        <time>2018-07-07T10:10:27.000Z</time>
      </trkpt>
      <trkpt lat="44.18945" lon="6.81331">
        <ele>2023</ele>
        <time>2018-07-07T10:10:31.000Z</time>
      </trkpt>
      <trkpt lat="44.18945" lon="6.8133">
        <ele>2023</ele>
        <time>2018-07-07T10:10:33.000Z</time>
      </trkpt>
      <trkpt lat="44.18945" lon="6.8133">
        <ele>2023</ele>
        <time>2018-07-07T10:10:36.000Z</time>
      </trkpt>
      <trkpt lat="44.18947" lon="6.81328">
        <ele>2023</ele>
        <time>2018-07-07T10:10:39.000Z</time>
      </trkpt>
      <trkpt lat="44.18947" lon="6.81328">
        <ele>2023</ele>
        <time>2018-07-07T10:10:41.000Z</time>
      </trkpt>
      <trkpt lat="44.18947" lon="6.81329">
        <ele>2023</ele>
        <time>2018-07-07T10:10:47.000Z</time>
      </trkpt>
      <trkpt lat="44.18947" lon="6.81329">
        <ele>2023</ele>
        <time>2018-07-07T10:10:57.000Z</time>
      </trkpt>
      <trkpt lat="44.18947" lon="6.81329">
        <ele>2023</ele>
        <time>2018-07-07T10:11:03.000Z</time>
      </trkpt>
      <trkpt lat="44.18946" lon="6.8133">
        <ele>2023</ele>
        <time>2018-07-07T10:11:04.000Z</time>
      </trkpt>
      <trkpt lat="44.18947" lon="6.81329">
        <ele>2023</ele>
        <time>2018-07-07T10:11:07.000Z</time>
      </trkpt>
      <trkpt lat="44.18947" lon="6.81329">
        <ele>2023</ele>
        <time>2018-07-07T10:11:11.000Z</time>
      </trkpt>
      <trkpt lat="44.18947" lon="6.8133">
        <ele>2023</ele>
        <time>2018-07-07T10:11:24.000Z</time>
      </trkpt>
      <trkpt lat="44.18946" lon="6.8133">
        <ele>2023</ele>
        <time>2018-07-07T10:11:40.000Z</time>
      </trkpt>
      <trkpt lat="44.18946" lon="6.8133">
        <ele>2023</ele>
        <time>2018-07-07T10:11:48.000Z</time>
      </trkpt>
      <trkpt lat="44.18946" lon="6.8133">
        <ele>2023</ele>
        <time>2018-07-07T10:11:57.000Z</time>
      </trkpt>
      <trkpt lat="44.18946" lon="6.8133">
        <ele>2023</ele>
        <time>2018-07-07T10:12:09.000Z</time>
      </trkpt>
      <trkpt lat="44.18946" lon="6.8133">
        <ele>2023</ele>
        <time>2018-07-07T10:12:20.000Z</time>
      </trkpt>
      <trkpt lat="44.18946" lon="6.8133">
        <ele>2023</ele>
        <time>2018-07-07T10:12:33.000Z</time>
      </trkpt>
      <trkpt lat="44.18947" lon="6.8133">
        <ele>2023</ele>
        <time>2018-07-07T10:12:49.000Z</time>
      </trkpt>
      <trkpt lat="44.18947" lon="6.8133">
        <ele>2023</ele>
        <time>2018-07-07T10:13:03.000Z</time>
      </trkpt>
      <trkpt lat="44.18946" lon="6.8133">
        <ele>2023</ele>
        <time>2018-07-07T10:13:19.000Z</time>
      </trkpt>
      <trkpt lat="44.18946" lon="6.81329">
        <ele>2023</ele>
        <time>2018-07-07T10:13:34.000Z</time>
      </trkpt>
      <trkpt lat="44.18946" lon="6.8133">
        <ele>2023</ele>
        <time>2018-07-07T10:13:53.000Z</time>
      </trkpt>
      <trkpt lat="44.18946" lon="6.8133">
        <ele>2023</ele>
        <time>2018-07-07T10:14:05.000Z</time>
      </trkpt>
      <trkpt lat="44.18946" lon="6.8133">
        <ele>2023</ele>
        <time>2018-07-07T10:14:15.000Z</time>
      </trkpt>
      <trkpt lat="44.18946" lon="6.8133">
        <ele>2023</ele>
        <time>2018-07-07T10:14:25.000Z</time>
      </trkpt>
      <trkpt lat="44.18946" lon="6.8133">
        <ele>2023</ele>
        <time>2018-07-07T10:14:39.000Z</time>
      </trkpt>
      <trkpt lat="44.18947" lon="6.8133">
        <ele>2023</ele>
        <time>2018-07-07T10:14:47.000Z</time>
      </trkpt>
      <trkpt lat="44.18946" lon="6.8133">
        <ele>2023</ele>
        <time>2018-07-07T10:14:58.000Z</time>
      </trkpt>
      <trkpt lat="44.18947" lon="6.81331">
        <ele>2023</ele>
        <time>2018-07-07T10:15:09.000Z</time>
      </trkpt>
      <trkpt lat="44.18946" lon="6.81334">
        <ele>2018</ele>
        <time>2018-07-07T10:15:14.000Z</time>
      </trkpt>
      <trkpt lat="44.18946" lon="6.8133">
        <ele>2023</ele>
        <time>2018-07-07T10:15:21.000Z</time>
      </trkpt>
      <trkpt lat="44.18947" lon="6.81329">
        <ele>2023</ele>
        <time>2018-07-07T10:15:26.000Z</time>
      </trkpt>
      <trkpt lat="44.18947" lon="6.81329">
        <ele>2023</ele>
        <time>2018-07-07T10:15:38.000Z</time>
      </trkpt>
      <trkpt lat="44.18947" lon="6.81329">
        <ele>2023</ele>
        <time>2018-07-07T10:15:43.000Z</time>
      </trkpt>
      <trkpt lat="44.18946" lon="6.81329">
        <ele>2023</ele>
        <time>2018-07-07T10:15:50.000Z</time>
      </trkpt>
      <trkpt lat="44.18946" lon="6.8133">
        <ele>2023</ele>
        <time>2018-07-07T10:15:56.000Z</time>
      </trkpt>
      <trkpt lat="44.18946" lon="6.81329">
        <ele>2023</ele>
        <time>2018-07-07T10:16:08.000Z</time>
      </trkpt>
      <trkpt lat="44.18945" lon="6.81329">
        <ele>2023</ele>
        <time>2018-07-07T10:16:19.000Z</time>
      </trkpt>
      <trkpt lat="44.18945" lon="6.81329">
        <ele>2023</ele>
        <time>2018-07-07T10:16:32.000Z</time>
      </trkpt>
      <trkpt lat="44.18944" lon="6.81329">
        <ele>2023</ele>
        <time>2018-07-07T10:16:44.000Z</time>
      </trkpt>
      <trkpt lat="44.18944" lon="6.8133">
        <ele>2023</ele>
        <time>2018-07-07T10:16:52.000Z</time>
      </trkpt>
      <trkpt lat="44.18945" lon="6.8133">
        <ele>2023</ele>
        <time>2018-07-07T10:16:57.000Z</time>
      </trkpt>
      <trkpt lat="44.18945" lon="6.81329">
        <ele>2023</ele>
        <time>2018-07-07T10:17:02.000Z</time>
      </trkpt>
      <trkpt lat="44.18945" lon="6.81329">
        <ele>2023</ele>
        <time>2018-07-07T10:17:11.000Z</time>
      </trkpt>
      <trkpt lat="44.18943" lon="6.81329">
        <ele>2023</ele>
        <time>2018-07-07T10:17:30.000Z</time>
      </trkpt>
      <trkpt lat="44.18943" lon="6.81329">
        <ele>2023</ele>
        <time>2018-07-07T10:17:38.000Z</time>
      </trkpt>
      <trkpt lat="44.18943" lon="6.81329">
        <ele>2023</ele>
        <time>2018-07-07T10:17:47.000Z</time>
      </trkpt>
      <trkpt lat="44.18942" lon="6.81329">
        <ele>2023</ele>
        <time>2018-07-07T10:18:05.000Z</time>
      </trkpt>
      <trkpt lat="44.18942" lon="6.8133">
        <ele>2023</ele>
        <time>2018-07-07T10:18:16.000Z</time>
      </trkpt>
      <trkpt lat="44.18943" lon="6.81329">
        <ele>2023</ele>
        <time>2018-07-07T10:18:25.000Z</time>
      </trkpt>
      <trkpt lat="44.18942" lon="6.8133">
        <ele>2023</ele>
        <time>2018-07-07T10:18:39.000Z</time>
      </trkpt>
      <trkpt lat="44.18942" lon="6.81329">
        <ele>2023</ele>
        <time>2018-07-07T10:18:48.000Z</time>
      </trkpt>
      <trkpt lat="44.18942" lon="6.8133">
        <ele>2023</ele>
        <time>2018-07-07T10:19:07.000Z</time>
      </trkpt>
      <trkpt lat="44.18942" lon="6.81329">
        <ele>2023</ele>
        <time>2018-07-07T10:19:12.000Z</time>
      </trkpt>
      <trkpt lat="44.18942" lon="6.81331">
        <ele>2023</ele>
        <time>2018-07-07T10:19:18.000Z</time>
      </trkpt>
      <trkpt lat="44.18943" lon="6.81331">
        <ele>2023</ele>
        <time>2018-07-07T10:19:27.000Z</time>
      </trkpt>
      <trkpt lat="44.18942" lon="6.8133">
        <ele>2023</ele>
        <time>2018-07-07T10:19:34.000Z</time>
      </trkpt>
      <trkpt lat="44.18943" lon="6.81331">
        <ele>2023</ele>
        <time>2018-07-07T10:19:51.000Z</time>
      </trkpt>
      <trkpt lat="44.18944" lon="6.81331">
        <ele>2023</ele>
        <time>2018-07-07T10:19:58.000Z</time>
      </trkpt>
      <trkpt lat="44.18943" lon="6.81331">
        <ele>2023</ele>
        <time>2018-07-07T10:20:02.000Z</time>
      </trkpt>
      <trkpt lat="44.18943" lon="6.81331">
        <ele>2023</ele>
        <time>2018-07-07T10:20:05.000Z</time>
      </trkpt>
      <trkpt lat="44.18944" lon="6.8133">
        <ele>2023</ele>
        <time>2018-07-07T10:20:10.000Z</time>
      </trkpt>
      <trkpt lat="44.18944" lon="6.81331">
        <ele>2023</ele>
        <time>2018-07-07T10:20:18.000Z</time>
      </trkpt>
      <trkpt lat="44.18944" lon="6.8133">
        <ele>2023</ele>
        <time>2018-07-07T10:20:29.000Z</time>
      </trkpt>
      <trkpt lat="44.18944" lon="6.8133">
        <ele>2023</ele>
        <time>2018-07-07T10:20:46.000Z</time>
      </trkpt>
      <trkpt lat="44.18944" lon="6.8133">
        <ele>2023</ele>
        <time>2018-07-07T10:20:51.000Z</time>
      </trkpt>
      <trkpt lat="44.18945" lon="6.8133">
        <ele>2023</ele>
        <time>2018-07-07T10:21:02.000Z</time>
      </trkpt>
      <trkpt lat="44.18945" lon="6.81329">
        <ele>2023</ele>
        <time>2018-07-07T10:21:09.000Z</time>
      </trkpt>
      <trkpt lat="44.18944" lon="6.8133">
        <ele>2023</ele>
        <time>2018-07-07T10:21:19.000Z</time>
      </trkpt>
      <trkpt lat="44.18945" lon="6.8133">
        <ele>2023</ele>
        <time>2018-07-07T10:21:31.000Z</time>
      </trkpt>
      <trkpt lat="44.18944" lon="6.8133">
        <ele>2023</ele>
        <time>2018-07-07T10:21:45.000Z</time>
      </trkpt>
      <trkpt lat="44.18944" lon="6.8133">
        <ele>2023</ele>
        <time>2018-07-07T10:21:53.000Z</time>
      </trkpt>
      <trkpt lat="44.18945" lon="6.8133">
        <ele>2023</ele>
        <time>2018-07-07T10:22:11.000Z</time>
      </trkpt>
      <trkpt lat="44.18945" lon="6.8133">
        <ele>2023</ele>
        <time>2018-07-07T10:22:21.000Z</time>
      </trkpt>
      <trkpt lat="44.18944" lon="6.8133">
        <ele>2023</ele>
        <time>2018-07-07T10:22:23.000Z</time>
      </trkpt>
      <trkpt lat="44.18944" lon="6.8133">
        <ele>2023</ele>
        <time>2018-07-07T10:22:34.000Z</time>
      </trkpt>
      <trkpt lat="44.18944" lon="6.81331">
        <ele>2023</ele>
        <time>2018-07-07T10:22:46.000Z</time>
      </trkpt>
      <trkpt lat="44.18944" lon="6.81331">
        <ele>2023</ele>
        <time>2018-07-07T10:22:56.000Z</time>
      </trkpt>
      <trkpt lat="44.18945" lon="6.81331">
        <ele>2023</ele>
        <time>2018-07-07T10:23:13.000Z</time>
      </trkpt>
      <trkpt lat="44.18946" lon="6.81334">
        <ele>2018</ele>
        <time>2018-07-07T10:23:20.000Z</time>
      </trkpt>
      <trkpt lat="44.18945" lon="6.81334">
        <ele>2018</ele>
        <time>2018-07-07T10:23:26.000Z</time>
      </trkpt>
      <trkpt lat="44.18945" lon="6.81335">
        <ele>2018</ele>
        <time>2018-07-07T10:23:32.000Z</time>
      </trkpt>
      <trkpt lat="44.18945" lon="6.81335">
        <ele>2018</ele>
        <time>2018-07-07T10:23:36.000Z</time>
      </trkpt>
      <trkpt lat="44.18946" lon="6.81335">
        <ele>2018</ele>
        <time>2018-07-07T10:23:52.000Z</time>
      </trkpt>
      <trkpt lat="44.18947" lon="6.81335">
        <ele>2018</ele>
        <time>2018-07-07T10:23:55.000Z</time>
      </trkpt>
      <trkpt lat="44.18947" lon="6.81335">
        <ele>2018</ele>
        <time>2018-07-07T10:23:58.000Z</time>
      </trkpt>
      <trkpt lat="44.18947" lon="6.81335">
        <ele>2017</ele>
        <time>2018-07-07T10:24:04.000Z</time>
      </trkpt>
      <trkpt lat="44.18947" lon="6.81335">
        <ele>2018</ele>
        <time>2018-07-07T10:24:18.000Z</time>
      </trkpt>
      <trkpt lat="44.18947" lon="6.81335">
        <ele>2018</ele>
        <time>2018-07-07T10:24:26.000Z</time>
      </trkpt>
      <trkpt lat="44.18946" lon="6.81335">
        <ele>2018</ele>
        <time>2018-07-07T10:24:42.000Z</time>
      </trkpt>
      <trkpt lat="44.18946" lon="6.81335">
        <ele>2018</ele>
        <time>2018-07-07T10:24:49.000Z</time>
      </trkpt>
      <trkpt lat="44.18946" lon="6.81335">
        <ele>2018</ele>
        <time>2018-07-07T10:24:56.000Z</time>
      </trkpt>
      <trkpt lat="44.18946" lon="6.81335">
        <ele>2018</ele>
        <time>2018-07-07T10:25:03.000Z</time>
      </trkpt>
      <trkpt lat="44.18946" lon="6.81335">
        <ele>2018</ele>
        <time>2018-07-07T10:25:13.000Z</time>
      </trkpt>
      <trkpt lat="44.18946" lon="6.81335">
        <ele>2018</ele>
        <time>2018-07-07T10:25:23.000Z</time>
      </trkpt>
      <trkpt lat="44.18945" lon="6.81335">
        <ele>2018</ele>
        <time>2018-07-07T10:25:31.000Z</time>
      </trkpt>
      <trkpt lat="44.18945" lon="6.81335">
        <ele>2018</ele>
        <time>2018-07-07T10:25:42.000Z</time>
      </trkpt>
      <trkpt lat="44.18945" lon="6.81335">
        <ele>2018</ele>
        <time>2018-07-07T10:25:52.000Z</time>
      </trkpt>
      <trkpt lat="44.18945" lon="6.81335">
        <ele>2018</ele>
        <time>2018-07-07T10:25:53.000Z</time>
      </trkpt>
      <trkpt lat="44.18945" lon="6.81335">
        <ele>2018</ele>
        <time>2018-07-07T10:25:58.000Z</time>
      </trkpt>
      <trkpt lat="44.18945" lon="6.81335">
        <ele>2018</ele>
        <time>2018-07-07T10:26:05.000Z</time>
      </trkpt>
      <trkpt lat="44.18945" lon="6.81334">
        <ele>2018</ele>
        <time>2018-07-07T10:26:15.000Z</time>
      </trkpt>
      <trkpt lat="44.18945" lon="6.81334">
        <ele>2018</ele>
        <time>2018-07-07T10:26:18.000Z</time>
      </trkpt>
      <trkpt lat="44.18945" lon="6.81335">
        <ele>2018</ele>
        <time>2018-07-07T10:26:26.000Z</time>
      </trkpt>
      <trkpt lat="44.18946" lon="6.81334">
        <ele>2018</ele>
        <time>2018-07-07T10:26:40.000Z</time>
      </trkpt>
      <trkpt lat="44.18946" lon="6.81334">
        <ele>2018</ele>
        <time>2018-07-07T10:26:50.000Z</time>
      </trkpt>
      <trkpt lat="44.18946" lon="6.81333">
        <ele>2018</ele>
        <time>2018-07-07T10:27:03.000Z</time>
      </trkpt>
      <trkpt lat="44.18946" lon="6.81334">
        <ele>2018</ele>
        <time>2018-07-07T10:27:05.000Z</time>
      </trkpt>
      <trkpt lat="44.18945" lon="6.81333">
        <ele>2023</ele>
        <time>2018-07-07T10:27:13.000Z</time>
      </trkpt>
      <trkpt lat="44.18945" lon="6.81334">
        <ele>2018</ele>
        <time>2018-07-07T10:27:20.000Z</time>
      </trkpt>
      <trkpt lat="44.18946" lon="6.81332">
        <ele>2023</ele>
        <time>2018-07-07T10:27:29.000Z</time>
      </trkpt>
      <trkpt lat="44.18946" lon="6.81331">
        <ele>2023</ele>
        <time>2018-07-07T10:27:35.000Z</time>
      </trkpt>
      <trkpt lat="44.18946" lon="6.81331">
        <ele>2023</ele>
        <time>2018-07-07T10:27:43.000Z</time>
      </trkpt>
      <trkpt lat="44.18947" lon="6.81331">
        <ele>2023</ele>
        <time>2018-07-07T10:27:48.000Z</time>
      </trkpt>
      <trkpt lat="44.18946" lon="6.81331">
        <ele>2023</ele>
        <time>2018-07-07T10:27:56.000Z</time>
      </trkpt>
      <trkpt lat="44.18946" lon="6.81331">
        <ele>2023</ele>
        <time>2018-07-07T10:28:03.000Z</time>
      </trkpt>
      <trkpt lat="44.18946" lon="6.81331">
        <ele>2023</ele>
        <time>2018-07-07T10:28:12.000Z</time>
      </trkpt>
      <trkpt lat="44.18946" lon="6.81331">
        <ele>2023</ele>
        <time>2018-07-07T10:28:19.000Z</time>
      </trkpt>
      <trkpt lat="44.18946" lon="6.81331">
        <ele>2023</ele>
        <time>2018-07-07T10:28:26.000Z</time>
      </trkpt>
      <trkpt lat="44.18946" lon="6.81331">
        <ele>2023</ele>
        <time>2018-07-07T10:28:31.000Z</time>
      </trkpt>
      <trkpt lat="44.18945" lon="6.8133">
        <ele>2023</ele>
        <time>2018-07-07T10:28:38.000Z</time>
      </trkpt>
      <trkpt lat="44.18945" lon="6.8133">
        <ele>2023</ele>
        <time>2018-07-07T10:28:44.000Z</time>
      </trkpt>
      <trkpt lat="44.18945" lon="6.8133">
        <ele>2023</ele>
        <time>2018-07-07T10:28:51.000Z</time>
      </trkpt>
      <trkpt lat="44.18944" lon="6.8133">
        <ele>2023</ele>
        <time>2018-07-07T10:29:04.000Z</time>
      </trkpt>
      <trkpt lat="44.18944" lon="6.8133">
        <ele>2023</ele>
        <time>2018-07-07T10:29:07.000Z</time>
      </trkpt>
      <trkpt lat="44.18944" lon="6.8133">
        <ele>2023</ele>
        <time>2018-07-07T10:29:16.000Z</time>
      </trkpt>
      <trkpt lat="44.18944" lon="6.81331">
        <ele>2023</ele>
        <time>2018-07-07T10:29:26.000Z</time>
      </trkpt>
      <trkpt lat="44.18944" lon="6.81331">
        <ele>2023</ele>
        <time>2018-07-07T10:29:33.000Z</time>
      </trkpt>
      <trkpt lat="44.18944" lon="6.81331">
        <ele>2023</ele>
        <time>2018-07-07T10:29:37.000Z</time>
      </trkpt>
      <trkpt lat="44.18944" lon="6.81331">
        <ele>2023</ele>
        <time>2018-07-07T10:29:53.000Z</time>
      </trkpt>
      <trkpt lat="44.18944" lon="6.81331">
        <ele>2023</ele>
        <time>2018-07-07T10:30:05.000Z</time>
      </trkpt>
      <trkpt lat="44.18945" lon="6.81331">
        <ele>2023</ele>
        <time>2018-07-07T10:30:12.000Z</time>
      </trkpt>
      <trkpt lat="44.18944" lon="6.81331">
        <ele>2023</ele>
        <time>2018-07-07T10:30:26.000Z</time>
      </trkpt>
      <trkpt lat="44.18945" lon="6.81331">
        <ele>2023</ele>
        <time>2018-07-07T10:30:35.000Z</time>
      </trkpt>
      <trkpt lat="44.18945" lon="6.81331">
        <ele>2023</ele>
        <time>2018-07-07T10:30:46.000Z</time>
      </trkpt>
      <trkpt lat="44.18946" lon="6.81331">
        <ele>2023</ele>
        <time>2018-07-07T10:30:58.000Z</time>
      </trkpt>
      <trkpt lat="44.18946" lon="6.81331">
        <ele>2023</ele>
        <time>2018-07-07T10:31:20.000Z</time>
      </trkpt>
      <trkpt lat="44.18946" lon="6.81331">
        <ele>2023</ele>
        <time>2018-07-07T10:31:41.000Z</time>
      </trkpt>
      <trkpt lat="44.18946" lon="6.81331">
        <ele>2023</ele>
        <time>2018-07-07T10:31:47.000Z</time>
      </trkpt>
      <trkpt lat="44.18945" lon="6.81331">
        <ele>2023</ele>
        <time>2018-07-07T10:31:48.000Z</time>
      </trkpt>
      <trkpt lat="44.18947" lon="6.8133">
        <ele>2023</ele>
        <time>2018-07-07T10:31:50.000Z</time>
      </trkpt>
      <trkpt lat="44.18947" lon="6.8133">
        <ele>2023</ele>
        <time>2018-07-07T10:31:55.000Z</time>
      </trkpt>
      <trkpt lat="44.18947" lon="6.8133">
        <ele>2023</ele>
        <time>2018-07-07T10:32:02.000Z</time>
      </trkpt>
      <trkpt lat="44.18946" lon="6.81331">
        <ele>2023</ele>
        <time>2018-07-07T10:32:13.000Z</time>
      </trkpt>
      <trkpt lat="44.18946" lon="6.81331">
        <ele>2023</ele>
        <time>2018-07-07T10:32:26.000Z</time>
      </trkpt>
      <trkpt lat="44.18946" lon="6.81331">
        <ele>2023</ele>
        <time>2018-07-07T10:32:41.000Z</time>
      </trkpt>
      <trkpt lat="44.18946" lon="6.81331">
        <ele>2023</ele>
        <time>2018-07-07T10:32:51.000Z</time>
      </trkpt>
      <trkpt lat="44.18946" lon="6.81332">
        <ele>2023</ele>
        <time>2018-07-07T10:32:57.000Z</time>
      </trkpt>
      <trkpt lat="44.18946" lon="6.81331">
        <ele>2023</ele>
        <time>2018-07-07T10:32:58.000Z</time>
      </trkpt>
      <trkpt lat="44.18946" lon="6.81332">
        <ele>2023</ele>
        <time>2018-07-07T10:32:59.000Z</time>
      </trkpt>
      <trkpt lat="44.18946" lon="6.81332">
        <ele>2023</ele>
        <time>2018-07-07T10:33:07.000Z</time>
      </trkpt>
      <trkpt lat="44.18946" lon="6.81336">
        <ele>2018</ele>
        <time>2018-07-07T10:33:12.000Z</time>
      </trkpt>
      <trkpt lat="44.18946" lon="6.81335">
        <ele>2018</ele>
        <time>2018-07-07T10:33:13.000Z</time>
      </trkpt>
      <trkpt lat="44.18946" lon="6.81333">
        <ele>2018</ele>
        <time>2018-07-07T10:33:21.000Z</time>
      </trkpt>
      <trkpt lat="44.18947" lon="6.81332">
        <ele>2023</ele>
        <time>2018-07-07T10:33:27.000Z</time>
      </trkpt>
      <trkpt lat="44.18947" lon="6.81332">
        <ele>2023</ele>
        <time>2018-07-07T10:33:36.000Z</time>
      </trkpt>
      <trkpt lat="44.18947" lon="6.81332">
        <ele>2023</ele>
        <time>2018-07-07T10:33:41.000Z</time>
      </trkpt>
      <trkpt lat="44.18948" lon="6.81332">
        <ele>2023</ele>
        <time>2018-07-07T10:33:50.000Z</time>
      </trkpt>
      <trkpt lat="44.18948" lon="6.81331">
        <ele>2023</ele>
        <time>2018-07-07T10:33:57.000Z</time>
      </trkpt>
      <trkpt lat="44.18947" lon="6.81331">
        <ele>2023</ele>
        <time>2018-07-07T10:34:05.000Z</time>
      </trkpt>
      <trkpt lat="44.18947" lon="6.81331">
        <ele>2023</ele>
        <time>2018-07-07T10:34:12.000Z</time>
      </trkpt>
      <trkpt lat="44.18947" lon="6.81331">
        <ele>2023</ele>
        <time>2018-07-07T10:34:23.000Z</time>
      </trkpt>
      <trkpt lat="44.18947" lon="6.81331">
        <ele>2023</ele>
        <time>2018-07-07T10:34:32.000Z</time>
      </trkpt>
      <trkpt lat="44.18946" lon="6.81331">
        <ele>2023</ele>
        <time>2018-07-07T10:34:38.000Z</time>
      </trkpt>
      <trkpt lat="44.18947" lon="6.81331">
        <ele>2023</ele>
        <time>2018-07-07T10:34:43.000Z</time>
      </trkpt>
      <trkpt lat="44.18946" lon="6.81332">
        <ele>2023</ele>
        <time>2018-07-07T10:34:48.000Z</time>
      </trkpt>
      <trkpt lat="44.18946" lon="6.81332">
        <ele>2023</ele>
        <time>2018-07-07T10:34:57.000Z</time>
      </trkpt>
      <trkpt lat="44.18947" lon="6.81331">
        <ele>2023</ele>
        <time>2018-07-07T10:35:06.000Z</time>
      </trkpt>
      <trkpt lat="44.18947" lon="6.81331">
        <ele>2023</ele>
        <time>2018-07-07T10:35:17.000Z</time>
      </trkpt>
      <trkpt lat="44.18947" lon="6.81331">
        <ele>2023</ele>
        <time>2018-07-07T10:35:25.000Z</time>
      </trkpt>
      <trkpt lat="44.18946" lon="6.81331">
        <ele>2023</ele>
        <time>2018-07-07T10:35:33.000Z</time>
      </trkpt>
      <trkpt lat="44.18946" lon="6.81332">
        <ele>2023</ele>
        <time>2018-07-07T10:35:40.000Z</time>
      </trkpt>
      <trkpt lat="44.18946" lon="6.81331">
        <ele>2023</ele>
        <time>2018-07-07T10:35:47.000Z</time>
      </trkpt>
      <trkpt lat="44.18946" lon="6.81334">
        <ele>2018</ele>
        <time>2018-07-07T10:35:54.000Z</time>
      </trkpt>
      <trkpt lat="44.18946" lon="6.81335">
        <ele>2018</ele>
        <time>2018-07-07T10:36:07.000Z</time>
      </trkpt>
      <trkpt lat="44.18946" lon="6.81335">
        <ele>2018</ele>
        <time>2018-07-07T10:36:14.000Z</time>
      </trkpt>
      <trkpt lat="44.18944" lon="6.81338">
        <ele>2018</ele>
        <time>2018-07-07T10:36:20.000Z</time>
      </trkpt>
      <trkpt lat="44.18934" lon="6.81343">
        <ele>2019</ele>
        <time>2018-07-07T10:36:26.000Z</time>
      </trkpt>
      <trkpt lat="44.18922" lon="6.81341">
        <ele>2021</ele>
        <time>2018-07-07T10:36:31.000Z</time>
      </trkpt>
      <trkpt lat="44.18912" lon="6.81343">
        <ele>2022</ele>
        <time>2018-07-07T10:36:37.000Z</time>
      </trkpt>
      <trkpt lat="44.18903" lon="6.81347">
        <ele>2020</ele>
        <time>2018-07-07T10:36:43.000Z</time>
      </trkpt>
      <trkpt lat="44.189" lon="6.81348">
        <ele>2020</ele>
        <time>2018-07-07T10:36:45.000Z</time>
      </trkpt>
      <trkpt lat="44.18895" lon="6.81349">
        <ele>2020</ele>
        <time>2018-07-07T10:36:49.000Z</time>
      </trkpt>
      <trkpt lat="44.18888" lon="6.81349">
        <ele>2019</ele>
        <time>2018-07-07T10:36:54.000Z</time>
      </trkpt>
      <trkpt lat="44.18879" lon="6.81347">
        <ele>2019</ele>
        <time>2018-07-07T10:37:01.000Z</time>
      </trkpt>
      <trkpt lat="44.18876" lon="6.81346">
        <ele>2019</ele>
        <time>2018-07-07T10:37:03.000Z</time>
      </trkpt>
      <trkpt lat="44.18866" lon="6.81342">
        <ele>2020</ele>
        <time>2018-07-07T10:37:09.000Z</time>
      </trkpt>
      <trkpt lat="44.18855" lon="6.81341">
        <ele>2021</ele>
        <time>2018-07-07T10:37:15.000Z</time>
      </trkpt>
      <trkpt lat="44.18854" lon="6.8134">
        <ele>2021</ele>
        <time>2018-07-07T10:37:16.000Z</time>
      </trkpt>
      <trkpt lat="44.18851" lon="6.81339">
        <ele>2021</ele>
        <time>2018-07-07T10:37:21.000Z</time>
      </trkpt>
      <trkpt lat="44.18851" lon="6.81339">
        <ele>2021</ele>
        <time>2018-07-07T10:37:29.000Z</time>
      </trkpt>
      <trkpt lat="44.18846" lon="6.81335">
        <ele>2022</ele>
        <time>2018-07-07T10:37:36.000Z</time>
      </trkpt>
      <trkpt lat="44.18834" lon="6.81328">
        <ele>2026</ele>
        <time>2018-07-07T10:37:42.000Z</time>
      </trkpt>
      <trkpt lat="44.18827" lon="6.81323">
        <ele>2029</ele>
        <time>2018-07-07T10:37:44.000Z</time>
      </trkpt>
      <trkpt lat="44.18824" lon="6.81321">
        <ele>2029</ele>
        <time>2018-07-07T10:37:46.000Z</time>
      </trkpt>
      <trkpt lat="44.18822" lon="6.81322">
        <ele>2030</ele>
        <time>2018-07-07T10:37:47.000Z</time>
      </trkpt>
      <trkpt lat="44.18817" lon="6.8132">
        <ele>2030</ele>
        <time>2018-07-07T10:37:50.000Z</time>
      </trkpt>
      <trkpt lat="44.18813" lon="6.81328">
        <ele>2030</ele>
        <time>2018-07-07T10:37:53.000Z</time>
      </trkpt>
      <trkpt lat="44.18811" lon="6.81331">
        <ele>2030</ele>
        <time>2018-07-07T10:37:54.000Z</time>
      </trkpt>
      <trkpt lat="44.188" lon="6.81336">
        <ele>2022</ele>
        <time>2018-07-07T10:37:58.000Z</time>
      </trkpt>
      <trkpt lat="44.18786" lon="6.8134">
        <ele>2023</ele>
        <time>2018-07-07T10:38:02.000Z</time>
      </trkpt>
      <trkpt lat="44.18783" lon="6.81341">
        <ele>2023</ele>
        <time>2018-07-07T10:38:03.000Z</time>
      </trkpt>
      <trkpt lat="44.18772" lon="6.81346">
        <ele>2024</ele>
        <time>2018-07-07T10:38:07.000Z</time>
      </trkpt>
      <trkpt lat="44.1876" lon="6.81351">
        <ele>2024</ele>
        <time>2018-07-07T10:38:12.000Z</time>
      </trkpt>
      <trkpt lat="44.18754" lon="6.81356">
        <ele>2024</ele>
        <time>2018-07-07T10:38:15.000Z</time>
      </trkpt>
      <trkpt lat="44.18752" lon="6.81359">
        <ele>2023</ele>
        <time>2018-07-07T10:38:16.000Z</time>
      </trkpt>
      <trkpt lat="44.18744" lon="6.81366">
        <ele>2028</ele>
        <time>2018-07-07T10:38:20.000Z</time>
      </trkpt>
      <trkpt lat="44.18739" lon="6.81367">
        <ele>2028</ele>
        <time>2018-07-07T10:38:22.000Z</time>
      </trkpt>
      <trkpt lat="44.18732" lon="6.81366">
        <ele>2029</ele>
        <time>2018-07-07T10:38:25.000Z</time>
      </trkpt>
      <trkpt lat="44.18723" lon="6.81371">
        <ele>2029</ele>
        <time>2018-07-07T10:38:29.000Z</time>
      </trkpt>
      <trkpt lat="44.1872" lon="6.81372">
        <ele>2029</ele>
        <time>2018-07-07T10:38:33.000Z</time>
      </trkpt>
      <trkpt lat="44.1872" lon="6.81373">
        <ele>2029</ele>
        <time>2018-07-07T10:38:34.000Z</time>
      </trkpt>
      <trkpt lat="44.18719" lon="6.81373">
        <ele>2029</ele>
        <time>2018-07-07T10:38:35.000Z</time>
      </trkpt>
      <trkpt lat="44.18716" lon="6.81375">
        <ele>2029</ele>
        <time>2018-07-07T10:38:38.000Z</time>
      </trkpt>
      <trkpt lat="44.18715" lon="6.81376">
        <ele>2029</ele>
        <time>2018-07-07T10:38:39.000Z</time>
      </trkpt>
      <trkpt lat="44.18709" lon="6.8138">
        <ele>2029</ele>
        <time>2018-07-07T10:38:43.000Z</time>
      </trkpt>
      <trkpt lat="44.18707" lon="6.8138">
        <ele>2030</ele>
        <time>2018-07-07T10:38:44.000Z</time>
      </trkpt>
      <trkpt lat="44.18704" lon="6.81382">
        <ele>2030</ele>
        <time>2018-07-07T10:38:46.000Z</time>
      </trkpt>
      <trkpt lat="44.18691" lon="6.81389">
        <ele>2030</ele>
        <time>2018-07-07T10:38:54.000Z</time>
      </trkpt>
      <trkpt lat="44.18689" lon="6.8139">
        <ele>2030</ele>
        <time>2018-07-07T10:38:55.000Z</time>
      </trkpt>
      <trkpt lat="44.18681" lon="6.8139">
        <ele>2031</ele>
        <time>2018-07-07T10:39:00.000Z</time>
      </trkpt>
      <trkpt lat="44.18666" lon="6.81395">
        <ele>2040</ele>
        <time>2018-07-07T10:39:07.000Z</time>
      </trkpt>
      <trkpt lat="44.18665" lon="6.81396">
        <ele>2039</ele>
        <time>2018-07-07T10:39:08.000Z</time>
      </trkpt>
      <trkpt lat="44.18659" lon="6.814">
        <ele>2039</ele>
        <time>2018-07-07T10:39:14.000Z</time>
      </trkpt>
      <trkpt lat="44.18658" lon="6.81401">
        <ele>2039</ele>
        <time>2018-07-07T10:39:15.000Z</time>
      </trkpt>
      <trkpt lat="44.18647" lon="6.81409">
        <ele>2040</ele>
        <time>2018-07-07T10:39:23.000Z</time>
      </trkpt>
      <trkpt lat="44.18633" lon="6.81416">
        <ele>2043</ele>
        <time>2018-07-07T10:39:30.000Z</time>
      </trkpt>
      <trkpt lat="44.18622" lon="6.81424">
        <ele>2035</ele>
        <time>2018-07-07T10:39:36.000Z</time>
      </trkpt>
      <trkpt lat="44.18623" lon="6.81435">
        <ele>2034</ele>
        <time>2018-07-07T10:39:40.000Z</time>
      </trkpt>
      <trkpt lat="44.18624" lon="6.81439">
        <ele>2033</ele>
        <time>2018-07-07T10:39:42.000Z</time>
      </trkpt>
      <trkpt lat="44.18624" lon="6.81444">
        <ele>2033</ele>
        <time>2018-07-07T10:39:45.000Z</time>
      </trkpt>
      <trkpt lat="44.18623" lon="6.81446">
        <ele>2033</ele>
        <time>2018-07-07T10:39:49.000Z</time>
      </trkpt>
      <trkpt lat="44.18623" lon="6.81454">
        <ele>2032</ele>
        <time>2018-07-07T10:39:56.000Z</time>
      </trkpt>
      <trkpt lat="44.18616" lon="6.81469">
        <ele>2031</ele>
        <time>2018-07-07T10:40:02.000Z</time>
      </trkpt>
      <trkpt lat="44.18606" lon="6.81488">
        <ele>2032</ele>
        <time>2018-07-07T10:40:08.000Z</time>
      </trkpt>
      <trkpt lat="44.18592" lon="6.8152">
        <ele>2025</ele>
        <time>2018-07-07T10:40:17.000Z</time>
      </trkpt>
      <trkpt lat="44.18591" lon="6.81524">
        <ele>2024</ele>
        <time>2018-07-07T10:40:18.000Z</time>
      </trkpt>
      <trkpt lat="44.18579" lon="6.81544">
        <ele>2034</ele>
        <time>2018-07-07T10:40:24.000Z</time>
      </trkpt>
      <trkpt lat="44.18561" lon="6.8157">
        <ele>2033</ele>
        <time>2018-07-07T10:40:32.000Z</time>
      </trkpt>
      <trkpt lat="44.18548" lon="6.816">
        <ele>2024</ele>
        <time>2018-07-07T10:40:39.000Z</time>
      </trkpt>
      <trkpt lat="44.18542" lon="6.81611">
        <ele>2024</ele>
        <time>2018-07-07T10:40:42.000Z</time>
      </trkpt>
      <trkpt lat="44.18538" lon="6.81619">
        <ele>2023</ele>
        <time>2018-07-07T10:40:44.000Z</time>
      </trkpt>
      <trkpt lat="44.18528" lon="6.81637">
        <ele>2022</ele>
        <time>2018-07-07T10:40:50.000Z</time>
      </trkpt>
      <trkpt lat="44.18525" lon="6.81643">
        <ele>2021</ele>
        <time>2018-07-07T10:40:52.000Z</time>
      </trkpt>
      <trkpt lat="44.18519" lon="6.81654">
        <ele>2021</ele>
        <time>2018-07-07T10:40:56.000Z</time>
      </trkpt>
      <trkpt lat="44.18509" lon="6.81664">
        <ele>2020</ele>
        <time>2018-07-07T10:41:01.000Z</time>
      </trkpt>
      <trkpt lat="44.18497" lon="6.81668">
        <ele>2019</ele>
        <time>2018-07-07T10:41:04.000Z</time>
      </trkpt>
      <trkpt lat="44.18492" lon="6.81671">
        <ele>2019</ele>
        <time>2018-07-07T10:41:05.000Z</time>
      </trkpt>
      <trkpt lat="44.18483" lon="6.81673">
        <ele>2019</ele>
        <time>2018-07-07T10:41:07.000Z</time>
      </trkpt>
      <trkpt lat="44.18476" lon="6.81672">
        <ele>2019</ele>
        <time>2018-07-07T10:41:09.000Z</time>
      </trkpt>
      <trkpt lat="44.18469" lon="6.81677">
        <ele>2019</ele>
        <time>2018-07-07T10:41:11.000Z</time>
      </trkpt>
      <trkpt lat="44.18466" lon="6.81682">
        <ele>2019</ele>
        <time>2018-07-07T10:41:12.000Z</time>
      </trkpt>
      <trkpt lat="44.18464" lon="6.81685">
        <ele>2019</ele>
        <time>2018-07-07T10:41:13.000Z</time>
      </trkpt>
      <trkpt lat="44.18457" lon="6.81684">
        <ele>2020</ele>
        <time>2018-07-07T10:41:15.000Z</time>
      </trkpt>
      <trkpt lat="44.18447" lon="6.81672">
        <ele>2021</ele>
        <time>2018-07-07T10:41:18.000Z</time>
      </trkpt>
      <trkpt lat="44.18438" lon="6.81664">
        <ele>2030</ele>
        <time>2018-07-07T10:41:20.000Z</time>
      </trkpt>
      <trkpt lat="44.18433" lon="6.81663">
        <ele>2030</ele>
        <time>2018-07-07T10:41:21.000Z</time>
      </trkpt>
      <trkpt lat="44.1843" lon="6.81664">
        <ele>2029</ele>
        <time>2018-07-07T10:41:22.000Z</time>
      </trkpt>
      <trkpt lat="44.1843" lon="6.81667">
        <ele>2024</ele>
        <time>2018-07-07T10:41:23.000Z</time>
      </trkpt>
      <trkpt lat="44.18428" lon="6.8167">
        <ele>2024</ele>
        <time>2018-07-07T10:41:24.000Z</time>
      </trkpt>
      <trkpt lat="44.18419" lon="6.81686">
        <ele>2023</ele>
        <time>2018-07-07T10:41:30.000Z</time>
      </trkpt>
      <trkpt lat="44.18419" lon="6.8169">
        <ele>2022</ele>
        <time>2018-07-07T10:41:31.000Z</time>
      </trkpt>
      <trkpt lat="44.18419" lon="6.81696">
        <ele>2022</ele>
        <time>2018-07-07T10:41:33.000Z</time>
      </trkpt>
      <trkpt lat="44.18421" lon="6.81701">
        <ele>2021</ele>
        <time>2018-07-07T10:41:35.000Z</time>
      </trkpt>
      <trkpt lat="44.18421" lon="6.81709">
        <ele>2020</ele>
        <time>2018-07-07T10:41:38.000Z</time>
      </trkpt>
      <trkpt lat="44.18422" lon="6.81711">
        <ele>2020</ele>
        <time>2018-07-07T10:41:39.000Z</time>
      </trkpt>
      <trkpt lat="44.1842" lon="6.81725">
        <ele>2020</ele>
        <time>2018-07-07T10:41:43.000Z</time>
      </trkpt>
      <trkpt lat="44.1842" lon="6.81751">
        <ele>2020</ele>
        <time>2018-07-07T10:41:49.000Z</time>
      </trkpt>
      <trkpt lat="44.18417" lon="6.81783">
        <ele>2014</ele>
        <time>2018-07-07T10:41:56.000Z</time>
      </trkpt>
      <trkpt lat="44.18416" lon="6.81805">
        <ele>2026</ele>
        <time>2018-07-07T10:42:02.000Z</time>
      </trkpt>
      <trkpt lat="44.1841" lon="6.81819">
        <ele>2024</ele>
        <time>2018-07-07T10:42:08.000Z</time>
      </trkpt>
      <trkpt lat="44.18409" lon="6.81821">
        <ele>2024</ele>
        <time>2018-07-07T10:42:09.000Z</time>
      </trkpt>
      <trkpt lat="44.18402" lon="6.81837">
        <ele>2021</ele>
        <time>2018-07-07T10:42:14.000Z</time>
      </trkpt>
      <trkpt lat="44.18399" lon="6.8186">
        <ele>2023</ele>
        <time>2018-07-07T10:42:21.000Z</time>
      </trkpt>
      <trkpt lat="44.18398" lon="6.81865">
        <ele>2023</ele>
        <time>2018-07-07T10:42:23.000Z</time>
      </trkpt>
      <trkpt lat="44.18394" lon="6.81883">
        <ele>2023</ele>
        <time>2018-07-07T10:42:30.000Z</time>
      </trkpt>
      <trkpt lat="44.18393" lon="6.81886">
        <ele>2023</ele>
        <time>2018-07-07T10:42:31.000Z</time>
      </trkpt>
      <trkpt lat="44.18382" lon="6.81904">
        <ele>2024</ele>
        <time>2018-07-07T10:42:38.000Z</time>
      </trkpt>
      <trkpt lat="44.18377" lon="6.81917">
        <ele>2020</ele>
        <time>2018-07-07T10:42:43.000Z</time>
      </trkpt>
      <trkpt lat="44.18371" lon="6.81929">
        <ele>2021</ele>
        <time>2018-07-07T10:42:47.000Z</time>
      </trkpt>
      <trkpt lat="44.1837" lon="6.81931">
        <ele>2021</ele>
        <time>2018-07-07T10:42:48.000Z</time>
      </trkpt>
      <trkpt lat="44.1836" lon="6.81943">
        <ele>2022</ele>
        <time>2018-07-07T10:42:54.000Z</time>
      </trkpt>
      <trkpt lat="44.1836" lon="6.81957">
        <ele>2021</ele>
        <time>2018-07-07T10:42:57.000Z</time>
      </trkpt>
      <trkpt lat="44.18359" lon="6.81961">
        <ele>2020</ele>
        <time>2018-07-07T10:42:58.000Z</time>
      </trkpt>
      <trkpt lat="44.18356" lon="6.81968">
        <ele>2021</ele>
        <time>2018-07-07T10:43:01.000Z</time>
      </trkpt>
      <trkpt lat="44.18355" lon="6.81971">
        <ele>2021</ele>
        <time>2018-07-07T10:43:02.000Z</time>
      </trkpt>
      <trkpt lat="44.18346" lon="6.81978">
        <ele>2022</ele>
        <time>2018-07-07T10:43:07.000Z</time>
      </trkpt>
      <trkpt lat="44.18343" lon="6.8198">
        <ele>2022</ele>
        <time>2018-07-07T10:43:09.000Z</time>
      </trkpt>
      <trkpt lat="44.18341" lon="6.81983">
        <ele>2023</ele>
        <time>2018-07-07T10:43:11.000Z</time>
      </trkpt>
      <trkpt lat="44.18338" lon="6.8199">
        <ele>2024</ele>
        <time>2018-07-07T10:43:15.000Z</time>
      </trkpt>
      <trkpt lat="44.18337" lon="6.81993">
        <ele>2025</ele>
        <time>2018-07-07T10:43:17.000Z</time>
      </trkpt>
      <trkpt lat="44.18335" lon="6.81995">
        <ele>2025</ele>
        <time>2018-07-07T10:43:19.000Z</time>
      </trkpt>
      <trkpt lat="44.18331" lon="6.82007">
        <ele>2029</ele>
        <time>2018-07-07T10:43:23.000Z</time>
      </trkpt>
      <trkpt lat="44.18325" lon="6.82019">
        <ele>2031</ele>
        <time>2018-07-07T10:43:27.000Z</time>
      </trkpt>
      <trkpt lat="44.18324" lon="6.82022">
        <ele>2031</ele>
        <time>2018-07-07T10:43:30.000Z</time>
      </trkpt>
      <trkpt lat="44.18324" lon="6.82023">
        <ele>2031</ele>
        <time>2018-07-07T10:43:31.000Z</time>
      </trkpt>
      <trkpt lat="44.18324" lon="6.82023">
        <ele>2031</ele>
        <time>2018-07-07T10:43:35.000Z</time>
      </trkpt>
      <trkpt lat="44.18324" lon="6.8203">
        <ele>2031</ele>
        <time>2018-07-07T10:43:41.000Z</time>
      </trkpt>
      <trkpt lat="44.18323" lon="6.82034">
        <ele>2031</ele>
        <time>2018-07-07T10:43:42.000Z</time>
      </trkpt>
      <trkpt lat="44.18317" lon="6.82044">
        <ele>2031</ele>
        <time>2018-07-07T10:43:45.000Z</time>
      </trkpt>
      <trkpt lat="44.18309" lon="6.82053">
        <ele>2031</ele>
        <time>2018-07-07T10:43:50.000Z</time>
      </trkpt>
      <trkpt lat="44.18298" lon="6.82061">
        <ele>2032</ele>
        <time>2018-07-07T10:43:57.000Z</time>
      </trkpt>
      <trkpt lat="44.18296" lon="6.82064">
        <ele>2033</ele>
        <time>2018-07-07T10:43:59.000Z</time>
      </trkpt>
      <trkpt lat="44.18296" lon="6.82066">
        <ele>2033</ele>
        <time>2018-07-07T10:44:00.000Z</time>
      </trkpt>
      <trkpt lat="44.18294" lon="6.82073">
        <ele>2033</ele>
        <time>2018-07-07T10:44:03.000Z</time>
      </trkpt>
      <trkpt lat="44.18294" lon="6.82079">
        <ele>2032</ele>
        <time>2018-07-07T10:44:07.000Z</time>
      </trkpt>
      <trkpt lat="44.18294" lon="6.82084">
        <ele>2026</ele>
        <time>2018-07-07T10:44:10.000Z</time>
      </trkpt>
      <trkpt lat="44.18293" lon="6.82089">
        <ele>2026</ele>
        <time>2018-07-07T10:44:12.000Z</time>
      </trkpt>
      <trkpt lat="44.18293" lon="6.82093">
        <ele>2026</ele>
        <time>2018-07-07T10:44:14.000Z</time>
      </trkpt>
      <trkpt lat="44.18291" lon="6.82099">
        <ele>2026</ele>
        <time>2018-07-07T10:44:17.000Z</time>
      </trkpt>
      <trkpt lat="44.18291" lon="6.821">
        <ele>2026</ele>
        <time>2018-07-07T10:44:18.000Z</time>
      </trkpt>
      <trkpt lat="44.18289" lon="6.82107">
        <ele>2026</ele>
        <time>2018-07-07T10:44:22.000Z</time>
      </trkpt>
      <trkpt lat="44.18286" lon="6.82111">
        <ele>2026</ele>
        <time>2018-07-07T10:44:25.000Z</time>
      </trkpt>
      <trkpt lat="44.18282" lon="6.82117">
        <ele>2026</ele>
        <time>2018-07-07T10:44:29.000Z</time>
      </trkpt>
      <trkpt lat="44.18281" lon="6.82121">
        <ele>2026</ele>
        <time>2018-07-07T10:44:31.000Z</time>
      </trkpt>
      <trkpt lat="44.18279" lon="6.82128">
        <ele>2026</ele>
        <time>2018-07-07T10:44:35.000Z</time>
      </trkpt>
      <trkpt lat="44.18278" lon="6.82129">
        <ele>2026</ele>
        <time>2018-07-07T10:44:36.000Z</time>
      </trkpt>
      <trkpt lat="44.18277" lon="6.82136">
        <ele>2025</ele>
        <time>2018-07-07T10:44:40.000Z</time>
      </trkpt>
      <trkpt lat="44.18277" lon="6.82137">
        <ele>2025</ele>
        <time>2018-07-07T10:44:41.000Z</time>
      </trkpt>
      <trkpt lat="44.18272" lon="6.82147">
        <ele>2025</ele>
        <time>2018-07-07T10:44:47.000Z</time>
      </trkpt>
      <trkpt lat="44.1827" lon="6.82152">
        <ele>2025</ele>
        <time>2018-07-07T10:44:49.000Z</time>
      </trkpt>
      <trkpt lat="44.18262" lon="6.82165">
        <ele>2026</ele>
        <time>2018-07-07T10:44:56.000Z</time>
      </trkpt>
      <trkpt lat="44.18261" lon="6.82167">
        <ele>2021</ele>
        <time>2018-07-07T10:44:57.000Z</time>
      </trkpt>
      <trkpt lat="44.18246" lon="6.82182">
        <ele>2029</ele>
        <time>2018-07-07T10:45:05.000Z</time>
      </trkpt>
      <trkpt lat="44.18234" lon="6.82184">
        <ele>2030</ele>
        <time>2018-07-07T10:45:11.000Z</time>
      </trkpt>
      <trkpt lat="44.18232" lon="6.82184">
        <ele>2030</ele>
        <time>2018-07-07T10:45:12.000Z</time>
      </trkpt>
      <trkpt lat="44.1822" lon="6.82188">
        <ele>2031</ele>
        <time>2018-07-07T10:45:16.000Z</time>
      </trkpt>
      <trkpt lat="44.18205" lon="6.82199">
        <ele>2033</ele>
        <time>2018-07-07T10:45:21.000Z</time>
      </trkpt>
      <trkpt lat="44.18204" lon="6.82201">
        <ele>2033</ele>
        <time>2018-07-07T10:45:22.000Z</time>
      </trkpt>
      <trkpt lat="44.18202" lon="6.82208">
        <ele>2033</ele>
        <time>2018-07-07T10:45:25.000Z</time>
      </trkpt>
      <trkpt lat="44.18202" lon="6.82219">
        <ele>2032</ele>
        <time>2018-07-07T10:45:29.000Z</time>
      </trkpt>
      <trkpt lat="44.18201" lon="6.82221">
        <ele>2032</ele>
        <time>2018-07-07T10:45:30.000Z</time>
      </trkpt>
      <trkpt lat="44.18196" lon="6.82233">
        <ele>2033</ele>
        <time>2018-07-07T10:45:35.000Z</time>
      </trkpt>
      <trkpt lat="44.18191" lon="6.82247">
        <ele>2034</ele>
        <time>2018-07-07T10:45:39.000Z</time>
      </trkpt>
      <trkpt lat="44.18189" lon="6.82256">
        <ele>2029</ele>
        <time>2018-07-07T10:45:42.000Z</time>
      </trkpt>
      <trkpt lat="44.18189" lon="6.82259">
        <ele>2029</ele>
        <time>2018-07-07T10:45:43.000Z</time>
      </trkpt>
      <trkpt lat="44.18187" lon="6.82263">
        <ele>2029</ele>
        <time>2018-07-07T10:45:45.000Z</time>
      </trkpt>
      <trkpt lat="44.18186" lon="6.82274">
        <ele>2028</ele>
        <time>2018-07-07T10:45:49.000Z</time>
      </trkpt>
      <trkpt lat="44.18183" lon="6.82285">
        <ele>2027</ele>
        <time>2018-07-07T10:45:53.000Z</time>
      </trkpt>
      <trkpt lat="44.18182" lon="6.82287">
        <ele>2026</ele>
        <time>2018-07-07T10:45:54.000Z</time>
      </trkpt>
      <trkpt lat="44.18176" lon="6.82301">
        <ele>2027</ele>
        <time>2018-07-07T10:46:01.000Z</time>
      </trkpt>
      <trkpt lat="44.18175" lon="6.82319">
        <ele>2029</ele>
        <time>2018-07-07T10:46:07.000Z</time>
      </trkpt>
      <trkpt lat="44.18172" lon="6.82326">
        <ele>2031</ele>
        <time>2018-07-07T10:46:12.000Z</time>
      </trkpt>
      <trkpt lat="44.1817" lon="6.82332">
        <ele>2033</ele>
        <time>2018-07-07T10:46:17.000Z</time>
      </trkpt>
      <trkpt lat="44.18168" lon="6.82336">
        <ele>2032</ele>
        <time>2018-07-07T10:46:22.000Z</time>
      </trkpt>
      <trkpt lat="44.18167" lon="6.82338">
        <ele>2031</ele>
        <time>2018-07-07T10:46:23.000Z</time>
      </trkpt>
      <trkpt lat="44.18162" lon="6.82347">
        <ele>2035</ele>
        <time>2018-07-07T10:46:28.000Z</time>
      </trkpt>
      <trkpt lat="44.1816" lon="6.82352">
        <ele>2035</ele>
        <time>2018-07-07T10:46:31.000Z</time>
      </trkpt>
      <trkpt lat="44.18157" lon="6.82358">
        <ele>2035</ele>
        <time>2018-07-07T10:46:34.000Z</time>
      </trkpt>
      <trkpt lat="44.18153" lon="6.82366">
        <ele>2035</ele>
        <time>2018-07-07T10:46:39.000Z</time>
      </trkpt>
      <trkpt lat="44.18147" lon="6.82377">
        <ele>2034</ele>
        <time>2018-07-07T10:46:45.000Z</time>
      </trkpt>
      <trkpt lat="44.18143" lon="6.8239">
        <ele>2034</ele>
        <time>2018-07-07T10:46:52.000Z</time>
      </trkpt>
      <trkpt lat="44.18141" lon="6.82396">
        <ele>2033</ele>
        <time>2018-07-07T10:46:55.000Z</time>
      </trkpt>
      <trkpt lat="44.18137" lon="6.82403">
        <ele>2033</ele>
        <time>2018-07-07T10:46:59.000Z</time>
      </trkpt>
      <trkpt lat="44.18135" lon="6.82405">
        <ele>2034</ele>
        <time>2018-07-07T10:47:01.000Z</time>
      </trkpt>
      <trkpt lat="44.18129" lon="6.82411">
        <ele>2034</ele>
        <time>2018-07-07T10:47:06.000Z</time>
      </trkpt>
      <trkpt lat="44.18117" lon="6.8242">
        <ele>2029</ele>
        <time>2018-07-07T10:47:12.000Z</time>
      </trkpt>
      <trkpt lat="44.18102" lon="6.82432">
        <ele>2031</ele>
        <time>2018-07-07T10:47:19.000Z</time>
      </trkpt>
      <trkpt lat="44.18088" lon="6.82446">
        <ele>2030</ele>
        <time>2018-07-07T10:47:26.000Z</time>
      </trkpt>
      <trkpt lat="44.18077" lon="6.82451">
        <ele>2037</ele>
        <time>2018-07-07T10:47:30.000Z</time>
      </trkpt>
      <trkpt lat="44.1807" lon="6.82457">
        <ele>2036</ele>
        <time>2018-07-07T10:47:32.000Z</time>
      </trkpt>
      <trkpt lat="44.18061" lon="6.82464">
        <ele>2035</ele>
        <time>2018-07-07T10:47:34.000Z</time>
      </trkpt>
      <trkpt lat="44.18057" lon="6.82468">
        <ele>2035</ele>
        <time>2018-07-07T10:47:35.000Z</time>
      </trkpt>
      <trkpt lat="44.1805" lon="6.82476">
        <ele>2035</ele>
        <time>2018-07-07T10:47:37.000Z</time>
      </trkpt>
      <trkpt lat="44.18042" lon="6.82485">
        <ele>2034</ele>
        <time>2018-07-07T10:47:39.000Z</time>
      </trkpt>
      <trkpt lat="44.18039" lon="6.82491">
        <ele>2034</ele>
        <time>2018-07-07T10:47:40.000Z</time>
      </trkpt>
      <trkpt lat="44.1803" lon="6.82502">
        <ele>2024</ele>
        <time>2018-07-07T10:47:42.000Z</time>
      </trkpt>
      <trkpt lat="44.18021" lon="6.8251">
        <ele>2024</ele>
        <time>2018-07-07T10:47:44.000Z</time>
      </trkpt>
      <trkpt lat="44.18016" lon="6.82513">
        <ele>2024</ele>
        <time>2018-07-07T10:47:45.000Z</time>
      </trkpt>
      <trkpt lat="44.18005" lon="6.82521">
        <ele>2024</ele>
        <time>2018-07-07T10:47:47.000Z</time>
      </trkpt>
      <trkpt lat="44.17996" lon="6.82525">
        <ele>2027</ele>
        <time>2018-07-07T10:47:49.000Z</time>
      </trkpt>
      <trkpt lat="44.17972" lon="6.82533">
        <ele>2027</ele>
        <time>2018-07-07T10:47:55.000Z</time>
      </trkpt>
      <trkpt lat="44.17955" lon="6.8254">
        <ele>2028</ele>
        <time>2018-07-07T10:48:00.000Z</time>
      </trkpt>
      <trkpt lat="44.17951" lon="6.82544">
        <ele>2028</ele>
        <time>2018-07-07T10:48:01.000Z</time>
      </trkpt>
      <trkpt lat="44.17936" lon="6.82558">
        <ele>2027</ele>
        <time>2018-07-07T10:48:04.000Z</time>
      </trkpt>
      <trkpt lat="44.17921" lon="6.82571">
        <ele>2027</ele>
        <time>2018-07-07T10:48:06.000Z</time>
      </trkpt>
      <trkpt lat="44.17914" lon="6.82578">
        <ele>2031</ele>
        <time>2018-07-07T10:48:07.000Z</time>
      </trkpt>
      <trkpt lat="44.17908" lon="6.82583">
        <ele>2032</ele>
        <time>2018-07-07T10:48:08.000Z</time>
      </trkpt>
      <trkpt lat="44.17904" lon="6.8259">
        <ele>2028</ele>
        <time>2018-07-07T10:48:09.000Z</time>
      </trkpt>
      <trkpt lat="44.17902" lon="6.82598">
        <ele>2028</ele>
        <time>2018-07-07T10:48:10.000Z</time>
      </trkpt>
      <trkpt lat="44.17897" lon="6.82611">
        <ele>2027</ele>
        <time>2018-07-07T10:48:12.000Z</time>
      </trkpt>
      <trkpt lat="44.17892" lon="6.82618">
        <ele>2027</ele>
        <time>2018-07-07T10:48:14.000Z</time>
      </trkpt>
      <trkpt lat="44.17886" lon="6.82623">
        <ele>2027</ele>
        <time>2018-07-07T10:48:16.000Z</time>
      </trkpt>
      <trkpt lat="44.1788" lon="6.82626">
        <ele>2028</ele>
        <time>2018-07-07T10:48:18.000Z</time>
      </trkpt>
      <trkpt lat="44.17878" lon="6.82628">
        <ele>2028</ele>
        <time>2018-07-07T10:48:19.000Z</time>
      </trkpt>
      <trkpt lat="44.17873" lon="6.8263">
        <ele>2028</ele>
        <time>2018-07-07T10:48:21.000Z</time>
      </trkpt>
      <trkpt lat="44.17862" lon="6.82635">
        <ele>2028</ele>
        <time>2018-07-07T10:48:25.000Z</time>
      </trkpt>
      <trkpt lat="44.17852" lon="6.82641">
        <ele>2028</ele>
        <time>2018-07-07T10:48:28.000Z</time>
      </trkpt>
      <trkpt lat="44.17842" lon="6.82651">
        <ele>2027</ele>
        <time>2018-07-07T10:48:30.000Z</time>
      </trkpt>
      <trkpt lat="44.17834" lon="6.82668">
        <ele>2025</ele>
        <time>2018-07-07T10:48:32.000Z</time>
      </trkpt>
      <trkpt lat="44.17831" lon="6.82675">
        <ele>2024</ele>
        <time>2018-07-07T10:48:33.000Z</time>
      </trkpt>
      <trkpt lat="44.17827" lon="6.82679">
        <ele>2024</ele>
        <time>2018-07-07T10:48:34.000Z</time>
      </trkpt>
      <trkpt lat="44.17819" lon="6.82687">
        <ele>2022</ele>
        <time>2018-07-07T10:48:36.000Z</time>
      </trkpt>
      <trkpt lat="44.17813" lon="6.82706">
        <ele>2020</ele>
        <time>2018-07-07T10:48:40.000Z</time>
      </trkpt>
      <trkpt lat="44.17811" lon="6.82709">
        <ele>2020</ele>
        <time>2018-07-07T10:48:41.000Z</time>
      </trkpt>
      <trkpt lat="44.17801" lon="6.82726">
        <ele>2019</ele>
        <time>2018-07-07T10:48:45.000Z</time>
      </trkpt>
      <trkpt lat="44.17799" lon="6.82728">
        <ele>2019</ele>
        <time>2018-07-07T10:48:46.000Z</time>
      </trkpt>
      <trkpt lat="44.17788" lon="6.82728">
        <ele>2019</ele>
        <time>2018-07-07T10:48:50.000Z</time>
      </trkpt>
      <trkpt lat="44.17785" lon="6.82728">
        <ele>2019</ele>
        <time>2018-07-07T10:48:52.000Z</time>
      </trkpt>
      <trkpt lat="44.17778" lon="6.82727">
        <ele>2019</ele>
        <time>2018-07-07T10:48:57.000Z</time>
      </trkpt>
      <trkpt lat="44.1777" lon="6.82725">
        <ele>2019</ele>
        <time>2018-07-07T10:49:03.000Z</time>
      </trkpt>
      <trkpt lat="44.17769" lon="6.82724">
        <ele>2019</ele>
        <time>2018-07-07T10:49:04.000Z</time>
      </trkpt>
      <trkpt lat="44.17764" lon="6.82722">
        <ele>2019</ele>
        <time>2018-07-07T10:49:08.000Z</time>
      </trkpt>
      <trkpt lat="44.17758" lon="6.82719">
        <ele>2019</ele>
        <time>2018-07-07T10:49:12.000Z</time>
      </trkpt>
      <trkpt lat="44.17753" lon="6.82718">
        <ele>2019</ele>
        <time>2018-07-07T10:49:15.000Z</time>
      </trkpt>
      <trkpt lat="44.17746" lon="6.82717">
        <ele>2022</ele>
        <time>2018-07-07T10:49:18.000Z</time>
      </trkpt>
      <trkpt lat="44.17738" lon="6.82715">
        <ele>2023</ele>
        <time>2018-07-07T10:49:22.000Z</time>
      </trkpt>
      <trkpt lat="44.17737" lon="6.82714">
        <ele>2023</ele>
        <time>2018-07-07T10:49:23.000Z</time>
      </trkpt>
      <trkpt lat="44.17729" lon="6.82712">
        <ele>2024</ele>
        <time>2018-07-07T10:49:28.000Z</time>
      </trkpt>
      <trkpt lat="44.17728" lon="6.82711">
        <ele>2024</ele>
        <time>2018-07-07T10:49:29.000Z</time>
      </trkpt>
      <trkpt lat="44.17721" lon="6.82706">
        <ele>2025</ele>
        <time>2018-07-07T10:49:34.000Z</time>
      </trkpt>
      <trkpt lat="44.17718" lon="6.82704">
        <ele>2025</ele>
        <time>2018-07-07T10:49:36.000Z</time>
      </trkpt>
      <trkpt lat="44.17706" lon="6.82697">
        <ele>2026</ele>
        <time>2018-07-07T10:49:43.000Z</time>
      </trkpt>
      <trkpt lat="44.17694" lon="6.82694">
        <ele>2027</ele>
        <time>2018-07-07T10:49:50.000Z</time>
      </trkpt>
      <trkpt lat="44.1768" lon="6.82693">
        <ele>2029</ele>
        <time>2018-07-07T10:49:58.000Z</time>
      </trkpt>
      <trkpt lat="44.17678" lon="6.82693">
        <ele>2029</ele>
        <time>2018-07-07T10:49:59.000Z</time>
      </trkpt>
      <trkpt lat="44.1767" lon="6.82693">
        <ele>2030</ele>
        <time>2018-07-07T10:50:05.000Z</time>
      </trkpt>
      <trkpt lat="44.17661" lon="6.82692">
        <ele>2035</ele>
        <time>2018-07-07T10:50:12.000Z</time>
      </trkpt>
      <trkpt lat="44.1766" lon="6.82692">
        <ele>2035</ele>
        <time>2018-07-07T10:50:13.000Z</time>
      </trkpt>
      <trkpt lat="44.17654" lon="6.82691">
        <ele>2035</ele>
        <time>2018-07-07T10:50:19.000Z</time>
      </trkpt>
      <trkpt lat="44.17651" lon="6.82692">
        <ele>2035</ele>
        <time>2018-07-07T10:50:21.000Z</time>
      </trkpt>
      <trkpt lat="44.17646" lon="6.82693">
        <ele>2035</ele>
        <time>2018-07-07T10:50:27.000Z</time>
      </trkpt>
      <trkpt lat="44.17642" lon="6.82694">
        <ele>2034</ele>
        <time>2018-07-07T10:50:30.000Z</time>
      </trkpt>
      <trkpt lat="44.17638" lon="6.82698">
        <ele>2034</ele>
        <time>2018-07-07T10:50:35.000Z</time>
      </trkpt>
      <trkpt lat="44.17633" lon="6.82703">
        <ele>2034</ele>
        <time>2018-07-07T10:50:40.000Z</time>
      </trkpt>
      <trkpt lat="44.1763" lon="6.82704">
        <ele>2034</ele>
        <time>2018-07-07T10:50:43.000Z</time>
      </trkpt>
      <trkpt lat="44.17628" lon="6.82704">
        <ele>2034</ele>
        <time>2018-07-07T10:50:45.000Z</time>
      </trkpt>
      <trkpt lat="44.17628" lon="6.82705">
        <ele>2034</ele>
        <time>2018-07-07T10:50:46.000Z</time>
      </trkpt>
      <trkpt lat="44.17626" lon="6.82707">
        <ele>2034</ele>
        <time>2018-07-07T10:50:48.000Z</time>
      </trkpt>
      <trkpt lat="44.17621" lon="6.8271">
        <ele>2034</ele>
        <time>2018-07-07T10:50:53.000Z</time>
      </trkpt>
      <trkpt lat="44.17618" lon="6.82711">
        <ele>2034</ele>
        <time>2018-07-07T10:50:55.000Z</time>
      </trkpt>
      <trkpt lat="44.17612" lon="6.82709">
        <ele>2034</ele>
        <time>2018-07-07T10:51:01.000Z</time>
      </trkpt>
      <trkpt lat="44.17611" lon="6.82708">
        <ele>2034</ele>
        <time>2018-07-07T10:51:03.000Z</time>
      </trkpt>
      <trkpt lat="44.17606" lon="6.82705">
        <ele>2035</ele>
        <time>2018-07-07T10:51:08.000Z</time>
      </trkpt>
      <trkpt lat="44.176" lon="6.827">
        <ele>2036</ele>
        <time>2018-07-07T10:51:14.000Z</time>
      </trkpt>
      <trkpt lat="44.176" lon="6.827">
        <ele>2036</ele>
        <time>2018-07-07T10:51:15.000Z</time>
      </trkpt>
      <trkpt lat="44.17596" lon="6.82697">
        <ele>2036</ele>
        <time>2018-07-07T10:51:19.000Z</time>
      </trkpt>
      <trkpt lat="44.17595" lon="6.82696">
        <ele>2036</ele>
        <time>2018-07-07T10:51:20.000Z</time>
      </trkpt>
      <trkpt lat="44.17591" lon="6.82693">
        <ele>2037</ele>
        <time>2018-07-07T10:51:25.000Z</time>
      </trkpt>
      <trkpt lat="44.17589" lon="6.82691">
        <ele>2037</ele>
        <time>2018-07-07T10:51:28.000Z</time>
      </trkpt>
      <trkpt lat="44.17586" lon="6.82689">
        <ele>2037</ele>
        <time>2018-07-07T10:51:31.000Z</time>
      </trkpt>
      <trkpt lat="44.17583" lon="6.82687">
        <ele>2038</ele>
        <time>2018-07-07T10:51:34.000Z</time>
      </trkpt>
      <trkpt lat="44.1758" lon="6.82684">
        <ele>2040</ele>
        <time>2018-07-07T10:51:38.000Z</time>
      </trkpt>
      <trkpt lat="44.17577" lon="6.82682">
        <ele>2040</ele>
        <time>2018-07-07T10:51:41.000Z</time>
      </trkpt>
      <trkpt lat="44.17574" lon="6.8268">
        <ele>2040</ele>
        <time>2018-07-07T10:51:44.000Z</time>
      </trkpt>
      <trkpt lat="44.1757" lon="6.82678">
        <ele>2040</ele>
        <time>2018-07-07T10:51:48.000Z</time>
      </trkpt>
      <trkpt lat="44.17568" lon="6.82677">
        <ele>2040</ele>
        <time>2018-07-07T10:51:50.000Z</time>
      </trkpt>
      <trkpt lat="44.17563" lon="6.82674">
        <ele>2040</ele>
        <time>2018-07-07T10:51:56.000Z</time>
      </trkpt>
      <trkpt lat="44.17562" lon="6.82673">
        <ele>2040</ele>
        <time>2018-07-07T10:51:57.000Z</time>
      </trkpt>
      <trkpt lat="44.17554" lon="6.82669">
        <ele>2040</ele>
        <time>2018-07-07T10:52:03.000Z</time>
      </trkpt>
      <trkpt lat="44.17544" lon="6.82662">
        <ele>2046</ele>
        <time>2018-07-07T10:52:10.000Z</time>
      </trkpt>
      <trkpt lat="44.17524" lon="6.82652">
        <ele>2046</ele>
        <time>2018-07-07T10:52:18.000Z</time>
      </trkpt>
      <trkpt lat="44.17503" lon="6.82639">
        <ele>2046</ele>
        <time>2018-07-07T10:52:24.000Z</time>
      </trkpt>
      <trkpt lat="44.17485" lon="6.82623">
        <ele>2044</ele>
        <time>2018-07-07T10:52:31.000Z</time>
      </trkpt>
      <trkpt lat="44.17468" lon="6.82602">
        <ele>2044</ele>
        <time>2018-07-07T10:52:38.000Z</time>
      </trkpt>
      <trkpt lat="44.17457" lon="6.82589">
        <ele>2044</ele>
        <time>2018-07-07T10:52:44.000Z</time>
      </trkpt>
      <trkpt lat="44.17451" lon="6.82582">
        <ele>2048</ele>
        <time>2018-07-07T10:52:48.000Z</time>
      </trkpt>
      <trkpt lat="44.17449" lon="6.8258">
        <ele>2048</ele>
        <time>2018-07-07T10:52:49.000Z</time>
      </trkpt>
      <trkpt lat="44.17434" lon="6.82562">
        <ele>2047</ele>
        <time>2018-07-07T10:52:54.000Z</time>
      </trkpt>
      <trkpt lat="44.17425" lon="6.82552">
        <ele>2048</ele>
        <time>2018-07-07T10:52:57.000Z</time>
      </trkpt>
      <trkpt lat="44.1741" lon="6.8254">
        <ele>2046</ele>
        <time>2018-07-07T10:53:02.000Z</time>
      </trkpt>
      <trkpt lat="44.17386" lon="6.82524">
        <ele>2047</ele>
        <time>2018-07-07T10:53:10.000Z</time>
      </trkpt>
      <trkpt lat="44.17384" lon="6.82522">
        <ele>2047</ele>
        <time>2018-07-07T10:53:11.000Z</time>
      </trkpt>
      <trkpt lat="44.17373" lon="6.82513">
        <ele>2047</ele>
        <time>2018-07-07T10:53:17.000Z</time>
      </trkpt>
      <trkpt lat="44.1737" lon="6.8251">
        <ele>2047</ele>
        <time>2018-07-07T10:53:19.000Z</time>
      </trkpt>
      <trkpt lat="44.17362" lon="6.82503">
        <ele>2047</ele>
        <time>2018-07-07T10:53:25.000Z</time>
      </trkpt>
      <trkpt lat="44.17354" lon="6.82496">
        <ele>2053</ele>
        <time>2018-07-07T10:53:31.000Z</time>
      </trkpt>
      <trkpt lat="44.17352" lon="6.82495">
        <ele>2053</ele>
        <time>2018-07-07T10:53:32.000Z</time>
      </trkpt>
      <trkpt lat="44.17341" lon="6.82485">
        <ele>2053</ele>
        <time>2018-07-07T10:53:39.000Z</time>
      </trkpt>
      <trkpt lat="44.17339" lon="6.82483">
        <ele>2053</ele>
        <time>2018-07-07T10:53:40.000Z</time>
      </trkpt>
      <trkpt lat="44.1733" lon="6.82473">
        <ele>2055</ele>
        <time>2018-07-07T10:53:47.000Z</time>
      </trkpt>
      <trkpt lat="44.17329" lon="6.82472">
        <ele>2055</ele>
        <time>2018-07-07T10:53:48.000Z</time>
      </trkpt>
      <trkpt lat="44.17324" lon="6.82467">
        <ele>2056</ele>
        <time>2018-07-07T10:53:53.000Z</time>
      </trkpt>
      <trkpt lat="44.17323" lon="6.82466">
        <ele>2056</ele>
        <time>2018-07-07T10:53:54.000Z</time>
      </trkpt>
      <trkpt lat="44.17319" lon="6.82462">
        <ele>2057</ele>
        <time>2018-07-07T10:53:59.000Z</time>
      </trkpt>
      <trkpt lat="44.17317" lon="6.8246">
        <ele>2057</ele>
        <time>2018-07-07T10:54:01.000Z</time>
      </trkpt>
      <trkpt lat="44.17314" lon="6.82458">
        <ele>2057</ele>
        <time>2018-07-07T10:54:04.000Z</time>
      </trkpt>
      <trkpt lat="44.1731" lon="6.82453">
        <ele>2058</ele>
        <time>2018-07-07T10:54:10.000Z</time>
      </trkpt>
      <trkpt lat="44.17308" lon="6.82451">
        <ele>2058</ele>
        <time>2018-07-07T10:54:13.000Z</time>
      </trkpt>
      <trkpt lat="44.17306" lon="6.8245">
        <ele>2058</ele>
        <time>2018-07-07T10:54:15.000Z</time>
      </trkpt>
      <trkpt lat="44.17304" lon="6.82448">
        <ele>2058</ele>
        <time>2018-07-07T10:54:17.000Z</time>
      </trkpt>
      <trkpt lat="44.17301" lon="6.82446">
        <ele>2059</ele>
        <time>2018-07-07T10:54:21.000Z</time>
      </trkpt>
      <trkpt lat="44.173" lon="6.82444">
        <ele>2059</ele>
        <time>2018-07-07T10:54:23.000Z</time>
      </trkpt>
      <trkpt lat="44.17296" lon="6.82441">
        <ele>2059</ele>
        <time>2018-07-07T10:54:28.000Z</time>
      </trkpt>
      <trkpt lat="44.17293" lon="6.82438">
        <ele>2060</ele>
        <time>2018-07-07T10:54:31.000Z</time>
      </trkpt>
      <trkpt lat="44.17291" lon="6.82437">
        <ele>2060</ele>
        <time>2018-07-07T10:54:33.000Z</time>
      </trkpt>
      <trkpt lat="44.1729" lon="6.82436">
        <ele>2060</ele>
        <time>2018-07-07T10:54:34.000Z</time>
      </trkpt>
      <trkpt lat="44.17286" lon="6.82433">
        <ele>2060</ele>
        <time>2018-07-07T10:54:39.000Z</time>
      </trkpt>
      <trkpt lat="44.17284" lon="6.8243">
        <ele>2061</ele>
        <time>2018-07-07T10:54:42.000Z</time>
      </trkpt>
      <trkpt lat="44.17282" lon="6.82429">
        <ele>2061</ele>
        <time>2018-07-07T10:54:44.000Z</time>
      </trkpt>
      <trkpt lat="44.17278" lon="6.82426">
        <ele>2061</ele>
        <time>2018-07-07T10:54:49.000Z</time>
      </trkpt>
      <trkpt lat="44.17275" lon="6.82423">
        <ele>2062</ele>
        <time>2018-07-07T10:54:54.000Z</time>
      </trkpt>
      <trkpt lat="44.17276" lon="6.82423">
        <ele>2062</ele>
        <time>2018-07-07T10:54:55.000Z</time>
      </trkpt>
      <trkpt lat="44.17271" lon="6.82418">
        <ele>2063</ele>
        <time>2018-07-07T10:55:01.000Z</time>
      </trkpt>
      <trkpt lat="44.1727" lon="6.82417">
        <ele>2063</ele>
        <time>2018-07-07T10:55:02.000Z</time>
      </trkpt>
      <trkpt lat="44.17264" lon="6.82412">
        <ele>2069</ele>
        <time>2018-07-07T10:55:09.000Z</time>
      </trkpt>
      <trkpt lat="44.17263" lon="6.8241">
        <ele>2069</ele>
        <time>2018-07-07T10:55:11.000Z</time>
      </trkpt>
      <trkpt lat="44.17259" lon="6.82406">
        <ele>2069</ele>
        <time>2018-07-07T10:55:17.000Z</time>
      </trkpt>
      <trkpt lat="44.17257" lon="6.82405">
        <ele>2069</ele>
        <time>2018-07-07T10:55:19.000Z</time>
      </trkpt>
      <trkpt lat="44.17253" lon="6.82401">
        <ele>2069</ele>
        <time>2018-07-07T10:55:25.000Z</time>
      </trkpt>
      <trkpt lat="44.1725" lon="6.82399">
        <ele>2073</ele>
        <time>2018-07-07T10:55:29.000Z</time>
      </trkpt>
      <trkpt lat="44.17248" lon="6.82398">
        <ele>2073</ele>
        <time>2018-07-07T10:55:31.000Z</time>
      </trkpt>
      <trkpt lat="44.17243" lon="6.82396">
        <ele>2074</ele>
        <time>2018-07-07T10:55:38.000Z</time>
      </trkpt>
      <trkpt lat="44.17243" lon="6.82395">
        <ele>2074</ele>
        <time>2018-07-07T10:55:39.000Z</time>
      </trkpt>
      <trkpt lat="44.1724" lon="6.82394">
        <ele>2075</ele>
        <time>2018-07-07T10:55:44.000Z</time>
      </trkpt>
      <trkpt lat="44.17236" lon="6.82392">
        <ele>2075</ele>
        <time>2018-07-07T10:55:50.000Z</time>
      </trkpt>
      <trkpt lat="44.17231" lon="6.8239">
        <ele>2076</ele>
        <time>2018-07-07T10:55:57.000Z</time>
      </trkpt>
      <trkpt lat="44.17229" lon="6.82389">
        <ele>2076</ele>
        <time>2018-07-07T10:56:01.000Z</time>
      </trkpt>
      <trkpt lat="44.17228" lon="6.82388">
        <ele>2076</ele>
        <time>2018-07-07T10:56:03.000Z</time>
      </trkpt>
      <trkpt lat="44.17224" lon="6.82386">
        <ele>2077</ele>
        <time>2018-07-07T10:56:09.000Z</time>
      </trkpt>
      <trkpt lat="44.17223" lon="6.82386">
        <ele>2077</ele>
        <time>2018-07-07T10:56:11.000Z</time>
      </trkpt>
      <trkpt lat="44.17221" lon="6.82385">
        <ele>2077</ele>
        <time>2018-07-07T10:56:14.000Z</time>
      </trkpt>
      <trkpt lat="44.17218" lon="6.82383">
        <ele>2077</ele>
        <time>2018-07-07T10:56:20.000Z</time>
      </trkpt>
      <trkpt lat="44.17217" lon="6.82383">
        <ele>2077</ele>
        <time>2018-07-07T10:56:21.000Z</time>
      </trkpt>
      <trkpt lat="44.17213" lon="6.82381">
        <ele>2078</ele>
        <time>2018-07-07T10:56:27.000Z</time>
      </trkpt>
      <trkpt lat="44.17213" lon="6.82381">
        <ele>2078</ele>
        <time>2018-07-07T10:56:28.000Z</time>
      </trkpt>
      <trkpt lat="44.17208" lon="6.82379">
        <ele>2078</ele>
        <time>2018-07-07T10:56:34.000Z</time>
      </trkpt>
      <trkpt lat="44.17208" lon="6.82378">
        <ele>2078</ele>
        <time>2018-07-07T10:56:35.000Z</time>
      </trkpt>
      <trkpt lat="44.17204" lon="6.82377">
        <ele>2079</ele>
        <time>2018-07-07T10:56:39.000Z</time>
      </trkpt>
      <trkpt lat="44.17201" lon="6.82375">
        <ele>2079</ele>
        <time>2018-07-07T10:56:44.000Z</time>
      </trkpt>
      <trkpt lat="44.17198" lon="6.82374">
        <ele>2079</ele>
        <time>2018-07-07T10:56:47.000Z</time>
      </trkpt>
      <trkpt lat="44.17196" lon="6.82374">
        <ele>2080</ele>
        <time>2018-07-07T10:56:52.000Z</time>
      </trkpt>
      <trkpt lat="44.17192" lon="6.82374">
        <ele>2080</ele>
        <time>2018-07-07T10:56:56.000Z</time>
      </trkpt>
      <trkpt lat="44.17185" lon="6.8237">
        <ele>2081</ele>
        <time>2018-07-07T10:57:02.000Z</time>
      </trkpt>
      <trkpt lat="44.17182" lon="6.82369">
        <ele>2081</ele>
        <time>2018-07-07T10:57:04.000Z</time>
      </trkpt>
      <trkpt lat="44.17175" lon="6.82368">
        <ele>2081</ele>
        <time>2018-07-07T10:57:08.000Z</time>
      </trkpt>
      <trkpt lat="44.17162" lon="6.82364">
        <ele>2085</ele>
        <time>2018-07-07T10:57:16.000Z</time>
      </trkpt>
      <trkpt lat="44.17153" lon="6.82361">
        <ele>2086</ele>
        <time>2018-07-07T10:57:21.000Z</time>
      </trkpt>
      <trkpt lat="44.17145" lon="6.82358">
        <ele>2086</ele>
        <time>2018-07-07T10:57:26.000Z</time>
      </trkpt>
      <trkpt lat="44.17137" lon="6.82354">
        <ele>2086</ele>
        <time>2018-07-07T10:57:31.000Z</time>
      </trkpt>
      <trkpt lat="44.17135" lon="6.82353">
        <ele>2086</ele>
        <time>2018-07-07T10:57:33.000Z</time>
      </trkpt>
      <trkpt lat="44.1713" lon="6.8235">
        <ele>2086</ele>
        <time>2018-07-07T10:57:36.000Z</time>
      </trkpt>
      <trkpt lat="44.17123" lon="6.82346">
        <ele>2086</ele>
        <time>2018-07-07T10:57:41.000Z</time>
      </trkpt>
      <trkpt lat="44.1711" lon="6.82337">
        <ele>2087</ele>
        <time>2018-07-07T10:57:49.000Z</time>
      </trkpt>
      <trkpt lat="44.17107" lon="6.82334">
        <ele>2087</ele>
        <time>2018-07-07T10:57:51.000Z</time>
      </trkpt>
      <trkpt lat="44.17098" lon="6.82327">
        <ele>2094</ele>
        <time>2018-07-07T10:57:56.000Z</time>
      </trkpt>
      <trkpt lat="44.17087" lon="6.82316">
        <ele>2095</ele>
        <time>2018-07-07T10:58:03.000Z</time>
      </trkpt>
      <trkpt lat="44.17086" lon="6.82315">
        <ele>2095</ele>
        <time>2018-07-07T10:58:04.000Z</time>
      </trkpt>
      <trkpt lat="44.17079" lon="6.82308">
        <ele>2096</ele>
        <time>2018-07-07T10:58:09.000Z</time>
      </trkpt>
      <trkpt lat="44.17076" lon="6.82305">
        <ele>2096</ele>
        <time>2018-07-07T10:58:13.000Z</time>
      </trkpt>
      <trkpt lat="44.17073" lon="6.82303">
        <ele>2096</ele>
        <time>2018-07-07T10:58:16.000Z</time>
      </trkpt>
      <trkpt lat="44.1707" lon="6.82301">
        <ele>2097</ele>
        <time>2018-07-07T10:58:18.000Z</time>
      </trkpt>
      <trkpt lat="44.17059" lon="6.82293">
        <ele>2098</ele>
        <time>2018-07-07T10:58:25.000Z</time>
      </trkpt>
      <trkpt lat="44.17058" lon="6.82292">
        <ele>2098</ele>
        <time>2018-07-07T10:58:26.000Z</time>
      </trkpt>
      <trkpt lat="44.1705" lon="6.82286">
        <ele>2098</ele>
        <time>2018-07-07T10:58:31.000Z</time>
      </trkpt>
      <trkpt lat="44.17048" lon="6.82285">
        <ele>2098</ele>
        <time>2018-07-07T10:58:32.000Z</time>
      </trkpt>
      <trkpt lat="44.17045" lon="6.82282">
        <ele>2098</ele>
        <time>2018-07-07T10:58:36.000Z</time>
      </trkpt>
      <trkpt lat="44.17042" lon="6.8228">
        <ele>2098</ele>
        <time>2018-07-07T10:58:38.000Z</time>
      </trkpt>
      <trkpt lat="44.17039" lon="6.82276">
        <ele>2098</ele>
        <time>2018-07-07T10:58:42.000Z</time>
      </trkpt>
      <trkpt lat="44.17036" lon="6.82272">
        <ele>2099</ele>
        <time>2018-07-07T10:58:47.000Z</time>
      </trkpt>
      <trkpt lat="44.17034" lon="6.8227">
        <ele>2099</ele>
        <time>2018-07-07T10:58:52.000Z</time>
      </trkpt>
      <trkpt lat="44.17032" lon="6.82267">
        <ele>2099</ele>
        <time>2018-07-07T10:58:55.000Z</time>
      </trkpt>
      <trkpt lat="44.17031" lon="6.82264">
        <ele>2099</ele>
        <time>2018-07-07T10:58:57.000Z</time>
      </trkpt>
      <trkpt lat="44.17027" lon="6.82258">
        <ele>2099</ele>
        <time>2018-07-07T10:59:02.000Z</time>
      </trkpt>
      <trkpt lat="44.17026" lon="6.82255">
        <ele>2099</ele>
        <time>2018-07-07T10:59:04.000Z</time>
      </trkpt>
      <trkpt lat="44.17023" lon="6.82249">
        <ele>2106</ele>
        <time>2018-07-07T10:59:09.000Z</time>
      </trkpt>
      <trkpt lat="44.17021" lon="6.82246">
        <ele>2106</ele>
        <time>2018-07-07T10:59:11.000Z</time>
      </trkpt>
      <trkpt lat="44.17017" lon="6.82242">
        <ele>2105</ele>
        <time>2018-07-07T10:59:16.000Z</time>
      </trkpt>
      <trkpt lat="44.17015" lon="6.8224">
        <ele>2105</ele>
        <time>2018-07-07T10:59:18.000Z</time>
      </trkpt>
      <trkpt lat="44.17005" lon="6.82228">
        <ele>2106</ele>
        <time>2018-07-07T10:59:25.000Z</time>
      </trkpt>
      <trkpt lat="44.16992" lon="6.8221">
        <ele>2100</ele>
        <time>2018-07-07T10:59:31.000Z</time>
      </trkpt>
      <trkpt lat="44.16989" lon="6.82208">
        <ele>2100</ele>
        <time>2018-07-07T10:59:32.000Z</time>
      </trkpt>
      <trkpt lat="44.16976" lon="6.82192">
        <ele>2101</ele>
        <time>2018-07-07T10:59:36.000Z</time>
      </trkpt>
      <trkpt lat="44.16972" lon="6.82187">
        <ele>2101</ele>
        <time>2018-07-07T10:59:37.000Z</time>
      </trkpt>
      <trkpt lat="44.16961" lon="6.82171">
        <ele>2100</ele>
        <time>2018-07-07T10:59:40.000Z</time>
      </trkpt>
      <trkpt lat="44.16953" lon="6.82162">
        <ele>2107</ele>
        <time>2018-07-07T10:59:42.000Z</time>
      </trkpt>
      <trkpt lat="44.16948" lon="6.82159">
        <ele>2106</ele>
        <time>2018-07-07T10:59:43.000Z</time>
      </trkpt>
      <trkpt lat="44.1693" lon="6.82145">
        <ele>2105</ele>
        <time>2018-07-07T10:59:47.000Z</time>
      </trkpt>
      <trkpt lat="44.16926" lon="6.82143">
        <ele>2105</ele>
        <time>2018-07-07T10:59:48.000Z</time>
      </trkpt>
      <trkpt lat="44.16914" lon="6.82142">
        <ele>2099</ele>
        <time>2018-07-07T10:59:51.000Z</time>
      </trkpt>
      <trkpt lat="44.16909" lon="6.82141">
        <ele>2099</ele>
        <time>2018-07-07T10:59:52.000Z</time>
      </trkpt>
      <trkpt lat="44.16905" lon="6.8214">
        <ele>2100</ele>
        <time>2018-07-07T10:59:53.000Z</time>
      </trkpt>
      <trkpt lat="44.16893" lon="6.82132">
        <ele>2100</ele>
        <time>2018-07-07T10:59:56.000Z</time>
      </trkpt>
      <trkpt lat="44.16886" lon="6.82125">
        <ele>2100</ele>
        <time>2018-07-07T10:59:58.000Z</time>
      </trkpt>
      <trkpt lat="44.16876" lon="6.82114">
        <ele>2101</ele>
        <time>2018-07-07T11:00:01.000Z</time>
      </trkpt>
      <trkpt lat="44.16862" lon="6.82101">
        <ele>2101</ele>
        <time>2018-07-07T11:00:05.000Z</time>
      </trkpt>
      <trkpt lat="44.16855" lon="6.82096">
        <ele>2101</ele>
        <time>2018-07-07T11:00:07.000Z</time>
      </trkpt>
      <trkpt lat="44.16836" lon="6.82086">
        <ele>2101</ele>
        <time>2018-07-07T11:00:13.000Z</time>
      </trkpt>
      <trkpt lat="44.16824" lon="6.82082">
        <ele>2101</ele>
        <time>2018-07-07T11:00:19.000Z</time>
      </trkpt>
      <trkpt lat="44.16804" lon="6.82081">
        <ele>2101</ele>
        <time>2018-07-07T11:00:27.000Z</time>
      </trkpt>
      <trkpt lat="44.16793" lon="6.8208">
        <ele>2101</ele>
        <time>2018-07-07T11:00:32.000Z</time>
      </trkpt>
      <trkpt lat="44.16787" lon="6.82079">
        <ele>2101</ele>
        <time>2018-07-07T11:00:35.000Z</time>
      </trkpt>
      <trkpt lat="44.16783" lon="6.82077">
        <ele>2101</ele>
        <time>2018-07-07T11:00:38.000Z</time>
      </trkpt>
      <trkpt lat="44.16779" lon="6.82074">
        <ele>2100</ele>
        <time>2018-07-07T11:00:41.000Z</time>
      </trkpt>
      <trkpt lat="44.16778" lon="6.82073">
        <ele>2100</ele>
        <time>2018-07-07T11:00:42.000Z</time>
      </trkpt>
      <trkpt lat="44.16771" lon="6.82064">
        <ele>2100</ele>
        <time>2018-07-07T11:00:48.000Z</time>
      </trkpt>
      <trkpt lat="44.16765" lon="6.82052">
        <ele>2101</ele>
        <time>2018-07-07T11:00:54.000Z</time>
      </trkpt>
      <trkpt lat="44.16764" lon="6.8205">
        <ele>2101</ele>
        <time>2018-07-07T11:00:55.000Z</time>
      </trkpt>
      <trkpt lat="44.16755" lon="6.82031">
        <ele>2102</ele>
        <time>2018-07-07T11:01:01.000Z</time>
      </trkpt>
      <trkpt lat="44.16743" lon="6.82014">
        <ele>2099</ele>
        <time>2018-07-07T11:01:05.000Z</time>
      </trkpt>
      <trkpt lat="44.16739" lon="6.82009">
        <ele>2099</ele>
        <time>2018-07-07T11:01:06.000Z</time>
      </trkpt>
      <trkpt lat="44.16734" lon="6.82004">
        <ele>2099</ele>
        <time>2018-07-07T11:01:07.000Z</time>
      </trkpt>
      <trkpt lat="44.16727" lon="6.81997">
        <ele>2103</ele>
        <time>2018-07-07T11:01:09.000Z</time>
      </trkpt>
      <trkpt lat="44.16723" lon="6.81994">
        <ele>2103</ele>
        <time>2018-07-07T11:01:10.000Z</time>
      </trkpt>
      <trkpt lat="44.16719" lon="6.8199">
        <ele>2103</ele>
        <time>2018-07-07T11:01:11.000Z</time>
      </trkpt>
      <trkpt lat="44.16697" lon="6.8197">
        <ele>2103</ele>
        <time>2018-07-07T11:01:17.000Z</time>
      </trkpt>
      <trkpt lat="44.16694" lon="6.81966">
        <ele>2103</ele>
        <time>2018-07-07T11:01:18.000Z</time>
      </trkpt>
      <trkpt lat="44.16686" lon="6.8196">
        <ele>2103</ele>
        <time>2018-07-07T11:01:20.000Z</time>
      </trkpt>
      <trkpt lat="44.16673" lon="6.8195">
        <ele>2103</ele>
        <time>2018-07-07T11:01:24.000Z</time>
      </trkpt>
      <trkpt lat="44.16657" lon="6.81934">
        <ele>2095</ele>
        <time>2018-07-07T11:01:30.000Z</time>
      </trkpt>
      <trkpt lat="44.16652" lon="6.81924">
        <ele>2096</ele>
        <time>2018-07-07T11:01:34.000Z</time>
      </trkpt>
      <trkpt lat="44.16651" lon="6.81921">
        <ele>2096</ele>
        <time>2018-07-07T11:01:35.000Z</time>
      </trkpt>
      <trkpt lat="44.16646" lon="6.81909">
        <ele>2100</ele>
        <time>2018-07-07T11:01:39.000Z</time>
      </trkpt>
      <trkpt lat="44.16643" lon="6.81902">
        <ele>2100</ele>
        <time>2018-07-07T11:01:41.000Z</time>
      </trkpt>
      <trkpt lat="44.16635" lon="6.81885">
        <ele>2100</ele>
        <time>2018-07-07T11:01:47.000Z</time>
      </trkpt>
      <trkpt lat="44.16627" lon="6.81858">
        <ele>2101</ele>
        <time>2018-07-07T11:01:54.000Z</time>
      </trkpt>
      <trkpt lat="44.16619" lon="6.8185">
        <ele>2100</ele>
        <time>2018-07-07T11:01:58.000Z</time>
      </trkpt>
      <trkpt lat="44.16607" lon="6.81844">
        <ele>2099</ele>
        <time>2018-07-07T11:02:05.000Z</time>
      </trkpt>
      <trkpt lat="44.16605" lon="6.81842">
        <ele>2099</ele>
        <time>2018-07-07T11:02:07.000Z</time>
      </trkpt>
      <trkpt lat="44.16596" lon="6.8183">
        <ele>2103</ele>
        <time>2018-07-07T11:02:12.000Z</time>
      </trkpt>
      <trkpt lat="44.1658" lon="6.8181">
        <ele>2098</ele>
        <time>2018-07-07T11:02:16.000Z</time>
      </trkpt>
      <trkpt lat="44.16576" lon="6.81806">
        <ele>2098</ele>
        <time>2018-07-07T11:02:17.000Z</time>
      </trkpt>
      <trkpt lat="44.1656" lon="6.81789">
        <ele>2100</ele>
        <time>2018-07-07T11:02:21.000Z</time>
      </trkpt>
      <trkpt lat="44.1655" lon="6.81786">
        <ele>2099</ele>
        <time>2018-07-07T11:02:24.000Z</time>
      </trkpt>
      <trkpt lat="44.16538" lon="6.81783">
        <ele>2099</ele>
        <time>2018-07-07T11:02:29.000Z</time>
      </trkpt>
      <trkpt lat="44.16534" lon="6.81782">
        <ele>2099</ele>
        <time>2018-07-07T11:02:31.000Z</time>
      </trkpt>
      <trkpt lat="44.16521" lon="6.81773">
        <ele>2100</ele>
        <time>2018-07-07T11:02:38.000Z</time>
      </trkpt>
      <trkpt lat="44.16507" lon="6.81765">
        <ele>2101</ele>
        <time>2018-07-07T11:02:45.000Z</time>
      </trkpt>
      <trkpt lat="44.16505" lon="6.81765">
        <ele>2101</ele>
        <time>2018-07-07T11:02:46.000Z</time>
      </trkpt>
      <trkpt lat="44.16496" lon="6.81762">
        <ele>2100</ele>
        <time>2018-07-07T11:02:52.000Z</time>
      </trkpt>
      <trkpt lat="44.16487" lon="6.81756">
        <ele>2100</ele>
        <time>2018-07-07T11:02:59.000Z</time>
      </trkpt>
      <trkpt lat="44.1648" lon="6.81751">
        <ele>2099</ele>
        <time>2018-07-07T11:03:04.000Z</time>
      </trkpt>
      <trkpt lat="44.16466" lon="6.81739">
        <ele>2107</ele>
        <time>2018-07-07T11:03:13.000Z</time>
      </trkpt>
      <trkpt lat="44.16464" lon="6.81738">
        <ele>2108</ele>
        <time>2018-07-07T11:03:14.000Z</time>
      </trkpt>
      <trkpt lat="44.16453" lon="6.81725">
        <ele>2108</ele>
        <time>2018-07-07T11:03:21.000Z</time>
      </trkpt>
      <trkpt lat="44.16434" lon="6.81709">
        <ele>2109</ele>
        <time>2018-07-07T11:03:31.000Z</time>
      </trkpt>
      <trkpt lat="44.16424" lon="6.81704">
        <ele>2109</ele>
        <time>2018-07-07T11:03:36.000Z</time>
      </trkpt>
      <trkpt lat="44.16417" lon="6.81701">
        <ele>2109</ele>
        <time>2018-07-07T11:03:39.000Z</time>
      </trkpt>
      <trkpt lat="44.16405" lon="6.81695">
        <ele>2108</ele>
        <time>2018-07-07T11:03:45.000Z</time>
      </trkpt>
      <trkpt lat="44.16401" lon="6.81693">
        <ele>2108</ele>
        <time>2018-07-07T11:03:47.000Z</time>
      </trkpt>
      <trkpt lat="44.16387" lon="6.81693">
        <ele>2107</ele>
        <time>2018-07-07T11:03:54.000Z</time>
      </trkpt>
      <trkpt lat="44.16383" lon="6.81693">
        <ele>2107</ele>
        <time>2018-07-07T11:03:56.000Z</time>
      </trkpt>
      <trkpt lat="44.16368" lon="6.81693">
        <ele>2107</ele>
        <time>2018-07-07T11:04:03.000Z</time>
      </trkpt>
      <trkpt lat="44.16352" lon="6.81694">
        <ele>2106</ele>
        <time>2018-07-07T11:04:11.000Z</time>
      </trkpt>
      <trkpt lat="44.16332" lon="6.81695">
        <ele>2105</ele>
        <time>2018-07-07T11:04:19.000Z</time>
      </trkpt>
      <trkpt lat="44.16319" lon="6.81694">
        <ele>2105</ele>
        <time>2018-07-07T11:04:25.000Z</time>
      </trkpt>
      <trkpt lat="44.16315" lon="6.81694">
        <ele>2104</ele>
        <time>2018-07-07T11:04:27.000Z</time>
      </trkpt>
      <trkpt lat="44.16299" lon="6.81694">
        <ele>2104</ele>
        <time>2018-07-07T11:04:34.000Z</time>
      </trkpt>
      <trkpt lat="44.16289" lon="6.81693">
        <ele>2104</ele>
        <time>2018-07-07T11:04:38.000Z</time>
      </trkpt>
      <trkpt lat="44.16268" lon="6.81691">
        <ele>2104</ele>
        <time>2018-07-07T11:04:45.000Z</time>
      </trkpt>
      <trkpt lat="44.16243" lon="6.81689">
        <ele>2104</ele>
        <time>2018-07-07T11:04:52.000Z</time>
      </trkpt>
      <trkpt lat="44.16215" lon="6.81689">
        <ele>2104</ele>
        <time>2018-07-07T11:05:00.000Z</time>
      </trkpt>
      <trkpt lat="44.1619" lon="6.81691">
        <ele>2104</ele>
        <time>2018-07-07T11:05:07.000Z</time>
      </trkpt>
      <trkpt lat="44.16172" lon="6.81693">
        <ele>2105</ele>
        <time>2018-07-07T11:05:11.000Z</time>
      </trkpt>
      <trkpt lat="44.16163" lon="6.81693">
        <ele>2106</ele>
        <time>2018-07-07T11:05:13.000Z</time>
      </trkpt>
      <trkpt lat="44.16158" lon="6.81693">
        <ele>2106</ele>
        <time>2018-07-07T11:05:14.000Z</time>
      </trkpt>
      <trkpt lat="44.16137" lon="6.81688">
        <ele>2107</ele>
        <time>2018-07-07T11:05:19.000Z</time>
      </trkpt>
      <trkpt lat="44.16133" lon="6.81688">
        <ele>2107</ele>
        <time>2018-07-07T11:05:20.000Z</time>
      </trkpt>
      <trkpt lat="44.16129" lon="6.81688">
        <ele>2107</ele>
        <time>2018-07-07T11:05:21.000Z</time>
      </trkpt>
      <trkpt lat="44.16117" lon="6.81688">
        <ele>2107</ele>
        <time>2018-07-07T11:05:25.000Z</time>
      </trkpt>
      <trkpt lat="44.16094" lon="6.81683">
        <ele>2109</ele>
        <time>2018-07-07T11:05:33.000Z</time>
      </trkpt>
      <trkpt lat="44.16087" lon="6.8168">
        <ele>2110</ele>
        <time>2018-07-07T11:05:36.000Z</time>
      </trkpt>
      <trkpt lat="44.16077" lon="6.81674">
        <ele>2110</ele>
        <time>2018-07-07T11:05:41.000Z</time>
      </trkpt>
      <trkpt lat="44.16061" lon="6.81664">
        <ele>2111</ele>
        <time>2018-07-07T11:05:48.000Z</time>
      </trkpt>
      <trkpt lat="44.16059" lon="6.81663">
        <ele>2111</ele>
        <time>2018-07-07T11:05:49.000Z</time>
      </trkpt>
      <trkpt lat="44.16042" lon="6.81656">
        <ele>2111</ele>
        <time>2018-07-07T11:05:56.000Z</time>
      </trkpt>
      <trkpt lat="44.16037" lon="6.81652">
        <ele>2110</ele>
        <time>2018-07-07T11:05:59.000Z</time>
      </trkpt>
      <trkpt lat="44.16033" lon="6.8165">
        <ele>2110</ele>
        <time>2018-07-07T11:06:02.000Z</time>
      </trkpt>
      <trkpt lat="44.16031" lon="6.81643">
        <ele>2110</ele>
        <time>2018-07-07T11:06:07.000Z</time>
      </trkpt>
      <trkpt lat="44.1603" lon="6.8164">
        <ele>2110</ele>
        <time>2018-07-07T11:06:09.000Z</time>
      </trkpt>
      <trkpt lat="44.16027" lon="6.81633">
        <ele>2111</ele>
        <time>2018-07-07T11:06:13.000Z</time>
      </trkpt>
      <trkpt lat="44.16025" lon="6.81626">
        <ele>2111</ele>
        <time>2018-07-07T11:06:17.000Z</time>
      </trkpt>
      <trkpt lat="44.16022" lon="6.81621">
        <ele>2111</ele>
        <time>2018-07-07T11:06:21.000Z</time>
      </trkpt>
      <trkpt lat="44.16018" lon="6.81615">
        <ele>2111</ele>
        <time>2018-07-07T11:06:27.000Z</time>
      </trkpt>
      <trkpt lat="44.16017" lon="6.81613">
        <ele>2111</ele>
        <time>2018-07-07T11:06:28.000Z</time>
      </trkpt>
      <trkpt lat="44.16015" lon="6.81608">
        <ele>2111</ele>
        <time>2018-07-07T11:06:32.000Z</time>
      </trkpt>
      <trkpt lat="44.16012" lon="6.81603">
        <ele>2111</ele>
        <time>2018-07-07T11:06:36.000Z</time>
      </trkpt>
      <trkpt lat="44.1601" lon="6.81601">
        <ele>2111</ele>
        <time>2018-07-07T11:06:38.000Z</time>
      </trkpt>
      <trkpt lat="44.16005" lon="6.81595">
        <ele>2112</ele>
        <time>2018-07-07T11:06:44.000Z</time>
      </trkpt>
      <trkpt lat="44.16004" lon="6.81593">
        <ele>2112</ele>
        <time>2018-07-07T11:06:46.000Z</time>
      </trkpt>
      <trkpt lat="44.16002" lon="6.81588">
        <ele>2112</ele>
        <time>2018-07-07T11:06:50.000Z</time>
      </trkpt>
      <trkpt lat="44.15998" lon="6.81582">
        <ele>2112</ele>
        <time>2018-07-07T11:06:56.000Z</time>
      </trkpt>
      <trkpt lat="44.15997" lon="6.81581">
        <ele>2112</ele>
        <time>2018-07-07T11:06:57.000Z</time>
      </trkpt>
      <trkpt lat="44.15996" lon="6.81579">
        <ele>2113</ele>
        <time>2018-07-07T11:06:59.000Z</time>
      </trkpt>
      <trkpt lat="44.15995" lon="6.81578">
        <ele>2113</ele>
        <time>2018-07-07T11:07:01.000Z</time>
      </trkpt>
      <trkpt lat="44.15994" lon="6.81577">
        <ele>2113</ele>
        <time>2018-07-07T11:07:02.000Z</time>
      </trkpt>
      <trkpt lat="44.15991" lon="6.81574">
        <ele>2113</ele>
        <time>2018-07-07T11:07:06.000Z</time>
      </trkpt>
      <trkpt lat="44.15991" lon="6.81573">
        <ele>2113</ele>
        <time>2018-07-07T11:07:11.000Z</time>
      </trkpt>
      <trkpt lat="44.15989" lon="6.81571">
        <ele>2113</ele>
        <time>2018-07-07T11:07:19.000Z</time>
      </trkpt>
      <trkpt lat="44.15984" lon="6.81563">
        <ele>2114</ele>
        <time>2018-07-07T11:07:28.000Z</time>
      </trkpt>
      <trkpt lat="44.15983" lon="6.81562">
        <ele>2114</ele>
        <time>2018-07-07T11:07:29.000Z</time>
      </trkpt>
      <trkpt lat="44.1598" lon="6.81557">
        <ele>2114</ele>
        <time>2018-07-07T11:07:36.000Z</time>
      </trkpt>
      <trkpt lat="44.15979" lon="6.81556">
        <ele>2114</ele>
        <time>2018-07-07T11:07:38.000Z</time>
      </trkpt>
      <trkpt lat="44.15975" lon="6.81553">
        <ele>2114</ele>
        <time>2018-07-07T11:07:43.000Z</time>
      </trkpt>
      <trkpt lat="44.15972" lon="6.81549">
        <ele>2114</ele>
        <time>2018-07-07T11:07:48.000Z</time>
      </trkpt>
      <trkpt lat="44.15969" lon="6.81547">
        <ele>2114</ele>
        <time>2018-07-07T11:07:52.000Z</time>
      </trkpt>
      <trkpt lat="44.15963" lon="6.81543">
        <ele>2114</ele>
        <time>2018-07-07T11:07:59.000Z</time>
      </trkpt>
      <trkpt lat="44.15963" lon="6.81543">
        <ele>2115</ele>
        <time>2018-07-07T11:08:00.000Z</time>
      </trkpt>
      <trkpt lat="44.15958" lon="6.8154">
        <ele>2115</ele>
        <time>2018-07-07T11:08:07.000Z</time>
      </trkpt>
      <trkpt lat="44.15957" lon="6.8154">
        <ele>2115</ele>
        <time>2018-07-07T11:08:08.000Z</time>
      </trkpt>
      <trkpt lat="44.15952" lon="6.81538">
        <ele>2115</ele>
        <time>2018-07-07T11:08:15.000Z</time>
      </trkpt>
      <trkpt lat="44.1595" lon="6.81537">
        <ele>2115</ele>
        <time>2018-07-07T11:08:18.000Z</time>
      </trkpt>
      <trkpt lat="44.15946" lon="6.81535">
        <ele>2115</ele>
        <time>2018-07-07T11:08:23.000Z</time>
      </trkpt>
      <trkpt lat="44.15943" lon="6.81533">
        <ele>2115</ele>
        <time>2018-07-07T11:08:28.000Z</time>
      </trkpt>
      <trkpt lat="44.15941" lon="6.81531">
        <ele>2116</ele>
        <time>2018-07-07T11:08:31.000Z</time>
      </trkpt>
      <trkpt lat="44.15938" lon="6.81529">
        <ele>2116</ele>
        <time>2018-07-07T11:08:37.000Z</time>
      </trkpt>
      <trkpt lat="44.15933" lon="6.81526">
        <ele>2116</ele>
        <time>2018-07-07T11:08:45.000Z</time>
      </trkpt>
      <trkpt lat="44.15932" lon="6.81525">
        <ele>2116</ele>
        <time>2018-07-07T11:08:46.000Z</time>
      </trkpt>
      <trkpt lat="44.15928" lon="6.81522">
        <ele>2116</ele>
        <time>2018-07-07T11:08:52.000Z</time>
      </trkpt>
      <trkpt lat="44.15926" lon="6.8152">
        <ele>2116</ele>
        <time>2018-07-07T11:08:55.000Z</time>
      </trkpt>
      <trkpt lat="44.15925" lon="6.81518">
        <ele>2116</ele>
        <time>2018-07-07T11:08:57.000Z</time>
      </trkpt>
      <trkpt lat="44.15921" lon="6.81515">
        <ele>2117</ele>
        <time>2018-07-07T11:09:03.000Z</time>
      </trkpt>
      <trkpt lat="44.1592" lon="6.81514">
        <ele>2117</ele>
        <time>2018-07-07T11:09:05.000Z</time>
      </trkpt>
      <trkpt lat="44.15916" lon="6.8151">
        <ele>2119</ele>
        <time>2018-07-07T11:09:11.000Z</time>
      </trkpt>
      <trkpt lat="44.15915" lon="6.81509">
        <ele>2119</ele>
        <time>2018-07-07T11:09:13.000Z</time>
      </trkpt>
      <trkpt lat="44.15913" lon="6.81507">
        <ele>2119</ele>
        <time>2018-07-07T11:09:17.000Z</time>
      </trkpt>
      <trkpt lat="44.15911" lon="6.81506">
        <ele>2119</ele>
        <time>2018-07-07T11:09:20.000Z</time>
      </trkpt>
      <trkpt lat="44.15904" lon="6.81507">
        <ele>2120</ele>
        <time>2018-07-07T11:09:25.000Z</time>
      </trkpt>
      <trkpt lat="44.15902" lon="6.81506">
        <ele>2120</ele>
        <time>2018-07-07T11:09:26.000Z</time>
      </trkpt>
      <trkpt lat="44.15891" lon="6.81506">
        <ele>2120</ele>
        <time>2018-07-07T11:09:34.000Z</time>
      </trkpt>
      <trkpt lat="44.15889" lon="6.81504">
        <ele>2120</ele>
        <time>2018-07-07T11:09:40.000Z</time>
      </trkpt>
      <trkpt lat="44.15889" lon="6.81504">
        <ele>2120</ele>
        <time>2018-07-07T11:09:41.000Z</time>
      </trkpt>
      <trkpt lat="44.15887" lon="6.81504">
        <ele>2121</ele>
        <time>2018-07-07T11:09:47.000Z</time>
      </trkpt>
      <trkpt lat="44.15887" lon="6.81504">
        <ele>2121</ele>
        <time>2018-07-07T11:09:53.000Z</time>
      </trkpt>
      <trkpt lat="44.15887" lon="6.81504">
        <ele>2121</ele>
        <time>2018-07-07T11:09:58.000Z</time>
      </trkpt>
      <trkpt lat="44.15887" lon="6.81504">
        <ele>2121</ele>
        <time>2018-07-07T11:10:05.000Z</time>
      </trkpt>
      <trkpt lat="44.15887" lon="6.81504">
        <ele>2121</ele>
        <time>2018-07-07T11:10:10.000Z</time>
      </trkpt>
      <trkpt lat="44.15887" lon="6.81504">
        <ele>2121</ele>
        <time>2018-07-07T11:10:21.000Z</time>
      </trkpt>
      <trkpt lat="44.15888" lon="6.81504">
        <ele>2120</ele>
        <time>2018-07-07T11:10:29.000Z</time>
      </trkpt>
      <trkpt lat="44.15887" lon="6.81504">
        <ele>2120</ele>
        <time>2018-07-07T11:10:34.000Z</time>
      </trkpt>
      <trkpt lat="44.15888" lon="6.81504">
        <ele>2120</ele>
        <time>2018-07-07T11:10:40.000Z</time>
      </trkpt>
      <trkpt lat="44.15887" lon="6.81503">
        <ele>2121</ele>
        <time>2018-07-07T11:11:05.000Z</time>
      </trkpt>
      <trkpt lat="44.15887" lon="6.81504">
        <ele>2121</ele>
        <time>2018-07-07T11:11:31.000Z</time>
      </trkpt>
      <trkpt lat="44.15886" lon="6.81504">
        <ele>2121</ele>
        <time>2018-07-07T11:11:57.000Z</time>
      </trkpt>
      <trkpt lat="44.15886" lon="6.81504">
        <ele>2121</ele>
        <time>2018-07-07T11:12:13.000Z</time>
      </trkpt>
      <trkpt lat="44.15886" lon="6.81505">
        <ele>2121</ele>
        <time>2018-07-07T11:12:23.000Z</time>
      </trkpt>
      <trkpt lat="44.15886" lon="6.81504">
        <ele>2121</ele>
        <time>2018-07-07T11:12:35.000Z</time>
      </trkpt>
      <trkpt lat="44.15886" lon="6.81504">
        <ele>2121</ele>
        <time>2018-07-07T11:12:49.000Z</time>
      </trkpt>
      <trkpt lat="44.15886" lon="6.81504">
        <ele>2121</ele>
        <time>2018-07-07T11:13:09.000Z</time>
      </trkpt>
      <trkpt lat="44.15886" lon="6.81504">
        <ele>2121</ele>
        <time>2018-07-07T11:13:37.000Z</time>
      </trkpt>
      <trkpt lat="44.15886" lon="6.81504">
        <ele>2121</ele>
        <time>2018-07-07T11:13:46.000Z</time>
      </trkpt>
      <trkpt lat="44.15886" lon="6.81504">
        <ele>2121</ele>
        <time>2018-07-07T11:13:49.000Z</time>
      </trkpt>
      <trkpt lat="44.15886" lon="6.81504">
        <ele>2121</ele>
        <time>2018-07-07T11:14:01.000Z</time>
      </trkpt>
      <trkpt lat="44.15886" lon="6.81504">
        <ele>2121</ele>
        <time>2018-07-07T11:14:13.000Z</time>
      </trkpt>
      <trkpt lat="44.15886" lon="6.81505">
        <ele>2121</ele>
        <time>2018-07-07T11:14:32.000Z</time>
      </trkpt>
      <trkpt lat="44.15886" lon="6.81504">
        <ele>2121</ele>
        <time>2018-07-07T11:14:47.000Z</time>
      </trkpt>
      <trkpt lat="44.15886" lon="6.81504">
        <ele>2121</ele>
        <time>2018-07-07T11:15:05.000Z</time>
      </trkpt>
      <trkpt lat="44.15886" lon="6.81504">
        <ele>2121</ele>
        <time>2018-07-07T11:15:21.000Z</time>
      </trkpt>
      <trkpt lat="44.15887" lon="6.81504">
        <ele>2121</ele>
        <time>2018-07-07T11:15:40.000Z</time>
      </trkpt>
      <trkpt lat="44.15887" lon="6.81504">
        <ele>2121</ele>
        <time>2018-07-07T11:15:54.000Z</time>
      </trkpt>
      <trkpt lat="44.15887" lon="6.81504">
        <ele>2120</ele>
        <time>2018-07-07T11:16:19.000Z</time>
      </trkpt>
      <trkpt lat="44.15888" lon="6.81504">
        <ele>2120</ele>
        <time>2018-07-07T11:16:35.000Z</time>
      </trkpt>
      <trkpt lat="44.15888" lon="6.81504">
        <ele>2120</ele>
        <time>2018-07-07T11:17:02.000Z</time>
      </trkpt>
      <trkpt lat="44.15889" lon="6.81503">
        <ele>2120</ele>
        <time>2018-07-07T11:17:27.000Z</time>
      </trkpt>
      <trkpt lat="44.15889" lon="6.81503">
        <ele>2120</ele>
        <time>2018-07-07T11:17:53.000Z</time>
      </trkpt>
      <trkpt lat="44.15889" lon="6.81503">
        <ele>2120</ele>
        <time>2018-07-07T11:18:08.000Z</time>
      </trkpt>
      <trkpt lat="44.15889" lon="6.81503">
        <ele>2120</ele>
        <time>2018-07-07T11:18:10.000Z</time>
      </trkpt>
      <trkpt lat="44.15889" lon="6.81502">
        <ele>2120</ele>
        <time>2018-07-07T11:18:18.000Z</time>
      </trkpt>
      <trkpt lat="44.15888" lon="6.81502">
        <ele>2120</ele>
        <time>2018-07-07T11:18:33.000Z</time>
      </trkpt>
      <trkpt lat="44.15888" lon="6.81502">
        <ele>2120</ele>
        <time>2018-07-07T11:18:52.000Z</time>
      </trkpt>
      <trkpt lat="44.15888" lon="6.81503">
        <ele>2120</ele>
        <time>2018-07-07T11:19:19.000Z</time>
      </trkpt>
      <trkpt lat="44.15889" lon="6.81503">
        <ele>2120</ele>
        <time>2018-07-07T11:19:52.000Z</time>
      </trkpt>
      <trkpt lat="44.15889" lon="6.81503">
        <ele>2120</ele>
        <time>2018-07-07T11:20:22.000Z</time>
      </trkpt>
      <trkpt lat="44.15888" lon="6.81503">
        <ele>2120</ele>
        <time>2018-07-07T11:20:51.000Z</time>
      </trkpt>
      <trkpt lat="44.15887" lon="6.81505">
        <ele>2121</ele>
        <time>2018-07-07T11:21:10.000Z</time>
      </trkpt>
      <trkpt lat="44.15887" lon="6.81505">
        <ele>2121</ele>
        <time>2018-07-07T11:21:18.000Z</time>
      </trkpt>
      <trkpt lat="44.15888" lon="6.81505">
        <ele>2121</ele>
        <time>2018-07-07T11:21:28.000Z</time>
      </trkpt>
      <trkpt lat="44.15888" lon="6.81505">
        <ele>2121</ele>
        <time>2018-07-07T11:21:35.000Z</time>
      </trkpt>
      <trkpt lat="44.15888" lon="6.81506">
        <ele>2120</ele>
        <time>2018-07-07T11:21:38.000Z</time>
      </trkpt>
      <trkpt lat="44.15888" lon="6.81506">
        <ele>2120</ele>
        <time>2018-07-07T11:21:57.000Z</time>
      </trkpt>
      <trkpt lat="44.15888" lon="6.81506">
        <ele>2121</ele>
        <time>2018-07-07T11:22:08.000Z</time>
      </trkpt>
      <trkpt lat="44.15887" lon="6.81506">
        <ele>2121</ele>
        <time>2018-07-07T11:22:21.000Z</time>
      </trkpt>
      <trkpt lat="44.15888" lon="6.81506">
        <ele>2121</ele>
        <time>2018-07-07T11:22:32.000Z</time>
      </trkpt>
      <trkpt lat="44.15887" lon="6.81506">
        <ele>2121</ele>
        <time>2018-07-07T11:22:39.000Z</time>
      </trkpt>
      <trkpt lat="44.15887" lon="6.81506">
        <ele>2121</ele>
        <time>2018-07-07T11:22:42.000Z</time>
      </trkpt>
      <trkpt lat="44.15886" lon="6.81506">
        <ele>2121</ele>
        <time>2018-07-07T11:22:44.000Z</time>
      </trkpt>
      <trkpt lat="44.15886" lon="6.81506">
        <ele>2121</ele>
        <time>2018-07-07T11:22:53.000Z</time>
      </trkpt>
      <trkpt lat="44.15886" lon="6.81506">
        <ele>2121</ele>
        <time>2018-07-07T11:23:02.000Z</time>
      </trkpt>
      <trkpt lat="44.15886" lon="6.81505">
        <ele>2121</ele>
        <time>2018-07-07T11:23:11.000Z</time>
      </trkpt>
      <trkpt lat="44.15886" lon="6.81505">
        <ele>2121</ele>
        <time>2018-07-07T11:23:20.000Z</time>
      </trkpt>
      <trkpt lat="44.15885" lon="6.81505">
        <ele>2121</ele>
        <time>2018-07-07T11:23:34.000Z</time>
      </trkpt>
      <trkpt lat="44.15885" lon="6.81504">
        <ele>2121</ele>
        <time>2018-07-07T11:23:43.000Z</time>
      </trkpt>
      <trkpt lat="44.15885" lon="6.81504">
        <ele>2121</ele>
        <time>2018-07-07T11:23:47.000Z</time>
      </trkpt>
      <trkpt lat="44.15885" lon="6.81504">
        <ele>2121</ele>
        <time>2018-07-07T11:23:54.000Z</time>
      </trkpt>
      <trkpt lat="44.15885" lon="6.81504">
        <ele>2121</ele>
        <time>2018-07-07T11:24:05.000Z</time>
      </trkpt>
      <trkpt lat="44.15885" lon="6.81504">
        <ele>2121</ele>
        <time>2018-07-07T11:24:18.000Z</time>
      </trkpt>
      <trkpt lat="44.15886" lon="6.81503">
        <ele>2121</ele>
        <time>2018-07-07T11:24:26.000Z</time>
      </trkpt>
      <trkpt lat="44.15887" lon="6.81505">
        <ele>2121</ele>
        <time>2018-07-07T11:24:31.000Z</time>
      </trkpt>
      <trkpt lat="44.15888" lon="6.81505">
        <ele>2120</ele>
        <time>2018-07-07T11:24:32.000Z</time>
      </trkpt>
      <trkpt lat="44.15891" lon="6.81506">
        <ele>2120</ele>
        <time>2018-07-07T11:24:35.000Z</time>
      </trkpt>
      <trkpt lat="44.1589" lon="6.81507">
        <ele>2120</ele>
        <time>2018-07-07T11:24:39.000Z</time>
      </trkpt>
      <trkpt lat="44.15889" lon="6.81507">
        <ele>2120</ele>
        <time>2018-07-07T11:24:44.000Z</time>
      </trkpt>
      <trkpt lat="44.1589" lon="6.81507">
        <ele>2120</ele>
        <time>2018-07-07T11:24:52.000Z</time>
      </trkpt>
      <trkpt lat="44.1589" lon="6.81507">
        <ele>2120</ele>
        <time>2018-07-07T11:25:17.000Z</time>
      </trkpt>
      <trkpt lat="44.15888" lon="6.81507">
        <ele>2121</ele>
        <time>2018-07-07T11:25:29.000Z</time>
      </trkpt>
      <trkpt lat="44.15886" lon="6.81505">
        <ele>2121</ele>
        <time>2018-07-07T11:25:34.000Z</time>
      </trkpt>
      <trkpt lat="44.15885" lon="6.81504">
        <ele>2121</ele>
        <time>2018-07-07T11:25:45.000Z</time>
      </trkpt>
      <trkpt lat="44.15885" lon="6.81504">
        <ele>2121</ele>
        <time>2018-07-07T11:26:03.000Z</time>
      </trkpt>
      <trkpt lat="44.15886" lon="6.81504">
        <ele>2121</ele>
        <time>2018-07-07T11:26:10.000Z</time>
      </trkpt>
      <trkpt lat="44.15885" lon="6.81505">
        <ele>2121</ele>
        <time>2018-07-07T11:26:16.000Z</time>
      </trkpt>
      <trkpt lat="44.15884" lon="6.81505">
        <ele>2121</ele>
        <time>2018-07-07T11:26:20.000Z</time>
      </trkpt>
      <trkpt lat="44.15883" lon="6.81505">
        <ele>2121</ele>
        <time>2018-07-07T11:26:22.000Z</time>
      </trkpt>
      <trkpt lat="44.15882" lon="6.81505">
        <ele>2121</ele>
        <time>2018-07-07T11:26:23.000Z</time>
      </trkpt>
      <trkpt lat="44.1588" lon="6.81505">
        <ele>2121</ele>
        <time>2018-07-07T11:26:28.000Z</time>
      </trkpt>
      <trkpt lat="44.15879" lon="6.81506">
        <ele>2121</ele>
        <time>2018-07-07T11:26:37.000Z</time>
      </trkpt>
      <trkpt lat="44.15872" lon="6.81507">
        <ele>2121</ele>
        <time>2018-07-07T11:26:42.000Z</time>
      </trkpt>
      <trkpt lat="44.15858" lon="6.81501">
        <ele>2121</ele>
        <time>2018-07-07T11:26:47.000Z</time>
      </trkpt>
      <trkpt lat="44.15854" lon="6.815">
        <ele>2114</ele>
        <time>2018-07-07T11:26:48.000Z</time>
      </trkpt>
      <trkpt lat="44.15843" lon="6.81494">
        <ele>2116</ele>
        <time>2018-07-07T11:26:50.000Z</time>
      </trkpt>
      <trkpt lat="44.15838" lon="6.81493">
        <ele>2117</ele>
        <time>2018-07-07T11:26:51.000Z</time>
      </trkpt>
      <trkpt lat="44.15831" lon="6.8149">
        <ele>2119</ele>
        <time>2018-07-07T11:26:52.000Z</time>
      </trkpt>
      <trkpt lat="44.15825" lon="6.81487">
        <ele>2118</ele>
        <time>2018-07-07T11:26:53.000Z</time>
      </trkpt>
      <trkpt lat="44.15813" lon="6.81479">
        <ele>2117</ele>
        <time>2018-07-07T11:26:55.000Z</time>
      </trkpt>
      <trkpt lat="44.15808" lon="6.81474">
        <ele>2116</ele>
        <time>2018-07-07T11:26:56.000Z</time>
      </trkpt>
      <trkpt lat="44.15802" lon="6.8147">
        <ele>2116</ele>
        <time>2018-07-07T11:26:57.000Z</time>
      </trkpt>
      <trkpt lat="44.15796" lon="6.81466">
        <ele>2116</ele>
        <time>2018-07-07T11:26:58.000Z</time>
      </trkpt>
      <trkpt lat="44.15791" lon="6.81462">
        <ele>2115</ele>
        <time>2018-07-07T11:26:59.000Z</time>
      </trkpt>
      <trkpt lat="44.15786" lon="6.81457">
        <ele>2115</ele>
        <time>2018-07-07T11:27:00.000Z</time>
      </trkpt>
      <trkpt lat="44.15782" lon="6.81452">
        <ele>2115</ele>
        <time>2018-07-07T11:27:01.000Z</time>
      </trkpt>
      <trkpt lat="44.1578" lon="6.81447">
        <ele>2114</ele>
        <time>2018-07-07T11:27:02.000Z</time>
      </trkpt>
      <trkpt lat="44.15777" lon="6.81441">
        <ele>2114</ele>
        <time>2018-07-07T11:27:03.000Z</time>
      </trkpt>
      <trkpt lat="44.15775" lon="6.81436">
        <ele>2114</ele>
        <time>2018-07-07T11:27:04.000Z</time>
      </trkpt>
      <trkpt lat="44.15774" lon="6.81431">
        <ele>2113</ele>
        <time>2018-07-07T11:27:05.000Z</time>
      </trkpt>
      <trkpt lat="44.15776" lon="6.81422">
        <ele>2113</ele>
        <time>2018-07-07T11:27:07.000Z</time>
      </trkpt>
      <trkpt lat="44.15779" lon="6.81415">
        <ele>2101</ele>
        <time>2018-07-07T11:27:09.000Z</time>
      </trkpt>
      <trkpt lat="44.15781" lon="6.81413">
        <ele>2100</ele>
        <time>2018-07-07T11:27:10.000Z</time>
      </trkpt>
      <trkpt lat="44.1579" lon="6.81411">
        <ele>2099</ele>
        <time>2018-07-07T11:27:13.000Z</time>
      </trkpt>
      <trkpt lat="44.15793" lon="6.8141">
        <ele>2099</ele>
        <time>2018-07-07T11:27:14.000Z</time>
      </trkpt>
      <trkpt lat="44.15795" lon="6.8141">
        <ele>2098</ele>
        <time>2018-07-07T11:27:15.000Z</time>
      </trkpt>
      <trkpt lat="44.15798" lon="6.81408">
        <ele>2098</ele>
        <time>2018-07-07T11:27:16.000Z</time>
      </trkpt>
      <trkpt lat="44.158" lon="6.81406">
        <ele>2098</ele>
        <time>2018-07-07T11:27:17.000Z</time>
      </trkpt>
      <trkpt lat="44.15801" lon="6.81403">
        <ele>2097</ele>
        <time>2018-07-07T11:27:18.000Z</time>
      </trkpt>
      <trkpt lat="44.15804" lon="6.81399">
        <ele>2097</ele>
        <time>2018-07-07T11:27:19.000Z</time>
      </trkpt>
      <trkpt lat="44.15806" lon="6.81395">
        <ele>2096</ele>
        <time>2018-07-07T11:27:20.000Z</time>
      </trkpt>
      <trkpt lat="44.1581" lon="6.81386">
        <ele>2095</ele>
        <time>2018-07-07T11:27:22.000Z</time>
      </trkpt>
      <trkpt lat="44.1581" lon="6.81381">
        <ele>2094</ele>
        <time>2018-07-07T11:27:23.000Z</time>
      </trkpt>
      <trkpt lat="44.1581" lon="6.81376">
        <ele>2093</ele>
        <time>2018-07-07T11:27:24.000Z</time>
      </trkpt>
      <trkpt lat="44.15809" lon="6.81369">
        <ele>2092</ele>
        <time>2018-07-07T11:27:25.000Z</time>
      </trkpt>
      <trkpt lat="44.15807" lon="6.81363">
        <ele>2091</ele>
        <time>2018-07-07T11:27:26.000Z</time>
      </trkpt>
      <trkpt lat="44.15806" lon="6.81358">
        <ele>2091</ele>
        <time>2018-07-07T11:27:27.000Z</time>
      </trkpt>
      <trkpt lat="44.15804" lon="6.81354">
        <ele>2090</ele>
        <time>2018-07-07T11:27:28.000Z</time>
      </trkpt>
      <trkpt lat="44.15799" lon="6.8135">
        <ele>2090</ele>
        <time>2018-07-07T11:27:30.000Z</time>
      </trkpt>
      <trkpt lat="44.15791" lon="6.81347">
        <ele>2091</ele>
        <time>2018-07-07T11:27:32.000Z</time>
      </trkpt>
      <trkpt lat="44.15787" lon="6.81344">
        <ele>2091</ele>
        <time>2018-07-07T11:27:33.000Z</time>
      </trkpt>
      <trkpt lat="44.15782" lon="6.81341">
        <ele>2091</ele>
        <time>2018-07-07T11:27:34.000Z</time>
      </trkpt>
      <trkpt lat="44.15778" lon="6.81337">
        <ele>2091</ele>
        <time>2018-07-07T11:27:35.000Z</time>
      </trkpt>
      <trkpt lat="44.15768" lon="6.81328">
        <ele>2080</ele>
        <time>2018-07-07T11:27:37.000Z</time>
      </trkpt>
      <trkpt lat="44.15765" lon="6.81324">
        <ele>2080</ele>
        <time>2018-07-07T11:27:38.000Z</time>
      </trkpt>
      <trkpt lat="44.15762" lon="6.81321">
        <ele>2080</ele>
        <time>2018-07-07T11:27:39.000Z</time>
      </trkpt>
      <trkpt lat="44.15758" lon="6.81316">
        <ele>2079</ele>
        <time>2018-07-07T11:27:41.000Z</time>
      </trkpt>
      <trkpt lat="44.15756" lon="6.81315">
        <ele>2079</ele>
        <time>2018-07-07T11:27:42.000Z</time>
      </trkpt>
      <trkpt lat="44.15752" lon="6.81307">
        <ele>2077</ele>
        <time>2018-07-07T11:27:45.000Z</time>
      </trkpt>
      <trkpt lat="44.1575" lon="6.81303">
        <ele>2082</ele>
        <time>2018-07-07T11:27:47.000Z</time>
      </trkpt>
      <trkpt lat="44.15743" lon="6.81294">
        <ele>2081</ele>
        <time>2018-07-07T11:27:51.000Z</time>
      </trkpt>
      <trkpt lat="44.1574" lon="6.81293">
        <ele>2081</ele>
        <time>2018-07-07T11:27:52.000Z</time>
      </trkpt>
      <trkpt lat="44.15737" lon="6.81291">
        <ele>2080</ele>
        <time>2018-07-07T11:27:53.000Z</time>
      </trkpt>
      <trkpt lat="44.15732" lon="6.81286">
        <ele>2079</ele>
        <time>2018-07-07T11:27:55.000Z</time>
      </trkpt>
      <trkpt lat="44.1573" lon="6.81279">
        <ele>2078</ele>
        <time>2018-07-07T11:27:57.000Z</time>
      </trkpt>
      <trkpt lat="44.15726" lon="6.8127">
        <ele>2077</ele>
        <time>2018-07-07T11:27:59.000Z</time>
      </trkpt>
      <trkpt lat="44.15722" lon="6.81265">
        <ele>2077</ele>
        <time>2018-07-07T11:28:01.000Z</time>
      </trkpt>
      <trkpt lat="44.1572" lon="6.81263">
        <ele>2077</ele>
        <time>2018-07-07T11:28:03.000Z</time>
      </trkpt>
      <trkpt lat="44.15717" lon="6.8126">
        <ele>2077</ele>
        <time>2018-07-07T11:28:05.000Z</time>
      </trkpt>
      <trkpt lat="44.15715" lon="6.81257">
        <ele>2077</ele>
        <time>2018-07-07T11:28:07.000Z</time>
      </trkpt>
      <trkpt lat="44.15715" lon="6.81256">
        <ele>2077</ele>
        <time>2018-07-07T11:28:08.000Z</time>
      </trkpt>
      <trkpt lat="44.15711" lon="6.81251">
        <ele>2077</ele>
        <time>2018-07-07T11:28:15.000Z</time>
      </trkpt>
      <trkpt lat="44.15707" lon="6.81247">
        <ele>2063</ele>
        <time>2018-07-07T11:28:22.000Z</time>
      </trkpt>
      <trkpt lat="44.15701" lon="6.81237">
        <ele>2063</ele>
        <time>2018-07-07T11:28:27.000Z</time>
      </trkpt>
      <trkpt lat="44.15695" lon="6.81229">
        <ele>2063</ele>
        <time>2018-07-07T11:28:29.000Z</time>
      </trkpt>
      <trkpt lat="44.15691" lon="6.81225">
        <ele>2063</ele>
        <time>2018-07-07T11:28:30.000Z</time>
      </trkpt>
      <trkpt lat="44.15684" lon="6.81218">
        <ele>2062</ele>
        <time>2018-07-07T11:28:33.000Z</time>
      </trkpt>
      <trkpt lat="44.15681" lon="6.81215">
        <ele>2062</ele>
        <time>2018-07-07T11:28:35.000Z</time>
      </trkpt>
      <trkpt lat="44.15676" lon="6.8121">
        <ele>2061</ele>
        <time>2018-07-07T11:28:39.000Z</time>
      </trkpt>
      <trkpt lat="44.15674" lon="6.8121">
        <ele>2061</ele>
        <time>2018-07-07T11:28:41.000Z</time>
      </trkpt>
      <trkpt lat="44.15667" lon="6.81206">
        <ele>2060</ele>
        <time>2018-07-07T11:28:44.000Z</time>
      </trkpt>
      <trkpt lat="44.15661" lon="6.81194">
        <ele>2055</ele>
        <time>2018-07-07T11:28:50.000Z</time>
      </trkpt>
      <trkpt lat="44.15658" lon="6.8119">
        <ele>2055</ele>
        <time>2018-07-07T11:28:55.000Z</time>
      </trkpt>
      <trkpt lat="44.15658" lon="6.81188">
        <ele>2055</ele>
        <time>2018-07-07T11:28:57.000Z</time>
      </trkpt>
      <trkpt lat="44.15657" lon="6.81183">
        <ele>2054</ele>
        <time>2018-07-07T11:29:01.000Z</time>
      </trkpt>
      <trkpt lat="44.15656" lon="6.81175">
        <ele>2054</ele>
        <time>2018-07-07T11:29:05.000Z</time>
      </trkpt>
      <trkpt lat="44.15654" lon="6.81171">
        <ele>2053</ele>
        <time>2018-07-07T11:29:07.000Z</time>
      </trkpt>
      <trkpt lat="44.15652" lon="6.8117">
        <ele>2053</ele>
        <time>2018-07-07T11:29:08.000Z</time>
      </trkpt>
      <trkpt lat="44.15648" lon="6.81165">
        <ele>2045</ele>
        <time>2018-07-07T11:29:10.000Z</time>
      </trkpt>
      <trkpt lat="44.15646" lon="6.81162">
        <ele>2045</ele>
        <time>2018-07-07T11:29:11.000Z</time>
      </trkpt>
      <trkpt lat="44.15644" lon="6.81159">
        <ele>2044</ele>
        <time>2018-07-07T11:29:12.000Z</time>
      </trkpt>
      <trkpt lat="44.15642" lon="6.81155">
        <ele>2043</ele>
        <time>2018-07-07T11:29:13.000Z</time>
      </trkpt>
      <trkpt lat="44.15637" lon="6.81145">
        <ele>2041</ele>
        <time>2018-07-07T11:29:15.000Z</time>
      </trkpt>
      <trkpt lat="44.15632" lon="6.81136">
        <ele>2040</ele>
        <time>2018-07-07T11:29:17.000Z</time>
      </trkpt>
      <trkpt lat="44.1563" lon="6.81133">
        <ele>2039</ele>
        <time>2018-07-07T11:29:18.000Z</time>
      </trkpt>
      <trkpt lat="44.15628" lon="6.81131">
        <ele>2039</ele>
        <time>2018-07-07T11:29:19.000Z</time>
      </trkpt>
      <trkpt lat="44.15628" lon="6.8113">
        <ele>2039</ele>
        <time>2018-07-07T11:29:20.000Z</time>
      </trkpt>
      <trkpt lat="44.15627" lon="6.8113">
        <ele>2039</ele>
        <time>2018-07-07T11:29:22.000Z</time>
      </trkpt>
      <trkpt lat="44.15627" lon="6.81129">
        <ele>2039</ele>
        <time>2018-07-07T11:29:26.000Z</time>
      </trkpt>
      <trkpt lat="44.15627" lon="6.81129">
        <ele>2039</ele>
        <time>2018-07-07T11:29:38.000Z</time>
      </trkpt>
      <trkpt lat="44.15627" lon="6.81128">
        <ele>2039</ele>
        <time>2018-07-07T11:29:48.000Z</time>
      </trkpt>
      <trkpt lat="44.15623" lon="6.81125">
        <ele>2038</ele>
        <time>2018-07-07T11:29:55.000Z</time>
      </trkpt>
      <trkpt lat="44.15617" lon="6.81119">
        <ele>2038</ele>
        <time>2018-07-07T11:29:59.000Z</time>
      </trkpt>
      <trkpt lat="44.15615" lon="6.81116">
        <ele>2037</ele>
        <time>2018-07-07T11:30:00.000Z</time>
      </trkpt>
      <trkpt lat="44.15613" lon="6.81105">
        <ele>2036</ele>
        <time>2018-07-07T11:30:02.000Z</time>
      </trkpt>
      <trkpt lat="44.15612" lon="6.81097">
        <ele>2036</ele>
        <time>2018-07-07T11:30:03.000Z</time>
      </trkpt>
      <trkpt lat="44.1561" lon="6.81087">
        <ele>2035</ele>
        <time>2018-07-07T11:30:04.000Z</time>
      </trkpt>
      <trkpt lat="44.15609" lon="6.8108">
        <ele>2029</ele>
        <time>2018-07-07T11:30:05.000Z</time>
      </trkpt>
      <trkpt lat="44.15608" lon="6.81075">
        <ele>2028</ele>
        <time>2018-07-07T11:30:06.000Z</time>
      </trkpt>
      <trkpt lat="44.15607" lon="6.81071">
        <ele>2028</ele>
        <time>2018-07-07T11:30:07.000Z</time>
      </trkpt>
      <trkpt lat="44.15605" lon="6.81067">
        <ele>2028</ele>
        <time>2018-07-07T11:30:08.000Z</time>
      </trkpt>
      <trkpt lat="44.15602" lon="6.81057">
        <ele>2028</ele>
        <time>2018-07-07T11:30:10.000Z</time>
      </trkpt>
      <trkpt lat="44.156" lon="6.81051">
        <ele>2027</ele>
        <time>2018-07-07T11:30:11.000Z</time>
      </trkpt>
      <trkpt lat="44.15599" lon="6.81044">
        <ele>2027</ele>
        <time>2018-07-07T11:30:12.000Z</time>
      </trkpt>
      <trkpt lat="44.15597" lon="6.81033">
        <ele>2026</ele>
        <time>2018-07-07T11:30:14.000Z</time>
      </trkpt>
      <trkpt lat="44.15595" lon="6.81027">
        <ele>2026</ele>
        <time>2018-07-07T11:30:15.000Z</time>
      </trkpt>
      <trkpt lat="44.15591" lon="6.81013">
        <ele>2025</ele>
        <time>2018-07-07T11:30:17.000Z</time>
      </trkpt>
      <trkpt lat="44.1559" lon="6.81007">
        <ele>2024</ele>
        <time>2018-07-07T11:30:19.000Z</time>
      </trkpt>
      <trkpt lat="44.15587" lon="6.80994">
        <ele>2021</ele>
        <time>2018-07-07T11:30:24.000Z</time>
      </trkpt>
      <trkpt lat="44.15586" lon="6.80989">
        <ele>2021</ele>
        <time>2018-07-07T11:30:25.000Z</time>
      </trkpt>
      <trkpt lat="44.15586" lon="6.80977">
        <ele>2019</ele>
        <time>2018-07-07T11:30:27.000Z</time>
      </trkpt>
      <trkpt lat="44.15585" lon="6.80962">
        <ele>2018</ele>
        <time>2018-07-07T11:30:29.000Z</time>
      </trkpt>
      <trkpt lat="44.15583" lon="6.80946">
        <ele>2010</ele>
        <time>2018-07-07T11:30:31.000Z</time>
      </trkpt>
      <trkpt lat="44.15582" lon="6.80937">
        <ele>2011</ele>
        <time>2018-07-07T11:30:32.000Z</time>
      </trkpt>
      <trkpt lat="44.1558" lon="6.80929">
        <ele>2011</ele>
        <time>2018-07-07T11:30:33.000Z</time>
      </trkpt>
      <trkpt lat="44.15575" lon="6.80912">
        <ele>2009</ele>
        <time>2018-07-07T11:30:35.000Z</time>
      </trkpt>
      <trkpt lat="44.15572" lon="6.80904">
        <ele>2006</ele>
        <time>2018-07-07T11:30:36.000Z</time>
      </trkpt>
      <trkpt lat="44.15569" lon="6.80898">
        <ele>2005</ele>
        <time>2018-07-07T11:30:37.000Z</time>
      </trkpt>
      <trkpt lat="44.15567" lon="6.80892">
        <ele>2003</ele>
        <time>2018-07-07T11:30:38.000Z</time>
      </trkpt>
      <trkpt lat="44.15565" lon="6.80885">
        <ele>2002</ele>
        <time>2018-07-07T11:30:39.000Z</time>
      </trkpt>
      <trkpt lat="44.15562" lon="6.80877">
        <ele>2001</ele>
        <time>2018-07-07T11:30:40.000Z</time>
      </trkpt>
      <trkpt lat="44.1556" lon="6.80868">
        <ele>2000</ele>
        <time>2018-07-07T11:30:41.000Z</time>
      </trkpt>
      <trkpt lat="44.15556" lon="6.80858">
        <ele>1999</ele>
        <time>2018-07-07T11:30:42.000Z</time>
      </trkpt>
      <trkpt lat="44.15552" lon="6.8085">
        <ele>1999</ele>
        <time>2018-07-07T11:30:43.000Z</time>
      </trkpt>
      <trkpt lat="44.15548" lon="6.80843">
        <ele>1998</ele>
        <time>2018-07-07T11:30:44.000Z</time>
      </trkpt>
      <trkpt lat="44.15546" lon="6.80838">
        <ele>1998</ele>
        <time>2018-07-07T11:30:45.000Z</time>
      </trkpt>
      <trkpt lat="44.15544" lon="6.80833">
        <ele>1992</ele>
        <time>2018-07-07T11:30:46.000Z</time>
      </trkpt>
      <trkpt lat="44.15543" lon="6.80828">
        <ele>1991</ele>
        <time>2018-07-07T11:30:47.000Z</time>
      </trkpt>
      <trkpt lat="44.15539" lon="6.80809">
        <ele>1990</ele>
        <time>2018-07-07T11:30:52.000Z</time>
      </trkpt>
      <trkpt lat="44.15539" lon="6.80809">
        <ele>1990</ele>
        <time>2018-07-07T11:30:57.000Z</time>
      </trkpt>
      <trkpt lat="44.15539" lon="6.80809">
        <ele>1990</ele>
        <time>2018-07-07T11:31:10.000Z</time>
      </trkpt>
      <trkpt lat="44.15539" lon="6.80807">
        <ele>1990</ele>
        <time>2018-07-07T11:31:20.000Z</time>
      </trkpt>
      <trkpt lat="44.15538" lon="6.80801">
        <ele>1990</ele>
        <time>2018-07-07T11:31:30.000Z</time>
      </trkpt>
      <trkpt lat="44.15535" lon="6.80787">
        <ele>1989</ele>
        <time>2018-07-07T11:31:35.000Z</time>
      </trkpt>
      <trkpt lat="44.15533" lon="6.80783">
        <ele>1988</ele>
        <time>2018-07-07T11:31:36.000Z</time>
      </trkpt>
      <trkpt lat="44.15528" lon="6.80774">
        <ele>1987</ele>
        <time>2018-07-07T11:31:38.000Z</time>
      </trkpt>
      <trkpt lat="44.15525" lon="6.80768">
        <ele>1987</ele>
        <time>2018-07-07T11:31:39.000Z</time>
      </trkpt>
      <trkpt lat="44.15521" lon="6.8076">
        <ele>1986</ele>
        <time>2018-07-07T11:31:40.000Z</time>
      </trkpt>
      <trkpt lat="44.15516" lon="6.80751">
        <ele>1985</ele>
        <time>2018-07-07T11:31:41.000Z</time>
      </trkpt>
      <trkpt lat="44.15513" lon="6.80744">
        <ele>1982</ele>
        <time>2018-07-07T11:31:42.000Z</time>
      </trkpt>
      <trkpt lat="44.15511" lon="6.8074">
        <ele>1982</ele>
        <time>2018-07-07T11:31:43.000Z</time>
      </trkpt>
      <trkpt lat="44.1551" lon="6.80739">
        <ele>1982</ele>
        <time>2018-07-07T11:31:44.000Z</time>
      </trkpt>
      <trkpt lat="44.15508" lon="6.80732">
        <ele>1982</ele>
        <time>2018-07-07T11:31:50.000Z</time>
      </trkpt>
      <trkpt lat="44.15506" lon="6.80723">
        <ele>1982</ele>
        <time>2018-07-07T11:31:52.000Z</time>
      </trkpt>
      <trkpt lat="44.15503" lon="6.80715">
        <ele>1982</ele>
        <time>2018-07-07T11:31:53.000Z</time>
      </trkpt>
      <trkpt lat="44.15497" lon="6.80685">
        <ele>1981</ele>
        <time>2018-07-07T11:31:56.000Z</time>
      </trkpt>
      <trkpt lat="44.15497" lon="6.80679">
        <ele>1982</ele>
        <time>2018-07-07T11:31:57.000Z</time>
      </trkpt>
      <trkpt lat="44.15497" lon="6.80674">
        <ele>1983</ele>
        <time>2018-07-07T11:31:59.000Z</time>
      </trkpt>
      <trkpt lat="44.15497" lon="6.80674">
        <ele>1983</ele>
        <time>2018-07-07T11:32:00.000Z</time>
      </trkpt>
      <trkpt lat="44.15495" lon="6.80667">
        <ele>1984</ele>
        <time>2018-07-07T11:32:04.000Z</time>
      </trkpt>
      <trkpt lat="44.15495" lon="6.80665">
        <ele>1985</ele>
        <time>2018-07-07T11:32:05.000Z</time>
      </trkpt>
      <trkpt lat="44.15495" lon="6.80651">
        <ele>1986</ele>
        <time>2018-07-07T11:32:10.000Z</time>
      </trkpt>
      <trkpt lat="44.15496" lon="6.80644">
        <ele>1986</ele>
        <time>2018-07-07T11:32:15.000Z</time>
      </trkpt>
      <trkpt lat="44.15496" lon="6.80643">
        <ele>1986</ele>
        <time>2018-07-07T11:32:17.000Z</time>
      </trkpt>
      <trkpt lat="44.15496" lon="6.80643">
        <ele>1986</ele>
        <time>2018-07-07T11:32:23.000Z</time>
      </trkpt>
      <trkpt lat="44.15496" lon="6.80643">
        <ele>1986</ele>
        <time>2018-07-07T11:32:39.000Z</time>
      </trkpt>
      <trkpt lat="44.15496" lon="6.80643">
        <ele>1986</ele>
        <time>2018-07-07T11:32:58.000Z</time>
      </trkpt>
      <trkpt lat="44.15496" lon="6.80643">
        <ele>1986</ele>
        <time>2018-07-07T11:33:20.000Z</time>
      </trkpt>
      <trkpt lat="44.1549" lon="6.80634">
        <ele>1987</ele>
        <time>2018-07-07T11:33:26.000Z</time>
      </trkpt>
      <trkpt lat="44.15477" lon="6.80623">
        <ele>1987</ele>
        <time>2018-07-07T11:33:30.000Z</time>
      </trkpt>
      <trkpt lat="44.15474" lon="6.80621">
        <ele>1987</ele>
        <time>2018-07-07T11:33:31.000Z</time>
      </trkpt>
      <trkpt lat="44.15463" lon="6.80612">
        <ele>1988</ele>
        <time>2018-07-07T11:33:34.000Z</time>
      </trkpt>
      <trkpt lat="44.15459" lon="6.80609">
        <ele>1988</ele>
        <time>2018-07-07T11:33:35.000Z</time>
      </trkpt>
      <trkpt lat="44.15456" lon="6.80606">
        <ele>1988</ele>
        <time>2018-07-07T11:33:36.000Z</time>
      </trkpt>
      <trkpt lat="44.15448" lon="6.806">
        <ele>1988</ele>
        <time>2018-07-07T11:33:38.000Z</time>
      </trkpt>
      <trkpt lat="44.1544" lon="6.80594">
        <ele>1989</ele>
        <time>2018-07-07T11:33:40.000Z</time>
      </trkpt>
      <trkpt lat="44.15436" lon="6.80592">
        <ele>1989</ele>
        <time>2018-07-07T11:33:41.000Z</time>
      </trkpt>
      <trkpt lat="44.15432" lon="6.80591">
        <ele>1989</ele>
        <time>2018-07-07T11:33:42.000Z</time>
      </trkpt>
      <trkpt lat="44.15422" lon="6.80589">
        <ele>1990</ele>
        <time>2018-07-07T11:33:44.000Z</time>
      </trkpt>
      <trkpt lat="44.15419" lon="6.80588">
        <ele>1991</ele>
        <time>2018-07-07T11:33:45.000Z</time>
      </trkpt>
      <trkpt lat="44.15415" lon="6.80587">
        <ele>1990</ele>
        <time>2018-07-07T11:33:46.000Z</time>
      </trkpt>
      <trkpt lat="44.15406" lon="6.8058">
        <ele>1989</ele>
        <time>2018-07-07T11:33:49.000Z</time>
      </trkpt>
      <trkpt lat="44.15402" lon="6.80576">
        <ele>1988</ele>
        <time>2018-07-07T11:33:51.000Z</time>
      </trkpt>
      <trkpt lat="44.15397" lon="6.8057">
        <ele>1986</ele>
        <time>2018-07-07T11:33:53.000Z</time>
      </trkpt>
      <trkpt lat="44.15392" lon="6.80563">
        <ele>1985</ele>
        <time>2018-07-07T11:33:55.000Z</time>
      </trkpt>
      <trkpt lat="44.15384" lon="6.80557">
        <ele>1984</ele>
        <time>2018-07-07T11:33:58.000Z</time>
      </trkpt>
      <trkpt lat="44.15372" lon="6.80551">
        <ele>1983</ele>
        <time>2018-07-07T11:34:01.000Z</time>
      </trkpt>
      <trkpt lat="44.15365" lon="6.80544">
        <ele>1982</ele>
        <time>2018-07-07T11:34:03.000Z</time>
      </trkpt>
      <trkpt lat="44.15357" lon="6.80534">
        <ele>1982</ele>
        <time>2018-07-07T11:34:05.000Z</time>
      </trkpt>
      <trkpt lat="44.15351" lon="6.80524">
        <ele>1981</ele>
        <time>2018-07-07T11:34:07.000Z</time>
      </trkpt>
      <trkpt lat="44.15348" lon="6.8052">
        <ele>1981</ele>
        <time>2018-07-07T11:34:08.000Z</time>
      </trkpt>
      <trkpt lat="44.15337" lon="6.80512">
        <ele>1979</ele>
        <time>2018-07-07T11:34:11.000Z</time>
      </trkpt>
      <trkpt lat="44.15328" lon="6.8051">
        <ele>1976</ele>
        <time>2018-07-07T11:34:14.000Z</time>
      </trkpt>
      <trkpt lat="44.15326" lon="6.8051">
        <ele>1976</ele>
        <time>2018-07-07T11:34:15.000Z</time>
      </trkpt>
      <trkpt lat="44.1531" lon="6.80508">
        <ele>1976</ele>
        <time>2018-07-07T11:34:20.000Z</time>
      </trkpt>
      <trkpt lat="44.15302" lon="6.80507">
        <ele>1976</ele>
        <time>2018-07-07T11:34:22.000Z</time>
      </trkpt>
      <trkpt lat="44.15292" lon="6.80506">
        <ele>1976</ele>
        <time>2018-07-07T11:34:24.000Z</time>
      </trkpt>
      <trkpt lat="44.15285" lon="6.80505">
        <ele>1976</ele>
        <time>2018-07-07T11:34:26.000Z</time>
      </trkpt>
      <trkpt lat="44.15282" lon="6.80506">
        <ele>1976</ele>
        <time>2018-07-07T11:34:27.000Z</time>
      </trkpt>
      <trkpt lat="44.15279" lon="6.80508">
        <ele>1976</ele>
        <time>2018-07-07T11:34:28.000Z</time>
      </trkpt>
      <trkpt lat="44.15267" lon="6.80517">
        <ele>1976</ele>
        <time>2018-07-07T11:34:33.000Z</time>
      </trkpt>
      <trkpt lat="44.15255" lon="6.80525">
        <ele>1976</ele>
        <time>2018-07-07T11:34:36.000Z</time>
      </trkpt>
      <trkpt lat="44.15248" lon="6.80529">
        <ele>1974</ele>
        <time>2018-07-07T11:34:38.000Z</time>
      </trkpt>
      <trkpt lat="44.15245" lon="6.80531">
        <ele>1974</ele>
        <time>2018-07-07T11:34:39.000Z</time>
      </trkpt>
      <trkpt lat="44.15225" lon="6.80539">
        <ele>1973</ele>
        <time>2018-07-07T11:34:45.000Z</time>
      </trkpt>
      <trkpt lat="44.15211" lon="6.80541">
        <ele>1973</ele>
        <time>2018-07-07T11:34:49.000Z</time>
      </trkpt>
      <trkpt lat="44.15198" lon="6.80541">
        <ele>1972</ele>
        <time>2018-07-07T11:34:52.000Z</time>
      </trkpt>
      <trkpt lat="44.15193" lon="6.80541">
        <ele>1972</ele>
        <time>2018-07-07T11:34:53.000Z</time>
      </trkpt>
      <trkpt lat="44.15188" lon="6.80541">
        <ele>1972</ele>
        <time>2018-07-07T11:34:54.000Z</time>
      </trkpt>
      <trkpt lat="44.15179" lon="6.80541">
        <ele>1972</ele>
        <time>2018-07-07T11:34:56.000Z</time>
      </trkpt>
      <trkpt lat="44.15168" lon="6.80537">
        <ele>1972</ele>
        <time>2018-07-07T11:34:58.000Z</time>
      </trkpt>
      <trkpt lat="44.15162" lon="6.80537">
        <ele>1968</ele>
        <time>2018-07-07T11:34:59.000Z</time>
      </trkpt>
      <trkpt lat="44.15158" lon="6.80537">
        <ele>1968</ele>
        <time>2018-07-07T11:35:00.000Z</time>
      </trkpt>
      <trkpt lat="44.15148" lon="6.80537">
        <ele>1968</ele>
        <time>2018-07-07T11:35:04.000Z</time>
      </trkpt>
      <trkpt lat="44.15138" lon="6.80538">
        <ele>1967</ele>
        <time>2018-07-07T11:35:09.000Z</time>
      </trkpt>
      <trkpt lat="44.15136" lon="6.80538">
        <ele>1967</ele>
        <time>2018-07-07T11:35:11.000Z</time>
      </trkpt>
      <trkpt lat="44.15128" lon="6.80537">
        <ele>1966</ele>
        <time>2018-07-07T11:35:15.000Z</time>
      </trkpt>
      <trkpt lat="44.15126" lon="6.80536">
        <ele>1966</ele>
        <time>2018-07-07T11:35:16.000Z</time>
      </trkpt>
      <trkpt lat="44.15116" lon="6.80531">
        <ele>1966</ele>
        <time>2018-07-07T11:35:20.000Z</time>
      </trkpt>
      <trkpt lat="44.15103" lon="6.80519">
        <ele>1967</ele>
        <time>2018-07-07T11:35:25.000Z</time>
      </trkpt>
      <trkpt lat="44.15099" lon="6.80516">
        <ele>1967</ele>
        <time>2018-07-07T11:35:26.000Z</time>
      </trkpt>
      <trkpt lat="44.15094" lon="6.80513">
        <ele>1968</ele>
        <time>2018-07-07T11:35:27.000Z</time>
      </trkpt>
      <trkpt lat="44.15089" lon="6.80511">
        <ele>1968</ele>
        <time>2018-07-07T11:35:28.000Z</time>
      </trkpt>
      <trkpt lat="44.15084" lon="6.80508">
        <ele>1969</ele>
        <time>2018-07-07T11:35:29.000Z</time>
      </trkpt>
      <trkpt lat="44.15079" lon="6.80505">
        <ele>1966</ele>
        <time>2018-07-07T11:35:30.000Z</time>
      </trkpt>
      <trkpt lat="44.15075" lon="6.80502">
        <ele>1965</ele>
        <time>2018-07-07T11:35:31.000Z</time>
      </trkpt>
      <trkpt lat="44.15072" lon="6.80501">
        <ele>1964</ele>
        <time>2018-07-07T11:35:32.000Z</time>
      </trkpt>
      <trkpt lat="44.15069" lon="6.805">
        <ele>1963</ele>
        <time>2018-07-07T11:35:33.000Z</time>
      </trkpt>
      <trkpt lat="44.15062" lon="6.80502">
        <ele>1961</ele>
        <time>2018-07-07T11:35:35.000Z</time>
      </trkpt>
      <trkpt lat="44.15059" lon="6.80503">
        <ele>1961</ele>
        <time>2018-07-07T11:35:36.000Z</time>
      </trkpt>
      <trkpt lat="44.1505" lon="6.805">
        <ele>1972</ele>
        <time>2018-07-07T11:35:40.000Z</time>
      </trkpt>
      <trkpt lat="44.15037" lon="6.80492">
        <ele>1971</ele>
        <time>2018-07-07T11:35:44.000Z</time>
      </trkpt>
      <trkpt lat="44.15026" lon="6.80485">
        <ele>1970</ele>
        <time>2018-07-07T11:35:49.000Z</time>
      </trkpt>
      <trkpt lat="44.15009" lon="6.80479">
        <ele>1969</ele>
        <time>2018-07-07T11:35:55.000Z</time>
      </trkpt>
      <trkpt lat="44.14991" lon="6.80476">
        <ele>1961</ele>
        <time>2018-07-07T11:36:01.000Z</time>
      </trkpt>
      <trkpt lat="44.14982" lon="6.80473">
        <ele>1961</ele>
        <time>2018-07-07T11:36:05.000Z</time>
      </trkpt>
      <trkpt lat="44.14975" lon="6.80467">
        <ele>1961</ele>
        <time>2018-07-07T11:36:08.000Z</time>
      </trkpt>
      <trkpt lat="44.1497" lon="6.80458">
        <ele>1962</ele>
        <time>2018-07-07T11:36:10.000Z</time>
      </trkpt>
      <trkpt lat="44.14967" lon="6.80452">
        <ele>1962</ele>
        <time>2018-07-07T11:36:11.000Z</time>
      </trkpt>
      <trkpt lat="44.14961" lon="6.80439">
        <ele>1963</ele>
        <time>2018-07-07T11:36:13.000Z</time>
      </trkpt>
      <trkpt lat="44.14953" lon="6.80426">
        <ele>1962</ele>
        <time>2018-07-07T11:36:15.000Z</time>
      </trkpt>
      <trkpt lat="44.14948" lon="6.80419">
        <ele>1962</ele>
        <time>2018-07-07T11:36:16.000Z</time>
      </trkpt>
      <trkpt lat="44.14937" lon="6.80401">
        <ele>1965</ele>
        <time>2018-07-07T11:36:19.000Z</time>
      </trkpt>
      <trkpt lat="44.14931" lon="6.8039">
        <ele>1965</ele>
        <time>2018-07-07T11:36:21.000Z</time>
      </trkpt>
      <trkpt lat="44.1493" lon="6.80383">
        <ele>1965</ele>
        <time>2018-07-07T11:36:22.000Z</time>
      </trkpt>
      <trkpt lat="44.14929" lon="6.80378">
        <ele>1965</ele>
        <time>2018-07-07T11:36:23.000Z</time>
      </trkpt>
      <trkpt lat="44.14928" lon="6.80369">
        <ele>1965</ele>
        <time>2018-07-07T11:36:26.000Z</time>
      </trkpt>
      <trkpt lat="44.14928" lon="6.80369">
        <ele>1965</ele>
        <time>2018-07-07T11:36:32.000Z</time>
      </trkpt>
      <trkpt lat="44.14927" lon="6.80366">
        <ele>1965</ele>
        <time>2018-07-07T11:36:44.000Z</time>
      </trkpt>
      <trkpt lat="44.14922" lon="6.80352">
        <ele>1963</ele>
        <time>2018-07-07T11:36:48.000Z</time>
      </trkpt>
      <trkpt lat="44.14922" lon="6.80347">
        <ele>1962</ele>
        <time>2018-07-07T11:36:49.000Z</time>
      </trkpt>
      <trkpt lat="44.14921" lon="6.80341">
        <ele>1960</ele>
        <time>2018-07-07T11:36:50.000Z</time>
      </trkpt>
      <trkpt lat="44.14917" lon="6.80327">
        <ele>1958</ele>
        <time>2018-07-07T11:36:52.000Z</time>
      </trkpt>
      <trkpt lat="44.14915" lon="6.8032">
        <ele>1954</ele>
        <time>2018-07-07T11:36:53.000Z</time>
      </trkpt>
      <trkpt lat="44.14912" lon="6.80311">
        <ele>1952</ele>
        <time>2018-07-07T11:36:54.000Z</time>
      </trkpt>
      <trkpt lat="44.14909" lon="6.80293">
        <ele>1949</ele>
        <time>2018-07-07T11:36:56.000Z</time>
      </trkpt>
      <trkpt lat="44.14908" lon="6.80284">
        <ele>1948</ele>
        <time>2018-07-07T11:36:57.000Z</time>
      </trkpt>
      <trkpt lat="44.14906" lon="6.80276">
        <ele>1947</ele>
        <time>2018-07-07T11:36:58.000Z</time>
      </trkpt>
      <trkpt lat="44.14903" lon="6.80262">
        <ele>1945</ele>
        <time>2018-07-07T11:37:00.000Z</time>
      </trkpt>
      <trkpt lat="44.14901" lon="6.80255">
        <ele>1945</ele>
        <time>2018-07-07T11:37:01.000Z</time>
      </trkpt>
      <trkpt lat="44.14898" lon="6.80248">
        <ele>1935</ele>
        <time>2018-07-07T11:37:02.000Z</time>
      </trkpt>
      <trkpt lat="44.14893" lon="6.80233">
        <ele>1933</ele>
        <time>2018-07-07T11:37:04.000Z</time>
      </trkpt>
      <trkpt lat="44.14888" lon="6.80219">
        <ele>1930</ele>
        <time>2018-07-07T11:37:06.000Z</time>
      </trkpt>
      <trkpt lat="44.14886" lon="6.80213">
        <ele>1929</ele>
        <time>2018-07-07T11:37:07.000Z</time>
      </trkpt>
      <trkpt lat="44.14882" lon="6.80209">
        <ele>1928</ele>
        <time>2018-07-07T11:37:08.000Z</time>
      </trkpt>
      <trkpt lat="44.14878" lon="6.80204">
        <ele>1928</ele>
        <time>2018-07-07T11:37:09.000Z</time>
      </trkpt>
      <trkpt lat="44.14873" lon="6.802">
        <ele>1927</ele>
        <time>2018-07-07T11:37:10.000Z</time>
      </trkpt>
      <trkpt lat="44.14868" lon="6.80197">
        <ele>1926</ele>
        <time>2018-07-07T11:37:11.000Z</time>
      </trkpt>
      <trkpt lat="44.14864" lon="6.80195">
        <ele>1925</ele>
        <time>2018-07-07T11:37:12.000Z</time>
      </trkpt>
      <trkpt lat="44.14861" lon="6.80193">
        <ele>1925</ele>
        <time>2018-07-07T11:37:13.000Z</time>
      </trkpt>
      <trkpt lat="44.14857" lon="6.80193">
        <ele>1924</ele>
        <time>2018-07-07T11:37:14.000Z</time>
      </trkpt>
      <trkpt lat="44.14854" lon="6.80192">
        <ele>1924</ele>
        <time>2018-07-07T11:37:15.000Z</time>
      </trkpt>
      <trkpt lat="44.14847" lon="6.80193">
        <ele>1923</ele>
        <time>2018-07-07T11:37:17.000Z</time>
      </trkpt>
      <trkpt lat="44.14844" lon="6.80193">
        <ele>1923</ele>
        <time>2018-07-07T11:37:18.000Z</time>
      </trkpt>
      <trkpt lat="44.14839" lon="6.80195">
        <ele>1923</ele>
        <time>2018-07-07T11:37:20.000Z</time>
      </trkpt>
      <trkpt lat="44.14837" lon="6.80195">
        <ele>1923</ele>
        <time>2018-07-07T11:37:21.000Z</time>
      </trkpt>
      <trkpt lat="44.14833" lon="6.80194">
        <ele>1918</ele>
        <time>2018-07-07T11:37:22.000Z</time>
      </trkpt>
      <trkpt lat="44.1483" lon="6.80195">
        <ele>1918</ele>
        <time>2018-07-07T11:37:23.000Z</time>
      </trkpt>
      <trkpt lat="44.14825" lon="6.80195">
        <ele>1918</ele>
        <time>2018-07-07T11:37:24.000Z</time>
      </trkpt>
      <trkpt lat="44.14818" lon="6.80195">
        <ele>1918</ele>
        <time>2018-07-07T11:37:26.000Z</time>
      </trkpt>
      <trkpt lat="44.14815" lon="6.80194">
        <ele>1918</ele>
        <time>2018-07-07T11:37:27.000Z</time>
      </trkpt>
      <trkpt lat="44.14803" lon="6.80193">
        <ele>1918</ele>
        <time>2018-07-07T11:37:29.000Z</time>
      </trkpt>
      <trkpt lat="44.14791" lon="6.80192">
        <ele>1917</ele>
        <time>2018-07-07T11:37:31.000Z</time>
      </trkpt>
      <trkpt lat="44.14785" lon="6.80193">
        <ele>1917</ele>
        <time>2018-07-07T11:37:32.000Z</time>
      </trkpt>
      <trkpt lat="44.1478" lon="6.80193">
        <ele>1917</ele>
        <time>2018-07-07T11:37:33.000Z</time>
      </trkpt>
      <trkpt lat="44.14774" lon="6.80194">
        <ele>1917</ele>
        <time>2018-07-07T11:37:34.000Z</time>
      </trkpt>
      <trkpt lat="44.1477" lon="6.80194">
        <ele>1916</ele>
        <time>2018-07-07T11:37:35.000Z</time>
      </trkpt>
      <trkpt lat="44.14765" lon="6.80195">
        <ele>1916</ele>
        <time>2018-07-07T11:37:36.000Z</time>
      </trkpt>
      <trkpt lat="44.14761" lon="6.80196">
        <ele>1916</ele>
        <time>2018-07-07T11:37:37.000Z</time>
      </trkpt>
      <trkpt lat="44.14755" lon="6.80198">
        <ele>1916</ele>
        <time>2018-07-07T11:37:38.000Z</time>
      </trkpt>
      <trkpt lat="44.14749" lon="6.80198">
        <ele>1920</ele>
        <time>2018-07-07T11:37:39.000Z</time>
      </trkpt>
      <trkpt lat="44.14743" lon="6.80196">
        <ele>1920</ele>
        <time>2018-07-07T11:37:40.000Z</time>
      </trkpt>
      <trkpt lat="44.14739" lon="6.80192">
        <ele>1919</ele>
        <time>2018-07-07T11:37:41.000Z</time>
      </trkpt>
      <trkpt lat="44.14736" lon="6.80188">
        <ele>1918</ele>
        <time>2018-07-07T11:37:42.000Z</time>
      </trkpt>
      <trkpt lat="44.14732" lon="6.80184">
        <ele>1918</ele>
        <time>2018-07-07T11:37:43.000Z</time>
      </trkpt>
      <trkpt lat="44.14726" lon="6.8018">
        <ele>1919</ele>
        <time>2018-07-07T11:37:44.000Z</time>
      </trkpt>
      <trkpt lat="44.14722" lon="6.80176">
        <ele>1919</ele>
        <time>2018-07-07T11:37:45.000Z</time>
      </trkpt>
      <trkpt lat="44.14714" lon="6.80162">
        <ele>1903</ele>
        <time>2018-07-07T11:37:47.000Z</time>
      </trkpt>
      <trkpt lat="44.14712" lon="6.80155">
        <ele>1902</ele>
        <time>2018-07-07T11:37:48.000Z</time>
      </trkpt>
      <trkpt lat="44.14708" lon="6.80147">
        <ele>1902</ele>
        <time>2018-07-07T11:37:49.000Z</time>
      </trkpt>
      <trkpt lat="44.14698" lon="6.80134">
        <ele>1901</ele>
        <time>2018-07-07T11:37:51.000Z</time>
      </trkpt>
      <trkpt lat="44.14694" lon="6.80126">
        <ele>1900</ele>
        <time>2018-07-07T11:37:52.000Z</time>
      </trkpt>
      <trkpt lat="44.14691" lon="6.8012">
        <ele>1899</ele>
        <time>2018-07-07T11:37:53.000Z</time>
      </trkpt>
      <trkpt lat="44.14688" lon="6.80114">
        <ele>1898</ele>
        <time>2018-07-07T11:37:54.000Z</time>
      </trkpt>
      <trkpt lat="44.14687" lon="6.80109">
        <ele>1897</ele>
        <time>2018-07-07T11:37:55.000Z</time>
      </trkpt>
      <trkpt lat="44.14687" lon="6.80103">
        <ele>1897</ele>
        <time>2018-07-07T11:37:56.000Z</time>
      </trkpt>
      <trkpt lat="44.14684" lon="6.80098">
        <ele>1896</ele>
        <time>2018-07-07T11:37:57.000Z</time>
      </trkpt>
      <trkpt lat="44.14665" lon="6.80073">
        <ele>1892</ele>
        <time>2018-07-07T11:38:02.000Z</time>
      </trkpt>
      <trkpt lat="44.14647" lon="6.8005">
        <ele>1889</ele>
        <time>2018-07-07T11:38:06.000Z</time>
      </trkpt>
      <trkpt lat="44.14642" lon="6.80043">
        <ele>1889</ele>
        <time>2018-07-07T11:38:07.000Z</time>
      </trkpt>
      <trkpt lat="44.14637" lon="6.80036">
        <ele>1888</ele>
        <time>2018-07-07T11:38:08.000Z</time>
      </trkpt>
      <trkpt lat="44.1462" lon="6.80016">
        <ele>1888</ele>
        <time>2018-07-07T11:38:11.000Z</time>
      </trkpt>
      <trkpt lat="44.1461" lon="6.80003">
        <ele>1888</ele>
        <time>2018-07-07T11:38:13.000Z</time>
      </trkpt>
      <trkpt lat="44.14602" lon="6.79993">
        <ele>1876</ele>
        <time>2018-07-07T11:38:15.000Z</time>
      </trkpt>
      <trkpt lat="44.14598" lon="6.79988">
        <ele>1876</ele>
        <time>2018-07-07T11:38:16.000Z</time>
      </trkpt>
      <trkpt lat="44.14594" lon="6.79983">
        <ele>1876</ele>
        <time>2018-07-07T11:38:17.000Z</time>
      </trkpt>
      <trkpt lat="44.14586" lon="6.79971">
        <ele>1873</ele>
        <time>2018-07-07T11:38:19.000Z</time>
      </trkpt>
      <trkpt lat="44.14583" lon="6.79965">
        <ele>1887</ele>
        <time>2018-07-07T11:38:20.000Z</time>
      </trkpt>
      <trkpt lat="44.14581" lon="6.7996">
        <ele>1886</ele>
        <time>2018-07-07T11:38:21.000Z</time>
      </trkpt>
      <trkpt lat="44.14579" lon="6.79955">
        <ele>1885</ele>
        <time>2018-07-07T11:38:22.000Z</time>
      </trkpt>
      <trkpt lat="44.14577" lon="6.7995">
        <ele>1884</ele>
        <time>2018-07-07T11:38:23.000Z</time>
      </trkpt>
      <trkpt lat="44.14575" lon="6.79942">
        <ele>1882</ele>
        <time>2018-07-07T11:38:24.000Z</time>
      </trkpt>
      <trkpt lat="44.14569" lon="6.79924">
        <ele>1878</ele>
        <time>2018-07-07T11:38:26.000Z</time>
      </trkpt>
      <trkpt lat="44.14571" lon="6.79908">
        <ele>1869</ele>
        <time>2018-07-07T11:38:28.000Z</time>
      </trkpt>
      <trkpt lat="44.14573" lon="6.799">
        <ele>1869</ele>
        <time>2018-07-07T11:38:29.000Z</time>
      </trkpt>
      <trkpt lat="44.14573" lon="6.79892">
        <ele>1869</ele>
        <time>2018-07-07T11:38:30.000Z</time>
      </trkpt>
      <trkpt lat="44.1457" lon="6.79874">
        <ele>1867</ele>
        <time>2018-07-07T11:38:32.000Z</time>
      </trkpt>
      <trkpt lat="44.14568" lon="6.79855">
        <ele>1864</ele>
        <time>2018-07-07T11:38:34.000Z</time>
      </trkpt>
      <trkpt lat="44.14566" lon="6.79837">
        <ele>1861</ele>
        <time>2018-07-07T11:38:36.000Z</time>
      </trkpt>
      <trkpt lat="44.14564" lon="6.79829">
        <ele>1853</ele>
        <time>2018-07-07T11:38:37.000Z</time>
      </trkpt>
      <trkpt lat="44.14561" lon="6.79822">
        <ele>1854</ele>
        <time>2018-07-07T11:38:38.000Z</time>
      </trkpt>
      <trkpt lat="44.14558" lon="6.79815">
        <ele>1854</ele>
        <time>2018-07-07T11:38:39.000Z</time>
      </trkpt>
      <trkpt lat="44.14554" lon="6.79808">
        <ele>1854</ele>
        <time>2018-07-07T11:38:40.000Z</time>
      </trkpt>
      <trkpt lat="44.14549" lon="6.79801">
        <ele>1854</ele>
        <time>2018-07-07T11:38:41.000Z</time>
      </trkpt>
      <trkpt lat="44.14545" lon="6.79793">
        <ele>1854</ele>
        <time>2018-07-07T11:38:42.000Z</time>
      </trkpt>
      <trkpt lat="44.14541" lon="6.79784">
        <ele>1854</ele>
        <time>2018-07-07T11:38:43.000Z</time>
      </trkpt>
      <trkpt lat="44.14538" lon="6.79774">
        <ele>1854</ele>
        <time>2018-07-07T11:38:44.000Z</time>
      </trkpt>
      <trkpt lat="44.14534" lon="6.79753">
        <ele>1853</ele>
        <time>2018-07-07T11:38:46.000Z</time>
      </trkpt>
      <trkpt lat="44.14532" lon="6.79742">
        <ele>1844</ele>
        <time>2018-07-07T11:38:47.000Z</time>
      </trkpt>
      <trkpt lat="44.14532" lon="6.79729">
        <ele>1843</ele>
        <time>2018-07-07T11:38:48.000Z</time>
      </trkpt>
      <trkpt lat="44.14531" lon="6.79716">
        <ele>1841</ele>
        <time>2018-07-07T11:38:49.000Z</time>
      </trkpt>
      <trkpt lat="44.1453" lon="6.79706">
        <ele>1840</ele>
        <time>2018-07-07T11:38:50.000Z</time>
      </trkpt>
      <trkpt lat="44.14529" lon="6.797">
        <ele>1840</ele>
        <time>2018-07-07T11:38:51.000Z</time>
      </trkpt>
      <trkpt lat="44.14528" lon="6.79696">
        <ele>1840</ele>
        <time>2018-07-07T11:38:52.000Z</time>
      </trkpt>
      <trkpt lat="44.14528" lon="6.79695">
        <ele>1840</ele>
        <time>2018-07-07T11:38:53.000Z</time>
      </trkpt>
      <trkpt lat="44.14528" lon="6.79695">
        <ele>1840</ele>
        <time>2018-07-07T11:38:54.000Z</time>
      </trkpt>
      <trkpt lat="44.14528" lon="6.79699">
        <ele>1840</ele>
        <time>2018-07-07T11:38:57.000Z</time>
      </trkpt>
      <trkpt lat="44.14528" lon="6.79699">
        <ele>1840</ele>
        <time>2018-07-07T11:38:58.000Z</time>
      </trkpt>
      <trkpt lat="44.14529" lon="6.79699">
        <ele>1840</ele>
        <time>2018-07-07T11:39:03.000Z</time>
      </trkpt>
      <trkpt lat="44.14529" lon="6.79697">
        <ele>1840</ele>
        <time>2018-07-07T11:39:04.000Z</time>
      </trkpt>
      <trkpt lat="44.14532" lon="6.79684">
        <ele>1839</ele>
        <time>2018-07-07T11:39:07.000Z</time>
      </trkpt>
      <trkpt lat="44.14532" lon="6.79677">
        <ele>1838</ele>
        <time>2018-07-07T11:39:08.000Z</time>
      </trkpt>
      <trkpt lat="44.14531" lon="6.79658">
        <ele>1831</ele>
        <time>2018-07-07T11:39:10.000Z</time>
      </trkpt>
      <trkpt lat="44.1453" lon="6.79636">
        <ele>1829</ele>
        <time>2018-07-07T11:39:12.000Z</time>
      </trkpt>
      <trkpt lat="44.1453" lon="6.79626">
        <ele>1829</ele>
        <time>2018-07-07T11:39:13.000Z</time>
      </trkpt>
      <trkpt lat="44.14529" lon="6.79614">
        <ele>1828</ele>
        <time>2018-07-07T11:39:14.000Z</time>
      </trkpt>
      <trkpt lat="44.14528" lon="6.79604">
        <ele>1828</ele>
        <time>2018-07-07T11:39:15.000Z</time>
      </trkpt>
      <trkpt lat="44.14528" lon="6.79594">
        <ele>1828</ele>
        <time>2018-07-07T11:39:16.000Z</time>
      </trkpt>
      <trkpt lat="44.1453" lon="6.79584">
        <ele>1828</ele>
        <time>2018-07-07T11:39:17.000Z</time>
      </trkpt>
      <trkpt lat="44.14533" lon="6.79576">
        <ele>1823</ele>
        <time>2018-07-07T11:39:18.000Z</time>
      </trkpt>
      <trkpt lat="44.14535" lon="6.79566">
        <ele>1822</ele>
        <time>2018-07-07T11:39:19.000Z</time>
      </trkpt>
      <trkpt lat="44.14537" lon="6.79553">
        <ele>1821</ele>
        <time>2018-07-07T11:39:20.000Z</time>
      </trkpt>
      <trkpt lat="44.14539" lon="6.79543">
        <ele>1820</ele>
        <time>2018-07-07T11:39:21.000Z</time>
      </trkpt>
      <trkpt lat="44.14541" lon="6.79532">
        <ele>1820</ele>
        <time>2018-07-07T11:39:22.000Z</time>
      </trkpt>
      <trkpt lat="44.14543" lon="6.79523">
        <ele>1819</ele>
        <time>2018-07-07T11:39:23.000Z</time>
      </trkpt>
      <trkpt lat="44.14546" lon="6.79513">
        <ele>1818</ele>
        <time>2018-07-07T11:39:24.000Z</time>
      </trkpt>
      <trkpt lat="44.14546" lon="6.79501">
        <ele>1818</ele>
        <time>2018-07-07T11:39:25.000Z</time>
      </trkpt>
      <trkpt lat="44.14546" lon="6.79489">
        <ele>1813</ele>
        <time>2018-07-07T11:39:26.000Z</time>
      </trkpt>
      <trkpt lat="44.14547" lon="6.79477">
        <ele>1812</ele>
        <time>2018-07-07T11:39:27.000Z</time>
      </trkpt>
      <trkpt lat="44.14548" lon="6.79468">
        <ele>1811</ele>
        <time>2018-07-07T11:39:28.000Z</time>
      </trkpt>
      <trkpt lat="44.14549" lon="6.79455">
        <ele>1810</ele>
        <time>2018-07-07T11:39:29.000Z</time>
      </trkpt>
      <trkpt lat="44.14551" lon="6.79443">
        <ele>1809</ele>
        <time>2018-07-07T11:39:30.000Z</time>
      </trkpt>
      <trkpt lat="44.14551" lon="6.79419">
        <ele>1807</ele>
        <time>2018-07-07T11:39:32.000Z</time>
      </trkpt>
      <trkpt lat="44.14551" lon="6.79411">
        <ele>1799</ele>
        <time>2018-07-07T11:39:33.000Z</time>
      </trkpt>
      <trkpt lat="44.14551" lon="6.79402">
        <ele>1799</ele>
        <time>2018-07-07T11:39:34.000Z</time>
      </trkpt>
      <trkpt lat="44.1455" lon="6.79395">
        <ele>1799</ele>
        <time>2018-07-07T11:39:35.000Z</time>
      </trkpt>
      <trkpt lat="44.14548" lon="6.7939">
        <ele>1799</ele>
        <time>2018-07-07T11:39:36.000Z</time>
      </trkpt>
      <trkpt lat="44.14542" lon="6.79375">
        <ele>1798</ele>
        <time>2018-07-07T11:39:38.000Z</time>
      </trkpt>
      <trkpt lat="44.14538" lon="6.79364">
        <ele>1798</ele>
        <time>2018-07-07T11:39:39.000Z</time>
      </trkpt>
      <trkpt lat="44.14533" lon="6.79342">
        <ele>1797</ele>
        <time>2018-07-07T11:39:41.000Z</time>
      </trkpt>
      <trkpt lat="44.14533" lon="6.79334">
        <ele>1797</ele>
        <time>2018-07-07T11:39:42.000Z</time>
      </trkpt>
      <trkpt lat="44.14531" lon="6.79322">
        <ele>1790</ele>
        <time>2018-07-07T11:39:44.000Z</time>
      </trkpt>
      <trkpt lat="44.14528" lon="6.7931">
        <ele>1789</ele>
        <time>2018-07-07T11:39:46.000Z</time>
      </trkpt>
      <trkpt lat="44.14524" lon="6.79299">
        <ele>1789</ele>
        <time>2018-07-07T11:39:48.000Z</time>
      </trkpt>
      <trkpt lat="44.14518" lon="6.79283">
        <ele>1789</ele>
        <time>2018-07-07T11:39:50.000Z</time>
      </trkpt>
      <trkpt lat="44.14516" lon="6.79275">
        <ele>1789</ele>
        <time>2018-07-07T11:39:51.000Z</time>
      </trkpt>
      <trkpt lat="44.14515" lon="6.79266">
        <ele>1789</ele>
        <time>2018-07-07T11:39:52.000Z</time>
      </trkpt>
      <trkpt lat="44.14516" lon="6.79257">
        <ele>1789</ele>
        <time>2018-07-07T11:39:53.000Z</time>
      </trkpt>
      <trkpt lat="44.14517" lon="6.79236">
        <ele>1783</ele>
        <time>2018-07-07T11:39:55.000Z</time>
      </trkpt>
      <trkpt lat="44.14518" lon="6.79228">
        <ele>1782</ele>
        <time>2018-07-07T11:39:56.000Z</time>
      </trkpt>
      <trkpt lat="44.14519" lon="6.7922">
        <ele>1780</ele>
        <time>2018-07-07T11:39:57.000Z</time>
      </trkpt>
      <trkpt lat="44.1452" lon="6.79205">
        <ele>1779</ele>
        <time>2018-07-07T11:39:59.000Z</time>
      </trkpt>
      <trkpt lat="44.14521" lon="6.79187">
        <ele>1778</ele>
        <time>2018-07-07T11:40:01.000Z</time>
      </trkpt>
      <trkpt lat="44.14523" lon="6.79172">
        <ele>1778</ele>
        <time>2018-07-07T11:40:03.000Z</time>
      </trkpt>
      <trkpt lat="44.14523" lon="6.79164">
        <ele>1773</ele>
        <time>2018-07-07T11:40:04.000Z</time>
      </trkpt>
      <trkpt lat="44.14522" lon="6.79156">
        <ele>1772</ele>
        <time>2018-07-07T11:40:05.000Z</time>
      </trkpt>
      <trkpt lat="44.1452" lon="6.79138">
        <ele>1770</ele>
        <time>2018-07-07T11:40:07.000Z</time>
      </trkpt>
      <trkpt lat="44.14517" lon="6.79119">
        <ele>1769</ele>
        <time>2018-07-07T11:40:09.000Z</time>
      </trkpt>
      <trkpt lat="44.14517" lon="6.79102">
        <ele>1769</ele>
        <time>2018-07-07T11:40:11.000Z</time>
      </trkpt>
      <trkpt lat="44.14515" lon="6.79092">
        <ele>1770</ele>
        <time>2018-07-07T11:40:12.000Z</time>
      </trkpt>
      <trkpt lat="44.14514" lon="6.79081">
        <ele>1766</ele>
        <time>2018-07-07T11:40:13.000Z</time>
      </trkpt>
      <trkpt lat="44.14512" lon="6.7907">
        <ele>1764</ele>
        <time>2018-07-07T11:40:14.000Z</time>
      </trkpt>
      <trkpt lat="44.14511" lon="6.79058">
        <ele>1761</ele>
        <time>2018-07-07T11:40:15.000Z</time>
      </trkpt>
      <trkpt lat="44.14509" lon="6.79046">
        <ele>1759</ele>
        <time>2018-07-07T11:40:16.000Z</time>
      </trkpt>
      <trkpt lat="44.14508" lon="6.79036">
        <ele>1758</ele>
        <time>2018-07-07T11:40:17.000Z</time>
      </trkpt>
      <trkpt lat="44.14507" lon="6.79025">
        <ele>1758</ele>
        <time>2018-07-07T11:40:18.000Z</time>
      </trkpt>
      <trkpt lat="44.14505" lon="6.79008">
        <ele>1758</ele>
        <time>2018-07-07T11:40:20.000Z</time>
      </trkpt>
      <trkpt lat="44.14505" lon="6.78999">
        <ele>1756</ele>
        <time>2018-07-07T11:40:21.000Z</time>
      </trkpt>
      <trkpt lat="44.14505" lon="6.7899">
        <ele>1753</ele>
        <time>2018-07-07T11:40:22.000Z</time>
      </trkpt>
      <trkpt lat="44.14506" lon="6.78976">
        <ele>1747</ele>
        <time>2018-07-07T11:40:24.000Z</time>
      </trkpt>
      <trkpt lat="44.14506" lon="6.78968">
        <ele>1745</ele>
        <time>2018-07-07T11:40:25.000Z</time>
      </trkpt>
      <trkpt lat="44.14504" lon="6.78961">
        <ele>1744</ele>
        <time>2018-07-07T11:40:26.000Z</time>
      </trkpt>
      <trkpt lat="44.14502" lon="6.78953">
        <ele>1743</ele>
        <time>2018-07-07T11:40:27.000Z</time>
      </trkpt>
      <trkpt lat="44.14499" lon="6.78939">
        <ele>1752</ele>
        <time>2018-07-07T11:40:29.000Z</time>
      </trkpt>
      <trkpt lat="44.14497" lon="6.78934">
        <ele>1751</ele>
        <time>2018-07-07T11:40:30.000Z</time>
      </trkpt>
      <trkpt lat="44.14493" lon="6.78929">
        <ele>1750</ele>
        <time>2018-07-07T11:40:31.000Z</time>
      </trkpt>
      <trkpt lat="44.14489" lon="6.78925">
        <ele>1749</ele>
        <time>2018-07-07T11:40:32.000Z</time>
      </trkpt>
      <trkpt lat="44.1448" lon="6.78913">
        <ele>1743</ele>
        <time>2018-07-07T11:40:34.000Z</time>
      </trkpt>
      <trkpt lat="44.14477" lon="6.78908">
        <ele>1744</ele>
        <time>2018-07-07T11:40:35.000Z</time>
      </trkpt>
      <trkpt lat="44.14474" lon="6.78902">
        <ele>1744</ele>
        <time>2018-07-07T11:40:36.000Z</time>
      </trkpt>
      <trkpt lat="44.14469" lon="6.78885">
        <ele>1743</ele>
        <time>2018-07-07T11:40:38.000Z</time>
      </trkpt>
      <trkpt lat="44.14467" lon="6.78876">
        <ele>1743</ele>
        <time>2018-07-07T11:40:39.000Z</time>
      </trkpt>
      <trkpt lat="44.14466" lon="6.78867">
        <ele>1742</ele>
        <time>2018-07-07T11:40:40.000Z</time>
      </trkpt>
      <trkpt lat="44.14464" lon="6.78859">
        <ele>1742</ele>
        <time>2018-07-07T11:40:41.000Z</time>
      </trkpt>
      <trkpt lat="44.14461" lon="6.78852">
        <ele>1741</ele>
        <time>2018-07-07T11:40:42.000Z</time>
      </trkpt>
      <trkpt lat="44.14457" lon="6.78845">
        <ele>1741</ele>
        <time>2018-07-07T11:40:43.000Z</time>
      </trkpt>
      <trkpt lat="44.1445" lon="6.78829">
        <ele>1733</ele>
        <time>2018-07-07T11:40:45.000Z</time>
      </trkpt>
      <trkpt lat="44.14444" lon="6.78813">
        <ele>1732</ele>
        <time>2018-07-07T11:40:47.000Z</time>
      </trkpt>
      <trkpt lat="44.14442" lon="6.78803">
        <ele>1732</ele>
        <time>2018-07-07T11:40:48.000Z</time>
      </trkpt>
      <trkpt lat="44.14441" lon="6.78792">
        <ele>1730</ele>
        <time>2018-07-07T11:40:49.000Z</time>
      </trkpt>
      <trkpt lat="44.1444" lon="6.78781">
        <ele>1729</ele>
        <time>2018-07-07T11:40:50.000Z</time>
      </trkpt>
      <trkpt lat="44.14438" lon="6.78772">
        <ele>1729</ele>
        <time>2018-07-07T11:40:51.000Z</time>
      </trkpt>
      <trkpt lat="44.14437" lon="6.78763">
        <ele>1728</ele>
        <time>2018-07-07T11:40:52.000Z</time>
      </trkpt>
      <trkpt lat="44.14437" lon="6.78756">
        <ele>1728</ele>
        <time>2018-07-07T11:40:53.000Z</time>
      </trkpt>
      <trkpt lat="44.14442" lon="6.78742">
        <ele>1721</ele>
        <time>2018-07-07T11:40:55.000Z</time>
      </trkpt>
      <trkpt lat="44.14445" lon="6.78735">
        <ele>1720</ele>
        <time>2018-07-07T11:40:56.000Z</time>
      </trkpt>
      <trkpt lat="44.14445" lon="6.78726">
        <ele>1719</ele>
        <time>2018-07-07T11:40:58.000Z</time>
      </trkpt>
      <trkpt lat="44.1444" lon="6.78719">
        <ele>1719</ele>
        <time>2018-07-07T11:40:59.000Z</time>
      </trkpt>
      <trkpt lat="44.14436" lon="6.78712">
        <ele>1718</ele>
        <time>2018-07-07T11:41:00.000Z</time>
      </trkpt>
      <trkpt lat="44.14432" lon="6.78703">
        <ele>1718</ele>
        <time>2018-07-07T11:41:01.000Z</time>
      </trkpt>
      <trkpt lat="44.1443" lon="6.78693">
        <ele>1717</ele>
        <time>2018-07-07T11:41:02.000Z</time>
      </trkpt>
      <trkpt lat="44.1443" lon="6.78686">
        <ele>1717</ele>
        <time>2018-07-07T11:41:03.000Z</time>
      </trkpt>
      <trkpt lat="44.1443" lon="6.78677">
        <ele>1717</ele>
        <time>2018-07-07T11:41:04.000Z</time>
      </trkpt>
      <trkpt lat="44.1443" lon="6.78667">
        <ele>1717</ele>
        <time>2018-07-07T11:41:05.000Z</time>
      </trkpt>
      <trkpt lat="44.1443" lon="6.78658">
        <ele>1710</ele>
        <time>2018-07-07T11:41:06.000Z</time>
      </trkpt>
      <trkpt lat="44.1443" lon="6.78639">
        <ele>1706</ele>
        <time>2018-07-07T11:41:08.000Z</time>
      </trkpt>
      <trkpt lat="44.1443" lon="6.7863">
        <ele>1705</ele>
        <time>2018-07-07T11:41:09.000Z</time>
      </trkpt>
      <trkpt lat="44.14429" lon="6.7862">
        <ele>1703</ele>
        <time>2018-07-07T11:41:10.000Z</time>
      </trkpt>
      <trkpt lat="44.1443" lon="6.7861">
        <ele>1702</ele>
        <time>2018-07-07T11:41:11.000Z</time>
      </trkpt>
      <trkpt lat="44.14431" lon="6.78601">
        <ele>1701</ele>
        <time>2018-07-07T11:41:12.000Z</time>
      </trkpt>
      <trkpt lat="44.14434" lon="6.78595">
        <ele>1700</ele>
        <time>2018-07-07T11:41:13.000Z</time>
      </trkpt>
      <trkpt lat="44.14445" lon="6.7859">
        <ele>1700</ele>
        <time>2018-07-07T11:41:15.000Z</time>
      </trkpt>
      <trkpt lat="44.14456" lon="6.78594">
        <ele>1700</ele>
        <time>2018-07-07T11:41:17.000Z</time>
      </trkpt>
      <trkpt lat="44.1446" lon="6.78593">
        <ele>1700</ele>
        <time>2018-07-07T11:41:18.000Z</time>
      </trkpt>
      <trkpt lat="44.14461" lon="6.7859">
        <ele>1700</ele>
        <time>2018-07-07T11:41:19.000Z</time>
      </trkpt>
      <trkpt lat="44.1446" lon="6.78585">
        <ele>1699</ele>
        <time>2018-07-07T11:41:20.000Z</time>
      </trkpt>
      <trkpt lat="44.14457" lon="6.7858">
        <ele>1688</ele>
        <time>2018-07-07T11:41:21.000Z</time>
      </trkpt>
      <trkpt lat="44.14451" lon="6.78567">
        <ele>1687</ele>
        <time>2018-07-07T11:41:23.000Z</time>
      </trkpt>
      <trkpt lat="44.14444" lon="6.78555">
        <ele>1686</ele>
        <time>2018-07-07T11:41:25.000Z</time>
      </trkpt>
      <trkpt lat="44.14441" lon="6.78551">
        <ele>1686</ele>
        <time>2018-07-07T11:41:26.000Z</time>
      </trkpt>
      <trkpt lat="44.14435" lon="6.78546">
        <ele>1685</ele>
        <time>2018-07-07T11:41:27.000Z</time>
      </trkpt>
      <trkpt lat="44.14428" lon="6.7854">
        <ele>1685</ele>
        <time>2018-07-07T11:41:28.000Z</time>
      </trkpt>
      <trkpt lat="44.14422" lon="6.78532">
        <ele>1683</ele>
        <time>2018-07-07T11:41:29.000Z</time>
      </trkpt>
      <trkpt lat="44.14418" lon="6.78525">
        <ele>1682</ele>
        <time>2018-07-07T11:41:30.000Z</time>
      </trkpt>
      <trkpt lat="44.14414" lon="6.78517">
        <ele>1679</ele>
        <time>2018-07-07T11:41:31.000Z</time>
      </trkpt>
      <trkpt lat="44.1441" lon="6.78508">
        <ele>1678</ele>
        <time>2018-07-07T11:41:32.000Z</time>
      </trkpt>
      <trkpt lat="44.14407" lon="6.78502">
        <ele>1677</ele>
        <time>2018-07-07T11:41:33.000Z</time>
      </trkpt>
      <trkpt lat="44.14402" lon="6.78498">
        <ele>1667</ele>
        <time>2018-07-07T11:41:34.000Z</time>
      </trkpt>
      <trkpt lat="44.14393" lon="6.7849">
        <ele>1664</ele>
        <time>2018-07-07T11:41:36.000Z</time>
      </trkpt>
      <trkpt lat="44.1439" lon="6.78487">
        <ele>1662</ele>
        <time>2018-07-07T11:41:37.000Z</time>
      </trkpt>
      <trkpt lat="44.14385" lon="6.78482">
        <ele>1661</ele>
        <time>2018-07-07T11:41:39.000Z</time>
      </trkpt>
      <trkpt lat="44.14381" lon="6.7848">
        <ele>1660</ele>
        <time>2018-07-07T11:41:40.000Z</time>
      </trkpt>
      <trkpt lat="44.14377" lon="6.7848">
        <ele>1660</ele>
        <time>2018-07-07T11:41:41.000Z</time>
      </trkpt>
      <trkpt lat="44.14372" lon="6.78478">
        <ele>1659</ele>
        <time>2018-07-07T11:41:42.000Z</time>
      </trkpt>
      <trkpt lat="44.14368" lon="6.78475">
        <ele>1659</ele>
        <time>2018-07-07T11:41:43.000Z</time>
      </trkpt>
      <trkpt lat="44.14364" lon="6.78472">
        <ele>1658</ele>
        <time>2018-07-07T11:41:44.000Z</time>
      </trkpt>
      <trkpt lat="44.1436" lon="6.78468">
        <ele>1657</ele>
        <time>2018-07-07T11:41:45.000Z</time>
      </trkpt>
      <trkpt lat="44.14357" lon="6.78464">
        <ele>1656</ele>
        <time>2018-07-07T11:41:46.000Z</time>
      </trkpt>
      <trkpt lat="44.14353" lon="6.78461">
        <ele>1655</ele>
        <time>2018-07-07T11:41:47.000Z</time>
      </trkpt>
      <trkpt lat="44.14349" lon="6.78458">
        <ele>1654</ele>
        <time>2018-07-07T11:41:48.000Z</time>
      </trkpt>
      <trkpt lat="44.14344" lon="6.78455">
        <ele>1653</ele>
        <time>2018-07-07T11:41:49.000Z</time>
      </trkpt>
      <trkpt lat="44.14332" lon="6.78452">
        <ele>1644</ele>
        <time>2018-07-07T11:41:51.000Z</time>
      </trkpt>
      <trkpt lat="44.14326" lon="6.78449">
        <ele>1643</ele>
        <time>2018-07-07T11:41:52.000Z</time>
      </trkpt>
      <trkpt lat="44.14322" lon="6.78445">
        <ele>1642</ele>
        <time>2018-07-07T11:41:53.000Z</time>
      </trkpt>
      <trkpt lat="44.14317" lon="6.78441">
        <ele>1641</ele>
        <time>2018-07-07T11:41:54.000Z</time>
      </trkpt>
      <trkpt lat="44.14313" lon="6.78439">
        <ele>1641</ele>
        <time>2018-07-07T11:41:55.000Z</time>
      </trkpt>
      <trkpt lat="44.14309" lon="6.78437">
        <ele>1640</ele>
        <time>2018-07-07T11:41:56.000Z</time>
      </trkpt>
      <trkpt lat="44.14301" lon="6.78434">
        <ele>1640</ele>
        <time>2018-07-07T11:41:58.000Z</time>
      </trkpt>
      <trkpt lat="44.14296" lon="6.78434">
        <ele>1640</ele>
        <time>2018-07-07T11:41:59.000Z</time>
      </trkpt>
      <trkpt lat="44.14291" lon="6.78435">
        <ele>1639</ele>
        <time>2018-07-07T11:42:00.000Z</time>
      </trkpt>
      <trkpt lat="44.1428" lon="6.78439">
        <ele>1638</ele>
        <time>2018-07-07T11:42:02.000Z</time>
      </trkpt>
      <trkpt lat="44.14274" lon="6.7844">
        <ele>1638</ele>
        <time>2018-07-07T11:42:03.000Z</time>
      </trkpt>
      <trkpt lat="44.14268" lon="6.78439">
        <ele>1636</ele>
        <time>2018-07-07T11:42:04.000Z</time>
      </trkpt>
      <trkpt lat="44.14262" lon="6.78437">
        <ele>1635</ele>
        <time>2018-07-07T11:42:05.000Z</time>
      </trkpt>
      <trkpt lat="44.14257" lon="6.78436">
        <ele>1634</ele>
        <time>2018-07-07T11:42:06.000Z</time>
      </trkpt>
      <trkpt lat="44.14252" lon="6.78437">
        <ele>1633</ele>
        <time>2018-07-07T11:42:07.000Z</time>
      </trkpt>
      <trkpt lat="44.14246" lon="6.78438">
        <ele>1626</ele>
        <time>2018-07-07T11:42:08.000Z</time>
      </trkpt>
      <trkpt lat="44.1424" lon="6.78439">
        <ele>1626</ele>
        <time>2018-07-07T11:42:09.000Z</time>
      </trkpt>
      <trkpt lat="44.14234" lon="6.78439">
        <ele>1626</ele>
        <time>2018-07-07T11:42:10.000Z</time>
      </trkpt>
      <trkpt lat="44.14227" lon="6.78438">
        <ele>1626</ele>
        <time>2018-07-07T11:42:11.000Z</time>
      </trkpt>
      <trkpt lat="44.14221" lon="6.78437">
        <ele>1625</ele>
        <time>2018-07-07T11:42:12.000Z</time>
      </trkpt>
      <trkpt lat="44.14212" lon="6.78434">
        <ele>1624</ele>
        <time>2018-07-07T11:42:14.000Z</time>
      </trkpt>
      <trkpt lat="44.14208" lon="6.78432">
        <ele>1623</ele>
        <time>2018-07-07T11:42:15.000Z</time>
      </trkpt>
      <trkpt lat="44.14204" lon="6.78431">
        <ele>1623</ele>
        <time>2018-07-07T11:42:16.000Z</time>
      </trkpt>
      <trkpt lat="44.142" lon="6.78431">
        <ele>1622</ele>
        <time>2018-07-07T11:42:17.000Z</time>
      </trkpt>
      <trkpt lat="44.14197" lon="6.78431">
        <ele>1621</ele>
        <time>2018-07-07T11:42:18.000Z</time>
      </trkpt>
      <trkpt lat="44.14194" lon="6.78433">
        <ele>1621</ele>
        <time>2018-07-07T11:42:19.000Z</time>
      </trkpt>
      <trkpt lat="44.1419" lon="6.78435">
        <ele>1621</ele>
        <time>2018-07-07T11:42:20.000Z</time>
      </trkpt>
      <trkpt lat="44.14182" lon="6.78439">
        <ele>1620</ele>
        <time>2018-07-07T11:42:22.000Z</time>
      </trkpt>
      <trkpt lat="44.14174" lon="6.78443">
        <ele>1620</ele>
        <time>2018-07-07T11:42:24.000Z</time>
      </trkpt>
      <trkpt lat="44.1417" lon="6.78445">
        <ele>1620</ele>
        <time>2018-07-07T11:42:25.000Z</time>
      </trkpt>
      <trkpt lat="44.14165" lon="6.78447">
        <ele>1612</ele>
        <time>2018-07-07T11:42:26.000Z</time>
      </trkpt>
      <trkpt lat="44.14161" lon="6.78449">
        <ele>1612</ele>
        <time>2018-07-07T11:42:27.000Z</time>
      </trkpt>
      <trkpt lat="44.14157" lon="6.7845">
        <ele>1612</ele>
        <time>2018-07-07T11:42:28.000Z</time>
      </trkpt>
      <trkpt lat="44.14152" lon="6.78451">
        <ele>1612</ele>
        <time>2018-07-07T11:42:29.000Z</time>
      </trkpt>
      <trkpt lat="44.14147" lon="6.78451">
        <ele>1612</ele>
        <time>2018-07-07T11:42:30.000Z</time>
      </trkpt>
      <trkpt lat="44.14142" lon="6.78451">
        <ele>1612</ele>
        <time>2018-07-07T11:42:31.000Z</time>
      </trkpt>
      <trkpt lat="44.14136" lon="6.78449">
        <ele>1611</ele>
        <time>2018-07-07T11:42:33.000Z</time>
      </trkpt>
      <trkpt lat="44.14132" lon="6.78449">
        <ele>1611</ele>
        <time>2018-07-07T11:42:34.000Z</time>
      </trkpt>
      <trkpt lat="44.14128" lon="6.7845">
        <ele>1610</ele>
        <time>2018-07-07T11:42:35.000Z</time>
      </trkpt>
      <trkpt lat="44.14123" lon="6.7845">
        <ele>1610</ele>
        <time>2018-07-07T11:42:36.000Z</time>
      </trkpt>
      <trkpt lat="44.14113" lon="6.78451">
        <ele>1609</ele>
        <time>2018-07-07T11:42:38.000Z</time>
      </trkpt>
      <trkpt lat="44.14102" lon="6.78453">
        <ele>1609</ele>
        <time>2018-07-07T11:42:40.000Z</time>
      </trkpt>
      <trkpt lat="44.14097" lon="6.78454">
        <ele>1608</ele>
        <time>2018-07-07T11:42:41.000Z</time>
      </trkpt>
      <trkpt lat="44.14092" lon="6.78454">
        <ele>1608</ele>
        <time>2018-07-07T11:42:42.000Z</time>
      </trkpt>
      <trkpt lat="44.1408" lon="6.78455">
        <ele>1602</ele>
        <time>2018-07-07T11:42:44.000Z</time>
      </trkpt>
      <trkpt lat="44.1407" lon="6.78456">
        <ele>1602</ele>
        <time>2018-07-07T11:42:46.000Z</time>
      </trkpt>
      <trkpt lat="44.14064" lon="6.78456">
        <ele>1602</ele>
        <time>2018-07-07T11:42:47.000Z</time>
      </trkpt>
      <trkpt lat="44.1406" lon="6.78454">
        <ele>1602</ele>
        <time>2018-07-07T11:42:48.000Z</time>
      </trkpt>
      <trkpt lat="44.14055" lon="6.78453">
        <ele>1601</ele>
        <time>2018-07-07T11:42:49.000Z</time>
      </trkpt>
      <trkpt lat="44.14047" lon="6.78454">
        <ele>1601</ele>
        <time>2018-07-07T11:42:51.000Z</time>
      </trkpt>
      <trkpt lat="44.14042" lon="6.78453">
        <ele>1601</ele>
        <time>2018-07-07T11:42:52.000Z</time>
      </trkpt>
      <trkpt lat="44.14024" lon="6.78454">
        <ele>1601</ele>
        <time>2018-07-07T11:42:57.000Z</time>
      </trkpt>
      <trkpt lat="44.14" lon="6.78454">
        <ele>1596</ele>
        <time>2018-07-07T11:43:05.000Z</time>
      </trkpt>
      <trkpt lat="44.13995" lon="6.78453">
        <ele>1596</ele>
        <time>2018-07-07T11:43:08.000Z</time>
      </trkpt>
      <trkpt lat="44.13993" lon="6.78447">
        <ele>1595</ele>
        <time>2018-07-07T11:43:10.000Z</time>
      </trkpt>
      <trkpt lat="44.13996" lon="6.78431">
        <ele>1592</ele>
        <time>2018-07-07T11:43:13.000Z</time>
      </trkpt>
      <trkpt lat="44.13997" lon="6.78426">
        <ele>1590</ele>
        <time>2018-07-07T11:43:14.000Z</time>
      </trkpt>
      <trkpt lat="44.13999" lon="6.78413">
        <ele>1586</ele>
        <time>2018-07-07T11:43:16.000Z</time>
      </trkpt>
      <trkpt lat="44.14" lon="6.78408">
        <ele>1585</ele>
        <time>2018-07-07T11:43:17.000Z</time>
      </trkpt>
      <trkpt lat="44.14004" lon="6.78405">
        <ele>1584</ele>
        <time>2018-07-07T11:43:18.000Z</time>
      </trkpt>
      <trkpt lat="44.14007" lon="6.78404">
        <ele>1583</ele>
        <time>2018-07-07T11:43:19.000Z</time>
      </trkpt>
      <trkpt lat="44.14011" lon="6.78404">
        <ele>1583</ele>
        <time>2018-07-07T11:43:20.000Z</time>
      </trkpt>
      <trkpt lat="44.14014" lon="6.78402">
        <ele>1582</ele>
        <time>2018-07-07T11:43:22.000Z</time>
      </trkpt>
      <trkpt lat="44.14014" lon="6.78403">
        <ele>1582</ele>
        <time>2018-07-07T11:43:23.000Z</time>
      </trkpt>
      <trkpt lat="44.14014" lon="6.78403">
        <ele>1583</ele>
        <time>2018-07-07T11:43:25.000Z</time>
      </trkpt>
      <trkpt lat="44.14015" lon="6.78404">
        <ele>1583</ele>
        <time>2018-07-07T11:43:30.000Z</time>
      </trkpt>
      <trkpt lat="44.14015" lon="6.78404">
        <ele>1583</ele>
        <time>2018-07-07T11:43:36.000Z</time>
      </trkpt>
      <trkpt lat="44.14016" lon="6.78405">
        <ele>1583</ele>
        <time>2018-07-07T11:43:55.000Z</time>
      </trkpt>
      <trkpt lat="44.14017" lon="6.78404">
        <ele>1582</ele>
        <time>2018-07-07T11:44:15.000Z</time>
      </trkpt>
      <trkpt lat="44.14018" lon="6.78404">
        <ele>1582</ele>
        <time>2018-07-07T11:44:21.000Z</time>
      </trkpt>
      <trkpt lat="44.14018" lon="6.78404">
        <ele>1582</ele>
        <time>2018-07-07T11:44:31.000Z</time>
      </trkpt>
      <trkpt lat="44.14019" lon="6.78405">
        <ele>1582</ele>
        <time>2018-07-07T11:44:40.000Z</time>
      </trkpt>
      <trkpt lat="44.14018" lon="6.78405">
        <ele>1582</ele>
        <time>2018-07-07T11:44:51.000Z</time>
      </trkpt>
      <trkpt lat="44.14017" lon="6.78406">
        <ele>1583</ele>
        <time>2018-07-07T11:44:57.000Z</time>
      </trkpt>
      <trkpt lat="44.14017" lon="6.78406">
        <ele>1583</ele>
        <time>2018-07-07T11:45:04.000Z</time>
      </trkpt>
      <trkpt lat="44.14018" lon="6.78406">
        <ele>1583</ele>
        <time>2018-07-07T11:45:12.000Z</time>
      </trkpt>
      <trkpt lat="44.14018" lon="6.78406">
        <ele>1583</ele>
        <time>2018-07-07T11:45:21.000Z</time>
      </trkpt>
      <trkpt lat="44.14018" lon="6.78406">
        <ele>1583</ele>
        <time>2018-07-07T11:45:29.000Z</time>
      </trkpt>
      <trkpt lat="44.14018" lon="6.78407">
        <ele>1583</ele>
        <time>2018-07-07T11:45:40.000Z</time>
      </trkpt>
      <trkpt lat="44.14018" lon="6.78408">
        <ele>1583</ele>
        <time>2018-07-07T11:45:51.000Z</time>
      </trkpt>
      <trkpt lat="44.14018" lon="6.78408">
        <ele>1583</ele>
        <time>2018-07-07T11:46:02.000Z</time>
      </trkpt>
      <trkpt lat="44.14018" lon="6.78408">
        <ele>1583</ele>
        <time>2018-07-07T11:46:11.000Z</time>
      </trkpt>
      <trkpt lat="44.14018" lon="6.78408">
        <ele>1583</ele>
        <time>2018-07-07T11:46:22.000Z</time>
      </trkpt>
      <trkpt lat="44.14019" lon="6.78409">
        <ele>1583</ele>
        <time>2018-07-07T11:46:32.000Z</time>
      </trkpt>
      <trkpt lat="44.14019" lon="6.78407">
        <ele>1583</ele>
        <time>2018-07-07T11:46:39.000Z</time>
      </trkpt>
      <trkpt lat="44.14018" lon="6.78406">
        <ele>1583</ele>
        <time>2018-07-07T11:46:47.000Z</time>
      </trkpt>
      <trkpt lat="44.14018" lon="6.78406">
        <ele>1583</ele>
        <time>2018-07-07T11:46:58.000Z</time>
      </trkpt>
      <trkpt lat="44.14018" lon="6.78406">
        <ele>1583</ele>
        <time>2018-07-07T11:47:09.000Z</time>
      </trkpt>
      <trkpt lat="44.14018" lon="6.78406">
        <ele>1582</ele>
        <time>2018-07-07T11:47:10.000Z</time>
      </trkpt>
      <trkpt lat="44.1402" lon="6.78406">
        <ele>1582</ele>
        <time>2018-07-07T11:47:23.000Z</time>
      </trkpt>
      <trkpt lat="44.14019" lon="6.78406">
        <ele>1582</ele>
        <time>2018-07-07T11:47:32.000Z</time>
      </trkpt>
      <trkpt lat="44.14018" lon="6.78405">
        <ele>1582</ele>
        <time>2018-07-07T11:47:45.000Z</time>
      </trkpt>
      <trkpt lat="44.14017" lon="6.78405">
        <ele>1583</ele>
        <time>2018-07-07T11:48:00.000Z</time>
      </trkpt>
      <trkpt lat="44.14016" lon="6.78405">
        <ele>1583</ele>
        <time>2018-07-07T11:48:11.000Z</time>
      </trkpt>
      <trkpt lat="44.14017" lon="6.78406">
        <ele>1583</ele>
        <time>2018-07-07T11:48:18.000Z</time>
      </trkpt>
      <trkpt lat="44.14018" lon="6.78407">
        <ele>1583</ele>
        <time>2018-07-07T11:48:22.000Z</time>
      </trkpt>
      <trkpt lat="44.1402" lon="6.78407">
        <ele>1582</ele>
        <time>2018-07-07T11:48:24.000Z</time>
      </trkpt>
      <trkpt lat="44.1402" lon="6.78407">
        <ele>1583</ele>
        <time>2018-07-07T11:48:25.000Z</time>
      </trkpt>
      <trkpt lat="44.14022" lon="6.78407">
        <ele>1582</ele>
        <time>2018-07-07T11:48:33.000Z</time>
      </trkpt>
      <trkpt lat="44.14022" lon="6.78407">
        <ele>1582</ele>
        <time>2018-07-07T11:48:40.000Z</time>
      </trkpt>
      <trkpt lat="44.14028" lon="6.78407">
        <ele>1582</ele>
        <time>2018-07-07T11:48:44.000Z</time>
      </trkpt>
      <trkpt lat="44.14037" lon="6.78399">
        <ele>1581</ele>
        <time>2018-07-07T11:48:47.000Z</time>
      </trkpt>
      <trkpt lat="44.1404" lon="6.78395">
        <ele>1580</ele>
        <time>2018-07-07T11:48:48.000Z</time>
      </trkpt>
      <trkpt lat="44.14048" lon="6.78381">
        <ele>1579</ele>
        <time>2018-07-07T11:48:50.000Z</time>
      </trkpt>
      <trkpt lat="44.14048" lon="6.7837">
        <ele>1577</ele>
        <time>2018-07-07T11:48:51.000Z</time>
      </trkpt>
      <trkpt lat="44.1405" lon="6.7836">
        <ele>1576</ele>
        <time>2018-07-07T11:48:52.000Z</time>
      </trkpt>
      <trkpt lat="44.14052" lon="6.78353">
        <ele>1575</ele>
        <time>2018-07-07T11:48:53.000Z</time>
      </trkpt>
      <trkpt lat="44.14054" lon="6.78345">
        <ele>1575</ele>
        <time>2018-07-07T11:48:54.000Z</time>
      </trkpt>
      <trkpt lat="44.14055" lon="6.78338">
        <ele>1574</ele>
        <time>2018-07-07T11:48:55.000Z</time>
      </trkpt>
      <trkpt lat="44.14056" lon="6.78332">
        <ele>1560</ele>
        <time>2018-07-07T11:48:56.000Z</time>
      </trkpt>
      <trkpt lat="44.14056" lon="6.78328">
        <ele>1560</ele>
        <time>2018-07-07T11:48:57.000Z</time>
      </trkpt>
      <trkpt lat="44.14053" lon="6.78325">
        <ele>1559</ele>
        <time>2018-07-07T11:48:58.000Z</time>
      </trkpt>
      <trkpt lat="44.14048" lon="6.78324">
        <ele>1559</ele>
        <time>2018-07-07T11:48:59.000Z</time>
      </trkpt>
      <trkpt lat="44.14036" lon="6.78325">
        <ele>1558</ele>
        <time>2018-07-07T11:49:01.000Z</time>
      </trkpt>
      <trkpt lat="44.14029" lon="6.78325">
        <ele>1558</ele>
        <time>2018-07-07T11:49:02.000Z</time>
      </trkpt>
      <trkpt lat="44.14024" lon="6.78325">
        <ele>1559</ele>
        <time>2018-07-07T11:49:03.000Z</time>
      </trkpt>
      <trkpt lat="44.14014" lon="6.78324">
        <ele>1560</ele>
        <time>2018-07-07T11:49:05.000Z</time>
      </trkpt>
      <trkpt lat="44.14007" lon="6.7832">
        <ele>1560</ele>
        <time>2018-07-07T11:49:07.000Z</time>
      </trkpt>
      <trkpt lat="44.14008" lon="6.78317">
        <ele>1559</ele>
        <time>2018-07-07T11:49:08.000Z</time>
      </trkpt>
      <trkpt lat="44.14013" lon="6.78308">
        <ele>1557</ele>
        <time>2018-07-07T11:49:10.000Z</time>
      </trkpt>
      <trkpt lat="44.14017" lon="6.78301">
        <ele>1555</ele>
        <time>2018-07-07T11:49:11.000Z</time>
      </trkpt>
      <trkpt lat="44.14021" lon="6.78294">
        <ele>1554</ele>
        <time>2018-07-07T11:49:12.000Z</time>
      </trkpt>
      <trkpt lat="44.14025" lon="6.78288">
        <ele>1553</ele>
        <time>2018-07-07T11:49:13.000Z</time>
      </trkpt>
      <trkpt lat="44.14029" lon="6.78282">
        <ele>1552</ele>
        <time>2018-07-07T11:49:14.000Z</time>
      </trkpt>
      <trkpt lat="44.14032" lon="6.78277">
        <ele>1551</ele>
        <time>2018-07-07T11:49:15.000Z</time>
      </trkpt>
      <trkpt lat="44.14035" lon="6.78273">
        <ele>1551</ele>
        <time>2018-07-07T11:49:16.000Z</time>
      </trkpt>
      <trkpt lat="44.14037" lon="6.7827">
        <ele>1550</ele>
        <time>2018-07-07T11:49:17.000Z</time>
      </trkpt>
      <trkpt lat="44.14036" lon="6.78267">
        <ele>1550</ele>
        <time>2018-07-07T11:49:18.000Z</time>
      </trkpt>
      <trkpt lat="44.14032" lon="6.78267">
        <ele>1550</ele>
        <time>2018-07-07T11:49:19.000Z</time>
      </trkpt>
      <trkpt lat="44.14026" lon="6.78268">
        <ele>1549</ele>
        <time>2018-07-07T11:49:20.000Z</time>
      </trkpt>
      <trkpt lat="44.1402" lon="6.78269">
        <ele>1548</ele>
        <time>2018-07-07T11:49:21.000Z</time>
      </trkpt>
      <trkpt lat="44.14006" lon="6.78263">
        <ele>1545</ele>
        <time>2018-07-07T11:49:23.000Z</time>
      </trkpt>
      <trkpt lat="44.14" lon="6.7826">
        <ele>1543</ele>
        <time>2018-07-07T11:49:24.000Z</time>
      </trkpt>
      <trkpt lat="44.13995" lon="6.78257">
        <ele>1540</ele>
        <time>2018-07-07T11:49:25.000Z</time>
      </trkpt>
      <trkpt lat="44.1399" lon="6.78256">
        <ele>1540</ele>
        <time>2018-07-07T11:49:26.000Z</time>
      </trkpt>
      <trkpt lat="44.13979" lon="6.78252">
        <ele>1541</ele>
        <time>2018-07-07T11:49:28.000Z</time>
      </trkpt>
      <trkpt lat="44.13974" lon="6.78249">
        <ele>1528</ele>
        <time>2018-07-07T11:49:29.000Z</time>
      </trkpt>
      <trkpt lat="44.1397" lon="6.78248">
        <ele>1528</ele>
        <time>2018-07-07T11:49:30.000Z</time>
      </trkpt>
      <trkpt lat="44.13967" lon="6.78248">
        <ele>1527</ele>
        <time>2018-07-07T11:49:31.000Z</time>
      </trkpt>
      <trkpt lat="44.13966" lon="6.78248">
        <ele>1527</ele>
        <time>2018-07-07T11:49:32.000Z</time>
      </trkpt>
      <trkpt lat="44.13966" lon="6.78248">
        <ele>1527</ele>
        <time>2018-07-07T11:49:33.000Z</time>
      </trkpt>
      <trkpt lat="44.13965" lon="6.78248">
        <ele>1527</ele>
        <time>2018-07-07T11:49:35.000Z</time>
      </trkpt>
      <trkpt lat="44.13965" lon="6.78248">
        <ele>1527</ele>
        <time>2018-07-07T11:49:36.000Z</time>
      </trkpt>
      <trkpt lat="44.13965" lon="6.78248">
        <ele>1527</ele>
        <time>2018-07-07T11:49:37.000Z</time>
      </trkpt>
      <trkpt lat="44.13962" lon="6.78241">
        <ele>1526</ele>
        <time>2018-07-07T11:49:44.000Z</time>
      </trkpt>
      <trkpt lat="44.13962" lon="6.78239">
        <ele>1526</ele>
        <time>2018-07-07T11:49:45.000Z</time>
      </trkpt>
      <trkpt lat="44.13962" lon="6.78236">
        <ele>1526</ele>
        <time>2018-07-07T11:49:46.000Z</time>
      </trkpt>
      <trkpt lat="44.13959" lon="6.78233">
        <ele>1526</ele>
        <time>2018-07-07T11:49:48.000Z</time>
      </trkpt>
      <trkpt lat="44.13956" lon="6.78233">
        <ele>1525</ele>
        <time>2018-07-07T11:49:49.000Z</time>
      </trkpt>
      <trkpt lat="44.13951" lon="6.78228">
        <ele>1525</ele>
        <time>2018-07-07T11:49:51.000Z</time>
      </trkpt>
      <trkpt lat="44.13944" lon="6.78226">
        <ele>1524</ele>
        <time>2018-07-07T11:49:53.000Z</time>
      </trkpt>
      <trkpt lat="44.13941" lon="6.78226">
        <ele>1524</ele>
        <time>2018-07-07T11:49:54.000Z</time>
      </trkpt>
      <trkpt lat="44.13938" lon="6.78228">
        <ele>1525</ele>
        <time>2018-07-07T11:49:56.000Z</time>
      </trkpt>
      <trkpt lat="44.13935" lon="6.78228">
        <ele>1525</ele>
        <time>2018-07-07T11:49:57.000Z</time>
      </trkpt>
      <trkpt lat="44.13931" lon="6.78228">
        <ele>1525</ele>
        <time>2018-07-07T11:49:58.000Z</time>
      </trkpt>
      <trkpt lat="44.13922" lon="6.78232">
        <ele>1525</ele>
        <time>2018-07-07T11:50:01.000Z</time>
      </trkpt>
      <trkpt lat="44.13919" lon="6.78234">
        <ele>1525</ele>
        <time>2018-07-07T11:50:02.000Z</time>
      </trkpt>
      <trkpt lat="44.1391" lon="6.78233">
        <ele>1520</ele>
        <time>2018-07-07T11:50:04.000Z</time>
      </trkpt>
      <trkpt lat="44.13905" lon="6.78232">
        <ele>1519</ele>
        <time>2018-07-07T11:50:05.000Z</time>
      </trkpt>
      <trkpt lat="44.13894" lon="6.7823">
        <ele>1516</ele>
        <time>2018-07-07T11:50:07.000Z</time>
      </trkpt>
      <trkpt lat="44.13888" lon="6.78229">
        <ele>1516</ele>
        <time>2018-07-07T11:50:08.000Z</time>
      </trkpt>
      <trkpt lat="44.13882" lon="6.7823">
        <ele>1515</ele>
        <time>2018-07-07T11:50:09.000Z</time>
      </trkpt>
      <trkpt lat="44.13876" lon="6.7823">
        <ele>1514</ele>
        <time>2018-07-07T11:50:10.000Z</time>
      </trkpt>
      <trkpt lat="44.1387" lon="6.7823">
        <ele>1513</ele>
        <time>2018-07-07T11:50:11.000Z</time>
      </trkpt>
      <trkpt lat="44.1385" lon="6.78235">
        <ele>1512</ele>
        <time>2018-07-07T11:50:15.000Z</time>
      </trkpt>
      <trkpt lat="44.13846" lon="6.78237">
        <ele>1512</ele>
        <time>2018-07-07T11:50:16.000Z</time>
      </trkpt>
      <trkpt lat="44.13832" lon="6.78243">
        <ele>1505</ele>
        <time>2018-07-07T11:50:20.000Z</time>
      </trkpt>
      <trkpt lat="44.13829" lon="6.78245">
        <ele>1506</ele>
        <time>2018-07-07T11:50:21.000Z</time>
      </trkpt>
      <trkpt lat="44.13824" lon="6.78249">
        <ele>1504</ele>
        <time>2018-07-07T11:50:23.000Z</time>
      </trkpt>
      <trkpt lat="44.13818" lon="6.78255">
        <ele>1509</ele>
        <time>2018-07-07T11:50:25.000Z</time>
      </trkpt>
      <trkpt lat="44.13813" lon="6.78243">
        <ele>1498</ele>
        <time>2018-07-07T11:50:28.000Z</time>
      </trkpt>
      <trkpt lat="44.13814" lon="6.78236">
        <ele>1497</ele>
        <time>2018-07-07T11:50:29.000Z</time>
      </trkpt>
      <trkpt lat="44.13819" lon="6.78224">
        <ele>1495</ele>
        <time>2018-07-07T11:50:31.000Z</time>
      </trkpt>
      <trkpt lat="44.13817" lon="6.78213">
        <ele>1493</ele>
        <time>2018-07-07T11:50:33.000Z</time>
      </trkpt>
      <trkpt lat="44.13811" lon="6.78206">
        <ele>1491</ele>
        <time>2018-07-07T11:50:35.000Z</time>
      </trkpt>
      <trkpt lat="44.13809" lon="6.78203">
        <ele>1491</ele>
        <time>2018-07-07T11:50:36.000Z</time>
      </trkpt>
      <trkpt lat="44.13807" lon="6.78202">
        <ele>1490</ele>
        <time>2018-07-07T11:50:37.000Z</time>
      </trkpt>
      <trkpt lat="44.13803" lon="6.78198">
        <ele>1490</ele>
        <time>2018-07-07T11:50:39.000Z</time>
      </trkpt>
      <trkpt lat="44.138" lon="6.78187">
        <ele>1488</ele>
        <time>2018-07-07T11:50:41.000Z</time>
      </trkpt>
      <trkpt lat="44.13798" lon="6.7818">
        <ele>1488</ele>
        <time>2018-07-07T11:50:42.000Z</time>
      </trkpt>
      <trkpt lat="44.13797" lon="6.78173">
        <ele>1487</ele>
        <time>2018-07-07T11:50:43.000Z</time>
      </trkpt>
      <trkpt lat="44.13796" lon="6.78166">
        <ele>1478</ele>
        <time>2018-07-07T11:50:44.000Z</time>
      </trkpt>
      <trkpt lat="44.13796" lon="6.78159">
        <ele>1477</ele>
        <time>2018-07-07T11:50:45.000Z</time>
      </trkpt>
      <trkpt lat="44.13796" lon="6.78152">
        <ele>1477</ele>
        <time>2018-07-07T11:50:46.000Z</time>
      </trkpt>
      <trkpt lat="44.13793" lon="6.78147">
        <ele>1476</ele>
        <time>2018-07-07T11:50:47.000Z</time>
      </trkpt>
      <trkpt lat="44.13792" lon="6.78142">
        <ele>1475</ele>
        <time>2018-07-07T11:50:48.000Z</time>
      </trkpt>
      <trkpt lat="44.13792" lon="6.78136">
        <ele>1475</ele>
        <time>2018-07-07T11:50:49.000Z</time>
      </trkpt>
      <trkpt lat="44.13793" lon="6.78123">
        <ele>1473</ele>
        <time>2018-07-07T11:50:51.000Z</time>
      </trkpt>
      <trkpt lat="44.13793" lon="6.78114">
        <ele>1472</ele>
        <time>2018-07-07T11:50:52.000Z</time>
      </trkpt>
      <trkpt lat="44.13792" lon="6.78106">
        <ele>1472</ele>
        <time>2018-07-07T11:50:53.000Z</time>
      </trkpt>
      <trkpt lat="44.13794" lon="6.7809">
        <ele>1471</ele>
        <time>2018-07-07T11:50:55.000Z</time>
      </trkpt>
      <trkpt lat="44.13794" lon="6.78081">
        <ele>1457</ele>
        <time>2018-07-07T11:50:56.000Z</time>
      </trkpt>
      <trkpt lat="44.13796" lon="6.78075">
        <ele>1458</ele>
        <time>2018-07-07T11:50:57.000Z</time>
      </trkpt>
      <trkpt lat="44.138" lon="6.78071">
        <ele>1458</ele>
        <time>2018-07-07T11:50:58.000Z</time>
      </trkpt>
      <trkpt lat="44.13812" lon="6.78059">
        <ele>1460</ele>
        <time>2018-07-07T11:51:00.000Z</time>
      </trkpt>
      <trkpt lat="44.13824" lon="6.78045">
        <ele>1459</ele>
        <time>2018-07-07T11:51:02.000Z</time>
      </trkpt>
      <trkpt lat="44.13834" lon="6.78031">
        <ele>1473</ele>
        <time>2018-07-07T11:51:04.000Z</time>
      </trkpt>
      <trkpt lat="44.13837" lon="6.78023">
        <ele>1471</ele>
        <time>2018-07-07T11:51:05.000Z</time>
      </trkpt>
      <trkpt lat="44.13841" lon="6.78004">
        <ele>1464</ele>
        <time>2018-07-07T11:51:07.000Z</time>
      </trkpt>
      <trkpt lat="44.13848" lon="6.77972">
        <ele>1455</ele>
        <time>2018-07-07T11:51:10.000Z</time>
      </trkpt>
      <trkpt lat="44.13851" lon="6.77948">
        <ele>1451</ele>
        <time>2018-07-07T11:51:12.000Z</time>
      </trkpt>
      <trkpt lat="44.13853" lon="6.77936">
        <ele>1448</ele>
        <time>2018-07-07T11:51:13.000Z</time>
      </trkpt>
      <trkpt lat="44.13855" lon="6.77926">
        <ele>1447</ele>
        <time>2018-07-07T11:51:14.000Z</time>
      </trkpt>
      <trkpt lat="44.13858" lon="6.77921">
        <ele>1447</ele>
        <time>2018-07-07T11:51:15.000Z</time>
      </trkpt>
      <trkpt lat="44.13859" lon="6.77915">
        <ele>1433</ele>
        <time>2018-07-07T11:51:16.000Z</time>
      </trkpt>
      <trkpt lat="44.13861" lon="6.77906">
        <ele>1433</ele>
        <time>2018-07-07T11:51:17.000Z</time>
      </trkpt>
      <trkpt lat="44.13863" lon="6.77899">
        <ele>1432</ele>
        <time>2018-07-07T11:51:18.000Z</time>
      </trkpt>
      <trkpt lat="44.13865" lon="6.7789">
        <ele>1431</ele>
        <time>2018-07-07T11:51:19.000Z</time>
      </trkpt>
      <trkpt lat="44.13868" lon="6.77882">
        <ele>1430</ele>
        <time>2018-07-07T11:51:20.000Z</time>
      </trkpt>
      <trkpt lat="44.13872" lon="6.77877">
        <ele>1430</ele>
        <time>2018-07-07T11:51:21.000Z</time>
      </trkpt>
      <trkpt lat="44.13879" lon="6.77874">
        <ele>1430</ele>
        <time>2018-07-07T11:51:22.000Z</time>
      </trkpt>
      <trkpt lat="44.13885" lon="6.7787">
        <ele>1430</ele>
        <time>2018-07-07T11:51:23.000Z</time>
      </trkpt>
      <trkpt lat="44.13892" lon="6.77863">
        <ele>1430</ele>
        <time>2018-07-07T11:51:24.000Z</time>
      </trkpt>
      <trkpt lat="44.13899" lon="6.77856">
        <ele>1429</ele>
        <time>2018-07-07T11:51:25.000Z</time>
      </trkpt>
      <trkpt lat="44.13905" lon="6.77848">
        <ele>1428</ele>
        <time>2018-07-07T11:51:26.000Z</time>
      </trkpt>
      <trkpt lat="44.13911" lon="6.77841">
        <ele>1427</ele>
        <time>2018-07-07T11:51:27.000Z</time>
      </trkpt>
      <trkpt lat="44.13917" lon="6.77834">
        <ele>1426</ele>
        <time>2018-07-07T11:51:28.000Z</time>
      </trkpt>
      <trkpt lat="44.13927" lon="6.77824">
        <ele>1419</ele>
        <time>2018-07-07T11:51:30.000Z</time>
      </trkpt>
      <trkpt lat="44.13928" lon="6.77819">
        <ele>1417</ele>
        <time>2018-07-07T11:51:31.000Z</time>
      </trkpt>
      <trkpt lat="44.13927" lon="6.77816">
        <ele>1416</ele>
        <time>2018-07-07T11:51:32.000Z</time>
      </trkpt>
      <trkpt lat="44.13926" lon="6.77814">
        <ele>1416</ele>
        <time>2018-07-07T11:51:33.000Z</time>
      </trkpt>
      <trkpt lat="44.13926" lon="6.77808">
        <ele>1414</ele>
        <time>2018-07-07T11:51:34.000Z</time>
      </trkpt>
      <trkpt lat="44.13926" lon="6.77801">
        <ele>1412</ele>
        <time>2018-07-07T11:51:35.000Z</time>
      </trkpt>
      <trkpt lat="44.13927" lon="6.77794">
        <ele>1410</ele>
        <time>2018-07-07T11:51:36.000Z</time>
      </trkpt>
      <trkpt lat="44.1393" lon="6.77786">
        <ele>1408</ele>
        <time>2018-07-07T11:51:37.000Z</time>
      </trkpt>
      <trkpt lat="44.13934" lon="6.77779">
        <ele>1406</ele>
        <time>2018-07-07T11:51:38.000Z</time>
      </trkpt>
      <trkpt lat="44.13937" lon="6.77772">
        <ele>1405</ele>
        <time>2018-07-07T11:51:39.000Z</time>
      </trkpt>
      <trkpt lat="44.13938" lon="6.77766">
        <ele>1404</ele>
        <time>2018-07-07T11:51:40.000Z</time>
      </trkpt>
      <trkpt lat="44.13939" lon="6.7776">
        <ele>1403</ele>
        <time>2018-07-07T11:51:41.000Z</time>
      </trkpt>
      <trkpt lat="44.1394" lon="6.77755">
        <ele>1402</ele>
        <time>2018-07-07T11:51:42.000Z</time>
      </trkpt>
      <trkpt lat="44.13938" lon="6.77752">
        <ele>1401</ele>
        <time>2018-07-07T11:51:43.000Z</time>
      </trkpt>
      <trkpt lat="44.13936" lon="6.77749">
        <ele>1386</ele>
        <time>2018-07-07T11:51:44.000Z</time>
      </trkpt>
      <trkpt lat="44.13932" lon="6.77746">
        <ele>1386</ele>
        <time>2018-07-07T11:51:45.000Z</time>
      </trkpt>
      <trkpt lat="44.1393" lon="6.77745">
        <ele>1387</ele>
        <time>2018-07-07T11:51:46.000Z</time>
      </trkpt>
      <trkpt lat="44.13928" lon="6.77744">
        <ele>1387</ele>
        <time>2018-07-07T11:51:47.000Z</time>
      </trkpt>
      <trkpt lat="44.13925" lon="6.77744">
        <ele>1387</ele>
        <time>2018-07-07T11:51:48.000Z</time>
      </trkpt>
      <trkpt lat="44.13921" lon="6.77745">
        <ele>1388</ele>
        <time>2018-07-07T11:51:49.000Z</time>
      </trkpt>
      <trkpt lat="44.13918" lon="6.77746">
        <ele>1389</ele>
        <time>2018-07-07T11:51:50.000Z</time>
      </trkpt>
      <trkpt lat="44.13916" lon="6.77747">
        <ele>1388</ele>
        <time>2018-07-07T11:51:51.000Z</time>
      </trkpt>
      <trkpt lat="44.13917" lon="6.77747">
        <ele>1390</ele>
        <time>2018-07-07T11:51:52.000Z</time>
      </trkpt>
      <trkpt lat="44.13916" lon="6.77747">
        <ele>1388</ele>
        <time>2018-07-07T11:51:53.000Z</time>
      </trkpt>
      <trkpt lat="44.13916" lon="6.77748">
        <ele>1388</ele>
        <time>2018-07-07T11:51:54.000Z</time>
      </trkpt>
      <trkpt lat="44.13917" lon="6.77748">
        <ele>1389</ele>
        <time>2018-07-07T11:51:56.000Z</time>
      </trkpt>
      <trkpt lat="44.13917" lon="6.77749">
        <ele>1391</ele>
        <time>2018-07-07T11:51:58.000Z</time>
      </trkpt>
      <trkpt lat="44.13917" lon="6.7775">
        <ele>1391</ele>
        <time>2018-07-07T11:52:00.000Z</time>
      </trkpt>
      <trkpt lat="44.13917" lon="6.7775">
        <ele>1391</ele>
        <time>2018-07-07T11:52:01.000Z</time>
      </trkpt>
      <trkpt lat="44.13918" lon="6.77751">
        <ele>1392</ele>
        <time>2018-07-07T11:52:07.000Z</time>
      </trkpt>
      <trkpt lat="44.13918" lon="6.77751">
        <ele>1392</ele>
        <time>2018-07-07T11:52:09.000Z</time>
      </trkpt>
      <trkpt lat="44.13919" lon="6.77753">
        <ele>1394</ele>
        <time>2018-07-07T11:52:16.000Z</time>
      </trkpt>
      <trkpt lat="44.1392" lon="6.77753">
        <ele>1394</ele>
        <time>2018-07-07T11:52:23.000Z</time>
      </trkpt>
      <trkpt lat="44.1392" lon="6.77753">
        <ele>1394</ele>
        <time>2018-07-07T11:52:27.000Z</time>
      </trkpt>
      <trkpt lat="44.1392" lon="6.77753">
        <ele>1394</ele>
        <time>2018-07-07T11:52:32.000Z</time>
      </trkpt>
      <trkpt lat="44.13921" lon="6.77753">
        <ele>1395</ele>
        <time>2018-07-07T11:52:38.000Z</time>
      </trkpt>
      <trkpt lat="44.13921" lon="6.77754">
        <ele>1395</ele>
        <time>2018-07-07T11:52:45.000Z</time>
      </trkpt>
      <trkpt lat="44.13921" lon="6.77754">
        <ele>1395</ele>
        <time>2018-07-07T11:52:46.000Z</time>
      </trkpt>
      <trkpt lat="44.13921" lon="6.77755">
        <ele>1396</ele>
        <time>2018-07-07T11:52:50.000Z</time>
      </trkpt>
      <trkpt lat="44.13922" lon="6.77755">
        <ele>1396</ele>
        <time>2018-07-07T11:52:52.000Z</time>
      </trkpt>
      <trkpt lat="44.13922" lon="6.77755">
        <ele>1396</ele>
        <time>2018-07-07T11:52:54.000Z</time>
      </trkpt>
      <trkpt lat="44.13922" lon="6.77756">
        <ele>1396</ele>
        <time>2018-07-07T11:53:01.000Z</time>
      </trkpt>
      <trkpt lat="44.13923" lon="6.77757">
        <ele>1397</ele>
        <time>2018-07-07T11:53:13.000Z</time>
      </trkpt>
      <trkpt lat="44.13924" lon="6.77758">
        <ele>1398</ele>
        <time>2018-07-07T11:53:17.000Z</time>
      </trkpt>
      <trkpt lat="44.13924" lon="6.77758">
        <ele>1398</ele>
        <time>2018-07-07T11:53:25.000Z</time>
      </trkpt>
      <trkpt lat="44.13925" lon="6.77756">
        <ele>1398</ele>
        <time>2018-07-07T11:53:40.000Z</time>
      </trkpt>
      <trkpt lat="44.13926" lon="6.77756">
        <ele>1398</ele>
        <time>2018-07-07T11:53:50.000Z</time>
      </trkpt>
      <trkpt lat="44.13927" lon="6.77756">
        <ele>1398</ele>
        <time>2018-07-07T11:53:57.000Z</time>
      </trkpt>
      <trkpt lat="44.13928" lon="6.77756">
        <ele>1398</ele>
        <time>2018-07-07T11:54:11.000Z</time>
      </trkpt>
      <trkpt lat="44.13928" lon="6.77756">
        <ele>1398</ele>
        <time>2018-07-07T11:54:24.000Z</time>
      </trkpt>
      <trkpt lat="44.13927" lon="6.77756">
        <ele>1398</ele>
        <time>2018-07-07T11:54:37.000Z</time>
      </trkpt>
      <trkpt lat="44.13927" lon="6.77756">
        <ele>1398</ele>
        <time>2018-07-07T11:54:42.000Z</time>
      </trkpt>
      <trkpt lat="44.13927" lon="6.77757">
        <ele>1399</ele>
        <time>2018-07-07T11:54:50.000Z</time>
      </trkpt>
      <trkpt lat="44.13926" lon="6.77758">
        <ele>1399</ele>
        <time>2018-07-07T11:54:58.000Z</time>
      </trkpt>
      <trkpt lat="44.13926" lon="6.77755">
        <ele>1398</ele>
        <time>2018-07-07T11:55:08.000Z</time>
      </trkpt>
      <trkpt lat="44.13929" lon="6.77755">
        <ele>1399</ele>
        <time>2018-07-07T11:55:13.000Z</time>
      </trkpt>
      <trkpt lat="44.1393" lon="6.77755">
        <ele>1399</ele>
        <time>2018-07-07T11:55:15.000Z</time>
      </trkpt>
      <trkpt lat="44.13933" lon="6.77755">
        <ele>1400</ele>
        <time>2018-07-07T11:55:20.000Z</time>
      </trkpt>
      <trkpt lat="44.13935" lon="6.77755">
        <ele>1401</ele>
        <time>2018-07-07T11:55:25.000Z</time>
      </trkpt>
      <trkpt lat="44.13936" lon="6.77755">
        <ele>1401</ele>
        <time>2018-07-07T11:55:26.000Z</time>
      </trkpt>
      <trkpt lat="44.13939" lon="6.77756">
        <ele>1402</ele>
        <time>2018-07-07T11:55:32.000Z</time>
      </trkpt>
      <trkpt lat="44.13939" lon="6.77757">
        <ele>1402</ele>
        <time>2018-07-07T11:55:37.000Z</time>
      </trkpt>
      <trkpt lat="44.1394" lon="6.77758">
        <ele>1402</ele>
        <time>2018-07-07T11:55:41.000Z</time>
      </trkpt>
      <trkpt lat="44.13941" lon="6.77759">
        <ele>1403</ele>
        <time>2018-07-07T11:55:44.000Z</time>
      </trkpt>
      <trkpt lat="44.13942" lon="6.7776">
        <ele>1403</ele>
        <time>2018-07-07T11:55:47.000Z</time>
      </trkpt>
      <trkpt lat="44.13943" lon="6.77762">
        <ele>1404</ele>
        <time>2018-07-07T11:55:53.000Z</time>
      </trkpt>
      <trkpt lat="44.13943" lon="6.77763">
        <ele>1404</ele>
        <time>2018-07-07T11:55:54.000Z</time>
      </trkpt>
      <trkpt lat="44.13944" lon="6.77765">
        <ele>1404</ele>
        <time>2018-07-07T11:56:02.000Z</time>
      </trkpt>
      <trkpt lat="44.13944" lon="6.77768">
        <ele>1405</ele>
        <time>2018-07-07T11:56:11.000Z</time>
      </trkpt>
      <trkpt lat="44.13943" lon="6.77772">
        <ele>1406</ele>
        <time>2018-07-07T11:56:18.000Z</time>
      </trkpt>
      <trkpt lat="44.13942" lon="6.77773">
        <ele>1406</ele>
        <time>2018-07-07T11:56:20.000Z</time>
      </trkpt>
      <trkpt lat="44.13942" lon="6.77774">
        <ele>1406</ele>
        <time>2018-07-07T11:56:23.000Z</time>
      </trkpt>
      <trkpt lat="44.13941" lon="6.77777">
        <ele>1406</ele>
        <time>2018-07-07T11:56:27.000Z</time>
      </trkpt>
      <trkpt lat="44.13941" lon="6.77777">
        <ele>1406</ele>
        <time>2018-07-07T11:56:30.000Z</time>
      </trkpt>
      <trkpt lat="44.1394" lon="6.77779">
        <ele>1407</ele>
        <time>2018-07-07T11:56:34.000Z</time>
      </trkpt>
      <trkpt lat="44.1394" lon="6.77779">
        <ele>1407</ele>
        <time>2018-07-07T11:56:36.000Z</time>
      </trkpt>
      <trkpt lat="44.1394" lon="6.77784">
        <ele>1408</ele>
        <time>2018-07-07T11:56:45.000Z</time>
      </trkpt>
      <trkpt lat="44.13939" lon="6.77787">
        <ele>1409</ele>
        <time>2018-07-07T11:56:51.000Z</time>
      </trkpt>
      <trkpt lat="44.13938" lon="6.77788">
        <ele>1409</ele>
        <time>2018-07-07T11:56:54.000Z</time>
      </trkpt>
      <trkpt lat="44.13937" lon="6.7779">
        <ele>1409</ele>
        <time>2018-07-07T11:56:57.000Z</time>
      </trkpt>
      <trkpt lat="44.13937" lon="6.77793">
        <ele>1410</ele>
        <time>2018-07-07T11:57:02.000Z</time>
      </trkpt>
      <trkpt lat="44.13936" lon="6.77794">
        <ele>1410</ele>
        <time>2018-07-07T11:57:03.000Z</time>
      </trkpt>
      <trkpt lat="44.13935" lon="6.77797">
        <ele>1411</ele>
        <time>2018-07-07T11:57:09.000Z</time>
      </trkpt>
      <trkpt lat="44.13933" lon="6.77798">
        <ele>1411</ele>
        <time>2018-07-07T11:57:14.000Z</time>
      </trkpt>
      <trkpt lat="44.13932" lon="6.778">
        <ele>1412</ele>
        <time>2018-07-07T11:57:20.000Z</time>
      </trkpt>
      <trkpt lat="44.13932" lon="6.77801">
        <ele>1412</ele>
        <time>2018-07-07T11:57:22.000Z</time>
      </trkpt>
      <trkpt lat="44.13931" lon="6.77803">
        <ele>1413</ele>
        <time>2018-07-07T11:57:27.000Z</time>
      </trkpt>
      <trkpt lat="44.13931" lon="6.77804">
        <ele>1413</ele>
        <time>2018-07-07T11:57:30.000Z</time>
      </trkpt>
      <trkpt lat="44.1393" lon="6.77807">
        <ele>1414</ele>
        <time>2018-07-07T11:57:34.000Z</time>
      </trkpt>
      <trkpt lat="44.1393" lon="6.77808">
        <ele>1414</ele>
        <time>2018-07-07T11:57:37.000Z</time>
      </trkpt>
      <trkpt lat="44.1393" lon="6.7781">
        <ele>1414</ele>
        <time>2018-07-07T11:57:41.000Z</time>
      </trkpt>
      <trkpt lat="44.13931" lon="6.77811">
        <ele>1415</ele>
        <time>2018-07-07T11:57:44.000Z</time>
      </trkpt>
      <trkpt lat="44.13931" lon="6.77812">
        <ele>1415</ele>
        <time>2018-07-07T11:57:46.000Z</time>
      </trkpt>
      <trkpt lat="44.13932" lon="6.77814">
        <ele>1415</ele>
        <time>2018-07-07T11:57:52.000Z</time>
      </trkpt>
      <trkpt lat="44.13932" lon="6.77816">
        <ele>1416</ele>
        <time>2018-07-07T11:57:54.000Z</time>
      </trkpt>
      <trkpt lat="44.13933" lon="6.77818">
        <ele>1416</ele>
        <time>2018-07-07T11:57:59.000Z</time>
      </trkpt>
      <trkpt lat="44.13933" lon="6.77821">
        <ele>1417</ele>
        <time>2018-07-07T11:58:01.000Z</time>
      </trkpt>
      <trkpt lat="44.13931" lon="6.77825">
        <ele>1418</ele>
        <time>2018-07-07T11:58:06.000Z</time>
      </trkpt>
      <trkpt lat="44.13931" lon="6.77825">
        <ele>1418</ele>
        <time>2018-07-07T11:58:08.000Z</time>
      </trkpt>
      <trkpt lat="44.13929" lon="6.77829">
        <ele>1419</ele>
        <time>2018-07-07T11:58:14.000Z</time>
      </trkpt>
      <trkpt lat="44.13925" lon="6.77832">
        <ele>1421</ele>
        <time>2018-07-07T11:58:21.000Z</time>
      </trkpt>
      <trkpt lat="44.13925" lon="6.77832">
        <ele>1421</ele>
        <time>2018-07-07T11:58:22.000Z</time>
      </trkpt>
      <trkpt lat="44.13923" lon="6.77833">
        <ele>1422</ele>
        <time>2018-07-07T11:58:28.000Z</time>
      </trkpt>
      <trkpt lat="44.13922" lon="6.77836">
        <ele>1428</ele>
        <time>2018-07-07T11:58:30.000Z</time>
      </trkpt>
      <trkpt lat="44.13919" lon="6.77839">
        <ele>1429</ele>
        <time>2018-07-07T11:58:35.000Z</time>
      </trkpt>
      <trkpt lat="44.13918" lon="6.77842">
        <ele>1430</ele>
        <time>2018-07-07T11:58:39.000Z</time>
      </trkpt>
      <trkpt lat="44.13917" lon="6.77845">
        <ele>1427</ele>
        <time>2018-07-07T11:58:42.000Z</time>
      </trkpt>
      <trkpt lat="44.13915" lon="6.77847">
        <ele>1428</ele>
        <time>2018-07-07T11:58:45.000Z</time>
      </trkpt>
      <trkpt lat="44.13914" lon="6.77849">
        <ele>1428</ele>
        <time>2018-07-07T11:58:47.000Z</time>
      </trkpt>
      <trkpt lat="44.13911" lon="6.77854">
        <ele>1429</ele>
        <time>2018-07-07T11:58:53.000Z</time>
      </trkpt>
      <trkpt lat="44.13911" lon="6.77855">
        <ele>1429</ele>
        <time>2018-07-07T11:58:54.000Z</time>
      </trkpt>
      <trkpt lat="44.13908" lon="6.77858">
        <ele>1429</ele>
        <time>2018-07-07T11:59:00.000Z</time>
      </trkpt>
      <trkpt lat="44.13906" lon="6.7786">
        <ele>1430</ele>
        <time>2018-07-07T11:59:06.000Z</time>
      </trkpt>
      <trkpt lat="44.13904" lon="6.77861">
        <ele>1430</ele>
        <time>2018-07-07T11:59:08.000Z</time>
      </trkpt>
      <trkpt lat="44.13902" lon="6.77864">
        <ele>1430</ele>
        <time>2018-07-07T11:59:12.000Z</time>
      </trkpt>
      <trkpt lat="44.13901" lon="6.77866">
        <ele>1431</ele>
        <time>2018-07-07T11:59:15.000Z</time>
      </trkpt>
      <trkpt lat="44.13899" lon="6.77867">
        <ele>1431</ele>
        <time>2018-07-07T11:59:18.000Z</time>
      </trkpt>
      <trkpt lat="44.13896" lon="6.7787">
        <ele>1431</ele>
        <time>2018-07-07T11:59:23.000Z</time>
      </trkpt>
      <trkpt lat="44.13895" lon="6.77871">
        <ele>1431</ele>
        <time>2018-07-07T11:59:25.000Z</time>
      </trkpt>
      <trkpt lat="44.13892" lon="6.77876">
        <ele>1432</ele>
        <time>2018-07-07T11:59:31.000Z</time>
      </trkpt>
      <trkpt lat="44.13891" lon="6.77877">
        <ele>1432</ele>
        <time>2018-07-07T11:59:33.000Z</time>
      </trkpt>
      <trkpt lat="44.13888" lon="6.7788">
        <ele>1432</ele>
        <time>2018-07-07T11:59:39.000Z</time>
      </trkpt>
      <trkpt lat="44.13886" lon="6.77882">
        <ele>1432</ele>
        <time>2018-07-07T11:59:42.000Z</time>
      </trkpt>
      <trkpt lat="44.13883" lon="6.77885">
        <ele>1432</ele>
        <time>2018-07-07T11:59:48.000Z</time>
      </trkpt>
      <trkpt lat="44.13882" lon="6.77886">
        <ele>1433</ele>
        <time>2018-07-07T11:59:50.000Z</time>
      </trkpt>
      <trkpt lat="44.13879" lon="6.7789">
        <ele>1433</ele>
        <time>2018-07-07T11:59:58.000Z</time>
      </trkpt>
      <trkpt lat="44.13879" lon="6.77891">
        <ele>1433</ele>
        <time>2018-07-07T11:59:59.000Z</time>
      </trkpt>
      <trkpt lat="44.13876" lon="6.77895">
        <ele>1433</ele>
        <time>2018-07-07T12:00:06.000Z</time>
      </trkpt>
      <trkpt lat="44.13875" lon="6.77896">
        <ele>1433</ele>
        <time>2018-07-07T12:00:08.000Z</time>
      </trkpt>
      <trkpt lat="44.13874" lon="6.77899">
        <ele>1433</ele>
        <time>2018-07-07T12:00:12.000Z</time>
      </trkpt>
      <trkpt lat="44.13872" lon="6.77902">
        <ele>1434</ele>
        <time>2018-07-07T12:00:17.000Z</time>
      </trkpt>
      <trkpt lat="44.13872" lon="6.77903">
        <ele>1434</ele>
        <time>2018-07-07T12:00:18.000Z</time>
      </trkpt>
      <trkpt lat="44.1387" lon="6.77907">
        <ele>1434</ele>
        <time>2018-07-07T12:00:24.000Z</time>
      </trkpt>
      <trkpt lat="44.13869" lon="6.7791">
        <ele>1434</ele>
        <time>2018-07-07T12:00:27.000Z</time>
      </trkpt>
      <trkpt lat="44.13867" lon="6.77914">
        <ele>1434</ele>
        <time>2018-07-07T12:00:34.000Z</time>
      </trkpt>
      <trkpt lat="44.13867" lon="6.77915">
        <ele>1434</ele>
        <time>2018-07-07T12:00:35.000Z</time>
      </trkpt>
      <trkpt lat="44.13865" lon="6.7792">
        <ele>1449</ele>
        <time>2018-07-07T12:00:40.000Z</time>
      </trkpt>
      <trkpt lat="44.13863" lon="6.77923">
        <ele>1449</ele>
        <time>2018-07-07T12:00:43.000Z</time>
      </trkpt>
      <trkpt lat="44.13862" lon="6.77926">
        <ele>1449</ele>
        <time>2018-07-07T12:00:47.000Z</time>
      </trkpt>
      <trkpt lat="44.13861" lon="6.77929">
        <ele>1449</ele>
        <time>2018-07-07T12:00:51.000Z</time>
      </trkpt>
      <trkpt lat="44.13861" lon="6.77932">
        <ele>1449</ele>
        <time>2018-07-07T12:00:55.000Z</time>
      </trkpt>
      <trkpt lat="44.1386" lon="6.77934">
        <ele>1450</ele>
        <time>2018-07-07T12:00:59.000Z</time>
      </trkpt>
      <trkpt lat="44.1386" lon="6.77939">
        <ele>1450</ele>
        <time>2018-07-07T12:01:02.000Z</time>
      </trkpt>
      <trkpt lat="44.13859" lon="6.77944">
        <ele>1451</ele>
        <time>2018-07-07T12:01:07.000Z</time>
      </trkpt>
      <trkpt lat="44.13858" lon="6.77947">
        <ele>1451</ele>
        <time>2018-07-07T12:01:11.000Z</time>
      </trkpt>
      <trkpt lat="44.13857" lon="6.77951">
        <ele>1452</ele>
        <time>2018-07-07T12:01:15.000Z</time>
      </trkpt>
      <trkpt lat="44.13857" lon="6.77952">
        <ele>1452</ele>
        <time>2018-07-07T12:01:18.000Z</time>
      </trkpt>
      <trkpt lat="44.13856" lon="6.77959">
        <ele>1453</ele>
        <time>2018-07-07T12:01:25.000Z</time>
      </trkpt>
      <trkpt lat="44.13854" lon="6.77965">
        <ele>1454</ele>
        <time>2018-07-07T12:01:31.000Z</time>
      </trkpt>
      <trkpt lat="44.13854" lon="6.77968">
        <ele>1455</ele>
        <time>2018-07-07T12:01:34.000Z</time>
      </trkpt>
      <trkpt lat="44.13853" lon="6.77971">
        <ele>1455</ele>
        <time>2018-07-07T12:01:37.000Z</time>
      </trkpt>
      <trkpt lat="44.13853" lon="6.77975">
        <ele>1455</ele>
        <time>2018-07-07T12:01:42.000Z</time>
      </trkpt>
      <trkpt lat="44.13852" lon="6.77978">
        <ele>1456</ele>
        <time>2018-07-07T12:01:44.000Z</time>
      </trkpt>
      <trkpt lat="44.1385" lon="6.77985">
        <ele>1456</ele>
        <time>2018-07-07T12:01:51.000Z</time>
      </trkpt>
      <trkpt lat="44.13848" lon="6.77989">
        <ele>1457</ele>
        <time>2018-07-07T12:01:57.000Z</time>
      </trkpt>
      <trkpt lat="44.13848" lon="6.7799">
        <ele>1457</ele>
        <time>2018-07-07T12:01:58.000Z</time>
      </trkpt>
      <trkpt lat="44.13846" lon="6.77996">
        <ele>1457</ele>
        <time>2018-07-07T12:02:05.000Z</time>
      </trkpt>
      <trkpt lat="44.13846" lon="6.77997">
        <ele>1457</ele>
        <time>2018-07-07T12:02:06.000Z</time>
      </trkpt>
      <trkpt lat="44.13844" lon="6.78001">
        <ele>1465</ele>
        <time>2018-07-07T12:02:12.000Z</time>
      </trkpt>
      <trkpt lat="44.13844" lon="6.78002">
        <ele>1465</ele>
        <time>2018-07-07T12:02:13.000Z</time>
      </trkpt>
      <trkpt lat="44.13843" lon="6.78007">
        <ele>1466</ele>
        <time>2018-07-07T12:02:18.000Z</time>
      </trkpt>
      <trkpt lat="44.13843" lon="6.7801">
        <ele>1467</ele>
        <time>2018-07-07T12:02:21.000Z</time>
      </trkpt>
      <trkpt lat="44.13843" lon="6.78013">
        <ele>1468</ele>
        <time>2018-07-07T12:02:24.000Z</time>
      </trkpt>
      <trkpt lat="44.13842" lon="6.78017">
        <ele>1469</ele>
        <time>2018-07-07T12:02:28.000Z</time>
      </trkpt>
      <trkpt lat="44.1384" lon="6.78019">
        <ele>1470</ele>
        <time>2018-07-07T12:02:31.000Z</time>
      </trkpt>
      <trkpt lat="44.1384" lon="6.7802">
        <ele>1470</ele>
        <time>2018-07-07T12:02:32.000Z</time>
      </trkpt>
      <trkpt lat="44.13839" lon="6.78021">
        <ele>1470</ele>
        <time>2018-07-07T12:02:33.000Z</time>
      </trkpt>
      <trkpt lat="44.13837" lon="6.78023">
        <ele>1471</ele>
        <time>2018-07-07T12:02:35.000Z</time>
      </trkpt>
      <trkpt lat="44.13836" lon="6.78027">
        <ele>1472</ele>
        <time>2018-07-07T12:02:39.000Z</time>
      </trkpt>
      <trkpt lat="44.13836" lon="6.78028">
        <ele>1472</ele>
        <time>2018-07-07T12:02:40.000Z</time>
      </trkpt>
      <trkpt lat="44.13833" lon="6.78033">
        <ele>1457</ele>
        <time>2018-07-07T12:02:45.000Z</time>
      </trkpt>
      <trkpt lat="44.13831" lon="6.78036">
        <ele>1458</ele>
        <time>2018-07-07T12:02:48.000Z</time>
      </trkpt>
      <trkpt lat="44.13829" lon="6.7804">
        <ele>1458</ele>
        <time>2018-07-07T12:02:52.000Z</time>
      </trkpt>
      <trkpt lat="44.13827" lon="6.78043">
        <ele>1459</ele>
        <time>2018-07-07T12:02:56.000Z</time>
      </trkpt>
      <trkpt lat="44.13825" lon="6.78046">
        <ele>1459</ele>
        <time>2018-07-07T12:03:00.000Z</time>
      </trkpt>
      <trkpt lat="44.13822" lon="6.78048">
        <ele>1459</ele>
        <time>2018-07-07T12:03:03.000Z</time>
      </trkpt>
      <trkpt lat="44.13821" lon="6.78049">
        <ele>1459</ele>
        <time>2018-07-07T12:03:05.000Z</time>
      </trkpt>
      <trkpt lat="44.13817" lon="6.78052">
        <ele>1459</ele>
        <time>2018-07-07T12:03:11.000Z</time>
      </trkpt>
      <trkpt lat="44.13815" lon="6.78054">
        <ele>1459</ele>
        <time>2018-07-07T12:03:14.000Z</time>
      </trkpt>
      <trkpt lat="44.13814" lon="6.78056">
        <ele>1460</ele>
        <time>2018-07-07T12:03:16.000Z</time>
      </trkpt>
      <trkpt lat="44.13814" lon="6.78057">
        <ele>1460</ele>
        <time>2018-07-07T12:03:17.000Z</time>
      </trkpt>
      <trkpt lat="44.13809" lon="6.7806">
        <ele>1459</ele>
        <time>2018-07-07T12:03:23.000Z</time>
      </trkpt>
      <trkpt lat="44.13809" lon="6.7806">
        <ele>1459</ele>
        <time>2018-07-07T12:03:24.000Z</time>
      </trkpt>
      <trkpt lat="44.13805" lon="6.78064">
        <ele>1459</ele>
        <time>2018-07-07T12:03:30.000Z</time>
      </trkpt>
      <trkpt lat="44.13804" lon="6.78065">
        <ele>1459</ele>
        <time>2018-07-07T12:03:32.000Z</time>
      </trkpt>
      <trkpt lat="44.13803" lon="6.7807">
        <ele>1460</ele>
        <time>2018-07-07T12:03:37.000Z</time>
      </trkpt>
      <trkpt lat="44.13803" lon="6.78072">
        <ele>1460</ele>
        <time>2018-07-07T12:03:39.000Z</time>
      </trkpt>
      <trkpt lat="44.13803" lon="6.78076">
        <ele>1460</ele>
        <time>2018-07-07T12:03:44.000Z</time>
      </trkpt>
      <trkpt lat="44.13802" lon="6.78082">
        <ele>1461</ele>
        <time>2018-07-07T12:03:49.000Z</time>
      </trkpt>
      <trkpt lat="44.13802" lon="6.78083">
        <ele>1461</ele>
        <time>2018-07-07T12:03:50.000Z</time>
      </trkpt>
      <trkpt lat="44.13801" lon="6.78089">
        <ele>1473</ele>
        <time>2018-07-07T12:03:57.000Z</time>
      </trkpt>
      <trkpt lat="44.13801" lon="6.78089">
        <ele>1473</ele>
        <time>2018-07-07T12:03:59.000Z</time>
      </trkpt>
      <trkpt lat="44.138" lon="6.78093">
        <ele>1473</ele>
        <time>2018-07-07T12:04:02.000Z</time>
      </trkpt>
      <trkpt lat="44.13799" lon="6.78098">
        <ele>1473</ele>
        <time>2018-07-07T12:04:07.000Z</time>
      </trkpt>
      <trkpt lat="44.13799" lon="6.78105">
        <ele>1473</ele>
        <time>2018-07-07T12:04:14.000Z</time>
      </trkpt>
      <trkpt lat="44.138" lon="6.78111">
        <ele>1474</ele>
        <time>2018-07-07T12:04:20.000Z</time>
      </trkpt>
      <trkpt lat="44.13799" lon="6.78113">
        <ele>1474</ele>
        <time>2018-07-07T12:04:22.000Z</time>
      </trkpt>
      <trkpt lat="44.13799" lon="6.7812">
        <ele>1474</ele>
        <time>2018-07-07T12:04:27.000Z</time>
      </trkpt>
      <trkpt lat="44.13798" lon="6.78124">
        <ele>1475</ele>
        <time>2018-07-07T12:04:31.000Z</time>
      </trkpt>
      <trkpt lat="44.13799" lon="6.7813">
        <ele>1475</ele>
        <time>2018-07-07T12:04:36.000Z</time>
      </trkpt>
      <trkpt lat="44.138" lon="6.78133">
        <ele>1476</ele>
        <time>2018-07-07T12:04:39.000Z</time>
      </trkpt>
      <trkpt lat="44.138" lon="6.78135">
        <ele>1476</ele>
        <time>2018-07-07T12:04:42.000Z</time>
      </trkpt>
      <trkpt lat="44.13801" lon="6.7814">
        <ele>1477</ele>
        <time>2018-07-07T12:04:46.000Z</time>
      </trkpt>
      <trkpt lat="44.13801" lon="6.78141">
        <ele>1477</ele>
        <time>2018-07-07T12:04:47.000Z</time>
      </trkpt>
      <trkpt lat="44.138" lon="6.78152">
        <ele>1478</ele>
        <time>2018-07-07T12:04:55.000Z</time>
      </trkpt>
      <trkpt lat="44.13801" lon="6.78161">
        <ele>1479</ele>
        <time>2018-07-07T12:05:03.000Z</time>
      </trkpt>
      <trkpt lat="44.13802" lon="6.78166">
        <ele>1480</ele>
        <time>2018-07-07T12:05:08.000Z</time>
      </trkpt>
      <trkpt lat="44.13803" lon="6.78171">
        <ele>1489</ele>
        <time>2018-07-07T12:05:12.000Z</time>
      </trkpt>
      <trkpt lat="44.13803" lon="6.78172">
        <ele>1489</ele>
        <time>2018-07-07T12:05:13.000Z</time>
      </trkpt>
      <trkpt lat="44.13803" lon="6.78178">
        <ele>1489</ele>
        <time>2018-07-07T12:05:20.000Z</time>
      </trkpt>
      <trkpt lat="44.13803" lon="6.78178">
        <ele>1489</ele>
        <time>2018-07-07T12:05:21.000Z</time>
      </trkpt>
      <trkpt lat="44.13804" lon="6.78183">
        <ele>1489</ele>
        <time>2018-07-07T12:05:26.000Z</time>
      </trkpt>
      <trkpt lat="44.13804" lon="6.78184">
        <ele>1489</ele>
        <time>2018-07-07T12:05:27.000Z</time>
      </trkpt>
      <trkpt lat="44.13806" lon="6.78189">
        <ele>1490</ele>
        <time>2018-07-07T12:05:32.000Z</time>
      </trkpt>
      <trkpt lat="44.13808" lon="6.7819">
        <ele>1490</ele>
        <time>2018-07-07T12:05:36.000Z</time>
      </trkpt>
      <trkpt lat="44.13808" lon="6.7819">
        <ele>1490</ele>
        <time>2018-07-07T12:05:38.000Z</time>
      </trkpt>
      <trkpt lat="44.13809" lon="6.78192">
        <ele>1490</ele>
        <time>2018-07-07T12:05:41.000Z</time>
      </trkpt>
      <trkpt lat="44.13809" lon="6.78194">
        <ele>1490</ele>
        <time>2018-07-07T12:05:45.000Z</time>
      </trkpt>
      <trkpt lat="44.13809" lon="6.78195">
        <ele>1490</ele>
        <time>2018-07-07T12:05:46.000Z</time>
      </trkpt>
      <trkpt lat="44.1381" lon="6.782">
        <ele>1491</ele>
        <time>2018-07-07T12:05:53.000Z</time>
      </trkpt>
      <trkpt lat="44.13809" lon="6.78199">
        <ele>1491</ele>
        <time>2018-07-07T12:05:54.000Z</time>
      </trkpt>
      <trkpt lat="44.13812" lon="6.78203">
        <ele>1491</ele>
        <time>2018-07-07T12:06:00.000Z</time>
      </trkpt>
      <trkpt lat="44.13812" lon="6.78204">
        <ele>1491</ele>
        <time>2018-07-07T12:06:01.000Z</time>
      </trkpt>
      <trkpt lat="44.13814" lon="6.78207">
        <ele>1492</ele>
        <time>2018-07-07T12:06:06.000Z</time>
      </trkpt>
      <trkpt lat="44.13815" lon="6.7821">
        <ele>1492</ele>
        <time>2018-07-07T12:06:12.000Z</time>
      </trkpt>
      <trkpt lat="44.13815" lon="6.78211">
        <ele>1493</ele>
        <time>2018-07-07T12:06:13.000Z</time>
      </trkpt>
      <trkpt lat="44.13814" lon="6.78218">
        <ele>1493</ele>
        <time>2018-07-07T12:06:20.000Z</time>
      </trkpt>
      <trkpt lat="44.13814" lon="6.78219">
        <ele>1493</ele>
        <time>2018-07-07T12:06:21.000Z</time>
      </trkpt>
      <trkpt lat="44.13811" lon="6.78224">
        <ele>1494</ele>
        <time>2018-07-07T12:06:27.000Z</time>
      </trkpt>
      <trkpt lat="44.13811" lon="6.78225">
        <ele>1494</ele>
        <time>2018-07-07T12:06:28.000Z</time>
      </trkpt>
      <trkpt lat="44.13809" lon="6.78228">
        <ele>1494</ele>
        <time>2018-07-07T12:06:33.000Z</time>
      </trkpt>
      <trkpt lat="44.13809" lon="6.78231">
        <ele>1494</ele>
        <time>2018-07-07T12:06:36.000Z</time>
      </trkpt>
      <trkpt lat="44.13807" lon="6.78236">
        <ele>1495</ele>
        <time>2018-07-07T12:06:42.000Z</time>
      </trkpt>
      <trkpt lat="44.13807" lon="6.78237">
        <ele>1495</ele>
        <time>2018-07-07T12:06:44.000Z</time>
      </trkpt>
      <trkpt lat="44.13807" lon="6.78241">
        <ele>1495</ele>
        <time>2018-07-07T12:06:48.000Z</time>
      </trkpt>
      <trkpt lat="44.13807" lon="6.78243">
        <ele>1496</ele>
        <time>2018-07-07T12:06:52.000Z</time>
      </trkpt>
      <trkpt lat="44.13808" lon="6.78244">
        <ele>1496</ele>
        <time>2018-07-07T12:06:54.000Z</time>
      </trkpt>
      <trkpt lat="44.1381" lon="6.78248">
        <ele>1497</ele>
        <time>2018-07-07T12:06:59.000Z</time>
      </trkpt>
      <trkpt lat="44.13812" lon="6.78249">
        <ele>1498</ele>
        <time>2018-07-07T12:07:02.000Z</time>
      </trkpt>
      <trkpt lat="44.13814" lon="6.78248">
        <ele>1498</ele>
        <time>2018-07-07T12:07:06.000Z</time>
      </trkpt>
      <trkpt lat="44.13815" lon="6.78247">
        <ele>1499</ele>
        <time>2018-07-07T12:07:08.000Z</time>
      </trkpt>
      <trkpt lat="44.13819" lon="6.78246">
        <ele>1501</ele>
        <time>2018-07-07T12:07:14.000Z</time>
      </trkpt>
      <trkpt lat="44.13822" lon="6.78245">
        <ele>1502</ele>
        <time>2018-07-07T12:07:20.000Z</time>
      </trkpt>
      <trkpt lat="44.13822" lon="6.78246">
        <ele>1502</ele>
        <time>2018-07-07T12:07:21.000Z</time>
      </trkpt>
      <trkpt lat="44.13824" lon="6.78244">
        <ele>1503</ele>
        <time>2018-07-07T12:07:25.000Z</time>
      </trkpt>
      <trkpt lat="44.13826" lon="6.78243">
        <ele>1503</ele>
        <time>2018-07-07T12:07:26.000Z</time>
      </trkpt>
      <trkpt lat="44.13832" lon="6.78243">
        <ele>1505</ele>
        <time>2018-07-07T12:07:29.000Z</time>
      </trkpt>
      <trkpt lat="44.13839" lon="6.78241">
        <ele>1511</ele>
        <time>2018-07-07T12:07:33.000Z</time>
      </trkpt>
      <trkpt lat="44.13848" lon="6.78238">
        <ele>1512</ele>
        <time>2018-07-07T12:07:37.000Z</time>
      </trkpt>
      <trkpt lat="44.13851" lon="6.78237">
        <ele>1512</ele>
        <time>2018-07-07T12:07:39.000Z</time>
      </trkpt>
      <trkpt lat="44.13859" lon="6.78236">
        <ele>1512</ele>
        <time>2018-07-07T12:07:42.000Z</time>
      </trkpt>
      <trkpt lat="44.13875" lon="6.78237">
        <ele>1514</ele>
        <time>2018-07-07T12:07:49.000Z</time>
      </trkpt>
      <trkpt lat="44.13889" lon="6.78237">
        <ele>1517</ele>
        <time>2018-07-07T12:07:57.000Z</time>
      </trkpt>
      <trkpt lat="44.13898" lon="6.78239">
        <ele>1519</ele>
        <time>2018-07-07T12:08:03.000Z</time>
      </trkpt>
      <trkpt lat="44.13899" lon="6.78239">
        <ele>1519</ele>
        <time>2018-07-07T12:08:04.000Z</time>
      </trkpt>
      <trkpt lat="44.13905" lon="6.7824">
        <ele>1521</ele>
        <time>2018-07-07T12:08:08.000Z</time>
      </trkpt>
      <trkpt lat="44.13909" lon="6.78242">
        <ele>1522</ele>
        <time>2018-07-07T12:08:11.000Z</time>
      </trkpt>
      <trkpt lat="44.13913" lon="6.78242">
        <ele>1523</ele>
        <time>2018-07-07T12:08:14.000Z</time>
      </trkpt>
      <trkpt lat="44.13916" lon="6.78241">
        <ele>1523</ele>
        <time>2018-07-07T12:08:16.000Z</time>
      </trkpt>
      <trkpt lat="44.13921" lon="6.78236">
        <ele>1526</ele>
        <time>2018-07-07T12:08:20.000Z</time>
      </trkpt>
      <trkpt lat="44.13922" lon="6.78237">
        <ele>1526</ele>
        <time>2018-07-07T12:08:21.000Z</time>
      </trkpt>
      <trkpt lat="44.13926" lon="6.78236">
        <ele>1526</ele>
        <time>2018-07-07T12:08:24.000Z</time>
      </trkpt>
      <trkpt lat="44.13931" lon="6.78236">
        <ele>1525</ele>
        <time>2018-07-07T12:08:30.000Z</time>
      </trkpt>
      <trkpt lat="44.13933" lon="6.78236">
        <ele>1525</ele>
        <time>2018-07-07T12:08:31.000Z</time>
      </trkpt>
      <trkpt lat="44.13934" lon="6.78235">
        <ele>1525</ele>
        <time>2018-07-07T12:08:35.000Z</time>
      </trkpt>
      <trkpt lat="44.13936" lon="6.78229">
        <ele>1525</ele>
        <time>2018-07-07T12:08:45.000Z</time>
      </trkpt>
      <trkpt lat="44.13938" lon="6.78228">
        <ele>1525</ele>
        <time>2018-07-07T12:08:46.000Z</time>
      </trkpt>
      <trkpt lat="44.13942" lon="6.7823">
        <ele>1525</ele>
        <time>2018-07-07T12:08:51.000Z</time>
      </trkpt>
      <trkpt lat="44.13945" lon="6.7823">
        <ele>1525</ele>
        <time>2018-07-07T12:08:56.000Z</time>
      </trkpt>
      <trkpt lat="44.13945" lon="6.78231">
        <ele>1525</ele>
        <time>2018-07-07T12:08:57.000Z</time>
      </trkpt>
      <trkpt lat="44.13948" lon="6.78232">
        <ele>1525</ele>
        <time>2018-07-07T12:09:03.000Z</time>
      </trkpt>
      <trkpt lat="44.1395" lon="6.78234">
        <ele>1525</ele>
        <time>2018-07-07T12:09:07.000Z</time>
      </trkpt>
      <trkpt lat="44.13952" lon="6.78233">
        <ele>1525</ele>
        <time>2018-07-07T12:09:10.000Z</time>
      </trkpt>
      <trkpt lat="44.13953" lon="6.78233">
        <ele>1525</ele>
        <time>2018-07-07T12:09:13.000Z</time>
      </trkpt>
      <trkpt lat="44.13954" lon="6.78234">
        <ele>1525</ele>
        <time>2018-07-07T12:09:18.000Z</time>
      </trkpt>
      <trkpt lat="44.13957" lon="6.78234">
        <ele>1526</ele>
        <time>2018-07-07T12:09:26.000Z</time>
      </trkpt>
      <trkpt lat="44.13958" lon="6.78235">
        <ele>1526</ele>
        <time>2018-07-07T12:09:27.000Z</time>
      </trkpt>
      <trkpt lat="44.13961" lon="6.78237">
        <ele>1526</ele>
        <time>2018-07-07T12:09:34.000Z</time>
      </trkpt>
      <trkpt lat="44.13963" lon="6.78239">
        <ele>1526</ele>
        <time>2018-07-07T12:09:40.000Z</time>
      </trkpt>
      <trkpt lat="44.13964" lon="6.7824">
        <ele>1527</ele>
        <time>2018-07-07T12:09:41.000Z</time>
      </trkpt>
      <trkpt lat="44.13966" lon="6.78245">
        <ele>1527</ele>
        <time>2018-07-07T12:09:48.000Z</time>
      </trkpt>
      <trkpt lat="44.13966" lon="6.78245">
        <ele>1527</ele>
        <time>2018-07-07T12:09:49.000Z</time>
      </trkpt>
      <trkpt lat="44.13966" lon="6.78246">
        <ele>1527</ele>
        <time>2018-07-07T12:09:53.000Z</time>
      </trkpt>
      <trkpt lat="44.13967" lon="6.7825">
        <ele>1527</ele>
        <time>2018-07-07T12:09:57.000Z</time>
      </trkpt>
      <trkpt lat="44.13967" lon="6.7825">
        <ele>1527</ele>
        <time>2018-07-07T12:09:59.000Z</time>
      </trkpt>
      <trkpt lat="44.1397" lon="6.78251">
        <ele>1541</ele>
        <time>2018-07-07T12:10:04.000Z</time>
      </trkpt>
      <trkpt lat="44.1397" lon="6.78251">
        <ele>1541</ele>
        <time>2018-07-07T12:10:05.000Z</time>
      </trkpt>
      <trkpt lat="44.13974" lon="6.78252">
        <ele>1541</ele>
        <time>2018-07-07T12:10:11.000Z</time>
      </trkpt>
      <trkpt lat="44.13975" lon="6.78252">
        <ele>1541</ele>
        <time>2018-07-07T12:10:13.000Z</time>
      </trkpt>
      <trkpt lat="44.13977" lon="6.78254">
        <ele>1541</ele>
        <time>2018-07-07T12:10:17.000Z</time>
      </trkpt>
      <trkpt lat="44.13979" lon="6.78254">
        <ele>1541</ele>
        <time>2018-07-07T12:10:20.000Z</time>
      </trkpt>
      <trkpt lat="44.1398" lon="6.78255">
        <ele>1541</ele>
        <time>2018-07-07T12:10:22.000Z</time>
      </trkpt>
      <trkpt lat="44.13981" lon="6.78255">
        <ele>1541</ele>
        <time>2018-07-07T12:10:25.000Z</time>
      </trkpt>
      <trkpt lat="44.13983" lon="6.78257">
        <ele>1541</ele>
        <time>2018-07-07T12:10:30.000Z</time>
      </trkpt>
      <trkpt lat="44.13986" lon="6.78258">
        <ele>1541</ele>
        <time>2018-07-07T12:10:32.000Z</time>
      </trkpt>
      <trkpt lat="44.13989" lon="6.78259">
        <ele>1541</ele>
        <time>2018-07-07T12:10:37.000Z</time>
      </trkpt>
      <trkpt lat="44.1399" lon="6.78259">
        <ele>1541</ele>
        <time>2018-07-07T12:10:38.000Z</time>
      </trkpt>
      <trkpt lat="44.13995" lon="6.78259">
        <ele>1540</ele>
        <time>2018-07-07T12:10:45.000Z</time>
      </trkpt>
      <trkpt lat="44.13996" lon="6.7826">
        <ele>1540</ele>
        <time>2018-07-07T12:10:46.000Z</time>
      </trkpt>
      <trkpt lat="44.14001" lon="6.78262">
        <ele>1543</ele>
        <time>2018-07-07T12:10:53.000Z</time>
      </trkpt>
      <trkpt lat="44.14001" lon="6.78262">
        <ele>1544</ele>
        <time>2018-07-07T12:10:54.000Z</time>
      </trkpt>
      <trkpt lat="44.14008" lon="6.78266">
        <ele>1546</ele>
        <time>2018-07-07T12:11:02.000Z</time>
      </trkpt>
      <trkpt lat="44.14012" lon="6.78269">
        <ele>1547</ele>
        <time>2018-07-07T12:11:07.000Z</time>
      </trkpt>
      <trkpt lat="44.14014" lon="6.78271">
        <ele>1548</ele>
        <time>2018-07-07T12:11:10.000Z</time>
      </trkpt>
      <trkpt lat="44.14017" lon="6.78271">
        <ele>1549</ele>
        <time>2018-07-07T12:11:13.000Z</time>
      </trkpt>
      <trkpt lat="44.14022" lon="6.78272">
        <ele>1549</ele>
        <time>2018-07-07T12:11:19.000Z</time>
      </trkpt>
      <trkpt lat="44.14024" lon="6.78271">
        <ele>1550</ele>
        <time>2018-07-07T12:11:21.000Z</time>
      </trkpt>
      <trkpt lat="44.14028" lon="6.78271">
        <ele>1550</ele>
        <time>2018-07-07T12:11:26.000Z</time>
      </trkpt>
      <trkpt lat="44.1403" lon="6.78271">
        <ele>1550</ele>
        <time>2018-07-07T12:11:28.000Z</time>
      </trkpt>
      <trkpt lat="44.14034" lon="6.78271">
        <ele>1550</ele>
        <time>2018-07-07T12:11:34.000Z</time>
      </trkpt>
      <trkpt lat="44.14036" lon="6.78273">
        <ele>1551</ele>
        <time>2018-07-07T12:11:38.000Z</time>
      </trkpt>
      <trkpt lat="44.14036" lon="6.78276">
        <ele>1551</ele>
        <time>2018-07-07T12:11:41.000Z</time>
      </trkpt>
      <trkpt lat="44.14035" lon="6.78276">
        <ele>1551</ele>
        <time>2018-07-07T12:11:43.000Z</time>
      </trkpt>
      <trkpt lat="44.14035" lon="6.78277">
        <ele>1551</ele>
        <time>2018-07-07T12:11:47.000Z</time>
      </trkpt>
      <trkpt lat="44.14032" lon="6.78282">
        <ele>1552</ele>
        <time>2018-07-07T12:11:54.000Z</time>
      </trkpt>
      <trkpt lat="44.14031" lon="6.78282">
        <ele>1552</ele>
        <time>2018-07-07T12:11:55.000Z</time>
      </trkpt>
      <trkpt lat="44.14029" lon="6.78286">
        <ele>1553</ele>
        <time>2018-07-07T12:12:01.000Z</time>
      </trkpt>
      <trkpt lat="44.14028" lon="6.78288">
        <ele>1553</ele>
        <time>2018-07-07T12:12:04.000Z</time>
      </trkpt>
      <trkpt lat="44.14027" lon="6.78291">
        <ele>1553</ele>
        <time>2018-07-07T12:12:08.000Z</time>
      </trkpt>
      <trkpt lat="44.14025" lon="6.78294">
        <ele>1554</ele>
        <time>2018-07-07T12:12:13.000Z</time>
      </trkpt>
      <trkpt lat="44.14024" lon="6.78296">
        <ele>1554</ele>
        <time>2018-07-07T12:12:15.000Z</time>
      </trkpt>
      <trkpt lat="44.1402" lon="6.783">
        <ele>1555</ele>
        <time>2018-07-07T12:12:21.000Z</time>
      </trkpt>
      <trkpt lat="44.14019" lon="6.78301">
        <ele>1555</ele>
        <time>2018-07-07T12:12:23.000Z</time>
      </trkpt>
      <trkpt lat="44.14017" lon="6.78305">
        <ele>1556</ele>
        <time>2018-07-07T12:12:28.000Z</time>
      </trkpt>
      <trkpt lat="44.14014" lon="6.78309">
        <ele>1557</ele>
        <time>2018-07-07T12:12:33.000Z</time>
      </trkpt>
      <trkpt lat="44.14009" lon="6.78316">
        <ele>1559</ele>
        <time>2018-07-07T12:12:42.000Z</time>
      </trkpt>
      <trkpt lat="44.14008" lon="6.78322">
        <ele>1560</ele>
        <time>2018-07-07T12:12:50.000Z</time>
      </trkpt>
      <trkpt lat="44.14009" lon="6.78323">
        <ele>1560</ele>
        <time>2018-07-07T12:12:51.000Z</time>
      </trkpt>
      <trkpt lat="44.14012" lon="6.78323">
        <ele>1560</ele>
        <time>2018-07-07T12:12:56.000Z</time>
      </trkpt>
      <trkpt lat="44.14013" lon="6.78324">
        <ele>1560</ele>
        <time>2018-07-07T12:12:58.000Z</time>
      </trkpt>
      <trkpt lat="44.14017" lon="6.78326">
        <ele>1560</ele>
        <time>2018-07-07T12:13:03.000Z</time>
      </trkpt>
      <trkpt lat="44.1402" lon="6.78326">
        <ele>1559</ele>
        <time>2018-07-07T12:13:07.000Z</time>
      </trkpt>
      <trkpt lat="44.14022" lon="6.78327">
        <ele>1559</ele>
        <time>2018-07-07T12:13:10.000Z</time>
      </trkpt>
      <trkpt lat="44.14026" lon="6.78326">
        <ele>1559</ele>
        <time>2018-07-07T12:13:15.000Z</time>
      </trkpt>
      <trkpt lat="44.14027" lon="6.78326">
        <ele>1559</ele>
        <time>2018-07-07T12:13:16.000Z</time>
      </trkpt>
      <trkpt lat="44.1403" lon="6.78324">
        <ele>1558</ele>
        <time>2018-07-07T12:13:23.000Z</time>
      </trkpt>
      <trkpt lat="44.14031" lon="6.78324">
        <ele>1558</ele>
        <time>2018-07-07T12:13:24.000Z</time>
      </trkpt>
      <trkpt lat="44.14036" lon="6.78322">
        <ele>1558</ele>
        <time>2018-07-07T12:13:34.000Z</time>
      </trkpt>
      <trkpt lat="44.1404" lon="6.78321">
        <ele>1558</ele>
        <time>2018-07-07T12:13:41.000Z</time>
      </trkpt>
      <trkpt lat="44.14042" lon="6.7832">
        <ele>1558</ele>
        <time>2018-07-07T12:13:45.000Z</time>
      </trkpt>
      <trkpt lat="44.14044" lon="6.7832">
        <ele>1558</ele>
        <time>2018-07-07T12:13:48.000Z</time>
      </trkpt>
      <trkpt lat="44.14047" lon="6.78321">
        <ele>1558</ele>
        <time>2018-07-07T12:13:53.000Z</time>
      </trkpt>
      <trkpt lat="44.14048" lon="6.78323">
        <ele>1559</ele>
        <time>2018-07-07T12:13:57.000Z</time>
      </trkpt>
      <trkpt lat="44.14049" lon="6.78327">
        <ele>1559</ele>
        <time>2018-07-07T12:14:02.000Z</time>
      </trkpt>
      <trkpt lat="44.14049" lon="6.78327">
        <ele>1559</ele>
        <time>2018-07-07T12:14:03.000Z</time>
      </trkpt>
      <trkpt lat="44.14047" lon="6.7833">
        <ele>1559</ele>
        <time>2018-07-07T12:14:10.000Z</time>
      </trkpt>
      <trkpt lat="44.14048" lon="6.78332">
        <ele>1559</ele>
        <time>2018-07-07T12:14:12.000Z</time>
      </trkpt>
      <trkpt lat="44.14048" lon="6.78334">
        <ele>1574</ele>
        <time>2018-07-07T12:14:16.000Z</time>
      </trkpt>
      <trkpt lat="44.14047" lon="6.78335">
        <ele>1574</ele>
        <time>2018-07-07T12:14:25.000Z</time>
      </trkpt>
      <trkpt lat="44.14045" lon="6.78336">
        <ele>1574</ele>
        <time>2018-07-07T12:14:29.000Z</time>
      </trkpt>
      <trkpt lat="44.14044" lon="6.78336">
        <ele>1574</ele>
        <time>2018-07-07T12:14:31.000Z</time>
      </trkpt>
      <trkpt lat="44.14043" lon="6.78336">
        <ele>1574</ele>
        <time>2018-07-07T12:14:34.000Z</time>
      </trkpt>
      <trkpt lat="44.14043" lon="6.78336">
        <ele>1574</ele>
        <time>2018-07-07T12:14:40.000Z</time>
      </trkpt>
      <trkpt lat="44.14043" lon="6.78335">
        <ele>1574</ele>
        <time>2018-07-07T12:14:51.000Z</time>
      </trkpt>
      <trkpt lat="44.14043" lon="6.78336">
        <ele>1574</ele>
        <time>2018-07-07T12:15:02.000Z</time>
      </trkpt>
      <trkpt lat="44.14043" lon="6.78335">
        <ele>1574</ele>
        <time>2018-07-07T12:15:11.000Z</time>
      </trkpt>
      <trkpt lat="44.14044" lon="6.78336">
        <ele>1574</ele>
        <time>2018-07-07T12:15:16.000Z</time>
      </trkpt>
      <trkpt lat="44.14043" lon="6.78336">
        <ele>1574</ele>
        <time>2018-07-07T12:15:31.000Z</time>
      </trkpt>
      <trkpt lat="44.14043" lon="6.78337">
        <ele>1574</ele>
        <time>2018-07-07T12:15:40.000Z</time>
      </trkpt>
      <trkpt lat="44.14043" lon="6.78336">
        <ele>1574</ele>
        <time>2018-07-07T12:15:52.000Z</time>
      </trkpt>
      <trkpt lat="44.14043" lon="6.78337">
        <ele>1574</ele>
        <time>2018-07-07T12:16:05.000Z</time>
      </trkpt>
      <trkpt lat="44.14043" lon="6.78336">
        <ele>1574</ele>
        <time>2018-07-07T12:16:13.000Z</time>
      </trkpt>
      <trkpt lat="44.14044" lon="6.78335">
        <ele>1574</ele>
        <time>2018-07-07T12:16:33.000Z</time>
      </trkpt>
      <trkpt lat="44.14044" lon="6.78336">
        <ele>1574</ele>
        <time>2018-07-07T12:16:47.000Z</time>
      </trkpt>
      <trkpt lat="44.14043" lon="6.78334">
        <ele>1574</ele>
        <time>2018-07-07T12:16:59.000Z</time>
      </trkpt>
      <trkpt lat="44.14043" lon="6.78335">
        <ele>1574</ele>
        <time>2018-07-07T12:17:10.000Z</time>
      </trkpt>
      <trkpt lat="44.14044" lon="6.78335">
        <ele>1574</ele>
        <time>2018-07-07T12:17:14.000Z</time>
      </trkpt>
      <trkpt lat="44.14044" lon="6.78335">
        <ele>1574</ele>
        <time>2018-07-07T12:17:18.000Z</time>
      </trkpt>
      <trkpt lat="44.14042" lon="6.78333">
        <ele>1559</ele>
        <time>2018-07-07T12:17:28.000Z</time>
      </trkpt>
      <trkpt lat="44.14043" lon="6.78333">
        <ele>1559</ele>
        <time>2018-07-07T12:17:33.000Z</time>
      </trkpt>
      <trkpt lat="44.14042" lon="6.78333">
        <ele>1559</ele>
        <time>2018-07-07T12:17:52.000Z</time>
      </trkpt>
      <trkpt lat="44.1404" lon="6.78333">
        <ele>1559</ele>
        <time>2018-07-07T12:18:07.000Z</time>
      </trkpt>
      <trkpt lat="44.1404" lon="6.78331">
        <ele>1559</ele>
        <time>2018-07-07T12:18:19.000Z</time>
      </trkpt>
      <trkpt lat="44.14041" lon="6.7833">
        <ele>1559</ele>
        <time>2018-07-07T12:18:27.000Z</time>
      </trkpt>
      <trkpt lat="44.1404" lon="6.78328">
        <ele>1559</ele>
        <time>2018-07-07T12:18:35.000Z</time>
      </trkpt>
      <trkpt lat="44.1404" lon="6.78329">
        <ele>1559</ele>
        <time>2018-07-07T12:18:41.000Z</time>
      </trkpt>
      <trkpt lat="44.14041" lon="6.7833">
        <ele>1559</ele>
        <time>2018-07-07T12:18:49.000Z</time>
      </trkpt>
      <trkpt lat="44.14042" lon="6.78331">
        <ele>1559</ele>
        <time>2018-07-07T12:18:59.000Z</time>
      </trkpt>
      <trkpt lat="44.14043" lon="6.78333">
        <ele>1559</ele>
        <time>2018-07-07T12:19:07.000Z</time>
      </trkpt>
      <trkpt lat="44.14044" lon="6.78333">
        <ele>1559</ele>
        <time>2018-07-07T12:19:15.000Z</time>
      </trkpt>
      <trkpt lat="44.14046" lon="6.78335">
        <ele>1574</ele>
        <time>2018-07-07T12:19:29.000Z</time>
      </trkpt>
      <trkpt lat="44.14044" lon="6.78336">
        <ele>1574</ele>
        <time>2018-07-07T12:19:39.000Z</time>
      </trkpt>
      <trkpt lat="44.14045" lon="6.78335">
        <ele>1574</ele>
        <time>2018-07-07T12:19:47.000Z</time>
      </trkpt>
      <trkpt lat="44.14047" lon="6.78336">
        <ele>1574</ele>
        <time>2018-07-07T12:19:49.000Z</time>
      </trkpt>
      <trkpt lat="44.14048" lon="6.78336">
        <ele>1574</ele>
        <time>2018-07-07T12:19:52.000Z</time>
      </trkpt>
      <trkpt lat="44.14049" lon="6.78336">
        <ele>1574</ele>
        <time>2018-07-07T12:19:55.000Z</time>
      </trkpt>
      <trkpt lat="44.14049" lon="6.78337">
        <ele>1574</ele>
        <time>2018-07-07T12:19:57.000Z</time>
      </trkpt>
      <trkpt lat="44.14052" lon="6.7834">
        <ele>1574</ele>
        <time>2018-07-07T12:20:00.000Z</time>
      </trkpt>
      <trkpt lat="44.14053" lon="6.78342">
        <ele>1574</ele>
        <time>2018-07-07T12:20:01.000Z</time>
      </trkpt>
      <trkpt lat="44.14057" lon="6.78352">
        <ele>1575</ele>
        <time>2018-07-07T12:20:05.000Z</time>
      </trkpt>
      <trkpt lat="44.14059" lon="6.78354">
        <ele>1575</ele>
        <time>2018-07-07T12:20:06.000Z</time>
      </trkpt>
      <trkpt lat="44.14061" lon="6.78354">
        <ele>1575</ele>
        <time>2018-07-07T12:20:07.000Z</time>
      </trkpt>
      <trkpt lat="44.14073" lon="6.78349">
        <ele>1574</ele>
        <time>2018-07-07T12:20:15.000Z</time>
      </trkpt>
      <trkpt lat="44.14084" lon="6.78347">
        <ele>1576</ele>
        <time>2018-07-07T12:20:20.000Z</time>
      </trkpt>
      <trkpt lat="44.14106" lon="6.78345">
        <ele>1580</ele>
        <time>2018-07-07T12:20:28.000Z</time>
      </trkpt>
      <trkpt lat="44.14118" lon="6.78342">
        <ele>1581</ele>
        <time>2018-07-07T12:20:33.000Z</time>
      </trkpt>
      <trkpt lat="44.14119" lon="6.78341">
        <ele>1581</ele>
        <time>2018-07-07T12:20:34.000Z</time>
      </trkpt>
      <trkpt lat="44.14121" lon="6.7834">
        <ele>1582</ele>
        <time>2018-07-07T12:20:36.000Z</time>
      </trkpt>
      <trkpt lat="44.14125" lon="6.78337">
        <ele>1582</ele>
        <time>2018-07-07T12:20:39.000Z</time>
      </trkpt>
      <trkpt lat="44.14129" lon="6.78336">
        <ele>1582</ele>
        <time>2018-07-07T12:20:43.000Z</time>
      </trkpt>
      <trkpt lat="44.14131" lon="6.78337">
        <ele>1582</ele>
        <time>2018-07-07T12:20:45.000Z</time>
      </trkpt>
      <trkpt lat="44.14132" lon="6.78338">
        <ele>1582</ele>
        <time>2018-07-07T12:20:47.000Z</time>
      </trkpt>
      <trkpt lat="44.14133" lon="6.7834">
        <ele>1583</ele>
        <time>2018-07-07T12:20:50.000Z</time>
      </trkpt>
      <trkpt lat="44.14134" lon="6.78341">
        <ele>1583</ele>
        <time>2018-07-07T12:20:53.000Z</time>
      </trkpt>
      <trkpt lat="44.14136" lon="6.78342">
        <ele>1583</ele>
        <time>2018-07-07T12:20:55.000Z</time>
      </trkpt>
      <trkpt lat="44.14144" lon="6.78345">
        <ele>1583</ele>
        <time>2018-07-07T12:21:00.000Z</time>
      </trkpt>
      <trkpt lat="44.14156" lon="6.78342">
        <ele>1583</ele>
        <time>2018-07-07T12:21:05.000Z</time>
      </trkpt>
      <trkpt lat="44.1417" lon="6.78335">
        <ele>1583</ele>
        <time>2018-07-07T12:21:08.000Z</time>
      </trkpt>
      <trkpt lat="44.14178" lon="6.78325">
        <ele>1578</ele>
        <time>2018-07-07T12:21:11.000Z</time>
      </trkpt>
      <trkpt lat="44.14179" lon="6.78322">
        <ele>1578</ele>
        <time>2018-07-07T12:21:12.000Z</time>
      </trkpt>
      <trkpt lat="44.14195" lon="6.78308">
        <ele>1576</ele>
        <time>2018-07-07T12:21:17.000Z</time>
      </trkpt>
      <trkpt lat="44.14214" lon="6.78296">
        <ele>1576</ele>
        <time>2018-07-07T12:21:22.000Z</time>
      </trkpt>
      <trkpt lat="44.14225" lon="6.78294">
        <ele>1576</ele>
        <time>2018-07-07T12:21:26.000Z</time>
      </trkpt>
      <trkpt lat="44.1424" lon="6.78287">
        <ele>1575</ele>
        <time>2018-07-07T12:21:30.000Z</time>
      </trkpt>
      <trkpt lat="44.14243" lon="6.78284">
        <ele>1575</ele>
        <time>2018-07-07T12:21:31.000Z</time>
      </trkpt>
      <trkpt lat="44.1425" lon="6.7828">
        <ele>1574</ele>
        <time>2018-07-07T12:21:33.000Z</time>
      </trkpt>
      <trkpt lat="44.14254" lon="6.78277">
        <ele>1579</ele>
        <time>2018-07-07T12:21:34.000Z</time>
      </trkpt>
      <trkpt lat="44.14259" lon="6.78274">
        <ele>1578</ele>
        <time>2018-07-07T12:21:35.000Z</time>
      </trkpt>
      <trkpt lat="44.14264" lon="6.7827">
        <ele>1578</ele>
        <time>2018-07-07T12:21:36.000Z</time>
      </trkpt>
      <trkpt lat="44.1427" lon="6.78266">
        <ele>1578</ele>
        <time>2018-07-07T12:21:37.000Z</time>
      </trkpt>
      <trkpt lat="44.14281" lon="6.7826">
        <ele>1579</ele>
        <time>2018-07-07T12:21:39.000Z</time>
      </trkpt>
      <trkpt lat="44.14291" lon="6.78255">
        <ele>1579</ele>
        <time>2018-07-07T12:21:41.000Z</time>
      </trkpt>
      <trkpt lat="44.1431" lon="6.78245">
        <ele>1566</ele>
        <time>2018-07-07T12:21:45.000Z</time>
      </trkpt>
      <trkpt lat="44.14321" lon="6.78239">
        <ele>1567</ele>
        <time>2018-07-07T12:21:49.000Z</time>
      </trkpt>
      <trkpt lat="44.14341" lon="6.78224">
        <ele>1572</ele>
        <time>2018-07-07T12:21:55.000Z</time>
      </trkpt>
      <trkpt lat="44.14355" lon="6.78215">
        <ele>1571</ele>
        <time>2018-07-07T12:22:00.000Z</time>
      </trkpt>
      <trkpt lat="44.14359" lon="6.78212">
        <ele>1571</ele>
        <time>2018-07-07T12:22:02.000Z</time>
      </trkpt>
      <trkpt lat="44.14365" lon="6.78211">
        <ele>1571</ele>
        <time>2018-07-07T12:22:05.000Z</time>
      </trkpt>
      <trkpt lat="44.14367" lon="6.7821">
        <ele>1572</ele>
        <time>2018-07-07T12:22:06.000Z</time>
      </trkpt>
      <trkpt lat="44.14373" lon="6.78206">
        <ele>1572</ele>
        <time>2018-07-07T12:22:10.000Z</time>
      </trkpt>
      <trkpt lat="44.14374" lon="6.78205">
        <ele>1571</ele>
        <time>2018-07-07T12:22:11.000Z</time>
      </trkpt>
      <trkpt lat="44.14376" lon="6.78204">
        <ele>1572</ele>
        <time>2018-07-07T12:22:12.000Z</time>
      </trkpt>
      <trkpt lat="44.14377" lon="6.78203">
        <ele>1572</ele>
        <time>2018-07-07T12:22:13.000Z</time>
      </trkpt>
      <trkpt lat="44.14381" lon="6.78199">
        <ele>1571</ele>
        <time>2018-07-07T12:22:17.000Z</time>
      </trkpt>
      <trkpt lat="44.14384" lon="6.78197">
        <ele>1571</ele>
        <time>2018-07-07T12:22:19.000Z</time>
      </trkpt>
      <trkpt lat="44.14387" lon="6.78197">
        <ele>1571</ele>
        <time>2018-07-07T12:22:21.000Z</time>
      </trkpt>
      <trkpt lat="44.14393" lon="6.78195">
        <ele>1572</ele>
        <time>2018-07-07T12:22:25.000Z</time>
      </trkpt>
      <trkpt lat="44.14398" lon="6.78191">
        <ele>1571</ele>
        <time>2018-07-07T12:22:30.000Z</time>
      </trkpt>
      <trkpt lat="44.14401" lon="6.78189">
        <ele>1571</ele>
        <time>2018-07-07T12:22:31.000Z</time>
      </trkpt>
      <trkpt lat="44.14416" lon="6.78179">
        <ele>1568</ele>
        <time>2018-07-07T12:22:37.000Z</time>
      </trkpt>
      <trkpt lat="44.14429" lon="6.7818">
        <ele>1575</ele>
        <time>2018-07-07T12:22:41.000Z</time>
      </trkpt>
      <trkpt lat="44.14444" lon="6.78176">
        <ele>1578</ele>
        <time>2018-07-07T12:22:46.000Z</time>
      </trkpt>
      <trkpt lat="44.14455" lon="6.78172">
        <ele>1579</ele>
        <time>2018-07-07T12:22:51.000Z</time>
      </trkpt>
      <trkpt lat="44.14461" lon="6.78168">
        <ele>1580</ele>
        <time>2018-07-07T12:22:54.000Z</time>
      </trkpt>
      <trkpt lat="44.14465" lon="6.78167">
        <ele>1580</ele>
        <time>2018-07-07T12:22:56.000Z</time>
      </trkpt>
      <trkpt lat="44.14469" lon="6.78167">
        <ele>1580</ele>
        <time>2018-07-07T12:22:58.000Z</time>
      </trkpt>
      <trkpt lat="44.14474" lon="6.78169">
        <ele>1580</ele>
        <time>2018-07-07T12:23:01.000Z</time>
      </trkpt>
      <trkpt lat="44.14478" lon="6.7817">
        <ele>1580</ele>
        <time>2018-07-07T12:23:03.000Z</time>
      </trkpt>
      <trkpt lat="44.14483" lon="6.78173">
        <ele>1580</ele>
        <time>2018-07-07T12:23:05.000Z</time>
      </trkpt>
      <trkpt lat="44.14486" lon="6.78178">
        <ele>1580</ele>
        <time>2018-07-07T12:23:07.000Z</time>
      </trkpt>
      <trkpt lat="44.14488" lon="6.78178">
        <ele>1580</ele>
        <time>2018-07-07T12:23:08.000Z</time>
      </trkpt>
      <trkpt lat="44.14491" lon="6.7818">
        <ele>1580</ele>
        <time>2018-07-07T12:23:09.000Z</time>
      </trkpt>
      <trkpt lat="44.14501" lon="6.78193">
        <ele>1579</ele>
        <time>2018-07-07T12:23:13.000Z</time>
      </trkpt>
      <trkpt lat="44.14504" lon="6.78196">
        <ele>1580</ele>
        <time>2018-07-07T12:23:14.000Z</time>
      </trkpt>
      <trkpt lat="44.14515" lon="6.78205">
        <ele>1580</ele>
        <time>2018-07-07T12:23:17.000Z</time>
      </trkpt>
      <trkpt lat="44.14523" lon="6.78211">
        <ele>1581</ele>
        <time>2018-07-07T12:23:19.000Z</time>
      </trkpt>
      <trkpt lat="44.14532" lon="6.78219">
        <ele>1581</ele>
        <time>2018-07-07T12:23:21.000Z</time>
      </trkpt>
      <trkpt lat="44.14534" lon="6.78222">
        <ele>1581</ele>
        <time>2018-07-07T12:23:22.000Z</time>
      </trkpt>
      <trkpt lat="44.14539" lon="6.78226">
        <ele>1581</ele>
        <time>2018-07-07T12:23:23.000Z</time>
      </trkpt>
      <trkpt lat="44.14555" lon="6.78233">
        <ele>1580</ele>
        <time>2018-07-07T12:23:26.000Z</time>
      </trkpt>
      <trkpt lat="44.14573" lon="6.78246">
        <ele>1580</ele>
        <time>2018-07-07T12:23:31.000Z</time>
      </trkpt>
      <trkpt lat="44.14581" lon="6.78257">
        <ele>1585</ele>
        <time>2018-07-07T12:23:35.000Z</time>
      </trkpt>
      <trkpt lat="44.14586" lon="6.78266">
        <ele>1577</ele>
        <time>2018-07-07T12:23:39.000Z</time>
      </trkpt>
      <trkpt lat="44.14588" lon="6.78268">
        <ele>1577</ele>
        <time>2018-07-07T12:23:40.000Z</time>
      </trkpt>
      <trkpt lat="44.14595" lon="6.78283">
        <ele>1577</ele>
        <time>2018-07-07T12:23:45.000Z</time>
      </trkpt>
      <trkpt lat="44.14599" lon="6.78294">
        <ele>1579</ele>
        <time>2018-07-07T12:23:49.000Z</time>
      </trkpt>
      <trkpt lat="44.146" lon="6.78298">
        <ele>1579</ele>
        <time>2018-07-07T12:23:51.000Z</time>
      </trkpt>
      <trkpt lat="44.14603" lon="6.78305">
        <ele>1580</ele>
        <time>2018-07-07T12:23:54.000Z</time>
      </trkpt>
      <trkpt lat="44.14604" lon="6.78308">
        <ele>1581</ele>
        <time>2018-07-07T12:23:56.000Z</time>
      </trkpt>
      <trkpt lat="44.14604" lon="6.7831">
        <ele>1582</ele>
        <time>2018-07-07T12:23:57.000Z</time>
      </trkpt>
      <trkpt lat="44.14607" lon="6.78318">
        <ele>1583</ele>
        <time>2018-07-07T12:24:01.000Z</time>
      </trkpt>
      <trkpt lat="44.14608" lon="6.7832">
        <ele>1583</ele>
        <time>2018-07-07T12:24:02.000Z</time>
      </trkpt>
      <trkpt lat="44.1461" lon="6.78327">
        <ele>1583</ele>
        <time>2018-07-07T12:24:06.000Z</time>
      </trkpt>
      <trkpt lat="44.1461" lon="6.78328">
        <ele>1583</ele>
        <time>2018-07-07T12:24:07.000Z</time>
      </trkpt>
      <trkpt lat="44.14611" lon="6.7833">
        <ele>1583</ele>
        <time>2018-07-07T12:24:08.000Z</time>
      </trkpt>
      <trkpt lat="44.14614" lon="6.78337">
        <ele>1594</ele>
        <time>2018-07-07T12:24:13.000Z</time>
      </trkpt>
      <trkpt lat="44.14616" lon="6.78346">
        <ele>1594</ele>
        <time>2018-07-07T12:24:18.000Z</time>
      </trkpt>
      <trkpt lat="44.14617" lon="6.78351">
        <ele>1593</ele>
        <time>2018-07-07T12:24:21.000Z</time>
      </trkpt>
      <trkpt lat="44.14618" lon="6.78357">
        <ele>1594</ele>
        <time>2018-07-07T12:24:24.000Z</time>
      </trkpt>
      <trkpt lat="44.14617" lon="6.78359">
        <ele>1594</ele>
        <time>2018-07-07T12:24:25.000Z</time>
      </trkpt>
      <trkpt lat="44.14617" lon="6.78368">
        <ele>1595</ele>
        <time>2018-07-07T12:24:28.000Z</time>
      </trkpt>
      <trkpt lat="44.14618" lon="6.78384">
        <ele>1596</ele>
        <time>2018-07-07T12:24:33.000Z</time>
      </trkpt>
      <trkpt lat="44.14619" lon="6.78388">
        <ele>1596</ele>
        <time>2018-07-07T12:24:38.000Z</time>
      </trkpt>
      <trkpt lat="44.14621" lon="6.78393">
        <ele>1596</ele>
        <time>2018-07-07T12:24:44.000Z</time>
      </trkpt>
      <trkpt lat="44.14624" lon="6.78396">
        <ele>1596</ele>
        <time>2018-07-07T12:24:50.000Z</time>
      </trkpt>
      <trkpt lat="44.14625" lon="6.78398">
        <ele>1596</ele>
        <time>2018-07-07T12:24:54.000Z</time>
      </trkpt>
      <trkpt lat="44.14628" lon="6.78401">
        <ele>1595</ele>
        <time>2018-07-07T12:24:59.000Z</time>
      </trkpt>
      <trkpt lat="44.14628" lon="6.78402">
        <ele>1595</ele>
        <time>2018-07-07T12:25:01.000Z</time>
      </trkpt>
      <trkpt lat="44.14631" lon="6.78405">
        <ele>1594</ele>
        <time>2018-07-07T12:25:05.000Z</time>
      </trkpt>
      <trkpt lat="44.14638" lon="6.78413">
        <ele>1592</ele>
        <time>2018-07-07T12:25:10.000Z</time>
      </trkpt>
      <trkpt lat="44.14638" lon="6.78415">
        <ele>1592</ele>
        <time>2018-07-07T12:25:11.000Z</time>
      </trkpt>
      <trkpt lat="44.14642" lon="6.7842">
        <ele>1602</ele>
        <time>2018-07-07T12:25:14.000Z</time>
      </trkpt>
      <trkpt lat="44.14646" lon="6.78425">
        <ele>1600</ele>
        <time>2018-07-07T12:25:17.000Z</time>
      </trkpt>
      <trkpt lat="44.1465" lon="6.78429">
        <ele>1599</ele>
        <time>2018-07-07T12:25:19.000Z</time>
      </trkpt>
      <trkpt lat="44.14652" lon="6.78432">
        <ele>1600</ele>
        <time>2018-07-07T12:25:21.000Z</time>
      </trkpt>
      <trkpt lat="44.14656" lon="6.78439">
        <ele>1601</ele>
        <time>2018-07-07T12:25:24.000Z</time>
      </trkpt>
      <trkpt lat="44.1466" lon="6.78445">
        <ele>1602</ele>
        <time>2018-07-07T12:25:27.000Z</time>
      </trkpt>
      <trkpt lat="44.14661" lon="6.78447">
        <ele>1603</ele>
        <time>2018-07-07T12:25:28.000Z</time>
      </trkpt>
      <trkpt lat="44.14665" lon="6.78452">
        <ele>1604</ele>
        <time>2018-07-07T12:25:31.000Z</time>
      </trkpt>
      <trkpt lat="44.14669" lon="6.78458">
        <ele>1583</ele>
        <time>2018-07-07T12:25:34.000Z</time>
      </trkpt>
      <trkpt lat="44.14678" lon="6.78474">
        <ele>1587</ele>
        <time>2018-07-07T12:25:41.000Z</time>
      </trkpt>
      <trkpt lat="44.14678" lon="6.78477">
        <ele>1587</ele>
        <time>2018-07-07T12:25:42.000Z</time>
      </trkpt>
      <trkpt lat="44.14683" lon="6.78487">
        <ele>1589</ele>
        <time>2018-07-07T12:25:46.000Z</time>
      </trkpt>
      <trkpt lat="44.14689" lon="6.78502">
        <ele>1603</ele>
        <time>2018-07-07T12:25:52.000Z</time>
      </trkpt>
      <trkpt lat="44.14697" lon="6.78522">
        <ele>1603</ele>
        <time>2018-07-07T12:25:59.000Z</time>
      </trkpt>
      <trkpt lat="44.14704" lon="6.78532">
        <ele>1603</ele>
        <time>2018-07-07T12:26:03.000Z</time>
      </trkpt>
      <trkpt lat="44.14706" lon="6.78532">
        <ele>1603</ele>
        <time>2018-07-07T12:26:04.000Z</time>
      </trkpt>
      <trkpt lat="44.14721" lon="6.78537">
        <ele>1601</ele>
        <time>2018-07-07T12:26:10.000Z</time>
      </trkpt>
      <trkpt lat="44.14746" lon="6.78544">
        <ele>1600</ele>
        <time>2018-07-07T12:26:16.000Z</time>
      </trkpt>
      <trkpt lat="44.14758" lon="6.78548">
        <ele>1584</ele>
        <time>2018-07-07T12:26:19.000Z</time>
      </trkpt>
      <trkpt lat="44.14765" lon="6.7855">
        <ele>1584</ele>
        <time>2018-07-07T12:26:21.000Z</time>
      </trkpt>
      <trkpt lat="44.14775" lon="6.78557">
        <ele>1584</ele>
        <time>2018-07-07T12:26:24.000Z</time>
      </trkpt>
      <trkpt lat="44.14782" lon="6.78566">
        <ele>1584</ele>
        <time>2018-07-07T12:26:26.000Z</time>
      </trkpt>
      <trkpt lat="44.14787" lon="6.78569">
        <ele>1583</ele>
        <time>2018-07-07T12:26:27.000Z</time>
      </trkpt>
      <trkpt lat="44.14792" lon="6.78572">
        <ele>1583</ele>
        <time>2018-07-07T12:26:28.000Z</time>
      </trkpt>
      <trkpt lat="44.148" lon="6.78577">
        <ele>1582</ele>
        <time>2018-07-07T12:26:30.000Z</time>
      </trkpt>
      <trkpt lat="44.14806" lon="6.78578">
        <ele>1581</ele>
        <time>2018-07-07T12:26:32.000Z</time>
      </trkpt>
      <trkpt lat="44.14811" lon="6.7858">
        <ele>1581</ele>
        <time>2018-07-07T12:26:34.000Z</time>
      </trkpt>
      <trkpt lat="44.14817" lon="6.78589">
        <ele>1595</ele>
        <time>2018-07-07T12:26:37.000Z</time>
      </trkpt>
      <trkpt lat="44.1482" lon="6.78591">
        <ele>1594</ele>
        <time>2018-07-07T12:26:38.000Z</time>
      </trkpt>
      <trkpt lat="44.14839" lon="6.78608">
        <ele>1584</ele>
        <time>2018-07-07T12:26:45.000Z</time>
      </trkpt>
      <trkpt lat="44.14849" lon="6.7862">
        <ele>1585</ele>
        <time>2018-07-07T12:26:49.000Z</time>
      </trkpt>
      <trkpt lat="44.1486" lon="6.78639">
        <ele>1588</ele>
        <time>2018-07-07T12:26:53.000Z</time>
      </trkpt>
      <trkpt lat="44.1487" lon="6.78649">
        <ele>1587</ele>
        <time>2018-07-07T12:26:55.000Z</time>
      </trkpt>
      <trkpt lat="44.14881" lon="6.7866">
        <ele>1586</ele>
        <time>2018-07-07T12:26:57.000Z</time>
      </trkpt>
      <trkpt lat="44.1489" lon="6.78669">
        <ele>1596</ele>
        <time>2018-07-07T12:26:59.000Z</time>
      </trkpt>
      <trkpt lat="44.14893" lon="6.78675">
        <ele>1595</ele>
        <time>2018-07-07T12:27:00.000Z</time>
      </trkpt>
      <trkpt lat="44.14896" lon="6.7868">
        <ele>1595</ele>
        <time>2018-07-07T12:27:01.000Z</time>
      </trkpt>
      <trkpt lat="44.14899" lon="6.78686">
        <ele>1595</ele>
        <time>2018-07-07T12:27:02.000Z</time>
      </trkpt>
      <trkpt lat="44.14902" lon="6.78693">
        <ele>1596</ele>
        <time>2018-07-07T12:27:03.000Z</time>
      </trkpt>
      <trkpt lat="44.14906" lon="6.78706">
        <ele>1598</ele>
        <time>2018-07-07T12:27:05.000Z</time>
      </trkpt>
      <trkpt lat="44.14908" lon="6.78714">
        <ele>1599</ele>
        <time>2018-07-07T12:27:06.000Z</time>
      </trkpt>
      <trkpt lat="44.14917" lon="6.78727">
        <ele>1582</ele>
        <time>2018-07-07T12:27:08.000Z</time>
      </trkpt>
      <trkpt lat="44.14923" lon="6.7874">
        <ele>1586</ele>
        <time>2018-07-07T12:27:10.000Z</time>
      </trkpt>
      <trkpt lat="44.14927" lon="6.78747">
        <ele>1587</ele>
        <time>2018-07-07T12:27:12.000Z</time>
      </trkpt>
      <trkpt lat="44.14931" lon="6.7875">
        <ele>1585</ele>
        <time>2018-07-07T12:27:16.000Z</time>
      </trkpt>
      <trkpt lat="44.14939" lon="6.78746">
        <ele>1581</ele>
        <time>2018-07-07T12:27:19.000Z</time>
      </trkpt>
      <trkpt lat="44.14941" lon="6.78745">
        <ele>1580</ele>
        <time>2018-07-07T12:27:20.000Z</time>
      </trkpt>
      <trkpt lat="44.14942" lon="6.78746">
        <ele>1580</ele>
        <time>2018-07-07T12:27:21.000Z</time>
      </trkpt>
      <trkpt lat="44.14942" lon="6.78747">
        <ele>1580</ele>
        <time>2018-07-07T12:27:22.000Z</time>
      </trkpt>
      <trkpt lat="44.14943" lon="6.78748">
        <ele>1580</ele>
        <time>2018-07-07T12:27:24.000Z</time>
      </trkpt>
      <trkpt lat="44.14943" lon="6.78748">
        <ele>1580</ele>
        <time>2018-07-07T12:27:26.000Z</time>
      </trkpt>
      <trkpt lat="44.14943" lon="6.78748">
        <ele>1580</ele>
        <time>2018-07-07T12:27:27.000Z</time>
      </trkpt>
      <trkpt lat="44.14944" lon="6.78751">
        <ele>1588</ele>
        <time>2018-07-07T12:27:31.000Z</time>
      </trkpt>
      <trkpt lat="44.14945" lon="6.78752">
        <ele>1588</ele>
        <time>2018-07-07T12:27:32.000Z</time>
      </trkpt>
      <trkpt lat="44.1495" lon="6.78754">
        <ele>1587</ele>
        <time>2018-07-07T12:27:38.000Z</time>
      </trkpt>
      <trkpt lat="44.14956" lon="6.78748">
        <ele>1576</ele>
        <time>2018-07-07T12:27:43.000Z</time>
      </trkpt>
      <trkpt lat="44.14966" lon="6.78743">
        <ele>1573</ele>
        <time>2018-07-07T12:27:46.000Z</time>
      </trkpt>
      <trkpt lat="44.14968" lon="6.78742">
        <ele>1573</ele>
        <time>2018-07-07T12:27:47.000Z</time>
      </trkpt>
      <trkpt lat="44.1497" lon="6.78741">
        <ele>1572</ele>
        <time>2018-07-07T12:27:49.000Z</time>
      </trkpt>
      <trkpt lat="44.1497" lon="6.78741">
        <ele>1572</ele>
        <time>2018-07-07T12:27:51.000Z</time>
      </trkpt>
      <trkpt lat="44.14972" lon="6.78743">
        <ele>1572</ele>
        <time>2018-07-07T12:27:58.000Z</time>
      </trkpt>
      <trkpt lat="44.14972" lon="6.78743">
        <ele>1572</ele>
        <time>2018-07-07T12:27:59.000Z</time>
      </trkpt>
      <trkpt lat="44.14972" lon="6.78744">
        <ele>1572</ele>
        <time>2018-07-07T12:28:05.000Z</time>
      </trkpt>
      <trkpt lat="44.14973" lon="6.78746">
        <ele>1572</ele>
        <time>2018-07-07T12:28:15.000Z</time>
      </trkpt>
      <trkpt lat="44.14972" lon="6.78746">
        <ele>1572</ele>
        <time>2018-07-07T12:28:21.000Z</time>
      </trkpt>
      <trkpt lat="44.14972" lon="6.78747">
        <ele>1572</ele>
        <time>2018-07-07T12:28:28.000Z</time>
      </trkpt>
      <trkpt lat="44.14971" lon="6.78747">
        <ele>1572</ele>
        <time>2018-07-07T12:28:29.000Z</time>
      </trkpt>
      <trkpt lat="44.1497" lon="6.78747">
        <ele>1573</ele>
        <time>2018-07-07T12:28:31.000Z</time>
      </trkpt>
      <trkpt lat="44.14972" lon="6.78746">
        <ele>1572</ele>
        <time>2018-07-07T12:28:37.000Z</time>
      </trkpt>
      <trkpt lat="44.14981" lon="6.78738">
        <ele>1570</ele>
        <time>2018-07-07T12:28:41.000Z</time>
      </trkpt>
      <trkpt lat="44.14982" lon="6.78734">
        <ele>1570</ele>
        <time>2018-07-07T12:28:42.000Z</time>
      </trkpt>
      <trkpt lat="44.14984" lon="6.78731">
        <ele>1570</ele>
        <time>2018-07-07T12:28:43.000Z</time>
      </trkpt>
      <trkpt lat="44.14984" lon="6.7873">
        <ele>1570</ele>
        <time>2018-07-07T12:28:45.000Z</time>
      </trkpt>
      <trkpt lat="44.14984" lon="6.78731">
        <ele>1570</ele>
        <time>2018-07-07T12:28:46.000Z</time>
      </trkpt>
      <trkpt lat="44.14984" lon="6.78731">
        <ele>1570</ele>
        <time>2018-07-07T12:28:56.000Z</time>
      </trkpt>
      <trkpt lat="44.14987" lon="6.78725">
        <ele>1570</ele>
        <time>2018-07-07T12:29:00.000Z</time>
      </trkpt>
      <trkpt lat="44.14991" lon="6.78714">
        <ele>1569</ele>
        <time>2018-07-07T12:29:04.000Z</time>
      </trkpt>
      <trkpt lat="44.14995" lon="6.78709">
        <ele>1568</ele>
        <time>2018-07-07T12:29:07.000Z</time>
      </trkpt>
      <trkpt lat="44.14996" lon="6.78702">
        <ele>1567</ele>
        <time>2018-07-07T12:29:10.000Z</time>
      </trkpt>
      <trkpt lat="44.14996" lon="6.78698">
        <ele>1566</ele>
        <time>2018-07-07T12:29:11.000Z</time>
      </trkpt>
      <trkpt lat="44.14996" lon="6.78692">
        <ele>1564</ele>
        <time>2018-07-07T12:29:13.000Z</time>
      </trkpt>
      <trkpt lat="44.14996" lon="6.78687">
        <ele>1563</ele>
        <time>2018-07-07T12:29:15.000Z</time>
      </trkpt>
      <trkpt lat="44.14995" lon="6.78678">
        <ele>1560</ele>
        <time>2018-07-07T12:29:17.000Z</time>
      </trkpt>
      <trkpt lat="44.14991" lon="6.78669">
        <ele>1558</ele>
        <time>2018-07-07T12:29:19.000Z</time>
      </trkpt>
      <trkpt lat="44.1499" lon="6.78666">
        <ele>1554</ele>
        <time>2018-07-07T12:29:20.000Z</time>
      </trkpt>
      <trkpt lat="44.14989" lon="6.78658">
        <ele>1555</ele>
        <time>2018-07-07T12:29:22.000Z</time>
      </trkpt>
      <trkpt lat="44.14989" lon="6.78655">
        <ele>1555</ele>
        <time>2018-07-07T12:29:23.000Z</time>
      </trkpt>
      <trkpt lat="44.14989" lon="6.78652">
        <ele>1555</ele>
        <time>2018-07-07T12:29:24.000Z</time>
      </trkpt>
      <trkpt lat="44.14988" lon="6.78643">
        <ele>1556</ele>
        <time>2018-07-07T12:29:26.000Z</time>
      </trkpt>
      <trkpt lat="44.14987" lon="6.78638">
        <ele>1556</ele>
        <time>2018-07-07T12:29:28.000Z</time>
      </trkpt>
      <trkpt lat="44.14983" lon="6.78625">
        <ele>1556</ele>
        <time>2018-07-07T12:29:31.000Z</time>
      </trkpt>
      <trkpt lat="44.14979" lon="6.78621">
        <ele>1556</ele>
        <time>2018-07-07T12:29:33.000Z</time>
      </trkpt>
      <trkpt lat="44.14976" lon="6.78615">
        <ele>1556</ele>
        <time>2018-07-07T12:29:35.000Z</time>
      </trkpt>
      <trkpt lat="44.14975" lon="6.7861">
        <ele>1555</ele>
        <time>2018-07-07T12:29:37.000Z</time>
      </trkpt>
      <trkpt lat="44.14974" lon="6.78603">
        <ele>1555</ele>
        <time>2018-07-07T12:29:39.000Z</time>
      </trkpt>
      <trkpt lat="44.14974" lon="6.78599">
        <ele>1555</ele>
        <time>2018-07-07T12:29:41.000Z</time>
      </trkpt>
      <trkpt lat="44.14974" lon="6.78595">
        <ele>1554</ele>
        <time>2018-07-07T12:29:43.000Z</time>
      </trkpt>
      <trkpt lat="44.14973" lon="6.78592">
        <ele>1554</ele>
        <time>2018-07-07T12:29:44.000Z</time>
      </trkpt>
      <trkpt lat="44.14975" lon="6.78595">
        <ele>1554</ele>
        <time>2018-07-07T12:29:47.000Z</time>
      </trkpt>
      <trkpt lat="44.14976" lon="6.78598">
        <ele>1554</ele>
        <time>2018-07-07T12:29:50.000Z</time>
      </trkpt>
      <trkpt lat="44.14977" lon="6.78598">
        <ele>1554</ele>
        <time>2018-07-07T12:29:52.000Z</time>
      </trkpt>
      <trkpt lat="44.1498" lon="6.78601">
        <ele>1554</ele>
        <time>2018-07-07T12:29:58.000Z</time>
      </trkpt>
      <trkpt lat="44.14982" lon="6.78601">
        <ele>1553</ele>
        <time>2018-07-07T12:29:59.000Z</time>
      </trkpt>
      <trkpt lat="44.14989" lon="6.78599">
        <ele>1552</ele>
        <time>2018-07-07T12:30:02.000Z</time>
      </trkpt>
      <trkpt lat="44.14988" lon="6.786">
        <ele>1552</ele>
        <time>2018-07-07T12:30:03.000Z</time>
      </trkpt>
      <trkpt lat="44.14988" lon="6.78596">
        <ele>1552</ele>
        <time>2018-07-07T12:30:04.000Z</time>
      </trkpt>
      <trkpt lat="44.14985" lon="6.78586">
        <ele>1551</ele>
        <time>2018-07-07T12:30:06.000Z</time>
      </trkpt>
      <trkpt lat="44.1498" lon="6.78572">
        <ele>1544</ele>
        <time>2018-07-07T12:30:09.000Z</time>
      </trkpt>
      <trkpt lat="44.1498" lon="6.78564">
        <ele>1544</ele>
        <time>2018-07-07T12:30:11.000Z</time>
      </trkpt>
      <trkpt lat="44.14983" lon="6.78563">
        <ele>1544</ele>
        <time>2018-07-07T12:30:12.000Z</time>
      </trkpt>
      <trkpt lat="44.14985" lon="6.7856">
        <ele>1543</ele>
        <time>2018-07-07T12:30:14.000Z</time>
      </trkpt>
      <trkpt lat="44.14986" lon="6.78558">
        <ele>1543</ele>
        <time>2018-07-07T12:30:15.000Z</time>
      </trkpt>
      <trkpt lat="44.14986" lon="6.78556">
        <ele>1543</ele>
        <time>2018-07-07T12:30:19.000Z</time>
      </trkpt>
      <trkpt lat="44.14986" lon="6.78556">
        <ele>1543</ele>
        <time>2018-07-07T12:30:22.000Z</time>
      </trkpt>
      <trkpt lat="44.14986" lon="6.78552">
        <ele>1543</ele>
        <time>2018-07-07T12:30:30.000Z</time>
      </trkpt>
      <trkpt lat="44.14988" lon="6.78551">
        <ele>1542</ele>
        <time>2018-07-07T12:30:37.000Z</time>
      </trkpt>
      <trkpt lat="44.14992" lon="6.78547">
        <ele>1542</ele>
        <time>2018-07-07T12:30:45.000Z</time>
      </trkpt>
      <trkpt lat="44.14993" lon="6.78547">
        <ele>1542</ele>
        <time>2018-07-07T12:30:47.000Z</time>
      </trkpt>
      <trkpt lat="44.14993" lon="6.78546">
        <ele>1542</ele>
        <time>2018-07-07T12:30:50.000Z</time>
      </trkpt>
      <trkpt lat="44.14995" lon="6.78544">
        <ele>1542</ele>
        <time>2018-07-07T12:30:54.000Z</time>
      </trkpt>
      <trkpt lat="44.14995" lon="6.78544">
        <ele>1542</ele>
        <time>2018-07-07T12:30:56.000Z</time>
      </trkpt>
      <trkpt lat="44.14997" lon="6.78539">
        <ele>1541</ele>
        <time>2018-07-07T12:31:00.000Z</time>
      </trkpt>
      <trkpt lat="44.14998" lon="6.78537">
        <ele>1541</ele>
        <time>2018-07-07T12:31:03.000Z</time>
      </trkpt>
      <trkpt lat="44.14998" lon="6.78535">
        <ele>1541</ele>
        <time>2018-07-07T12:31:04.000Z</time>
      </trkpt>
      <trkpt lat="44.14997" lon="6.78534">
        <ele>1541</ele>
        <time>2018-07-07T12:31:08.000Z</time>
      </trkpt>
      <trkpt lat="44.14996" lon="6.78533">
        <ele>1540</ele>
        <time>2018-07-07T12:31:09.000Z</time>
      </trkpt>
      <trkpt lat="44.14997" lon="6.7853">
        <ele>1540</ele>
        <time>2018-07-07T12:31:11.000Z</time>
      </trkpt>
      <trkpt lat="44.14999" lon="6.7852">
        <ele>1538</ele>
        <time>2018-07-07T12:31:15.000Z</time>
      </trkpt>
      <trkpt lat="44.14998" lon="6.78517">
        <ele>1538</ele>
        <time>2018-07-07T12:31:16.000Z</time>
      </trkpt>
      <trkpt lat="44.14999" lon="6.78514">
        <ele>1537</ele>
        <time>2018-07-07T12:31:17.000Z</time>
      </trkpt>
      <trkpt lat="44.15001" lon="6.78497">
        <ele>1537</ele>
        <time>2018-07-07T12:31:22.000Z</time>
      </trkpt>
      <trkpt lat="44.14996" lon="6.78484">
        <ele>1534</ele>
        <time>2018-07-07T12:31:26.000Z</time>
      </trkpt>
      <trkpt lat="44.14996" lon="6.78481">
        <ele>1534</ele>
        <time>2018-07-07T12:31:27.000Z</time>
      </trkpt>
      <trkpt lat="44.14994" lon="6.78475">
        <ele>1534</ele>
        <time>2018-07-07T12:31:30.000Z</time>
      </trkpt>
      <trkpt lat="44.14991" lon="6.78468">
        <ele>1534</ele>
        <time>2018-07-07T12:31:35.000Z</time>
      </trkpt>
      <trkpt lat="44.14986" lon="6.78456">
        <ele>1535</ele>
        <time>2018-07-07T12:31:41.000Z</time>
      </trkpt>
      <trkpt lat="44.14979" lon="6.78442">
        <ele>1535</ele>
        <time>2018-07-07T12:31:45.000Z</time>
      </trkpt>
      <trkpt lat="44.14972" lon="6.78428">
        <ele>1535</ele>
        <time>2018-07-07T12:31:49.000Z</time>
      </trkpt>
      <trkpt lat="44.1497" lon="6.78426">
        <ele>1535</ele>
        <time>2018-07-07T12:31:50.000Z</time>
      </trkpt>
      <trkpt lat="44.14965" lon="6.78415">
        <ele>1541</ele>
        <time>2018-07-07T12:31:54.000Z</time>
      </trkpt>
      <trkpt lat="44.14962" lon="6.78408">
        <ele>1541</ele>
        <time>2018-07-07T12:31:57.000Z</time>
      </trkpt>
      <trkpt lat="44.1496" lon="6.78405">
        <ele>1541</ele>
        <time>2018-07-07T12:31:58.000Z</time>
      </trkpt>
      <trkpt lat="44.14955" lon="6.78396">
        <ele>1541</ele>
        <time>2018-07-07T12:32:03.000Z</time>
      </trkpt>
      <trkpt lat="44.14953" lon="6.78394">
        <ele>1541</ele>
        <time>2018-07-07T12:32:05.000Z</time>
      </trkpt>
      <trkpt lat="44.14948" lon="6.7839">
        <ele>1540</ele>
        <time>2018-07-07T12:32:09.000Z</time>
      </trkpt>
      <trkpt lat="44.1494" lon="6.78386">
        <ele>1540</ele>
        <time>2018-07-07T12:32:14.000Z</time>
      </trkpt>
      <trkpt lat="44.14938" lon="6.78384">
        <ele>1540</ele>
        <time>2018-07-07T12:32:16.000Z</time>
      </trkpt>
      <trkpt lat="44.14937" lon="6.78382">
        <ele>1540</ele>
        <time>2018-07-07T12:32:18.000Z</time>
      </trkpt>
      <trkpt lat="44.1493" lon="6.78379">
        <ele>1539</ele>
        <time>2018-07-07T12:32:22.000Z</time>
      </trkpt>
      <trkpt lat="44.14925" lon="6.78374">
        <ele>1540</ele>
        <time>2018-07-07T12:32:25.000Z</time>
      </trkpt>
      <trkpt lat="44.14921" lon="6.78369">
        <ele>1541</ele>
        <time>2018-07-07T12:32:28.000Z</time>
      </trkpt>
      <trkpt lat="44.14918" lon="6.78366">
        <ele>1541</ele>
        <time>2018-07-07T12:32:30.000Z</time>
      </trkpt>
      <trkpt lat="44.14913" lon="6.78364">
        <ele>1526</ele>
        <time>2018-07-07T12:32:34.000Z</time>
      </trkpt>
      <trkpt lat="44.14904" lon="6.78357">
        <ele>1527</ele>
        <time>2018-07-07T12:32:40.000Z</time>
      </trkpt>
      <trkpt lat="44.14902" lon="6.78356">
        <ele>1527</ele>
        <time>2018-07-07T12:32:42.000Z</time>
      </trkpt>
      <trkpt lat="44.14899" lon="6.78353">
        <ele>1527</ele>
        <time>2018-07-07T12:32:44.000Z</time>
      </trkpt>
      <trkpt lat="44.14897" lon="6.78351">
        <ele>1527</ele>
        <time>2018-07-07T12:32:46.000Z</time>
      </trkpt>
      <trkpt lat="44.14895" lon="6.7835">
        <ele>1526</ele>
        <time>2018-07-07T12:32:49.000Z</time>
      </trkpt>
      <trkpt lat="44.14894" lon="6.78349">
        <ele>1526</ele>
        <time>2018-07-07T12:32:50.000Z</time>
      </trkpt>
      <trkpt lat="44.1489" lon="6.78346">
        <ele>1526</ele>
        <time>2018-07-07T12:32:54.000Z</time>
      </trkpt>
      <trkpt lat="44.14888" lon="6.78344">
        <ele>1525</ele>
        <time>2018-07-07T12:32:56.000Z</time>
      </trkpt>
      <trkpt lat="44.14887" lon="6.78343">
        <ele>1525</ele>
        <time>2018-07-07T12:32:57.000Z</time>
      </trkpt>
      <trkpt lat="44.14877" lon="6.78333">
        <ele>1532</ele>
        <time>2018-07-07T12:33:05.000Z</time>
      </trkpt>
      <trkpt lat="44.14868" lon="6.78319">
        <ele>1530</ele>
        <time>2018-07-07T12:33:12.000Z</time>
      </trkpt>
      <trkpt lat="44.14867" lon="6.78314">
        <ele>1530</ele>
        <time>2018-07-07T12:33:16.000Z</time>
      </trkpt>
      <trkpt lat="44.14866" lon="6.78309">
        <ele>1531</ele>
        <time>2018-07-07T12:33:18.000Z</time>
      </trkpt>
      <trkpt lat="44.14863" lon="6.78302">
        <ele>1531</ele>
        <time>2018-07-07T12:33:22.000Z</time>
      </trkpt>
      <trkpt lat="44.14863" lon="6.78301">
        <ele>1531</ele>
        <time>2018-07-07T12:33:23.000Z</time>
      </trkpt>
      <trkpt lat="44.1486" lon="6.78296">
        <ele>1531</ele>
        <time>2018-07-07T12:33:27.000Z</time>
      </trkpt>
      <trkpt lat="44.14859" lon="6.78292">
        <ele>1531</ele>
        <time>2018-07-07T12:33:29.000Z</time>
      </trkpt>
      <trkpt lat="44.1486" lon="6.78284">
        <ele>1532</ele>
        <time>2018-07-07T12:33:32.000Z</time>
      </trkpt>
      <trkpt lat="44.1486" lon="6.78281">
        <ele>1532</ele>
        <time>2018-07-07T12:33:34.000Z</time>
      </trkpt>
      <trkpt lat="44.14859" lon="6.78273">
        <ele>1532</ele>
        <time>2018-07-07T12:33:37.000Z</time>
      </trkpt>
      <trkpt lat="44.1486" lon="6.78271">
        <ele>1533</ele>
        <time>2018-07-07T12:33:39.000Z</time>
      </trkpt>
      <trkpt lat="44.1486" lon="6.78265">
        <ele>1533</ele>
        <time>2018-07-07T12:33:42.000Z</time>
      </trkpt>
      <trkpt lat="44.14861" lon="6.78259">
        <ele>1533</ele>
        <time>2018-07-07T12:33:44.000Z</time>
      </trkpt>
      <trkpt lat="44.14862" lon="6.78256">
        <ele>1533</ele>
        <time>2018-07-07T12:33:45.000Z</time>
      </trkpt>
      <trkpt lat="44.14862" lon="6.78235">
        <ele>1543</ele>
        <time>2018-07-07T12:33:51.000Z</time>
      </trkpt>
      <trkpt lat="44.14863" lon="6.78214">
        <ele>1545</ele>
        <time>2018-07-07T12:33:56.000Z</time>
      </trkpt>
      <trkpt lat="44.14861" lon="6.78186">
        <ele>1545</ele>
        <time>2018-07-07T12:34:02.000Z</time>
      </trkpt>
      <trkpt lat="44.14854" lon="6.78163">
        <ele>1544</ele>
        <time>2018-07-07T12:34:07.000Z</time>
      </trkpt>
      <trkpt lat="44.1485" lon="6.7815">
        <ele>1544</ele>
        <time>2018-07-07T12:34:12.000Z</time>
      </trkpt>
      <trkpt lat="44.14844" lon="6.78132">
        <ele>1545</ele>
        <time>2018-07-07T12:34:17.000Z</time>
      </trkpt>
      <trkpt lat="44.14842" lon="6.78108">
        <ele>1543</ele>
        <time>2018-07-07T12:34:22.000Z</time>
      </trkpt>
      <trkpt lat="44.1485" lon="6.78092">
        <ele>1542</ele>
        <time>2018-07-07T12:34:26.000Z</time>
      </trkpt>
      <trkpt lat="44.1486" lon="6.78075">
        <ele>1545</ele>
        <time>2018-07-07T12:34:31.000Z</time>
      </trkpt>
      <trkpt lat="44.14867" lon="6.78061">
        <ele>1548</ele>
        <time>2018-07-07T12:34:34.000Z</time>
      </trkpt>
      <trkpt lat="44.14872" lon="6.78049">
        <ele>1549</ele>
        <time>2018-07-07T12:34:36.000Z</time>
      </trkpt>
      <trkpt lat="44.14874" lon="6.78044">
        <ele>1550</ele>
        <time>2018-07-07T12:34:37.000Z</time>
      </trkpt>
      <trkpt lat="44.14876" lon="6.78013">
        <ele>1550</ele>
        <time>2018-07-07T12:34:42.000Z</time>
      </trkpt>
      <trkpt lat="44.14867" lon="6.77993">
        <ele>1550</ele>
        <time>2018-07-07T12:34:46.000Z</time>
      </trkpt>
      <trkpt lat="44.14864" lon="6.77988">
        <ele>1549</ele>
        <time>2018-07-07T12:34:47.000Z</time>
      </trkpt>
      <trkpt lat="44.14862" lon="6.77983">
        <ele>1549</ele>
        <time>2018-07-07T12:34:48.000Z</time>
      </trkpt>
      <trkpt lat="44.14852" lon="6.77965">
        <ele>1548</ele>
        <time>2018-07-07T12:34:52.000Z</time>
      </trkpt>
      <trkpt lat="44.14838" lon="6.77937">
        <ele>1546</ele>
        <time>2018-07-07T12:34:58.000Z</time>
      </trkpt>
      <trkpt lat="44.14838" lon="6.77931">
        <ele>1544</ele>
        <time>2018-07-07T12:34:59.000Z</time>
      </trkpt>
      <trkpt lat="44.14838" lon="6.7792">
        <ele>1540</ele>
        <time>2018-07-07T12:35:01.000Z</time>
      </trkpt>
      <trkpt lat="44.14838" lon="6.77909">
        <ele>1545</ele>
        <time>2018-07-07T12:35:03.000Z</time>
      </trkpt>
      <trkpt lat="44.1484" lon="6.77898">
        <ele>1551</ele>
        <time>2018-07-07T12:35:05.000Z</time>
      </trkpt>
      <trkpt lat="44.14844" lon="6.77872">
        <ele>1557</ele>
        <time>2018-07-07T12:35:10.000Z</time>
      </trkpt>
      <trkpt lat="44.14842" lon="6.77857">
        <ele>1555</ele>
        <time>2018-07-07T12:35:13.000Z</time>
      </trkpt>
      <trkpt lat="44.14843" lon="6.77847">
        <ele>1553</ele>
        <time>2018-07-07T12:35:15.000Z</time>
      </trkpt>
      <trkpt lat="44.1484" lon="6.77824">
        <ele>1552</ele>
        <time>2018-07-07T12:35:19.000Z</time>
      </trkpt>
      <trkpt lat="44.14836" lon="6.77814">
        <ele>1556</ele>
        <time>2018-07-07T12:35:21.000Z</time>
      </trkpt>
      <trkpt lat="44.14833" lon="6.77809">
        <ele>1533</ele>
        <time>2018-07-07T12:35:22.000Z</time>
      </trkpt>
      <trkpt lat="44.1483" lon="6.77807">
        <ele>1532</ele>
        <time>2018-07-07T12:35:23.000Z</time>
      </trkpt>
      <trkpt lat="44.14821" lon="6.77795">
        <ele>1530</ele>
        <time>2018-07-07T12:35:27.000Z</time>
      </trkpt>
      <trkpt lat="44.14817" lon="6.77786">
        <ele>1530</ele>
        <time>2018-07-07T12:35:31.000Z</time>
      </trkpt>
      <trkpt lat="44.14814" lon="6.77779">
        <ele>1530</ele>
        <time>2018-07-07T12:35:33.000Z</time>
      </trkpt>
      <trkpt lat="44.14813" lon="6.7776">
        <ele>1533</ele>
        <time>2018-07-07T12:35:38.000Z</time>
      </trkpt>
      <trkpt lat="44.14815" lon="6.77742">
        <ele>1533</ele>
        <time>2018-07-07T12:35:42.000Z</time>
      </trkpt>
      <trkpt lat="44.14821" lon="6.77716">
        <ele>1530</ele>
        <time>2018-07-07T12:35:49.000Z</time>
      </trkpt>
      <trkpt lat="44.14825" lon="6.77691">
        <ele>1531</ele>
        <time>2018-07-07T12:35:54.000Z</time>
      </trkpt>
      <trkpt lat="44.14832" lon="6.77662">
        <ele>1538</ele>
        <time>2018-07-07T12:35:58.000Z</time>
      </trkpt>
      <trkpt lat="44.14833" lon="6.77655">
        <ele>1534</ele>
        <time>2018-07-07T12:35:59.000Z</time>
      </trkpt>
      <trkpt lat="44.1483" lon="6.7764">
        <ele>1528</ele>
        <time>2018-07-07T12:36:02.000Z</time>
      </trkpt>
      <trkpt lat="44.14826" lon="6.77624">
        <ele>1526</ele>
        <time>2018-07-07T12:36:05.000Z</time>
      </trkpt>
      <trkpt lat="44.14825" lon="6.77619">
        <ele>1525</ele>
        <time>2018-07-07T12:36:06.000Z</time>
      </trkpt>
      <trkpt lat="44.14823" lon="6.77595">
        <ele>1528</ele>
        <time>2018-07-07T12:36:12.000Z</time>
      </trkpt>
      <trkpt lat="44.14827" lon="6.77586">
        <ele>1533</ele>
        <time>2018-07-07T12:36:15.000Z</time>
      </trkpt>
      <trkpt lat="44.14829" lon="6.77583">
        <ele>1532</ele>
        <time>2018-07-07T12:36:16.000Z</time>
      </trkpt>
      <trkpt lat="44.14833" lon="6.77577">
        <ele>1530</ele>
        <time>2018-07-07T12:36:18.000Z</time>
      </trkpt>
      <trkpt lat="44.14839" lon="6.77569">
        <ele>1536</ele>
        <time>2018-07-07T12:36:21.000Z</time>
      </trkpt>
      <trkpt lat="44.14849" lon="6.77563">
        <ele>1536</ele>
        <time>2018-07-07T12:36:24.000Z</time>
      </trkpt>
      <trkpt lat="44.14867" lon="6.7755">
        <ele>1537</ele>
        <time>2018-07-07T12:36:30.000Z</time>
      </trkpt>
      <trkpt lat="44.14884" lon="6.77532">
        <ele>1536</ele>
        <time>2018-07-07T12:36:36.000Z</time>
      </trkpt>
      <trkpt lat="44.14896" lon="6.77519">
        <ele>1535</ele>
        <time>2018-07-07T12:36:40.000Z</time>
      </trkpt>
      <trkpt lat="44.14904" lon="6.7751">
        <ele>1534</ele>
        <time>2018-07-07T12:36:42.000Z</time>
      </trkpt>
      <trkpt lat="44.1491" lon="6.77506">
        <ele>1534</ele>
        <time>2018-07-07T12:36:43.000Z</time>
      </trkpt>
      <trkpt lat="44.14915" lon="6.77505">
        <ele>1534</ele>
        <time>2018-07-07T12:36:44.000Z</time>
      </trkpt>
      <trkpt lat="44.1492" lon="6.77503">
        <ele>1536</ele>
        <time>2018-07-07T12:36:45.000Z</time>
      </trkpt>
      <trkpt lat="44.14933" lon="6.77493">
        <ele>1531</ele>
        <time>2018-07-07T12:36:48.000Z</time>
      </trkpt>
      <trkpt lat="44.14937" lon="6.7749">
        <ele>1530</ele>
        <time>2018-07-07T12:36:49.000Z</time>
      </trkpt>
      <trkpt lat="44.14941" lon="6.77488">
        <ele>1530</ele>
        <time>2018-07-07T12:36:50.000Z</time>
      </trkpt>
      <trkpt lat="44.14945" lon="6.77485">
        <ele>1530</ele>
        <time>2018-07-07T12:36:52.000Z</time>
      </trkpt>
      <trkpt lat="44.14946" lon="6.77484">
        <ele>1530</ele>
        <time>2018-07-07T12:36:55.000Z</time>
      </trkpt>
      <trkpt lat="44.14947" lon="6.77484">
        <ele>1530</ele>
        <time>2018-07-07T12:36:56.000Z</time>
      </trkpt>
      <trkpt lat="44.14949" lon="6.7748">
        <ele>1529</ele>
        <time>2018-07-07T12:36:59.000Z</time>
      </trkpt>
      <trkpt lat="44.14952" lon="6.77475">
        <ele>1529</ele>
        <time>2018-07-07T12:37:01.000Z</time>
      </trkpt>
      <trkpt lat="44.14955" lon="6.77471">
        <ele>1529</ele>
        <time>2018-07-07T12:37:03.000Z</time>
      </trkpt>
      <trkpt lat="44.14963" lon="6.77462">
        <ele>1528</ele>
        <time>2018-07-07T12:37:06.000Z</time>
      </trkpt>
      <trkpt lat="44.14973" lon="6.77454">
        <ele>1527</ele>
        <time>2018-07-07T12:37:09.000Z</time>
      </trkpt>
      <trkpt lat="44.14974" lon="6.77454">
        <ele>1527</ele>
        <time>2018-07-07T12:37:10.000Z</time>
      </trkpt>
      <trkpt lat="44.14985" lon="6.77453">
        <ele>1527</ele>
        <time>2018-07-07T12:37:14.000Z</time>
      </trkpt>
      <trkpt lat="44.14985" lon="6.77452">
        <ele>1527</ele>
        <time>2018-07-07T12:37:15.000Z</time>
      </trkpt>
      <trkpt lat="44.14985" lon="6.77452">
        <ele>1527</ele>
        <time>2018-07-07T12:37:20.000Z</time>
      </trkpt>
      <trkpt lat="44.14987" lon="6.77451">
        <ele>1527</ele>
        <time>2018-07-07T12:37:35.000Z</time>
      </trkpt>
      <trkpt lat="44.14988" lon="6.7745">
        <ele>1527</ele>
        <time>2018-07-07T12:37:45.000Z</time>
      </trkpt>
      <trkpt lat="44.14989" lon="6.77449">
        <ele>1527</ele>
        <time>2018-07-07T12:38:01.000Z</time>
      </trkpt>
      <trkpt lat="44.14991" lon="6.7745">
        <ele>1527</ele>
        <time>2018-07-07T12:38:10.000Z</time>
      </trkpt>
      <trkpt lat="44.1499" lon="6.77449">
        <ele>1527</ele>
        <time>2018-07-07T12:38:19.000Z</time>
      </trkpt>
      <trkpt lat="44.14989" lon="6.77446">
        <ele>1526</ele>
        <time>2018-07-07T12:38:40.000Z</time>
      </trkpt>
      <trkpt lat="44.14992" lon="6.77444">
        <ele>1526</ele>
        <time>2018-07-07T12:38:49.000Z</time>
      </trkpt>
      <trkpt lat="44.14995" lon="6.77443">
        <ele>1526</ele>
        <time>2018-07-07T12:38:54.000Z</time>
      </trkpt>
      <trkpt lat="44.15002" lon="6.77433">
        <ele>1527</ele>
        <time>2018-07-07T12:38:57.000Z</time>
      </trkpt>
      <trkpt lat="44.15015" lon="6.77419">
        <ele>1526</ele>
        <time>2018-07-07T12:39:01.000Z</time>
      </trkpt>
      <trkpt lat="44.15019" lon="6.77418">
        <ele>1527</ele>
        <time>2018-07-07T12:39:02.000Z</time>
      </trkpt>
      <trkpt lat="44.15032" lon="6.77414">
        <ele>1516</ele>
        <time>2018-07-07T12:39:05.000Z</time>
      </trkpt>
      <trkpt lat="44.15038" lon="6.77413">
        <ele>1516</ele>
        <time>2018-07-07T12:39:07.000Z</time>
      </trkpt>
      <trkpt lat="44.15049" lon="6.7741">
        <ele>1517</ele>
        <time>2018-07-07T12:39:10.000Z</time>
      </trkpt>
      <trkpt lat="44.15063" lon="6.77407">
        <ele>1519</ele>
        <time>2018-07-07T12:39:13.000Z</time>
      </trkpt>
      <trkpt lat="44.15069" lon="6.77402">
        <ele>1519</ele>
        <time>2018-07-07T12:39:14.000Z</time>
      </trkpt>
      <trkpt lat="44.15082" lon="6.77395">
        <ele>1519</ele>
        <time>2018-07-07T12:39:16.000Z</time>
      </trkpt>
      <trkpt lat="44.15088" lon="6.77392">
        <ele>1520</ele>
        <time>2018-07-07T12:39:17.000Z</time>
      </trkpt>
      <trkpt lat="44.15096" lon="6.77389">
        <ele>1519</ele>
        <time>2018-07-07T12:39:18.000Z</time>
      </trkpt>
      <trkpt lat="44.15107" lon="6.77383">
        <ele>1517</ele>
        <time>2018-07-07T12:39:20.000Z</time>
      </trkpt>
      <trkpt lat="44.15117" lon="6.77371">
        <ele>1515</ele>
        <time>2018-07-07T12:39:22.000Z</time>
      </trkpt>
      <trkpt lat="44.1512" lon="6.77363">
        <ele>1514</ele>
        <time>2018-07-07T12:39:23.000Z</time>
      </trkpt>
      <trkpt lat="44.1513" lon="6.77354">
        <ele>1513</ele>
        <time>2018-07-07T12:39:25.000Z</time>
      </trkpt>
      <trkpt lat="44.15138" lon="6.7735">
        <ele>1513</ele>
        <time>2018-07-07T12:39:26.000Z</time>
      </trkpt>
      <trkpt lat="44.15146" lon="6.77348">
        <ele>1512</ele>
        <time>2018-07-07T12:39:27.000Z</time>
      </trkpt>
      <trkpt lat="44.15152" lon="6.77346">
        <ele>1511</ele>
        <time>2018-07-07T12:39:28.000Z</time>
      </trkpt>
      <trkpt lat="44.15158" lon="6.7734">
        <ele>1509</ele>
        <time>2018-07-07T12:39:29.000Z</time>
      </trkpt>
      <trkpt lat="44.15162" lon="6.77335">
        <ele>1508</ele>
        <time>2018-07-07T12:39:30.000Z</time>
      </trkpt>
      <trkpt lat="44.15166" lon="6.7733">
        <ele>1503</ele>
        <time>2018-07-07T12:39:31.000Z</time>
      </trkpt>
      <trkpt lat="44.1517" lon="6.77327">
        <ele>1502</ele>
        <time>2018-07-07T12:39:32.000Z</time>
      </trkpt>
      <trkpt lat="44.15172" lon="6.77325">
        <ele>1501</ele>
        <time>2018-07-07T12:39:33.000Z</time>
      </trkpt>
      <trkpt lat="44.15173" lon="6.77325">
        <ele>1500</ele>
        <time>2018-07-07T12:39:34.000Z</time>
      </trkpt>
      <trkpt lat="44.15174" lon="6.77323">
        <ele>1500</ele>
        <time>2018-07-07T12:39:35.000Z</time>
      </trkpt>
      <trkpt lat="44.15175" lon="6.77322">
        <ele>1499</ele>
        <time>2018-07-07T12:39:36.000Z</time>
      </trkpt>
      <trkpt lat="44.1518" lon="6.77317">
        <ele>1497</ele>
        <time>2018-07-07T12:39:38.000Z</time>
      </trkpt>
      <trkpt lat="44.15184" lon="6.77313">
        <ele>1495</ele>
        <time>2018-07-07T12:39:39.000Z</time>
      </trkpt>
      <trkpt lat="44.1519" lon="6.77309">
        <ele>1494</ele>
        <time>2018-07-07T12:39:40.000Z</time>
      </trkpt>
      <trkpt lat="44.15196" lon="6.77306">
        <ele>1493</ele>
        <time>2018-07-07T12:39:41.000Z</time>
      </trkpt>
      <trkpt lat="44.15201" lon="6.77305">
        <ele>1492</ele>
        <time>2018-07-07T12:39:42.000Z</time>
      </trkpt>
      <trkpt lat="44.15206" lon="6.77301">
        <ele>1492</ele>
        <time>2018-07-07T12:39:43.000Z</time>
      </trkpt>
      <trkpt lat="44.15216" lon="6.77297">
        <ele>1491</ele>
        <time>2018-07-07T12:39:45.000Z</time>
      </trkpt>
      <trkpt lat="44.15223" lon="6.77296">
        <ele>1491</ele>
        <time>2018-07-07T12:39:46.000Z</time>
      </trkpt>
      <trkpt lat="44.1523" lon="6.77296">
        <ele>1491</ele>
        <time>2018-07-07T12:39:47.000Z</time>
      </trkpt>
      <trkpt lat="44.15236" lon="6.77295">
        <ele>1491</ele>
        <time>2018-07-07T12:39:48.000Z</time>
      </trkpt>
      <trkpt lat="44.15244" lon="6.77293">
        <ele>1491</ele>
        <time>2018-07-07T12:39:49.000Z</time>
      </trkpt>
      <trkpt lat="44.15252" lon="6.77294">
        <ele>1490</ele>
        <time>2018-07-07T12:39:50.000Z</time>
      </trkpt>
      <trkpt lat="44.15258" lon="6.77295">
        <ele>1490</ele>
        <time>2018-07-07T12:39:51.000Z</time>
      </trkpt>
      <trkpt lat="44.15265" lon="6.77295">
        <ele>1490</ele>
        <time>2018-07-07T12:39:52.000Z</time>
      </trkpt>
      <trkpt lat="44.15273" lon="6.77294">
        <ele>1490</ele>
        <time>2018-07-07T12:39:53.000Z</time>
      </trkpt>
      <trkpt lat="44.15288" lon="6.7729">
        <ele>1488</ele>
        <time>2018-07-07T12:39:55.000Z</time>
      </trkpt>
      <trkpt lat="44.15303" lon="6.77289">
        <ele>1487</ele>
        <time>2018-07-07T12:39:57.000Z</time>
      </trkpt>
      <trkpt lat="44.15309" lon="6.77283">
        <ele>1486</ele>
        <time>2018-07-07T12:39:58.000Z</time>
      </trkpt>
      <trkpt lat="44.15315" lon="6.7728">
        <ele>1485</ele>
        <time>2018-07-07T12:39:59.000Z</time>
      </trkpt>
      <trkpt lat="44.15318" lon="6.77276">
        <ele>1483</ele>
        <time>2018-07-07T12:40:00.000Z</time>
      </trkpt>
      <trkpt lat="44.15319" lon="6.77272">
        <ele>1482</ele>
        <time>2018-07-07T12:40:01.000Z</time>
      </trkpt>
      <trkpt lat="44.15324" lon="6.77265">
        <ele>1479</ele>
        <time>2018-07-07T12:40:02.000Z</time>
      </trkpt>
      <trkpt lat="44.1533" lon="6.7726">
        <ele>1476</ele>
        <time>2018-07-07T12:40:03.000Z</time>
      </trkpt>
      <trkpt lat="44.15333" lon="6.77256">
        <ele>1474</ele>
        <time>2018-07-07T12:40:04.000Z</time>
      </trkpt>
      <trkpt lat="44.15338" lon="6.77254">
        <ele>1471</ele>
        <time>2018-07-07T12:40:05.000Z</time>
      </trkpt>
      <trkpt lat="44.15342" lon="6.77253">
        <ele>1472</ele>
        <time>2018-07-07T12:40:07.000Z</time>
      </trkpt>
      <trkpt lat="44.15343" lon="6.77254">
        <ele>1472</ele>
        <time>2018-07-07T12:40:08.000Z</time>
      </trkpt>
      <trkpt lat="44.15343" lon="6.77254">
        <ele>1472</ele>
        <time>2018-07-07T12:40:10.000Z</time>
      </trkpt>
      <trkpt lat="44.15344" lon="6.77253">
        <ele>1472</ele>
        <time>2018-07-07T12:40:12.000Z</time>
      </trkpt>
      <trkpt lat="44.15345" lon="6.77253">
        <ele>1472</ele>
        <time>2018-07-07T12:40:13.000Z</time>
      </trkpt>
      <trkpt lat="44.15347" lon="6.77254">
        <ele>1472</ele>
        <time>2018-07-07T12:40:18.000Z</time>
      </trkpt>
      <trkpt lat="44.15348" lon="6.77254">
        <ele>1473</ele>
        <time>2018-07-07T12:40:22.000Z</time>
      </trkpt>
      <trkpt lat="44.15349" lon="6.77254">
        <ele>1473</ele>
        <time>2018-07-07T12:40:25.000Z</time>
      </trkpt>
      <trkpt lat="44.15349" lon="6.77254">
        <ele>1473</ele>
        <time>2018-07-07T12:40:26.000Z</time>
      </trkpt>
      <trkpt lat="44.15352" lon="6.77255">
        <ele>1473</ele>
        <time>2018-07-07T12:40:28.000Z</time>
      </trkpt>
      <trkpt lat="44.15356" lon="6.77254">
        <ele>1473</ele>
        <time>2018-07-07T12:40:30.000Z</time>
      </trkpt>
      <trkpt lat="44.15373" lon="6.77251">
        <ele>1472</ele>
        <time>2018-07-07T12:40:32.000Z</time>
      </trkpt>
      <trkpt lat="44.15378" lon="6.7725">
        <ele>1471</ele>
        <time>2018-07-07T12:40:33.000Z</time>
      </trkpt>
      <trkpt lat="44.15383" lon="6.77248">
        <ele>1456</ele>
        <time>2018-07-07T12:40:34.000Z</time>
      </trkpt>
      <trkpt lat="44.15391" lon="6.77244">
        <ele>1456</ele>
        <time>2018-07-07T12:40:35.000Z</time>
      </trkpt>
      <trkpt lat="44.15396" lon="6.77241">
        <ele>1456</ele>
        <time>2018-07-07T12:40:36.000Z</time>
      </trkpt>
      <trkpt lat="44.154" lon="6.77236">
        <ele>1455</ele>
        <time>2018-07-07T12:40:37.000Z</time>
      </trkpt>
      <trkpt lat="44.15404" lon="6.77231">
        <ele>1455</ele>
        <time>2018-07-07T12:40:38.000Z</time>
      </trkpt>
      <trkpt lat="44.15406" lon="6.77227">
        <ele>1454</ele>
        <time>2018-07-07T12:40:39.000Z</time>
      </trkpt>
      <trkpt lat="44.15408" lon="6.77224">
        <ele>1454</ele>
        <time>2018-07-07T12:40:40.000Z</time>
      </trkpt>
      <trkpt lat="44.15409" lon="6.77221">
        <ele>1453</ele>
        <time>2018-07-07T12:40:41.000Z</time>
      </trkpt>
      <trkpt lat="44.15412" lon="6.77218">
        <ele>1452</ele>
        <time>2018-07-07T12:40:42.000Z</time>
      </trkpt>
      <trkpt lat="44.15414" lon="6.77217">
        <ele>1452</ele>
        <time>2018-07-07T12:40:43.000Z</time>
      </trkpt>
      <trkpt lat="44.15417" lon="6.77217">
        <ele>1443</ele>
        <time>2018-07-07T12:40:44.000Z</time>
      </trkpt>
      <trkpt lat="44.1542" lon="6.77215">
        <ele>1442</ele>
        <time>2018-07-07T12:40:45.000Z</time>
      </trkpt>
      <trkpt lat="44.15421" lon="6.77213">
        <ele>1442</ele>
        <time>2018-07-07T12:40:46.000Z</time>
      </trkpt>
      <trkpt lat="44.15423" lon="6.77204">
        <ele>1440</ele>
        <time>2018-07-07T12:40:48.000Z</time>
      </trkpt>
      <trkpt lat="44.15423" lon="6.77195">
        <ele>1439</ele>
        <time>2018-07-07T12:40:50.000Z</time>
      </trkpt>
      <trkpt lat="44.15419" lon="6.77182">
        <ele>1438</ele>
        <time>2018-07-07T12:40:52.000Z</time>
      </trkpt>
      <trkpt lat="44.15416" lon="6.7717">
        <ele>1439</ele>
        <time>2018-07-07T12:40:54.000Z</time>
      </trkpt>
      <trkpt lat="44.1541" lon="6.77161">
        <ele>1435</ele>
        <time>2018-07-07T12:40:56.000Z</time>
      </trkpt>
      <trkpt lat="44.15412" lon="6.77152">
        <ele>1434</ele>
        <time>2018-07-07T12:40:59.000Z</time>
      </trkpt>
      <trkpt lat="44.15422" lon="6.77147">
        <ele>1429</ele>
        <time>2018-07-07T12:41:02.000Z</time>
      </trkpt>
      <trkpt lat="44.15429" lon="6.77147">
        <ele>1428</ele>
        <time>2018-07-07T12:41:04.000Z</time>
      </trkpt>
      <trkpt lat="44.15431" lon="6.77137">
        <ele>1426</ele>
        <time>2018-07-07T12:41:06.000Z</time>
      </trkpt>
      <trkpt lat="44.15429" lon="6.77125">
        <ele>1425</ele>
        <time>2018-07-07T12:41:08.000Z</time>
      </trkpt>
      <trkpt lat="44.15427" lon="6.77116">
        <ele>1424</ele>
        <time>2018-07-07T12:41:10.000Z</time>
      </trkpt>
      <trkpt lat="44.15425" lon="6.77108">
        <ele>1423</ele>
        <time>2018-07-07T12:41:11.000Z</time>
      </trkpt>
      <trkpt lat="44.15425" lon="6.771">
        <ele>1423</ele>
        <time>2018-07-07T12:41:12.000Z</time>
      </trkpt>
      <trkpt lat="44.15425" lon="6.77093">
        <ele>1423</ele>
        <time>2018-07-07T12:41:13.000Z</time>
      </trkpt>
      <trkpt lat="44.15426" lon="6.77087">
        <ele>1423</ele>
        <time>2018-07-07T12:41:14.000Z</time>
      </trkpt>
      <trkpt lat="44.15425" lon="6.77079">
        <ele>1419</ele>
        <time>2018-07-07T12:41:15.000Z</time>
      </trkpt>
      <trkpt lat="44.15424" lon="6.77072">
        <ele>1418</ele>
        <time>2018-07-07T12:41:16.000Z</time>
      </trkpt>
      <trkpt lat="44.15423" lon="6.77061">
        <ele>1415</ele>
        <time>2018-07-07T12:41:17.000Z</time>
      </trkpt>
      <trkpt lat="44.15422" lon="6.77054">
        <ele>1414</ele>
        <time>2018-07-07T12:41:18.000Z</time>
      </trkpt>
      <trkpt lat="44.15425" lon="6.77047">
        <ele>1413</ele>
        <time>2018-07-07T12:41:19.000Z</time>
      </trkpt>
      <trkpt lat="44.15427" lon="6.77037">
        <ele>1412</ele>
        <time>2018-07-07T12:41:20.000Z</time>
      </trkpt>
      <trkpt lat="44.15428" lon="6.7703">
        <ele>1411</ele>
        <time>2018-07-07T12:41:21.000Z</time>
      </trkpt>
      <trkpt lat="44.15426" lon="6.77021">
        <ele>1411</ele>
        <time>2018-07-07T12:41:22.000Z</time>
      </trkpt>
      <trkpt lat="44.15425" lon="6.77011">
        <ele>1410</ele>
        <time>2018-07-07T12:41:23.000Z</time>
      </trkpt>
      <trkpt lat="44.15428" lon="6.77004">
        <ele>1410</ele>
        <time>2018-07-07T12:41:24.000Z</time>
      </trkpt>
      <trkpt lat="44.15431" lon="6.76999">
        <ele>1403</ele>
        <time>2018-07-07T12:41:25.000Z</time>
      </trkpt>
      <trkpt lat="44.15433" lon="6.76995">
        <ele>1402</ele>
        <time>2018-07-07T12:41:26.000Z</time>
      </trkpt>
      <trkpt lat="44.15435" lon="6.76993">
        <ele>1402</ele>
        <time>2018-07-07T12:41:28.000Z</time>
      </trkpt>
      <trkpt lat="44.15437" lon="6.76989">
        <ele>1401</ele>
        <time>2018-07-07T12:41:30.000Z</time>
      </trkpt>
      <trkpt lat="44.15438" lon="6.76982">
        <ele>1399</ele>
        <time>2018-07-07T12:41:32.000Z</time>
      </trkpt>
      <trkpt lat="44.15439" lon="6.76975">
        <ele>1398</ele>
        <time>2018-07-07T12:41:34.000Z</time>
      </trkpt>
      <trkpt lat="44.15442" lon="6.76968">
        <ele>1396</ele>
        <time>2018-07-07T12:41:36.000Z</time>
      </trkpt>
      <trkpt lat="44.15444" lon="6.76965">
        <ele>1396</ele>
        <time>2018-07-07T12:41:37.000Z</time>
      </trkpt>
      <trkpt lat="44.15449" lon="6.76958">
        <ele>1395</ele>
        <time>2018-07-07T12:41:39.000Z</time>
      </trkpt>
      <trkpt lat="44.15452" lon="6.76955">
        <ele>1394</ele>
        <time>2018-07-07T12:41:40.000Z</time>
      </trkpt>
      <trkpt lat="44.15456" lon="6.76944">
        <ele>1393</ele>
        <time>2018-07-07T12:41:42.000Z</time>
      </trkpt>
      <trkpt lat="44.1546" lon="6.76937">
        <ele>1392</ele>
        <time>2018-07-07T12:41:43.000Z</time>
      </trkpt>
      <trkpt lat="44.15462" lon="6.76932">
        <ele>1391</ele>
        <time>2018-07-07T12:41:44.000Z</time>
      </trkpt>
      <trkpt lat="44.15464" lon="6.76927">
        <ele>1391</ele>
        <time>2018-07-07T12:41:45.000Z</time>
      </trkpt>
      <trkpt lat="44.15467" lon="6.76927">
        <ele>1390</ele>
        <time>2018-07-07T12:41:46.000Z</time>
      </trkpt>
      <trkpt lat="44.15471" lon="6.76928">
        <ele>1390</ele>
        <time>2018-07-07T12:41:47.000Z</time>
      </trkpt>
      <trkpt lat="44.15475" lon="6.76929">
        <ele>1390</ele>
        <time>2018-07-07T12:41:48.000Z</time>
      </trkpt>
      <trkpt lat="44.15479" lon="6.76932">
        <ele>1390</ele>
        <time>2018-07-07T12:41:50.000Z</time>
      </trkpt>
      <trkpt lat="44.15479" lon="6.76933">
        <ele>1390</ele>
        <time>2018-07-07T12:41:51.000Z</time>
      </trkpt>
      <trkpt lat="44.15479" lon="6.76931">
        <ele>1390</ele>
        <time>2018-07-07T12:41:52.000Z</time>
      </trkpt>
      <trkpt lat="44.15482" lon="6.76928">
        <ele>1389</ele>
        <time>2018-07-07T12:41:53.000Z</time>
      </trkpt>
      <trkpt lat="44.15483" lon="6.76923">
        <ele>1388</ele>
        <time>2018-07-07T12:41:54.000Z</time>
      </trkpt>
      <trkpt lat="44.15482" lon="6.76909">
        <ele>1379</ele>
        <time>2018-07-07T12:41:56.000Z</time>
      </trkpt>
      <trkpt lat="44.15483" lon="6.76904">
        <ele>1379</ele>
        <time>2018-07-07T12:41:57.000Z</time>
      </trkpt>
      <trkpt lat="44.15483" lon="6.76899">
        <ele>1378</ele>
        <time>2018-07-07T12:41:58.000Z</time>
      </trkpt>
      <trkpt lat="44.15481" lon="6.76891">
        <ele>1377</ele>
        <time>2018-07-07T12:41:59.000Z</time>
      </trkpt>
      <trkpt lat="44.15481" lon="6.76881">
        <ele>1376</ele>
        <time>2018-07-07T12:42:00.000Z</time>
      </trkpt>
      <trkpt lat="44.15484" lon="6.76859">
        <ele>1374</ele>
        <time>2018-07-07T12:42:02.000Z</time>
      </trkpt>
      <trkpt lat="44.15485" lon="6.76849">
        <ele>1374</ele>
        <time>2018-07-07T12:42:03.000Z</time>
      </trkpt>
      <trkpt lat="44.15486" lon="6.76839">
        <ele>1373</ele>
        <time>2018-07-07T12:42:04.000Z</time>
      </trkpt>
      <trkpt lat="44.15485" lon="6.76831">
        <ele>1364</ele>
        <time>2018-07-07T12:42:05.000Z</time>
      </trkpt>
      <trkpt lat="44.15484" lon="6.76825">
        <ele>1363</ele>
        <time>2018-07-07T12:42:06.000Z</time>
      </trkpt>
      <trkpt lat="44.15483" lon="6.76821">
        <ele>1362</ele>
        <time>2018-07-07T12:42:07.000Z</time>
      </trkpt>
      <trkpt lat="44.15483" lon="6.76819">
        <ele>1362</ele>
        <time>2018-07-07T12:42:08.000Z</time>
      </trkpt>
      <trkpt lat="44.15483" lon="6.76819">
        <ele>1362</ele>
        <time>2018-07-07T12:42:10.000Z</time>
      </trkpt>
      <trkpt lat="44.15484" lon="6.76817">
        <ele>1361</ele>
        <time>2018-07-07T12:42:15.000Z</time>
      </trkpt>
      <trkpt lat="44.15484" lon="6.76816">
        <ele>1361</ele>
        <time>2018-07-07T12:42:20.000Z</time>
      </trkpt>
      <trkpt lat="44.15483" lon="6.76814">
        <ele>1360</ele>
        <time>2018-07-07T12:42:24.000Z</time>
      </trkpt>
      <trkpt lat="44.15481" lon="6.76809">
        <ele>1359</ele>
        <time>2018-07-07T12:42:26.000Z</time>
      </trkpt>
      <trkpt lat="44.1548" lon="6.76809">
        <ele>1359</ele>
        <time>2018-07-07T12:42:31.000Z</time>
      </trkpt>
      <trkpt lat="44.1548" lon="6.76809">
        <ele>1359</ele>
        <time>2018-07-07T12:42:37.000Z</time>
      </trkpt>
      <trkpt lat="44.15481" lon="6.7681">
        <ele>1359</ele>
        <time>2018-07-07T12:42:43.000Z</time>
      </trkpt>
      <trkpt lat="44.15483" lon="6.7681">
        <ele>1360</ele>
        <time>2018-07-07T12:42:59.000Z</time>
      </trkpt>
      <trkpt lat="44.15483" lon="6.76812">
        <ele>1360</ele>
        <time>2018-07-07T12:43:05.000Z</time>
      </trkpt>
      <trkpt lat="44.15482" lon="6.76813">
        <ele>1360</ele>
        <time>2018-07-07T12:43:10.000Z</time>
      </trkpt>
      <trkpt lat="44.1548" lon="6.76811">
        <ele>1359</ele>
        <time>2018-07-07T12:43:12.000Z</time>
      </trkpt>
      <trkpt lat="44.1548" lon="6.76811">
        <ele>1360</ele>
        <time>2018-07-07T12:43:18.000Z</time>
      </trkpt>
      <trkpt lat="44.15482" lon="6.76811">
        <ele>1360</ele>
        <time>2018-07-07T12:43:27.000Z</time>
      </trkpt>
      <trkpt lat="44.15485" lon="6.76811">
        <ele>1360</ele>
        <time>2018-07-07T12:43:34.000Z</time>
      </trkpt>
      <trkpt lat="44.15484" lon="6.76811">
        <ele>1360</ele>
        <time>2018-07-07T12:43:42.000Z</time>
      </trkpt>
      <trkpt lat="44.15483" lon="6.76811">
        <ele>1360</ele>
        <time>2018-07-07T12:43:47.000Z</time>
      </trkpt>
      <trkpt lat="44.15483" lon="6.76811">
        <ele>1360</ele>
        <time>2018-07-07T12:43:53.000Z</time>
      </trkpt>
      <trkpt lat="44.15483" lon="6.76812">
        <ele>1360</ele>
        <time>2018-07-07T12:44:02.000Z</time>
      </trkpt>
      <trkpt lat="44.15483" lon="6.76812">
        <ele>1360</ele>
        <time>2018-07-07T12:44:11.000Z</time>
      </trkpt>
      <trkpt lat="44.15483" lon="6.76813">
        <ele>1360</ele>
        <time>2018-07-07T12:44:25.000Z</time>
      </trkpt>
      <trkpt lat="44.15482" lon="6.76812">
        <ele>1360</ele>
        <time>2018-07-07T12:44:32.000Z</time>
      </trkpt>
      <trkpt lat="44.15483" lon="6.76811">
        <ele>1360</ele>
        <time>2018-07-07T12:44:42.000Z</time>
      </trkpt>
      <trkpt lat="44.15484" lon="6.76809">
        <ele>1360</ele>
        <time>2018-07-07T12:44:51.000Z</time>
      </trkpt>
      <trkpt lat="44.15484" lon="6.76809">
        <ele>1360</ele>
        <time>2018-07-07T12:45:09.000Z</time>
      </trkpt>
      <trkpt lat="44.15484" lon="6.76808">
        <ele>1360</ele>
        <time>2018-07-07T12:45:33.000Z</time>
      </trkpt>
      <trkpt lat="44.15484" lon="6.76808">
        <ele>1360</ele>
        <time>2018-07-07T12:45:39.000Z</time>
      </trkpt>
      <trkpt lat="44.15485" lon="6.76806">
        <ele>1359</ele>
        <time>2018-07-07T12:45:46.000Z</time>
      </trkpt>
      <trkpt lat="44.15487" lon="6.76804">
        <ele>1359</ele>
        <time>2018-07-07T12:45:47.000Z</time>
      </trkpt>
      <trkpt lat="44.1549" lon="6.76784">
        <ele>1356</ele>
        <time>2018-07-07T12:45:51.000Z</time>
      </trkpt>
      <trkpt lat="44.15491" lon="6.76777">
        <ele>1356</ele>
        <time>2018-07-07T12:45:52.000Z</time>
      </trkpt>
      <trkpt lat="44.15494" lon="6.7676">
        <ele>1356</ele>
        <time>2018-07-07T12:45:54.000Z</time>
      </trkpt>
      <trkpt lat="44.15497" lon="6.7675">
        <ele>1355</ele>
        <time>2018-07-07T12:45:55.000Z</time>
      </trkpt>
      <trkpt lat="44.155" lon="6.76741">
        <ele>1350</ele>
        <time>2018-07-07T12:45:56.000Z</time>
      </trkpt>
      <trkpt lat="44.15508" lon="6.76717">
        <ele>1348</ele>
        <time>2018-07-07T12:45:59.000Z</time>
      </trkpt>
      <trkpt lat="44.15511" lon="6.7671">
        <ele>1347</ele>
        <time>2018-07-07T12:46:00.000Z</time>
      </trkpt>
      <trkpt lat="44.15512" lon="6.76703">
        <ele>1345</ele>
        <time>2018-07-07T12:46:01.000Z</time>
      </trkpt>
      <trkpt lat="44.15511" lon="6.76686">
        <ele>1343</ele>
        <time>2018-07-07T12:46:03.000Z</time>
      </trkpt>
      <trkpt lat="44.15514" lon="6.76665">
        <ele>1337</ele>
        <time>2018-07-07T12:46:05.000Z</time>
      </trkpt>
      <trkpt lat="44.15521" lon="6.76647">
        <ele>1336</ele>
        <time>2018-07-07T12:46:07.000Z</time>
      </trkpt>
      <trkpt lat="44.15524" lon="6.76639">
        <ele>1335</ele>
        <time>2018-07-07T12:46:08.000Z</time>
      </trkpt>
      <trkpt lat="44.15528" lon="6.76632">
        <ele>1335</ele>
        <time>2018-07-07T12:46:09.000Z</time>
      </trkpt>
      <trkpt lat="44.15532" lon="6.76623">
        <ele>1335</ele>
        <time>2018-07-07T12:46:10.000Z</time>
      </trkpt>
      <trkpt lat="44.15535" lon="6.76615">
        <ele>1334</ele>
        <time>2018-07-07T12:46:11.000Z</time>
      </trkpt>
      <trkpt lat="44.15538" lon="6.76606">
        <ele>1334</ele>
        <time>2018-07-07T12:46:12.000Z</time>
      </trkpt>
      <trkpt lat="44.1554" lon="6.76597">
        <ele>1334</ele>
        <time>2018-07-07T12:46:13.000Z</time>
      </trkpt>
      <trkpt lat="44.15547" lon="6.76578">
        <ele>1326</ele>
        <time>2018-07-07T12:46:15.000Z</time>
      </trkpt>
      <trkpt lat="44.1555" lon="6.76571">
        <ele>1325</ele>
        <time>2018-07-07T12:46:16.000Z</time>
      </trkpt>
      <trkpt lat="44.15551" lon="6.76565">
        <ele>1325</ele>
        <time>2018-07-07T12:46:17.000Z</time>
      </trkpt>
      <trkpt lat="44.15551" lon="6.76559">
        <ele>1324</ele>
        <time>2018-07-07T12:46:18.000Z</time>
      </trkpt>
      <trkpt lat="44.15546" lon="6.76547">
        <ele>1323</ele>
        <time>2018-07-07T12:46:20.000Z</time>
      </trkpt>
      <trkpt lat="44.15542" lon="6.76538">
        <ele>1321</ele>
        <time>2018-07-07T12:46:22.000Z</time>
      </trkpt>
      <trkpt lat="44.15541" lon="6.76536">
        <ele>1321</ele>
        <time>2018-07-07T12:46:24.000Z</time>
      </trkpt>
      <trkpt lat="44.15541" lon="6.76536">
        <ele>1321</ele>
        <time>2018-07-07T12:46:28.000Z</time>
      </trkpt>
      <trkpt lat="44.15541" lon="6.76536">
        <ele>1321</ele>
        <time>2018-07-07T12:46:32.000Z</time>
      </trkpt>
      <trkpt lat="44.15541" lon="6.76536">
        <ele>1321</ele>
        <time>2018-07-07T12:46:37.000Z</time>
      </trkpt>
      <trkpt lat="44.15542" lon="6.76536">
        <ele>1321</ele>
        <time>2018-07-07T12:46:44.000Z</time>
      </trkpt>
      <trkpt lat="44.15542" lon="6.76536">
        <ele>1321</ele>
        <time>2018-07-07T12:46:48.000Z</time>
      </trkpt>
      <trkpt lat="44.15542" lon="6.76536">
        <ele>1321</ele>
        <time>2018-07-07T12:46:51.000Z</time>
      </trkpt>
      <trkpt lat="44.15544" lon="6.76538">
        <ele>1322</ele>
        <time>2018-07-07T12:46:55.000Z</time>
      </trkpt>
      <trkpt lat="44.15546" lon="6.76543">
        <ele>1322</ele>
        <time>2018-07-07T12:47:02.000Z</time>
      </trkpt>
      <trkpt lat="44.15547" lon="6.76544">
        <ele>1322</ele>
        <time>2018-07-07T12:47:08.000Z</time>
      </trkpt>
      <trkpt lat="44.15546" lon="6.76544">
        <ele>1322</ele>
        <time>2018-07-07T12:47:14.000Z</time>
      </trkpt>
      <trkpt lat="44.15546" lon="6.76544">
        <ele>1322</ele>
        <time>2018-07-07T12:47:15.000Z</time>
      </trkpt>
      <trkpt lat="44.15546" lon="6.76544">
        <ele>1322</ele>
        <time>2018-07-07T12:47:21.000Z</time>
      </trkpt>
      <trkpt lat="44.15545" lon="6.76547">
        <ele>1323</ele>
        <time>2018-07-07T12:47:29.000Z</time>
      </trkpt>
      <trkpt lat="44.15543" lon="6.76552">
        <ele>1323</ele>
        <time>2018-07-07T12:47:44.000Z</time>
      </trkpt>
      <trkpt lat="44.15544" lon="6.76551">
        <ele>1323</ele>
        <time>2018-07-07T12:47:57.000Z</time>
      </trkpt>
      <trkpt lat="44.15546" lon="6.7655">
        <ele>1323</ele>
        <time>2018-07-07T12:48:16.000Z</time>
      </trkpt>
      <trkpt lat="44.15546" lon="6.76549">
        <ele>1323</ele>
        <time>2018-07-07T12:48:36.000Z</time>
      </trkpt>
      <trkpt lat="44.15546" lon="6.76548">
        <ele>1323</ele>
        <time>2018-07-07T12:48:53.000Z</time>
      </trkpt>
      <trkpt lat="44.15546" lon="6.76548">
        <ele>1323</ele>
        <time>2018-07-07T12:49:15.000Z</time>
      </trkpt>
      <trkpt lat="44.15546" lon="6.76547">
        <ele>1323</ele>
        <time>2018-07-07T12:49:37.000Z</time>
      </trkpt>
      <trkpt lat="44.15546" lon="6.76547">
        <ele>1323</ele>
        <time>2018-07-07T12:49:49.000Z</time>
      </trkpt>
      <trkpt lat="44.15546" lon="6.76547">
        <ele>1323</ele>
        <time>2018-07-07T12:50:00.000Z</time>
      </trkpt>
      <trkpt lat="44.15546" lon="6.76547">
        <ele>1323</ele>
        <time>2018-07-07T12:50:24.000Z</time>
      </trkpt>
      <trkpt lat="44.15547" lon="6.76547">
        <ele>1323</ele>
        <time>2018-07-07T12:50:49.000Z</time>
      </trkpt>
      <trkpt lat="44.15546" lon="6.76547">
        <ele>1323</ele>
        <time>2018-07-07T12:51:10.000Z</time>
      </trkpt>
      <trkpt lat="44.15546" lon="6.76547">
        <ele>1323</ele>
        <time>2018-07-07T12:51:24.000Z</time>
      </trkpt>
      <trkpt lat="44.15545" lon="6.76547">
        <ele>1323</ele>
        <time>2018-07-07T12:51:43.000Z</time>
      </trkpt>
      <trkpt lat="44.15544" lon="6.76549">
        <ele>1323</ele>
        <time>2018-07-07T12:51:58.000Z</time>
      </trkpt>
      <trkpt lat="44.15542" lon="6.76553">
        <ele>1323</ele>
        <time>2018-07-07T12:52:15.000Z</time>
      </trkpt>
      <trkpt lat="44.15542" lon="6.76554">
        <ele>1323</ele>
        <time>2018-07-07T12:52:35.000Z</time>
      </trkpt>
      <trkpt lat="44.15544" lon="6.7655">
        <ele>1323</ele>
        <time>2018-07-07T12:53:00.000Z</time>
      </trkpt>
      <trkpt lat="44.15545" lon="6.76551">
        <ele>1323</ele>
        <time>2018-07-07T12:53:07.000Z</time>
      </trkpt>
      <trkpt lat="44.15546" lon="6.7655">
        <ele>1323</ele>
        <time>2018-07-07T12:53:25.000Z</time>
      </trkpt>
      <trkpt lat="44.15548" lon="6.7655">
        <ele>1323</ele>
        <time>2018-07-07T12:53:34.000Z</time>
      </trkpt>
      <trkpt lat="44.1555" lon="6.7655">
        <ele>1323</ele>
        <time>2018-07-07T12:53:35.000Z</time>
      </trkpt>
      <trkpt lat="44.15555" lon="6.76546">
        <ele>1323</ele>
        <time>2018-07-07T12:53:38.000Z</time>
      </trkpt>
      <trkpt lat="44.15555" lon="6.76541">
        <ele>1323</ele>
        <time>2018-07-07T12:53:39.000Z</time>
      </trkpt>
      <trkpt lat="44.15556" lon="6.76536">
        <ele>1322</ele>
        <time>2018-07-07T12:53:40.000Z</time>
      </trkpt>
      <trkpt lat="44.15557" lon="6.76522">
        <ele>1321</ele>
        <time>2018-07-07T12:53:42.000Z</time>
      </trkpt>
      <trkpt lat="44.15557" lon="6.76515">
        <ele>1321</ele>
        <time>2018-07-07T12:53:43.000Z</time>
      </trkpt>
      <trkpt lat="44.15557" lon="6.76506">
        <ele>1320</ele>
        <time>2018-07-07T12:53:44.000Z</time>
      </trkpt>
      <trkpt lat="44.15557" lon="6.76499">
        <ele>1304</ele>
        <time>2018-07-07T12:53:45.000Z</time>
      </trkpt>
      <trkpt lat="44.15558" lon="6.76492">
        <ele>1303</ele>
        <time>2018-07-07T12:53:46.000Z</time>
      </trkpt>
      <trkpt lat="44.1556" lon="6.76486">
        <ele>1302</ele>
        <time>2018-07-07T12:53:47.000Z</time>
      </trkpt>
      <trkpt lat="44.15562" lon="6.7648">
        <ele>1301</ele>
        <time>2018-07-07T12:53:48.000Z</time>
      </trkpt>
      <trkpt lat="44.15565" lon="6.76476">
        <ele>1301</ele>
        <time>2018-07-07T12:53:49.000Z</time>
      </trkpt>
      <trkpt lat="44.15568" lon="6.76472">
        <ele>1300</ele>
        <time>2018-07-07T12:53:50.000Z</time>
      </trkpt>
      <trkpt lat="44.15569" lon="6.76468">
        <ele>1299</ele>
        <time>2018-07-07T12:53:51.000Z</time>
      </trkpt>
      <trkpt lat="44.1557" lon="6.76462">
        <ele>1298</ele>
        <time>2018-07-07T12:53:52.000Z</time>
      </trkpt>
      <trkpt lat="44.15571" lon="6.76456">
        <ele>1296</ele>
        <time>2018-07-07T12:53:53.000Z</time>
      </trkpt>
      <trkpt lat="44.15571" lon="6.7645">
        <ele>1295</ele>
        <time>2018-07-07T12:53:54.000Z</time>
      </trkpt>
      <trkpt lat="44.15573" lon="6.76448">
        <ele>1295</ele>
        <time>2018-07-07T12:53:55.000Z</time>
      </trkpt>
      <trkpt lat="44.15584" lon="6.76447">
        <ele>1301</ele>
        <time>2018-07-07T12:53:57.000Z</time>
      </trkpt>
      <trkpt lat="44.1559" lon="6.76447">
        <ele>1301</ele>
        <time>2018-07-07T12:53:58.000Z</time>
      </trkpt>
      <trkpt lat="44.15599" lon="6.76447">
        <ele>1301</ele>
        <time>2018-07-07T12:53:59.000Z</time>
      </trkpt>
      <trkpt lat="44.15606" lon="6.76447">
        <ele>1301</ele>
        <time>2018-07-07T12:54:00.000Z</time>
      </trkpt>
      <trkpt lat="44.15612" lon="6.76447">
        <ele>1301</ele>
        <time>2018-07-07T12:54:01.000Z</time>
      </trkpt>
      <trkpt lat="44.15617" lon="6.7645">
        <ele>1301</ele>
        <time>2018-07-07T12:54:02.000Z</time>
      </trkpt>
      <trkpt lat="44.15628" lon="6.76456">
        <ele>1300</ele>
        <time>2018-07-07T12:54:04.000Z</time>
      </trkpt>
      <trkpt lat="44.15633" lon="6.76459">
        <ele>1300</ele>
        <time>2018-07-07T12:54:05.000Z</time>
      </trkpt>
      <trkpt lat="44.15639" lon="6.76463">
        <ele>1300</ele>
        <time>2018-07-07T12:54:06.000Z</time>
      </trkpt>
      <trkpt lat="44.15643" lon="6.76469">
        <ele>1300</ele>
        <time>2018-07-07T12:54:07.000Z</time>
      </trkpt>
      <trkpt lat="44.15647" lon="6.76474">
        <ele>1300</ele>
        <time>2018-07-07T12:54:08.000Z</time>
      </trkpt>
      <trkpt lat="44.1565" lon="6.76484">
        <ele>1301</ele>
        <time>2018-07-07T12:54:09.000Z</time>
      </trkpt>
      <trkpt lat="44.15654" lon="6.76492">
        <ele>1300</ele>
        <time>2018-07-07T12:54:10.000Z</time>
      </trkpt>
      <trkpt lat="44.15657" lon="6.765">
        <ele>1300</ele>
        <time>2018-07-07T12:54:11.000Z</time>
      </trkpt>
      <trkpt lat="44.15661" lon="6.76506">
        <ele>1304</ele>
        <time>2018-07-07T12:54:13.000Z</time>
      </trkpt>
      <trkpt lat="44.15668" lon="6.76506">
        <ele>1298</ele>
        <time>2018-07-07T12:54:14.000Z</time>
      </trkpt>
      <trkpt lat="44.15673" lon="6.76506">
        <ele>1297</ele>
        <time>2018-07-07T12:54:15.000Z</time>
      </trkpt>
      <trkpt lat="44.15676" lon="6.76504">
        <ele>1297</ele>
        <time>2018-07-07T12:54:16.000Z</time>
      </trkpt>
      <trkpt lat="44.1568" lon="6.76497">
        <ele>1292</ele>
        <time>2018-07-07T12:54:18.000Z</time>
      </trkpt>
      <trkpt lat="44.15686" lon="6.76488">
        <ele>1288</ele>
        <time>2018-07-07T12:54:20.000Z</time>
      </trkpt>
      <trkpt lat="44.15693" lon="6.76483">
        <ele>1286</ele>
        <time>2018-07-07T12:54:22.000Z</time>
      </trkpt>
      <trkpt lat="44.15701" lon="6.76482">
        <ele>1284</ele>
        <time>2018-07-07T12:54:24.000Z</time>
      </trkpt>
      <trkpt lat="44.15705" lon="6.7648">
        <ele>1283</ele>
        <time>2018-07-07T12:54:25.000Z</time>
      </trkpt>
      <trkpt lat="44.15714" lon="6.76478">
        <ele>1282</ele>
        <time>2018-07-07T12:54:27.000Z</time>
      </trkpt>
      <trkpt lat="44.15717" lon="6.76476">
        <ele>1281</ele>
        <time>2018-07-07T12:54:28.000Z</time>
      </trkpt>
      <trkpt lat="44.1572" lon="6.76481">
        <ele>1281</ele>
        <time>2018-07-07T12:54:29.000Z</time>
      </trkpt>
      <trkpt lat="44.15725" lon="6.76483">
        <ele>1280</ele>
        <time>2018-07-07T12:54:30.000Z</time>
      </trkpt>
      <trkpt lat="44.1573" lon="6.76485">
        <ele>1280</ele>
        <time>2018-07-07T12:54:31.000Z</time>
      </trkpt>
      <trkpt lat="44.15735" lon="6.76488">
        <ele>1279</ele>
        <time>2018-07-07T12:54:32.000Z</time>
      </trkpt>
      <trkpt lat="44.15739" lon="6.76491">
        <ele>1279</ele>
        <time>2018-07-07T12:54:33.000Z</time>
      </trkpt>
      <trkpt lat="44.15745" lon="6.76492">
        <ele>1278</ele>
        <time>2018-07-07T12:54:34.000Z</time>
      </trkpt>
      <trkpt lat="44.15749" lon="6.76493">
        <ele>1278</ele>
        <time>2018-07-07T12:54:35.000Z</time>
      </trkpt>
      <trkpt lat="44.15756" lon="6.76501">
        <ele>1273</ele>
        <time>2018-07-07T12:54:37.000Z</time>
      </trkpt>
      <trkpt lat="44.15758" lon="6.76506">
        <ele>1271</ele>
        <time>2018-07-07T12:54:38.000Z</time>
      </trkpt>
      <trkpt lat="44.15761" lon="6.76514">
        <ele>1268</ele>
        <time>2018-07-07T12:54:39.000Z</time>
      </trkpt>
      <trkpt lat="44.15764" lon="6.76522">
        <ele>1265</ele>
        <time>2018-07-07T12:54:40.000Z</time>
      </trkpt>
      <trkpt lat="44.15767" lon="6.7653">
        <ele>1264</ele>
        <time>2018-07-07T12:54:41.000Z</time>
      </trkpt>
      <trkpt lat="44.15769" lon="6.76537">
        <ele>1263</ele>
        <time>2018-07-07T12:54:42.000Z</time>
      </trkpt>
      <trkpt lat="44.15774" lon="6.76553">
        <ele>1263</ele>
        <time>2018-07-07T12:54:44.000Z</time>
      </trkpt>
      <trkpt lat="44.15777" lon="6.76562">
        <ele>1263</ele>
        <time>2018-07-07T12:54:45.000Z</time>
      </trkpt>
      <trkpt lat="44.15781" lon="6.76569">
        <ele>1263</ele>
        <time>2018-07-07T12:54:46.000Z</time>
      </trkpt>
      <trkpt lat="44.15785" lon="6.76576">
        <ele>1262</ele>
        <time>2018-07-07T12:54:47.000Z</time>
      </trkpt>
      <trkpt lat="44.15792" lon="6.76588">
        <ele>1262</ele>
        <time>2018-07-07T12:54:49.000Z</time>
      </trkpt>
      <trkpt lat="44.15796" lon="6.76593">
        <ele>1261</ele>
        <time>2018-07-07T12:54:50.000Z</time>
      </trkpt>
      <trkpt lat="44.15799" lon="6.76596">
        <ele>1260</ele>
        <time>2018-07-07T12:54:51.000Z</time>
      </trkpt>
      <trkpt lat="44.15803" lon="6.76599">
        <ele>1258</ele>
        <time>2018-07-07T12:54:53.000Z</time>
      </trkpt>
      <trkpt lat="44.15806" lon="6.76603">
        <ele>1258</ele>
        <time>2018-07-07T12:54:54.000Z</time>
      </trkpt>
      <trkpt lat="44.15807" lon="6.76607">
        <ele>1258</ele>
        <time>2018-07-07T12:54:55.000Z</time>
      </trkpt>
      <trkpt lat="44.15809" lon="6.7661">
        <ele>1258</ele>
        <time>2018-07-07T12:54:56.000Z</time>
      </trkpt>
      <trkpt lat="44.15814" lon="6.76612">
        <ele>1257</ele>
        <time>2018-07-07T12:54:57.000Z</time>
      </trkpt>
      <trkpt lat="44.15818" lon="6.76614">
        <ele>1256</ele>
        <time>2018-07-07T12:54:58.000Z</time>
      </trkpt>
      <trkpt lat="44.1582" lon="6.76613">
        <ele>1256</ele>
        <time>2018-07-07T12:54:59.000Z</time>
      </trkpt>
      <trkpt lat="44.15821" lon="6.76612">
        <ele>1255</ele>
        <time>2018-07-07T12:55:00.000Z</time>
      </trkpt>
      <trkpt lat="44.15821" lon="6.7661">
        <ele>1255</ele>
        <time>2018-07-07T12:55:01.000Z</time>
      </trkpt>
      <trkpt lat="44.1582" lon="6.76604">
        <ele>1254</ele>
        <time>2018-07-07T12:55:03.000Z</time>
      </trkpt>
      <trkpt lat="44.15819" lon="6.76601">
        <ele>1253</ele>
        <time>2018-07-07T12:55:04.000Z</time>
      </trkpt>
      <trkpt lat="44.15817" lon="6.76587">
        <ele>1251</ele>
        <time>2018-07-07T12:55:07.000Z</time>
      </trkpt>
      <trkpt lat="44.15816" lon="6.76584">
        <ele>1251</ele>
        <time>2018-07-07T12:55:08.000Z</time>
      </trkpt>
      <trkpt lat="44.15817" lon="6.76577">
        <ele>1249</ele>
        <time>2018-07-07T12:55:11.000Z</time>
      </trkpt>
      <trkpt lat="44.15819" lon="6.76575">
        <ele>1248</ele>
        <time>2018-07-07T12:55:12.000Z</time>
      </trkpt>
      <trkpt lat="44.15823" lon="6.76573">
        <ele>1247</ele>
        <time>2018-07-07T12:55:14.000Z</time>
      </trkpt>
      <trkpt lat="44.15827" lon="6.76575">
        <ele>1245</ele>
        <time>2018-07-07T12:55:16.000Z</time>
      </trkpt>
      <trkpt lat="44.1583" lon="6.76571">
        <ele>1246</ele>
        <time>2018-07-07T12:55:17.000Z</time>
      </trkpt>
      <trkpt lat="44.15832" lon="6.76568">
        <ele>1247</ele>
        <time>2018-07-07T12:55:18.000Z</time>
      </trkpt>
      <trkpt lat="44.15834" lon="6.76561">
        <ele>1225</ele>
        <time>2018-07-07T12:55:19.000Z</time>
      </trkpt>
      <trkpt lat="44.15837" lon="6.76545">
        <ele>1222</ele>
        <time>2018-07-07T12:55:21.000Z</time>
      </trkpt>
      <trkpt lat="44.15837" lon="6.76537">
        <ele>1221</ele>
        <time>2018-07-07T12:55:22.000Z</time>
      </trkpt>
      <trkpt lat="44.15837" lon="6.76516">
        <ele>1225</ele>
        <time>2018-07-07T12:55:24.000Z</time>
      </trkpt>
      <trkpt lat="44.15836" lon="6.76507">
        <ele>1229</ele>
        <time>2018-07-07T12:55:25.000Z</time>
      </trkpt>
      <trkpt lat="44.15834" lon="6.76499">
        <ele>1233</ele>
        <time>2018-07-07T12:55:26.000Z</time>
      </trkpt>
      <trkpt lat="44.15832" lon="6.76492">
        <ele>1238</ele>
        <time>2018-07-07T12:55:27.000Z</time>
      </trkpt>
      <trkpt lat="44.15831" lon="6.76485">
        <ele>1241</ele>
        <time>2018-07-07T12:55:28.000Z</time>
      </trkpt>
      <trkpt lat="44.15833" lon="6.76478">
        <ele>1242</ele>
        <time>2018-07-07T12:55:29.000Z</time>
      </trkpt>
      <trkpt lat="44.15835" lon="6.76463">
        <ele>1217</ele>
        <time>2018-07-07T12:55:31.000Z</time>
      </trkpt>
      <trkpt lat="44.15839" lon="6.76442">
        <ele>1216</ele>
        <time>2018-07-07T12:55:34.000Z</time>
      </trkpt>
      <trkpt lat="44.15839" lon="6.76433">
        <ele>1219</ele>
        <time>2018-07-07T12:55:35.000Z</time>
      </trkpt>
      <trkpt lat="44.15836" lon="6.76411">
        <ele>1220</ele>
        <time>2018-07-07T12:55:37.000Z</time>
      </trkpt>
      <trkpt lat="44.15835" lon="6.764">
        <ele>1212</ele>
        <time>2018-07-07T12:55:38.000Z</time>
      </trkpt>
      <trkpt lat="44.15832" lon="6.76391">
        <ele>1229</ele>
        <time>2018-07-07T12:55:39.000Z</time>
      </trkpt>
      <trkpt lat="44.15826" lon="6.76377">
        <ele>1227</ele>
        <time>2018-07-07T12:55:41.000Z</time>
      </trkpt>
      <trkpt lat="44.15821" lon="6.76368">
        <ele>1226</ele>
        <time>2018-07-07T12:55:43.000Z</time>
      </trkpt>
      <trkpt lat="44.1582" lon="6.76365">
        <ele>1225</ele>
        <time>2018-07-07T12:55:44.000Z</time>
      </trkpt>
      <trkpt lat="44.15819" lon="6.76364">
        <ele>1225</ele>
        <time>2018-07-07T12:55:45.000Z</time>
      </trkpt>
      <trkpt lat="44.15818" lon="6.76364">
        <ele>1225</ele>
        <time>2018-07-07T12:55:47.000Z</time>
      </trkpt>
      <trkpt lat="44.15817" lon="6.76362">
        <ele>1225</ele>
        <time>2018-07-07T12:55:49.000Z</time>
      </trkpt>
      <trkpt lat="44.15817" lon="6.76362">
        <ele>1225</ele>
        <time>2018-07-07T12:55:50.000Z</time>
      </trkpt>
      <trkpt lat="44.15814" lon="6.7636">
        <ele>1225</ele>
        <time>2018-07-07T12:55:56.000Z</time>
      </trkpt>
      <trkpt lat="44.15813" lon="6.7636">
        <ele>1225</ele>
        <time>2018-07-07T12:55:57.000Z</time>
      </trkpt>
      <trkpt lat="44.15806" lon="6.76354">
        <ele>1226</ele>
        <time>2018-07-07T12:56:00.000Z</time>
      </trkpt>
      <trkpt lat="44.15805" lon="6.76351">
        <ele>1225</ele>
        <time>2018-07-07T12:56:01.000Z</time>
      </trkpt>
      <trkpt lat="44.15807" lon="6.76344">
        <ele>1224</ele>
        <time>2018-07-07T12:56:03.000Z</time>
      </trkpt>
      <trkpt lat="44.15809" lon="6.76343">
        <ele>1223</ele>
        <time>2018-07-07T12:56:04.000Z</time>
      </trkpt>
      <trkpt lat="44.15822" lon="6.7634">
        <ele>1215</ele>
        <time>2018-07-07T12:56:06.000Z</time>
      </trkpt>
      <trkpt lat="44.15835" lon="6.76337">
        <ele>1202</ele>
        <time>2018-07-07T12:56:08.000Z</time>
      </trkpt>
      <trkpt lat="44.15842" lon="6.76335">
        <ele>1200</ele>
        <time>2018-07-07T12:56:09.000Z</time>
      </trkpt>
      <trkpt lat="44.15854" lon="6.76331">
        <ele>1185</ele>
        <time>2018-07-07T12:56:11.000Z</time>
      </trkpt>
      <trkpt lat="44.15859" lon="6.76327">
        <ele>1182</ele>
        <time>2018-07-07T12:56:12.000Z</time>
      </trkpt>
      <trkpt lat="44.15869" lon="6.76326">
        <ele>1178</ele>
        <time>2018-07-07T12:56:14.000Z</time>
      </trkpt>
      <trkpt lat="44.15873" lon="6.76326">
        <ele>1177</ele>
        <time>2018-07-07T12:56:15.000Z</time>
      </trkpt>
      <trkpt lat="44.15876" lon="6.76328">
        <ele>1176</ele>
        <time>2018-07-07T12:56:16.000Z</time>
      </trkpt>
      <trkpt lat="44.15877" lon="6.76326">
        <ele>1176</ele>
        <time>2018-07-07T12:56:17.000Z</time>
      </trkpt>
      <trkpt lat="44.15878" lon="6.76326">
        <ele>1176</ele>
        <time>2018-07-07T12:56:18.000Z</time>
      </trkpt>
      <trkpt lat="44.15877" lon="6.76325">
        <ele>1176</ele>
        <time>2018-07-07T12:56:19.000Z</time>
      </trkpt>
      <trkpt lat="44.15872" lon="6.76318">
        <ele>1177</ele>
        <time>2018-07-07T12:56:21.000Z</time>
      </trkpt>
      <trkpt lat="44.15868" lon="6.76314">
        <ele>1177</ele>
        <time>2018-07-07T12:56:22.000Z</time>
      </trkpt>
      <trkpt lat="44.15865" lon="6.76312">
        <ele>1177</ele>
        <time>2018-07-07T12:56:23.000Z</time>
      </trkpt>
      <trkpt lat="44.15861" lon="6.76306">
        <ele>1177</ele>
        <time>2018-07-07T12:56:25.000Z</time>
      </trkpt>
      <trkpt lat="44.15862" lon="6.76304">
        <ele>1176</ele>
        <time>2018-07-07T12:56:26.000Z</time>
      </trkpt>
      <trkpt lat="44.15864" lon="6.76302">
        <ele>1176</ele>
        <time>2018-07-07T12:56:27.000Z</time>
      </trkpt>
      <trkpt lat="44.15866" lon="6.76302">
        <ele>1175</ele>
        <time>2018-07-07T12:56:29.000Z</time>
      </trkpt>
      <trkpt lat="44.15866" lon="6.76299">
        <ele>1175</ele>
        <time>2018-07-07T12:56:30.000Z</time>
      </trkpt>
      <trkpt lat="44.1586" lon="6.76295">
        <ele>1175</ele>
        <time>2018-07-07T12:56:32.000Z</time>
      </trkpt>
      <trkpt lat="44.15855" lon="6.76292">
        <ele>1175</ele>
        <time>2018-07-07T12:56:35.000Z</time>
      </trkpt>
      <trkpt lat="44.15857" lon="6.7629">
        <ele>1174</ele>
        <time>2018-07-07T12:56:37.000Z</time>
      </trkpt>
      <trkpt lat="44.1586" lon="6.76287">
        <ele>1173</ele>
        <time>2018-07-07T12:56:38.000Z</time>
      </trkpt>
      <trkpt lat="44.15863" lon="6.76285">
        <ele>1172</ele>
        <time>2018-07-07T12:56:39.000Z</time>
      </trkpt>
      <trkpt lat="44.15871" lon="6.76284">
        <ele>1172</ele>
        <time>2018-07-07T12:56:41.000Z</time>
      </trkpt>
      <trkpt lat="44.15875" lon="6.76284">
        <ele>1171</ele>
        <time>2018-07-07T12:56:42.000Z</time>
      </trkpt>
      <trkpt lat="44.15879" lon="6.76284">
        <ele>1171</ele>
        <time>2018-07-07T12:56:43.000Z</time>
      </trkpt>
      <trkpt lat="44.15884" lon="6.76282">
        <ele>1170</ele>
        <time>2018-07-07T12:56:44.000Z</time>
      </trkpt>
      <trkpt lat="44.15892" lon="6.76275">
        <ele>1168</ele>
        <time>2018-07-07T12:56:46.000Z</time>
      </trkpt>
      <trkpt lat="44.15896" lon="6.7627">
        <ele>1168</ele>
        <time>2018-07-07T12:56:47.000Z</time>
      </trkpt>
      <trkpt lat="44.15899" lon="6.76267">
        <ele>1167</ele>
        <time>2018-07-07T12:56:48.000Z</time>
      </trkpt>
      <trkpt lat="44.15901" lon="6.76263">
        <ele>1166</ele>
        <time>2018-07-07T12:56:49.000Z</time>
      </trkpt>
      <trkpt lat="44.15904" lon="6.7626">
        <ele>1165</ele>
        <time>2018-07-07T12:56:50.000Z</time>
      </trkpt>
      <trkpt lat="44.15906" lon="6.76258">
        <ele>1164</ele>
        <time>2018-07-07T12:56:51.000Z</time>
      </trkpt>
      <trkpt lat="44.15909" lon="6.76255">
        <ele>1163</ele>
        <time>2018-07-07T12:56:53.000Z</time>
      </trkpt>
      <trkpt lat="44.1591" lon="6.76259">
        <ele>1164</ele>
        <time>2018-07-07T12:56:54.000Z</time>
      </trkpt>
      <trkpt lat="44.15911" lon="6.76264">
        <ele>1165</ele>
        <time>2018-07-07T12:56:56.000Z</time>
      </trkpt>
      <trkpt lat="44.15911" lon="6.76264">
        <ele>1165</ele>
        <time>2018-07-07T12:56:57.000Z</time>
      </trkpt>
      <trkpt lat="44.15911" lon="6.76264">
        <ele>1165</ele>
        <time>2018-07-07T12:56:59.000Z</time>
      </trkpt>
      <trkpt lat="44.15912" lon="6.76264">
        <ele>1165</ele>
        <time>2018-07-07T12:57:00.000Z</time>
      </trkpt>
      <trkpt lat="44.15912" lon="6.76264">
        <ele>1165</ele>
        <time>2018-07-07T12:57:01.000Z</time>
      </trkpt>
      <trkpt lat="44.15912" lon="6.76264">
        <ele>1165</ele>
        <time>2018-07-07T12:57:02.000Z</time>
      </trkpt>
      <trkpt lat="44.15916" lon="6.76261">
        <ele>1164</ele>
        <time>2018-07-07T12:57:09.000Z</time>
      </trkpt>
      <trkpt lat="44.15919" lon="6.76255">
        <ele>1165</ele>
        <time>2018-07-07T12:57:12.000Z</time>
      </trkpt>
      <trkpt lat="44.15919" lon="6.76253">
        <ele>1164</ele>
        <time>2018-07-07T12:57:13.000Z</time>
      </trkpt>
      <trkpt lat="44.15919" lon="6.76251">
        <ele>1163</ele>
        <time>2018-07-07T12:57:15.000Z</time>
      </trkpt>
      <trkpt lat="44.1592" lon="6.7625">
        <ele>1163</ele>
        <time>2018-07-07T12:57:18.000Z</time>
      </trkpt>
      <trkpt lat="44.1592" lon="6.7625">
        <ele>1163</ele>
        <time>2018-07-07T12:57:19.000Z</time>
      </trkpt>
      <trkpt lat="44.15919" lon="6.76249">
        <ele>1163</ele>
        <time>2018-07-07T12:57:27.000Z</time>
      </trkpt>
      <trkpt lat="44.15919" lon="6.76248">
        <ele>1163</ele>
        <time>2018-07-07T12:57:37.000Z</time>
      </trkpt>
      <trkpt lat="44.15918" lon="6.76246">
        <ele>1164</ele>
        <time>2018-07-07T12:57:46.000Z</time>
      </trkpt>
      <trkpt lat="44.15919" lon="6.76245">
        <ele>1165</ele>
        <time>2018-07-07T12:57:56.000Z</time>
      </trkpt>
      <trkpt lat="44.15919" lon="6.76242">
        <ele>1168</ele>
        <time>2018-07-07T12:58:02.000Z</time>
      </trkpt>
      <trkpt lat="44.15919" lon="6.76238">
        <ele>1171</ele>
        <time>2018-07-07T12:58:10.000Z</time>
      </trkpt>
      <trkpt lat="44.15919" lon="6.76238">
        <ele>1171</ele>
        <time>2018-07-07T12:58:16.000Z</time>
      </trkpt>
      <trkpt lat="44.1592" lon="6.76235">
        <ele>1173</ele>
        <time>2018-07-07T12:58:22.000Z</time>
      </trkpt>
      <trkpt lat="44.1592" lon="6.76233">
        <ele>1174</ele>
        <time>2018-07-07T12:58:28.000Z</time>
      </trkpt>
      <trkpt lat="44.15922" lon="6.76233">
        <ele>1174</ele>
        <time>2018-07-07T12:58:34.000Z</time>
      </trkpt>
      <trkpt lat="44.15922" lon="6.76233">
        <ele>1174</ele>
        <time>2018-07-07T12:58:35.000Z</time>
      </trkpt>
      <trkpt lat="44.15925" lon="6.76232">
        <ele>1175</ele>
        <time>2018-07-07T12:58:41.000Z</time>
      </trkpt>
      <trkpt lat="44.15924" lon="6.76228">
        <ele>1177</ele>
        <time>2018-07-07T12:58:47.000Z</time>
      </trkpt>
      <trkpt lat="44.15924" lon="6.76227">
        <ele>1177</ele>
        <time>2018-07-07T12:58:48.000Z</time>
      </trkpt>
      <trkpt lat="44.15922" lon="6.76227">
        <ele>1177</ele>
        <time>2018-07-07T12:58:49.000Z</time>
      </trkpt>
      <trkpt lat="44.15923" lon="6.76227">
        <ele>1177</ele>
        <time>2018-07-07T12:58:50.000Z</time>
      </trkpt>
      <trkpt lat="44.1592" lon="6.76225">
        <ele>1177</ele>
        <time>2018-07-07T12:58:53.000Z</time>
      </trkpt>
      <trkpt lat="44.1591" lon="6.76217">
        <ele>1158</ele>
        <time>2018-07-07T12:58:59.000Z</time>
      </trkpt>
      <trkpt lat="44.15903" lon="6.76208">
        <ele>1157</ele>
        <time>2018-07-07T12:59:05.000Z</time>
      </trkpt>
      <trkpt lat="44.159" lon="6.76196">
        <ele>1158</ele>
        <time>2018-07-07T12:59:10.000Z</time>
      </trkpt>
      <trkpt lat="44.15895" lon="6.76181">
        <ele>1158</ele>
        <time>2018-07-07T12:59:16.000Z</time>
      </trkpt>
      <trkpt lat="44.15893" lon="6.76175">
        <ele>1158</ele>
        <time>2018-07-07T12:59:21.000Z</time>
      </trkpt>
      <trkpt lat="44.15893" lon="6.76169">
        <ele>1158</ele>
        <time>2018-07-07T12:59:27.000Z</time>
      </trkpt>
      <trkpt lat="44.15894" lon="6.76165">
        <ele>1153</ele>
        <time>2018-07-07T12:59:33.000Z</time>
      </trkpt>
      <trkpt lat="44.15895" lon="6.76163">
        <ele>1153</ele>
        <time>2018-07-07T12:59:34.000Z</time>
      </trkpt>
      <trkpt lat="44.15895" lon="6.76163">
        <ele>1153</ele>
        <time>2018-07-07T12:59:37.000Z</time>
      </trkpt>
      <trkpt lat="44.15895" lon="6.76159">
        <ele>1153</ele>
        <time>2018-07-07T12:59:40.000Z</time>
      </trkpt>
      <trkpt lat="44.15896" lon="6.76155">
        <ele>1153</ele>
        <time>2018-07-07T12:59:44.000Z</time>
      </trkpt>
      <trkpt lat="44.15897" lon="6.76152">
        <ele>1153</ele>
        <time>2018-07-07T12:59:47.000Z</time>
      </trkpt>
      <trkpt lat="44.15899" lon="6.76149">
        <ele>1153</ele>
        <time>2018-07-07T12:59:53.000Z</time>
      </trkpt>
      <trkpt lat="44.15898" lon="6.76149">
        <ele>1152</ele>
        <time>2018-07-07T12:59:54.000Z</time>
      </trkpt>
      <trkpt lat="44.15899" lon="6.76147">
        <ele>1152</ele>
        <time>2018-07-07T12:59:56.000Z</time>
      </trkpt>
      <trkpt lat="44.15899" lon="6.76144">
        <ele>1152</ele>
        <time>2018-07-07T12:59:59.000Z</time>
      </trkpt>
      <trkpt lat="44.15901" lon="6.76141">
        <ele>1152</ele>
        <time>2018-07-07T13:00:03.000Z</time>
      </trkpt>
      <trkpt lat="44.15902" lon="6.76139">
        <ele>1151</ele>
        <time>2018-07-07T13:00:06.000Z</time>
      </trkpt>
      <trkpt lat="44.15903" lon="6.76137">
        <ele>1151</ele>
        <time>2018-07-07T13:00:10.000Z</time>
      </trkpt>
      <trkpt lat="44.15904" lon="6.76136">
        <ele>1151</ele>
        <time>2018-07-07T13:00:13.000Z</time>
      </trkpt>
      <trkpt lat="44.15905" lon="6.76136">
        <ele>1151</ele>
        <time>2018-07-07T13:00:14.000Z</time>
      </trkpt>
      <trkpt lat="44.15906" lon="6.76134">
        <ele>1151</ele>
        <time>2018-07-07T13:00:19.000Z</time>
      </trkpt>
      <trkpt lat="44.15909" lon="6.7613">
        <ele>1151</ele>
        <time>2018-07-07T13:00:24.000Z</time>
      </trkpt>
      <trkpt lat="44.1591" lon="6.76128">
        <ele>1151</ele>
        <time>2018-07-07T13:00:27.000Z</time>
      </trkpt>
      <trkpt lat="44.15912" lon="6.76126">
        <ele>1151</ele>
        <time>2018-07-07T13:00:32.000Z</time>
      </trkpt>
      <trkpt lat="44.15914" lon="6.76123">
        <ele>1151</ele>
        <time>2018-07-07T13:00:36.000Z</time>
      </trkpt>
      <trkpt lat="44.15916" lon="6.76121">
        <ele>1151</ele>
        <time>2018-07-07T13:00:40.000Z</time>
      </trkpt>
      <trkpt lat="44.15918" lon="6.76119">
        <ele>1176</ele>
        <time>2018-07-07T13:00:44.000Z</time>
      </trkpt>
      <trkpt lat="44.15918" lon="6.76118">
        <ele>1176</ele>
        <time>2018-07-07T13:00:46.000Z</time>
      </trkpt>
      <trkpt lat="44.15919" lon="6.76116">
        <ele>1176</ele>
        <time>2018-07-07T13:00:51.000Z</time>
      </trkpt>
      <trkpt lat="44.1592" lon="6.76116">
        <ele>1176</ele>
        <time>2018-07-07T13:00:53.000Z</time>
      </trkpt>
      <trkpt lat="44.1592" lon="6.76116">
        <ele>1176</ele>
        <time>2018-07-07T13:01:01.000Z</time>
      </trkpt>
      <trkpt lat="44.15921" lon="6.76114">
        <ele>1176</ele>
        <time>2018-07-07T13:01:07.000Z</time>
      </trkpt>
      <trkpt lat="44.15922" lon="6.76113">
        <ele>1176</ele>
        <time>2018-07-07T13:01:12.000Z</time>
      </trkpt>
      <trkpt lat="44.15922" lon="6.76113">
        <ele>1176</ele>
        <time>2018-07-07T13:01:13.000Z</time>
      </trkpt>
      <trkpt lat="44.15924" lon="6.76113">
        <ele>1176</ele>
        <time>2018-07-07T13:01:22.000Z</time>
      </trkpt>
      <trkpt lat="44.15925" lon="6.76112">
        <ele>1176</ele>
        <time>2018-07-07T13:01:29.000Z</time>
      </trkpt>
      <trkpt lat="44.15928" lon="6.7611">
        <ele>1176</ele>
        <time>2018-07-07T13:01:35.000Z</time>
      </trkpt>
      <trkpt lat="44.15931" lon="6.76107">
        <ele>1176</ele>
        <time>2018-07-07T13:01:42.000Z</time>
      </trkpt>
      <trkpt lat="44.15932" lon="6.76106">
        <ele>1176</ele>
        <time>2018-07-07T13:01:43.000Z</time>
      </trkpt>
      <trkpt lat="44.15935" lon="6.76103">
        <ele>1176</ele>
        <time>2018-07-07T13:01:49.000Z</time>
      </trkpt>
      <trkpt lat="44.15935" lon="6.76102">
        <ele>1176</ele>
        <time>2018-07-07T13:01:50.000Z</time>
      </trkpt>
      <trkpt lat="44.15938" lon="6.761">
        <ele>1176</ele>
        <time>2018-07-07T13:01:55.000Z</time>
      </trkpt>
      <trkpt lat="44.15939" lon="6.76098">
        <ele>1176</ele>
        <time>2018-07-07T13:01:58.000Z</time>
      </trkpt>
      <trkpt lat="44.1594" lon="6.76097">
        <ele>1177</ele>
        <time>2018-07-07T13:02:03.000Z</time>
      </trkpt>
      <trkpt lat="44.15941" lon="6.76097">
        <ele>1177</ele>
        <time>2018-07-07T13:02:04.000Z</time>
      </trkpt>
      <trkpt lat="44.15945" lon="6.76094">
        <ele>1178</ele>
        <time>2018-07-07T13:02:11.000Z</time>
      </trkpt>
      <trkpt lat="44.15946" lon="6.76094">
        <ele>1179</ele>
        <time>2018-07-07T13:02:13.000Z</time>
      </trkpt>
      <trkpt lat="44.15948" lon="6.76092">
        <ele>1179</ele>
        <time>2018-07-07T13:02:17.000Z</time>
      </trkpt>
      <trkpt lat="44.1595" lon="6.7609">
        <ele>1180</ele>
        <time>2018-07-07T13:02:21.000Z</time>
      </trkpt>
      <trkpt lat="44.15952" lon="6.76089">
        <ele>1181</ele>
        <time>2018-07-07T13:02:24.000Z</time>
      </trkpt>
      <trkpt lat="44.15955" lon="6.76086">
        <ele>1182</ele>
        <time>2018-07-07T13:02:30.000Z</time>
      </trkpt>
      <trkpt lat="44.1596" lon="6.76081">
        <ele>1167</ele>
        <time>2018-07-07T13:02:37.000Z</time>
      </trkpt>
      <trkpt lat="44.15963" lon="6.7608">
        <ele>1169</ele>
        <time>2018-07-07T13:02:43.000Z</time>
      </trkpt>
      <trkpt lat="44.15964" lon="6.76079">
        <ele>1169</ele>
        <time>2018-07-07T13:02:44.000Z</time>
      </trkpt>
      <trkpt lat="44.15966" lon="6.76078">
        <ele>1170</ele>
        <time>2018-07-07T13:02:50.000Z</time>
      </trkpt>
      <trkpt lat="44.15968" lon="6.76076">
        <ele>1170</ele>
        <time>2018-07-07T13:02:52.000Z</time>
      </trkpt>
      <trkpt lat="44.1597" lon="6.76074">
        <ele>1171</ele>
        <time>2018-07-07T13:02:56.000Z</time>
      </trkpt>
      <trkpt lat="44.15973" lon="6.76072">
        <ele>1172</ele>
        <time>2018-07-07T13:03:01.000Z</time>
      </trkpt>
      <trkpt lat="44.15974" lon="6.76071">
        <ele>1173</ele>
        <time>2018-07-07T13:03:03.000Z</time>
      </trkpt>
      <trkpt lat="44.15979" lon="6.7607">
        <ele>1174</ele>
        <time>2018-07-07T13:03:10.000Z</time>
      </trkpt>
      <trkpt lat="44.15982" lon="6.76069">
        <ele>1176</ele>
        <time>2018-07-07T13:03:17.000Z</time>
      </trkpt>
      <trkpt lat="44.15983" lon="6.76068">
        <ele>1176</ele>
        <time>2018-07-07T13:03:20.000Z</time>
      </trkpt>
      <trkpt lat="44.15985" lon="6.76067">
        <ele>1176</ele>
        <time>2018-07-07T13:03:24.000Z</time>
      </trkpt>
      <trkpt lat="44.15987" lon="6.76066">
        <ele>1177</ele>
        <time>2018-07-07T13:03:28.000Z</time>
      </trkpt>
      <trkpt lat="44.15989" lon="6.76065">
        <ele>1177</ele>
        <time>2018-07-07T13:03:30.000Z</time>
      </trkpt>
      <trkpt lat="44.15993" lon="6.76065">
        <ele>1178</ele>
        <time>2018-07-07T13:03:37.000Z</time>
      </trkpt>
      <trkpt lat="44.15997" lon="6.76063">
        <ele>1178</ele>
        <time>2018-07-07T13:03:44.000Z</time>
      </trkpt>
      <trkpt lat="44.15998" lon="6.76063">
        <ele>1178</ele>
        <time>2018-07-07T13:03:46.000Z</time>
      </trkpt>
      <trkpt lat="44.16001" lon="6.76062">
        <ele>1198</ele>
        <time>2018-07-07T13:03:51.000Z</time>
      </trkpt>
      <trkpt lat="44.16004" lon="6.76061">
        <ele>1198</ele>
        <time>2018-07-07T13:03:56.000Z</time>
      </trkpt>
      <trkpt lat="44.16005" lon="6.7606">
        <ele>1198</ele>
        <time>2018-07-07T13:03:59.000Z</time>
      </trkpt>
      <trkpt lat="44.16009" lon="6.76059">
        <ele>1198</ele>
        <time>2018-07-07T13:04:04.000Z</time>
      </trkpt>
      <trkpt lat="44.16011" lon="6.76057">
        <ele>1198</ele>
        <time>2018-07-07T13:04:07.000Z</time>
      </trkpt>
      <trkpt lat="44.16014" lon="6.76056">
        <ele>1198</ele>
        <time>2018-07-07T13:04:12.000Z</time>
      </trkpt>
      <trkpt lat="44.16016" lon="6.76056">
        <ele>1198</ele>
        <time>2018-07-07T13:04:14.000Z</time>
      </trkpt>
      <trkpt lat="44.16019" lon="6.76055">
        <ele>1199</ele>
        <time>2018-07-07T13:04:20.000Z</time>
      </trkpt>
      <trkpt lat="44.16022" lon="6.76053">
        <ele>1199</ele>
        <time>2018-07-07T13:04:28.000Z</time>
      </trkpt>
      <trkpt lat="44.16026" lon="6.76051">
        <ele>1199</ele>
        <time>2018-07-07T13:04:34.000Z</time>
      </trkpt>
      <trkpt lat="44.16026" lon="6.76052">
        <ele>1199</ele>
        <time>2018-07-07T13:04:35.000Z</time>
      </trkpt>
      <trkpt lat="44.16029" lon="6.76049">
        <ele>1199</ele>
        <time>2018-07-07T13:04:41.000Z</time>
      </trkpt>
      <trkpt lat="44.16032" lon="6.76048">
        <ele>1200</ele>
        <time>2018-07-07T13:04:46.000Z</time>
      </trkpt>
      <trkpt lat="44.16034" lon="6.76048">
        <ele>1200</ele>
        <time>2018-07-07T13:04:48.000Z</time>
      </trkpt>
      <trkpt lat="44.16036" lon="6.76047">
        <ele>1200</ele>
        <time>2018-07-07T13:04:53.000Z</time>
      </trkpt>
      <trkpt lat="44.16037" lon="6.76047">
        <ele>1201</ele>
        <time>2018-07-07T13:04:54.000Z</time>
      </trkpt>
      <trkpt lat="44.1604" lon="6.76047">
        <ele>1201</ele>
        <time>2018-07-07T13:05:00.000Z</time>
      </trkpt>
      <trkpt lat="44.16041" lon="6.76046">
        <ele>1202</ele>
        <time>2018-07-07T13:05:02.000Z</time>
      </trkpt>
      <trkpt lat="44.16045" lon="6.76047">
        <ele>1203</ele>
        <time>2018-07-07T13:05:07.000Z</time>
      </trkpt>
      <trkpt lat="44.16048" lon="6.76047">
        <ele>1203</ele>
        <time>2018-07-07T13:05:11.000Z</time>
      </trkpt>
      <trkpt lat="44.1605" lon="6.76048">
        <ele>1204</ele>
        <time>2018-07-07T13:05:15.000Z</time>
      </trkpt>
      <trkpt lat="44.16052" lon="6.76049">
        <ele>1205</ele>
        <time>2018-07-07T13:05:19.000Z</time>
      </trkpt>
      <trkpt lat="44.16055" lon="6.7605">
        <ele>1206</ele>
        <time>2018-07-07T13:05:24.000Z</time>
      </trkpt>
      <trkpt lat="44.16058" lon="6.7605">
        <ele>1207</ele>
        <time>2018-07-07T13:05:28.000Z</time>
      </trkpt>
      <trkpt lat="44.1606" lon="6.76047">
        <ele>1207</ele>
        <time>2018-07-07T13:05:32.000Z</time>
      </trkpt>
      <trkpt lat="44.16062" lon="6.76045">
        <ele>1207</ele>
        <time>2018-07-07T13:05:35.000Z</time>
      </trkpt>
      <trkpt lat="44.16066" lon="6.76039">
        <ele>1206</ele>
        <time>2018-07-07T13:05:43.000Z</time>
      </trkpt>
      <trkpt lat="44.16067" lon="6.76038">
        <ele>1206</ele>
        <time>2018-07-07T13:05:44.000Z</time>
      </trkpt>
      <trkpt lat="44.1607" lon="6.76033">
        <ele>1205</ele>
        <time>2018-07-07T13:05:51.000Z</time>
      </trkpt>
      <trkpt lat="44.16072" lon="6.76032">
        <ele>1205</ele>
        <time>2018-07-07T13:05:54.000Z</time>
      </trkpt>
      <trkpt lat="44.16075" lon="6.7603">
        <ele>1205</ele>
        <time>2018-07-07T13:05:59.000Z</time>
      </trkpt>
      <trkpt lat="44.16077" lon="6.76029">
        <ele>1205</ele>
        <time>2018-07-07T13:06:02.000Z</time>
      </trkpt>
      <trkpt lat="44.16079" lon="6.76028">
        <ele>1205</ele>
        <time>2018-07-07T13:06:05.000Z</time>
      </trkpt>
      <trkpt lat="44.16083" lon="6.76026">
        <ele>1205</ele>
        <time>2018-07-07T13:06:12.000Z</time>
      </trkpt>
      <trkpt lat="44.16086" lon="6.76024">
        <ele>1228</ele>
        <time>2018-07-07T13:06:19.000Z</time>
      </trkpt>
      <trkpt lat="44.16087" lon="6.76023">
        <ele>1228</ele>
        <time>2018-07-07T13:06:21.000Z</time>
      </trkpt>
      <trkpt lat="44.16091" lon="6.76021">
        <ele>1227</ele>
        <time>2018-07-07T13:06:26.000Z</time>
      </trkpt>
      <trkpt lat="44.16093" lon="6.76018">
        <ele>1226</ele>
        <time>2018-07-07T13:06:31.000Z</time>
      </trkpt>
      <trkpt lat="44.16094" lon="6.76017">
        <ele>1226</ele>
        <time>2018-07-07T13:06:32.000Z</time>
      </trkpt>
      <trkpt lat="44.16095" lon="6.76014">
        <ele>1225</ele>
        <time>2018-07-07T13:06:39.000Z</time>
      </trkpt>
      <trkpt lat="44.16095" lon="6.76014">
        <ele>1225</ele>
        <time>2018-07-07T13:06:41.000Z</time>
      </trkpt>
      <trkpt lat="44.16099" lon="6.76012">
        <ele>1226</ele>
        <time>2018-07-07T13:06:48.000Z</time>
      </trkpt>
      <trkpt lat="44.161" lon="6.76012">
        <ele>1226</ele>
        <time>2018-07-07T13:06:50.000Z</time>
      </trkpt>
      <trkpt lat="44.16103" lon="6.7601">
        <ele>1228</ele>
        <time>2018-07-07T13:06:55.000Z</time>
      </trkpt>
      <trkpt lat="44.16106" lon="6.76008">
        <ele>1229</ele>
        <time>2018-07-07T13:06:59.000Z</time>
      </trkpt>
      <trkpt lat="44.16109" lon="6.76008">
        <ele>1231</ele>
        <time>2018-07-07T13:07:04.000Z</time>
      </trkpt>
      <trkpt lat="44.1611" lon="6.76007">
        <ele>1231</ele>
        <time>2018-07-07T13:07:05.000Z</time>
      </trkpt>
      <trkpt lat="44.16114" lon="6.76005">
        <ele>1233</ele>
        <time>2018-07-07T13:07:12.000Z</time>
      </trkpt>
      <trkpt lat="44.16115" lon="6.76004">
        <ele>1233</ele>
        <time>2018-07-07T13:07:13.000Z</time>
      </trkpt>
      <trkpt lat="44.16119" lon="6.76002">
        <ele>1235</ele>
        <time>2018-07-07T13:07:19.000Z</time>
      </trkpt>
      <trkpt lat="44.1612" lon="6.76001">
        <ele>1235</ele>
        <time>2018-07-07T13:07:22.000Z</time>
      </trkpt>
      <trkpt lat="44.16123" lon="6.75999">
        <ele>1214</ele>
        <time>2018-07-07T13:07:26.000Z</time>
      </trkpt>
      <trkpt lat="44.16126" lon="6.75997">
        <ele>1215</ele>
        <time>2018-07-07T13:07:31.000Z</time>
      </trkpt>
      <trkpt lat="44.16127" lon="6.75997">
        <ele>1215</ele>
        <time>2018-07-07T13:07:32.000Z</time>
      </trkpt>
      <trkpt lat="44.16131" lon="6.75994">
        <ele>1216</ele>
        <time>2018-07-07T13:07:39.000Z</time>
      </trkpt>
      <trkpt lat="44.16132" lon="6.75994">
        <ele>1217</ele>
        <time>2018-07-07T13:07:41.000Z</time>
      </trkpt>
      <trkpt lat="44.16134" lon="6.75992">
        <ele>1218</ele>
        <time>2018-07-07T13:07:45.000Z</time>
      </trkpt>
      <trkpt lat="44.16137" lon="6.75989">
        <ele>1218</ele>
        <time>2018-07-07T13:07:50.000Z</time>
      </trkpt>
      <trkpt lat="44.16138" lon="6.75988">
        <ele>1219</ele>
        <time>2018-07-07T13:07:52.000Z</time>
      </trkpt>
      <trkpt lat="44.16141" lon="6.75984">
        <ele>1219</ele>
        <time>2018-07-07T13:07:58.000Z</time>
      </trkpt>
      <trkpt lat="44.16142" lon="6.75983">
        <ele>1219</ele>
        <time>2018-07-07T13:07:59.000Z</time>
      </trkpt>
      <trkpt lat="44.16145" lon="6.7598">
        <ele>1219</ele>
        <time>2018-07-07T13:08:04.000Z</time>
      </trkpt>
      <trkpt lat="44.16147" lon="6.75978">
        <ele>1219</ele>
        <time>2018-07-07T13:08:08.000Z</time>
      </trkpt>
      <trkpt lat="44.16148" lon="6.75977">
        <ele>1220</ele>
        <time>2018-07-07T13:08:11.000Z</time>
      </trkpt>
      <trkpt lat="44.16152" lon="6.75974">
        <ele>1220</ele>
        <time>2018-07-07T13:08:18.000Z</time>
      </trkpt>
      <trkpt lat="44.16153" lon="6.75973">
        <ele>1220</ele>
        <time>2018-07-07T13:08:19.000Z</time>
      </trkpt>
      <trkpt lat="44.16157" lon="6.7597">
        <ele>1219</ele>
        <time>2018-07-07T13:08:26.000Z</time>
      </trkpt>
      <trkpt lat="44.16159" lon="6.75967">
        <ele>1219</ele>
        <time>2018-07-07T13:08:32.000Z</time>
      </trkpt>
      <trkpt lat="44.16159" lon="6.75967">
        <ele>1218</ele>
        <time>2018-07-07T13:08:34.000Z</time>
      </trkpt>
      <trkpt lat="44.16162" lon="6.75965">
        <ele>1218</ele>
        <time>2018-07-07T13:08:40.000Z</time>
      </trkpt>
      <trkpt lat="44.16169" lon="6.7596">
        <ele>1238</ele>
        <time>2018-07-07T13:08:49.000Z</time>
      </trkpt>
      <trkpt lat="44.16173" lon="6.75956">
        <ele>1237</ele>
        <time>2018-07-07T13:08:55.000Z</time>
      </trkpt>
      <trkpt lat="44.16174" lon="6.75956">
        <ele>1237</ele>
        <time>2018-07-07T13:08:56.000Z</time>
      </trkpt>
      <trkpt lat="44.16176" lon="6.75955">
        <ele>1237</ele>
        <time>2018-07-07T13:08:58.000Z</time>
      </trkpt>
      <trkpt lat="44.16176" lon="6.75955">
        <ele>1237</ele>
        <time>2018-07-07T13:09:01.000Z</time>
      </trkpt>
      <trkpt lat="44.16178" lon="6.75953">
        <ele>1237</ele>
        <time>2018-07-07T13:09:02.000Z</time>
      </trkpt>
      <trkpt lat="44.16178" lon="6.75953">
        <ele>1237</ele>
        <time>2018-07-07T13:09:03.000Z</time>
      </trkpt>
      <trkpt lat="44.16183" lon="6.7595">
        <ele>1236</ele>
        <time>2018-07-07T13:09:08.000Z</time>
      </trkpt>
      <trkpt lat="44.16184" lon="6.75951">
        <ele>1237</ele>
        <time>2018-07-07T13:09:09.000Z</time>
      </trkpt>
      <trkpt lat="44.16187" lon="6.7595">
        <ele>1237</ele>
        <time>2018-07-07T13:09:13.000Z</time>
      </trkpt>
      <trkpt lat="44.1619" lon="6.7595">
        <ele>1237</ele>
        <time>2018-07-07T13:09:15.000Z</time>
      </trkpt>
      <trkpt lat="44.16195" lon="6.75948">
        <ele>1238</ele>
        <time>2018-07-07T13:09:19.000Z</time>
      </trkpt>
      <trkpt lat="44.16199" lon="6.75946">
        <ele>1238</ele>
        <time>2018-07-07T13:09:23.000Z</time>
      </trkpt>
      <trkpt lat="44.162" lon="6.75945">
        <ele>1238</ele>
        <time>2018-07-07T13:09:24.000Z</time>
      </trkpt>
      <trkpt lat="44.16203" lon="6.75944">
        <ele>1238</ele>
        <time>2018-07-07T13:09:26.000Z</time>
      </trkpt>
      <trkpt lat="44.16204" lon="6.75944">
        <ele>1238</ele>
        <time>2018-07-07T13:09:27.000Z</time>
      </trkpt>
      <trkpt lat="44.16205" lon="6.75944">
        <ele>1238</ele>
        <time>2018-07-07T13:09:28.000Z</time>
      </trkpt>
      <trkpt lat="44.16211" lon="6.75944">
        <ele>1239</ele>
        <time>2018-07-07T13:09:33.000Z</time>
      </trkpt>
      <trkpt lat="44.16224" lon="6.75942">
        <ele>1241</ele>
        <time>2018-07-07T13:09:41.000Z</time>
      </trkpt>
      <trkpt lat="44.16226" lon="6.75943">
        <ele>1241</ele>
        <time>2018-07-07T13:09:43.000Z</time>
      </trkpt>
      <trkpt lat="44.16227" lon="6.75942">
        <ele>1241</ele>
        <time>2018-07-07T13:09:45.000Z</time>
      </trkpt>
      <trkpt lat="44.16229" lon="6.75942">
        <ele>1241</ele>
        <time>2018-07-07T13:09:46.000Z</time>
      </trkpt>
      <trkpt lat="44.16235" lon="6.75942">
        <ele>1241</ele>
        <time>2018-07-07T13:09:51.000Z</time>
      </trkpt>
      <trkpt lat="44.16243" lon="6.75942">
        <ele>1242</ele>
        <time>2018-07-07T13:09:57.000Z</time>
      </trkpt>
      <trkpt lat="44.16249" lon="6.75943">
        <ele>1242</ele>
        <time>2018-07-07T13:10:02.000Z</time>
      </trkpt>
      <trkpt lat="44.16251" lon="6.75943">
        <ele>1252</ele>
        <time>2018-07-07T13:10:04.000Z</time>
      </trkpt>
      <trkpt lat="44.16258" lon="6.75944">
        <ele>1252</ele>
        <time>2018-07-07T13:10:09.000Z</time>
      </trkpt>
      <trkpt lat="44.16259" lon="6.75943">
        <ele>1252</ele>
        <time>2018-07-07T13:10:10.000Z</time>
      </trkpt>
      <trkpt lat="44.16262" lon="6.75942">
        <ele>1252</ele>
        <time>2018-07-07T13:10:13.000Z</time>
      </trkpt>
      <trkpt lat="44.16272" lon="6.75942">
        <ele>1253</ele>
        <time>2018-07-07T13:10:20.000Z</time>
      </trkpt>
      <trkpt lat="44.16278" lon="6.75942">
        <ele>1254</ele>
        <time>2018-07-07T13:10:24.000Z</time>
      </trkpt>
      <trkpt lat="44.1628" lon="6.75943">
        <ele>1254</ele>
        <time>2018-07-07T13:10:25.000Z</time>
      </trkpt>
      <trkpt lat="44.16285" lon="6.75943">
        <ele>1255</ele>
        <time>2018-07-07T13:10:29.000Z</time>
      </trkpt>
      <trkpt lat="44.16289" lon="6.75944">
        <ele>1256</ele>
        <time>2018-07-07T13:10:32.000Z</time>
      </trkpt>
      <trkpt lat="44.16291" lon="6.75946">
        <ele>1256</ele>
        <time>2018-07-07T13:10:35.000Z</time>
      </trkpt>
      <trkpt lat="44.16293" lon="6.75947">
        <ele>1256</ele>
        <time>2018-07-07T13:10:37.000Z</time>
      </trkpt>
      <trkpt lat="44.16292" lon="6.75947">
        <ele>1256</ele>
        <time>2018-07-07T13:10:38.000Z</time>
      </trkpt>
      <trkpt lat="44.16295" lon="6.75946">
        <ele>1256</ele>
        <time>2018-07-07T13:10:42.000Z</time>
      </trkpt>
      <trkpt lat="44.16296" lon="6.75945">
        <ele>1256</ele>
        <time>2018-07-07T13:10:43.000Z</time>
      </trkpt>
      <trkpt lat="44.163" lon="6.75946">
        <ele>1257</ele>
        <time>2018-07-07T13:10:48.000Z</time>
      </trkpt>
      <trkpt lat="44.16301" lon="6.75946">
        <ele>1257</ele>
        <time>2018-07-07T13:10:50.000Z</time>
      </trkpt>
      <trkpt lat="44.16302" lon="6.75948">
        <ele>1257</ele>
        <time>2018-07-07T13:10:55.000Z</time>
      </trkpt>
      <trkpt lat="44.16302" lon="6.75948">
        <ele>1257</ele>
        <time>2018-07-07T13:10:56.000Z</time>
      </trkpt>
      <trkpt lat="44.16302" lon="6.75951">
        <ele>1258</ele>
        <time>2018-07-07T13:11:00.000Z</time>
      </trkpt>
      <trkpt lat="44.16303" lon="6.75952">
        <ele>1258</ele>
        <time>2018-07-07T13:11:03.000Z</time>
      </trkpt>
      <trkpt lat="44.16304" lon="6.75953">
        <ele>1258</ele>
        <time>2018-07-07T13:11:05.000Z</time>
      </trkpt>
      <trkpt lat="44.16307" lon="6.75953">
        <ele>1258</ele>
        <time>2018-07-07T13:11:11.000Z</time>
      </trkpt>
      <trkpt lat="44.1631" lon="6.75957">
        <ele>1259</ele>
        <time>2018-07-07T13:11:18.000Z</time>
      </trkpt>
      <trkpt lat="44.16313" lon="6.7596">
        <ele>1260</ele>
        <time>2018-07-07T13:11:24.000Z</time>
      </trkpt>
      <trkpt lat="44.16313" lon="6.7596">
        <ele>1260</ele>
        <time>2018-07-07T13:11:26.000Z</time>
      </trkpt>
      <trkpt lat="44.16314" lon="6.75963">
        <ele>1261</ele>
        <time>2018-07-07T13:11:30.000Z</time>
      </trkpt>
      <trkpt lat="44.16315" lon="6.75964">
        <ele>1261</ele>
        <time>2018-07-07T13:11:34.000Z</time>
      </trkpt>
      <trkpt lat="44.16317" lon="6.75965">
        <ele>1261</ele>
        <time>2018-07-07T13:11:37.000Z</time>
      </trkpt>
      <trkpt lat="44.16319" lon="6.75963">
        <ele>1261</ele>
        <time>2018-07-07T13:11:41.000Z</time>
      </trkpt>
      <trkpt lat="44.1632" lon="6.75963">
        <ele>1261</ele>
        <time>2018-07-07T13:11:42.000Z</time>
      </trkpt>
      <trkpt lat="44.16324" lon="6.7596">
        <ele>1260</ele>
        <time>2018-07-07T13:11:49.000Z</time>
      </trkpt>
      <trkpt lat="44.16325" lon="6.75959">
        <ele>1260</ele>
        <time>2018-07-07T13:11:50.000Z</time>
      </trkpt>
      <trkpt lat="44.16329" lon="6.75958">
        <ele>1260</ele>
        <time>2018-07-07T13:11:56.000Z</time>
      </trkpt>
      <trkpt lat="44.16329" lon="6.75958">
        <ele>1260</ele>
        <time>2018-07-07T13:11:57.000Z</time>
      </trkpt>
      <trkpt lat="44.1633" lon="6.75958">
        <ele>1260</ele>
        <time>2018-07-07T13:11:58.000Z</time>
      </trkpt>
      <trkpt lat="44.16334" lon="6.75959">
        <ele>1266</ele>
        <time>2018-07-07T13:12:03.000Z</time>
      </trkpt>
      <trkpt lat="44.16336" lon="6.7596">
        <ele>1267</ele>
        <time>2018-07-07T13:12:05.000Z</time>
      </trkpt>
      <trkpt lat="44.16339" lon="6.75962">
        <ele>1267</ele>
        <time>2018-07-07T13:12:10.000Z</time>
      </trkpt>
      <trkpt lat="44.16342" lon="6.75964">
        <ele>1268</ele>
        <time>2018-07-07T13:12:14.000Z</time>
      </trkpt>
      <trkpt lat="44.16345" lon="6.75964">
        <ele>1268</ele>
        <time>2018-07-07T13:12:18.000Z</time>
      </trkpt>
      <trkpt lat="44.16347" lon="6.75965">
        <ele>1268</ele>
        <time>2018-07-07T13:12:21.000Z</time>
      </trkpt>
      <trkpt lat="44.1635" lon="6.75966">
        <ele>1268</ele>
        <time>2018-07-07T13:12:26.000Z</time>
      </trkpt>
      <trkpt lat="44.16353" lon="6.75967">
        <ele>1269</ele>
        <time>2018-07-07T13:12:31.000Z</time>
      </trkpt>
      <trkpt lat="44.16354" lon="6.75968">
        <ele>1269</ele>
        <time>2018-07-07T13:12:33.000Z</time>
      </trkpt>
      <trkpt lat="44.16357" lon="6.75969">
        <ele>1269</ele>
        <time>2018-07-07T13:12:39.000Z</time>
      </trkpt>
      <trkpt lat="44.16358" lon="6.7597">
        <ele>1269</ele>
        <time>2018-07-07T13:12:40.000Z</time>
      </trkpt>
      <trkpt lat="44.16362" lon="6.75973">
        <ele>1270</ele>
        <time>2018-07-07T13:12:47.000Z</time>
      </trkpt>
      <trkpt lat="44.16363" lon="6.75973">
        <ele>1270</ele>
        <time>2018-07-07T13:12:48.000Z</time>
      </trkpt>
      <trkpt lat="44.16366" lon="6.75978">
        <ele>1271</ele>
        <time>2018-07-07T13:12:56.000Z</time>
      </trkpt>
      <trkpt lat="44.1637" lon="6.75983">
        <ele>1271</ele>
        <time>2018-07-07T13:13:03.000Z</time>
      </trkpt>
      <trkpt lat="44.16372" lon="6.75984">
        <ele>1272</ele>
        <time>2018-07-07T13:13:05.000Z</time>
      </trkpt>
      <trkpt lat="44.16376" lon="6.75984">
        <ele>1272</ele>
        <time>2018-07-07T13:13:10.000Z</time>
      </trkpt>
      <trkpt lat="44.16378" lon="6.75989">
        <ele>1273</ele>
        <time>2018-07-07T13:13:17.000Z</time>
      </trkpt>
      <trkpt lat="44.16377" lon="6.75995">
        <ele>1273</ele>
        <time>2018-07-07T13:13:24.000Z</time>
      </trkpt>
      <trkpt lat="44.16377" lon="6.75996">
        <ele>1273</ele>
        <time>2018-07-07T13:13:25.000Z</time>
      </trkpt>
      <trkpt lat="44.16378" lon="6.76003">
        <ele>1291</ele>
        <time>2018-07-07T13:13:32.000Z</time>
      </trkpt>
      <trkpt lat="44.16376" lon="6.76008">
        <ele>1291</ele>
        <time>2018-07-07T13:13:38.000Z</time>
      </trkpt>
      <trkpt lat="44.16377" lon="6.76008">
        <ele>1291</ele>
        <time>2018-07-07T13:13:39.000Z</time>
      </trkpt>
      <trkpt lat="44.16375" lon="6.76008">
        <ele>1291</ele>
        <time>2018-07-07T13:13:40.000Z</time>
      </trkpt>
      <trkpt lat="44.16375" lon="6.76011">
        <ele>1291</ele>
        <time>2018-07-07T13:13:44.000Z</time>
      </trkpt>
      <trkpt lat="44.16375" lon="6.76012">
        <ele>1291</ele>
        <time>2018-07-07T13:13:45.000Z</time>
      </trkpt>
      <trkpt lat="44.16373" lon="6.76017">
        <ele>1292</ele>
        <time>2018-07-07T13:13:51.000Z</time>
      </trkpt>
      <trkpt lat="44.1637" lon="6.76022">
        <ele>1292</ele>
        <time>2018-07-07T13:13:58.000Z</time>
      </trkpt>
      <trkpt lat="44.1637" lon="6.76022">
        <ele>1292</ele>
        <time>2018-07-07T13:13:59.000Z</time>
      </trkpt>
      <trkpt lat="44.16368" lon="6.76026">
        <ele>1292</ele>
        <time>2018-07-07T13:14:05.000Z</time>
      </trkpt>
      <trkpt lat="44.16367" lon="6.76026">
        <ele>1292</ele>
        <time>2018-07-07T13:14:06.000Z</time>
      </trkpt>
      <trkpt lat="44.16364" lon="6.76031">
        <ele>1293</ele>
        <time>2018-07-07T13:14:13.000Z</time>
      </trkpt>
      <trkpt lat="44.16363" lon="6.76032">
        <ele>1293</ele>
        <time>2018-07-07T13:14:14.000Z</time>
      </trkpt>
      <trkpt lat="44.16361" lon="6.76034">
        <ele>1293</ele>
        <time>2018-07-07T13:14:19.000Z</time>
      </trkpt>
      <trkpt lat="44.16361" lon="6.76035">
        <ele>1293</ele>
        <time>2018-07-07T13:14:20.000Z</time>
      </trkpt>
      <trkpt lat="44.16361" lon="6.76036">
        <ele>1294</ele>
        <time>2018-07-07T13:14:21.000Z</time>
      </trkpt>
      <trkpt lat="44.16358" lon="6.76037">
        <ele>1294</ele>
        <time>2018-07-07T13:14:27.000Z</time>
      </trkpt>
      <trkpt lat="44.16357" lon="6.76039">
        <ele>1294</ele>
        <time>2018-07-07T13:14:29.000Z</time>
      </trkpt>
      <trkpt lat="44.16356" lon="6.7604">
        <ele>1294</ele>
        <time>2018-07-07T13:14:33.000Z</time>
      </trkpt>
      <trkpt lat="44.16357" lon="6.76042">
        <ele>1295</ele>
        <time>2018-07-07T13:14:35.000Z</time>
      </trkpt>
      <trkpt lat="44.16359" lon="6.76043">
        <ele>1295</ele>
        <time>2018-07-07T13:14:40.000Z</time>
      </trkpt>
      <trkpt lat="44.16359" lon="6.76044">
        <ele>1295</ele>
        <time>2018-07-07T13:14:43.000Z</time>
      </trkpt>
      <trkpt lat="44.16362" lon="6.76045">
        <ele>1295</ele>
        <time>2018-07-07T13:14:48.000Z</time>
      </trkpt>
      <trkpt lat="44.16364" lon="6.76046">
        <ele>1295</ele>
        <time>2018-07-07T13:14:49.000Z</time>
      </trkpt>
      <trkpt lat="44.16366" lon="6.76048">
        <ele>1296</ele>
        <time>2018-07-07T13:14:54.000Z</time>
      </trkpt>
      <trkpt lat="44.16367" lon="6.76049">
        <ele>1296</ele>
        <time>2018-07-07T13:14:57.000Z</time>
      </trkpt>
      <trkpt lat="44.16369" lon="6.76051">
        <ele>1296</ele>
        <time>2018-07-07T13:15:01.000Z</time>
      </trkpt>
      <trkpt lat="44.1637" lon="6.76052">
        <ele>1297</ele>
        <time>2018-07-07T13:15:04.000Z</time>
      </trkpt>
      <trkpt lat="44.16372" lon="6.76053">
        <ele>1297</ele>
        <time>2018-07-07T13:15:09.000Z</time>
      </trkpt>
      <trkpt lat="44.16374" lon="6.76055">
        <ele>1297</ele>
        <time>2018-07-07T13:15:11.000Z</time>
      </trkpt>
      <trkpt lat="44.16376" lon="6.76057">
        <ele>1298</ele>
        <time>2018-07-07T13:15:16.000Z</time>
      </trkpt>
      <trkpt lat="44.16377" lon="6.76058">
        <ele>1298</ele>
        <time>2018-07-07T13:15:17.000Z</time>
      </trkpt>
      <trkpt lat="44.16377" lon="6.76061">
        <ele>1298</ele>
        <time>2018-07-07T13:15:22.000Z</time>
      </trkpt>
      <trkpt lat="44.16377" lon="6.76064">
        <ele>1299</ele>
        <time>2018-07-07T13:15:25.000Z</time>
      </trkpt>
      <trkpt lat="44.16375" lon="6.76065">
        <ele>1299</ele>
        <time>2018-07-07T13:15:28.000Z</time>
      </trkpt>
      <trkpt lat="44.16374" lon="6.76066">
        <ele>1299</ele>
        <time>2018-07-07T13:15:31.000Z</time>
      </trkpt>
      <trkpt lat="44.16372" lon="6.76068">
        <ele>1299</ele>
        <time>2018-07-07T13:15:36.000Z</time>
      </trkpt>
      <trkpt lat="44.16372" lon="6.76069">
        <ele>1299</ele>
        <time>2018-07-07T13:15:38.000Z</time>
      </trkpt>
      <trkpt lat="44.1637" lon="6.76071">
        <ele>1299</ele>
        <time>2018-07-07T13:15:45.000Z</time>
      </trkpt>
      <trkpt lat="44.16369" lon="6.76073">
        <ele>1299</ele>
        <time>2018-07-07T13:15:47.000Z</time>
      </trkpt>
      <trkpt lat="44.16368" lon="6.76076">
        <ele>1299</ele>
        <time>2018-07-07T13:15:53.000Z</time>
      </trkpt>
      <trkpt lat="44.16368" lon="6.76076">
        <ele>1299</ele>
        <time>2018-07-07T13:15:54.000Z</time>
      </trkpt>
      <trkpt lat="44.16366" lon="6.76078">
        <ele>1299</ele>
        <time>2018-07-07T13:15:59.000Z</time>
      </trkpt>
      <trkpt lat="44.16365" lon="6.76079">
        <ele>1299</ele>
        <time>2018-07-07T13:16:02.000Z</time>
      </trkpt>
      <trkpt lat="44.16364" lon="6.76082">
        <ele>1300</ele>
        <time>2018-07-07T13:16:06.000Z</time>
      </trkpt>
      <trkpt lat="44.16362" lon="6.76085">
        <ele>1316</ele>
        <time>2018-07-07T13:16:12.000Z</time>
      </trkpt>
      <trkpt lat="44.16362" lon="6.76085">
        <ele>1316</ele>
        <time>2018-07-07T13:16:13.000Z</time>
      </trkpt>
      <trkpt lat="44.16359" lon="6.76089">
        <ele>1316</ele>
        <time>2018-07-07T13:16:19.000Z</time>
      </trkpt>
      <trkpt lat="44.16358" lon="6.76091">
        <ele>1316</ele>
        <time>2018-07-07T13:16:22.000Z</time>
      </trkpt>
      <trkpt lat="44.16357" lon="6.76094">
        <ele>1316</ele>
        <time>2018-07-07T13:16:26.000Z</time>
      </trkpt>
      <trkpt lat="44.16355" lon="6.76097">
        <ele>1316</ele>
        <time>2018-07-07T13:16:31.000Z</time>
      </trkpt>
      <trkpt lat="44.16354" lon="6.76098">
        <ele>1316</ele>
        <time>2018-07-07T13:16:33.000Z</time>
      </trkpt>
      <trkpt lat="44.16351" lon="6.76103">
        <ele>1317</ele>
        <time>2018-07-07T13:16:40.000Z</time>
      </trkpt>
      <trkpt lat="44.16351" lon="6.76104">
        <ele>1317</ele>
        <time>2018-07-07T13:16:41.000Z</time>
      </trkpt>
      <trkpt lat="44.16348" lon="6.76106">
        <ele>1317</ele>
        <time>2018-07-07T13:16:47.000Z</time>
      </trkpt>
      <trkpt lat="44.16348" lon="6.76106">
        <ele>1317</ele>
        <time>2018-07-07T13:16:48.000Z</time>
      </trkpt>
      <trkpt lat="44.16345" lon="6.76111">
        <ele>1319</ele>
        <time>2018-07-07T13:16:54.000Z</time>
      </trkpt>
      <trkpt lat="44.16343" lon="6.76113">
        <ele>1319</ele>
        <time>2018-07-07T13:16:57.000Z</time>
      </trkpt>
      <trkpt lat="44.16341" lon="6.76116">
        <ele>1320</ele>
        <time>2018-07-07T13:17:01.000Z</time>
      </trkpt>
      <trkpt lat="44.1634" lon="6.7612">
        <ele>1321</ele>
        <time>2018-07-07T13:17:07.000Z</time>
      </trkpt>
      <trkpt lat="44.16343" lon="6.76122">
        <ele>1322</ele>
        <time>2018-07-07T13:17:14.000Z</time>
      </trkpt>
      <trkpt lat="44.16343" lon="6.76123">
        <ele>1322</ele>
        <time>2018-07-07T13:17:17.000Z</time>
      </trkpt>
      <trkpt lat="44.16348" lon="6.76124">
        <ele>1322</ele>
        <time>2018-07-07T13:17:23.000Z</time>
      </trkpt>
      <trkpt lat="44.16351" lon="6.76125">
        <ele>1323</ele>
        <time>2018-07-07T13:17:26.000Z</time>
      </trkpt>
      <trkpt lat="44.16353" lon="6.76127">
        <ele>1323</ele>
        <time>2018-07-07T13:17:29.000Z</time>
      </trkpt>
      <trkpt lat="44.16355" lon="6.76128">
        <ele>1323</ele>
        <time>2018-07-07T13:17:31.000Z</time>
      </trkpt>
      <trkpt lat="44.16356" lon="6.76129">
        <ele>1324</ele>
        <time>2018-07-07T13:17:33.000Z</time>
      </trkpt>
      <trkpt lat="44.16359" lon="6.76131">
        <ele>1324</ele>
        <time>2018-07-07T13:17:36.000Z</time>
      </trkpt>
      <trkpt lat="44.16361" lon="6.76132">
        <ele>1324</ele>
        <time>2018-07-07T13:17:40.000Z</time>
      </trkpt>
      <trkpt lat="44.16361" lon="6.76132">
        <ele>1324</ele>
        <time>2018-07-07T13:17:42.000Z</time>
      </trkpt>
      <trkpt lat="44.16364" lon="6.76134">
        <ele>1325</ele>
        <time>2018-07-07T13:17:48.000Z</time>
      </trkpt>
      <trkpt lat="44.16368" lon="6.76136">
        <ele>1325</ele>
        <time>2018-07-07T13:17:55.000Z</time>
      </trkpt>
      <trkpt lat="44.1637" lon="6.76138">
        <ele>1326</ele>
        <time>2018-07-07T13:18:01.000Z</time>
      </trkpt>
      <trkpt lat="44.16371" lon="6.76139">
        <ele>1326</ele>
        <time>2018-07-07T13:18:04.000Z</time>
      </trkpt>
      <trkpt lat="44.16373" lon="6.76143">
        <ele>1326</ele>
        <time>2018-07-07T13:18:10.000Z</time>
      </trkpt>
      <trkpt lat="44.16372" lon="6.76143">
        <ele>1326</ele>
        <time>2018-07-07T13:18:12.000Z</time>
      </trkpt>
      <trkpt lat="44.16371" lon="6.76144">
        <ele>1327</ele>
        <time>2018-07-07T13:18:16.000Z</time>
      </trkpt>
      <trkpt lat="44.16367" lon="6.76146">
        <ele>1327</ele>
        <time>2018-07-07T13:18:24.000Z</time>
      </trkpt>
      <trkpt lat="44.16363" lon="6.76149">
        <ele>1327</ele>
        <time>2018-07-07T13:18:31.000Z</time>
      </trkpt>
      <trkpt lat="44.1636" lon="6.76152">
        <ele>1328</ele>
        <time>2018-07-07T13:18:38.000Z</time>
      </trkpt>
      <trkpt lat="44.16357" lon="6.76156">
        <ele>1329</ele>
        <time>2018-07-07T13:18:45.000Z</time>
      </trkpt>
      <trkpt lat="44.16357" lon="6.76156">
        <ele>1329</ele>
        <time>2018-07-07T13:18:46.000Z</time>
      </trkpt>
      <trkpt lat="44.16355" lon="6.76158">
        <ele>1330</ele>
        <time>2018-07-07T13:18:53.000Z</time>
      </trkpt>
      <trkpt lat="44.16353" lon="6.76159">
        <ele>1330</ele>
        <time>2018-07-07T13:18:56.000Z</time>
      </trkpt>
      <trkpt lat="44.16351" lon="6.76161">
        <ele>1331</ele>
        <time>2018-07-07T13:18:59.000Z</time>
      </trkpt>
      <trkpt lat="44.1635" lon="6.76162">
        <ele>1331</ele>
        <time>2018-07-07T13:19:02.000Z</time>
      </trkpt>
      <trkpt lat="44.16347" lon="6.76164">
        <ele>1332</ele>
        <time>2018-07-07T13:19:05.000Z</time>
      </trkpt>
      <trkpt lat="44.16345" lon="6.76165">
        <ele>1333</ele>
        <time>2018-07-07T13:19:08.000Z</time>
      </trkpt>
      <trkpt lat="44.16341" lon="6.76168">
        <ele>1343</ele>
        <time>2018-07-07T13:19:13.000Z</time>
      </trkpt>
      <trkpt lat="44.16339" lon="6.76169">
        <ele>1342</ele>
        <time>2018-07-07T13:19:15.000Z</time>
      </trkpt>
      <trkpt lat="44.16338" lon="6.7617">
        <ele>1342</ele>
        <time>2018-07-07T13:19:16.000Z</time>
      </trkpt>
      <trkpt lat="44.16337" lon="6.7617">
        <ele>1341</ele>
        <time>2018-07-07T13:19:18.000Z</time>
      </trkpt>
      <trkpt lat="44.16334" lon="6.76172">
        <ele>1342</ele>
        <time>2018-07-07T13:19:22.000Z</time>
      </trkpt>
      <trkpt lat="44.16334" lon="6.76172">
        <ele>1342</ele>
        <time>2018-07-07T13:19:23.000Z</time>
      </trkpt>
      <trkpt lat="44.16329" lon="6.76173">
        <ele>1343</ele>
        <time>2018-07-07T13:19:28.000Z</time>
      </trkpt>
      <trkpt lat="44.16325" lon="6.76176">
        <ele>1346</ele>
        <time>2018-07-07T13:19:33.000Z</time>
      </trkpt>
      <trkpt lat="44.16323" lon="6.76177">
        <ele>1347</ele>
        <time>2018-07-07T13:19:35.000Z</time>
      </trkpt>
      <trkpt lat="44.1632" lon="6.76179">
        <ele>1348</ele>
        <time>2018-07-07T13:19:39.000Z</time>
      </trkpt>
      <trkpt lat="44.16319" lon="6.7618">
        <ele>1348</ele>
        <time>2018-07-07T13:19:40.000Z</time>
      </trkpt>
      <trkpt lat="44.16314" lon="6.76182">
        <ele>1350</ele>
        <time>2018-07-07T13:19:46.000Z</time>
      </trkpt>
      <trkpt lat="44.16313" lon="6.76183">
        <ele>1350</ele>
        <time>2018-07-07T13:19:47.000Z</time>
      </trkpt>
      <trkpt lat="44.16308" lon="6.76184">
        <ele>1351</ele>
        <time>2018-07-07T13:19:52.000Z</time>
      </trkpt>
      <trkpt lat="44.16307" lon="6.76185">
        <ele>1351</ele>
        <time>2018-07-07T13:19:53.000Z</time>
      </trkpt>
      <trkpt lat="44.16302" lon="6.76187">
        <ele>1352</ele>
        <time>2018-07-07T13:19:59.000Z</time>
      </trkpt>
      <trkpt lat="44.16301" lon="6.76186">
        <ele>1352</ele>
        <time>2018-07-07T13:20:00.000Z</time>
      </trkpt>
      <trkpt lat="44.163" lon="6.76187">
        <ele>1352</ele>
        <time>2018-07-07T13:20:01.000Z</time>
      </trkpt>
      <trkpt lat="44.16295" lon="6.76189">
        <ele>1353</ele>
        <time>2018-07-07T13:20:06.000Z</time>
      </trkpt>
      <trkpt lat="44.16292" lon="6.7619">
        <ele>1353</ele>
        <time>2018-07-07T13:20:09.000Z</time>
      </trkpt>
      <trkpt lat="44.1629" lon="6.7619">
        <ele>1353</ele>
        <time>2018-07-07T13:20:11.000Z</time>
      </trkpt>
      <trkpt lat="44.16288" lon="6.76192">
        <ele>1354</ele>
        <time>2018-07-07T13:20:14.000Z</time>
      </trkpt>
      <trkpt lat="44.16285" lon="6.76196">
        <ele>1354</ele>
        <time>2018-07-07T13:20:19.000Z</time>
      </trkpt>
      <trkpt lat="44.16284" lon="6.76197">
        <ele>1355</ele>
        <time>2018-07-07T13:20:20.000Z</time>
      </trkpt>
      <trkpt lat="44.16283" lon="6.76198">
        <ele>1355</ele>
        <time>2018-07-07T13:20:21.000Z</time>
      </trkpt>
      <trkpt lat="44.16281" lon="6.76199">
        <ele>1355</ele>
        <time>2018-07-07T13:20:25.000Z</time>
      </trkpt>
      <trkpt lat="44.16282" lon="6.76199">
        <ele>1355</ele>
        <time>2018-07-07T13:20:26.000Z</time>
      </trkpt>
      <trkpt lat="44.16279" lon="6.76201">
        <ele>1355</ele>
        <time>2018-07-07T13:20:30.000Z</time>
      </trkpt>
      <trkpt lat="44.16274" lon="6.76202">
        <ele>1356</ele>
        <time>2018-07-07T13:20:36.000Z</time>
      </trkpt>
      <trkpt lat="44.1627" lon="6.76204">
        <ele>1356</ele>
        <time>2018-07-07T13:20:43.000Z</time>
      </trkpt>
      <trkpt lat="44.16266" lon="6.76206">
        <ele>1356</ele>
        <time>2018-07-07T13:20:50.000Z</time>
      </trkpt>
      <trkpt lat="44.16266" lon="6.76206">
        <ele>1356</ele>
        <time>2018-07-07T13:20:51.000Z</time>
      </trkpt>
      <trkpt lat="44.16263" lon="6.76207">
        <ele>1357</ele>
        <time>2018-07-07T13:20:58.000Z</time>
      </trkpt>
      <trkpt lat="44.16259" lon="6.7621">
        <ele>1358</ele>
        <time>2018-07-07T13:21:04.000Z</time>
      </trkpt>
      <trkpt lat="44.16255" lon="6.76212">
        <ele>1358</ele>
        <time>2018-07-07T13:21:10.000Z</time>
      </trkpt>
      <trkpt lat="44.16253" lon="6.76213">
        <ele>1359</ele>
        <time>2018-07-07T13:21:13.000Z</time>
      </trkpt>
      <trkpt lat="44.16251" lon="6.76214">
        <ele>1359</ele>
        <time>2018-07-07T13:21:16.000Z</time>
      </trkpt>
      <trkpt lat="44.16248" lon="6.76214">
        <ele>1355</ele>
        <time>2018-07-07T13:21:21.000Z</time>
      </trkpt>
      <trkpt lat="44.16246" lon="6.76214">
        <ele>1355</ele>
        <time>2018-07-07T13:21:24.000Z</time>
      </trkpt>
      <trkpt lat="44.16243" lon="6.76215">
        <ele>1355</ele>
        <time>2018-07-07T13:21:29.000Z</time>
      </trkpt>
      <trkpt lat="44.16242" lon="6.76214">
        <ele>1354</ele>
        <time>2018-07-07T13:21:30.000Z</time>
      </trkpt>
      <trkpt lat="44.16242" lon="6.76215">
        <ele>1355</ele>
        <time>2018-07-07T13:21:31.000Z</time>
      </trkpt>
      <trkpt lat="44.1624" lon="6.76216">
        <ele>1355</ele>
        <time>2018-07-07T13:21:34.000Z</time>
      </trkpt>
      <trkpt lat="44.16237" lon="6.76216">
        <ele>1355</ele>
        <time>2018-07-07T13:21:39.000Z</time>
      </trkpt>
      <trkpt lat="44.16235" lon="6.76217">
        <ele>1355</ele>
        <time>2018-07-07T13:21:41.000Z</time>
      </trkpt>
      <trkpt lat="44.16232" lon="6.76218">
        <ele>1355</ele>
        <time>2018-07-07T13:21:45.000Z</time>
      </trkpt>
      <trkpt lat="44.16228" lon="6.76217">
        <ele>1354</ele>
        <time>2018-07-07T13:21:51.000Z</time>
      </trkpt>
      <trkpt lat="44.16227" lon="6.76217">
        <ele>1354</ele>
        <time>2018-07-07T13:21:53.000Z</time>
      </trkpt>
      <trkpt lat="44.16223" lon="6.76219">
        <ele>1354</ele>
        <time>2018-07-07T13:21:58.000Z</time>
      </trkpt>
      <trkpt lat="44.1622" lon="6.76219">
        <ele>1354</ele>
        <time>2018-07-07T13:22:02.000Z</time>
      </trkpt>
      <trkpt lat="44.16217" lon="6.76219">
        <ele>1354</ele>
        <time>2018-07-07T13:22:05.000Z</time>
      </trkpt>
      <trkpt lat="44.16212" lon="6.7622">
        <ele>1353</ele>
        <time>2018-07-07T13:22:12.000Z</time>
      </trkpt>
      <trkpt lat="44.16211" lon="6.76221">
        <ele>1353</ele>
        <time>2018-07-07T13:22:13.000Z</time>
      </trkpt>
      <trkpt lat="44.16207" lon="6.76221">
        <ele>1353</ele>
        <time>2018-07-07T13:22:18.000Z</time>
      </trkpt>
      <trkpt lat="44.16206" lon="6.7622">
        <ele>1353</ele>
        <time>2018-07-07T13:22:19.000Z</time>
      </trkpt>
      <trkpt lat="44.16205" lon="6.7622">
        <ele>1353</ele>
        <time>2018-07-07T13:22:20.000Z</time>
      </trkpt>
      <trkpt lat="44.16202" lon="6.76221">
        <ele>1353</ele>
        <time>2018-07-07T13:22:25.000Z</time>
      </trkpt>
      <trkpt lat="44.16201" lon="6.76222">
        <ele>1353</ele>
        <time>2018-07-07T13:22:28.000Z</time>
      </trkpt>
      <trkpt lat="44.16197" lon="6.76224">
        <ele>1353</ele>
        <time>2018-07-07T13:22:34.000Z</time>
      </trkpt>
      <trkpt lat="44.16196" lon="6.76225">
        <ele>1353</ele>
        <time>2018-07-07T13:22:36.000Z</time>
      </trkpt>
      <trkpt lat="44.16193" lon="6.76227">
        <ele>1353</ele>
        <time>2018-07-07T13:22:42.000Z</time>
      </trkpt>
      <trkpt lat="44.16192" lon="6.76228">
        <ele>1354</ele>
        <time>2018-07-07T13:22:44.000Z</time>
      </trkpt>
      <trkpt lat="44.1619" lon="6.76231">
        <ele>1354</ele>
        <time>2018-07-07T13:22:50.000Z</time>
      </trkpt>
      <trkpt lat="44.16189" lon="6.76231">
        <ele>1354</ele>
        <time>2018-07-07T13:22:51.000Z</time>
      </trkpt>
      <trkpt lat="44.16187" lon="6.76236">
        <ele>1355</ele>
        <time>2018-07-07T13:22:57.000Z</time>
      </trkpt>
      <trkpt lat="44.16186" lon="6.76237">
        <ele>1356</ele>
        <time>2018-07-07T13:22:59.000Z</time>
      </trkpt>
      <trkpt lat="44.16185" lon="6.7624">
        <ele>1356</ele>
        <time>2018-07-07T13:23:05.000Z</time>
      </trkpt>
      <trkpt lat="44.16183" lon="6.76241">
        <ele>1357</ele>
        <time>2018-07-07T13:23:07.000Z</time>
      </trkpt>
      <trkpt lat="44.16181" lon="6.76244">
        <ele>1358</ele>
        <time>2018-07-07T13:23:12.000Z</time>
      </trkpt>
      <trkpt lat="44.16181" lon="6.76245">
        <ele>1358</ele>
        <time>2018-07-07T13:23:14.000Z</time>
      </trkpt>
      <trkpt lat="44.16184" lon="6.76246">
        <ele>1357</ele>
        <time>2018-07-07T13:23:19.000Z</time>
      </trkpt>
      <trkpt lat="44.16184" lon="6.76246">
        <ele>1357</ele>
        <time>2018-07-07T13:23:20.000Z</time>
      </trkpt>
      <trkpt lat="44.16188" lon="6.76247">
        <ele>1357</ele>
        <time>2018-07-07T13:23:28.000Z</time>
      </trkpt>
      <trkpt lat="44.1619" lon="6.7625">
        <ele>1357</ele>
        <time>2018-07-07T13:23:35.000Z</time>
      </trkpt>
      <trkpt lat="44.16192" lon="6.76251">
        <ele>1374</ele>
        <time>2018-07-07T13:23:37.000Z</time>
      </trkpt>
      <trkpt lat="44.16193" lon="6.76254">
        <ele>1375</ele>
        <time>2018-07-07T13:23:43.000Z</time>
      </trkpt>
      <trkpt lat="44.16193" lon="6.76254">
        <ele>1375</ele>
        <time>2018-07-07T13:23:45.000Z</time>
      </trkpt>
      <trkpt lat="44.16197" lon="6.76256">
        <ele>1376</ele>
        <time>2018-07-07T13:23:51.000Z</time>
      </trkpt>
      <trkpt lat="44.16197" lon="6.76257">
        <ele>1376</ele>
        <time>2018-07-07T13:23:52.000Z</time>
      </trkpt>
      <trkpt lat="44.16197" lon="6.7626">
        <ele>1376</ele>
        <time>2018-07-07T13:23:58.000Z</time>
      </trkpt>
      <trkpt lat="44.16197" lon="6.7626">
        <ele>1376</ele>
        <time>2018-07-07T13:23:59.000Z</time>
      </trkpt>
      <trkpt lat="44.16195" lon="6.76262">
        <ele>1376</ele>
        <time>2018-07-07T13:24:04.000Z</time>
      </trkpt>
      <trkpt lat="44.16193" lon="6.76263">
        <ele>1376</ele>
        <time>2018-07-07T13:24:08.000Z</time>
      </trkpt>
      <trkpt lat="44.16191" lon="6.76265">
        <ele>1375</ele>
        <time>2018-07-07T13:24:12.000Z</time>
      </trkpt>
      <trkpt lat="44.16189" lon="6.76266">
        <ele>1375</ele>
        <time>2018-07-07T13:24:16.000Z</time>
      </trkpt>
      <trkpt lat="44.16188" lon="6.76268">
        <ele>1375</ele>
        <time>2018-07-07T13:24:19.000Z</time>
      </trkpt>
      <trkpt lat="44.16185" lon="6.76271">
        <ele>1375</ele>
        <time>2018-07-07T13:24:25.000Z</time>
      </trkpt>
      <trkpt lat="44.16184" lon="6.76273">
        <ele>1376</ele>
        <time>2018-07-07T13:24:29.000Z</time>
      </trkpt>
      <trkpt lat="44.16183" lon="6.76274">
        <ele>1376</ele>
        <time>2018-07-07T13:24:31.000Z</time>
      </trkpt>
      <trkpt lat="44.16181" lon="6.76277">
        <ele>1376</ele>
        <time>2018-07-07T13:24:37.000Z</time>
      </trkpt>
      <trkpt lat="44.16181" lon="6.76279">
        <ele>1377</ele>
        <time>2018-07-07T13:24:39.000Z</time>
      </trkpt>
      <trkpt lat="44.16183" lon="6.76281">
        <ele>1377</ele>
        <time>2018-07-07T13:24:44.000Z</time>
      </trkpt>
      <trkpt lat="44.16184" lon="6.76282">
        <ele>1378</ele>
        <time>2018-07-07T13:24:47.000Z</time>
      </trkpt>
      <trkpt lat="44.16187" lon="6.76284">
        <ele>1378</ele>
        <time>2018-07-07T13:24:52.000Z</time>
      </trkpt>
      <trkpt lat="44.16188" lon="6.76285">
        <ele>1379</ele>
        <time>2018-07-07T13:24:55.000Z</time>
      </trkpt>
      <trkpt lat="44.16191" lon="6.76288">
        <ele>1379</ele>
        <time>2018-07-07T13:25:01.000Z</time>
      </trkpt>
      <trkpt lat="44.16192" lon="6.76288">
        <ele>1380</ele>
        <time>2018-07-07T13:25:03.000Z</time>
      </trkpt>
      <trkpt lat="44.16194" lon="6.76291">
        <ele>1380</ele>
        <time>2018-07-07T13:25:09.000Z</time>
      </trkpt>
      <trkpt lat="44.16195" lon="6.76292">
        <ele>1380</ele>
        <time>2018-07-07T13:25:11.000Z</time>
      </trkpt>
      <trkpt lat="44.16196" lon="6.76293">
        <ele>1381</ele>
        <time>2018-07-07T13:25:16.000Z</time>
      </trkpt>
      <trkpt lat="44.16199" lon="6.76297">
        <ele>1382</ele>
        <time>2018-07-07T13:25:33.000Z</time>
      </trkpt>
      <trkpt lat="44.162" lon="6.76299">
        <ele>1382</ele>
        <time>2018-07-07T13:25:36.000Z</time>
      </trkpt>
      <trkpt lat="44.16203" lon="6.76301">
        <ele>1383</ele>
        <time>2018-07-07T13:25:41.000Z</time>
      </trkpt>
      <trkpt lat="44.16204" lon="6.76302">
        <ele>1383</ele>
        <time>2018-07-07T13:25:44.000Z</time>
      </trkpt>
      <trkpt lat="44.16206" lon="6.76304">
        <ele>1384</ele>
        <time>2018-07-07T13:25:49.000Z</time>
      </trkpt>
      <trkpt lat="44.16207" lon="6.76304">
        <ele>1384</ele>
        <time>2018-07-07T13:25:51.000Z</time>
      </trkpt>
      <trkpt lat="44.1621" lon="6.76306">
        <ele>1385</ele>
        <time>2018-07-07T13:25:57.000Z</time>
      </trkpt>
      <trkpt lat="44.1621" lon="6.76306">
        <ele>1385</ele>
        <time>2018-07-07T13:25:58.000Z</time>
      </trkpt>
      <trkpt lat="44.16214" lon="6.76309">
        <ele>1386</ele>
        <time>2018-07-07T13:26:06.000Z</time>
      </trkpt>
      <trkpt lat="44.16218" lon="6.76309">
        <ele>1387</ele>
        <time>2018-07-07T13:26:14.000Z</time>
      </trkpt>
      <trkpt lat="44.16221" lon="6.7631">
        <ele>1388</ele>
        <time>2018-07-07T13:26:20.000Z</time>
      </trkpt>
      <trkpt lat="44.16223" lon="6.76311">
        <ele>1388</ele>
        <time>2018-07-07T13:26:23.000Z</time>
      </trkpt>
      <trkpt lat="44.16226" lon="6.76313">
        <ele>1390</ele>
        <time>2018-07-07T13:26:28.000Z</time>
      </trkpt>
      <trkpt lat="44.16227" lon="6.76316">
        <ele>1391</ele>
        <time>2018-07-07T13:26:33.000Z</time>
      </trkpt>
      <trkpt lat="44.16227" lon="6.76316">
        <ele>1391</ele>
        <time>2018-07-07T13:26:35.000Z</time>
      </trkpt>
      <trkpt lat="44.16225" lon="6.76319">
        <ele>1391</ele>
        <time>2018-07-07T13:26:41.000Z</time>
      </trkpt>
      <trkpt lat="44.16224" lon="6.76324">
        <ele>1391</ele>
        <time>2018-07-07T13:26:49.000Z</time>
      </trkpt>
      <trkpt lat="44.16221" lon="6.76329">
        <ele>1391</ele>
        <time>2018-07-07T13:26:57.000Z</time>
      </trkpt>
      <trkpt lat="44.16221" lon="6.76329">
        <ele>1391</ele>
        <time>2018-07-07T13:26:58.000Z</time>
      </trkpt>
      <trkpt lat="44.16222" lon="6.76334">
        <ele>1401</ele>
        <time>2018-07-07T13:27:06.000Z</time>
      </trkpt>
      <trkpt lat="44.16225" lon="6.76335">
        <ele>1402</ele>
        <time>2018-07-07T13:27:14.000Z</time>
      </trkpt>
      <trkpt lat="44.16226" lon="6.76335">
        <ele>1403</ele>
        <time>2018-07-07T13:27:16.000Z</time>
      </trkpt>
      <trkpt lat="44.16227" lon="6.76336">
        <ele>1403</ele>
        <time>2018-07-07T13:27:27.000Z</time>
      </trkpt>
      <trkpt lat="44.16228" lon="6.76336">
        <ele>1403</ele>
        <time>2018-07-07T13:27:32.000Z</time>
      </trkpt>
      <trkpt lat="44.1623" lon="6.76336">
        <ele>1404</ele>
        <time>2018-07-07T13:27:36.000Z</time>
      </trkpt>
      <trkpt lat="44.16232" lon="6.76336">
        <ele>1405</ele>
        <time>2018-07-07T13:27:40.000Z</time>
      </trkpt>
      <trkpt lat="44.16235" lon="6.76336">
        <ele>1406</ele>
        <time>2018-07-07T13:27:44.000Z</time>
      </trkpt>
      <trkpt lat="44.16237" lon="6.76337">
        <ele>1406</ele>
        <time>2018-07-07T13:27:47.000Z</time>
      </trkpt>
      <trkpt lat="44.16241" lon="6.76338">
        <ele>1408</ele>
        <time>2018-07-07T13:27:54.000Z</time>
      </trkpt>
      <trkpt lat="44.16241" lon="6.76338">
        <ele>1407</ele>
        <time>2018-07-07T13:27:55.000Z</time>
      </trkpt>
      <trkpt lat="44.16245" lon="6.7634">
        <ele>1408</ele>
        <time>2018-07-07T13:28:01.000Z</time>
      </trkpt>
      <trkpt lat="44.16245" lon="6.7634">
        <ele>1408</ele>
        <time>2018-07-07T13:28:04.000Z</time>
      </trkpt>
      <trkpt lat="44.16247" lon="6.76341">
        <ele>1409</ele>
        <time>2018-07-07T13:28:08.000Z</time>
      </trkpt>
      <trkpt lat="44.1625" lon="6.76343">
        <ele>1408</ele>
        <time>2018-07-07T13:28:14.000Z</time>
      </trkpt>
      <trkpt lat="44.1625" lon="6.76345">
        <ele>1408</ele>
        <time>2018-07-07T13:28:17.000Z</time>
      </trkpt>
      <trkpt lat="44.16248" lon="6.76347">
        <ele>1407</ele>
        <time>2018-07-07T13:28:21.000Z</time>
      </trkpt>
      <trkpt lat="44.16248" lon="6.76347">
        <ele>1407</ele>
        <time>2018-07-07T13:28:23.000Z</time>
      </trkpt>
      <trkpt lat="44.16246" lon="6.76351">
        <ele>1406</ele>
        <time>2018-07-07T13:28:29.000Z</time>
      </trkpt>
      <trkpt lat="44.16246" lon="6.76352">
        <ele>1406</ele>
        <time>2018-07-07T13:28:31.000Z</time>
      </trkpt>
      <trkpt lat="44.16245" lon="6.76356">
        <ele>1406</ele>
        <time>2018-07-07T13:28:38.000Z</time>
      </trkpt>
      <trkpt lat="44.16243" lon="6.7636">
        <ele>1405</ele>
        <time>2018-07-07T13:28:45.000Z</time>
      </trkpt>
      <trkpt lat="44.16242" lon="6.7636">
        <ele>1405</ele>
        <time>2018-07-07T13:28:47.000Z</time>
      </trkpt>
      <trkpt lat="44.1624" lon="6.76363">
        <ele>1405</ele>
        <time>2018-07-07T13:28:52.000Z</time>
      </trkpt>
      <trkpt lat="44.1624" lon="6.76363">
        <ele>1405</ele>
        <time>2018-07-07T13:28:53.000Z</time>
      </trkpt>
      <trkpt lat="44.16238" lon="6.7637">
        <ele>1405</ele>
        <time>2018-07-07T13:29:00.000Z</time>
      </trkpt>
      <trkpt lat="44.16239" lon="6.76371">
        <ele>1405</ele>
        <time>2018-07-07T13:29:01.000Z</time>
      </trkpt>
      <trkpt lat="44.16239" lon="6.76374">
        <ele>1405</ele>
        <time>2018-07-07T13:29:08.000Z</time>
      </trkpt>
      <trkpt lat="44.16239" lon="6.76375">
        <ele>1406</ele>
        <time>2018-07-07T13:29:12.000Z</time>
      </trkpt>
      <trkpt lat="44.1624" lon="6.76376">
        <ele>1406</ele>
        <time>2018-07-07T13:29:17.000Z</time>
      </trkpt>
      <trkpt lat="44.1624" lon="6.76376">
        <ele>1406</ele>
        <time>2018-07-07T13:29:26.000Z</time>
      </trkpt>
      <trkpt lat="44.16239" lon="6.76378">
        <ele>1406</ele>
        <time>2018-07-07T13:29:34.000Z</time>
      </trkpt>
      <trkpt lat="44.16239" lon="6.76379">
        <ele>1406</ele>
        <time>2018-07-07T13:29:35.000Z</time>
      </trkpt>
      <trkpt lat="44.16238" lon="6.76386">
        <ele>1408</ele>
        <time>2018-07-07T13:29:41.000Z</time>
      </trkpt>
      <trkpt lat="44.16239" lon="6.76386">
        <ele>1408</ele>
        <time>2018-07-07T13:29:47.000Z</time>
      </trkpt>
      <trkpt lat="44.16239" lon="6.76385">
        <ele>1408</ele>
        <time>2018-07-07T13:29:48.000Z</time>
      </trkpt>
      <trkpt lat="44.16242" lon="6.76382">
        <ele>1407</ele>
        <time>2018-07-07T13:29:54.000Z</time>
      </trkpt>
      <trkpt lat="44.16242" lon="6.76381">
        <ele>1407</ele>
        <time>2018-07-07T13:29:56.000Z</time>
      </trkpt>
      <trkpt lat="44.16243" lon="6.76381">
        <ele>1407</ele>
        <time>2018-07-07T13:29:59.000Z</time>
      </trkpt>
      <trkpt lat="44.16245" lon="6.7638">
        <ele>1407</ele>
        <time>2018-07-07T13:30:05.000Z</time>
      </trkpt>
      <trkpt lat="44.16247" lon="6.76379">
        <ele>1408</ele>
        <time>2018-07-07T13:30:07.000Z</time>
      </trkpt>
      <trkpt lat="44.16249" lon="6.76378">
        <ele>1408</ele>
        <time>2018-07-07T13:30:13.000Z</time>
      </trkpt>
      <trkpt lat="44.1625" lon="6.76378">
        <ele>1408</ele>
        <time>2018-07-07T13:30:15.000Z</time>
      </trkpt>
      <trkpt lat="44.1625" lon="6.76378">
        <ele>1429</ele>
        <time>2018-07-07T13:30:22.000Z</time>
      </trkpt>
      <trkpt lat="44.16252" lon="6.76379">
        <ele>1429</ele>
        <time>2018-07-07T13:30:38.000Z</time>
      </trkpt>
      <trkpt lat="44.16253" lon="6.7638">
        <ele>1429</ele>
        <time>2018-07-07T13:30:59.000Z</time>
      </trkpt>
      <trkpt lat="44.16252" lon="6.7638">
        <ele>1429</ele>
        <time>2018-07-07T13:31:21.000Z</time>
      </trkpt>
      <trkpt lat="44.16252" lon="6.7638">
        <ele>1429</ele>
        <time>2018-07-07T13:31:26.000Z</time>
      </trkpt>
      <trkpt lat="44.16254" lon="6.76378">
        <ele>1429</ele>
        <time>2018-07-07T13:31:39.000Z</time>
      </trkpt>
      <trkpt lat="44.16253" lon="6.76378">
        <ele>1429</ele>
        <time>2018-07-07T13:31:43.000Z</time>
      </trkpt>
      <trkpt lat="44.16253" lon="6.76378">
        <ele>1429</ele>
        <time>2018-07-07T13:31:48.000Z</time>
      </trkpt>
      <trkpt lat="44.16252" lon="6.76378">
        <ele>1429</ele>
        <time>2018-07-07T13:31:56.000Z</time>
      </trkpt>
      <trkpt lat="44.16253" lon="6.76377">
        <ele>1428</ele>
        <time>2018-07-07T13:32:03.000Z</time>
      </trkpt>
      <trkpt lat="44.16258" lon="6.76376">
        <ele>1429</ele>
        <time>2018-07-07T13:32:11.000Z</time>
      </trkpt>
      <trkpt lat="44.16265" lon="6.76375">
        <ele>1429</ele>
        <time>2018-07-07T13:32:18.000Z</time>
      </trkpt>
      <trkpt lat="44.16268" lon="6.76374">
        <ele>1429</ele>
        <time>2018-07-07T13:32:22.000Z</time>
      </trkpt>
      <trkpt lat="44.1627" lon="6.76374">
        <ele>1429</ele>
        <time>2018-07-07T13:32:23.000Z</time>
      </trkpt>
      <trkpt lat="44.16275" lon="6.76372">
        <ele>1429</ele>
        <time>2018-07-07T13:32:28.000Z</time>
      </trkpt>
      <trkpt lat="44.16277" lon="6.76367">
        <ele>1429</ele>
        <time>2018-07-07T13:32:31.000Z</time>
      </trkpt>
      <trkpt lat="44.16284" lon="6.76369">
        <ele>1430</ele>
        <time>2018-07-07T13:32:36.000Z</time>
      </trkpt>
      <trkpt lat="44.16287" lon="6.76367">
        <ele>1430</ele>
        <time>2018-07-07T13:32:39.000Z</time>
      </trkpt>
      <trkpt lat="44.16288" lon="6.76367">
        <ele>1430</ele>
        <time>2018-07-07T13:32:40.000Z</time>
      </trkpt>
      <trkpt lat="44.16292" lon="6.76365">
        <ele>1430</ele>
        <time>2018-07-07T13:32:43.000Z</time>
      </trkpt>
      <trkpt lat="44.16294" lon="6.76363">
        <ele>1430</ele>
        <time>2018-07-07T13:32:44.000Z</time>
      </trkpt>
      <trkpt lat="44.16307" lon="6.76351">
        <ele>1429</ele>
        <time>2018-07-07T13:32:49.000Z</time>
      </trkpt>
      <trkpt lat="44.16314" lon="6.7635">
        <ele>1429</ele>
        <time>2018-07-07T13:32:50.000Z</time>
      </trkpt>
      <trkpt lat="44.16326" lon="6.76346">
        <ele>1427</ele>
        <time>2018-07-07T13:32:52.000Z</time>
      </trkpt>
      <trkpt lat="44.16337" lon="6.7634">
        <ele>1427</ele>
        <time>2018-07-07T13:32:54.000Z</time>
      </trkpt>
      <trkpt lat="44.16343" lon="6.76341">
        <ele>1428</ele>
        <time>2018-07-07T13:32:55.000Z</time>
      </trkpt>
      <trkpt lat="44.16349" lon="6.76342">
        <ele>1430</ele>
        <time>2018-07-07T13:32:56.000Z</time>
      </trkpt>
      <trkpt lat="44.16354" lon="6.76344">
        <ele>1431</ele>
        <time>2018-07-07T13:32:57.000Z</time>
      </trkpt>
      <trkpt lat="44.16364" lon="6.76349">
        <ele>1433</ele>
        <time>2018-07-07T13:32:59.000Z</time>
      </trkpt>
      <trkpt lat="44.16369" lon="6.7635">
        <ele>1433</ele>
        <time>2018-07-07T13:33:00.000Z</time>
      </trkpt>
      <trkpt lat="44.16375" lon="6.76349">
        <ele>1433</ele>
        <time>2018-07-07T13:33:01.000Z</time>
      </trkpt>
      <trkpt lat="44.16388" lon="6.7635">
        <ele>1431</ele>
        <time>2018-07-07T13:33:03.000Z</time>
      </trkpt>
      <trkpt lat="44.16399" lon="6.76352">
        <ele>1430</ele>
        <time>2018-07-07T13:33:05.000Z</time>
      </trkpt>
      <trkpt lat="44.16404" lon="6.76352">
        <ele>1429</ele>
        <time>2018-07-07T13:33:06.000Z</time>
      </trkpt>
      <trkpt lat="44.16414" lon="6.76354">
        <ele>1429</ele>
        <time>2018-07-07T13:33:08.000Z</time>
      </trkpt>
      <trkpt lat="44.16423" lon="6.76357">
        <ele>1429</ele>
        <time>2018-07-07T13:33:10.000Z</time>
      </trkpt>
      <trkpt lat="44.16427" lon="6.76357">
        <ele>1430</ele>
        <time>2018-07-07T13:33:11.000Z</time>
      </trkpt>
      <trkpt lat="44.16442" lon="6.76364">
        <ele>1433</ele>
        <time>2018-07-07T13:33:14.000Z</time>
      </trkpt>
      <trkpt lat="44.16447" lon="6.76364">
        <ele>1433</ele>
        <time>2018-07-07T13:33:15.000Z</time>
      </trkpt>
      <trkpt lat="44.16454" lon="6.76367">
        <ele>1434</ele>
        <time>2018-07-07T13:33:17.000Z</time>
      </trkpt>
      <trkpt lat="44.16462" lon="6.76362">
        <ele>1433</ele>
        <time>2018-07-07T13:33:19.000Z</time>
      </trkpt>
      <trkpt lat="44.16465" lon="6.7636">
        <ele>1433</ele>
        <time>2018-07-07T13:33:21.000Z</time>
      </trkpt>
      <trkpt lat="44.16466" lon="6.7636">
        <ele>1433</ele>
        <time>2018-07-07T13:33:22.000Z</time>
      </trkpt>
      <trkpt lat="44.1647" lon="6.76357">
        <ele>1433</ele>
        <time>2018-07-07T13:33:25.000Z</time>
      </trkpt>
      <trkpt lat="44.16472" lon="6.76356">
        <ele>1432</ele>
        <time>2018-07-07T13:33:26.000Z</time>
      </trkpt>
      <trkpt lat="44.16475" lon="6.76354">
        <ele>1432</ele>
        <time>2018-07-07T13:33:28.000Z</time>
      </trkpt>
      <trkpt lat="44.16482" lon="6.76348">
        <ele>1430</ele>
        <time>2018-07-07T13:33:33.000Z</time>
      </trkpt>
      <trkpt lat="44.16483" lon="6.76345">
        <ele>1429</ele>
        <time>2018-07-07T13:33:34.000Z</time>
      </trkpt>
      <trkpt lat="44.16493" lon="6.76336">
        <ele>1424</ele>
        <time>2018-07-07T13:33:38.000Z</time>
      </trkpt>
      <trkpt lat="44.16507" lon="6.76325">
        <ele>1420</ele>
        <time>2018-07-07T13:33:45.000Z</time>
      </trkpt>
      <trkpt lat="44.1652" lon="6.76318">
        <ele>1420</ele>
        <time>2018-07-07T13:33:52.000Z</time>
      </trkpt>
      <trkpt lat="44.16528" lon="6.76311">
        <ele>1420</ele>
        <time>2018-07-07T13:33:57.000Z</time>
      </trkpt>
      <trkpt lat="44.16539" lon="6.76305">
        <ele>1421</ele>
        <time>2018-07-07T13:34:03.000Z</time>
      </trkpt>
      <trkpt lat="44.16542" lon="6.76305">
        <ele>1422</ele>
        <time>2018-07-07T13:34:05.000Z</time>
      </trkpt>
      <trkpt lat="44.16549" lon="6.76302">
        <ele>1423</ele>
        <time>2018-07-07T13:34:10.000Z</time>
      </trkpt>
      <trkpt lat="44.1655" lon="6.76301">
        <ele>1423</ele>
        <time>2018-07-07T13:34:11.000Z</time>
      </trkpt>
      <trkpt lat="44.16554" lon="6.76297">
        <ele>1423</ele>
        <time>2018-07-07T13:34:15.000Z</time>
      </trkpt>
      <trkpt lat="44.16557" lon="6.76294">
        <ele>1423</ele>
        <time>2018-07-07T13:34:18.000Z</time>
      </trkpt>
      <trkpt lat="44.16558" lon="6.76293">
        <ele>1423</ele>
        <time>2018-07-07T13:34:19.000Z</time>
      </trkpt>
      <trkpt lat="44.16564" lon="6.76289">
        <ele>1423</ele>
        <time>2018-07-07T13:34:24.000Z</time>
      </trkpt>
      <trkpt lat="44.16565" lon="6.76288">
        <ele>1423</ele>
        <time>2018-07-07T13:34:25.000Z</time>
      </trkpt>
      <trkpt lat="44.16569" lon="6.76284">
        <ele>1422</ele>
        <time>2018-07-07T13:34:29.000Z</time>
      </trkpt>
      <trkpt lat="44.16572" lon="6.76279">
        <ele>1422</ele>
        <time>2018-07-07T13:34:33.000Z</time>
      </trkpt>
      <trkpt lat="44.16577" lon="6.76274">
        <ele>1421</ele>
        <time>2018-07-07T13:34:38.000Z</time>
      </trkpt>
      <trkpt lat="44.16582" lon="6.76268">
        <ele>1421</ele>
        <time>2018-07-07T13:34:44.000Z</time>
      </trkpt>
      <trkpt lat="44.1659" lon="6.7626">
        <ele>1431</ele>
        <time>2018-07-07T13:34:51.000Z</time>
      </trkpt>
      <trkpt lat="44.16591" lon="6.76259">
        <ele>1430</ele>
        <time>2018-07-07T13:34:52.000Z</time>
      </trkpt>
      <trkpt lat="44.16596" lon="6.76252">
        <ele>1431</ele>
        <time>2018-07-07T13:34:58.000Z</time>
      </trkpt>
      <trkpt lat="44.16604" lon="6.76244">
        <ele>1418</ele>
        <time>2018-07-07T13:35:03.000Z</time>
      </trkpt>
      <trkpt lat="44.16612" lon="6.76237">
        <ele>1418</ele>
        <time>2018-07-07T13:35:09.000Z</time>
      </trkpt>
      <trkpt lat="44.16621" lon="6.76229">
        <ele>1418</ele>
        <time>2018-07-07T13:35:16.000Z</time>
      </trkpt>
      <trkpt lat="44.16631" lon="6.76223">
        <ele>1418</ele>
        <time>2018-07-07T13:35:23.000Z</time>
      </trkpt>
      <trkpt lat="44.16641" lon="6.76221">
        <ele>1420</ele>
        <time>2018-07-07T13:35:29.000Z</time>
      </trkpt>
      <trkpt lat="44.16653" lon="6.7622">
        <ele>1422</ele>
        <time>2018-07-07T13:35:34.000Z</time>
      </trkpt>
      <trkpt lat="44.16662" lon="6.76223">
        <ele>1424</ele>
        <time>2018-07-07T13:35:39.000Z</time>
      </trkpt>
      <trkpt lat="44.16681" lon="6.76226">
        <ele>1434</ele>
        <time>2018-07-07T13:35:47.000Z</time>
      </trkpt>
      <trkpt lat="44.1669" lon="6.7622">
        <ele>1433</ele>
        <time>2018-07-07T13:35:51.000Z</time>
      </trkpt>
      <trkpt lat="44.16691" lon="6.76218">
        <ele>1432</ele>
        <time>2018-07-07T13:35:52.000Z</time>
      </trkpt>
      <trkpt lat="44.167" lon="6.76209">
        <ele>1430</ele>
        <time>2018-07-07T13:35:55.000Z</time>
      </trkpt>
      <trkpt lat="44.16704" lon="6.76208">
        <ele>1430</ele>
        <time>2018-07-07T13:35:56.000Z</time>
      </trkpt>
      <trkpt lat="44.16712" lon="6.76204">
        <ele>1430</ele>
        <time>2018-07-07T13:35:58.000Z</time>
      </trkpt>
      <trkpt lat="44.16723" lon="6.76195">
        <ele>1428</ele>
        <time>2018-07-07T13:36:01.000Z</time>
      </trkpt>
      <trkpt lat="44.1673" lon="6.76192">
        <ele>1428</ele>
        <time>2018-07-07T13:36:03.000Z</time>
      </trkpt>
      <trkpt lat="44.16746" lon="6.76183">
        <ele>1425</ele>
        <time>2018-07-07T13:36:07.000Z</time>
      </trkpt>
      <trkpt lat="44.16755" lon="6.76181">
        <ele>1429</ele>
        <time>2018-07-07T13:36:09.000Z</time>
      </trkpt>
      <trkpt lat="44.16765" lon="6.76176">
        <ele>1430</ele>
        <time>2018-07-07T13:36:11.000Z</time>
      </trkpt>
      <trkpt lat="44.16773" lon="6.76171">
        <ele>1431</ele>
        <time>2018-07-07T13:36:13.000Z</time>
      </trkpt>
      <trkpt lat="44.16776" lon="6.76174">
        <ele>1432</ele>
        <time>2018-07-07T13:36:14.000Z</time>
      </trkpt>
      <trkpt lat="44.16786" lon="6.76184">
        <ele>1436</ele>
        <time>2018-07-07T13:36:18.000Z</time>
      </trkpt>
      <trkpt lat="44.16794" lon="6.76175">
        <ele>1435</ele>
        <time>2018-07-07T13:36:21.000Z</time>
      </trkpt>
      <trkpt lat="44.16808" lon="6.76173">
        <ele>1435</ele>
        <time>2018-07-07T13:36:25.000Z</time>
      </trkpt>
      <trkpt lat="44.16819" lon="6.7618">
        <ele>1435</ele>
        <time>2018-07-07T13:36:29.000Z</time>
      </trkpt>
      <trkpt lat="44.16821" lon="6.7618">
        <ele>1435</ele>
        <time>2018-07-07T13:36:30.000Z</time>
      </trkpt>
      <trkpt lat="44.16824" lon="6.76183">
        <ele>1435</ele>
        <time>2018-07-07T13:36:32.000Z</time>
      </trkpt>
      <trkpt lat="44.16827" lon="6.76189">
        <ele>1437</ele>
        <time>2018-07-07T13:36:34.000Z</time>
      </trkpt>
      <trkpt lat="44.16831" lon="6.76181">
        <ele>1434</ele>
        <time>2018-07-07T13:36:37.000Z</time>
      </trkpt>
      <trkpt lat="44.16842" lon="6.76174">
        <ele>1438</ele>
        <time>2018-07-07T13:36:41.000Z</time>
      </trkpt>
      <trkpt lat="44.16849" lon="6.76166">
        <ele>1426</ele>
        <time>2018-07-07T13:36:43.000Z</time>
      </trkpt>
      <trkpt lat="44.16853" lon="6.76164">
        <ele>1426</ele>
        <time>2018-07-07T13:36:44.000Z</time>
      </trkpt>
      <trkpt lat="44.16858" lon="6.76163">
        <ele>1426</ele>
        <time>2018-07-07T13:36:45.000Z</time>
      </trkpt>
      <trkpt lat="44.16869" lon="6.76149">
        <ele>1425</ele>
        <time>2018-07-07T13:36:49.000Z</time>
      </trkpt>
      <trkpt lat="44.16872" lon="6.76146">
        <ele>1425</ele>
        <time>2018-07-07T13:36:50.000Z</time>
      </trkpt>
      <trkpt lat="44.16885" lon="6.7614">
        <ele>1426</ele>
        <time>2018-07-07T13:36:54.000Z</time>
      </trkpt>
      <trkpt lat="44.1689" lon="6.76142">
        <ele>1428</ele>
        <time>2018-07-07T13:36:55.000Z</time>
      </trkpt>
      <trkpt lat="44.16896" lon="6.76146">
        <ele>1430</ele>
        <time>2018-07-07T13:36:57.000Z</time>
      </trkpt>
      <trkpt lat="44.16902" lon="6.76139">
        <ele>1429</ele>
        <time>2018-07-07T13:37:00.000Z</time>
      </trkpt>
      <trkpt lat="44.16904" lon="6.76134">
        <ele>1428</ele>
        <time>2018-07-07T13:37:01.000Z</time>
      </trkpt>
      <trkpt lat="44.16913" lon="6.76128">
        <ele>1427</ele>
        <time>2018-07-07T13:37:03.000Z</time>
      </trkpt>
      <trkpt lat="44.16924" lon="6.76108">
        <ele>1436</ele>
        <time>2018-07-07T13:37:06.000Z</time>
      </trkpt>
      <trkpt lat="44.16927" lon="6.76101">
        <ele>1434</ele>
        <time>2018-07-07T13:37:07.000Z</time>
      </trkpt>
      <trkpt lat="44.16929" lon="6.76095">
        <ele>1433</ele>
        <time>2018-07-07T13:37:08.000Z</time>
      </trkpt>
      <trkpt lat="44.16934" lon="6.7609">
        <ele>1433</ele>
        <time>2018-07-07T13:37:10.000Z</time>
      </trkpt>
      <trkpt lat="44.16937" lon="6.76086">
        <ele>1434</ele>
        <time>2018-07-07T13:37:11.000Z</time>
      </trkpt>
      <trkpt lat="44.16946" lon="6.76074">
        <ele>1420</ele>
        <time>2018-07-07T13:37:14.000Z</time>
      </trkpt>
      <trkpt lat="44.16949" lon="6.76071">
        <ele>1420</ele>
        <time>2018-07-07T13:37:15.000Z</time>
      </trkpt>
      <trkpt lat="44.16952" lon="6.76067">
        <ele>1420</ele>
        <time>2018-07-07T13:37:18.000Z</time>
      </trkpt>
      <trkpt lat="44.16954" lon="6.76061">
        <ele>1420</ele>
        <time>2018-07-07T13:37:21.000Z</time>
      </trkpt>
      <trkpt lat="44.16955" lon="6.76059">
        <ele>1420</ele>
        <time>2018-07-07T13:37:22.000Z</time>
      </trkpt>
      <trkpt lat="44.16957" lon="6.76057">
        <ele>1420</ele>
        <time>2018-07-07T13:37:23.000Z</time>
      </trkpt>
      <trkpt lat="44.16967" lon="6.76049">
        <ele>1420</ele>
        <time>2018-07-07T13:37:27.000Z</time>
      </trkpt>
      <trkpt lat="44.16969" lon="6.76043">
        <ele>1419</ele>
        <time>2018-07-07T13:37:28.000Z</time>
      </trkpt>
      <trkpt lat="44.16979" lon="6.76037">
        <ele>1419</ele>
        <time>2018-07-07T13:37:30.000Z</time>
      </trkpt>
      <trkpt lat="44.16985" lon="6.76035">
        <ele>1420</ele>
        <time>2018-07-07T13:37:31.000Z</time>
      </trkpt>
      <trkpt lat="44.16995" lon="6.76032">
        <ele>1420</ele>
        <time>2018-07-07T13:37:33.000Z</time>
      </trkpt>
      <trkpt lat="44.17002" lon="6.76024">
        <ele>1427</ele>
        <time>2018-07-07T13:37:35.000Z</time>
      </trkpt>
      <trkpt lat="44.17008" lon="6.76022">
        <ele>1427</ele>
        <time>2018-07-07T13:37:36.000Z</time>
      </trkpt>
      <trkpt lat="44.17011" lon="6.7602">
        <ele>1427</ele>
        <time>2018-07-07T13:37:37.000Z</time>
      </trkpt>
      <trkpt lat="44.17027" lon="6.76011">
        <ele>1428</ele>
        <time>2018-07-07T13:37:40.000Z</time>
      </trkpt>
      <trkpt lat="44.17041" lon="6.76008">
        <ele>1429</ele>
        <time>2018-07-07T13:37:43.000Z</time>
      </trkpt>
      <trkpt lat="44.17045" lon="6.76007">
        <ele>1429</ele>
        <time>2018-07-07T13:37:44.000Z</time>
      </trkpt>
      <trkpt lat="44.17051" lon="6.76005">
        <ele>1429</ele>
        <time>2018-07-07T13:37:45.000Z</time>
      </trkpt>
      <trkpt lat="44.1706" lon="6.76004">
        <ele>1429</ele>
        <time>2018-07-07T13:37:47.000Z</time>
      </trkpt>
      <trkpt lat="44.17065" lon="6.76006">
        <ele>1429</ele>
        <time>2018-07-07T13:37:48.000Z</time>
      </trkpt>
      <trkpt lat="44.17085" lon="6.75997">
        <ele>1423</ele>
        <time>2018-07-07T13:37:52.000Z</time>
      </trkpt>
      <trkpt lat="44.171" lon="6.75985">
        <ele>1418</ele>
        <time>2018-07-07T13:37:56.000Z</time>
      </trkpt>
      <trkpt lat="44.17109" lon="6.7598">
        <ele>1417</ele>
        <time>2018-07-07T13:37:58.000Z</time>
      </trkpt>
      <trkpt lat="44.17113" lon="6.75979">
        <ele>1417</ele>
        <time>2018-07-07T13:37:59.000Z</time>
      </trkpt>
      <trkpt lat="44.17129" lon="6.75973">
        <ele>1417</ele>
        <time>2018-07-07T13:38:02.000Z</time>
      </trkpt>
      <trkpt lat="44.17134" lon="6.75971">
        <ele>1417</ele>
        <time>2018-07-07T13:38:03.000Z</time>
      </trkpt>
      <trkpt lat="44.17146" lon="6.7596">
        <ele>1416</ele>
        <time>2018-07-07T13:38:06.000Z</time>
      </trkpt>
      <trkpt lat="44.17152" lon="6.75957">
        <ele>1415</ele>
        <time>2018-07-07T13:38:07.000Z</time>
      </trkpt>
      <trkpt lat="44.17168" lon="6.75941">
        <ele>1418</ele>
        <time>2018-07-07T13:38:11.000Z</time>
      </trkpt>
      <trkpt lat="44.17172" lon="6.75933">
        <ele>1416</ele>
        <time>2018-07-07T13:38:12.000Z</time>
      </trkpt>
      <trkpt lat="44.17182" lon="6.75925">
        <ele>1416</ele>
        <time>2018-07-07T13:38:14.000Z</time>
      </trkpt>
      <trkpt lat="44.17186" lon="6.75917">
        <ele>1416</ele>
        <time>2018-07-07T13:38:15.000Z</time>
      </trkpt>
      <trkpt lat="44.17191" lon="6.75906">
        <ele>1402</ele>
        <time>2018-07-07T13:38:17.000Z</time>
      </trkpt>
      <trkpt lat="44.17195" lon="6.75901">
        <ele>1401</ele>
        <time>2018-07-07T13:38:18.000Z</time>
      </trkpt>
      <trkpt lat="44.17205" lon="6.75895">
        <ele>1401</ele>
        <time>2018-07-07T13:38:20.000Z</time>
      </trkpt>
      <trkpt lat="44.1721" lon="6.75892">
        <ele>1402</ele>
        <time>2018-07-07T13:38:21.000Z</time>
      </trkpt>
      <trkpt lat="44.17215" lon="6.75891">
        <ele>1402</ele>
        <time>2018-07-07T13:38:23.000Z</time>
      </trkpt>
      <trkpt lat="44.17219" lon="6.75889">
        <ele>1402</ele>
        <time>2018-07-07T13:38:24.000Z</time>
      </trkpt>
      <trkpt lat="44.1723" lon="6.75885">
        <ele>1403</ele>
        <time>2018-07-07T13:38:28.000Z</time>
      </trkpt>
      <trkpt lat="44.17245" lon="6.75879">
        <ele>1403</ele>
        <time>2018-07-07T13:38:32.000Z</time>
      </trkpt>
      <trkpt lat="44.17248" lon="6.75873">
        <ele>1402</ele>
        <time>2018-07-07T13:38:33.000Z</time>
      </trkpt>
      <trkpt lat="44.17256" lon="6.75865">
        <ele>1410</ele>
        <time>2018-07-07T13:38:35.000Z</time>
      </trkpt>
      <trkpt lat="44.1726" lon="6.75859">
        <ele>1408</ele>
        <time>2018-07-07T13:38:36.000Z</time>
      </trkpt>
      <trkpt lat="44.17265" lon="6.75857">
        <ele>1409</ele>
        <time>2018-07-07T13:38:37.000Z</time>
      </trkpt>
      <trkpt lat="44.17271" lon="6.75855">
        <ele>1409</ele>
        <time>2018-07-07T13:38:38.000Z</time>
      </trkpt>
      <trkpt lat="44.17277" lon="6.75853">
        <ele>1409</ele>
        <time>2018-07-07T13:38:39.000Z</time>
      </trkpt>
      <trkpt lat="44.17283" lon="6.75846">
        <ele>1409</ele>
        <time>2018-07-07T13:38:40.000Z</time>
      </trkpt>
      <trkpt lat="44.17293" lon="6.75834">
        <ele>1409</ele>
        <time>2018-07-07T13:38:42.000Z</time>
      </trkpt>
      <trkpt lat="44.173" lon="6.75829">
        <ele>1396</ele>
        <time>2018-07-07T13:38:44.000Z</time>
      </trkpt>
      <trkpt lat="44.17304" lon="6.75826">
        <ele>1396</ele>
        <time>2018-07-07T13:38:45.000Z</time>
      </trkpt>
      <trkpt lat="44.17309" lon="6.75821">
        <ele>1396</ele>
        <time>2018-07-07T13:38:46.000Z</time>
      </trkpt>
      <trkpt lat="44.17313" lon="6.75818">
        <ele>1397</ele>
        <time>2018-07-07T13:38:47.000Z</time>
      </trkpt>
      <trkpt lat="44.17328" lon="6.75804">
        <ele>1395</ele>
        <time>2018-07-07T13:38:50.000Z</time>
      </trkpt>
      <trkpt lat="44.17337" lon="6.75796">
        <ele>1397</ele>
        <time>2018-07-07T13:38:52.000Z</time>
      </trkpt>
      <trkpt lat="44.17345" lon="6.75784">
        <ele>1394</ele>
        <time>2018-07-07T13:38:54.000Z</time>
      </trkpt>
      <trkpt lat="44.17349" lon="6.75781">
        <ele>1394</ele>
        <time>2018-07-07T13:38:55.000Z</time>
      </trkpt>
      <trkpt lat="44.17363" lon="6.75778">
        <ele>1394</ele>
        <time>2018-07-07T13:38:58.000Z</time>
      </trkpt>
      <trkpt lat="44.17371" lon="6.75774">
        <ele>1394</ele>
        <time>2018-07-07T13:39:00.000Z</time>
      </trkpt>
      <trkpt lat="44.17376" lon="6.75775">
        <ele>1394</ele>
        <time>2018-07-07T13:39:01.000Z</time>
      </trkpt>
      <trkpt lat="44.17378" lon="6.7577">
        <ele>1394</ele>
        <time>2018-07-07T13:39:02.000Z</time>
      </trkpt>
      <trkpt lat="44.1738" lon="6.7576">
        <ele>1393</ele>
        <time>2018-07-07T13:39:04.000Z</time>
      </trkpt>
      <trkpt lat="44.1738" lon="6.75754">
        <ele>1392</ele>
        <time>2018-07-07T13:39:05.000Z</time>
      </trkpt>
      <trkpt lat="44.17383" lon="6.75749">
        <ele>1375</ele>
        <time>2018-07-07T13:39:06.000Z</time>
      </trkpt>
      <trkpt lat="44.17391" lon="6.75741">
        <ele>1376</ele>
        <time>2018-07-07T13:39:08.000Z</time>
      </trkpt>
      <trkpt lat="44.17395" lon="6.75737">
        <ele>1376</ele>
        <time>2018-07-07T13:39:09.000Z</time>
      </trkpt>
      <trkpt lat="44.17402" lon="6.75732">
        <ele>1376</ele>
        <time>2018-07-07T13:39:10.000Z</time>
      </trkpt>
      <trkpt lat="44.17406" lon="6.75726">
        <ele>1374</ele>
        <time>2018-07-07T13:39:11.000Z</time>
      </trkpt>
      <trkpt lat="44.17413" lon="6.75721">
        <ele>1373</ele>
        <time>2018-07-07T13:39:12.000Z</time>
      </trkpt>
      <trkpt lat="44.17421" lon="6.75718">
        <ele>1376</ele>
        <time>2018-07-07T13:39:13.000Z</time>
      </trkpt>
      <trkpt lat="44.17427" lon="6.75714">
        <ele>1375</ele>
        <time>2018-07-07T13:39:14.000Z</time>
      </trkpt>
      <trkpt lat="44.17433" lon="6.75707">
        <ele>1373</ele>
        <time>2018-07-07T13:39:15.000Z</time>
      </trkpt>
      <trkpt lat="44.17438" lon="6.75702">
        <ele>1372</ele>
        <time>2018-07-07T13:39:16.000Z</time>
      </trkpt>
      <trkpt lat="44.17443" lon="6.75693">
        <ele>1371</ele>
        <time>2018-07-07T13:39:17.000Z</time>
      </trkpt>
      <trkpt lat="44.17448" lon="6.75683">
        <ele>1369</ele>
        <time>2018-07-07T13:39:18.000Z</time>
      </trkpt>
      <trkpt lat="44.17453" lon="6.75677">
        <ele>1369</ele>
        <time>2018-07-07T13:39:19.000Z</time>
      </trkpt>
      <trkpt lat="44.17463" lon="6.75665">
        <ele>1351</ele>
        <time>2018-07-07T13:39:21.000Z</time>
      </trkpt>
      <trkpt lat="44.17472" lon="6.75663">
        <ele>1352</ele>
        <time>2018-07-07T13:39:22.000Z</time>
      </trkpt>
      <trkpt lat="44.17478" lon="6.75658">
        <ele>1352</ele>
        <time>2018-07-07T13:39:23.000Z</time>
      </trkpt>
      <trkpt lat="44.17491" lon="6.75654">
        <ele>1354</ele>
        <time>2018-07-07T13:39:25.000Z</time>
      </trkpt>
      <trkpt lat="44.17498" lon="6.7565">
        <ele>1353</ele>
        <time>2018-07-07T13:39:26.000Z</time>
      </trkpt>
      <trkpt lat="44.17506" lon="6.75646">
        <ele>1352</ele>
        <time>2018-07-07T13:39:27.000Z</time>
      </trkpt>
      <trkpt lat="44.17514" lon="6.75639">
        <ele>1350</ele>
        <time>2018-07-07T13:39:28.000Z</time>
      </trkpt>
      <trkpt lat="44.17519" lon="6.75636">
        <ele>1348</ele>
        <time>2018-07-07T13:39:29.000Z</time>
      </trkpt>
      <trkpt lat="44.17522" lon="6.7563">
        <ele>1347</ele>
        <time>2018-07-07T13:39:30.000Z</time>
      </trkpt>
      <trkpt lat="44.17523" lon="6.75625">
        <ele>1346</ele>
        <time>2018-07-07T13:39:31.000Z</time>
      </trkpt>
      <trkpt lat="44.17523" lon="6.75622">
        <ele>1346</ele>
        <time>2018-07-07T13:39:32.000Z</time>
      </trkpt>
      <trkpt lat="44.17523" lon="6.75625">
        <ele>1346</ele>
        <time>2018-07-07T13:39:33.000Z</time>
      </trkpt>
      <trkpt lat="44.17523" lon="6.75622">
        <ele>1346</ele>
        <time>2018-07-07T13:39:34.000Z</time>
      </trkpt>
      <trkpt lat="44.17526" lon="6.75619">
        <ele>1345</ele>
        <time>2018-07-07T13:39:38.000Z</time>
      </trkpt>
      <trkpt lat="44.17526" lon="6.75618">
        <ele>1345</ele>
        <time>2018-07-07T13:39:40.000Z</time>
      </trkpt>
      <trkpt lat="44.17529" lon="6.75608">
        <ele>1343</ele>
        <time>2018-07-07T13:39:43.000Z</time>
      </trkpt>
      <trkpt lat="44.17537" lon="6.75597">
        <ele>1342</ele>
        <time>2018-07-07T13:39:45.000Z</time>
      </trkpt>
      <trkpt lat="44.17543" lon="6.75592">
        <ele>1341</ele>
        <time>2018-07-07T13:39:46.000Z</time>
      </trkpt>
      <trkpt lat="44.17549" lon="6.7559">
        <ele>1341</ele>
        <time>2018-07-07T13:39:47.000Z</time>
      </trkpt>
      <trkpt lat="44.1756" lon="6.75582">
        <ele>1325</ele>
        <time>2018-07-07T13:39:49.000Z</time>
      </trkpt>
      <trkpt lat="44.17565" lon="6.75581">
        <ele>1326</ele>
        <time>2018-07-07T13:39:50.000Z</time>
      </trkpt>
      <trkpt lat="44.17572" lon="6.7558">
        <ele>1327</ele>
        <time>2018-07-07T13:39:51.000Z</time>
      </trkpt>
      <trkpt lat="44.17578" lon="6.75577">
        <ele>1327</ele>
        <time>2018-07-07T13:39:52.000Z</time>
      </trkpt>
      <trkpt lat="44.17582" lon="6.75572">
        <ele>1326</ele>
        <time>2018-07-07T13:39:53.000Z</time>
      </trkpt>
      <trkpt lat="44.17583" lon="6.75569">
        <ele>1326</ele>
        <time>2018-07-07T13:39:54.000Z</time>
      </trkpt>
      <trkpt lat="44.17584" lon="6.75568">
        <ele>1324</ele>
        <time>2018-07-07T13:39:55.000Z</time>
      </trkpt>
      <trkpt lat="44.17583" lon="6.75567">
        <ele>1324</ele>
        <time>2018-07-07T13:39:56.000Z</time>
      </trkpt>
      <trkpt lat="44.17583" lon="6.75567">
        <ele>1325</ele>
        <time>2018-07-07T13:39:57.000Z</time>
      </trkpt>
      <trkpt lat="44.17583" lon="6.75567">
        <ele>1324</ele>
        <time>2018-07-07T13:39:58.000Z</time>
      </trkpt>
      <trkpt lat="44.17582" lon="6.75564">
        <ele>1325</ele>
        <time>2018-07-07T13:40:04.000Z</time>
      </trkpt>
      <trkpt lat="44.17577" lon="6.75561">
        <ele>1324</ele>
        <time>2018-07-07T13:40:06.000Z</time>
      </trkpt>
      <trkpt lat="44.17573" lon="6.75555">
        <ele>1323</ele>
        <time>2018-07-07T13:40:08.000Z</time>
      </trkpt>
      <trkpt lat="44.17574" lon="6.75553">
        <ele>1322</ele>
        <time>2018-07-07T13:40:09.000Z</time>
      </trkpt>
      <trkpt lat="44.17578" lon="6.75551">
        <ele>1322</ele>
        <time>2018-07-07T13:40:11.000Z</time>
      </trkpt>
      <trkpt lat="44.17581" lon="6.75549">
        <ele>1321</ele>
        <time>2018-07-07T13:40:12.000Z</time>
      </trkpt>
      <trkpt lat="44.1759" lon="6.75549">
        <ele>1320</ele>
        <time>2018-07-07T13:40:15.000Z</time>
      </trkpt>
      <trkpt lat="44.17592" lon="6.7555">
        <ele>1320</ele>
        <time>2018-07-07T13:40:16.000Z</time>
      </trkpt>
      <trkpt lat="44.17595" lon="6.75552">
        <ele>1320</ele>
        <time>2018-07-07T13:40:17.000Z</time>
      </trkpt>
      <trkpt lat="44.176" lon="6.75555">
        <ele>1320</ele>
        <time>2018-07-07T13:40:20.000Z</time>
      </trkpt>
      <trkpt lat="44.17602" lon="6.75555">
        <ele>1320</ele>
        <time>2018-07-07T13:40:21.000Z</time>
      </trkpt>
      <trkpt lat="44.17602" lon="6.75555">
        <ele>1320</ele>
        <time>2018-07-07T13:40:22.000Z</time>
      </trkpt>
      <trkpt lat="44.17602" lon="6.75555">
        <ele>1320</ele>
        <time>2018-07-07T13:40:24.000Z</time>
      </trkpt>
      <trkpt lat="44.17602" lon="6.75555">
        <ele>1320</ele>
        <time>2018-07-07T13:40:25.000Z</time>
      </trkpt>
      <trkpt lat="44.17604" lon="6.75552">
        <ele>1320</ele>
        <time>2018-07-07T13:40:27.000Z</time>
      </trkpt>
      <trkpt lat="44.17604" lon="6.75552">
        <ele>1320</ele>
        <time>2018-07-07T13:40:29.000Z</time>
      </trkpt>
      <trkpt lat="44.17606" lon="6.75547">
        <ele>1319</ele>
        <time>2018-07-07T13:40:34.000Z</time>
      </trkpt>
      <trkpt lat="44.17606" lon="6.75545">
        <ele>1319</ele>
        <time>2018-07-07T13:40:36.000Z</time>
      </trkpt>
      <trkpt lat="44.17608" lon="6.75536">
        <ele>1317</ele>
        <time>2018-07-07T13:40:39.000Z</time>
      </trkpt>
      <trkpt lat="44.17611" lon="6.75533">
        <ele>1317</ele>
        <time>2018-07-07T13:40:40.000Z</time>
      </trkpt>
      <trkpt lat="44.17615" lon="6.75528">
        <ele>1316</ele>
        <time>2018-07-07T13:40:44.000Z</time>
      </trkpt>
      <trkpt lat="44.17615" lon="6.75524">
        <ele>1316</ele>
        <time>2018-07-07T13:40:45.000Z</time>
      </trkpt>
      <trkpt lat="44.17622" lon="6.75517">
        <ele>1315</ele>
        <time>2018-07-07T13:40:47.000Z</time>
      </trkpt>
      <trkpt lat="44.17635" lon="6.75508">
        <ele>1314</ele>
        <time>2018-07-07T13:40:50.000Z</time>
      </trkpt>
      <trkpt lat="44.17641" lon="6.75507">
        <ele>1313</ele>
        <time>2018-07-07T13:40:52.000Z</time>
      </trkpt>
      <trkpt lat="44.17647" lon="6.75507">
        <ele>1312</ele>
        <time>2018-07-07T13:40:53.000Z</time>
      </trkpt>
      <trkpt lat="44.17653" lon="6.75505">
        <ele>1311</ele>
        <time>2018-07-07T13:40:54.000Z</time>
      </trkpt>
      <trkpt lat="44.17661" lon="6.75504">
        <ele>1309</ele>
        <time>2018-07-07T13:40:55.000Z</time>
      </trkpt>
      <trkpt lat="44.17665" lon="6.75501">
        <ele>1307</ele>
        <time>2018-07-07T13:40:56.000Z</time>
      </trkpt>
      <trkpt lat="44.17666" lon="6.75499">
        <ele>1305</ele>
        <time>2018-07-07T13:40:57.000Z</time>
      </trkpt>
      <trkpt lat="44.17668" lon="6.75497">
        <ele>1305</ele>
        <time>2018-07-07T13:40:58.000Z</time>
      </trkpt>
      <trkpt lat="44.1767" lon="6.75496">
        <ele>1304</ele>
        <time>2018-07-07T13:40:59.000Z</time>
      </trkpt>
      <trkpt lat="44.17673" lon="6.75495">
        <ele>1303</ele>
        <time>2018-07-07T13:41:00.000Z</time>
      </trkpt>
      <trkpt lat="44.17677" lon="6.75493">
        <ele>1302</ele>
        <time>2018-07-07T13:41:01.000Z</time>
      </trkpt>
      <trkpt lat="44.17685" lon="6.75492">
        <ele>1301</ele>
        <time>2018-07-07T13:41:03.000Z</time>
      </trkpt>
      <trkpt lat="44.17695" lon="6.75488">
        <ele>1300</ele>
        <time>2018-07-07T13:41:05.000Z</time>
      </trkpt>
      <trkpt lat="44.177" lon="6.75485">
        <ele>1300</ele>
        <time>2018-07-07T13:41:06.000Z</time>
      </trkpt>
      <trkpt lat="44.17703" lon="6.75481">
        <ele>1299</ele>
        <time>2018-07-07T13:41:07.000Z</time>
      </trkpt>
      <trkpt lat="44.17708" lon="6.75478">
        <ele>1299</ele>
        <time>2018-07-07T13:41:08.000Z</time>
      </trkpt>
      <trkpt lat="44.17711" lon="6.75477">
        <ele>1299</ele>
        <time>2018-07-07T13:41:09.000Z</time>
      </trkpt>
      <trkpt lat="44.17721" lon="6.75467">
        <ele>1298</ele>
        <time>2018-07-07T13:41:12.000Z</time>
      </trkpt>
      <trkpt lat="44.17722" lon="6.75459">
        <ele>1297</ele>
        <time>2018-07-07T13:41:13.000Z</time>
      </trkpt>
      <trkpt lat="44.17724" lon="6.75454">
        <ele>1296</ele>
        <time>2018-07-07T13:41:14.000Z</time>
      </trkpt>
      <trkpt lat="44.17725" lon="6.7545">
        <ele>1296</ele>
        <time>2018-07-07T13:41:16.000Z</time>
      </trkpt>
      <trkpt lat="44.17725" lon="6.75449">
        <ele>1296</ele>
        <time>2018-07-07T13:41:18.000Z</time>
      </trkpt>
      <trkpt lat="44.17725" lon="6.75448">
        <ele>1295</ele>
        <time>2018-07-07T13:41:20.000Z</time>
      </trkpt>
      <trkpt lat="44.17725" lon="6.75447">
        <ele>1295</ele>
        <time>2018-07-07T13:41:21.000Z</time>
      </trkpt>
      <trkpt lat="44.17727" lon="6.75445">
        <ele>1295</ele>
        <time>2018-07-07T13:41:27.000Z</time>
      </trkpt>
      <trkpt lat="44.17728" lon="6.75444">
        <ele>1295</ele>
        <time>2018-07-07T13:41:30.000Z</time>
      </trkpt>
      <trkpt lat="44.17731" lon="6.75437">
        <ele>1294</ele>
        <time>2018-07-07T13:41:33.000Z</time>
      </trkpt>
      <trkpt lat="44.17737" lon="6.75427">
        <ele>1292</ele>
        <time>2018-07-07T13:41:35.000Z</time>
      </trkpt>
      <trkpt lat="44.17741" lon="6.75421">
        <ele>1291</ele>
        <time>2018-07-07T13:41:36.000Z</time>
      </trkpt>
      <trkpt lat="44.17745" lon="6.75416">
        <ele>1286</ele>
        <time>2018-07-07T13:41:37.000Z</time>
      </trkpt>
      <trkpt lat="44.17752" lon="6.75408">
        <ele>1287</ele>
        <time>2018-07-07T13:41:39.000Z</time>
      </trkpt>
      <trkpt lat="44.17757" lon="6.7541">
        <ele>1286</ele>
        <time>2018-07-07T13:41:40.000Z</time>
      </trkpt>
      <trkpt lat="44.17761" lon="6.75411">
        <ele>1286</ele>
        <time>2018-07-07T13:41:41.000Z</time>
      </trkpt>
      <trkpt lat="44.1777" lon="6.7541">
        <ele>1285</ele>
        <time>2018-07-07T13:41:44.000Z</time>
      </trkpt>
      <trkpt lat="44.17771" lon="6.75411">
        <ele>1285</ele>
        <time>2018-07-07T13:41:47.000Z</time>
      </trkpt>
      <trkpt lat="44.17775" lon="6.7541">
        <ele>1285</ele>
        <time>2018-07-07T13:41:53.000Z</time>
      </trkpt>
      <trkpt lat="44.17778" lon="6.75412">
        <ele>1285</ele>
        <time>2018-07-07T13:41:59.000Z</time>
      </trkpt>
      <trkpt lat="44.17786" lon="6.7541">
        <ele>1285</ele>
        <time>2018-07-07T13:42:04.000Z</time>
      </trkpt>
      <trkpt lat="44.17793" lon="6.75407">
        <ele>1286</ele>
        <time>2018-07-07T13:42:08.000Z</time>
      </trkpt>
      <trkpt lat="44.17798" lon="6.75403">
        <ele>1286</ele>
        <time>2018-07-07T13:42:11.000Z</time>
      </trkpt>
      <trkpt lat="44.17804" lon="6.75397">
        <ele>1286</ele>
        <time>2018-07-07T13:42:14.000Z</time>
      </trkpt>
      <trkpt lat="44.17816" lon="6.7539">
        <ele>1286</ele>
        <time>2018-07-07T13:42:18.000Z</time>
      </trkpt>
      <trkpt lat="44.17821" lon="6.75388">
        <ele>1286</ele>
        <time>2018-07-07T13:42:20.000Z</time>
      </trkpt>
      <trkpt lat="44.17822" lon="6.75385">
        <ele>1285</ele>
        <time>2018-07-07T13:42:21.000Z</time>
      </trkpt>
      <trkpt lat="44.17825" lon="6.75381">
        <ele>1284</ele>
        <time>2018-07-07T13:42:22.000Z</time>
      </trkpt>
      <trkpt lat="44.17837" lon="6.75377">
        <ele>1291</ele>
        <time>2018-07-07T13:42:25.000Z</time>
      </trkpt>
      <trkpt lat="44.17844" lon="6.75371">
        <ele>1290</ele>
        <time>2018-07-07T13:42:27.000Z</time>
      </trkpt>
      <trkpt lat="44.17849" lon="6.75361">
        <ele>1288</ele>
        <time>2018-07-07T13:42:29.000Z</time>
      </trkpt>
      <trkpt lat="44.17853" lon="6.75357">
        <ele>1287</ele>
        <time>2018-07-07T13:42:30.000Z</time>
      </trkpt>
      <trkpt lat="44.17856" lon="6.75355">
        <ele>1288</ele>
        <time>2018-07-07T13:42:31.000Z</time>
      </trkpt>
      <trkpt lat="44.17864" lon="6.75351">
        <ele>1288</ele>
        <time>2018-07-07T13:42:34.000Z</time>
      </trkpt>
      <trkpt lat="44.17866" lon="6.75348">
        <ele>1288</ele>
        <time>2018-07-07T13:42:36.000Z</time>
      </trkpt>
      <trkpt lat="44.17871" lon="6.75345">
        <ele>1288</ele>
        <time>2018-07-07T13:42:38.000Z</time>
      </trkpt>
      <trkpt lat="44.17874" lon="6.75345">
        <ele>1289</ele>
        <time>2018-07-07T13:42:39.000Z</time>
      </trkpt>
      <trkpt lat="44.17882" lon="6.75332">
        <ele>1273</ele>
        <time>2018-07-07T13:42:42.000Z</time>
      </trkpt>
      <trkpt lat="44.17899" lon="6.75319">
        <ele>1275</ele>
        <time>2018-07-07T13:42:45.000Z</time>
      </trkpt>
      <trkpt lat="44.17902" lon="6.75314">
        <ele>1274</ele>
        <time>2018-07-07T13:42:46.000Z</time>
      </trkpt>
      <trkpt lat="44.17907" lon="6.75302">
        <ele>1272</ele>
        <time>2018-07-07T13:42:48.000Z</time>
      </trkpt>
      <trkpt lat="44.1792" lon="6.75284">
        <ele>1270</ele>
        <time>2018-07-07T13:42:51.000Z</time>
      </trkpt>
      <trkpt lat="44.17925" lon="6.75281">
        <ele>1270</ele>
        <time>2018-07-07T13:42:52.000Z</time>
      </trkpt>
      <trkpt lat="44.17929" lon="6.75275">
        <ele>1269</ele>
        <time>2018-07-07T13:42:53.000Z</time>
      </trkpt>
      <trkpt lat="44.17936" lon="6.75271">
        <ele>1268</ele>
        <time>2018-07-07T13:42:55.000Z</time>
      </trkpt>
      <trkpt lat="44.17936" lon="6.75269">
        <ele>1268</ele>
        <time>2018-07-07T13:42:56.000Z</time>
      </trkpt>
      <trkpt lat="44.17935" lon="6.75268">
        <ele>1267</ele>
        <time>2018-07-07T13:42:57.000Z</time>
      </trkpt>
      <trkpt lat="44.17934" lon="6.75266">
        <ele>1267</ele>
        <time>2018-07-07T13:42:58.000Z</time>
      </trkpt>
      <trkpt lat="44.17931" lon="6.75263">
        <ele>1266</ele>
        <time>2018-07-07T13:43:00.000Z</time>
      </trkpt>
      <trkpt lat="44.17928" lon="6.75261">
        <ele>1266</ele>
        <time>2018-07-07T13:43:01.000Z</time>
      </trkpt>
      <trkpt lat="44.17924" lon="6.75257">
        <ele>1264</ele>
        <time>2018-07-07T13:43:02.000Z</time>
      </trkpt>
      <trkpt lat="44.1792" lon="6.75253">
        <ele>1263</ele>
        <time>2018-07-07T13:43:04.000Z</time>
      </trkpt>
      <trkpt lat="44.17921" lon="6.75253">
        <ele>1263</ele>
        <time>2018-07-07T13:43:06.000Z</time>
      </trkpt>
      <trkpt lat="44.1792" lon="6.75251">
        <ele>1262</ele>
        <time>2018-07-07T13:43:10.000Z</time>
      </trkpt>
      <trkpt lat="44.17919" lon="6.75251">
        <ele>1262</ele>
        <time>2018-07-07T13:43:12.000Z</time>
      </trkpt>
      <trkpt lat="44.17917" lon="6.7525">
        <ele>1261</ele>
        <time>2018-07-07T13:43:19.000Z</time>
      </trkpt>
      <trkpt lat="44.17915" lon="6.75249">
        <ele>1259</ele>
        <time>2018-07-07T13:43:26.000Z</time>
      </trkpt>
      <trkpt lat="44.17911" lon="6.75248">
        <ele>1256</ele>
        <time>2018-07-07T13:43:29.000Z</time>
      </trkpt>
      <trkpt lat="44.17911" lon="6.75241">
        <ele>1253</ele>
        <time>2018-07-07T13:43:30.000Z</time>
      </trkpt>
      <trkpt lat="44.17915" lon="6.7523">
        <ele>1248</ele>
        <time>2018-07-07T13:43:32.000Z</time>
      </trkpt>
      <trkpt lat="44.17919" lon="6.75227">
        <ele>1250</ele>
        <time>2018-07-07T13:43:33.000Z</time>
      </trkpt>
      <trkpt lat="44.17923" lon="6.75228">
        <ele>1250</ele>
        <time>2018-07-07T13:43:34.000Z</time>
      </trkpt>
      <trkpt lat="44.17928" lon="6.75226">
        <ele>1249</ele>
        <time>2018-07-07T13:43:36.000Z</time>
      </trkpt>
      <trkpt lat="44.1793" lon="6.75224">
        <ele>1248</ele>
        <time>2018-07-07T13:43:37.000Z</time>
      </trkpt>
      <trkpt lat="44.17933" lon="6.75222">
        <ele>1248</ele>
        <time>2018-07-07T13:43:38.000Z</time>
      </trkpt>
      <trkpt lat="44.17938" lon="6.75219">
        <ele>1247</ele>
        <time>2018-07-07T13:43:39.000Z</time>
      </trkpt>
      <trkpt lat="44.17943" lon="6.75217">
        <ele>1246</ele>
        <time>2018-07-07T13:43:40.000Z</time>
      </trkpt>
      <trkpt lat="44.17952" lon="6.75215">
        <ele>1245</ele>
        <time>2018-07-07T13:43:42.000Z</time>
      </trkpt>
      <trkpt lat="44.17956" lon="6.75213">
        <ele>1245</ele>
        <time>2018-07-07T13:43:43.000Z</time>
      </trkpt>
      <trkpt lat="44.17961" lon="6.75208">
        <ele>1244</ele>
        <time>2018-07-07T13:43:44.000Z</time>
      </trkpt>
      <trkpt lat="44.17972" lon="6.75194">
        <ele>1241</ele>
        <time>2018-07-07T13:43:46.000Z</time>
      </trkpt>
      <trkpt lat="44.17982" lon="6.75185">
        <ele>1238</ele>
        <time>2018-07-07T13:43:48.000Z</time>
      </trkpt>
      <trkpt lat="44.17985" lon="6.75179">
        <ele>1237</ele>
        <time>2018-07-07T13:43:49.000Z</time>
      </trkpt>
      <trkpt lat="44.17989" lon="6.75176">
        <ele>1235</ele>
        <time>2018-07-07T13:43:50.000Z</time>
      </trkpt>
      <trkpt lat="44.17994" lon="6.75177">
        <ele>1235</ele>
        <time>2018-07-07T13:43:51.000Z</time>
      </trkpt>
      <trkpt lat="44.17999" lon="6.75181">
        <ele>1236</ele>
        <time>2018-07-07T13:43:52.000Z</time>
      </trkpt>
      <trkpt lat="44.18005" lon="6.75185">
        <ele>1234</ele>
        <time>2018-07-07T13:43:53.000Z</time>
      </trkpt>
      <trkpt lat="44.18009" lon="6.75187">
        <ele>1234</ele>
        <time>2018-07-07T13:43:54.000Z</time>
      </trkpt>
      <trkpt lat="44.18014" lon="6.75189">
        <ele>1235</ele>
        <time>2018-07-07T13:43:55.000Z</time>
      </trkpt>
      <trkpt lat="44.18019" lon="6.75192">
        <ele>1235</ele>
        <time>2018-07-07T13:43:56.000Z</time>
      </trkpt>
      <trkpt lat="44.18025" lon="6.75197">
        <ele>1236</ele>
        <time>2018-07-07T13:43:57.000Z</time>
      </trkpt>
      <trkpt lat="44.1803" lon="6.75201">
        <ele>1236</ele>
        <time>2018-07-07T13:43:58.000Z</time>
      </trkpt>
      <trkpt lat="44.18035" lon="6.75203">
        <ele>1236</ele>
        <time>2018-07-07T13:43:59.000Z</time>
      </trkpt>
      <trkpt lat="44.1804" lon="6.75202">
        <ele>1235</ele>
        <time>2018-07-07T13:44:00.000Z</time>
      </trkpt>
      <trkpt lat="44.18048" lon="6.75206">
        <ele>1235</ele>
        <time>2018-07-07T13:44:02.000Z</time>
      </trkpt>
      <trkpt lat="44.1805" lon="6.75209">
        <ele>1235</ele>
        <time>2018-07-07T13:44:03.000Z</time>
      </trkpt>
      <trkpt lat="44.18052" lon="6.75208">
        <ele>1235</ele>
        <time>2018-07-07T13:44:04.000Z</time>
      </trkpt>
      <trkpt lat="44.18058" lon="6.75205">
        <ele>1234</ele>
        <time>2018-07-07T13:44:06.000Z</time>
      </trkpt>
      <trkpt lat="44.18061" lon="6.75199">
        <ele>1233</ele>
        <time>2018-07-07T13:44:08.000Z</time>
      </trkpt>
      <trkpt lat="44.18064" lon="6.75198">
        <ele>1233</ele>
        <time>2018-07-07T13:44:09.000Z</time>
      </trkpt>
      <trkpt lat="44.18065" lon="6.75194">
        <ele>1232</ele>
        <time>2018-07-07T13:44:10.000Z</time>
      </trkpt>
      <trkpt lat="44.18066" lon="6.7519">
        <ele>1231</ele>
        <time>2018-07-07T13:44:11.000Z</time>
      </trkpt>
      <trkpt lat="44.18063" lon="6.75186">
        <ele>1231</ele>
        <time>2018-07-07T13:44:12.000Z</time>
      </trkpt>
      <trkpt lat="44.18063" lon="6.75181">
        <ele>1230</ele>
        <time>2018-07-07T13:44:13.000Z</time>
      </trkpt>
      <trkpt lat="44.18063" lon="6.75173">
        <ele>1230</ele>
        <time>2018-07-07T13:44:15.000Z</time>
      </trkpt>
      <trkpt lat="44.18061" lon="6.7517">
        <ele>1230</ele>
        <time>2018-07-07T13:44:16.000Z</time>
      </trkpt>
      <trkpt lat="44.1806" lon="6.75167">
        <ele>1230</ele>
        <time>2018-07-07T13:44:17.000Z</time>
      </trkpt>
      <trkpt lat="44.18058" lon="6.75163">
        <ele>1219</ele>
        <time>2018-07-07T13:44:19.000Z</time>
      </trkpt>
      <trkpt lat="44.18058" lon="6.75161">
        <ele>1219</ele>
        <time>2018-07-07T13:44:20.000Z</time>
      </trkpt>
      <trkpt lat="44.18058" lon="6.75158">
        <ele>1219</ele>
        <time>2018-07-07T13:44:21.000Z</time>
      </trkpt>
      <trkpt lat="44.18059" lon="6.75154">
        <ele>1219</ele>
        <time>2018-07-07T13:44:23.000Z</time>
      </trkpt>
      <trkpt lat="44.18059" lon="6.75152">
        <ele>1219</ele>
        <time>2018-07-07T13:44:24.000Z</time>
      </trkpt>
      <trkpt lat="44.18057" lon="6.75143">
        <ele>1218</ele>
        <time>2018-07-07T13:44:27.000Z</time>
      </trkpt>
      <trkpt lat="44.18054" lon="6.75135">
        <ele>1217</ele>
        <time>2018-07-07T13:44:29.000Z</time>
      </trkpt>
      <trkpt lat="44.18052" lon="6.75134">
        <ele>1217</ele>
        <time>2018-07-07T13:44:30.000Z</time>
      </trkpt>
      <trkpt lat="44.18047" lon="6.75126">
        <ele>1216</ele>
        <time>2018-07-07T13:44:33.000Z</time>
      </trkpt>
      <trkpt lat="44.18043" lon="6.75116">
        <ele>1215</ele>
        <time>2018-07-07T13:44:37.000Z</time>
      </trkpt>
      <trkpt lat="44.18043" lon="6.75109">
        <ele>1215</ele>
        <time>2018-07-07T13:44:39.000Z</time>
      </trkpt>
      <trkpt lat="44.18043" lon="6.75106">
        <ele>1214</ele>
        <time>2018-07-07T13:44:41.000Z</time>
      </trkpt>
      <trkpt lat="44.18043" lon="6.75104">
        <ele>1214</ele>
        <time>2018-07-07T13:44:46.000Z</time>
      </trkpt>
      <trkpt lat="44.18044" lon="6.75098">
        <ele>1214</ele>
        <time>2018-07-07T13:44:52.000Z</time>
      </trkpt>
      <trkpt lat="44.18043" lon="6.75091">
        <ele>1213</ele>
        <time>2018-07-07T13:44:58.000Z</time>
      </trkpt>
      <trkpt lat="44.18042" lon="6.75083">
        <ele>1205</ele>
        <time>2018-07-07T13:45:06.000Z</time>
      </trkpt>
      <trkpt lat="44.18042" lon="6.75081">
        <ele>1205</ele>
        <time>2018-07-07T13:45:13.000Z</time>
      </trkpt>
      <trkpt lat="44.18043" lon="6.75076">
        <ele>1205</ele>
        <time>2018-07-07T13:45:20.000Z</time>
      </trkpt>
      <trkpt lat="44.18042" lon="6.75073">
        <ele>1204</ele>
        <time>2018-07-07T13:45:39.000Z</time>
      </trkpt>
      <trkpt lat="44.1804" lon="6.75069">
        <ele>1204</ele>
        <time>2018-07-07T13:45:57.000Z</time>
      </trkpt>
      <trkpt lat="44.18039" lon="6.75067">
        <ele>1204</ele>
        <time>2018-07-07T13:46:06.000Z</time>
      </trkpt>
      <trkpt lat="44.18039" lon="6.75066">
        <ele>1204</ele>
        <time>2018-07-07T13:46:15.000Z</time>
      </trkpt>
      <trkpt lat="44.18035" lon="6.75055">
        <ele>1204</ele>
        <time>2018-07-07T13:46:21.000Z</time>
      </trkpt>
      <trkpt lat="44.18031" lon="6.75041">
        <ele>1203</ele>
        <time>2018-07-07T13:46:27.000Z</time>
      </trkpt>
      <trkpt lat="44.18032" lon="6.75042">
        <ele>1203</ele>
        <time>2018-07-07T13:46:28.000Z</time>
      </trkpt>
      <trkpt lat="44.18032" lon="6.75041">
        <ele>1203</ele>
        <time>2018-07-07T13:46:32.000Z</time>
      </trkpt>
      <trkpt lat="44.18033" lon="6.7504">
        <ele>1203</ele>
        <time>2018-07-07T13:46:35.000Z</time>
      </trkpt>
      <trkpt lat="44.18037" lon="6.75039">
        <ele>1203</ele>
        <time>2018-07-07T13:46:38.000Z</time>
      </trkpt>
      <trkpt lat="44.18042" lon="6.75041">
        <ele>1203</ele>
        <time>2018-07-07T13:46:42.000Z</time>
      </trkpt>
      <trkpt lat="44.18046" lon="6.75042">
        <ele>1203</ele>
        <time>2018-07-07T13:46:45.000Z</time>
      </trkpt>
      <trkpt lat="44.18047" lon="6.75041">
        <ele>1203</ele>
        <time>2018-07-07T13:46:47.000Z</time>
      </trkpt>
      <trkpt lat="44.18053" lon="6.75034">
        <ele>1203</ele>
        <time>2018-07-07T13:46:50.000Z</time>
      </trkpt>
      <trkpt lat="44.1806" lon="6.75031">
        <ele>1203</ele>
        <time>2018-07-07T13:46:54.000Z</time>
      </trkpt>
      <trkpt lat="44.18068" lon="6.75023">
        <ele>1202</ele>
        <time>2018-07-07T13:46:58.000Z</time>
      </trkpt>
      <trkpt lat="44.1807" lon="6.7502">
        <ele>1202</ele>
        <time>2018-07-07T13:47:00.000Z</time>
      </trkpt>
      <trkpt lat="44.18072" lon="6.75018">
        <ele>1202</ele>
        <time>2018-07-07T13:47:02.000Z</time>
      </trkpt>
      <trkpt lat="44.18073" lon="6.75018">
        <ele>1202</ele>
        <time>2018-07-07T13:47:03.000Z</time>
      </trkpt>
      <trkpt lat="44.18077" lon="6.75015">
        <ele>1202</ele>
        <time>2018-07-07T13:47:07.000Z</time>
      </trkpt>
      <trkpt lat="44.18078" lon="6.75015">
        <ele>1202</ele>
        <time>2018-07-07T13:47:13.000Z</time>
      </trkpt>
      <trkpt lat="44.18078" lon="6.75017">
        <ele>1202</ele>
        <time>2018-07-07T13:47:16.000Z</time>
      </trkpt>
      <trkpt lat="44.18079" lon="6.75019">
        <ele>1202</ele>
        <time>2018-07-07T13:47:18.000Z</time>
      </trkpt>
      <trkpt lat="44.1808" lon="6.7502">
        <ele>1202</ele>
        <time>2018-07-07T13:47:20.000Z</time>
      </trkpt>
      <trkpt lat="44.18084" lon="6.75021">
        <ele>1206</ele>
        <time>2018-07-07T13:47:23.000Z</time>
      </trkpt>
      <trkpt lat="44.18085" lon="6.75022">
        <ele>1206</ele>
        <time>2018-07-07T13:47:24.000Z</time>
      </trkpt>
      <trkpt lat="44.18088" lon="6.75026">
        <ele>1207</ele>
        <time>2018-07-07T13:47:28.000Z</time>
      </trkpt>
      <trkpt lat="44.1809" lon="6.75027">
        <ele>1207</ele>
        <time>2018-07-07T13:47:30.000Z</time>
      </trkpt>
      <trkpt lat="44.18091" lon="6.75026">
        <ele>1207</ele>
        <time>2018-07-07T13:47:32.000Z</time>
      </trkpt>
      <trkpt lat="44.18094" lon="6.75026">
        <ele>1207</ele>
        <time>2018-07-07T13:47:34.000Z</time>
      </trkpt>
      <trkpt lat="44.18105" lon="6.75022">
        <ele>1207</ele>
        <time>2018-07-07T13:47:40.000Z</time>
      </trkpt>
      <trkpt lat="44.18107" lon="6.75021">
        <ele>1207</ele>
        <time>2018-07-07T13:47:41.000Z</time>
      </trkpt>
      <trkpt lat="44.18114" lon="6.75018">
        <ele>1208</ele>
        <time>2018-07-07T13:47:45.000Z</time>
      </trkpt>
      <trkpt lat="44.1812" lon="6.75014">
        <ele>1208</ele>
        <time>2018-07-07T13:47:48.000Z</time>
      </trkpt>
      <trkpt lat="44.18133" lon="6.75">
        <ele>1208</ele>
        <time>2018-07-07T13:47:56.000Z</time>
      </trkpt>
      <trkpt lat="44.18135" lon="6.74996">
        <ele>1208</ele>
        <time>2018-07-07T13:47:58.000Z</time>
      </trkpt>
      <trkpt lat="44.1814" lon="6.74986">
        <ele>1209</ele>
        <time>2018-07-07T13:48:03.000Z</time>
      </trkpt>
      <trkpt lat="44.18141" lon="6.74984">
        <ele>1209</ele>
        <time>2018-07-07T13:48:04.000Z</time>
      </trkpt>
      <trkpt lat="44.18151" lon="6.74976">
        <ele>1209</ele>
        <time>2018-07-07T13:48:10.000Z</time>
      </trkpt>
      <trkpt lat="44.18163" lon="6.74977">
        <ele>1210</ele>
        <time>2018-07-07T13:48:17.000Z</time>
      </trkpt>
      <trkpt lat="44.18165" lon="6.74977">
        <ele>1210</ele>
        <time>2018-07-07T13:48:18.000Z</time>
      </trkpt>
      <trkpt lat="44.18182" lon="6.74975">
        <ele>1213</ele>
        <time>2018-07-07T13:48:26.000Z</time>
      </trkpt>
      <trkpt lat="44.18188" lon="6.74974">
        <ele>1213</ele>
        <time>2018-07-07T13:48:29.000Z</time>
      </trkpt>
      <trkpt lat="44.18194" lon="6.74973">
        <ele>1214</ele>
        <time>2018-07-07T13:48:32.000Z</time>
      </trkpt>
      <trkpt lat="44.18197" lon="6.74973">
        <ele>1214</ele>
        <time>2018-07-07T13:48:34.000Z</time>
      </trkpt>
      <trkpt lat="44.1821" lon="6.74974">
        <ele>1214</ele>
        <time>2018-07-07T13:48:40.000Z</time>
      </trkpt>
      <trkpt lat="44.18211" lon="6.74974">
        <ele>1214</ele>
        <time>2018-07-07T13:48:41.000Z</time>
      </trkpt>
      <trkpt lat="44.18226" lon="6.74973">
        <ele>1215</ele>
        <time>2018-07-07T13:48:48.000Z</time>
      </trkpt>
      <trkpt lat="44.18228" lon="6.74973">
        <ele>1215</ele>
        <time>2018-07-07T13:48:49.000Z</time>
      </trkpt>
      <trkpt lat="44.18238" lon="6.74975">
        <ele>1215</ele>
        <time>2018-07-07T13:48:54.000Z</time>
      </trkpt>
      <trkpt lat="44.18243" lon="6.74976">
        <ele>1215</ele>
        <time>2018-07-07T13:48:57.000Z</time>
      </trkpt>
      <trkpt lat="44.1825" lon="6.74976">
        <ele>1215</ele>
        <time>2018-07-07T13:49:01.000Z</time>
      </trkpt>
      <trkpt lat="44.18254" lon="6.74977">
        <ele>1219</ele>
        <time>2018-07-07T13:49:03.000Z</time>
      </trkpt>
      <trkpt lat="44.18267" lon="6.74977">
        <ele>1220</ele>
        <time>2018-07-07T13:49:08.000Z</time>
      </trkpt>
      <trkpt lat="44.18273" lon="6.74969">
        <ele>1220</ele>
        <time>2018-07-07T13:49:13.000Z</time>
      </trkpt>
      <trkpt lat="44.18274" lon="6.74969">
        <ele>1220</ele>
        <time>2018-07-07T13:49:15.000Z</time>
      </trkpt>
      <trkpt lat="44.18276" lon="6.74967">
        <ele>1221</ele>
        <time>2018-07-07T13:49:17.000Z</time>
      </trkpt>
      <trkpt lat="44.18285" lon="6.74962">
        <ele>1221</ele>
        <time>2018-07-07T13:49:24.000Z</time>
      </trkpt>
      <trkpt lat="44.18289" lon="6.74957">
        <ele>1222</ele>
        <time>2018-07-07T13:49:28.000Z</time>
      </trkpt>
      <trkpt lat="44.1829" lon="6.74951">
        <ele>1222</ele>
        <time>2018-07-07T13:49:31.000Z</time>
      </trkpt>
      <trkpt lat="44.1829" lon="6.74949">
        <ele>1222</ele>
        <time>2018-07-07T13:49:32.000Z</time>
      </trkpt>
      <trkpt lat="44.18289" lon="6.74942">
        <ele>1222</ele>
        <time>2018-07-07T13:49:36.000Z</time>
      </trkpt>
      <trkpt lat="44.18287" lon="6.74938">
        <ele>1222</ele>
        <time>2018-07-07T13:49:38.000Z</time>
      </trkpt>
      <trkpt lat="44.18282" lon="6.74925">
        <ele>1222</ele>
        <time>2018-07-07T13:49:44.000Z</time>
      </trkpt>
      <trkpt lat="44.1828" lon="6.7492">
        <ele>1221</ele>
        <time>2018-07-07T13:49:46.000Z</time>
      </trkpt>
      <trkpt lat="44.18274" lon="6.7491">
        <ele>1230</ele>
        <time>2018-07-07T13:49:50.000Z</time>
      </trkpt>
      <trkpt lat="44.18267" lon="6.74899">
        <ele>1230</ele>
        <time>2018-07-07T13:49:55.000Z</time>
      </trkpt>
      <trkpt lat="44.18261" lon="6.74888">
        <ele>1232</ele>
        <time>2018-07-07T13:50:00.000Z</time>
      </trkpt>
      <trkpt lat="44.18259" lon="6.74884">
        <ele>1233</ele>
        <time>2018-07-07T13:50:02.000Z</time>
      </trkpt>
      <trkpt lat="44.18257" lon="6.74879">
        <ele>1234</ele>
        <time>2018-07-07T13:50:04.000Z</time>
      </trkpt>
      <trkpt lat="44.18252" lon="6.74871">
        <ele>1236</ele>
        <time>2018-07-07T13:50:08.000Z</time>
      </trkpt>
      <trkpt lat="44.18251" lon="6.74869">
        <ele>1236</ele>
        <time>2018-07-07T13:50:09.000Z</time>
      </trkpt>
      <trkpt lat="44.18246" lon="6.74863">
        <ele>1231</ele>
        <time>2018-07-07T13:50:13.000Z</time>
      </trkpt>
      <trkpt lat="44.18242" lon="6.74859">
        <ele>1232</ele>
        <time>2018-07-07T13:50:16.000Z</time>
      </trkpt>
      <trkpt lat="44.1824" lon="6.74857">
        <ele>1233</ele>
        <time>2018-07-07T13:50:18.000Z</time>
      </trkpt>
      <trkpt lat="44.18236" lon="6.74854">
        <ele>1233</ele>
        <time>2018-07-07T13:50:21.000Z</time>
      </trkpt>
      <trkpt lat="44.18235" lon="6.74853">
        <ele>1233</ele>
        <time>2018-07-07T13:50:22.000Z</time>
      </trkpt>
      <trkpt lat="44.18234" lon="6.74849">
        <ele>1234</ele>
        <time>2018-07-07T13:50:24.000Z</time>
      </trkpt>
      <trkpt lat="44.18234" lon="6.74847">
        <ele>1234</ele>
        <time>2018-07-07T13:50:25.000Z</time>
      </trkpt>
      <trkpt lat="44.18235" lon="6.74845">
        <ele>1235</ele>
        <time>2018-07-07T13:50:26.000Z</time>
      </trkpt>
      <trkpt lat="44.1824" lon="6.74849">
        <ele>1235</ele>
        <time>2018-07-07T13:50:29.000Z</time>
      </trkpt>
      <trkpt lat="44.18255" lon="6.7486">
        <ele>1238</ele>
        <time>2018-07-07T13:50:36.000Z</time>
      </trkpt>
      <trkpt lat="44.18279" lon="6.74877">
        <ele>1236</ele>
        <time>2018-07-07T13:50:46.000Z</time>
      </trkpt>
      <trkpt lat="44.18281" lon="6.74879">
        <ele>1236</ele>
        <time>2018-07-07T13:50:47.000Z</time>
      </trkpt>
      <trkpt lat="44.18305" lon="6.74896">
        <ele>1236</ele>
        <time>2018-07-07T13:50:57.000Z</time>
      </trkpt>
      <trkpt lat="44.18307" lon="6.74897">
        <ele>1236</ele>
        <time>2018-07-07T13:50:58.000Z</time>
      </trkpt>
      <trkpt lat="44.18328" lon="6.74905">
        <ele>1235</ele>
        <time>2018-07-07T13:51:06.000Z</time>
      </trkpt>
      <trkpt lat="44.18339" lon="6.74906">
        <ele>1238</ele>
        <time>2018-07-07T13:51:10.000Z</time>
      </trkpt>
      <trkpt lat="44.18353" lon="6.74909">
        <ele>1240</ele>
        <time>2018-07-07T13:51:15.000Z</time>
      </trkpt>
      <trkpt lat="44.18364" lon="6.7491">
        <ele>1241</ele>
        <time>2018-07-07T13:51:19.000Z</time>
      </trkpt>
      <trkpt lat="44.18383" lon="6.74911">
        <ele>1241</ele>
        <time>2018-07-07T13:51:26.000Z</time>
      </trkpt>
      <trkpt lat="44.18396" lon="6.74911">
        <ele>1240</ele>
        <time>2018-07-07T13:51:31.000Z</time>
      </trkpt>
      <trkpt lat="44.18412" lon="6.7491">
        <ele>1238</ele>
        <time>2018-07-07T13:51:37.000Z</time>
      </trkpt>
      <trkpt lat="44.18418" lon="6.74908">
        <ele>1238</ele>
        <time>2018-07-07T13:51:39.000Z</time>
      </trkpt>
      <trkpt lat="44.1844" lon="6.74902">
        <ele>1242</ele>
        <time>2018-07-07T13:51:47.000Z</time>
      </trkpt>
      <trkpt lat="44.18442" lon="6.749">
        <ele>1242</ele>
        <time>2018-07-07T13:51:48.000Z</time>
      </trkpt>
      <trkpt lat="44.18469" lon="6.74889">
        <ele>1243</ele>
        <time>2018-07-07T13:51:57.000Z</time>
      </trkpt>
      <trkpt lat="44.18494" lon="6.74878">
        <ele>1244</ele>
        <time>2018-07-07T13:52:06.000Z</time>
      </trkpt>
      <trkpt lat="44.185" lon="6.74876">
        <ele>1244</ele>
        <time>2018-07-07T13:52:08.000Z</time>
      </trkpt>
      <trkpt lat="44.18517" lon="6.74869">
        <ele>1245</ele>
        <time>2018-07-07T13:52:14.000Z</time>
      </trkpt>
      <trkpt lat="44.18529" lon="6.74864">
        <ele>1246</ele>
        <time>2018-07-07T13:52:18.000Z</time>
      </trkpt>
      <trkpt lat="44.1854" lon="6.74859">
        <ele>1246</ele>
        <time>2018-07-07T13:52:22.000Z</time>
      </trkpt>
      <trkpt lat="44.18557" lon="6.74852">
        <ele>1247</ele>
        <time>2018-07-07T13:52:28.000Z</time>
      </trkpt>
      <trkpt lat="44.18568" lon="6.74848">
        <ele>1248</ele>
        <time>2018-07-07T13:52:32.000Z</time>
      </trkpt>
      <trkpt lat="44.18583" lon="6.74841">
        <ele>1249</ele>
        <time>2018-07-07T13:52:37.000Z</time>
      </trkpt>
      <trkpt lat="44.18592" lon="6.74837">
        <ele>1249</ele>
        <time>2018-07-07T13:52:40.000Z</time>
      </trkpt>
      <trkpt lat="44.18609" lon="6.74828">
        <ele>1256</ele>
        <time>2018-07-07T13:52:46.000Z</time>
      </trkpt>
      <trkpt lat="44.18615" lon="6.74825">
        <ele>1256</ele>
        <time>2018-07-07T13:52:48.000Z</time>
      </trkpt>
      <trkpt lat="44.18641" lon="6.74814">
        <ele>1257</ele>
        <time>2018-07-07T13:52:56.000Z</time>
      </trkpt>
      <trkpt lat="44.18651" lon="6.74809">
        <ele>1257</ele>
        <time>2018-07-07T13:52:59.000Z</time>
      </trkpt>
      <trkpt lat="44.18665" lon="6.74801">
        <ele>1258</ele>
        <time>2018-07-07T13:53:04.000Z</time>
      </trkpt>
      <trkpt lat="44.18671" lon="6.74796">
        <ele>1258</ele>
        <time>2018-07-07T13:53:06.000Z</time>
      </trkpt>
      <trkpt lat="44.18687" lon="6.74788">
        <ele>1259</ele>
        <time>2018-07-07T13:53:12.000Z</time>
      </trkpt>
      <trkpt lat="44.18693" lon="6.74789">
        <ele>1258</ele>
        <time>2018-07-07T13:53:14.000Z</time>
      </trkpt>
      <trkpt lat="44.18695" lon="6.74791">
        <ele>1258</ele>
        <time>2018-07-07T13:53:15.000Z</time>
      </trkpt>
      <trkpt lat="44.18698" lon="6.74794">
        <ele>1258</ele>
        <time>2018-07-07T13:53:16.000Z</time>
      </trkpt>
      <trkpt lat="44.18712" lon="6.74799">
        <ele>1258</ele>
        <time>2018-07-07T13:53:21.000Z</time>
      </trkpt>
      <trkpt lat="44.18714" lon="6.748">
        <ele>1257</ele>
        <time>2018-07-07T13:53:25.000Z</time>
      </trkpt>
    </trkseg>
  </trk>
</gpx>